<?xml version="1.0" encoding="UTF-8" standalone="no" ?>
<gpx xmlns="http://www.topografix.com/GPX/1/1" xmlns:xsi="http://www.w3.org/2001/XMLSchema-instance" xsi:schemaLocation="http://www.topografix.com/GPX/1/1 http://www.topografix.com/GPX/1/1/gpx.xsd" version="1.1" creator="VisuGPX - https://www.visugpx.com">
  <metadata>
    <name>Launaguet-Montberon-Montjoire-Buzet 80 KM</name>
  </metadata>
  <trk>
    <name><![CDATA[Launaguet-Montberon-Montjoire-Buzet 80 Km]]></name>
    <extensions>
      <line xmlns="http://www.topografix.com/GPX/gpx_style/0/2">
        <color>0000FF</color>
        <width>2</width>
      </line>
    </extensions>
    <trkseg>
      <trkpt lat="43.65582" lon="1.44582">
        <ele>135.685503</ele>
        <time>2023-09-17T08:45:33.424Z</time>
      </trkpt>
      <trkpt lat="43.65582" lon="1.44582">
        <ele>135.685503</ele>
        <time>2023-09-17T08:45:37.424Z</time>
      </trkpt>
      <trkpt lat="43.6558" lon="1.44583">
        <ele>135.685503</ele>
        <time>2023-09-17T08:45:38.424Z</time>
      </trkpt>
      <trkpt lat="43.65579" lon="1.44583">
        <ele>135.685503</ele>
        <time>2023-09-17T08:45:39.424Z</time>
      </trkpt>
      <trkpt lat="43.65577" lon="1.44585">
        <ele>135.685503</ele>
        <time>2023-09-17T08:45:40.424Z</time>
      </trkpt>
      <trkpt lat="43.65575" lon="1.44586">
        <ele>135.685503</ele>
        <time>2023-09-17T08:45:41.424Z</time>
      </trkpt>
      <trkpt lat="43.65573" lon="1.44589">
        <ele>135.685503</ele>
        <time>2023-09-17T08:45:42.424Z</time>
      </trkpt>
      <trkpt lat="43.65571" lon="1.44592">
        <ele>135.685503</ele>
        <time>2023-09-17T08:45:43.424Z</time>
      </trkpt>
      <trkpt lat="43.6557" lon="1.44595">
        <ele>135.685503</ele>
        <time>2023-09-17T08:45:44.424Z</time>
      </trkpt>
      <trkpt lat="43.6557" lon="1.44595">
        <ele>135.685503</ele>
        <time>2023-09-17T08:45:44.424Z</time>
      </trkpt>
      <trkpt lat="43.65568" lon="1.44599">
        <ele>135.685503</ele>
        <time>2023-09-17T08:45:45.424Z</time>
      </trkpt>
      <trkpt lat="43.65567" lon="1.44602">
        <ele>135.685503</ele>
        <time>2023-09-17T08:45:47.424Z</time>
      </trkpt>
      <trkpt lat="43.65566" lon="1.44605">
        <ele>135.685503</ele>
        <time>2023-09-17T08:45:47.424Z</time>
      </trkpt>
      <trkpt lat="43.65566" lon="1.44605">
        <ele>135.685503</ele>
        <time>2023-09-17T08:45:49.424Z</time>
      </trkpt>
      <trkpt lat="43.65564" lon="1.44609">
        <ele>135.685503</ele>
        <time>2023-09-17T08:45:55.424Z</time>
      </trkpt>
      <trkpt lat="43.65564" lon="1.44609">
        <ele>135.685503</ele>
        <time>2023-09-17T08:45:58.424Z</time>
      </trkpt>
      <trkpt lat="43.65565" lon="1.44609">
        <ele>135.685503</ele>
        <time>2023-09-17T08:46:06.424Z</time>
      </trkpt>
      <trkpt lat="43.65565" lon="1.44609">
        <ele>135.685503</ele>
        <time>2023-09-17T08:46:07.424Z</time>
      </trkpt>
      <trkpt lat="43.65565" lon="1.44609">
        <ele>135.685503</ele>
        <time>2023-09-17T08:46:08.424Z</time>
      </trkpt>
      <trkpt lat="43.65566" lon="1.44612">
        <ele>135.685503</ele>
        <time>2023-09-17T08:46:09.424Z</time>
      </trkpt>
      <trkpt lat="43.65569" lon="1.44614">
        <ele>135.685503</ele>
        <time>2023-09-17T08:46:11.424Z</time>
      </trkpt>
      <trkpt lat="43.65569" lon="1.44614">
        <ele>135.685503</ele>
        <time>2023-09-17T08:46:11.424Z</time>
      </trkpt>
      <trkpt lat="43.65571" lon="1.44615">
        <ele>135.685503</ele>
        <time>2023-09-17T08:46:13.424Z</time>
      </trkpt>
      <trkpt lat="43.65571" lon="1.44615">
        <ele>135.685503</ele>
        <time>2023-09-17T08:46:13.424Z</time>
      </trkpt>
      <trkpt lat="43.65573" lon="1.44615">
        <ele>135.685503</ele>
        <time>2023-09-17T08:46:14.424Z</time>
      </trkpt>
      <trkpt lat="43.65575" lon="1.44615">
        <ele>135.685503</ele>
        <time>2023-09-17T08:46:15.424Z</time>
      </trkpt>
      <trkpt lat="43.65577" lon="1.44613">
        <ele>135.685503</ele>
        <time>2023-09-17T08:46:16.424Z</time>
      </trkpt>
      <trkpt lat="43.65579" lon="1.44611">
        <ele>135.685503</ele>
        <time>2023-09-17T08:46:17.424Z</time>
      </trkpt>
      <trkpt lat="43.65582" lon="1.44607">
        <ele>135.685503</ele>
        <time>2023-09-17T08:46:19.424Z</time>
      </trkpt>
      <trkpt lat="43.65584" lon="1.44607">
        <ele>135.685503</ele>
        <time>2023-09-17T08:46:21.424Z</time>
      </trkpt>
      <trkpt lat="43.65585" lon="1.44608">
        <ele>135.685503</ele>
        <time>2023-09-17T08:46:22.424Z</time>
      </trkpt>
      <trkpt lat="43.65589" lon="1.44611">
        <ele>135.685503</ele>
        <time>2023-09-17T08:46:23.424Z</time>
      </trkpt>
      <trkpt lat="43.65591" lon="1.44613">
        <ele>135.685503</ele>
        <time>2023-09-17T08:46:24.424Z</time>
      </trkpt>
      <trkpt lat="43.65593" lon="1.44614">
        <ele>135.685503</ele>
        <time>2023-09-17T08:46:25.424Z</time>
      </trkpt>
      <trkpt lat="43.65593" lon="1.44614">
        <ele>135.685503</ele>
        <time>2023-09-17T08:46:25.424Z</time>
      </trkpt>
      <trkpt lat="43.65595" lon="1.44616">
        <ele>135.685503</ele>
        <time>2023-09-17T08:46:26.424Z</time>
      </trkpt>
      <trkpt lat="43.65597" lon="1.44618">
        <ele>135.685503</ele>
        <time>2023-09-17T08:46:27.424Z</time>
      </trkpt>
      <trkpt lat="43.65598" lon="1.44619">
        <ele>135.685503</ele>
        <time>2023-09-17T08:46:28.424Z</time>
      </trkpt>
      <trkpt lat="43.656" lon="1.44621">
        <ele>135.685503</ele>
        <time>2023-09-17T08:46:29.424Z</time>
      </trkpt>
      <trkpt lat="43.65602" lon="1.44623">
        <ele>135.685503</ele>
        <time>2023-09-17T08:46:31.424Z</time>
      </trkpt>
      <trkpt lat="43.65602" lon="1.44623">
        <ele>135.685503</ele>
        <time>2023-09-17T08:46:31.424Z</time>
      </trkpt>
      <trkpt lat="43.65604" lon="1.44625">
        <ele>135.685503</ele>
        <time>2023-09-17T08:46:33.424Z</time>
      </trkpt>
      <trkpt lat="43.65604" lon="1.44625">
        <ele>135.685503</ele>
        <time>2023-09-17T08:46:33.424Z</time>
      </trkpt>
      <trkpt lat="43.65606" lon="1.44625">
        <ele>135.685503</ele>
        <time>2023-09-17T08:46:34.424Z</time>
      </trkpt>
      <trkpt lat="43.65608" lon="1.44625">
        <ele>135.685503</ele>
        <time>2023-09-17T08:46:35.424Z</time>
      </trkpt>
      <trkpt lat="43.65612" lon="1.44621">
        <ele>135.685503</ele>
        <time>2023-09-17T08:46:36.424Z</time>
      </trkpt>
      <trkpt lat="43.65612" lon="1.44621">
        <ele>135.685503</ele>
        <time>2023-09-17T08:46:36.424Z</time>
      </trkpt>
      <trkpt lat="43.65613" lon="1.44618">
        <ele>135.685503</ele>
        <time>2023-09-17T08:46:37.424Z</time>
      </trkpt>
      <trkpt lat="43.65612" lon="1.44615">
        <ele>135.685503</ele>
        <time>2023-09-17T08:46:38.424Z</time>
      </trkpt>
      <trkpt lat="43.6561" lon="1.44613">
        <ele>135.684629</ele>
        <time>2023-09-17T08:46:40.424Z</time>
      </trkpt>
      <trkpt lat="43.6561" lon="1.44613">
        <ele>135.684629</ele>
        <time>2023-09-17T08:46:40.424Z</time>
      </trkpt>
      <trkpt lat="43.65607" lon="1.44611">
        <ele>135.683313</ele>
        <time>2023-09-17T08:46:41.424Z</time>
      </trkpt>
      <trkpt lat="43.65605" lon="1.44612">
        <ele>135.682451</ele>
        <time>2023-09-17T08:46:42.424Z</time>
      </trkpt>
      <trkpt lat="43.65605" lon="1.44612">
        <ele>135.682451</ele>
        <time>2023-09-17T08:46:42.424Z</time>
      </trkpt>
      <trkpt lat="43.65603" lon="1.44615">
        <ele>135.681117</ele>
        <time>2023-09-17T08:46:43.424Z</time>
      </trkpt>
      <trkpt lat="43.65602" lon="1.44619">
        <ele>135.679732</ele>
        <time>2023-09-17T08:46:44.424Z</time>
      </trkpt>
      <trkpt lat="43.65602" lon="1.44619">
        <ele>135.679732</ele>
        <time>2023-09-17T08:46:44.424Z</time>
      </trkpt>
      <trkpt lat="43.65602" lon="1.44622">
        <ele>135.678724</ele>
        <time>2023-09-17T08:46:45.424Z</time>
      </trkpt>
      <trkpt lat="43.65603" lon="1.44624">
        <ele>135.677908</ele>
        <time>2023-09-17T08:46:46.424Z</time>
      </trkpt>
      <trkpt lat="43.65604" lon="1.44626">
        <ele>135.67705</ele>
        <time>2023-09-17T08:46:47.424Z</time>
      </trkpt>
      <trkpt lat="43.65607" lon="1.44627">
        <ele>135.675963</ele>
        <time>2023-09-17T08:46:48.424Z</time>
      </trkpt>
      <trkpt lat="43.65607" lon="1.44627">
        <ele>135.675963</ele>
        <time>2023-09-17T08:46:48.424Z</time>
      </trkpt>
      <trkpt lat="43.65609" lon="1.44627">
        <ele>135.675108</ele>
        <time>2023-09-17T08:46:49.424Z</time>
      </trkpt>
      <trkpt lat="43.65609" lon="1.44627">
        <ele>135.675108</ele>
        <time>2023-09-17T08:46:49.424Z</time>
      </trkpt>
      <trkpt lat="43.65609" lon="1.44627">
        <ele>135.675108</ele>
        <time>2023-09-17T08:46:50.424Z</time>
      </trkpt>
      <trkpt lat="43.65609" lon="1.44627">
        <ele>135.675108</ele>
        <time>2023-09-17T08:46:51.424Z</time>
      </trkpt>
      <trkpt lat="43.65609" lon="1.44627">
        <ele>135.675108</ele>
        <time>2023-09-17T08:46:52.424Z</time>
      </trkpt>
      <trkpt lat="43.65611" lon="1.4463">
        <ele>135.674012</ele>
        <time>2023-09-17T08:47:02.424Z</time>
      </trkpt>
      <trkpt lat="43.65611" lon="1.4463">
        <ele>135.674012</ele>
        <time>2023-09-17T08:47:03.424Z</time>
      </trkpt>
      <trkpt lat="43.65609" lon="1.44637">
        <ele>135.67146</ele>
        <time>2023-09-17T08:47:05.424Z</time>
      </trkpt>
      <trkpt lat="43.65609" lon="1.44641">
        <ele>135.670421</ele>
        <time>2023-09-17T08:47:07.424Z</time>
      </trkpt>
      <trkpt lat="43.65608" lon="1.44645">
        <ele>135.669003</ele>
        <time>2023-09-17T08:47:08.424Z</time>
      </trkpt>
      <trkpt lat="43.65608" lon="1.44645">
        <ele>135.669003</ele>
        <time>2023-09-17T08:47:08.424Z</time>
      </trkpt>
      <trkpt lat="43.65608" lon="1.4465">
        <ele>135.667275</ele>
        <time>2023-09-17T08:47:09.424Z</time>
      </trkpt>
      <trkpt lat="43.65608" lon="1.4465">
        <ele>135.667275</ele>
        <time>2023-09-17T08:47:09.424Z</time>
      </trkpt>
      <trkpt lat="43.65608" lon="1.44656">
        <ele>135.665451</ele>
        <time>2023-09-17T08:47:10.424Z</time>
      </trkpt>
      <trkpt lat="43.65608" lon="1.44662">
        <ele>135.663602</ele>
        <time>2023-09-17T08:47:11.424Z</time>
      </trkpt>
      <trkpt lat="43.65608" lon="1.44662">
        <ele>135.663602</ele>
        <time>2023-09-17T08:47:11.424Z</time>
      </trkpt>
      <trkpt lat="43.65606" lon="1.44667">
        <ele>135.661675</ele>
        <time>2023-09-17T08:47:12.424Z</time>
      </trkpt>
      <trkpt lat="43.65606" lon="1.44667">
        <ele>135.661675</ele>
        <time>2023-09-17T08:47:12.424Z</time>
      </trkpt>
      <trkpt lat="43.65603" lon="1.44672">
        <ele>135.659907</ele>
        <time>2023-09-17T08:47:12.424Z</time>
      </trkpt>
      <trkpt lat="43.65603" lon="1.44672">
        <ele>135.659907</ele>
        <time>2023-09-17T08:47:12.424Z</time>
      </trkpt>
      <trkpt lat="43.65601" lon="1.44677">
        <ele>135.657911</ele>
        <time>2023-09-17T08:47:14.424Z</time>
      </trkpt>
      <trkpt lat="43.65601" lon="1.44677">
        <ele>135.657911</ele>
        <time>2023-09-17T08:47:14.424Z</time>
      </trkpt>
      <trkpt lat="43.65598" lon="1.44682">
        <ele>135.65568</ele>
        <time>2023-09-17T08:47:15.424Z</time>
      </trkpt>
      <trkpt lat="43.65598" lon="1.44682">
        <ele>135.65568</ele>
        <time>2023-09-17T08:47:15.424Z</time>
      </trkpt>
      <trkpt lat="43.65595" lon="1.44687">
        <ele>135.653658</ele>
        <time>2023-09-17T08:47:15.424Z</time>
      </trkpt>
      <trkpt lat="43.65592" lon="1.44692">
        <ele>135.651636</ele>
        <time>2023-09-17T08:47:17.424Z</time>
      </trkpt>
      <trkpt lat="43.65592" lon="1.44692">
        <ele>135.651636</ele>
        <time>2023-09-17T08:47:17.424Z</time>
      </trkpt>
      <trkpt lat="43.6559" lon="1.44697">
        <ele>135.649665</ele>
        <time>2023-09-17T08:47:17.424Z</time>
      </trkpt>
      <trkpt lat="43.6559" lon="1.44697">
        <ele>135.649665</ele>
        <time>2023-09-17T08:47:17.424Z</time>
      </trkpt>
      <trkpt lat="43.65587" lon="1.44703">
        <ele>135.647688</ele>
        <time>2023-09-17T08:47:19.424Z</time>
      </trkpt>
      <trkpt lat="43.65587" lon="1.44703">
        <ele>135.647688</ele>
        <time>2023-09-17T08:47:19.424Z</time>
      </trkpt>
      <trkpt lat="43.65582" lon="1.44714">
        <ele>135.643255</ele>
        <time>2023-09-17T08:47:21.424Z</time>
      </trkpt>
      <trkpt lat="43.6558" lon="1.44718">
        <ele>135.641697</ele>
        <time>2023-09-17T08:47:21.424Z</time>
      </trkpt>
      <trkpt lat="43.65576" lon="1.44726">
        <ele>135.638715</ele>
        <time>2023-09-17T08:47:23.424Z</time>
      </trkpt>
      <trkpt lat="43.65573" lon="1.44731">
        <ele>135.636719</ele>
        <time>2023-09-17T08:47:25.424Z</time>
      </trkpt>
      <trkpt lat="43.6557" lon="1.44738">
        <ele>135.634048</ele>
        <time>2023-09-17T08:47:25.424Z</time>
      </trkpt>
      <trkpt lat="43.65567" lon="1.44743">
        <ele>135.632152</ele>
        <time>2023-09-17T08:47:27.424Z</time>
      </trkpt>
      <trkpt lat="43.65565" lon="1.44747">
        <ele>135.630282</ele>
        <time>2023-09-17T08:47:27.424Z</time>
      </trkpt>
      <trkpt lat="43.65565" lon="1.44747">
        <ele>135.630282</ele>
        <time>2023-09-17T08:47:27.424Z</time>
      </trkpt>
      <trkpt lat="43.65561" lon="1.44753">
        <ele>135.627793</ele>
        <time>2023-09-17T08:47:29.424Z</time>
      </trkpt>
      <trkpt lat="43.65561" lon="1.44753">
        <ele>135.627793</ele>
        <time>2023-09-17T08:47:29.424Z</time>
      </trkpt>
      <trkpt lat="43.65558" lon="1.44761">
        <ele>135.62489</ele>
        <time>2023-09-17T08:47:30.424Z</time>
      </trkpt>
      <trkpt lat="43.65558" lon="1.44761">
        <ele>135.62489</ele>
        <time>2023-09-17T08:47:30.424Z</time>
      </trkpt>
      <trkpt lat="43.65554" lon="1.44767">
        <ele>135.622557</ele>
        <time>2023-09-17T08:47:30.424Z</time>
      </trkpt>
      <trkpt lat="43.65554" lon="1.44767">
        <ele>135.622557</ele>
        <time>2023-09-17T08:47:30.424Z</time>
      </trkpt>
      <trkpt lat="43.65552" lon="1.44772">
        <ele>135.620508</ele>
        <time>2023-09-17T08:47:32.424Z</time>
      </trkpt>
      <trkpt lat="43.65549" lon="1.44778">
        <ele>135.618302</ele>
        <time>2023-09-17T08:47:33.424Z</time>
      </trkpt>
      <trkpt lat="43.65546" lon="1.44784">
        <ele>135.616041</ele>
        <time>2023-09-17T08:47:34.424Z</time>
      </trkpt>
      <trkpt lat="43.65546" lon="1.44784">
        <ele>135.616041</ele>
        <time>2023-09-17T08:47:34.424Z</time>
      </trkpt>
      <trkpt lat="43.65544" lon="1.44789">
        <ele>135.613967</ele>
        <time>2023-09-17T08:47:35.424Z</time>
      </trkpt>
      <trkpt lat="43.65541" lon="1.44795">
        <ele>135.611738</ele>
        <time>2023-09-17T08:47:36.424Z</time>
      </trkpt>
      <trkpt lat="43.65538" lon="1.448">
        <ele>135.609716</ele>
        <time>2023-09-17T08:47:37.424Z</time>
      </trkpt>
      <trkpt lat="43.65538" lon="1.448">
        <ele>135.609716</ele>
        <time>2023-09-17T08:47:37.424Z</time>
      </trkpt>
      <trkpt lat="43.65534" lon="1.44805">
        <ele>135.607351</ele>
        <time>2023-09-17T08:47:38.424Z</time>
      </trkpt>
      <trkpt lat="43.65534" lon="1.44805">
        <ele>135.607351</ele>
        <time>2023-09-17T08:47:38.424Z</time>
      </trkpt>
      <trkpt lat="43.65531" lon="1.4481">
        <ele>135.615137</ele>
        <time>2023-09-17T08:47:39.424Z</time>
      </trkpt>
      <trkpt lat="43.65531" lon="1.4481">
        <ele>135.615137</ele>
        <time>2023-09-17T08:47:39.424Z</time>
      </trkpt>
      <trkpt lat="43.65528" lon="1.44814">
        <ele>135.643704</ele>
        <time>2023-09-17T08:47:40.424Z</time>
      </trkpt>
      <trkpt lat="43.65528" lon="1.44814">
        <ele>135.643704</ele>
        <time>2023-09-17T08:47:40.424Z</time>
      </trkpt>
      <trkpt lat="43.65524" lon="1.44818">
        <ele>135.676854</ele>
        <time>2023-09-17T08:47:40.424Z</time>
      </trkpt>
      <trkpt lat="43.6552" lon="1.44823">
        <ele>135.706781</ele>
        <time>2023-09-17T08:47:41.424Z</time>
      </trkpt>
      <trkpt lat="43.65517" lon="1.44828">
        <ele>135.734451</ele>
        <time>2023-09-17T08:47:43.424Z</time>
      </trkpt>
      <trkpt lat="43.65517" lon="1.44828">
        <ele>135.734451</ele>
        <time>2023-09-17T08:47:43.424Z</time>
      </trkpt>
      <trkpt lat="43.65515" lon="1.44833">
        <ele>135.765502</ele>
        <time>2023-09-17T08:47:44.424Z</time>
      </trkpt>
      <trkpt lat="43.65515" lon="1.44833">
        <ele>135.765502</ele>
        <time>2023-09-17T08:47:44.424Z</time>
      </trkpt>
      <trkpt lat="43.65513" lon="1.4484">
        <ele>135.797211</ele>
        <time>2023-09-17T08:47:44.424Z</time>
      </trkpt>
      <trkpt lat="43.65513" lon="1.4484">
        <ele>135.797211</ele>
        <time>2023-09-17T08:47:44.424Z</time>
      </trkpt>
      <trkpt lat="43.6551" lon="1.44846">
        <ele>135.83055</ele>
        <time>2023-09-17T08:47:46.424Z</time>
      </trkpt>
      <trkpt lat="43.6551" lon="1.44846">
        <ele>135.83055</ele>
        <time>2023-09-17T08:47:46.424Z</time>
      </trkpt>
      <trkpt lat="43.65508" lon="1.44853">
        <ele>135.8633</ele>
        <time>2023-09-17T08:47:47.424Z</time>
      </trkpt>
      <trkpt lat="43.65506" lon="1.44859">
        <ele>135.893524</ele>
        <time>2023-09-17T08:47:47.424Z</time>
      </trkpt>
      <trkpt lat="43.65504" lon="1.44865">
        <ele>135.926046</ele>
        <time>2023-09-17T08:47:49.424Z</time>
      </trkpt>
      <trkpt lat="43.65504" lon="1.44865">
        <ele>135.926046</ele>
        <time>2023-09-17T08:47:49.424Z</time>
      </trkpt>
      <trkpt lat="43.65501" lon="1.44871">
        <ele>135.958202</ele>
        <time>2023-09-17T08:47:50.424Z</time>
      </trkpt>
      <trkpt lat="43.65501" lon="1.44871">
        <ele>135.958202</ele>
        <time>2023-09-17T08:47:50.424Z</time>
      </trkpt>
      <trkpt lat="43.65499" lon="1.44877">
        <ele>135.989973</ele>
        <time>2023-09-17T08:47:51.424Z</time>
      </trkpt>
      <trkpt lat="43.65499" lon="1.44877">
        <ele>135.989973</ele>
        <time>2023-09-17T08:47:51.424Z</time>
      </trkpt>
      <trkpt lat="43.65496" lon="1.44883">
        <ele>136.021025</ele>
        <time>2023-09-17T08:47:52.424Z</time>
      </trkpt>
      <trkpt lat="43.65496" lon="1.44883">
        <ele>136.021025</ele>
        <time>2023-09-17T08:47:52.424Z</time>
      </trkpt>
      <trkpt lat="43.65493" lon="1.44889">
        <ele>136.05203</ele>
        <time>2023-09-17T08:47:53.424Z</time>
      </trkpt>
      <trkpt lat="43.6549" lon="1.44895">
        <ele>136.084847</ele>
        <time>2023-09-17T08:47:54.424Z</time>
      </trkpt>
      <trkpt lat="43.65488" lon="1.449">
        <ele>136.115513</ele>
        <time>2023-09-17T08:47:55.424Z</time>
      </trkpt>
      <trkpt lat="43.65485" lon="1.44906">
        <ele>136.149438</ele>
        <time>2023-09-17T08:47:56.424Z</time>
      </trkpt>
      <trkpt lat="43.65482" lon="1.44912">
        <ele>136.181982</ele>
        <time>2023-09-17T08:47:57.424Z</time>
      </trkpt>
      <trkpt lat="43.65482" lon="1.44912">
        <ele>136.181982</ele>
        <time>2023-09-17T08:47:57.424Z</time>
      </trkpt>
      <trkpt lat="43.6548" lon="1.44918">
        <ele>136.209719</ele>
        <time>2023-09-17T08:47:57.424Z</time>
      </trkpt>
      <trkpt lat="43.65478" lon="1.44925">
        <ele>136.24279</ele>
        <time>2023-09-17T08:47:59.424Z</time>
      </trkpt>
      <trkpt lat="43.65477" lon="1.44931">
        <ele>136.273761</ele>
        <time>2023-09-17T08:48:00.424Z</time>
      </trkpt>
      <trkpt lat="43.65477" lon="1.44938">
        <ele>136.303797</ele>
        <time>2023-09-17T08:48:01.424Z</time>
      </trkpt>
      <trkpt lat="43.65478" lon="1.44944">
        <ele>136.333446</ele>
        <time>2023-09-17T08:48:02.424Z</time>
      </trkpt>
      <trkpt lat="43.65478" lon="1.44944">
        <ele>136.333446</ele>
        <time>2023-09-17T08:48:02.424Z</time>
      </trkpt>
      <trkpt lat="43.6548" lon="1.44949">
        <ele>136.359957</ele>
        <time>2023-09-17T08:48:03.424Z</time>
      </trkpt>
      <trkpt lat="43.65482" lon="1.44955">
        <ele>136.389477</ele>
        <time>2023-09-17T08:48:04.424Z</time>
      </trkpt>
      <trkpt lat="43.65485" lon="1.44959">
        <ele>136.416434</ele>
        <time>2023-09-17T08:48:05.424Z</time>
      </trkpt>
      <trkpt lat="43.65485" lon="1.44959">
        <ele>136.416434</ele>
        <time>2023-09-17T08:48:05.424Z</time>
      </trkpt>
      <trkpt lat="43.65488" lon="1.44965">
        <ele>136.44867</ele>
        <time>2023-09-17T08:48:06.424Z</time>
      </trkpt>
      <trkpt lat="43.65492" lon="1.44969">
        <ele>136.481051</ele>
        <time>2023-09-17T08:48:07.424Z</time>
      </trkpt>
      <trkpt lat="43.65496" lon="1.44974">
        <ele>136.514204</ele>
        <time>2023-09-17T08:48:08.424Z</time>
      </trkpt>
      <trkpt lat="43.65496" lon="1.44974">
        <ele>136.514204</ele>
        <time>2023-09-17T08:48:08.424Z</time>
      </trkpt>
      <trkpt lat="43.655" lon="1.44978">
        <ele>136.542586</ele>
        <time>2023-09-17T08:48:09.424Z</time>
      </trkpt>
      <trkpt lat="43.65503" lon="1.44983">
        <ele>136.571269</ele>
        <time>2023-09-17T08:48:10.424Z</time>
      </trkpt>
      <trkpt lat="43.65506" lon="1.44986">
        <ele>136.597636</ele>
        <time>2023-09-17T08:48:11.424Z</time>
      </trkpt>
      <trkpt lat="43.65509" lon="1.44991">
        <ele>136.627564</ele>
        <time>2023-09-17T08:48:12.424Z</time>
      </trkpt>
      <trkpt lat="43.65509" lon="1.44991">
        <ele>136.627564</ele>
        <time>2023-09-17T08:48:12.424Z</time>
      </trkpt>
      <trkpt lat="43.65512" lon="1.44995">
        <ele>136.653133</ele>
        <time>2023-09-17T08:48:13.424Z</time>
      </trkpt>
      <trkpt lat="43.65515" lon="1.45">
        <ele>136.679044</ele>
        <time>2023-09-17T08:48:14.424Z</time>
      </trkpt>
      <trkpt lat="43.65517" lon="1.45004">
        <ele>136.703856</ele>
        <time>2023-09-17T08:48:15.424Z</time>
      </trkpt>
      <trkpt lat="43.6552" lon="1.45008">
        <ele>136.730112</ele>
        <time>2023-09-17T08:48:16.424Z</time>
      </trkpt>
      <trkpt lat="43.65519" lon="1.45006">
        <ele>136.73348</ele>
        <time>2023-09-17T08:48:17.424Z</time>
      </trkpt>
      <trkpt lat="43.65519" lon="1.45006">
        <ele>136.73348</ele>
        <time>2023-09-17T08:48:17.424Z</time>
      </trkpt>
      <trkpt lat="43.6552" lon="1.4501">
        <ele>136.713259</ele>
        <time>2023-09-17T08:48:19.424Z</time>
      </trkpt>
      <trkpt lat="43.65523" lon="1.45014">
        <ele>136.679344</ele>
        <time>2023-09-17T08:48:20.424Z</time>
      </trkpt>
      <trkpt lat="43.65527" lon="1.45019">
        <ele>136.638575</ele>
        <time>2023-09-17T08:48:21.424Z</time>
      </trkpt>
      <trkpt lat="43.65532" lon="1.45025">
        <ele>136.586685</ele>
        <time>2023-09-17T08:48:22.424Z</time>
      </trkpt>
      <trkpt lat="43.65532" lon="1.45025">
        <ele>136.586685</ele>
        <time>2023-09-17T08:48:22.424Z</time>
      </trkpt>
      <trkpt lat="43.65541" lon="1.45037">
        <ele>136.493471</ele>
        <time>2023-09-17T08:48:23.424Z</time>
      </trkpt>
      <trkpt lat="43.65544" lon="1.45041">
        <ele>136.458</ele>
        <time>2023-09-17T08:48:24.424Z</time>
      </trkpt>
      <trkpt lat="43.65548" lon="1.45046">
        <ele>136.42044</ele>
        <time>2023-09-17T08:48:25.424Z</time>
      </trkpt>
      <trkpt lat="43.65548" lon="1.45046">
        <ele>136.42044</ele>
        <time>2023-09-17T08:48:25.424Z</time>
      </trkpt>
      <trkpt lat="43.65551" lon="1.4505">
        <ele>136.384969</ele>
        <time>2023-09-17T08:48:26.424Z</time>
      </trkpt>
      <trkpt lat="43.65554" lon="1.45054">
        <ele>136.351983</ele>
        <time>2023-09-17T08:48:28.424Z</time>
      </trkpt>
      <trkpt lat="43.65557" lon="1.45059">
        <ele>136.316512</ele>
        <time>2023-09-17T08:48:29.424Z</time>
      </trkpt>
      <trkpt lat="43.65557" lon="1.45059">
        <ele>136.316512</ele>
        <time>2023-09-17T08:48:29.424Z</time>
      </trkpt>
      <trkpt lat="43.65561" lon="1.45064">
        <ele>136.275802</ele>
        <time>2023-09-17T08:48:30.424Z</time>
      </trkpt>
      <trkpt lat="43.65561" lon="1.45064">
        <ele>136.275802</ele>
        <time>2023-09-17T08:48:30.424Z</time>
      </trkpt>
      <trkpt lat="43.65563" lon="1.4507">
        <ele>136.237496</ele>
        <time>2023-09-17T08:48:31.424Z</time>
      </trkpt>
      <trkpt lat="43.65566" lon="1.45073">
        <ele>136.205798</ele>
        <time>2023-09-17T08:48:32.424Z</time>
      </trkpt>
      <trkpt lat="43.65573" lon="1.45081">
        <ele>136.138137</ele>
        <time>2023-09-17T08:48:34.424Z</time>
      </trkpt>
      <trkpt lat="43.65576" lon="1.45085">
        <ele>136.10685</ele>
        <time>2023-09-17T08:48:35.424Z</time>
      </trkpt>
      <trkpt lat="43.65576" lon="1.45085">
        <ele>136.10685</ele>
        <time>2023-09-17T08:48:35.424Z</time>
      </trkpt>
      <trkpt lat="43.6558" lon="1.4509">
        <ele>136.068695</ele>
        <time>2023-09-17T08:48:36.424Z</time>
      </trkpt>
      <trkpt lat="43.65583" lon="1.45095">
        <ele>136.031288</ele>
        <time>2023-09-17T08:48:37.424Z</time>
      </trkpt>
      <trkpt lat="43.65583" lon="1.45095">
        <ele>136.031288</ele>
        <time>2023-09-17T08:48:37.424Z</time>
      </trkpt>
      <trkpt lat="43.65587" lon="1.451">
        <ele>135.989579</ele>
        <time>2023-09-17T08:48:38.424Z</time>
      </trkpt>
      <trkpt lat="43.65591" lon="1.45106">
        <ele>135.943089</ele>
        <time>2023-09-17T08:48:39.424Z</time>
      </trkpt>
      <trkpt lat="43.65595" lon="1.45111">
        <ele>135.90447</ele>
        <time>2023-09-17T08:48:40.424Z</time>
      </trkpt>
      <trkpt lat="43.65598" lon="1.45115">
        <ele>135.869983</ele>
        <time>2023-09-17T08:48:41.424Z</time>
      </trkpt>
      <trkpt lat="43.65598" lon="1.45115">
        <ele>135.869983</ele>
        <time>2023-09-17T08:48:41.424Z</time>
      </trkpt>
      <trkpt lat="43.65599" lon="1.45118">
        <ele>135.850976</ele>
        <time>2023-09-17T08:48:43.424Z</time>
      </trkpt>
      <trkpt lat="43.65599" lon="1.45122">
        <ele>135.830372</ele>
        <time>2023-09-17T08:48:44.424Z</time>
      </trkpt>
      <trkpt lat="43.65599" lon="1.45122">
        <ele>135.830372</ele>
        <time>2023-09-17T08:48:44.424Z</time>
      </trkpt>
      <trkpt lat="43.65598" lon="1.45124">
        <ele>135.813767</ele>
        <time>2023-09-17T08:48:45.424Z</time>
      </trkpt>
      <trkpt lat="43.65598" lon="1.45124">
        <ele>135.813767</ele>
        <time>2023-09-17T08:48:45.424Z</time>
      </trkpt>
      <trkpt lat="43.65596" lon="1.45124">
        <ele>135.799101</ele>
        <time>2023-09-17T08:48:46.424Z</time>
      </trkpt>
      <trkpt lat="43.65593" lon="1.45125">
        <ele>135.775348</ele>
        <time>2023-09-17T08:48:47.424Z</time>
      </trkpt>
      <trkpt lat="43.65593" lon="1.45125">
        <ele>135.775348</ele>
        <time>2023-09-17T08:48:47.424Z</time>
      </trkpt>
      <trkpt lat="43.65587" lon="1.45126">
        <ele>135.730467</ele>
        <time>2023-09-17T08:49:00.424Z</time>
      </trkpt>
      <trkpt lat="43.65585" lon="1.45127">
        <ele>135.714587</ele>
        <time>2023-09-17T08:49:02.424Z</time>
      </trkpt>
      <trkpt lat="43.65582" lon="1.45127">
        <ele>135.694382</ele>
        <time>2023-09-17T08:49:04.424Z</time>
      </trkpt>
      <trkpt lat="43.65577" lon="1.45132">
        <ele>135.649348</ele>
        <time>2023-09-17T08:49:06.424Z</time>
      </trkpt>
      <trkpt lat="43.65577" lon="1.45132">
        <ele>135.649348</ele>
        <time>2023-09-17T08:49:06.424Z</time>
      </trkpt>
      <trkpt lat="43.65575" lon="1.45134">
        <ele>135.625224</ele>
        <time>2023-09-17T08:49:06.424Z</time>
      </trkpt>
      <trkpt lat="43.65575" lon="1.45134">
        <ele>135.625224</ele>
        <time>2023-09-17T08:49:06.424Z</time>
      </trkpt>
      <trkpt lat="43.65572" lon="1.45136">
        <ele>135.60116</ele>
        <time>2023-09-17T08:49:07.424Z</time>
      </trkpt>
      <trkpt lat="43.65568" lon="1.45139">
        <ele>135.568525</ele>
        <time>2023-09-17T08:49:09.424Z</time>
      </trkpt>
      <trkpt lat="43.65568" lon="1.45139">
        <ele>135.568525</ele>
        <time>2023-09-17T08:49:09.424Z</time>
      </trkpt>
      <trkpt lat="43.65565" lon="1.45141">
        <ele>135.537941</ele>
        <time>2023-09-17T08:49:10.424Z</time>
      </trkpt>
      <trkpt lat="43.65561" lon="1.45145">
        <ele>135.503692</ele>
        <time>2023-09-17T08:49:12.424Z</time>
      </trkpt>
      <trkpt lat="43.65556" lon="1.45148">
        <ele>135.462443</ele>
        <time>2023-09-17T08:49:12.424Z</time>
      </trkpt>
      <trkpt lat="43.65551" lon="1.45152">
        <ele>135.419067</ele>
        <time>2023-09-17T08:49:13.424Z</time>
      </trkpt>
      <trkpt lat="43.65551" lon="1.45152">
        <ele>135.419067</ele>
        <time>2023-09-17T08:49:13.424Z</time>
      </trkpt>
      <trkpt lat="43.65546" lon="1.45156">
        <ele>135.375414</ele>
        <time>2023-09-17T08:49:14.424Z</time>
      </trkpt>
      <trkpt lat="43.65543" lon="1.45158">
        <ele>135.345096</ele>
        <time>2023-09-17T08:49:15.424Z</time>
      </trkpt>
      <trkpt lat="43.65543" lon="1.45158">
        <ele>135.345096</ele>
        <time>2023-09-17T08:49:15.424Z</time>
      </trkpt>
      <trkpt lat="43.65538" lon="1.45162">
        <ele>135.311595</ele>
        <time>2023-09-17T08:49:17.424Z</time>
      </trkpt>
      <trkpt lat="43.65534" lon="1.45165">
        <ele>135.28871</ele>
        <time>2023-09-17T08:49:18.424Z</time>
      </trkpt>
      <trkpt lat="43.6553" lon="1.45168">
        <ele>135.260617</ele>
        <time>2023-09-17T08:49:19.424Z</time>
      </trkpt>
      <trkpt lat="43.65526" lon="1.45171">
        <ele>135.232523</ele>
        <time>2023-09-17T08:49:20.424Z</time>
      </trkpt>
      <trkpt lat="43.65522" lon="1.45173">
        <ele>135.209222</ele>
        <time>2023-09-17T08:49:21.424Z</time>
      </trkpt>
      <trkpt lat="43.65522" lon="1.45173">
        <ele>135.209222</ele>
        <time>2023-09-17T08:49:21.424Z</time>
      </trkpt>
      <trkpt lat="43.65518" lon="1.45177">
        <ele>135.17781</ele>
        <time>2023-09-17T08:49:22.424Z</time>
      </trkpt>
      <trkpt lat="43.65513" lon="1.4518">
        <ele>135.144505</ele>
        <time>2023-09-17T08:49:24.424Z</time>
      </trkpt>
      <trkpt lat="43.65508" lon="1.45184">
        <ele>135.111326</ele>
        <time>2023-09-17T08:49:25.424Z</time>
      </trkpt>
      <trkpt lat="43.65508" lon="1.45184">
        <ele>135.111326</ele>
        <time>2023-09-17T08:49:25.424Z</time>
      </trkpt>
      <trkpt lat="43.65504" lon="1.45187">
        <ele>135.083033</ele>
        <time>2023-09-17T08:49:26.424Z</time>
      </trkpt>
      <trkpt lat="43.65498" lon="1.4519">
        <ele>135.048119</ele>
        <time>2023-09-17T08:49:27.424Z</time>
      </trkpt>
      <trkpt lat="43.65491" lon="1.45195">
        <ele>134.998817</ele>
        <time>2023-09-17T08:49:28.424Z</time>
      </trkpt>
      <trkpt lat="43.65486" lon="1.45198">
        <ele>134.968215</ele>
        <time>2023-09-17T08:49:29.424Z</time>
      </trkpt>
      <trkpt lat="43.65482" lon="1.45202">
        <ele>134.936653</ele>
        <time>2023-09-17T08:49:30.424Z</time>
      </trkpt>
      <trkpt lat="43.65482" lon="1.45202">
        <ele>134.936653</ele>
        <time>2023-09-17T08:49:30.424Z</time>
      </trkpt>
      <trkpt lat="43.65476" lon="1.45207">
        <ele>134.894065</ele>
        <time>2023-09-17T08:49:31.424Z</time>
      </trkpt>
      <trkpt lat="43.6547" lon="1.45212">
        <ele>134.856595</ele>
        <time>2023-09-17T08:49:32.424Z</time>
      </trkpt>
      <trkpt lat="43.65467" lon="1.45215">
        <ele>134.832625</ele>
        <time>2023-09-17T08:49:33.424Z</time>
      </trkpt>
      <trkpt lat="43.65464" lon="1.45217">
        <ele>134.816478</ele>
        <time>2023-09-17T08:49:34.424Z</time>
      </trkpt>
      <trkpt lat="43.65463" lon="1.45218">
        <ele>134.803257</ele>
        <time>2023-09-17T08:49:35.424Z</time>
      </trkpt>
      <trkpt lat="43.65463" lon="1.45218">
        <ele>134.803257</ele>
        <time>2023-09-17T08:49:35.424Z</time>
      </trkpt>
      <trkpt lat="43.65459" lon="1.45221">
        <ele>134.779956</ele>
        <time>2023-09-17T08:49:36.424Z</time>
      </trkpt>
      <trkpt lat="43.65459" lon="1.45221">
        <ele>134.779956</ele>
        <time>2023-09-17T08:49:36.424Z</time>
      </trkpt>
      <trkpt lat="43.65456" lon="1.45224">
        <ele>134.758409</ele>
        <time>2023-09-17T08:49:38.424Z</time>
      </trkpt>
      <trkpt lat="43.65456" lon="1.45224">
        <ele>134.758409</ele>
        <time>2023-09-17T08:49:38.424Z</time>
      </trkpt>
      <trkpt lat="43.65453" lon="1.45226">
        <ele>134.735524</ele>
        <time>2023-09-17T08:49:39.424Z</time>
      </trkpt>
      <trkpt lat="43.65453" lon="1.45226">
        <ele>134.735524</ele>
        <time>2023-09-17T08:49:39.424Z</time>
      </trkpt>
      <trkpt lat="43.65443" lon="1.45231">
        <ele>134.676936</ele>
        <time>2023-09-17T08:49:40.424Z</time>
      </trkpt>
      <trkpt lat="43.65443" lon="1.45231">
        <ele>134.676936</ele>
        <time>2023-09-17T08:49:40.424Z</time>
      </trkpt>
      <trkpt lat="43.65439" lon="1.45234">
        <ele>134.64559</ele>
        <time>2023-09-17T08:49:41.424Z</time>
      </trkpt>
      <trkpt lat="43.65434" lon="1.45236">
        <ele>134.618583</ele>
        <time>2023-09-17T08:49:43.424Z</time>
      </trkpt>
      <trkpt lat="43.65429" lon="1.45239">
        <ele>134.584877</ele>
        <time>2023-09-17T08:49:44.424Z</time>
      </trkpt>
      <trkpt lat="43.65419" lon="1.45241">
        <ele>134.522734</ele>
        <time>2023-09-17T08:49:46.424Z</time>
      </trkpt>
      <trkpt lat="43.65416" lon="1.45243">
        <ele>134.503626</ele>
        <time>2023-09-17T08:49:47.424Z</time>
      </trkpt>
      <trkpt lat="43.65416" lon="1.45243">
        <ele>134.503626</ele>
        <time>2023-09-17T08:49:47.424Z</time>
      </trkpt>
      <trkpt lat="43.65414" lon="1.45244">
        <ele>134.492809</ele>
        <time>2023-09-17T08:49:48.424Z</time>
      </trkpt>
      <trkpt lat="43.65411" lon="1.45246">
        <ele>134.471173</ele>
        <time>2023-09-17T08:49:49.424Z</time>
      </trkpt>
      <trkpt lat="43.65405" lon="1.4525">
        <ele>134.435082</ele>
        <time>2023-09-17T08:49:50.424Z</time>
      </trkpt>
      <trkpt lat="43.65405" lon="1.4525">
        <ele>134.435082</ele>
        <time>2023-09-17T08:49:50.424Z</time>
      </trkpt>
      <trkpt lat="43.654" lon="1.45254">
        <ele>134.39915</ele>
        <time>2023-09-17T08:49:51.424Z</time>
      </trkpt>
      <trkpt lat="43.65395" lon="1.4526">
        <ele>134.361092</ele>
        <time>2023-09-17T08:49:52.424Z</time>
      </trkpt>
      <trkpt lat="43.65389" lon="1.45269">
        <ele>134.305301</ele>
        <time>2023-09-17T08:49:53.424Z</time>
      </trkpt>
      <trkpt lat="43.65384" lon="1.45275">
        <ele>134.302937</ele>
        <time>2023-09-17T08:49:54.424Z</time>
      </trkpt>
      <trkpt lat="43.65379" lon="1.45282">
        <ele>134.360497</ele>
        <time>2023-09-17T08:49:55.424Z</time>
      </trkpt>
      <trkpt lat="43.65376" lon="1.45287">
        <ele>134.397346</ele>
        <time>2023-09-17T08:49:56.424Z</time>
      </trkpt>
      <trkpt lat="43.65376" lon="1.45287">
        <ele>134.397346</ele>
        <time>2023-09-17T08:49:56.424Z</time>
      </trkpt>
      <trkpt lat="43.65373" lon="1.45291">
        <ele>134.428</ele>
        <time>2023-09-17T08:49:57.424Z</time>
      </trkpt>
      <trkpt lat="43.65373" lon="1.45291">
        <ele>134.428</ele>
        <time>2023-09-17T08:49:57.424Z</time>
      </trkpt>
      <trkpt lat="43.65372" lon="1.45293">
        <ele>134.442527</ele>
        <time>2023-09-17T08:49:58.424Z</time>
      </trkpt>
      <trkpt lat="43.65374" lon="1.45297">
        <ele>134.466601</ele>
        <time>2023-09-17T08:49:59.424Z</time>
      </trkpt>
      <trkpt lat="43.65376" lon="1.453">
        <ele>134.489879</ele>
        <time>2023-09-17T08:50:00.424Z</time>
      </trkpt>
      <trkpt lat="43.65379" lon="1.45305">
        <ele>134.524697</ele>
        <time>2023-09-17T08:50:02.424Z</time>
      </trkpt>
      <trkpt lat="43.65379" lon="1.45305">
        <ele>134.524697</ele>
        <time>2023-09-17T08:50:02.424Z</time>
      </trkpt>
      <trkpt lat="43.65385" lon="1.45313">
        <ele>134.594775</ele>
        <time>2023-09-17T08:50:03.424Z</time>
      </trkpt>
      <trkpt lat="43.65385" lon="1.45313">
        <ele>134.594775</ele>
        <time>2023-09-17T08:50:03.424Z</time>
      </trkpt>
      <trkpt lat="43.65389" lon="1.45318">
        <ele>134.635409</ele>
        <time>2023-09-17T08:50:04.424Z</time>
      </trkpt>
      <trkpt lat="43.65393" lon="1.45323">
        <ele>134.676044</ele>
        <time>2023-09-17T08:50:05.424Z</time>
      </trkpt>
      <trkpt lat="43.65397" lon="1.4533">
        <ele>134.724877</ele>
        <time>2023-09-17T08:50:06.424Z</time>
      </trkpt>
      <trkpt lat="43.65401" lon="1.45335">
        <ele>134.766292</ele>
        <time>2023-09-17T08:50:06.424Z</time>
      </trkpt>
      <trkpt lat="43.65404" lon="1.4534">
        <ele>134.80193</ele>
        <time>2023-09-17T08:50:08.424Z</time>
      </trkpt>
      <trkpt lat="43.65407" lon="1.45344">
        <ele>134.836632</ele>
        <time>2023-09-17T08:50:09.424Z</time>
      </trkpt>
      <trkpt lat="43.65407" lon="1.45344">
        <ele>134.836632</ele>
        <time>2023-09-17T08:50:09.424Z</time>
      </trkpt>
      <trkpt lat="43.65412" lon="1.45352">
        <ele>134.894979</ele>
        <time>2023-09-17T08:50:11.424Z</time>
      </trkpt>
      <trkpt lat="43.65415" lon="1.45353">
        <ele>134.919403</ele>
        <time>2023-09-17T08:50:12.424Z</time>
      </trkpt>
      <trkpt lat="43.65415" lon="1.45353">
        <ele>134.919403</ele>
        <time>2023-09-17T08:50:12.424Z</time>
      </trkpt>
      <trkpt lat="43.65418" lon="1.45353">
        <ele>134.940381</ele>
        <time>2023-09-17T08:50:13.424Z</time>
      </trkpt>
      <trkpt lat="43.65418" lon="1.45353">
        <ele>134.940381</ele>
        <time>2023-09-17T08:50:13.424Z</time>
      </trkpt>
      <trkpt lat="43.65421" lon="1.45354">
        <ele>134.967004</ele>
        <time>2023-09-17T08:50:14.424Z</time>
      </trkpt>
      <trkpt lat="43.65421" lon="1.45354">
        <ele>134.967004</ele>
        <time>2023-09-17T08:50:14.424Z</time>
      </trkpt>
      <trkpt lat="43.65425" lon="1.45353">
        <ele>134.993627</ele>
        <time>2023-09-17T08:50:15.424Z</time>
      </trkpt>
      <trkpt lat="43.65425" lon="1.45353">
        <ele>134.993627</ele>
        <time>2023-09-17T08:50:15.424Z</time>
      </trkpt>
      <trkpt lat="43.65432" lon="1.45353">
        <ele>135.053273</ele>
        <time>2023-09-17T08:50:17.424Z</time>
      </trkpt>
      <trkpt lat="43.65432" lon="1.45353">
        <ele>135.053273</ele>
        <time>2023-09-17T08:50:17.424Z</time>
      </trkpt>
      <trkpt lat="43.65435" lon="1.45355">
        <ele>135.072272</ele>
        <time>2023-09-17T08:50:19.424Z</time>
      </trkpt>
      <trkpt lat="43.65437" lon="1.45357">
        <ele>135.095997</ele>
        <time>2023-09-17T08:50:20.424Z</time>
      </trkpt>
      <trkpt lat="43.6544" lon="1.45361">
        <ele>135.126651</ele>
        <time>2023-09-17T08:50:21.424Z</time>
      </trkpt>
      <trkpt lat="43.65443" lon="1.45363">
        <ele>135.154687</ele>
        <time>2023-09-17T08:50:22.424Z</time>
      </trkpt>
      <trkpt lat="43.65448" lon="1.45366">
        <ele>135.199355</ele>
        <time>2023-09-17T08:50:23.424Z</time>
      </trkpt>
      <trkpt lat="43.65453" lon="1.45368">
        <ele>135.237054</ele>
        <time>2023-09-17T08:50:24.424Z</time>
      </trkpt>
      <trkpt lat="43.65458" lon="1.4537">
        <ele>135.273184</ele>
        <time>2023-09-17T08:50:25.424Z</time>
      </trkpt>
      <trkpt lat="43.65463" lon="1.45372">
        <ele>135.319481</ele>
        <time>2023-09-17T08:50:26.424Z</time>
      </trkpt>
      <trkpt lat="43.65471" lon="1.45374">
        <ele>135.376842</ele>
        <time>2023-09-17T08:50:27.424Z</time>
      </trkpt>
      <trkpt lat="43.65476" lon="1.45377">
        <ele>135.422529</ele>
        <time>2023-09-17T08:50:28.424Z</time>
      </trkpt>
      <trkpt lat="43.65482" lon="1.45379">
        <ele>135.471649</ele>
        <time>2023-09-17T08:50:29.424Z</time>
      </trkpt>
      <trkpt lat="43.65488" lon="1.45381">
        <ele>135.51525</ele>
        <time>2023-09-17T08:50:30.424Z</time>
      </trkpt>
      <trkpt lat="43.65493" lon="1.45383">
        <ele>135.561239</ele>
        <time>2023-09-17T08:50:31.424Z</time>
      </trkpt>
      <trkpt lat="43.655" lon="1.45386">
        <ele>135.610064</ele>
        <time>2023-09-17T08:50:32.424Z</time>
      </trkpt>
      <trkpt lat="43.65505" lon="1.45388">
        <ele>135.655898</ele>
        <time>2023-09-17T08:50:33.424Z</time>
      </trkpt>
      <trkpt lat="43.65511" lon="1.4539">
        <ele>135.681762</ele>
        <time>2023-09-17T08:50:34.424Z</time>
      </trkpt>
      <trkpt lat="43.65517" lon="1.45392">
        <ele>135.68992</ele>
        <time>2023-09-17T08:50:35.424Z</time>
      </trkpt>
      <trkpt lat="43.65524" lon="1.45394">
        <ele>135.698078</ele>
        <time>2023-09-17T08:50:36.424Z</time>
      </trkpt>
      <trkpt lat="43.6553" lon="1.45396">
        <ele>135.706191</ele>
        <time>2023-09-17T08:50:37.424Z</time>
      </trkpt>
      <trkpt lat="43.65536" lon="1.45399">
        <ele>135.714349</ele>
        <time>2023-09-17T08:50:38.424Z</time>
      </trkpt>
      <trkpt lat="43.65542" lon="1.45401">
        <ele>135.722507</ele>
        <time>2023-09-17T08:50:39.424Z</time>
      </trkpt>
      <trkpt lat="43.65548" lon="1.45403">
        <ele>135.73029</ele>
        <time>2023-09-17T08:50:40.424Z</time>
      </trkpt>
      <trkpt lat="43.65548" lon="1.45403">
        <ele>135.73029</ele>
        <time>2023-09-17T08:50:40.424Z</time>
      </trkpt>
      <trkpt lat="43.65553" lon="1.45405">
        <ele>135.737948</ele>
        <time>2023-09-17T08:50:41.424Z</time>
      </trkpt>
      <trkpt lat="43.65553" lon="1.45405">
        <ele>135.737948</ele>
        <time>2023-09-17T08:50:41.424Z</time>
      </trkpt>
      <trkpt lat="43.65559" lon="1.45407">
        <ele>135.746106</ele>
        <time>2023-09-17T08:50:42.424Z</time>
      </trkpt>
      <trkpt lat="43.65565" lon="1.4541">
        <ele>135.75374</ele>
        <time>2023-09-17T08:50:43.424Z</time>
      </trkpt>
      <trkpt lat="43.65565" lon="1.4541">
        <ele>135.75374</ele>
        <time>2023-09-17T08:50:43.424Z</time>
      </trkpt>
      <trkpt lat="43.65571" lon="1.45412">
        <ele>135.761922</ele>
        <time>2023-09-17T08:50:44.424Z</time>
      </trkpt>
      <trkpt lat="43.65577" lon="1.45414">
        <ele>135.770105</ele>
        <time>2023-09-17T08:50:45.424Z</time>
      </trkpt>
      <trkpt lat="43.65577" lon="1.45414">
        <ele>135.770105</ele>
        <time>2023-09-17T08:50:45.424Z</time>
      </trkpt>
      <trkpt lat="43.65584" lon="1.45417">
        <ele>135.778811</ele>
        <time>2023-09-17T08:50:46.424Z</time>
      </trkpt>
      <trkpt lat="43.6559" lon="1.45419">
        <ele>135.786993</ele>
        <time>2023-09-17T08:50:47.424Z</time>
      </trkpt>
      <trkpt lat="43.6559" lon="1.45419">
        <ele>135.786993</ele>
        <time>2023-09-17T08:50:47.424Z</time>
      </trkpt>
      <trkpt lat="43.65596" lon="1.45421">
        <ele>135.795128</ele>
        <time>2023-09-17T08:50:48.424Z</time>
      </trkpt>
      <trkpt lat="43.65603" lon="1.45423">
        <ele>135.803811</ele>
        <time>2023-09-17T08:50:49.424Z</time>
      </trkpt>
      <trkpt lat="43.65608" lon="1.45425">
        <ele>135.811469</ele>
        <time>2023-09-17T08:50:50.424Z</time>
      </trkpt>
      <trkpt lat="43.65614" lon="1.45428">
        <ele>135.819651</ele>
        <time>2023-09-17T08:50:51.424Z</time>
      </trkpt>
      <trkpt lat="43.65621" lon="1.45431">
        <ele>135.82849</ele>
        <time>2023-09-17T08:50:52.424Z</time>
      </trkpt>
      <trkpt lat="43.65627" lon="1.45434">
        <ele>135.837358</ele>
        <time>2023-09-17T08:50:53.424Z</time>
      </trkpt>
      <trkpt lat="43.65633" lon="1.45436">
        <ele>135.845096</ele>
        <time>2023-09-17T08:50:54.424Z</time>
      </trkpt>
      <trkpt lat="43.65639" lon="1.45439">
        <ele>135.853385</ele>
        <time>2023-09-17T08:50:55.424Z</time>
      </trkpt>
      <trkpt lat="43.65645" lon="1.45441">
        <ele>135.861645</ele>
        <time>2023-09-17T08:50:56.424Z</time>
      </trkpt>
      <trkpt lat="43.65651" lon="1.45444">
        <ele>135.869879</ele>
        <time>2023-09-17T08:50:57.424Z</time>
      </trkpt>
      <trkpt lat="43.65657" lon="1.45446">
        <ele>135.877617</ele>
        <time>2023-09-17T08:50:57.424Z</time>
      </trkpt>
      <trkpt lat="43.65663" lon="1.45449">
        <ele>135.885508</ele>
        <time>2023-09-17T08:50:59.424Z</time>
      </trkpt>
      <trkpt lat="43.65669" lon="1.45452">
        <ele>135.893768</ele>
        <time>2023-09-17T08:51:00.424Z</time>
      </trkpt>
      <trkpt lat="43.65675" lon="1.45454">
        <ele>135.902002</ele>
        <time>2023-09-17T08:51:01.424Z</time>
      </trkpt>
      <trkpt lat="43.65681" lon="1.45457">
        <ele>135.909769</ele>
        <time>2023-09-17T08:51:01.424Z</time>
      </trkpt>
      <trkpt lat="43.65681" lon="1.45457">
        <ele>135.909769</ele>
        <time>2023-09-17T08:51:01.424Z</time>
      </trkpt>
      <trkpt lat="43.65687" lon="1.45459">
        <ele>135.97917</ele>
        <time>2023-09-17T08:51:03.424Z</time>
      </trkpt>
      <trkpt lat="43.65693" lon="1.45462">
        <ele>136.045165</ele>
        <time>2023-09-17T08:51:03.424Z</time>
      </trkpt>
      <trkpt lat="43.65698" lon="1.45464">
        <ele>136.110711</ele>
        <time>2023-09-17T08:51:05.424Z</time>
      </trkpt>
      <trkpt lat="43.65704" lon="1.45466">
        <ele>136.173534</ele>
        <time>2023-09-17T08:51:05.424Z</time>
      </trkpt>
      <trkpt lat="43.65704" lon="1.45466">
        <ele>136.173534</ele>
        <time>2023-09-17T08:51:05.424Z</time>
      </trkpt>
      <trkpt lat="43.6571" lon="1.45469">
        <ele>136.243779</ele>
        <time>2023-09-17T08:51:07.424Z</time>
      </trkpt>
      <trkpt lat="43.6571" lon="1.45469">
        <ele>136.243779</ele>
        <time>2023-09-17T08:51:07.424Z</time>
      </trkpt>
      <trkpt lat="43.65715" lon="1.45471">
        <ele>136.309324</ele>
        <time>2023-09-17T08:51:07.424Z</time>
      </trkpt>
      <trkpt lat="43.65715" lon="1.45471">
        <ele>136.309324</ele>
        <time>2023-09-17T08:51:07.424Z</time>
      </trkpt>
      <trkpt lat="43.65721" lon="1.45473">
        <ele>136.37085</ele>
        <time>2023-09-17T08:51:09.424Z</time>
      </trkpt>
      <trkpt lat="43.65721" lon="1.45473">
        <ele>136.37085</ele>
        <time>2023-09-17T08:51:09.424Z</time>
      </trkpt>
      <trkpt lat="43.65726" lon="1.45475">
        <ele>136.432768</ele>
        <time>2023-09-17T08:51:10.424Z</time>
      </trkpt>
      <trkpt lat="43.65726" lon="1.45475">
        <ele>136.432768</ele>
        <time>2023-09-17T08:51:10.424Z</time>
      </trkpt>
      <trkpt lat="43.65731" lon="1.45476">
        <ele>136.484223</ele>
        <time>2023-09-17T08:51:11.424Z</time>
      </trkpt>
      <trkpt lat="43.65731" lon="1.45476">
        <ele>136.484223</ele>
        <time>2023-09-17T08:51:11.424Z</time>
      </trkpt>
      <trkpt lat="43.65736" lon="1.45476">
        <ele>136.542929</ele>
        <time>2023-09-17T08:51:12.424Z</time>
      </trkpt>
      <trkpt lat="43.65736" lon="1.45476">
        <ele>136.542929</ele>
        <time>2023-09-17T08:51:12.424Z</time>
      </trkpt>
      <trkpt lat="43.65742" lon="1.45476">
        <ele>136.606079</ele>
        <time>2023-09-17T08:51:13.424Z</time>
      </trkpt>
      <trkpt lat="43.65742" lon="1.45476">
        <ele>136.606079</ele>
        <time>2023-09-17T08:51:13.424Z</time>
      </trkpt>
      <trkpt lat="43.65747" lon="1.45477">
        <ele>136.666321</ele>
        <time>2023-09-17T08:51:14.424Z</time>
      </trkpt>
      <trkpt lat="43.65752" lon="1.45479">
        <ele>136.726405</ele>
        <time>2023-09-17T08:51:15.424Z</time>
      </trkpt>
      <trkpt lat="43.65758" lon="1.45481">
        <ele>136.787744</ele>
        <time>2023-09-17T08:51:16.424Z</time>
      </trkpt>
      <trkpt lat="43.65763" lon="1.45482">
        <ele>136.842859</ele>
        <time>2023-09-17T08:51:17.424Z</time>
      </trkpt>
      <trkpt lat="43.65768" lon="1.45483">
        <ele>136.906844</ele>
        <time>2023-09-17T08:51:18.424Z</time>
      </trkpt>
      <trkpt lat="43.65768" lon="1.45483">
        <ele>136.906844</ele>
        <time>2023-09-17T08:51:18.424Z</time>
      </trkpt>
      <trkpt lat="43.65774" lon="1.45484">
        <ele>136.971683</ele>
        <time>2023-09-17T08:51:19.424Z</time>
      </trkpt>
      <trkpt lat="43.65774" lon="1.45484">
        <ele>136.971683</ele>
        <time>2023-09-17T08:51:19.424Z</time>
      </trkpt>
      <trkpt lat="43.6578" lon="1.45486">
        <ele>137.031602</ele>
        <time>2023-09-17T08:51:20.424Z</time>
      </trkpt>
      <trkpt lat="43.6578" lon="1.45486">
        <ele>137.031602</ele>
        <time>2023-09-17T08:51:20.424Z</time>
      </trkpt>
      <trkpt lat="43.65785" lon="1.45487">
        <ele>137.091862</ele>
        <time>2023-09-17T08:51:21.424Z</time>
      </trkpt>
      <trkpt lat="43.65785" lon="1.45487">
        <ele>137.091862</ele>
        <time>2023-09-17T08:51:21.424Z</time>
      </trkpt>
      <trkpt lat="43.65791" lon="1.4549">
        <ele>137.158917</ele>
        <time>2023-09-17T08:51:22.424Z</time>
      </trkpt>
      <trkpt lat="43.65797" lon="1.45492">
        <ele>137.229161</ele>
        <time>2023-09-17T08:51:23.424Z</time>
      </trkpt>
      <trkpt lat="43.65797" lon="1.45492">
        <ele>137.229161</ele>
        <time>2023-09-17T08:51:23.424Z</time>
      </trkpt>
      <trkpt lat="43.65802" lon="1.45494">
        <ele>137.289421</ele>
        <time>2023-09-17T08:51:24.424Z</time>
      </trkpt>
      <trkpt lat="43.65808" lon="1.45494">
        <ele>137.352597</ele>
        <time>2023-09-17T08:51:25.424Z</time>
      </trkpt>
      <trkpt lat="43.65808" lon="1.45494">
        <ele>137.352597</ele>
        <time>2023-09-17T08:51:25.424Z</time>
      </trkpt>
      <trkpt lat="43.65813" lon="1.45493">
        <ele>137.408552</ele>
        <time>2023-09-17T08:51:26.424Z</time>
      </trkpt>
      <trkpt lat="43.65819" lon="1.45492">
        <ele>137.477318</ele>
        <time>2023-09-17T08:51:27.424Z</time>
      </trkpt>
      <trkpt lat="43.65825" lon="1.4549">
        <ele>137.546573</ele>
        <time>2023-09-17T08:51:28.424Z</time>
      </trkpt>
      <trkpt lat="43.65831" lon="1.45488">
        <ele>137.616198</ele>
        <time>2023-09-17T08:51:29.424Z</time>
      </trkpt>
      <trkpt lat="43.65838" lon="1.45485">
        <ele>137.690315</ele>
        <time>2023-09-17T08:51:30.424Z</time>
      </trkpt>
      <trkpt lat="43.65844" lon="1.45483">
        <ele>137.764247</ele>
        <time>2023-09-17T08:51:31.424Z</time>
      </trkpt>
      <trkpt lat="43.6585" lon="1.45481">
        <ele>137.836919</ele>
        <time>2023-09-17T08:51:32.424Z</time>
      </trkpt>
      <trkpt lat="43.6585" lon="1.45481">
        <ele>137.836919</ele>
        <time>2023-09-17T08:51:32.424Z</time>
      </trkpt>
      <trkpt lat="43.65857" lon="1.45479">
        <ele>137.898939</ele>
        <time>2023-09-17T08:51:33.424Z</time>
      </trkpt>
      <trkpt lat="43.65857" lon="1.45479">
        <ele>137.898939</ele>
        <time>2023-09-17T08:51:33.424Z</time>
      </trkpt>
      <trkpt lat="43.65863" lon="1.45478">
        <ele>137.845021</ele>
        <time>2023-09-17T08:51:34.424Z</time>
      </trkpt>
      <trkpt lat="43.65869" lon="1.45476">
        <ele>137.79482</ele>
        <time>2023-09-17T08:51:35.424Z</time>
      </trkpt>
      <trkpt lat="43.65875" lon="1.45476">
        <ele>137.745036</ele>
        <time>2023-09-17T08:51:36.424Z</time>
      </trkpt>
      <trkpt lat="43.65879" lon="1.45475">
        <ele>137.710693</ele>
        <time>2023-09-17T08:51:37.424Z</time>
      </trkpt>
      <trkpt lat="43.65886" lon="1.45474">
        <ele>137.660953</ele>
        <time>2023-09-17T08:51:38.424Z</time>
      </trkpt>
      <trkpt lat="43.65892" lon="1.45474">
        <ele>137.608033</ele>
        <time>2023-09-17T08:51:39.424Z</time>
      </trkpt>
      <trkpt lat="43.659" lon="1.45473">
        <ele>137.542899</ele>
        <time>2023-09-17T08:51:40.424Z</time>
      </trkpt>
      <trkpt lat="43.65907" lon="1.45473">
        <ele>137.486667</ele>
        <time>2023-09-17T08:51:41.424Z</time>
      </trkpt>
      <trkpt lat="43.65913" lon="1.45472">
        <ele>137.436927</ele>
        <time>2023-09-17T08:51:42.424Z</time>
      </trkpt>
      <trkpt lat="43.65919" lon="1.45471">
        <ele>137.387031</ele>
        <time>2023-09-17T08:51:43.424Z</time>
      </trkpt>
      <trkpt lat="43.65925" lon="1.45469">
        <ele>137.341561</ele>
        <time>2023-09-17T08:51:44.424Z</time>
      </trkpt>
      <trkpt lat="43.65925" lon="1.45469">
        <ele>137.341561</ele>
        <time>2023-09-17T08:51:44.424Z</time>
      </trkpt>
      <trkpt lat="43.65929" lon="1.45466">
        <ele>137.298975</ele>
        <time>2023-09-17T08:51:45.424Z</time>
      </trkpt>
      <trkpt lat="43.65934" lon="1.4546">
        <ele>137.250267</ele>
        <time>2023-09-17T08:51:46.424Z</time>
      </trkpt>
      <trkpt lat="43.65938" lon="1.45455">
        <ele>137.205184</ele>
        <time>2023-09-17T08:51:47.424Z</time>
      </trkpt>
      <trkpt lat="43.65941" lon="1.45452">
        <ele>137.172056</ele>
        <time>2023-09-17T08:51:48.424Z</time>
      </trkpt>
      <trkpt lat="43.65945" lon="1.4545">
        <ele>137.138422</ele>
        <time>2023-09-17T08:51:49.424Z</time>
      </trkpt>
      <trkpt lat="43.65945" lon="1.4545">
        <ele>137.138422</ele>
        <time>2023-09-17T08:51:49.424Z</time>
      </trkpt>
      <trkpt lat="43.65948" lon="1.4545">
        <ele>137.113677</ele>
        <time>2023-09-17T08:51:50.424Z</time>
      </trkpt>
      <trkpt lat="43.65951" lon="1.4545">
        <ele>137.088456</ele>
        <time>2023-09-17T08:51:51.424Z</time>
      </trkpt>
      <trkpt lat="43.65955" lon="1.4545">
        <ele>137.054215</ele>
        <time>2023-09-17T08:51:52.424Z</time>
      </trkpt>
      <trkpt lat="43.65955" lon="1.4545">
        <ele>137.054215</ele>
        <time>2023-09-17T08:51:52.424Z</time>
      </trkpt>
      <trkpt lat="43.6596" lon="1.45451">
        <ele>137.013395</ele>
        <time>2023-09-17T08:51:53.424Z</time>
      </trkpt>
      <trkpt lat="43.65965" lon="1.45454">
        <ele>136.973608</ele>
        <time>2023-09-17T08:51:54.424Z</time>
      </trkpt>
      <trkpt lat="43.6597" lon="1.45457">
        <ele>136.932239</ele>
        <time>2023-09-17T08:51:55.424Z</time>
      </trkpt>
      <trkpt lat="43.65974" lon="1.45461">
        <ele>136.887065</ele>
        <time>2023-09-17T08:51:56.424Z</time>
      </trkpt>
      <trkpt lat="43.65978" lon="1.45467">
        <ele>136.843963</ele>
        <time>2023-09-17T08:51:56.424Z</time>
      </trkpt>
      <trkpt lat="43.65981" lon="1.45473">
        <ele>136.802009</ele>
        <time>2023-09-17T08:51:58.424Z</time>
      </trkpt>
      <trkpt lat="43.65981" lon="1.45473">
        <ele>136.802009</ele>
        <time>2023-09-17T08:51:58.424Z</time>
      </trkpt>
      <trkpt lat="43.65984" lon="1.45477">
        <ele>136.762801</ele>
        <time>2023-09-17T08:51:59.424Z</time>
      </trkpt>
      <trkpt lat="43.65989" lon="1.4548">
        <ele>136.71823</ele>
        <time>2023-09-17T08:51:59.424Z</time>
      </trkpt>
      <trkpt lat="43.65989" lon="1.4548">
        <ele>136.71823</ele>
        <time>2023-09-17T08:51:59.424Z</time>
      </trkpt>
      <trkpt lat="43.65995" lon="1.45482">
        <ele>136.673048</ele>
        <time>2023-09-17T08:52:01.424Z</time>
      </trkpt>
      <trkpt lat="43.66" lon="1.45484">
        <ele>136.626913</ele>
        <time>2023-09-17T08:52:02.424Z</time>
      </trkpt>
      <trkpt lat="43.66" lon="1.45484">
        <ele>136.626913</ele>
        <time>2023-09-17T08:52:02.424Z</time>
      </trkpt>
      <trkpt lat="43.66006" lon="1.45488">
        <ele>136.574052</ele>
        <time>2023-09-17T08:52:03.424Z</time>
      </trkpt>
      <trkpt lat="43.66006" lon="1.45488">
        <ele>136.574052</ele>
        <time>2023-09-17T08:52:03.424Z</time>
      </trkpt>
      <trkpt lat="43.66012" lon="1.45491">
        <ele>136.520105</ele>
        <time>2023-09-17T08:52:03.424Z</time>
      </trkpt>
      <trkpt lat="43.66012" lon="1.45491">
        <ele>136.520105</ele>
        <time>2023-09-17T08:52:03.424Z</time>
      </trkpt>
      <trkpt lat="43.66018" lon="1.45496">
        <ele>136.46551</ele>
        <time>2023-09-17T08:52:05.424Z</time>
      </trkpt>
      <trkpt lat="43.66018" lon="1.45496">
        <ele>136.46551</ele>
        <time>2023-09-17T08:52:05.424Z</time>
      </trkpt>
      <trkpt lat="43.66024" lon="1.45502">
        <ele>136.392303</ele>
        <time>2023-09-17T08:52:06.424Z</time>
      </trkpt>
      <trkpt lat="43.66024" lon="1.45502">
        <ele>136.392303</ele>
        <time>2023-09-17T08:52:06.424Z</time>
      </trkpt>
      <trkpt lat="43.6603" lon="1.45508">
        <ele>136.296064</ele>
        <time>2023-09-17T08:52:07.424Z</time>
      </trkpt>
      <trkpt lat="43.6603" lon="1.45508">
        <ele>136.296064</ele>
        <time>2023-09-17T08:52:07.424Z</time>
      </trkpt>
      <trkpt lat="43.66036" lon="1.45513">
        <ele>136.210171</ele>
        <time>2023-09-17T08:52:08.424Z</time>
      </trkpt>
      <trkpt lat="43.66036" lon="1.45513">
        <ele>136.210171</ele>
        <time>2023-09-17T08:52:08.424Z</time>
      </trkpt>
      <trkpt lat="43.66042" lon="1.45518">
        <ele>136.117409</ele>
        <time>2023-09-17T08:52:09.424Z</time>
      </trkpt>
      <trkpt lat="43.66042" lon="1.45518">
        <ele>136.117409</ele>
        <time>2023-09-17T08:52:09.424Z</time>
      </trkpt>
      <trkpt lat="43.66048" lon="1.45523">
        <ele>136.030325</ele>
        <time>2023-09-17T08:52:10.424Z</time>
      </trkpt>
      <trkpt lat="43.66048" lon="1.45523">
        <ele>136.030325</ele>
        <time>2023-09-17T08:52:10.424Z</time>
      </trkpt>
      <trkpt lat="43.66054" lon="1.45527">
        <ele>135.95045</ele>
        <time>2023-09-17T08:52:11.424Z</time>
      </trkpt>
      <trkpt lat="43.66054" lon="1.45527">
        <ele>135.95045</ele>
        <time>2023-09-17T08:52:11.424Z</time>
      </trkpt>
      <trkpt lat="43.6606" lon="1.4553">
        <ele>135.872879</ele>
        <time>2023-09-17T08:52:12.424Z</time>
      </trkpt>
      <trkpt lat="43.66064" lon="1.45533">
        <ele>135.810075</ele>
        <time>2023-09-17T08:52:13.424Z</time>
      </trkpt>
      <trkpt lat="43.66064" lon="1.45533">
        <ele>135.810075</ele>
        <time>2023-09-17T08:52:13.424Z</time>
      </trkpt>
      <trkpt lat="43.66069" lon="1.45535">
        <ele>135.751011</ele>
        <time>2023-09-17T08:52:14.424Z</time>
      </trkpt>
      <trkpt lat="43.66073" lon="1.45535">
        <ele>135.69342</ele>
        <time>2023-09-17T08:52:15.424Z</time>
      </trkpt>
      <trkpt lat="43.66077" lon="1.45534">
        <ele>135.644505</ele>
        <time>2023-09-17T08:52:16.424Z</time>
      </trkpt>
      <trkpt lat="43.66082" lon="1.45533">
        <ele>135.580377</ele>
        <time>2023-09-17T08:52:17.424Z</time>
      </trkpt>
      <trkpt lat="43.66087" lon="1.45532">
        <ele>135.513851</ele>
        <time>2023-09-17T08:52:18.424Z</time>
      </trkpt>
      <trkpt lat="43.66092" lon="1.45533">
        <ele>135.455667</ele>
        <time>2023-09-17T08:52:19.424Z</time>
      </trkpt>
      <trkpt lat="43.66097" lon="1.45535">
        <ele>135.389531</ele>
        <time>2023-09-17T08:52:20.424Z</time>
      </trkpt>
      <trkpt lat="43.66102" lon="1.45538">
        <ele>135.326727</ele>
        <time>2023-09-17T08:52:21.424Z</time>
      </trkpt>
      <trkpt lat="43.66102" lon="1.45538">
        <ele>135.326727</ele>
        <time>2023-09-17T08:52:21.424Z</time>
      </trkpt>
      <trkpt lat="43.66106" lon="1.45541">
        <ele>135.25862</ele>
        <time>2023-09-17T08:52:22.424Z</time>
      </trkpt>
      <trkpt lat="43.6611" lon="1.45544">
        <ele>135.204814</ele>
        <time>2023-09-17T08:52:23.424Z</time>
      </trkpt>
      <trkpt lat="43.6611" lon="1.45544">
        <ele>135.204814</ele>
        <time>2023-09-17T08:52:23.424Z</time>
      </trkpt>
      <trkpt lat="43.66114" lon="1.45547">
        <ele>135.150133</ele>
        <time>2023-09-17T08:52:24.424Z</time>
      </trkpt>
      <trkpt lat="43.66118" lon="1.4555">
        <ele>135.096031</ele>
        <time>2023-09-17T08:52:25.424Z</time>
      </trkpt>
      <trkpt lat="43.66118" lon="1.4555">
        <ele>135.096031</ele>
        <time>2023-09-17T08:52:25.424Z</time>
      </trkpt>
      <trkpt lat="43.66122" lon="1.45552">
        <ele>135.038892</ele>
        <time>2023-09-17T08:52:26.424Z</time>
      </trkpt>
      <trkpt lat="43.66122" lon="1.45552">
        <ele>135.038892</ele>
        <time>2023-09-17T08:52:26.424Z</time>
      </trkpt>
      <trkpt lat="43.66126" lon="1.45556">
        <ele>134.985377</ele>
        <time>2023-09-17T08:52:26.424Z</time>
      </trkpt>
      <trkpt lat="43.66126" lon="1.45556">
        <ele>134.985377</ele>
        <time>2023-09-17T08:52:26.424Z</time>
      </trkpt>
      <trkpt lat="43.6613" lon="1.4556">
        <ele>134.916986</ele>
        <time>2023-09-17T08:52:27.424Z</time>
      </trkpt>
      <trkpt lat="43.66134" lon="1.45563">
        <ele>134.855707</ele>
        <time>2023-09-17T08:52:28.424Z</time>
      </trkpt>
      <trkpt lat="43.66139" lon="1.45567">
        <ele>134.795342</ele>
        <time>2023-09-17T08:52:29.424Z</time>
      </trkpt>
      <trkpt lat="43.66142" lon="1.4557">
        <ele>134.744449</ele>
        <time>2023-09-17T08:52:30.424Z</time>
      </trkpt>
      <trkpt lat="43.66145" lon="1.45573">
        <ele>134.693556</ele>
        <time>2023-09-17T08:52:32.424Z</time>
      </trkpt>
      <trkpt lat="43.66148" lon="1.45574">
        <ele>134.659386</ele>
        <time>2023-09-17T08:52:33.424Z</time>
      </trkpt>
      <trkpt lat="43.66148" lon="1.45574">
        <ele>134.659386</ele>
        <time>2023-09-17T08:52:33.424Z</time>
      </trkpt>
      <trkpt lat="43.66155" lon="1.45581">
        <ele>134.549145</ele>
        <time>2023-09-17T08:52:35.424Z</time>
      </trkpt>
      <trkpt lat="43.66155" lon="1.45581">
        <ele>134.549145</ele>
        <time>2023-09-17T08:52:35.424Z</time>
      </trkpt>
      <trkpt lat="43.66159" lon="1.45586">
        <ele>134.480272</ele>
        <time>2023-09-17T08:52:36.424Z</time>
      </trkpt>
      <trkpt lat="43.66159" lon="1.45586">
        <ele>134.480272</ele>
        <time>2023-09-17T08:52:36.424Z</time>
      </trkpt>
      <trkpt lat="43.66163" lon="1.45589">
        <ele>134.432463</ele>
        <time>2023-09-17T08:52:37.424Z</time>
      </trkpt>
      <trkpt lat="43.66163" lon="1.45589">
        <ele>134.432463</ele>
        <time>2023-09-17T08:52:37.424Z</time>
      </trkpt>
      <trkpt lat="43.66168" lon="1.45595">
        <ele>134.347927</ele>
        <time>2023-09-17T08:52:38.424Z</time>
      </trkpt>
      <trkpt lat="43.66171" lon="1.456">
        <ele>134.282531</ele>
        <time>2023-09-17T08:52:39.424Z</time>
      </trkpt>
      <trkpt lat="43.66174" lon="1.45605">
        <ele>134.221157</ele>
        <time>2023-09-17T08:52:41.424Z</time>
      </trkpt>
      <trkpt lat="43.66174" lon="1.45605">
        <ele>134.221157</ele>
        <time>2023-09-17T08:52:41.424Z</time>
      </trkpt>
      <trkpt lat="43.66178" lon="1.4561">
        <ele>134.186437</ele>
        <time>2023-09-17T08:52:41.424Z</time>
      </trkpt>
      <trkpt lat="43.66178" lon="1.4561">
        <ele>134.186437</ele>
        <time>2023-09-17T08:52:41.424Z</time>
      </trkpt>
      <trkpt lat="43.66183" lon="1.45617">
        <ele>134.17227</ele>
        <time>2023-09-17T08:52:42.424Z</time>
      </trkpt>
      <trkpt lat="43.66187" lon="1.45622">
        <ele>134.160975</ele>
        <time>2023-09-17T08:52:43.424Z</time>
      </trkpt>
      <trkpt lat="43.66187" lon="1.45622">
        <ele>134.160975</ele>
        <time>2023-09-17T08:52:43.424Z</time>
      </trkpt>
      <trkpt lat="43.66192" lon="1.45627">
        <ele>134.150509</ele>
        <time>2023-09-17T08:52:44.424Z</time>
      </trkpt>
      <trkpt lat="43.66196" lon="1.45629">
        <ele>134.141639</ele>
        <time>2023-09-17T08:52:45.424Z</time>
      </trkpt>
      <trkpt lat="43.662" lon="1.45629">
        <ele>134.132485</ele>
        <time>2023-09-17T08:52:46.424Z</time>
      </trkpt>
      <trkpt lat="43.662" lon="1.45629">
        <ele>134.132485</ele>
        <time>2023-09-17T08:52:46.424Z</time>
      </trkpt>
      <trkpt lat="43.66204" lon="1.45627">
        <ele>134.124024</ele>
        <time>2023-09-17T08:52:47.424Z</time>
      </trkpt>
      <trkpt lat="43.66209" lon="1.45624">
        <ele>134.114209</ele>
        <time>2023-09-17T08:52:49.424Z</time>
      </trkpt>
      <trkpt lat="43.66209" lon="1.45624">
        <ele>134.114209</ele>
        <time>2023-09-17T08:52:49.424Z</time>
      </trkpt>
      <trkpt lat="43.66213" lon="1.45618">
        <ele>134.102405</ele>
        <time>2023-09-17T08:52:49.424Z</time>
      </trkpt>
      <trkpt lat="43.66215" lon="1.45611">
        <ele>134.0911</ele>
        <time>2023-09-17T08:52:50.424Z</time>
      </trkpt>
      <trkpt lat="43.66215" lon="1.45611">
        <ele>134.0911</ele>
        <time>2023-09-17T08:52:50.424Z</time>
      </trkpt>
      <trkpt lat="43.66218" lon="1.45603">
        <ele>134.078676</ele>
        <time>2023-09-17T08:52:51.424Z</time>
      </trkpt>
      <trkpt lat="43.6622" lon="1.45595">
        <ele>134.066851</ele>
        <time>2023-09-17T08:52:52.424Z</time>
      </trkpt>
      <trkpt lat="43.6622" lon="1.45595">
        <ele>134.066851</ele>
        <time>2023-09-17T08:52:52.424Z</time>
      </trkpt>
      <trkpt lat="43.66222" lon="1.45586">
        <ele>134.053543</ele>
        <time>2023-09-17T08:52:53.424Z</time>
      </trkpt>
      <trkpt lat="43.66225" lon="1.45578">
        <ele>134.040337</ele>
        <time>2023-09-17T08:52:54.424Z</time>
      </trkpt>
      <trkpt lat="43.66227" lon="1.45569">
        <ele>134.027164</ele>
        <time>2023-09-17T08:52:55.424Z</time>
      </trkpt>
      <trkpt lat="43.6623" lon="1.45561">
        <ele>134.013506</ele>
        <time>2023-09-17T08:52:56.424Z</time>
      </trkpt>
      <trkpt lat="43.6623" lon="1.45561">
        <ele>134.013506</ele>
        <time>2023-09-17T08:52:56.424Z</time>
      </trkpt>
      <trkpt lat="43.66232" lon="1.45552">
        <ele>134.000037</ele>
        <time>2023-09-17T08:52:57.424Z</time>
      </trkpt>
      <trkpt lat="43.66235" lon="1.45544">
        <ele>133.987133</ele>
        <time>2023-09-17T08:52:58.424Z</time>
      </trkpt>
      <trkpt lat="43.66235" lon="1.45544">
        <ele>133.987133</ele>
        <time>2023-09-17T08:52:58.424Z</time>
      </trkpt>
      <trkpt lat="43.66237" lon="1.45535">
        <ele>133.973555</ele>
        <time>2023-09-17T08:52:59.424Z</time>
      </trkpt>
      <trkpt lat="43.66239" lon="1.45526">
        <ele>133.960919</ele>
        <time>2023-09-17T08:53:00.424Z</time>
      </trkpt>
      <trkpt lat="43.66242" lon="1.45517">
        <ele>133.946728</ele>
        <time>2023-09-17T08:53:01.424Z</time>
      </trkpt>
      <trkpt lat="43.66242" lon="1.45517">
        <ele>133.946728</ele>
        <time>2023-09-17T08:53:01.424Z</time>
      </trkpt>
      <trkpt lat="43.66244" lon="1.45508">
        <ele>133.93315</ele>
        <time>2023-09-17T08:53:02.424Z</time>
      </trkpt>
      <trkpt lat="43.66244" lon="1.45508">
        <ele>133.93315</ele>
        <time>2023-09-17T08:53:02.424Z</time>
      </trkpt>
      <trkpt lat="43.66246" lon="1.45501">
        <ele>133.922104</ele>
        <time>2023-09-17T08:53:03.424Z</time>
      </trkpt>
      <trkpt lat="43.66248" lon="1.45495">
        <ele>133.91243</ele>
        <time>2023-09-17T08:53:04.424Z</time>
      </trkpt>
      <trkpt lat="43.66248" lon="1.45495">
        <ele>133.91243</ele>
        <time>2023-09-17T08:53:04.424Z</time>
      </trkpt>
      <trkpt lat="43.66251" lon="1.45488">
        <ele>133.90099</ele>
        <time>2023-09-17T08:53:05.424Z</time>
      </trkpt>
      <trkpt lat="43.66251" lon="1.45488">
        <ele>133.90099</ele>
        <time>2023-09-17T08:53:05.424Z</time>
      </trkpt>
      <trkpt lat="43.66253" lon="1.45481">
        <ele>133.88955</ele>
        <time>2023-09-17T08:53:06.424Z</time>
      </trkpt>
      <trkpt lat="43.66255" lon="1.45472">
        <ele>133.876646</ele>
        <time>2023-09-17T08:53:07.424Z</time>
      </trkpt>
      <trkpt lat="43.66258" lon="1.45464">
        <ele>133.864411</ele>
        <time>2023-09-17T08:53:08.424Z</time>
      </trkpt>
      <trkpt lat="43.66259" lon="1.45456">
        <ele>133.852041</ele>
        <time>2023-09-17T08:53:09.424Z</time>
      </trkpt>
      <trkpt lat="43.66259" lon="1.45456">
        <ele>133.852041</ele>
        <time>2023-09-17T08:53:09.424Z</time>
      </trkpt>
      <trkpt lat="43.66261" lon="1.45447">
        <ele>133.838709</ele>
        <time>2023-09-17T08:53:10.424Z</time>
      </trkpt>
      <trkpt lat="43.66261" lon="1.45447">
        <ele>133.838709</ele>
        <time>2023-09-17T08:53:10.424Z</time>
      </trkpt>
      <trkpt lat="43.66264" lon="1.45438">
        <ele>133.80921</ele>
        <time>2023-09-17T08:53:11.424Z</time>
      </trkpt>
      <trkpt lat="43.66266" lon="1.45429">
        <ele>133.769416</ele>
        <time>2023-09-17T08:53:12.424Z</time>
      </trkpt>
      <trkpt lat="43.66266" lon="1.45429">
        <ele>133.769416</ele>
        <time>2023-09-17T08:53:12.424Z</time>
      </trkpt>
      <trkpt lat="43.66269" lon="1.45419">
        <ele>133.729456</ele>
        <time>2023-09-17T08:53:13.424Z</time>
      </trkpt>
      <trkpt lat="43.66271" lon="1.45411">
        <ele>133.693978</ele>
        <time>2023-09-17T08:53:14.424Z</time>
      </trkpt>
      <trkpt lat="43.66271" lon="1.45411">
        <ele>133.693978</ele>
        <time>2023-09-17T08:53:14.424Z</time>
      </trkpt>
      <trkpt lat="43.66274" lon="1.45402">
        <ele>133.659693</ele>
        <time>2023-09-17T08:53:15.424Z</time>
      </trkpt>
      <trkpt lat="43.66274" lon="1.45402">
        <ele>133.659693</ele>
        <time>2023-09-17T08:53:15.424Z</time>
      </trkpt>
      <trkpt lat="43.66276" lon="1.45394">
        <ele>133.62528</ele>
        <time>2023-09-17T08:53:16.424Z</time>
      </trkpt>
      <trkpt lat="43.66279" lon="1.45386">
        <ele>133.59002</ele>
        <time>2023-09-17T08:53:17.424Z</time>
      </trkpt>
      <trkpt lat="43.66282" lon="1.45378">
        <ele>133.555959</ele>
        <time>2023-09-17T08:53:18.424Z</time>
      </trkpt>
      <trkpt lat="43.66285" lon="1.45371">
        <ele>133.520792</ele>
        <time>2023-09-17T08:53:19.424Z</time>
      </trkpt>
      <trkpt lat="43.66285" lon="1.45371">
        <ele>133.520792</ele>
        <time>2023-09-17T08:53:19.424Z</time>
      </trkpt>
      <trkpt lat="43.66288" lon="1.45363">
        <ele>133.48678</ele>
        <time>2023-09-17T08:53:20.424Z</time>
      </trkpt>
      <trkpt lat="43.66291" lon="1.45355">
        <ele>133.451652</ele>
        <time>2023-09-17T08:53:21.424Z</time>
      </trkpt>
      <trkpt lat="43.66291" lon="1.45355">
        <ele>133.451652</ele>
        <time>2023-09-17T08:53:21.424Z</time>
      </trkpt>
      <trkpt lat="43.66294" lon="1.45347">
        <ele>133.416273</ele>
        <time>2023-09-17T08:53:22.424Z</time>
      </trkpt>
      <trkpt lat="43.66297" lon="1.4534">
        <ele>133.383275</ele>
        <time>2023-09-17T08:53:24.424Z</time>
      </trkpt>
      <trkpt lat="43.663" lon="1.45333">
        <ele>133.351221</ele>
        <time>2023-09-17T08:53:25.424Z</time>
      </trkpt>
      <trkpt lat="43.663" lon="1.45333">
        <ele>133.351221</ele>
        <time>2023-09-17T08:53:25.424Z</time>
      </trkpt>
      <trkpt lat="43.66304" lon="1.45325">
        <ele>133.318028</ele>
        <time>2023-09-17T08:53:25.424Z</time>
      </trkpt>
      <trkpt lat="43.66307" lon="1.45318">
        <ele>133.2857</ele>
        <time>2023-09-17T08:53:26.424Z</time>
      </trkpt>
      <trkpt lat="43.6631" lon="1.45311">
        <ele>133.252831</ele>
        <time>2023-09-17T08:53:27.424Z</time>
      </trkpt>
      <trkpt lat="43.6631" lon="1.45311">
        <ele>133.252831</ele>
        <time>2023-09-17T08:53:27.424Z</time>
      </trkpt>
      <trkpt lat="43.66314" lon="1.45304">
        <ele>133.219015</ele>
        <time>2023-09-17T08:53:29.424Z</time>
      </trkpt>
      <trkpt lat="43.66314" lon="1.45304">
        <ele>133.219015</ele>
        <time>2023-09-17T08:53:29.424Z</time>
      </trkpt>
      <trkpt lat="43.66317" lon="1.45297">
        <ele>133.187632</ele>
        <time>2023-09-17T08:53:29.424Z</time>
      </trkpt>
      <trkpt lat="43.6632" lon="1.4529">
        <ele>133.154114</ele>
        <time>2023-09-17T08:53:30.424Z</time>
      </trkpt>
      <trkpt lat="43.6632" lon="1.4529">
        <ele>133.154114</ele>
        <time>2023-09-17T08:53:30.424Z</time>
      </trkpt>
      <trkpt lat="43.66324" lon="1.45283">
        <ele>133.119973</ele>
        <time>2023-09-17T08:53:31.424Z</time>
      </trkpt>
      <trkpt lat="43.66324" lon="1.45283">
        <ele>133.119973</ele>
        <time>2023-09-17T08:53:31.424Z</time>
      </trkpt>
      <trkpt lat="43.66327" lon="1.45276">
        <ele>133.088069</ele>
        <time>2023-09-17T08:53:32.424Z</time>
      </trkpt>
      <trkpt lat="43.6633" lon="1.45269">
        <ele>133.054876</ele>
        <time>2023-09-17T08:53:33.424Z</time>
      </trkpt>
      <trkpt lat="43.6633" lon="1.45269">
        <ele>133.054876</ele>
        <time>2023-09-17T08:53:33.424Z</time>
      </trkpt>
      <trkpt lat="43.66333" lon="1.45262">
        <ele>133.021541</ele>
        <time>2023-09-17T08:53:34.424Z</time>
      </trkpt>
      <trkpt lat="43.66336" lon="1.45255">
        <ele>132.990824</ele>
        <time>2023-09-17T08:53:36.424Z</time>
      </trkpt>
      <trkpt lat="43.66336" lon="1.45255">
        <ele>132.990824</ele>
        <time>2023-09-17T08:53:36.424Z</time>
      </trkpt>
      <trkpt lat="43.6634" lon="1.45248">
        <ele>132.95982</ele>
        <time>2023-09-17T08:53:36.424Z</time>
      </trkpt>
      <trkpt lat="43.6634" lon="1.45248">
        <ele>132.95982</ele>
        <time>2023-09-17T08:53:36.424Z</time>
      </trkpt>
      <trkpt lat="43.66344" lon="1.45241">
        <ele>132.923154</ele>
        <time>2023-09-17T08:53:37.424Z</time>
      </trkpt>
      <trkpt lat="43.66344" lon="1.45241">
        <ele>132.923154</ele>
        <time>2023-09-17T08:53:37.424Z</time>
      </trkpt>
      <trkpt lat="43.66347" lon="1.45232">
        <ele>132.88529</ele>
        <time>2023-09-17T08:53:38.424Z</time>
      </trkpt>
      <trkpt lat="43.66347" lon="1.45232">
        <ele>132.88529</ele>
        <time>2023-09-17T08:53:38.424Z</time>
      </trkpt>
      <trkpt lat="43.6635" lon="1.45223">
        <ele>132.86179</ele>
        <time>2023-09-17T08:53:40.424Z</time>
      </trkpt>
      <trkpt lat="43.66352" lon="1.45214">
        <ele>132.85508</ele>
        <time>2023-09-17T08:53:41.424Z</time>
      </trkpt>
      <trkpt lat="43.66354" lon="1.45207">
        <ele>132.849197</ele>
        <time>2023-09-17T08:53:42.424Z</time>
      </trkpt>
      <trkpt lat="43.66356" lon="1.45199">
        <ele>132.843306</ele>
        <time>2023-09-17T08:53:43.424Z</time>
      </trkpt>
      <trkpt lat="43.66356" lon="1.45199">
        <ele>132.843306</ele>
        <time>2023-09-17T08:53:43.424Z</time>
      </trkpt>
      <trkpt lat="43.66359" lon="1.45192">
        <ele>132.837248</ele>
        <time>2023-09-17T08:53:44.424Z</time>
      </trkpt>
      <trkpt lat="43.66362" lon="1.45184">
        <ele>132.831176</ele>
        <time>2023-09-17T08:53:45.424Z</time>
      </trkpt>
      <trkpt lat="43.66362" lon="1.45184">
        <ele>132.831176</ele>
        <time>2023-09-17T08:53:45.424Z</time>
      </trkpt>
      <trkpt lat="43.66363" lon="1.45177">
        <ele>132.826044</ele>
        <time>2023-09-17T08:53:46.424Z</time>
      </trkpt>
      <trkpt lat="43.66361" lon="1.45172">
        <ele>132.821637</ele>
        <time>2023-09-17T08:53:47.424Z</time>
      </trkpt>
      <trkpt lat="43.66361" lon="1.45172">
        <ele>132.821637</ele>
        <time>2023-09-17T08:53:47.424Z</time>
      </trkpt>
      <trkpt lat="43.6636" lon="1.45167">
        <ele>132.818286</ele>
        <time>2023-09-17T08:53:48.424Z</time>
      </trkpt>
      <trkpt lat="43.6636" lon="1.45167">
        <ele>132.818286</ele>
        <time>2023-09-17T08:53:48.424Z</time>
      </trkpt>
      <trkpt lat="43.6636" lon="1.45163">
        <ele>132.814791</ele>
        <time>2023-09-17T08:53:48.424Z</time>
      </trkpt>
      <trkpt lat="43.6636" lon="1.45163">
        <ele>132.814791</ele>
        <time>2023-09-17T08:53:48.424Z</time>
      </trkpt>
      <trkpt lat="43.66362" lon="1.45158">
        <ele>132.810898</ele>
        <time>2023-09-17T08:53:50.424Z</time>
      </trkpt>
      <trkpt lat="43.66362" lon="1.45158">
        <ele>132.810898</ele>
        <time>2023-09-17T08:53:50.424Z</time>
      </trkpt>
      <trkpt lat="43.66364" lon="1.45153">
        <ele>132.806444</ele>
        <time>2023-09-17T08:53:50.424Z</time>
      </trkpt>
      <trkpt lat="43.66364" lon="1.45153">
        <ele>132.806444</ele>
        <time>2023-09-17T08:53:50.424Z</time>
      </trkpt>
      <trkpt lat="43.66367" lon="1.45148">
        <ele>132.802097</ele>
        <time>2023-09-17T08:53:52.424Z</time>
      </trkpt>
      <trkpt lat="43.66367" lon="1.45148">
        <ele>132.802097</ele>
        <time>2023-09-17T08:53:52.424Z</time>
      </trkpt>
      <trkpt lat="43.6637" lon="1.45141">
        <ele>132.796276</ele>
        <time>2023-09-17T08:53:52.424Z</time>
      </trkpt>
      <trkpt lat="43.6637" lon="1.45141">
        <ele>132.796276</ele>
        <time>2023-09-17T08:53:52.424Z</time>
      </trkpt>
      <trkpt lat="43.66372" lon="1.45134">
        <ele>132.79073</ele>
        <time>2023-09-17T08:53:53.424Z</time>
      </trkpt>
      <trkpt lat="43.66372" lon="1.45134">
        <ele>132.79073</ele>
        <time>2023-09-17T08:53:53.424Z</time>
      </trkpt>
      <trkpt lat="43.66375" lon="1.45127">
        <ele>132.784469</ele>
        <time>2023-09-17T08:53:55.424Z</time>
      </trkpt>
      <trkpt lat="43.66379" lon="1.45118">
        <ele>132.777583</ele>
        <time>2023-09-17T08:53:55.424Z</time>
      </trkpt>
      <trkpt lat="43.66382" lon="1.45111">
        <ele>132.7717</ele>
        <time>2023-09-17T08:53:57.424Z</time>
      </trkpt>
      <trkpt lat="43.66382" lon="1.45111">
        <ele>132.7717</ele>
        <time>2023-09-17T08:53:57.424Z</time>
      </trkpt>
      <trkpt lat="43.66385" lon="1.45104">
        <ele>132.765306</ele>
        <time>2023-09-17T08:53:58.424Z</time>
      </trkpt>
      <trkpt lat="43.66389" lon="1.45097">
        <ele>132.758967</ele>
        <time>2023-09-17T08:53:58.424Z</time>
      </trkpt>
      <trkpt lat="43.66389" lon="1.45097">
        <ele>132.758967</ele>
        <time>2023-09-17T08:53:58.424Z</time>
      </trkpt>
      <trkpt lat="43.66391" lon="1.45089">
        <ele>132.753076</ele>
        <time>2023-09-17T08:54:00.424Z</time>
      </trkpt>
      <trkpt lat="43.66393" lon="1.4508">
        <ele>132.746309</ele>
        <time>2023-09-17T08:54:00.424Z</time>
      </trkpt>
      <trkpt lat="43.66393" lon="1.4508">
        <ele>132.746309</ele>
        <time>2023-09-17T08:54:00.424Z</time>
      </trkpt>
      <trkpt lat="43.66395" lon="1.45072">
        <ele>132.739876</ele>
        <time>2023-09-17T08:54:01.424Z</time>
      </trkpt>
      <trkpt lat="43.66395" lon="1.45072">
        <ele>132.739876</ele>
        <time>2023-09-17T08:54:01.424Z</time>
      </trkpt>
      <trkpt lat="43.66398" lon="1.45064">
        <ele>132.733361</ele>
        <time>2023-09-17T08:54:03.424Z</time>
      </trkpt>
      <trkpt lat="43.66401" lon="1.45055">
        <ele>132.726521</ele>
        <time>2023-09-17T08:54:03.424Z</time>
      </trkpt>
      <trkpt lat="43.66404" lon="1.45046">
        <ele>132.719508</ele>
        <time>2023-09-17T08:54:05.424Z</time>
      </trkpt>
      <trkpt lat="43.66404" lon="1.45046">
        <ele>132.719508</ele>
        <time>2023-09-17T08:54:05.424Z</time>
      </trkpt>
      <trkpt lat="43.66407" lon="1.45038">
        <ele>132.712604</ele>
        <time>2023-09-17T08:54:05.424Z</time>
      </trkpt>
      <trkpt lat="43.66407" lon="1.45038">
        <ele>132.712604</ele>
        <time>2023-09-17T08:54:05.424Z</time>
      </trkpt>
      <trkpt lat="43.66407" lon="1.45036">
        <ele>132.711103</ele>
        <time>2023-09-17T08:54:07.424Z</time>
      </trkpt>
      <trkpt lat="43.66412" lon="1.4502">
        <ele>132.698794</ele>
        <time>2023-09-17T08:54:07.424Z</time>
      </trkpt>
      <trkpt lat="43.66413" lon="1.45012">
        <ele>132.692748</ele>
        <time>2023-09-17T08:54:08.424Z</time>
      </trkpt>
      <trkpt lat="43.66415" lon="1.45003">
        <ele>132.686107</ele>
        <time>2023-09-17T08:54:09.424Z</time>
      </trkpt>
      <trkpt lat="43.66417" lon="1.44994">
        <ele>132.663605</ele>
        <time>2023-09-17T08:54:11.424Z</time>
      </trkpt>
      <trkpt lat="43.6642" lon="1.44985">
        <ele>132.640187</ele>
        <time>2023-09-17T08:54:11.424Z</time>
      </trkpt>
      <trkpt lat="43.66423" lon="1.44977">
        <ele>132.61791</ele>
        <time>2023-09-17T08:54:12.424Z</time>
      </trkpt>
      <trkpt lat="43.66423" lon="1.44977">
        <ele>132.61791</ele>
        <time>2023-09-17T08:54:12.424Z</time>
      </trkpt>
      <trkpt lat="43.66425" lon="1.44969">
        <ele>132.595775</ele>
        <time>2023-09-17T08:54:14.424Z</time>
      </trkpt>
      <trkpt lat="43.66428" lon="1.4496">
        <ele>132.572358</ele>
        <time>2023-09-17T08:54:14.424Z</time>
      </trkpt>
      <trkpt lat="43.66431" lon="1.44952">
        <ele>132.548711</ele>
        <time>2023-09-17T08:54:15.424Z</time>
      </trkpt>
      <trkpt lat="43.66433" lon="1.44943">
        <ele>132.526042</ele>
        <time>2023-09-17T08:54:17.424Z</time>
      </trkpt>
      <trkpt lat="43.66433" lon="1.44942">
        <ele>132.523106</ele>
        <time>2023-09-17T08:54:17.424Z</time>
      </trkpt>
      <trkpt lat="43.66438" lon="1.44925">
        <ele>132.477301</ele>
        <time>2023-09-17T08:54:18.424Z</time>
      </trkpt>
      <trkpt lat="43.6644" lon="1.44917">
        <ele>132.456031</ele>
        <time>2023-09-17T08:54:19.424Z</time>
      </trkpt>
      <trkpt lat="43.6644" lon="1.44917">
        <ele>132.456031</ele>
        <time>2023-09-17T08:54:19.424Z</time>
      </trkpt>
      <trkpt lat="43.66443" lon="1.44908">
        <ele>132.433071</ele>
        <time>2023-09-17T08:54:21.424Z</time>
      </trkpt>
      <trkpt lat="43.66443" lon="1.44908">
        <ele>132.433071</ele>
        <time>2023-09-17T08:54:21.424Z</time>
      </trkpt>
      <trkpt lat="43.66446" lon="1.449">
        <ele>132.408771</ele>
        <time>2023-09-17T08:54:22.424Z</time>
      </trkpt>
      <trkpt lat="43.66446" lon="1.449">
        <ele>132.408771</ele>
        <time>2023-09-17T08:54:22.424Z</time>
      </trkpt>
      <trkpt lat="43.66448" lon="1.44891">
        <ele>132.385583</ele>
        <time>2023-09-17T08:54:23.424Z</time>
      </trkpt>
      <trkpt lat="43.66451" lon="1.44883">
        <ele>132.36408</ele>
        <time>2023-09-17T08:54:23.424Z</time>
      </trkpt>
      <trkpt lat="43.66451" lon="1.44883">
        <ele>132.36408</ele>
        <time>2023-09-17T08:54:23.424Z</time>
      </trkpt>
      <trkpt lat="43.66452" lon="1.44875">
        <ele>132.34281</ele>
        <time>2023-09-17T08:54:25.424Z</time>
      </trkpt>
      <trkpt lat="43.66454" lon="1.44866">
        <ele>132.32047</ele>
        <time>2023-09-17T08:54:25.424Z</time>
      </trkpt>
      <trkpt lat="43.66454" lon="1.44866">
        <ele>132.32047</ele>
        <time>2023-09-17T08:54:25.424Z</time>
      </trkpt>
      <trkpt lat="43.66456" lon="1.44858">
        <ele>132.298009</ele>
        <time>2023-09-17T08:54:26.424Z</time>
      </trkpt>
      <trkpt lat="43.66457" lon="1.44855">
        <ele>132.291408</ele>
        <time>2023-09-17T08:54:28.424Z</time>
      </trkpt>
      <trkpt lat="43.66461" lon="1.44841">
        <ele>132.25332</ele>
        <time>2023-09-17T08:54:29.424Z</time>
      </trkpt>
      <trkpt lat="43.66461" lon="1.44841">
        <ele>132.25332</ele>
        <time>2023-09-17T08:54:29.424Z</time>
      </trkpt>
      <trkpt lat="43.66464" lon="1.44834">
        <ele>132.233062</ele>
        <time>2023-09-17T08:54:30.424Z</time>
      </trkpt>
      <trkpt lat="43.66466" lon="1.44826">
        <ele>132.210927</ele>
        <time>2023-09-17T08:54:30.424Z</time>
      </trkpt>
      <trkpt lat="43.66469" lon="1.44818">
        <ele>132.188916</ele>
        <time>2023-09-17T08:54:32.424Z</time>
      </trkpt>
      <trkpt lat="43.66472" lon="1.4481">
        <ele>132.16685</ele>
        <time>2023-09-17T08:54:33.424Z</time>
      </trkpt>
      <trkpt lat="43.66476" lon="1.44803">
        <ele>132.145182</ele>
        <time>2023-09-17T08:54:34.424Z</time>
      </trkpt>
      <trkpt lat="43.66479" lon="1.44797">
        <ele>132.125712</ele>
        <time>2023-09-17T08:54:35.424Z</time>
      </trkpt>
      <trkpt lat="43.66482" lon="1.44789">
        <ele>132.104251</ele>
        <time>2023-09-17T08:54:35.424Z</time>
      </trkpt>
      <trkpt lat="43.66486" lon="1.44782">
        <ele>132.082564</ele>
        <time>2023-09-17T08:54:37.424Z</time>
      </trkpt>
      <trkpt lat="43.66489" lon="1.44775">
        <ele>132.057718</ele>
        <time>2023-09-17T08:54:37.424Z</time>
      </trkpt>
      <trkpt lat="43.66492" lon="1.44767">
        <ele>132.003717</ele>
        <time>2023-09-17T08:54:39.424Z</time>
      </trkpt>
      <trkpt lat="43.66492" lon="1.44767">
        <ele>132.003717</ele>
        <time>2023-09-17T08:54:39.424Z</time>
      </trkpt>
      <trkpt lat="43.66495" lon="1.4476">
        <ele>131.952775</ele>
        <time>2023-09-17T08:54:39.424Z</time>
      </trkpt>
      <trkpt lat="43.66495" lon="1.4476">
        <ele>131.952775</ele>
        <time>2023-09-17T08:54:39.424Z</time>
      </trkpt>
      <trkpt lat="43.66498" lon="1.44752">
        <ele>131.897172</ele>
        <time>2023-09-17T08:54:41.424Z</time>
      </trkpt>
      <trkpt lat="43.66501" lon="1.44744">
        <ele>131.842639</ele>
        <time>2023-09-17T08:54:42.424Z</time>
      </trkpt>
      <trkpt lat="43.66504" lon="1.44735">
        <ele>131.785797</ele>
        <time>2023-09-17T08:54:42.424Z</time>
      </trkpt>
      <trkpt lat="43.66506" lon="1.44728">
        <ele>131.736369</ele>
        <time>2023-09-17T08:54:44.424Z</time>
      </trkpt>
      <trkpt lat="43.66509" lon="1.44719">
        <ele>131.680041</ele>
        <time>2023-09-17T08:54:45.424Z</time>
      </trkpt>
      <trkpt lat="43.66511" lon="1.44714">
        <ele>131.644599</ele>
        <time>2023-09-17T08:54:45.424Z</time>
      </trkpt>
      <trkpt lat="43.66513" lon="1.44712">
        <ele>131.619516</ele>
        <time>2023-09-17T08:54:47.424Z</time>
      </trkpt>
      <trkpt lat="43.66516" lon="1.44711">
        <ele>131.599762</ele>
        <time>2023-09-17T08:54:47.424Z</time>
      </trkpt>
      <trkpt lat="43.66519" lon="1.44712">
        <ele>131.570006</ele>
        <time>2023-09-17T08:54:50.424Z</time>
      </trkpt>
      <trkpt lat="43.6652" lon="1.44712">
        <ele>131.560293</ele>
        <time>2023-09-17T08:54:51.424Z</time>
      </trkpt>
      <trkpt lat="43.6652" lon="1.44712">
        <ele>131.560293</ele>
        <time>2023-09-17T08:54:51.424Z</time>
      </trkpt>
      <trkpt lat="43.66522" lon="1.44714">
        <ele>131.545443</ele>
        <time>2023-09-17T08:54:52.424Z</time>
      </trkpt>
      <trkpt lat="43.66526" lon="1.44716">
        <ele>131.509636</ele>
        <time>2023-09-17T08:54:53.424Z</time>
      </trkpt>
      <trkpt lat="43.66526" lon="1.44716">
        <ele>131.509636</ele>
        <time>2023-09-17T08:54:53.424Z</time>
      </trkpt>
      <trkpt lat="43.66523" lon="1.44714">
        <ele>131.484223</ele>
        <time>2023-09-17T08:54:54.424Z</time>
      </trkpt>
      <trkpt lat="43.66531" lon="1.44719">
        <ele>131.410581</ele>
        <time>2023-09-17T08:54:55.424Z</time>
      </trkpt>
      <trkpt lat="43.66537" lon="1.44723">
        <ele>131.353688</ele>
        <time>2023-09-17T08:54:56.424Z</time>
      </trkpt>
      <trkpt lat="43.66542" lon="1.44727">
        <ele>131.304679</ele>
        <time>2023-09-17T08:54:57.424Z</time>
      </trkpt>
      <trkpt lat="43.66547" lon="1.4473">
        <ele>131.258205</ele>
        <time>2023-09-17T08:54:58.424Z</time>
      </trkpt>
      <trkpt lat="43.66547" lon="1.4473">
        <ele>131.258205</ele>
        <time>2023-09-17T08:54:58.424Z</time>
      </trkpt>
      <trkpt lat="43.66553" lon="1.44734">
        <ele>131.202844</ele>
        <time>2023-09-17T08:54:59.424Z</time>
      </trkpt>
      <trkpt lat="43.66558" lon="1.4474">
        <ele>131.152225</ele>
        <time>2023-09-17T08:55:00.424Z</time>
      </trkpt>
      <trkpt lat="43.66562" lon="1.44746">
        <ele>131.099177</ele>
        <time>2023-09-17T08:55:01.424Z</time>
      </trkpt>
      <trkpt lat="43.66562" lon="1.44746">
        <ele>131.099177</ele>
        <time>2023-09-17T08:55:01.424Z</time>
      </trkpt>
      <trkpt lat="43.66567" lon="1.44752">
        <ele>131.045022</ele>
        <time>2023-09-17T08:55:02.424Z</time>
      </trkpt>
      <trkpt lat="43.66567" lon="1.44752">
        <ele>131.045022</ele>
        <time>2023-09-17T08:55:02.424Z</time>
      </trkpt>
      <trkpt lat="43.66571" lon="1.44759">
        <ele>130.990709</ele>
        <time>2023-09-17T08:55:03.424Z</time>
      </trkpt>
      <trkpt lat="43.66571" lon="1.44759">
        <ele>130.990709</ele>
        <time>2023-09-17T08:55:03.424Z</time>
      </trkpt>
      <trkpt lat="43.66576" lon="1.44765">
        <ele>130.932301</ele>
        <time>2023-09-17T08:55:04.424Z</time>
      </trkpt>
      <trkpt lat="43.66576" lon="1.44765">
        <ele>130.932301</ele>
        <time>2023-09-17T08:55:04.424Z</time>
      </trkpt>
      <trkpt lat="43.6658" lon="1.44772">
        <ele>130.878222</ele>
        <time>2023-09-17T08:55:05.424Z</time>
      </trkpt>
      <trkpt lat="43.6658" lon="1.44772">
        <ele>130.878222</ele>
        <time>2023-09-17T08:55:05.424Z</time>
      </trkpt>
      <trkpt lat="43.66585" lon="1.44779">
        <ele>130.82348</ele>
        <time>2023-09-17T08:55:06.424Z</time>
      </trkpt>
      <trkpt lat="43.66585" lon="1.44779">
        <ele>130.82348</ele>
        <time>2023-09-17T08:55:06.424Z</time>
      </trkpt>
      <trkpt lat="43.66589" lon="1.44786">
        <ele>130.765648</ele>
        <time>2023-09-17T08:55:07.424Z</time>
      </trkpt>
      <trkpt lat="43.66589" lon="1.44786">
        <ele>130.765648</ele>
        <time>2023-09-17T08:55:07.424Z</time>
      </trkpt>
      <trkpt lat="43.66594" lon="1.44793">
        <ele>130.709998</ele>
        <time>2023-09-17T08:55:08.424Z</time>
      </trkpt>
      <trkpt lat="43.66598" lon="1.448">
        <ele>130.653176</ele>
        <time>2023-09-17T08:55:09.424Z</time>
      </trkpt>
      <trkpt lat="43.66598" lon="1.448">
        <ele>130.653176</ele>
        <time>2023-09-17T08:55:09.424Z</time>
      </trkpt>
      <trkpt lat="43.66602" lon="1.44806">
        <ele>130.602938</ele>
        <time>2023-09-17T08:55:10.424Z</time>
      </trkpt>
      <trkpt lat="43.66602" lon="1.44806">
        <ele>130.602938</ele>
        <time>2023-09-17T08:55:10.424Z</time>
      </trkpt>
      <trkpt lat="43.66607" lon="1.44814">
        <ele>130.554812</ele>
        <time>2023-09-17T08:55:11.424Z</time>
      </trkpt>
      <trkpt lat="43.66607" lon="1.44814">
        <ele>130.554812</ele>
        <time>2023-09-17T08:55:11.424Z</time>
      </trkpt>
      <trkpt lat="43.66611" lon="1.4482">
        <ele>130.550579</ele>
        <time>2023-09-17T08:55:12.424Z</time>
      </trkpt>
      <trkpt lat="43.66615" lon="1.44827">
        <ele>130.546102</ele>
        <time>2023-09-17T08:55:13.424Z</time>
      </trkpt>
      <trkpt lat="43.6662" lon="1.44834">
        <ele>130.54187</ele>
        <time>2023-09-17T08:55:14.424Z</time>
      </trkpt>
      <trkpt lat="43.66623" lon="1.4484">
        <ele>130.537987</ele>
        <time>2023-09-17T08:55:15.424Z</time>
      </trkpt>
      <trkpt lat="43.66623" lon="1.4484">
        <ele>130.537987</ele>
        <time>2023-09-17T08:55:15.424Z</time>
      </trkpt>
      <trkpt lat="43.66628" lon="1.44847">
        <ele>130.533782</ele>
        <time>2023-09-17T08:55:16.424Z</time>
      </trkpt>
      <trkpt lat="43.66633" lon="1.44851">
        <ele>130.529662</ele>
        <time>2023-09-17T08:55:17.424Z</time>
      </trkpt>
      <trkpt lat="43.66639" lon="1.44855">
        <ele>130.525798</ele>
        <time>2023-09-17T08:55:18.424Z</time>
      </trkpt>
      <trkpt lat="43.66639" lon="1.44855">
        <ele>130.525798</ele>
        <time>2023-09-17T08:55:18.424Z</time>
      </trkpt>
      <trkpt lat="43.66644" lon="1.44857">
        <ele>130.521913</ele>
        <time>2023-09-17T08:55:19.424Z</time>
      </trkpt>
      <trkpt lat="43.66649" lon="1.44858">
        <ele>130.519085</ele>
        <time>2023-09-17T08:55:20.424Z</time>
      </trkpt>
      <trkpt lat="43.66655" lon="1.44859">
        <ele>130.515071</ele>
        <time>2023-09-17T08:55:21.424Z</time>
      </trkpt>
      <trkpt lat="43.66655" lon="1.44859">
        <ele>130.515071</ele>
        <time>2023-09-17T08:55:21.424Z</time>
      </trkpt>
      <trkpt lat="43.66661" lon="1.4486">
        <ele>130.510815</ele>
        <time>2023-09-17T08:55:22.424Z</time>
      </trkpt>
      <trkpt lat="43.66666" lon="1.44859">
        <ele>130.507344</ele>
        <time>2023-09-17T08:55:23.424Z</time>
      </trkpt>
      <trkpt lat="43.66673" lon="1.44859">
        <ele>130.503338</ele>
        <time>2023-09-17T08:55:24.424Z</time>
      </trkpt>
      <trkpt lat="43.66678" lon="1.44857">
        <ele>130.500009</ele>
        <time>2023-09-17T08:55:25.424Z</time>
      </trkpt>
      <trkpt lat="43.66678" lon="1.44857">
        <ele>130.500009</ele>
        <time>2023-09-17T08:55:25.424Z</time>
      </trkpt>
      <trkpt lat="43.66683" lon="1.44855">
        <ele>130.496136</ele>
        <time>2023-09-17T08:55:26.424Z</time>
      </trkpt>
      <trkpt lat="43.6669" lon="1.44852">
        <ele>130.491173</ele>
        <time>2023-09-17T08:55:27.424Z</time>
      </trkpt>
      <trkpt lat="43.6669" lon="1.44852">
        <ele>130.491173</ele>
        <time>2023-09-17T08:55:27.424Z</time>
      </trkpt>
      <trkpt lat="43.66698" lon="1.44847">
        <ele>130.485942</ele>
        <time>2023-09-17T08:55:28.424Z</time>
      </trkpt>
      <trkpt lat="43.66705" lon="1.44842">
        <ele>130.480329</ele>
        <time>2023-09-17T08:55:29.424Z</time>
      </trkpt>
      <trkpt lat="43.66705" lon="1.44842">
        <ele>130.480329</ele>
        <time>2023-09-17T08:55:29.424Z</time>
      </trkpt>
      <trkpt lat="43.66711" lon="1.44837">
        <ele>130.475961</ele>
        <time>2023-09-17T08:55:30.424Z</time>
      </trkpt>
      <trkpt lat="43.66716" lon="1.44832">
        <ele>130.471708</ele>
        <time>2023-09-17T08:55:31.424Z</time>
      </trkpt>
      <trkpt lat="43.66723" lon="1.44827">
        <ele>130.467115</ele>
        <time>2023-09-17T08:55:32.424Z</time>
      </trkpt>
      <trkpt lat="43.66723" lon="1.44827">
        <ele>130.467115</ele>
        <time>2023-09-17T08:55:32.424Z</time>
      </trkpt>
      <trkpt lat="43.66728" lon="1.44823">
        <ele>130.462994</ele>
        <time>2023-09-17T08:55:33.424Z</time>
      </trkpt>
      <trkpt lat="43.66735" lon="1.44821">
        <ele>130.458275</ele>
        <time>2023-09-17T08:55:34.424Z</time>
      </trkpt>
      <trkpt lat="43.66735" lon="1.44821">
        <ele>130.458275</ele>
        <time>2023-09-17T08:55:34.424Z</time>
      </trkpt>
      <trkpt lat="43.66741" lon="1.44821">
        <ele>130.45426</ele>
        <time>2023-09-17T08:55:35.424Z</time>
      </trkpt>
      <trkpt lat="43.66741" lon="1.44821">
        <ele>130.45426</ele>
        <time>2023-09-17T08:55:35.424Z</time>
      </trkpt>
      <trkpt lat="43.66747" lon="1.44824">
        <ele>130.450269</ele>
        <time>2023-09-17T08:55:36.424Z</time>
      </trkpt>
      <trkpt lat="43.66747" lon="1.44824">
        <ele>130.450269</ele>
        <time>2023-09-17T08:55:36.424Z</time>
      </trkpt>
      <trkpt lat="43.66752" lon="1.44831">
        <ele>130.445842</ele>
        <time>2023-09-17T08:55:37.424Z</time>
      </trkpt>
      <trkpt lat="43.66755" lon="1.44838">
        <ele>130.441819</ele>
        <time>2023-09-17T08:55:38.424Z</time>
      </trkpt>
      <trkpt lat="43.66756" lon="1.44847">
        <ele>130.437742</ele>
        <time>2023-09-17T08:55:39.424Z</time>
      </trkpt>
      <trkpt lat="43.66756" lon="1.44856">
        <ele>130.433009</ele>
        <time>2023-09-17T08:55:40.424Z</time>
      </trkpt>
      <trkpt lat="43.66756" lon="1.44856">
        <ele>130.433009</ele>
        <time>2023-09-17T08:55:40.424Z</time>
      </trkpt>
      <trkpt lat="43.66758" lon="1.44864">
        <ele>130.42823</ele>
        <time>2023-09-17T08:55:41.424Z</time>
      </trkpt>
      <trkpt lat="43.66761" lon="1.44871">
        <ele>130.423861</ele>
        <time>2023-09-17T08:55:42.424Z</time>
      </trkpt>
      <trkpt lat="43.66761" lon="1.44871">
        <ele>130.423861</ele>
        <time>2023-09-17T08:55:42.424Z</time>
      </trkpt>
      <trkpt lat="43.66765" lon="1.44878">
        <ele>130.419317</ele>
        <time>2023-09-17T08:55:43.424Z</time>
      </trkpt>
      <trkpt lat="43.66769" lon="1.44884">
        <ele>130.414404</ele>
        <time>2023-09-17T08:55:44.424Z</time>
      </trkpt>
      <trkpt lat="43.66774" lon="1.44888">
        <ele>130.409803</ele>
        <time>2023-09-17T08:55:45.424Z</time>
      </trkpt>
      <trkpt lat="43.6678" lon="1.44893">
        <ele>130.405106</ele>
        <time>2023-09-17T08:55:46.424Z</time>
      </trkpt>
      <trkpt lat="43.66786" lon="1.44898">
        <ele>130.39989</ele>
        <time>2023-09-17T08:55:47.424Z</time>
      </trkpt>
      <trkpt lat="43.66786" lon="1.44898">
        <ele>130.39989</ele>
        <time>2023-09-17T08:55:47.424Z</time>
      </trkpt>
      <trkpt lat="43.66792" lon="1.44902">
        <ele>130.394384</ele>
        <time>2023-09-17T08:55:48.424Z</time>
      </trkpt>
      <trkpt lat="43.66798" lon="1.44907">
        <ele>130.389536</ele>
        <time>2023-09-17T08:55:49.424Z</time>
      </trkpt>
      <trkpt lat="43.66804" lon="1.4491">
        <ele>130.384491</ele>
        <time>2023-09-17T08:55:50.424Z</time>
      </trkpt>
      <trkpt lat="43.66811" lon="1.44914">
        <ele>130.379028</ele>
        <time>2023-09-17T08:55:51.424Z</time>
      </trkpt>
      <trkpt lat="43.66818" lon="1.44917">
        <ele>130.373902</ele>
        <time>2023-09-17T08:55:52.424Z</time>
      </trkpt>
      <trkpt lat="43.66824" lon="1.44919">
        <ele>130.36917</ele>
        <time>2023-09-17T08:55:53.424Z</time>
      </trkpt>
      <trkpt lat="43.6683" lon="1.44921">
        <ele>130.36394</ele>
        <time>2023-09-17T08:55:54.424Z</time>
      </trkpt>
      <trkpt lat="43.6683" lon="1.44921">
        <ele>130.36394</ele>
        <time>2023-09-17T08:55:54.424Z</time>
      </trkpt>
      <trkpt lat="43.66837" lon="1.44923">
        <ele>130.359234</ele>
        <time>2023-09-17T08:55:55.424Z</time>
      </trkpt>
      <trkpt lat="43.66843" lon="1.44925">
        <ele>130.354247</ele>
        <time>2023-09-17T08:55:56.424Z</time>
      </trkpt>
      <trkpt lat="43.66843" lon="1.44925">
        <ele>130.354247</ele>
        <time>2023-09-17T08:55:56.424Z</time>
      </trkpt>
      <trkpt lat="43.66849" lon="1.44926">
        <ele>130.349587</ele>
        <time>2023-09-17T08:55:57.424Z</time>
      </trkpt>
      <trkpt lat="43.66856" lon="1.44928">
        <ele>130.344021</ele>
        <time>2023-09-17T08:55:57.424Z</time>
      </trkpt>
      <trkpt lat="43.66863" lon="1.4493">
        <ele>130.33936</ele>
        <time>2023-09-17T08:55:59.424Z</time>
      </trkpt>
      <trkpt lat="43.66869" lon="1.44931">
        <ele>130.334109</ele>
        <time>2023-09-17T08:56:00.424Z</time>
      </trkpt>
      <trkpt lat="43.66869" lon="1.44931">
        <ele>130.334109</ele>
        <time>2023-09-17T08:56:00.424Z</time>
      </trkpt>
      <trkpt lat="43.66876" lon="1.44933">
        <ele>130.329458</ele>
        <time>2023-09-17T08:56:01.424Z</time>
      </trkpt>
      <trkpt lat="43.66882" lon="1.44934">
        <ele>130.324594</ele>
        <time>2023-09-17T08:56:02.424Z</time>
      </trkpt>
      <trkpt lat="43.66888" lon="1.44936">
        <ele>130.319648</ele>
        <time>2023-09-17T08:56:03.424Z</time>
      </trkpt>
      <trkpt lat="43.66895" lon="1.44937">
        <ele>130.314692</ele>
        <time>2023-09-17T08:56:04.424Z</time>
      </trkpt>
      <trkpt lat="43.66895" lon="1.44937">
        <ele>130.314692</ele>
        <time>2023-09-17T08:56:04.424Z</time>
      </trkpt>
      <trkpt lat="43.66901" lon="1.44939">
        <ele>130.310041</ele>
        <time>2023-09-17T08:56:05.424Z</time>
      </trkpt>
      <trkpt lat="43.66907" lon="1.44941">
        <ele>130.305336</ele>
        <time>2023-09-17T08:56:06.424Z</time>
      </trkpt>
      <trkpt lat="43.66913" lon="1.44944">
        <ele>130.308251</ele>
        <time>2023-09-17T08:56:07.424Z</time>
      </trkpt>
      <trkpt lat="43.66913" lon="1.44944">
        <ele>130.308251</ele>
        <time>2023-09-17T08:56:07.424Z</time>
      </trkpt>
      <trkpt lat="43.66919" lon="1.44947">
        <ele>130.31882</ele>
        <time>2023-09-17T08:56:08.424Z</time>
      </trkpt>
      <trkpt lat="43.66924" lon="1.44952">
        <ele>130.328668</ele>
        <time>2023-09-17T08:56:09.424Z</time>
      </trkpt>
      <trkpt lat="43.66928" lon="1.44959">
        <ele>130.339568</ele>
        <time>2023-09-17T08:56:10.424Z</time>
      </trkpt>
      <trkpt lat="43.66932" lon="1.44966">
        <ele>130.350141</ele>
        <time>2023-09-17T08:56:11.424Z</time>
      </trkpt>
      <trkpt lat="43.66935" lon="1.44974">
        <ele>130.360893</ele>
        <time>2023-09-17T08:56:12.424Z</time>
      </trkpt>
      <trkpt lat="43.66935" lon="1.44974">
        <ele>130.360893</ele>
        <time>2023-09-17T08:56:12.424Z</time>
      </trkpt>
      <trkpt lat="43.66938" lon="1.44981">
        <ele>130.371247</ele>
        <time>2023-09-17T08:56:13.424Z</time>
      </trkpt>
      <trkpt lat="43.66941" lon="1.44989">
        <ele>130.382317</ele>
        <time>2023-09-17T08:56:14.424Z</time>
      </trkpt>
      <trkpt lat="43.66944" lon="1.44997">
        <ele>130.392256</ele>
        <time>2023-09-17T08:56:15.424Z</time>
      </trkpt>
      <trkpt lat="43.66944" lon="1.44997">
        <ele>130.392256</ele>
        <time>2023-09-17T08:56:15.424Z</time>
      </trkpt>
      <trkpt lat="43.66946" lon="1.45004">
        <ele>130.401765</ele>
        <time>2023-09-17T08:56:16.424Z</time>
      </trkpt>
      <trkpt lat="43.66949" lon="1.45012">
        <ele>130.412836</ele>
        <time>2023-09-17T08:56:17.424Z</time>
      </trkpt>
      <trkpt lat="43.66952" lon="1.4502">
        <ele>130.423508</ele>
        <time>2023-09-17T08:56:18.424Z</time>
      </trkpt>
      <trkpt lat="43.66955" lon="1.45027">
        <ele>130.433306</ele>
        <time>2023-09-17T08:56:19.424Z</time>
      </trkpt>
      <trkpt lat="43.66958" lon="1.45035">
        <ele>130.443952</ele>
        <time>2023-09-17T08:56:20.424Z</time>
      </trkpt>
      <trkpt lat="43.66961" lon="1.45042">
        <ele>130.454747</ele>
        <time>2023-09-17T08:56:21.424Z</time>
      </trkpt>
      <trkpt lat="43.66965" lon="1.45049">
        <ele>130.465034</ele>
        <time>2023-09-17T08:56:22.424Z</time>
      </trkpt>
      <trkpt lat="43.66969" lon="1.45056">
        <ele>130.475415</ele>
        <time>2023-09-17T08:56:23.424Z</time>
      </trkpt>
      <trkpt lat="43.66972" lon="1.45063">
        <ele>130.485302</ele>
        <time>2023-09-17T08:56:24.424Z</time>
      </trkpt>
      <trkpt lat="43.66976" lon="1.4507">
        <ele>130.496104</ele>
        <time>2023-09-17T08:56:25.424Z</time>
      </trkpt>
      <trkpt lat="43.6698" lon="1.45076">
        <ele>130.506201</ele>
        <time>2023-09-17T08:56:26.424Z</time>
      </trkpt>
      <trkpt lat="43.66983" lon="1.45083">
        <ele>130.51599</ele>
        <time>2023-09-17T08:56:27.424Z</time>
      </trkpt>
      <trkpt lat="43.66987" lon="1.4509">
        <ele>130.526467</ele>
        <time>2023-09-17T08:56:28.424Z</time>
      </trkpt>
      <trkpt lat="43.6699" lon="1.45096">
        <ele>130.535672</ele>
        <time>2023-09-17T08:56:29.424Z</time>
      </trkpt>
      <trkpt lat="43.6699" lon="1.45096">
        <ele>130.535672</ele>
        <time>2023-09-17T08:56:29.424Z</time>
      </trkpt>
      <trkpt lat="43.66993" lon="1.45103">
        <ele>130.545294</ele>
        <time>2023-09-17T08:56:30.424Z</time>
      </trkpt>
      <trkpt lat="43.66996" lon="1.45109">
        <ele>130.554801</ele>
        <time>2023-09-17T08:56:30.424Z</time>
      </trkpt>
      <trkpt lat="43.66999" lon="1.45116">
        <ele>130.56432</ele>
        <time>2023-09-17T08:56:32.424Z</time>
      </trkpt>
      <trkpt lat="43.67003" lon="1.45123">
        <ele>130.574502</ele>
        <time>2023-09-17T08:56:32.424Z</time>
      </trkpt>
      <trkpt lat="43.67006" lon="1.4513">
        <ele>130.584021</ele>
        <time>2023-09-17T08:56:34.424Z</time>
      </trkpt>
      <trkpt lat="43.67009" lon="1.45137">
        <ele>130.593819</ele>
        <time>2023-09-17T08:56:34.424Z</time>
      </trkpt>
      <trkpt lat="43.67011" lon="1.45145">
        <ele>130.602904</ele>
        <time>2023-09-17T08:56:36.424Z</time>
      </trkpt>
      <trkpt lat="43.67013" lon="1.45152">
        <ele>130.600128</ele>
        <time>2023-09-17T08:56:36.424Z</time>
      </trkpt>
      <trkpt lat="43.67016" lon="1.45158">
        <ele>130.597215</ele>
        <time>2023-09-17T08:56:38.424Z</time>
      </trkpt>
      <trkpt lat="43.67016" lon="1.45158">
        <ele>130.597215</ele>
        <time>2023-09-17T08:56:38.424Z</time>
      </trkpt>
      <trkpt lat="43.6702" lon="1.45162">
        <ele>130.594703</ele>
        <time>2023-09-17T08:56:38.424Z</time>
      </trkpt>
      <trkpt lat="43.6702" lon="1.45162">
        <ele>130.594703</ele>
        <time>2023-09-17T08:56:38.424Z</time>
      </trkpt>
      <trkpt lat="43.67025" lon="1.45163">
        <ele>130.592499</ele>
        <time>2023-09-17T08:56:40.424Z</time>
      </trkpt>
      <trkpt lat="43.6703" lon="1.45162">
        <ele>130.58987</ele>
        <time>2023-09-17T08:56:41.424Z</time>
      </trkpt>
      <trkpt lat="43.67035" lon="1.45159">
        <ele>130.587013</ele>
        <time>2023-09-17T08:56:42.424Z</time>
      </trkpt>
      <trkpt lat="43.6704" lon="1.45156">
        <ele>130.583959</ele>
        <time>2023-09-17T08:56:43.424Z</time>
      </trkpt>
      <trkpt lat="43.6704" lon="1.45156">
        <ele>130.583959</ele>
        <time>2023-09-17T08:56:43.424Z</time>
      </trkpt>
      <trkpt lat="43.67046" lon="1.45152">
        <ele>130.580684</ele>
        <time>2023-09-17T08:56:44.424Z</time>
      </trkpt>
      <trkpt lat="43.67052" lon="1.45148">
        <ele>130.577459</ele>
        <time>2023-09-17T08:56:45.424Z</time>
      </trkpt>
      <trkpt lat="43.67058" lon="1.45145">
        <ele>130.573937</ele>
        <time>2023-09-17T08:56:46.424Z</time>
      </trkpt>
      <trkpt lat="43.67058" lon="1.45145">
        <ele>130.573937</ele>
        <time>2023-09-17T08:56:46.424Z</time>
      </trkpt>
      <trkpt lat="43.67064" lon="1.45144">
        <ele>130.571012</ele>
        <time>2023-09-17T08:56:47.424Z</time>
      </trkpt>
      <trkpt lat="43.67069" lon="1.45146">
        <ele>130.568261</ele>
        <time>2023-09-17T08:56:48.424Z</time>
      </trkpt>
      <trkpt lat="43.67069" lon="1.45146">
        <ele>130.568261</ele>
        <time>2023-09-17T08:56:48.424Z</time>
      </trkpt>
      <trkpt lat="43.67074" lon="1.4515">
        <ele>130.565457</ele>
        <time>2023-09-17T08:56:49.424Z</time>
      </trkpt>
      <trkpt lat="43.67077" lon="1.45155">
        <ele>130.563025</ele>
        <time>2023-09-17T08:56:50.424Z</time>
      </trkpt>
      <trkpt lat="43.67077" lon="1.45155">
        <ele>130.563025</ele>
        <time>2023-09-17T08:56:50.424Z</time>
      </trkpt>
      <trkpt lat="43.6708" lon="1.45161">
        <ele>130.560014</ele>
        <time>2023-09-17T08:56:51.424Z</time>
      </trkpt>
      <trkpt lat="43.6708" lon="1.45161">
        <ele>130.560014</ele>
        <time>2023-09-17T08:56:51.424Z</time>
      </trkpt>
      <trkpt lat="43.67083" lon="1.45167">
        <ele>130.557313</ele>
        <time>2023-09-17T08:56:52.424Z</time>
      </trkpt>
      <trkpt lat="43.67087" lon="1.45174">
        <ele>130.554371</ele>
        <time>2023-09-17T08:56:53.424Z</time>
      </trkpt>
      <trkpt lat="43.67087" lon="1.45174">
        <ele>130.554371</ele>
        <time>2023-09-17T08:56:53.424Z</time>
      </trkpt>
      <trkpt lat="43.6709" lon="1.4518">
        <ele>130.551483</ele>
        <time>2023-09-17T08:56:54.424Z</time>
      </trkpt>
      <trkpt lat="43.67093" lon="1.45187">
        <ele>130.548536</ele>
        <time>2023-09-17T08:56:55.424Z</time>
      </trkpt>
      <trkpt lat="43.67096" lon="1.45193">
        <ele>130.545594</ele>
        <time>2023-09-17T08:56:56.424Z</time>
      </trkpt>
      <trkpt lat="43.671" lon="1.452">
        <ele>130.542555</ele>
        <time>2023-09-17T08:56:57.424Z</time>
      </trkpt>
      <trkpt lat="43.671" lon="1.452">
        <ele>130.542555</ele>
        <time>2023-09-17T08:56:57.424Z</time>
      </trkpt>
      <trkpt lat="43.67103" lon="1.45205">
        <ele>130.540087</ele>
        <time>2023-09-17T08:56:58.424Z</time>
      </trkpt>
      <trkpt lat="43.67107" lon="1.45209">
        <ele>130.537676</ele>
        <time>2023-09-17T08:56:59.424Z</time>
      </trkpt>
      <trkpt lat="43.67107" lon="1.45209">
        <ele>130.537676</ele>
        <time>2023-09-17T08:56:59.424Z</time>
      </trkpt>
      <trkpt lat="43.6711" lon="1.45214">
        <ele>130.535319</ele>
        <time>2023-09-17T08:57:00.424Z</time>
      </trkpt>
      <trkpt lat="43.67113" lon="1.45218">
        <ele>130.533184</ele>
        <time>2023-09-17T08:57:01.424Z</time>
      </trkpt>
      <trkpt lat="43.67115" lon="1.45221">
        <ele>130.531639</ele>
        <time>2023-09-17T08:57:02.424Z</time>
      </trkpt>
      <trkpt lat="43.67117" lon="1.45224">
        <ele>130.530288</ele>
        <time>2023-09-17T08:57:03.424Z</time>
      </trkpt>
      <trkpt lat="43.67117" lon="1.45224">
        <ele>130.530288</ele>
        <time>2023-09-17T08:57:03.424Z</time>
      </trkpt>
      <trkpt lat="43.67118" lon="1.45227">
        <ele>130.528985</ele>
        <time>2023-09-17T08:57:04.424Z</time>
      </trkpt>
      <trkpt lat="43.6712" lon="1.45232">
        <ele>130.526695</ele>
        <time>2023-09-17T08:57:05.424Z</time>
      </trkpt>
      <trkpt lat="43.6712" lon="1.45232">
        <ele>130.526695</ele>
        <time>2023-09-17T08:57:05.424Z</time>
      </trkpt>
      <trkpt lat="43.67122" lon="1.45237">
        <ele>130.524437</ele>
        <time>2023-09-17T08:57:06.424Z</time>
      </trkpt>
      <trkpt lat="43.67122" lon="1.45237">
        <ele>130.524437</ele>
        <time>2023-09-17T08:57:06.424Z</time>
      </trkpt>
      <trkpt lat="43.67125" lon="1.45242">
        <ele>130.522125</ele>
        <time>2023-09-17T08:57:07.424Z</time>
      </trkpt>
      <trkpt lat="43.67125" lon="1.45242">
        <ele>130.522125</ele>
        <time>2023-09-17T08:57:07.424Z</time>
      </trkpt>
      <trkpt lat="43.67128" lon="1.45248">
        <ele>130.519483</ele>
        <time>2023-09-17T08:57:08.424Z</time>
      </trkpt>
      <trkpt lat="43.67128" lon="1.45248">
        <ele>130.519483</ele>
        <time>2023-09-17T08:57:08.424Z</time>
      </trkpt>
      <trkpt lat="43.67131" lon="1.45254">
        <ele>130.51702</ele>
        <time>2023-09-17T08:57:09.424Z</time>
      </trkpt>
      <trkpt lat="43.67134" lon="1.45259">
        <ele>130.514348</ele>
        <time>2023-09-17T08:57:10.424Z</time>
      </trkpt>
      <trkpt lat="43.67136" lon="1.45266">
        <ele>130.511474</ele>
        <time>2023-09-17T08:57:11.424Z</time>
      </trkpt>
      <trkpt lat="43.67139" lon="1.45272">
        <ele>130.597649</ele>
        <time>2023-09-17T08:57:12.424Z</time>
      </trkpt>
      <trkpt lat="43.67141" lon="1.45277">
        <ele>130.696192</ele>
        <time>2023-09-17T08:57:13.424Z</time>
      </trkpt>
      <trkpt lat="43.67141" lon="1.45277">
        <ele>130.696192</ele>
        <time>2023-09-17T08:57:13.424Z</time>
      </trkpt>
      <trkpt lat="43.67144" lon="1.45282">
        <ele>130.788562</ele>
        <time>2023-09-17T08:57:13.424Z</time>
      </trkpt>
      <trkpt lat="43.67147" lon="1.45287">
        <ele>130.885801</ele>
        <time>2023-09-17T08:57:15.424Z</time>
      </trkpt>
      <trkpt lat="43.6715" lon="1.45292">
        <ele>130.986843</ele>
        <time>2023-09-17T08:57:15.424Z</time>
      </trkpt>
      <trkpt lat="43.67152" lon="1.45298">
        <ele>131.082852</ele>
        <time>2023-09-17T08:57:17.424Z</time>
      </trkpt>
      <trkpt lat="43.67152" lon="1.45298">
        <ele>131.082852</ele>
        <time>2023-09-17T08:57:17.424Z</time>
      </trkpt>
      <trkpt lat="43.67155" lon="1.45303">
        <ele>131.18009</ele>
        <time>2023-09-17T08:57:17.424Z</time>
      </trkpt>
      <trkpt lat="43.67158" lon="1.45308">
        <ele>131.276119</ele>
        <time>2023-09-17T08:57:19.424Z</time>
      </trkpt>
      <trkpt lat="43.6716" lon="1.45313">
        <ele>131.360268</ele>
        <time>2023-09-17T08:57:20.424Z</time>
      </trkpt>
      <trkpt lat="43.6716" lon="1.45313">
        <ele>131.360268</ele>
        <time>2023-09-17T08:57:20.424Z</time>
      </trkpt>
      <trkpt lat="43.67161" lon="1.45317">
        <ele>131.435537</ele>
        <time>2023-09-17T08:57:21.424Z</time>
      </trkpt>
      <trkpt lat="43.67163" lon="1.45321">
        <ele>131.505333</ele>
        <time>2023-09-17T08:57:22.424Z</time>
      </trkpt>
      <trkpt lat="43.67163" lon="1.45321">
        <ele>131.505333</ele>
        <time>2023-09-17T08:57:22.424Z</time>
      </trkpt>
      <trkpt lat="43.67164" lon="1.45325">
        <ele>131.566102</ele>
        <time>2023-09-17T08:57:23.424Z</time>
      </trkpt>
      <trkpt lat="43.67164" lon="1.45325">
        <ele>131.566102</ele>
        <time>2023-09-17T08:57:23.424Z</time>
      </trkpt>
      <trkpt lat="43.67165" lon="1.45329">
        <ele>131.626317</ele>
        <time>2023-09-17T08:57:24.424Z</time>
      </trkpt>
      <trkpt lat="43.67165" lon="1.45329">
        <ele>131.626317</ele>
        <time>2023-09-17T08:57:24.424Z</time>
      </trkpt>
      <trkpt lat="43.67166" lon="1.45331">
        <ele>131.661035</ele>
        <time>2023-09-17T08:57:25.424Z</time>
      </trkpt>
      <trkpt lat="43.67166" lon="1.45331">
        <ele>131.661035</ele>
        <time>2023-09-17T08:57:25.424Z</time>
      </trkpt>
      <trkpt lat="43.67172" lon="1.45338">
        <ele>131.839216</ele>
        <time>2023-09-17T08:57:27.424Z</time>
      </trkpt>
      <trkpt lat="43.67172" lon="1.45338">
        <ele>131.839216</ele>
        <time>2023-09-17T08:57:27.424Z</time>
      </trkpt>
      <trkpt lat="43.67173" lon="1.45343">
        <ele>131.910649</ele>
        <time>2023-09-17T08:57:28.424Z</time>
      </trkpt>
      <trkpt lat="43.67173" lon="1.45343">
        <ele>131.910649</ele>
        <time>2023-09-17T08:57:28.424Z</time>
      </trkpt>
      <trkpt lat="43.67175" lon="1.45348">
        <ele>132.005989</ele>
        <time>2023-09-17T08:57:29.424Z</time>
      </trkpt>
      <trkpt lat="43.67175" lon="1.45348">
        <ele>132.005989</ele>
        <time>2023-09-17T08:57:29.424Z</time>
      </trkpt>
      <trkpt lat="43.67178" lon="1.45355">
        <ele>132.123119</ele>
        <time>2023-09-17T08:57:30.424Z</time>
      </trkpt>
      <trkpt lat="43.67181" lon="1.4536">
        <ele>132.227846</ele>
        <time>2023-09-17T08:57:31.424Z</time>
      </trkpt>
      <trkpt lat="43.67184" lon="1.45366">
        <ele>132.331349</ele>
        <time>2023-09-17T08:57:33.424Z</time>
      </trkpt>
      <trkpt lat="43.67186" lon="1.4537">
        <ele>132.40779</ele>
        <time>2023-09-17T08:57:34.424Z</time>
      </trkpt>
      <trkpt lat="43.67186" lon="1.4537">
        <ele>132.40779</ele>
        <time>2023-09-17T08:57:34.424Z</time>
      </trkpt>
      <trkpt lat="43.67189" lon="1.45374">
        <ele>132.485339</ele>
        <time>2023-09-17T08:57:35.424Z</time>
      </trkpt>
      <trkpt lat="43.67189" lon="1.45374">
        <ele>132.485339</ele>
        <time>2023-09-17T08:57:35.424Z</time>
      </trkpt>
      <trkpt lat="43.67191" lon="1.45376">
        <ele>132.544955</ele>
        <time>2023-09-17T08:57:36.424Z</time>
      </trkpt>
      <trkpt lat="43.67194" lon="1.45378">
        <ele>132.609286</ele>
        <time>2023-09-17T08:57:37.424Z</time>
      </trkpt>
      <trkpt lat="43.67197" lon="1.45379">
        <ele>132.675254</ele>
        <time>2023-09-17T08:57:38.424Z</time>
      </trkpt>
      <trkpt lat="43.67199" lon="1.45379">
        <ele>132.715187</ele>
        <time>2023-09-17T08:57:40.424Z</time>
      </trkpt>
      <trkpt lat="43.67199" lon="1.45379">
        <ele>132.715187</ele>
        <time>2023-09-17T08:57:40.424Z</time>
      </trkpt>
      <trkpt lat="43.67199" lon="1.45379">
        <ele>132.715187</ele>
        <time>2023-09-17T08:57:40.424Z</time>
      </trkpt>
      <trkpt lat="43.67203" lon="1.4538">
        <ele>132.810134</ele>
        <time>2023-09-17T08:57:41.424Z</time>
      </trkpt>
      <trkpt lat="43.67203" lon="1.4538">
        <ele>132.810134</ele>
        <time>2023-09-17T08:57:41.424Z</time>
      </trkpt>
      <trkpt lat="43.67205" lon="1.45378">
        <ele>132.853395</ele>
        <time>2023-09-17T08:57:44.424Z</time>
      </trkpt>
      <trkpt lat="43.67205" lon="1.45378">
        <ele>132.853395</ele>
        <time>2023-09-17T08:57:44.424Z</time>
      </trkpt>
      <trkpt lat="43.67209" lon="1.45377">
        <ele>132.931822</ele>
        <time>2023-09-17T08:57:46.424Z</time>
      </trkpt>
      <trkpt lat="43.67209" lon="1.45377">
        <ele>132.931822</ele>
        <time>2023-09-17T08:57:46.424Z</time>
      </trkpt>
      <trkpt lat="43.6721" lon="1.45376">
        <ele>132.95537</ele>
        <time>2023-09-17T08:57:47.424Z</time>
      </trkpt>
      <trkpt lat="43.6721" lon="1.45376">
        <ele>132.95537</ele>
        <time>2023-09-17T08:57:47.424Z</time>
      </trkpt>
      <trkpt lat="43.67211" lon="1.45375">
        <ele>132.994249</ele>
        <time>2023-09-17T08:57:48.424Z</time>
      </trkpt>
      <trkpt lat="43.67211" lon="1.45375">
        <ele>132.994249</ele>
        <time>2023-09-17T08:57:48.424Z</time>
      </trkpt>
      <trkpt lat="43.67215" lon="1.45372">
        <ele>133.087981</ele>
        <time>2023-09-17T08:57:49.424Z</time>
      </trkpt>
      <trkpt lat="43.67215" lon="1.45372">
        <ele>133.087981</ele>
        <time>2023-09-17T08:57:49.424Z</time>
      </trkpt>
      <trkpt lat="43.6722" lon="1.45367">
        <ele>133.223598</ele>
        <time>2023-09-17T08:57:51.424Z</time>
      </trkpt>
      <trkpt lat="43.6722" lon="1.45367">
        <ele>133.223598</ele>
        <time>2023-09-17T08:57:51.424Z</time>
      </trkpt>
      <trkpt lat="43.67226" lon="1.45361">
        <ele>133.361869</ele>
        <time>2023-09-17T08:57:53.424Z</time>
      </trkpt>
      <trkpt lat="43.67226" lon="1.45361">
        <ele>133.361869</ele>
        <time>2023-09-17T08:57:53.424Z</time>
      </trkpt>
      <trkpt lat="43.67227" lon="1.45359">
        <ele>133.408203</ele>
        <time>2023-09-17T08:57:54.424Z</time>
      </trkpt>
      <trkpt lat="43.6723" lon="1.45357">
        <ele>133.471443</ele>
        <time>2023-09-17T08:57:55.424Z</time>
      </trkpt>
      <trkpt lat="43.67234" lon="1.45354">
        <ele>133.573659</ele>
        <time>2023-09-17T08:57:56.424Z</time>
      </trkpt>
      <trkpt lat="43.67234" lon="1.45354">
        <ele>133.573659</ele>
        <time>2023-09-17T08:57:56.424Z</time>
      </trkpt>
      <trkpt lat="43.67238" lon="1.4535">
        <ele>133.678252</ele>
        <time>2023-09-17T08:57:57.424Z</time>
      </trkpt>
      <trkpt lat="43.67238" lon="1.4535">
        <ele>133.678252</ele>
        <time>2023-09-17T08:57:57.424Z</time>
      </trkpt>
      <trkpt lat="43.67243" lon="1.45347">
        <ele>133.795276</ele>
        <time>2023-09-17T08:57:58.424Z</time>
      </trkpt>
      <trkpt lat="43.67248" lon="1.45343">
        <ele>133.910991</ele>
        <time>2023-09-17T08:58:00.424Z</time>
      </trkpt>
      <trkpt lat="43.67248" lon="1.45343">
        <ele>133.910991</ele>
        <time>2023-09-17T08:58:00.424Z</time>
      </trkpt>
      <trkpt lat="43.67252" lon="1.45341">
        <ele>133.996937</ele>
        <time>2023-09-17T08:58:01.424Z</time>
      </trkpt>
      <trkpt lat="43.67252" lon="1.45341">
        <ele>133.996937</ele>
        <time>2023-09-17T08:58:01.424Z</time>
      </trkpt>
      <trkpt lat="43.67255" lon="1.45339">
        <ele>134.074538</ele>
        <time>2023-09-17T08:58:02.424Z</time>
      </trkpt>
      <trkpt lat="43.67259" lon="1.45337">
        <ele>134.16106</ele>
        <time>2023-09-17T08:58:03.424Z</time>
      </trkpt>
      <trkpt lat="43.67259" lon="1.45337">
        <ele>134.16106</ele>
        <time>2023-09-17T08:58:03.424Z</time>
      </trkpt>
      <trkpt lat="43.67264" lon="1.45334">
        <ele>134.267239</ele>
        <time>2023-09-17T08:58:04.424Z</time>
      </trkpt>
      <trkpt lat="43.67272" lon="1.45326">
        <ele>134.296641</ele>
        <time>2023-09-17T08:58:06.424Z</time>
      </trkpt>
      <trkpt lat="43.67272" lon="1.45326">
        <ele>134.296641</ele>
        <time>2023-09-17T08:58:06.424Z</time>
      </trkpt>
      <trkpt lat="43.67276" lon="1.45323">
        <ele>134.3006</ele>
        <time>2023-09-17T08:58:07.424Z</time>
      </trkpt>
      <trkpt lat="43.67276" lon="1.45323">
        <ele>134.3006</ele>
        <time>2023-09-17T08:58:07.424Z</time>
      </trkpt>
      <trkpt lat="43.6728" lon="1.45319">
        <ele>134.305368</ele>
        <time>2023-09-17T08:58:08.424Z</time>
      </trkpt>
      <trkpt lat="43.6728" lon="1.45319">
        <ele>134.305368</ele>
        <time>2023-09-17T08:58:08.424Z</time>
      </trkpt>
      <trkpt lat="43.67286" lon="1.45315">
        <ele>134.31071</ele>
        <time>2023-09-17T08:58:09.424Z</time>
      </trkpt>
      <trkpt lat="43.67293" lon="1.45311">
        <ele>134.317849</ele>
        <time>2023-09-17T08:58:10.424Z</time>
      </trkpt>
      <trkpt lat="43.67299" lon="1.45307">
        <ele>134.324128</ele>
        <time>2023-09-17T08:58:11.424Z</time>
      </trkpt>
      <trkpt lat="43.67306" lon="1.45304">
        <ele>134.330226</ele>
        <time>2023-09-17T08:58:12.424Z</time>
      </trkpt>
      <trkpt lat="43.67306" lon="1.45304">
        <ele>134.330226</ele>
        <time>2023-09-17T08:58:12.424Z</time>
      </trkpt>
      <trkpt lat="43.67312" lon="1.45301">
        <ele>134.335528</ele>
        <time>2023-09-17T08:58:13.424Z</time>
      </trkpt>
      <trkpt lat="43.67318" lon="1.453">
        <ele>134.341426</ele>
        <time>2023-09-17T08:58:14.424Z</time>
      </trkpt>
      <trkpt lat="43.67324" lon="1.45299">
        <ele>134.347139</ele>
        <time>2023-09-17T08:58:15.424Z</time>
      </trkpt>
      <trkpt lat="43.67324" lon="1.45299">
        <ele>134.347139</ele>
        <time>2023-09-17T08:58:15.424Z</time>
      </trkpt>
      <trkpt lat="43.67331" lon="1.45299">
        <ele>134.352581</ele>
        <time>2023-09-17T08:58:16.424Z</time>
      </trkpt>
      <trkpt lat="43.67331" lon="1.45299">
        <ele>134.352581</ele>
        <time>2023-09-17T08:58:16.424Z</time>
      </trkpt>
      <trkpt lat="43.67337" lon="1.45301">
        <ele>134.358416</ele>
        <time>2023-09-17T08:58:17.424Z</time>
      </trkpt>
      <trkpt lat="43.67344" lon="1.45302">
        <ele>134.364302</ele>
        <time>2023-09-17T08:58:18.424Z</time>
      </trkpt>
      <trkpt lat="43.6735" lon="1.45304">
        <ele>134.369896</ele>
        <time>2023-09-17T08:58:19.424Z</time>
      </trkpt>
      <trkpt lat="43.67356" lon="1.45307">
        <ele>134.375835</ele>
        <time>2023-09-17T08:58:20.424Z</time>
      </trkpt>
      <trkpt lat="43.67362" lon="1.45308">
        <ele>134.38136</ele>
        <time>2023-09-17T08:58:21.424Z</time>
      </trkpt>
      <trkpt lat="43.67369" lon="1.45309">
        <ele>134.387156</ele>
        <time>2023-09-17T08:58:22.424Z</time>
      </trkpt>
      <trkpt lat="43.67369" lon="1.45309">
        <ele>134.387156</ele>
        <time>2023-09-17T08:58:22.424Z</time>
      </trkpt>
      <trkpt lat="43.67375" lon="1.45308">
        <ele>134.392594</ele>
        <time>2023-09-17T08:58:23.424Z</time>
      </trkpt>
      <trkpt lat="43.67381" lon="1.45306">
        <ele>134.39822</ele>
        <time>2023-09-17T08:58:24.424Z</time>
      </trkpt>
      <trkpt lat="43.67387" lon="1.45303">
        <ele>134.40396</ele>
        <time>2023-09-17T08:58:25.424Z</time>
      </trkpt>
      <trkpt lat="43.67393" lon="1.453">
        <ele>134.409836</ele>
        <time>2023-09-17T08:58:26.424Z</time>
      </trkpt>
      <trkpt lat="43.67393" lon="1.453">
        <ele>134.409836</ele>
        <time>2023-09-17T08:58:26.424Z</time>
      </trkpt>
      <trkpt lat="43.67399" lon="1.45296">
        <ele>134.41536</ele>
        <time>2023-09-17T08:58:27.424Z</time>
      </trkpt>
      <trkpt lat="43.67405" lon="1.45292">
        <ele>134.421099</ele>
        <time>2023-09-17T08:58:28.424Z</time>
      </trkpt>
      <trkpt lat="43.67411" lon="1.45288">
        <ele>134.427322</ele>
        <time>2023-09-17T08:58:29.424Z</time>
      </trkpt>
      <trkpt lat="43.67411" lon="1.45288">
        <ele>134.427322</ele>
        <time>2023-09-17T08:58:29.424Z</time>
      </trkpt>
      <trkpt lat="43.67417" lon="1.45285">
        <ele>134.433033</ele>
        <time>2023-09-17T08:58:30.424Z</time>
      </trkpt>
      <trkpt lat="43.67423" lon="1.45283">
        <ele>134.438251</ele>
        <time>2023-09-17T08:58:31.424Z</time>
      </trkpt>
      <trkpt lat="43.67429" lon="1.45283">
        <ele>134.443685</ele>
        <time>2023-09-17T08:58:32.424Z</time>
      </trkpt>
      <trkpt lat="43.67429" lon="1.45283">
        <ele>134.443685</ele>
        <time>2023-09-17T08:58:32.424Z</time>
      </trkpt>
      <trkpt lat="43.67434" lon="1.45288">
        <ele>134.449078</ele>
        <time>2023-09-17T08:58:33.424Z</time>
      </trkpt>
      <trkpt lat="43.67439" lon="1.45295">
        <ele>134.452066</ele>
        <time>2023-09-17T08:58:34.424Z</time>
      </trkpt>
      <trkpt lat="43.67439" lon="1.45295">
        <ele>134.452066</ele>
        <time>2023-09-17T08:58:34.424Z</time>
      </trkpt>
      <trkpt lat="43.67442" lon="1.45303">
        <ele>134.455013</ele>
        <time>2023-09-17T08:58:35.424Z</time>
      </trkpt>
      <trkpt lat="43.67445" lon="1.45312">
        <ele>134.458053</ele>
        <time>2023-09-17T08:58:36.424Z</time>
      </trkpt>
      <trkpt lat="43.67447" lon="1.4532">
        <ele>134.460824</ele>
        <time>2023-09-17T08:58:37.424Z</time>
      </trkpt>
      <trkpt lat="43.67449" lon="1.45328">
        <ele>134.463536</ele>
        <time>2023-09-17T08:58:38.424Z</time>
      </trkpt>
      <trkpt lat="43.67449" lon="1.45328">
        <ele>134.463536</ele>
        <time>2023-09-17T08:58:38.424Z</time>
      </trkpt>
      <trkpt lat="43.67452" lon="1.45336">
        <ele>134.466307</ele>
        <time>2023-09-17T08:58:39.424Z</time>
      </trkpt>
      <trkpt lat="43.67454" lon="1.45344">
        <ele>134.469013</ele>
        <time>2023-09-17T08:58:40.424Z</time>
      </trkpt>
      <trkpt lat="43.67454" lon="1.45344">
        <ele>134.469013</ele>
        <time>2023-09-17T08:58:40.424Z</time>
      </trkpt>
      <trkpt lat="43.67457" lon="1.45351">
        <ele>134.471738</ele>
        <time>2023-09-17T08:58:41.424Z</time>
      </trkpt>
      <trkpt lat="43.6746" lon="1.45359">
        <ele>134.474572</ele>
        <time>2023-09-17T08:58:42.424Z</time>
      </trkpt>
      <trkpt lat="43.67463" lon="1.45366">
        <ele>134.477245</ele>
        <time>2023-09-17T08:58:43.424Z</time>
      </trkpt>
      <trkpt lat="43.67463" lon="1.45366">
        <ele>134.477245</ele>
        <time>2023-09-17T08:58:43.424Z</time>
      </trkpt>
      <trkpt lat="43.67466" lon="1.45372">
        <ele>134.479593</ele>
        <time>2023-09-17T08:58:44.424Z</time>
      </trkpt>
      <trkpt lat="43.67466" lon="1.45372">
        <ele>134.479593</ele>
        <time>2023-09-17T08:58:44.424Z</time>
      </trkpt>
      <trkpt lat="43.6747" lon="1.45378">
        <ele>134.482207</ele>
        <time>2023-09-17T08:58:45.424Z</time>
      </trkpt>
      <trkpt lat="43.67474" lon="1.45384">
        <ele>134.484821</ele>
        <time>2023-09-17T08:58:46.424Z</time>
      </trkpt>
      <trkpt lat="43.67474" lon="1.45384">
        <ele>134.484821</ele>
        <time>2023-09-17T08:58:46.424Z</time>
      </trkpt>
      <trkpt lat="43.67478" lon="1.4539">
        <ele>134.487289</ele>
        <time>2023-09-17T08:58:47.424Z</time>
      </trkpt>
      <trkpt lat="43.67482" lon="1.45395">
        <ele>134.48975</ele>
        <time>2023-09-17T08:58:48.424Z</time>
      </trkpt>
      <trkpt lat="43.67487" lon="1.45399">
        <ele>134.492272</ele>
        <time>2023-09-17T08:58:49.424Z</time>
      </trkpt>
      <trkpt lat="43.67487" lon="1.45399">
        <ele>134.492272</ele>
        <time>2023-09-17T08:58:49.424Z</time>
      </trkpt>
      <trkpt lat="43.67493" lon="1.454">
        <ele>134.494697</ele>
        <time>2023-09-17T08:58:50.424Z</time>
      </trkpt>
      <trkpt lat="43.67498" lon="1.45399">
        <ele>134.497235</ele>
        <time>2023-09-17T08:58:51.424Z</time>
      </trkpt>
      <trkpt lat="43.67504" lon="1.45396">
        <ele>134.499944</ele>
        <time>2023-09-17T08:58:52.424Z</time>
      </trkpt>
      <trkpt lat="43.6751" lon="1.45392">
        <ele>134.502656</ele>
        <time>2023-09-17T08:58:53.424Z</time>
      </trkpt>
      <trkpt lat="43.67515" lon="1.45387">
        <ele>134.505394</ele>
        <time>2023-09-17T08:58:54.424Z</time>
      </trkpt>
      <trkpt lat="43.6752" lon="1.45383">
        <ele>134.508184</ele>
        <time>2023-09-17T08:58:55.424Z</time>
      </trkpt>
      <trkpt lat="43.67526" lon="1.45378">
        <ele>134.51116</ele>
        <time>2023-09-17T08:58:56.424Z</time>
      </trkpt>
      <trkpt lat="43.67532" lon="1.45373">
        <ele>134.514066</ele>
        <time>2023-09-17T08:58:57.424Z</time>
      </trkpt>
      <trkpt lat="43.67537" lon="1.45369">
        <ele>134.516971</ele>
        <time>2023-09-17T08:58:58.424Z</time>
      </trkpt>
      <trkpt lat="43.67543" lon="1.45364">
        <ele>134.519861</ele>
        <time>2023-09-17T08:58:59.424Z</time>
      </trkpt>
      <trkpt lat="43.67543" lon="1.45364">
        <ele>134.519861</ele>
        <time>2023-09-17T08:58:59.424Z</time>
      </trkpt>
      <trkpt lat="43.67548" lon="1.4536">
        <ele>134.522437</ele>
        <time>2023-09-17T08:59:00.424Z</time>
      </trkpt>
      <trkpt lat="43.67553" lon="1.45355">
        <ele>134.525175</ele>
        <time>2023-09-17T08:59:01.424Z</time>
      </trkpt>
      <trkpt lat="43.67559" lon="1.45351">
        <ele>134.527082</ele>
        <time>2023-09-17T08:59:02.424Z</time>
      </trkpt>
      <trkpt lat="43.67559" lon="1.45351">
        <ele>134.527082</ele>
        <time>2023-09-17T08:59:02.424Z</time>
      </trkpt>
      <trkpt lat="43.67564" lon="1.45347">
        <ele>134.508986</ele>
        <time>2023-09-17T08:59:03.424Z</time>
      </trkpt>
      <trkpt lat="43.6757" lon="1.45343">
        <ele>134.491452</ele>
        <time>2023-09-17T08:59:04.424Z</time>
      </trkpt>
      <trkpt lat="43.6757" lon="1.45343">
        <ele>134.491452</ele>
        <time>2023-09-17T08:59:04.424Z</time>
      </trkpt>
      <trkpt lat="43.67576" lon="1.45339">
        <ele>134.472815</ele>
        <time>2023-09-17T08:59:05.424Z</time>
      </trkpt>
      <trkpt lat="43.67581" lon="1.45336">
        <ele>134.455848</ele>
        <time>2023-09-17T08:59:06.424Z</time>
      </trkpt>
      <trkpt lat="43.67581" lon="1.45336">
        <ele>134.455848</ele>
        <time>2023-09-17T08:59:06.424Z</time>
      </trkpt>
      <trkpt lat="43.67586" lon="1.45332">
        <ele>134.439054</ele>
        <time>2023-09-17T08:59:07.424Z</time>
      </trkpt>
      <trkpt lat="43.67592" lon="1.45329">
        <ele>134.421145</ele>
        <time>2023-09-17T08:59:08.424Z</time>
      </trkpt>
      <trkpt lat="43.67592" lon="1.45329">
        <ele>134.421145</ele>
        <time>2023-09-17T08:59:08.424Z</time>
      </trkpt>
      <trkpt lat="43.67598" lon="1.45327">
        <ele>134.40378</ele>
        <time>2023-09-17T08:59:09.424Z</time>
      </trkpt>
      <trkpt lat="43.67598" lon="1.45327">
        <ele>134.40378</ele>
        <time>2023-09-17T08:59:09.424Z</time>
      </trkpt>
      <trkpt lat="43.67603" lon="1.45325">
        <ele>134.386802</ele>
        <time>2023-09-17T08:59:10.424Z</time>
      </trkpt>
      <trkpt lat="43.67609" lon="1.45324">
        <ele>134.370026</ele>
        <time>2023-09-17T08:59:11.424Z</time>
      </trkpt>
      <trkpt lat="43.67615" lon="1.45323">
        <ele>134.352233</ele>
        <time>2023-09-17T08:59:12.424Z</time>
      </trkpt>
      <trkpt lat="43.67621" lon="1.45322">
        <ele>134.334475</ele>
        <time>2023-09-17T08:59:13.424Z</time>
      </trkpt>
      <trkpt lat="43.67621" lon="1.45322">
        <ele>134.334475</ele>
        <time>2023-09-17T08:59:13.424Z</time>
      </trkpt>
      <trkpt lat="43.67627" lon="1.45322">
        <ele>134.316761</ele>
        <time>2023-09-17T08:59:14.424Z</time>
      </trkpt>
      <trkpt lat="43.67627" lon="1.45322">
        <ele>134.316761</ele>
        <time>2023-09-17T08:59:14.424Z</time>
      </trkpt>
      <trkpt lat="43.67634" lon="1.45322">
        <ele>134.296724</ele>
        <time>2023-09-17T08:59:15.424Z</time>
      </trkpt>
      <trkpt lat="43.6764" lon="1.45322">
        <ele>134.279005</ele>
        <time>2023-09-17T08:59:16.424Z</time>
      </trkpt>
      <trkpt lat="43.67646" lon="1.45322">
        <ele>134.26129</ele>
        <time>2023-09-17T08:59:17.424Z</time>
      </trkpt>
      <trkpt lat="43.67653" lon="1.45322">
        <ele>134.242397</ele>
        <time>2023-09-17T08:59:18.424Z</time>
      </trkpt>
      <trkpt lat="43.67653" lon="1.45322">
        <ele>134.242397</ele>
        <time>2023-09-17T08:59:18.424Z</time>
      </trkpt>
      <trkpt lat="43.6766" lon="1.45323">
        <ele>134.22229</ele>
        <time>2023-09-17T08:59:19.424Z</time>
      </trkpt>
      <trkpt lat="43.67666" lon="1.45324">
        <ele>134.203609</ele>
        <time>2023-09-17T08:59:20.424Z</time>
      </trkpt>
      <trkpt lat="43.67672" lon="1.45325">
        <ele>134.185816</ele>
        <time>2023-09-17T08:59:20.424Z</time>
      </trkpt>
      <trkpt lat="43.67679" lon="1.45326">
        <ele>134.165647</ele>
        <time>2023-09-17T08:59:22.424Z</time>
      </trkpt>
      <trkpt lat="43.67686" lon="1.45328">
        <ele>134.146437</ele>
        <time>2023-09-17T08:59:23.424Z</time>
      </trkpt>
      <trkpt lat="43.67686" lon="1.45328">
        <ele>134.146437</ele>
        <time>2023-09-17T08:59:23.424Z</time>
      </trkpt>
      <trkpt lat="43.67692" lon="1.4533">
        <ele>134.127145</ele>
        <time>2023-09-17T08:59:24.424Z</time>
      </trkpt>
      <trkpt lat="43.67698" lon="1.45332">
        <ele>134.108987</ele>
        <time>2023-09-17T08:59:24.424Z</time>
      </trkpt>
      <trkpt lat="43.67698" lon="1.45332">
        <ele>134.108987</ele>
        <time>2023-09-17T08:59:24.424Z</time>
      </trkpt>
      <trkpt lat="43.67705" lon="1.45334">
        <ele>134.089338</ele>
        <time>2023-09-17T08:59:26.424Z</time>
      </trkpt>
      <trkpt lat="43.6771" lon="1.45337">
        <ele>134.073008</ele>
        <time>2023-09-17T08:59:27.424Z</time>
      </trkpt>
      <trkpt lat="43.67716" lon="1.4534">
        <ele>134.053909</ele>
        <time>2023-09-17T08:59:28.424Z</time>
      </trkpt>
      <trkpt lat="43.67716" lon="1.4534">
        <ele>134.053909</ele>
        <time>2023-09-17T08:59:28.424Z</time>
      </trkpt>
      <trkpt lat="43.67722" lon="1.45344">
        <ele>134.035252</ele>
        <time>2023-09-17T08:59:28.424Z</time>
      </trkpt>
      <trkpt lat="43.67727" lon="1.45348">
        <ele>134.017362</ele>
        <time>2023-09-17T08:59:30.424Z</time>
      </trkpt>
      <trkpt lat="43.67727" lon="1.45348">
        <ele>134.017362</ele>
        <time>2023-09-17T08:59:30.424Z</time>
      </trkpt>
      <trkpt lat="43.67733" lon="1.45352">
        <ele>134.016958</ele>
        <time>2023-09-17T08:59:31.424Z</time>
      </trkpt>
      <trkpt lat="43.67738" lon="1.45357">
        <ele>134.049412</ele>
        <time>2023-09-17T08:59:32.424Z</time>
      </trkpt>
      <trkpt lat="43.67743" lon="1.45361">
        <ele>134.085858</ele>
        <time>2023-09-17T08:59:33.424Z</time>
      </trkpt>
      <trkpt lat="43.67748" lon="1.45365">
        <ele>134.116196</ele>
        <time>2023-09-17T08:59:34.424Z</time>
      </trkpt>
      <trkpt lat="43.67748" lon="1.45365">
        <ele>134.116196</ele>
        <time>2023-09-17T08:59:34.424Z</time>
      </trkpt>
      <trkpt lat="43.67753" lon="1.45369">
        <ele>134.150102</ele>
        <time>2023-09-17T08:59:35.424Z</time>
      </trkpt>
      <trkpt lat="43.67753" lon="1.45369">
        <ele>134.150102</ele>
        <time>2023-09-17T08:59:35.424Z</time>
      </trkpt>
      <trkpt lat="43.67758" lon="1.45373">
        <ele>134.182556</ele>
        <time>2023-09-17T08:59:36.424Z</time>
      </trkpt>
      <trkpt lat="43.67764" lon="1.45377">
        <ele>134.216267</ele>
        <time>2023-09-17T08:59:37.424Z</time>
      </trkpt>
      <trkpt lat="43.67769" lon="1.45381">
        <ele>134.248517</ele>
        <time>2023-09-17T08:59:38.424Z</time>
      </trkpt>
      <trkpt lat="43.67769" lon="1.45381">
        <ele>134.248517</ele>
        <time>2023-09-17T08:59:38.424Z</time>
      </trkpt>
      <trkpt lat="43.67774" lon="1.45385">
        <ele>134.282423</ele>
        <time>2023-09-17T08:59:39.424Z</time>
      </trkpt>
      <trkpt lat="43.67779" lon="1.45389">
        <ele>134.316435</ele>
        <time>2023-09-17T08:59:40.424Z</time>
      </trkpt>
      <trkpt lat="43.67785" lon="1.45393">
        <ele>134.350341</ele>
        <time>2023-09-17T08:59:41.424Z</time>
      </trkpt>
      <trkpt lat="43.6779" lon="1.45398">
        <ele>134.384648</ele>
        <time>2023-09-17T08:59:42.424Z</time>
      </trkpt>
      <trkpt lat="43.67795" lon="1.45402">
        <ele>134.419438</ele>
        <time>2023-09-17T08:59:43.424Z</time>
      </trkpt>
      <trkpt lat="43.67801" lon="1.45406">
        <ele>134.455689</ele>
        <time>2023-09-17T08:59:44.424Z</time>
      </trkpt>
      <trkpt lat="43.67801" lon="1.45406">
        <ele>134.455689</ele>
        <time>2023-09-17T08:59:44.424Z</time>
      </trkpt>
      <trkpt lat="43.67806" lon="1.4541">
        <ele>134.489794</ele>
        <time>2023-09-17T08:59:45.424Z</time>
      </trkpt>
      <trkpt lat="43.67812" lon="1.45415">
        <ele>134.527123</ele>
        <time>2023-09-17T08:59:46.424Z</time>
      </trkpt>
      <trkpt lat="43.67818" lon="1.45419">
        <ele>134.563569</ele>
        <time>2023-09-17T08:59:47.424Z</time>
      </trkpt>
      <trkpt lat="43.67818" lon="1.45419">
        <ele>134.563569</ele>
        <time>2023-09-17T08:59:47.424Z</time>
      </trkpt>
      <trkpt lat="43.67823" lon="1.45424">
        <ele>134.600416</ele>
        <time>2023-09-17T08:59:48.424Z</time>
      </trkpt>
      <trkpt lat="43.67829" lon="1.45428">
        <ele>134.635205</ele>
        <time>2023-09-17T08:59:49.424Z</time>
      </trkpt>
      <trkpt lat="43.67834" lon="1.45433">
        <ele>134.668046</ele>
        <time>2023-09-17T08:59:50.424Z</time>
      </trkpt>
      <trkpt lat="43.67834" lon="1.45433">
        <ele>134.668046</ele>
        <time>2023-09-17T08:59:50.424Z</time>
      </trkpt>
      <trkpt lat="43.67838" lon="1.45438">
        <ele>134.69818</ele>
        <time>2023-09-17T08:59:51.424Z</time>
      </trkpt>
      <trkpt lat="43.6784" lon="1.45444">
        <ele>134.725355</ele>
        <time>2023-09-17T08:59:52.424Z</time>
      </trkpt>
      <trkpt lat="43.6784" lon="1.45444">
        <ele>134.725355</ele>
        <time>2023-09-17T08:59:52.424Z</time>
      </trkpt>
      <trkpt lat="43.67843" lon="1.4545">
        <ele>134.754573</ele>
        <time>2023-09-17T08:59:53.424Z</time>
      </trkpt>
      <trkpt lat="43.67846" lon="1.45455">
        <ele>134.779284</ele>
        <time>2023-09-17T08:59:54.424Z</time>
      </trkpt>
      <trkpt lat="43.67846" lon="1.45455">
        <ele>134.779284</ele>
        <time>2023-09-17T08:59:54.424Z</time>
      </trkpt>
      <trkpt lat="43.67849" lon="1.45456">
        <ele>134.801046</ele>
        <time>2023-09-17T08:59:55.424Z</time>
      </trkpt>
      <trkpt lat="43.67853" lon="1.45454">
        <ele>134.822189</ele>
        <time>2023-09-17T08:59:56.424Z</time>
      </trkpt>
      <trkpt lat="43.67853" lon="1.45454">
        <ele>134.822189</ele>
        <time>2023-09-17T08:59:56.424Z</time>
      </trkpt>
      <trkpt lat="43.67858" lon="1.4545">
        <ele>134.853554</ele>
        <time>2023-09-17T08:59:57.424Z</time>
      </trkpt>
      <trkpt lat="43.67863" lon="1.45445">
        <ele>134.889394</ele>
        <time>2023-09-17T08:59:58.424Z</time>
      </trkpt>
      <trkpt lat="43.67863" lon="1.45445">
        <ele>134.889394</ele>
        <time>2023-09-17T08:59:58.424Z</time>
      </trkpt>
      <trkpt lat="43.67868" lon="1.45441">
        <ele>134.920622</ele>
        <time>2023-09-17T08:59:59.424Z</time>
      </trkpt>
      <trkpt lat="43.67873" lon="1.45436">
        <ele>134.954148</ele>
        <time>2023-09-17T09:00:00.424Z</time>
      </trkpt>
      <trkpt lat="43.67873" lon="1.45436">
        <ele>134.954148</ele>
        <time>2023-09-17T09:00:00.424Z</time>
      </trkpt>
      <trkpt lat="43.67878" lon="1.45431">
        <ele>134.987902</ele>
        <time>2023-09-17T09:00:01.424Z</time>
      </trkpt>
      <trkpt lat="43.67883" lon="1.45427">
        <ele>135.024804</ele>
        <time>2023-09-17T09:00:02.424Z</time>
      </trkpt>
      <trkpt lat="43.67883" lon="1.45427">
        <ele>135.024804</ele>
        <time>2023-09-17T09:00:02.424Z</time>
      </trkpt>
      <trkpt lat="43.67888" lon="1.45422">
        <ele>135.071982</ele>
        <time>2023-09-17T09:00:03.424Z</time>
      </trkpt>
      <trkpt lat="43.67893" lon="1.45417">
        <ele>135.113393</ele>
        <time>2023-09-17T09:00:04.424Z</time>
      </trkpt>
      <trkpt lat="43.67898" lon="1.45413">
        <ele>135.1591</ele>
        <time>2023-09-17T09:00:05.424Z</time>
      </trkpt>
      <trkpt lat="43.67904" lon="1.45408">
        <ele>135.207075</ele>
        <time>2023-09-17T09:00:06.424Z</time>
      </trkpt>
      <trkpt lat="43.67909" lon="1.45405">
        <ele>135.251604</ele>
        <time>2023-09-17T09:00:07.424Z</time>
      </trkpt>
      <trkpt lat="43.67914" lon="1.45401">
        <ele>135.295725</ele>
        <time>2023-09-17T09:00:08.424Z</time>
      </trkpt>
      <trkpt lat="43.6792" lon="1.45397">
        <ele>135.34223</ele>
        <time>2023-09-17T09:00:09.424Z</time>
      </trkpt>
      <trkpt lat="43.6792" lon="1.45397">
        <ele>135.34223</ele>
        <time>2023-09-17T09:00:09.424Z</time>
      </trkpt>
      <trkpt lat="43.67925" lon="1.45394">
        <ele>135.382946</ele>
        <time>2023-09-17T09:00:10.424Z</time>
      </trkpt>
      <trkpt lat="43.6793" lon="1.4539">
        <ele>135.425447</ele>
        <time>2023-09-17T09:00:11.424Z</time>
      </trkpt>
      <trkpt lat="43.67936" lon="1.45387">
        <ele>135.469504</ele>
        <time>2023-09-17T09:00:12.424Z</time>
      </trkpt>
      <trkpt lat="43.67936" lon="1.45387">
        <ele>135.469504</ele>
        <time>2023-09-17T09:00:12.424Z</time>
      </trkpt>
      <trkpt lat="43.67941" lon="1.45384">
        <ele>135.509104</ele>
        <time>2023-09-17T09:00:13.424Z</time>
      </trkpt>
      <trkpt lat="43.67946" lon="1.45381">
        <ele>135.554315</ele>
        <time>2023-09-17T09:00:14.424Z</time>
      </trkpt>
      <trkpt lat="43.67952" lon="1.45378">
        <ele>135.599462</ele>
        <time>2023-09-17T09:00:15.424Z</time>
      </trkpt>
      <trkpt lat="43.67958" lon="1.45375">
        <ele>135.647223</ele>
        <time>2023-09-17T09:00:16.424Z</time>
      </trkpt>
      <trkpt lat="43.67964" lon="1.45372">
        <ele>135.692236</ele>
        <time>2023-09-17T09:00:17.424Z</time>
      </trkpt>
      <trkpt lat="43.6797" lon="1.45368">
        <ele>135.737857</ele>
        <time>2023-09-17T09:00:18.424Z</time>
      </trkpt>
      <trkpt lat="43.67975" lon="1.45364">
        <ele>135.782231</ele>
        <time>2023-09-17T09:00:19.424Z</time>
      </trkpt>
      <trkpt lat="43.6798" lon="1.4536">
        <ele>135.828843</ele>
        <time>2023-09-17T09:00:20.424Z</time>
      </trkpt>
      <trkpt lat="43.67985" lon="1.45354">
        <ele>135.874821</ele>
        <time>2023-09-17T09:00:21.424Z</time>
      </trkpt>
      <trkpt lat="43.6799" lon="1.4535">
        <ele>135.917471</ele>
        <time>2023-09-17T09:00:22.424Z</time>
      </trkpt>
      <trkpt lat="43.67995" lon="1.45346">
        <ele>135.959401</ele>
        <time>2023-09-17T09:00:23.424Z</time>
      </trkpt>
      <trkpt lat="43.68" lon="1.45342">
        <ele>136.004032</ele>
        <time>2023-09-17T09:00:24.424Z</time>
      </trkpt>
      <trkpt lat="43.68" lon="1.45342">
        <ele>136.004032</ele>
        <time>2023-09-17T09:00:24.424Z</time>
      </trkpt>
      <trkpt lat="43.68006" lon="1.45339">
        <ele>136.048089</ele>
        <time>2023-09-17T09:00:25.424Z</time>
      </trkpt>
      <trkpt lat="43.68011" lon="1.45335">
        <ele>136.091963</ele>
        <time>2023-09-17T09:00:26.424Z</time>
      </trkpt>
      <trkpt lat="43.68016" lon="1.45331">
        <ele>136.133893</ele>
        <time>2023-09-17T09:00:27.424Z</time>
      </trkpt>
      <trkpt lat="43.68021" lon="1.45327">
        <ele>136.17518</ele>
        <time>2023-09-17T09:00:28.424Z</time>
      </trkpt>
      <trkpt lat="43.68026" lon="1.45323">
        <ele>136.217632</ele>
        <time>2023-09-17T09:00:29.424Z</time>
      </trkpt>
      <trkpt lat="43.68031" lon="1.45319">
        <ele>136.262263</ele>
        <time>2023-09-17T09:00:30.424Z</time>
      </trkpt>
      <trkpt lat="43.68036" lon="1.45315">
        <ele>136.301917</ele>
        <time>2023-09-17T09:00:31.424Z</time>
      </trkpt>
      <trkpt lat="43.68036" lon="1.45315">
        <ele>136.301917</ele>
        <time>2023-09-17T09:00:31.424Z</time>
      </trkpt>
      <trkpt lat="43.68041" lon="1.45311">
        <ele>136.336847</ele>
        <time>2023-09-17T09:00:32.424Z</time>
      </trkpt>
      <trkpt lat="43.68046" lon="1.45307">
        <ele>136.355236</ele>
        <time>2023-09-17T09:00:33.424Z</time>
      </trkpt>
      <trkpt lat="43.68046" lon="1.45307">
        <ele>136.355236</ele>
        <time>2023-09-17T09:00:33.424Z</time>
      </trkpt>
      <trkpt lat="43.68051" lon="1.45302">
        <ele>136.374771</ele>
        <time>2023-09-17T09:00:34.424Z</time>
      </trkpt>
      <trkpt lat="43.68057" lon="1.45297">
        <ele>136.394333</ele>
        <time>2023-09-17T09:00:35.424Z</time>
      </trkpt>
      <trkpt lat="43.68057" lon="1.45297">
        <ele>136.394333</ele>
        <time>2023-09-17T09:00:35.424Z</time>
      </trkpt>
      <trkpt lat="43.68062" lon="1.45292">
        <ele>136.41424</ele>
        <time>2023-09-17T09:00:36.424Z</time>
      </trkpt>
      <trkpt lat="43.68067" lon="1.45288">
        <ele>136.433919</ele>
        <time>2023-09-17T09:00:37.424Z</time>
      </trkpt>
      <trkpt lat="43.68067" lon="1.45288">
        <ele>136.433919</ele>
        <time>2023-09-17T09:00:37.424Z</time>
      </trkpt>
      <trkpt lat="43.68073" lon="1.45283">
        <ele>136.453334</ele>
        <time>2023-09-17T09:00:38.424Z</time>
      </trkpt>
      <trkpt lat="43.68078" lon="1.45279">
        <ele>136.472749</ele>
        <time>2023-09-17T09:00:39.424Z</time>
      </trkpt>
      <trkpt lat="43.68083" lon="1.45274">
        <ele>136.492667</ele>
        <time>2023-09-17T09:00:40.424Z</time>
      </trkpt>
      <trkpt lat="43.68088" lon="1.45269">
        <ele>136.510794</ele>
        <time>2023-09-17T09:00:41.424Z</time>
      </trkpt>
      <trkpt lat="43.68088" lon="1.45269">
        <ele>136.510794</ele>
        <time>2023-09-17T09:00:41.424Z</time>
      </trkpt>
      <trkpt lat="43.68093" lon="1.45265">
        <ele>136.529183</ele>
        <time>2023-09-17T09:00:42.424Z</time>
      </trkpt>
      <trkpt lat="43.68098" lon="1.4526">
        <ele>136.548598</ele>
        <time>2023-09-17T09:00:43.424Z</time>
      </trkpt>
      <trkpt lat="43.68103" lon="1.45256">
        <ele>136.565952</ele>
        <time>2023-09-17T09:00:44.424Z</time>
      </trkpt>
      <trkpt lat="43.68108" lon="1.45252">
        <ele>136.584462</ele>
        <time>2023-09-17T09:00:45.424Z</time>
      </trkpt>
      <trkpt lat="43.68108" lon="1.45252">
        <ele>136.584462</ele>
        <time>2023-09-17T09:00:45.424Z</time>
      </trkpt>
      <trkpt lat="43.68113" lon="1.45247">
        <ele>136.60259</ele>
        <time>2023-09-17T09:00:46.424Z</time>
      </trkpt>
      <trkpt lat="43.68117" lon="1.45243">
        <ele>136.618804</ele>
        <time>2023-09-17T09:00:47.424Z</time>
      </trkpt>
      <trkpt lat="43.68122" lon="1.45239">
        <ele>136.637073</ele>
        <time>2023-09-17T09:00:48.424Z</time>
      </trkpt>
      <trkpt lat="43.68127" lon="1.45234">
        <ele>136.656488</ele>
        <time>2023-09-17T09:00:49.424Z</time>
      </trkpt>
      <trkpt lat="43.68132" lon="1.4523">
        <ele>136.673348</ele>
        <time>2023-09-17T09:00:50.424Z</time>
      </trkpt>
      <trkpt lat="43.68137" lon="1.45226">
        <ele>136.690702</ele>
        <time>2023-09-17T09:00:51.424Z</time>
      </trkpt>
      <trkpt lat="43.68142" lon="1.45221">
        <ele>136.709588</ele>
        <time>2023-09-17T09:00:52.424Z</time>
      </trkpt>
      <trkpt lat="43.68146" lon="1.45216">
        <ele>136.727085</ele>
        <time>2023-09-17T09:00:53.424Z</time>
      </trkpt>
      <trkpt lat="43.68151" lon="1.45211">
        <ele>136.746497</ele>
        <time>2023-09-17T09:00:54.424Z</time>
      </trkpt>
      <trkpt lat="43.68156" lon="1.45207">
        <ele>136.765562</ele>
        <time>2023-09-17T09:00:55.424Z</time>
      </trkpt>
      <trkpt lat="43.68161" lon="1.45204">
        <ele>136.779933</ele>
        <time>2023-09-17T09:00:56.424Z</time>
      </trkpt>
      <trkpt lat="43.68164" lon="1.45206">
        <ele>136.792325</ele>
        <time>2023-09-17T09:00:57.424Z</time>
      </trkpt>
      <trkpt lat="43.68168" lon="1.45211">
        <ele>136.807795</ele>
        <time>2023-09-17T09:00:58.424Z</time>
      </trkpt>
      <trkpt lat="43.68168" lon="1.45211">
        <ele>136.807795</ele>
        <time>2023-09-17T09:00:58.424Z</time>
      </trkpt>
      <trkpt lat="43.6817" lon="1.45219">
        <ele>136.826488</ele>
        <time>2023-09-17T09:00:59.424Z</time>
      </trkpt>
      <trkpt lat="43.68171" lon="1.45226">
        <ele>136.844381</ele>
        <time>2023-09-17T09:01:00.424Z</time>
      </trkpt>
      <trkpt lat="43.68171" lon="1.45226">
        <ele>136.844381</ele>
        <time>2023-09-17T09:01:00.424Z</time>
      </trkpt>
      <trkpt lat="43.68173" lon="1.45235">
        <ele>136.86413</ele>
        <time>2023-09-17T09:01:01.424Z</time>
      </trkpt>
      <trkpt lat="43.68174" lon="1.45242">
        <ele>136.881146</ele>
        <time>2023-09-17T09:01:02.424Z</time>
      </trkpt>
      <trkpt lat="43.68174" lon="1.45242">
        <ele>136.881146</ele>
        <time>2023-09-17T09:01:02.424Z</time>
      </trkpt>
      <trkpt lat="43.68176" lon="1.4525">
        <ele>136.898823</ele>
        <time>2023-09-17T09:01:03.424Z</time>
      </trkpt>
      <trkpt lat="43.68178" lon="1.45258">
        <ele>136.916581</ele>
        <time>2023-09-17T09:01:04.424Z</time>
      </trkpt>
      <trkpt lat="43.6818" lon="1.45265">
        <ele>136.932954</ele>
        <time>2023-09-17T09:01:04.424Z</time>
      </trkpt>
      <trkpt lat="43.68181" lon="1.45272">
        <ele>136.949119</ele>
        <time>2023-09-17T09:01:06.424Z</time>
      </trkpt>
      <trkpt lat="43.68183" lon="1.45279">
        <ele>136.964547</ele>
        <time>2023-09-17T09:01:07.424Z</time>
      </trkpt>
      <trkpt lat="43.68185" lon="1.45288">
        <ele>136.98484</ele>
        <time>2023-09-17T09:01:08.424Z</time>
      </trkpt>
      <trkpt lat="43.68185" lon="1.45288">
        <ele>136.98484</ele>
        <time>2023-09-17T09:01:08.424Z</time>
      </trkpt>
      <trkpt lat="43.68187" lon="1.45295">
        <ele>137.00148</ele>
        <time>2023-09-17T09:01:09.424Z</time>
      </trkpt>
      <trkpt lat="43.68189" lon="1.45302">
        <ele>137.018625</ele>
        <time>2023-09-17T09:01:10.424Z</time>
      </trkpt>
      <trkpt lat="43.68189" lon="1.45302">
        <ele>137.018625</ele>
        <time>2023-09-17T09:01:10.424Z</time>
      </trkpt>
      <trkpt lat="43.68191" lon="1.4531">
        <ele>137.036792</ele>
        <time>2023-09-17T09:01:11.424Z</time>
      </trkpt>
      <trkpt lat="43.68193" lon="1.45318">
        <ele>137.053734</ele>
        <time>2023-09-17T09:01:12.424Z</time>
      </trkpt>
      <trkpt lat="43.68193" lon="1.45318">
        <ele>137.053734</ele>
        <time>2023-09-17T09:01:12.424Z</time>
      </trkpt>
      <trkpt lat="43.68195" lon="1.45325">
        <ele>137.070675</ele>
        <time>2023-09-17T09:01:12.424Z</time>
      </trkpt>
      <trkpt lat="43.68195" lon="1.45325">
        <ele>137.070675</ele>
        <time>2023-09-17T09:01:12.424Z</time>
      </trkpt>
      <trkpt lat="43.68197" lon="1.45333">
        <ele>137.088024</ele>
        <time>2023-09-17T09:01:14.424Z</time>
      </trkpt>
      <trkpt lat="43.68198" lon="1.4534">
        <ele>137.104155</ele>
        <time>2023-09-17T09:01:14.424Z</time>
      </trkpt>
      <trkpt lat="43.68198" lon="1.4534">
        <ele>137.104155</ele>
        <time>2023-09-17T09:01:14.424Z</time>
      </trkpt>
      <trkpt lat="43.682" lon="1.45347">
        <ele>137.120286</ele>
        <time>2023-09-17T09:01:16.424Z</time>
      </trkpt>
      <trkpt lat="43.68202" lon="1.45354">
        <ele>137.137635</ele>
        <time>2023-09-17T09:01:17.424Z</time>
      </trkpt>
      <trkpt lat="43.68204" lon="1.45361">
        <ele>137.153363</ele>
        <time>2023-09-17T09:01:18.424Z</time>
      </trkpt>
      <trkpt lat="43.68206" lon="1.45369">
        <ele>137.170305</ele>
        <time>2023-09-17T09:01:19.424Z</time>
      </trkpt>
      <trkpt lat="43.68206" lon="1.45369">
        <ele>137.170305</ele>
        <time>2023-09-17T09:01:19.424Z</time>
      </trkpt>
      <trkpt lat="43.68208" lon="1.45375">
        <ele>137.185631</ele>
        <time>2023-09-17T09:01:20.424Z</time>
      </trkpt>
      <trkpt lat="43.68208" lon="1.45375">
        <ele>137.185631</ele>
        <time>2023-09-17T09:01:20.424Z</time>
      </trkpt>
      <trkpt lat="43.6821" lon="1.45382">
        <ele>137.201059</ele>
        <time>2023-09-17T09:01:21.424Z</time>
      </trkpt>
      <trkpt lat="43.6821" lon="1.45382">
        <ele>137.201059</ele>
        <time>2023-09-17T09:01:21.424Z</time>
      </trkpt>
      <trkpt lat="43.68211" lon="1.45389">
        <ele>137.21719</ele>
        <time>2023-09-17T09:01:22.424Z</time>
      </trkpt>
      <trkpt lat="43.68211" lon="1.45389">
        <ele>137.21719</ele>
        <time>2023-09-17T09:01:22.424Z</time>
      </trkpt>
      <trkpt lat="43.68214" lon="1.45396">
        <ele>137.234252</ele>
        <time>2023-09-17T09:01:23.424Z</time>
      </trkpt>
      <trkpt lat="43.68214" lon="1.45396">
        <ele>137.234252</ele>
        <time>2023-09-17T09:01:23.424Z</time>
      </trkpt>
      <trkpt lat="43.68216" lon="1.45404">
        <ele>137.250892</ele>
        <time>2023-09-17T09:01:24.424Z</time>
      </trkpt>
      <trkpt lat="43.68216" lon="1.45404">
        <ele>137.250892</ele>
        <time>2023-09-17T09:01:24.424Z</time>
      </trkpt>
      <trkpt lat="43.68217" lon="1.4541">
        <ele>137.266437</ele>
        <time>2023-09-17T09:01:25.424Z</time>
      </trkpt>
      <trkpt lat="43.68219" lon="1.45418">
        <ele>137.282602</ele>
        <time>2023-09-17T09:01:26.424Z</time>
      </trkpt>
      <trkpt lat="43.6822" lon="1.45424">
        <ele>137.297117</ele>
        <time>2023-09-17T09:01:27.424Z</time>
      </trkpt>
      <trkpt lat="43.6822" lon="1.45424">
        <ele>137.297117</ele>
        <time>2023-09-17T09:01:27.424Z</time>
      </trkpt>
      <trkpt lat="43.68222" lon="1.45431">
        <ele>137.313046</ele>
        <time>2023-09-17T09:01:28.424Z</time>
      </trkpt>
      <trkpt lat="43.68222" lon="1.45431">
        <ele>137.313046</ele>
        <time>2023-09-17T09:01:28.424Z</time>
      </trkpt>
      <trkpt lat="43.68224" lon="1.45437">
        <ele>137.328659</ele>
        <time>2023-09-17T09:01:29.424Z</time>
      </trkpt>
      <trkpt lat="43.68227" lon="1.45444">
        <ele>137.3435</ele>
        <time>2023-09-17T09:01:30.424Z</time>
      </trkpt>
      <trkpt lat="43.68229" lon="1.4545">
        <ele>137.358726</ele>
        <time>2023-09-17T09:01:31.424Z</time>
      </trkpt>
      <trkpt lat="43.68231" lon="1.45457">
        <ele>137.375314</ele>
        <time>2023-09-17T09:01:32.424Z</time>
      </trkpt>
      <trkpt lat="43.68234" lon="1.45464">
        <ele>137.391706</ele>
        <time>2023-09-17T09:01:32.424Z</time>
      </trkpt>
      <trkpt lat="43.68235" lon="1.4547">
        <ele>137.406234</ele>
        <time>2023-09-17T09:01:34.424Z</time>
      </trkpt>
      <trkpt lat="43.68237" lon="1.45476">
        <ele>137.420339</ele>
        <time>2023-09-17T09:01:35.424Z</time>
      </trkpt>
      <trkpt lat="43.68239" lon="1.45482">
        <ele>137.460866</ele>
        <time>2023-09-17T09:01:36.424Z</time>
      </trkpt>
      <trkpt lat="43.68241" lon="1.45489">
        <ele>137.519384</ele>
        <time>2023-09-17T09:01:37.424Z</time>
      </trkpt>
      <trkpt lat="43.68243" lon="1.45495">
        <ele>137.570497</ele>
        <time>2023-09-17T09:01:37.424Z</time>
      </trkpt>
      <trkpt lat="43.68243" lon="1.45495">
        <ele>137.570497</ele>
        <time>2023-09-17T09:01:37.424Z</time>
      </trkpt>
      <trkpt lat="43.68245" lon="1.45501">
        <ele>137.625291</ele>
        <time>2023-09-17T09:01:39.424Z</time>
      </trkpt>
      <trkpt lat="43.68247" lon="1.45507">
        <ele>137.675873</ele>
        <time>2023-09-17T09:01:39.424Z</time>
      </trkpt>
      <trkpt lat="43.68247" lon="1.45507">
        <ele>137.675873</ele>
        <time>2023-09-17T09:01:39.424Z</time>
      </trkpt>
      <trkpt lat="43.68248" lon="1.45514">
        <ele>137.730667</ele>
        <time>2023-09-17T09:01:41.424Z</time>
      </trkpt>
      <trkpt lat="43.68248" lon="1.45514">
        <ele>137.730667</ele>
        <time>2023-09-17T09:01:41.424Z</time>
      </trkpt>
      <trkpt lat="43.6825" lon="1.4552">
        <ele>137.781629</ele>
        <time>2023-09-17T09:01:42.424Z</time>
      </trkpt>
      <trkpt lat="43.68251" lon="1.45525">
        <ele>137.831075</ele>
        <time>2023-09-17T09:01:43.424Z</time>
      </trkpt>
      <trkpt lat="43.68251" lon="1.45525">
        <ele>137.831075</ele>
        <time>2023-09-17T09:01:43.424Z</time>
      </trkpt>
      <trkpt lat="43.68253" lon="1.45531">
        <ele>137.879766</ele>
        <time>2023-09-17T09:01:44.424Z</time>
      </trkpt>
      <trkpt lat="43.68255" lon="1.45537">
        <ele>137.934125</ele>
        <time>2023-09-17T09:01:45.424Z</time>
      </trkpt>
      <trkpt lat="43.68255" lon="1.45537">
        <ele>137.934125</ele>
        <time>2023-09-17T09:01:45.424Z</time>
      </trkpt>
      <trkpt lat="43.68256" lon="1.45543">
        <ele>137.985086</ele>
        <time>2023-09-17T09:01:46.424Z</time>
      </trkpt>
      <trkpt lat="43.68258" lon="1.4555">
        <ele>138.036806</ele>
        <time>2023-09-17T09:01:47.424Z</time>
      </trkpt>
      <trkpt lat="43.68259" lon="1.45555">
        <ele>138.084744</ele>
        <time>2023-09-17T09:01:48.424Z</time>
      </trkpt>
      <trkpt lat="43.68259" lon="1.45555">
        <ele>138.084744</ele>
        <time>2023-09-17T09:01:48.424Z</time>
      </trkpt>
      <trkpt lat="43.68261" lon="1.45561">
        <ele>138.138344</ele>
        <time>2023-09-17T09:01:49.424Z</time>
      </trkpt>
      <trkpt lat="43.68262" lon="1.45567">
        <ele>138.189305</ele>
        <time>2023-09-17T09:01:50.424Z</time>
      </trkpt>
      <trkpt lat="43.68262" lon="1.45567">
        <ele>138.189305</ele>
        <time>2023-09-17T09:01:50.424Z</time>
      </trkpt>
      <trkpt lat="43.68264" lon="1.45573">
        <ele>138.240266</ele>
        <time>2023-09-17T09:01:51.424Z</time>
      </trkpt>
      <trkpt lat="43.68265" lon="1.45578">
        <ele>138.282556</ele>
        <time>2023-09-17T09:01:52.424Z</time>
      </trkpt>
      <trkpt lat="43.68265" lon="1.45578">
        <ele>138.282556</ele>
        <time>2023-09-17T09:01:52.424Z</time>
      </trkpt>
      <trkpt lat="43.68266" lon="1.45585">
        <ele>138.336143</ele>
        <time>2023-09-17T09:01:53.424Z</time>
      </trkpt>
      <trkpt lat="43.68267" lon="1.45591">
        <ele>138.390149</ele>
        <time>2023-09-17T09:01:54.424Z</time>
      </trkpt>
      <trkpt lat="43.68269" lon="1.45597">
        <ele>138.440895</ele>
        <time>2023-09-17T09:01:55.424Z</time>
      </trkpt>
      <trkpt lat="43.68269" lon="1.45597">
        <ele>138.440895</ele>
        <time>2023-09-17T09:01:55.424Z</time>
      </trkpt>
      <trkpt lat="43.6827" lon="1.45603">
        <ele>138.490341</ele>
        <time>2023-09-17T09:01:56.424Z</time>
      </trkpt>
      <trkpt lat="43.68271" lon="1.45609">
        <ele>138.538768</ele>
        <time>2023-09-17T09:01:57.424Z</time>
      </trkpt>
      <trkpt lat="43.68272" lon="1.45615">
        <ele>138.589234</ele>
        <time>2023-09-17T09:01:58.424Z</time>
      </trkpt>
      <trkpt lat="43.68272" lon="1.45615">
        <ele>138.589234</ele>
        <time>2023-09-17T09:01:58.424Z</time>
      </trkpt>
      <trkpt lat="43.68274" lon="1.45621">
        <ele>138.64048</ele>
        <time>2023-09-17T09:01:59.424Z</time>
      </trkpt>
      <trkpt lat="43.68275" lon="1.45628">
        <ele>138.692777</ele>
        <time>2023-09-17T09:02:00.424Z</time>
      </trkpt>
      <trkpt lat="43.68276" lon="1.45633">
        <ele>138.739359</ele>
        <time>2023-09-17T09:02:01.424Z</time>
      </trkpt>
      <trkpt lat="43.68276" lon="1.45633">
        <ele>138.739359</ele>
        <time>2023-09-17T09:02:01.424Z</time>
      </trkpt>
      <trkpt lat="43.68277" lon="1.4564">
        <ele>138.792287</ele>
        <time>2023-09-17T09:02:02.424Z</time>
      </trkpt>
      <trkpt lat="43.68277" lon="1.45645">
        <ele>138.831828</ele>
        <time>2023-09-17T09:02:03.424Z</time>
      </trkpt>
      <trkpt lat="43.68277" lon="1.45645">
        <ele>138.831828</ele>
        <time>2023-09-17T09:02:03.424Z</time>
      </trkpt>
      <trkpt lat="43.68279" lon="1.45649">
        <ele>138.873014</ele>
        <time>2023-09-17T09:02:04.424Z</time>
      </trkpt>
      <trkpt lat="43.6828" lon="1.45663">
        <ele>138.986623</ele>
        <time>2023-09-17T09:02:06.424Z</time>
      </trkpt>
      <trkpt lat="43.6828" lon="1.45663">
        <ele>138.986623</ele>
        <time>2023-09-17T09:02:06.424Z</time>
      </trkpt>
      <trkpt lat="43.6828" lon="1.45669">
        <ele>139.034192</ele>
        <time>2023-09-17T09:02:07.424Z</time>
      </trkpt>
      <trkpt lat="43.68281" lon="1.45676">
        <ele>139.085759</ele>
        <time>2023-09-17T09:02:08.424Z</time>
      </trkpt>
      <trkpt lat="43.68281" lon="1.45676">
        <ele>139.085759</ele>
        <time>2023-09-17T09:02:08.424Z</time>
      </trkpt>
      <trkpt lat="43.68281" lon="1.45683">
        <ele>139.14195</ele>
        <time>2023-09-17T09:02:09.424Z</time>
      </trkpt>
      <trkpt lat="43.68281" lon="1.45689">
        <ele>139.194128</ele>
        <time>2023-09-17T09:02:09.424Z</time>
      </trkpt>
      <trkpt lat="43.68281" lon="1.45696">
        <ele>139.247911</ele>
        <time>2023-09-17T09:02:11.424Z</time>
      </trkpt>
      <trkpt lat="43.6828" lon="1.45702">
        <ele>139.297079</ele>
        <time>2023-09-17T09:02:12.424Z</time>
      </trkpt>
      <trkpt lat="43.68279" lon="1.45711">
        <ele>139.374655</ele>
        <time>2023-09-17T09:02:13.424Z</time>
      </trkpt>
      <trkpt lat="43.68279" lon="1.45711">
        <ele>139.374655</ele>
        <time>2023-09-17T09:02:13.424Z</time>
      </trkpt>
      <trkpt lat="43.68279" lon="1.45717">
        <ele>139.419028</ele>
        <time>2023-09-17T09:02:14.424Z</time>
      </trkpt>
      <trkpt lat="43.68279" lon="1.45717">
        <ele>139.419028</ele>
        <time>2023-09-17T09:02:14.424Z</time>
      </trkpt>
      <trkpt lat="43.68279" lon="1.45724">
        <ele>139.555191</ele>
        <time>2023-09-17T09:02:16.424Z</time>
      </trkpt>
      <trkpt lat="43.68278" lon="1.45729">
        <ele>139.650993</ele>
        <time>2023-09-17T09:02:16.424Z</time>
      </trkpt>
      <trkpt lat="43.68278" lon="1.45729">
        <ele>139.650993</ele>
        <time>2023-09-17T09:02:16.424Z</time>
      </trkpt>
      <trkpt lat="43.68278" lon="1.45736">
        <ele>139.782397</ele>
        <time>2023-09-17T09:02:17.424Z</time>
      </trkpt>
      <trkpt lat="43.68278" lon="1.45743">
        <ele>139.911898</ele>
        <time>2023-09-17T09:02:19.424Z</time>
      </trkpt>
      <trkpt lat="43.68278" lon="1.45743">
        <ele>139.911898</ele>
        <time>2023-09-17T09:02:19.424Z</time>
      </trkpt>
      <trkpt lat="43.68278" lon="1.45748">
        <ele>140.017169</ele>
        <time>2023-09-17T09:02:20.424Z</time>
      </trkpt>
      <trkpt lat="43.68278" lon="1.45748">
        <ele>140.017169</ele>
        <time>2023-09-17T09:02:20.424Z</time>
      </trkpt>
      <trkpt lat="43.68277" lon="1.45756">
        <ele>140.157408</ele>
        <time>2023-09-17T09:02:21.424Z</time>
      </trkpt>
      <trkpt lat="43.68277" lon="1.45756">
        <ele>140.157408</ele>
        <time>2023-09-17T09:02:21.424Z</time>
      </trkpt>
      <trkpt lat="43.68277" lon="1.45761">
        <ele>140.264574</ele>
        <time>2023-09-17T09:02:22.424Z</time>
      </trkpt>
      <trkpt lat="43.68276" lon="1.45775">
        <ele>140.520634</ele>
        <time>2023-09-17T09:02:24.424Z</time>
      </trkpt>
      <trkpt lat="43.68276" lon="1.4578">
        <ele>140.623473</ele>
        <time>2023-09-17T09:02:25.424Z</time>
      </trkpt>
      <trkpt lat="43.68275" lon="1.45787">
        <ele>140.755299</ele>
        <time>2023-09-17T09:02:26.424Z</time>
      </trkpt>
      <trkpt lat="43.68275" lon="1.45787">
        <ele>140.755299</ele>
        <time>2023-09-17T09:02:26.424Z</time>
      </trkpt>
      <trkpt lat="43.68275" lon="1.45794">
        <ele>140.883139</ele>
        <time>2023-09-17T09:02:27.424Z</time>
      </trkpt>
      <trkpt lat="43.68275" lon="1.45794">
        <ele>140.883139</ele>
        <time>2023-09-17T09:02:27.424Z</time>
      </trkpt>
      <trkpt lat="43.68275" lon="1.45802">
        <ele>141.032057</ele>
        <time>2023-09-17T09:02:28.424Z</time>
      </trkpt>
      <trkpt lat="43.68275" lon="1.45802">
        <ele>141.032057</ele>
        <time>2023-09-17T09:02:28.424Z</time>
      </trkpt>
      <trkpt lat="43.68274" lon="1.45808">
        <ele>141.1506</ele>
        <time>2023-09-17T09:02:29.424Z</time>
      </trkpt>
      <trkpt lat="43.68274" lon="1.45814">
        <ele>141.267246</ele>
        <time>2023-09-17T09:02:30.424Z</time>
      </trkpt>
      <trkpt lat="43.68274" lon="1.45814">
        <ele>141.267246</ele>
        <time>2023-09-17T09:02:30.424Z</time>
      </trkpt>
      <trkpt lat="43.68273" lon="1.45818">
        <ele>141.345621</ele>
        <time>2023-09-17T09:02:31.424Z</time>
      </trkpt>
      <trkpt lat="43.68273" lon="1.45825">
        <ele>141.485042</ele>
        <time>2023-09-17T09:02:32.424Z</time>
      </trkpt>
      <trkpt lat="43.68272" lon="1.45832">
        <ele>141.616868</ele>
        <time>2023-09-17T09:02:33.424Z</time>
      </trkpt>
      <trkpt lat="43.68272" lon="1.45839">
        <ele>141.746369</ele>
        <time>2023-09-17T09:02:34.424Z</time>
      </trkpt>
      <trkpt lat="43.68272" lon="1.45839">
        <ele>141.746369</ele>
        <time>2023-09-17T09:02:34.424Z</time>
      </trkpt>
      <trkpt lat="43.68272" lon="1.45846">
        <ele>141.879452</ele>
        <time>2023-09-17T09:02:36.424Z</time>
      </trkpt>
      <trkpt lat="43.68272" lon="1.45846">
        <ele>141.879452</ele>
        <time>2023-09-17T09:02:36.424Z</time>
      </trkpt>
      <trkpt lat="43.68271" lon="1.45852">
        <ele>142.003491</ele>
        <time>2023-09-17T09:02:37.424Z</time>
      </trkpt>
      <trkpt lat="43.68271" lon="1.4586">
        <ele>142.160008</ele>
        <time>2023-09-17T09:02:38.424Z</time>
      </trkpt>
      <trkpt lat="43.68271" lon="1.4586">
        <ele>142.160008</ele>
        <time>2023-09-17T09:02:38.424Z</time>
      </trkpt>
      <trkpt lat="43.68271" lon="1.45868">
        <ele>142.312725</ele>
        <time>2023-09-17T09:02:39.424Z</time>
      </trkpt>
      <trkpt lat="43.68271" lon="1.45868">
        <ele>142.312725</ele>
        <time>2023-09-17T09:02:39.424Z</time>
      </trkpt>
      <trkpt lat="43.6827" lon="1.45874">
        <ele>142.427044</ele>
        <time>2023-09-17T09:02:40.424Z</time>
      </trkpt>
      <trkpt lat="43.6827" lon="1.45874">
        <ele>142.427044</ele>
        <time>2023-09-17T09:02:40.424Z</time>
      </trkpt>
      <trkpt lat="43.68269" lon="1.45881">
        <ele>142.549381</ele>
        <time>2023-09-17T09:02:41.424Z</time>
      </trkpt>
      <trkpt lat="43.68269" lon="1.45881">
        <ele>142.549381</ele>
        <time>2023-09-17T09:02:41.424Z</time>
      </trkpt>
      <trkpt lat="43.68269" lon="1.45886">
        <ele>142.648725</ele>
        <time>2023-09-17T09:02:43.424Z</time>
      </trkpt>
      <trkpt lat="43.68269" lon="1.45891">
        <ele>142.749968</ele>
        <time>2023-09-17T09:02:44.424Z</time>
      </trkpt>
      <trkpt lat="43.68269" lon="1.45896">
        <ele>142.837927</ele>
        <time>2023-09-17T09:02:45.424Z</time>
      </trkpt>
      <trkpt lat="43.68269" lon="1.459">
        <ele>142.914828</ele>
        <time>2023-09-17T09:02:46.424Z</time>
      </trkpt>
      <trkpt lat="43.68269" lon="1.459">
        <ele>142.914828</ele>
        <time>2023-09-17T09:02:46.424Z</time>
      </trkpt>
      <trkpt lat="43.68267" lon="1.45909">
        <ele>143.094737</ele>
        <time>2023-09-17T09:02:48.424Z</time>
      </trkpt>
      <trkpt lat="43.68267" lon="1.45916">
        <ele>143.22828</ele>
        <time>2023-09-17T09:02:49.424Z</time>
      </trkpt>
      <trkpt lat="43.68266" lon="1.45929">
        <ele>143.474085</ele>
        <time>2023-09-17T09:02:50.424Z</time>
      </trkpt>
      <trkpt lat="43.68266" lon="1.45929">
        <ele>143.474085</ele>
        <time>2023-09-17T09:02:50.424Z</time>
      </trkpt>
      <trkpt lat="43.68265" lon="1.45935">
        <ele>143.590276</ele>
        <time>2023-09-17T09:02:52.424Z</time>
      </trkpt>
      <trkpt lat="43.68265" lon="1.45935">
        <ele>143.590276</ele>
        <time>2023-09-17T09:02:52.424Z</time>
      </trkpt>
      <trkpt lat="43.68264" lon="1.45948">
        <ele>143.841432</ele>
        <time>2023-09-17T09:02:53.424Z</time>
      </trkpt>
      <trkpt lat="43.68264" lon="1.45948">
        <ele>143.841432</ele>
        <time>2023-09-17T09:02:53.424Z</time>
      </trkpt>
      <trkpt lat="43.68263" lon="1.45961">
        <ele>144.088003</ele>
        <time>2023-09-17T09:02:56.424Z</time>
      </trkpt>
      <trkpt lat="43.68263" lon="1.45961">
        <ele>144.088003</ele>
        <time>2023-09-17T09:02:56.424Z</time>
      </trkpt>
      <trkpt lat="43.68263" lon="1.45967">
        <ele>144.221032</ele>
        <time>2023-09-17T09:02:57.424Z</time>
      </trkpt>
      <trkpt lat="43.68263" lon="1.45967">
        <ele>144.221032</ele>
        <time>2023-09-17T09:02:57.424Z</time>
      </trkpt>
      <trkpt lat="43.68262" lon="1.45977">
        <ele>144.494041</ele>
        <time>2023-09-17T09:02:58.424Z</time>
      </trkpt>
      <trkpt lat="43.68262" lon="1.45977">
        <ele>144.494041</ele>
        <time>2023-09-17T09:02:58.424Z</time>
      </trkpt>
      <trkpt lat="43.68261" lon="1.45982">
        <ele>144.633561</ele>
        <time>2023-09-17T09:02:59.424Z</time>
      </trkpt>
      <trkpt lat="43.68261" lon="1.45982">
        <ele>144.633561</ele>
        <time>2023-09-17T09:02:59.424Z</time>
      </trkpt>
      <trkpt lat="43.68262" lon="1.45987">
        <ele>144.772836</ele>
        <time>2023-09-17T09:03:00.424Z</time>
      </trkpt>
      <trkpt lat="43.68262" lon="1.45987">
        <ele>144.772836</ele>
        <time>2023-09-17T09:03:00.424Z</time>
      </trkpt>
      <trkpt lat="43.68263" lon="1.45994">
        <ele>144.960209</ele>
        <time>2023-09-17T09:03:02.424Z</time>
      </trkpt>
      <trkpt lat="43.68263" lon="1.45994">
        <ele>144.960209</ele>
        <time>2023-09-17T09:03:02.424Z</time>
      </trkpt>
      <trkpt lat="43.68264" lon="1.46002">
        <ele>145.181686</ele>
        <time>2023-09-17T09:03:03.424Z</time>
      </trkpt>
      <trkpt lat="43.68264" lon="1.46002">
        <ele>145.181686</ele>
        <time>2023-09-17T09:03:03.424Z</time>
      </trkpt>
      <trkpt lat="43.68265" lon="1.46007">
        <ele>145.339509</ele>
        <time>2023-09-17T09:03:04.424Z</time>
      </trkpt>
      <trkpt lat="43.68265" lon="1.46007">
        <ele>145.339509</ele>
        <time>2023-09-17T09:03:04.424Z</time>
      </trkpt>
      <trkpt lat="43.68267" lon="1.46013">
        <ele>145.521667</ele>
        <time>2023-09-17T09:03:05.424Z</time>
      </trkpt>
      <trkpt lat="43.68267" lon="1.46013">
        <ele>145.521667</ele>
        <time>2023-09-17T09:03:05.424Z</time>
      </trkpt>
      <trkpt lat="43.68269" lon="1.46019">
        <ele>145.671406</ele>
        <time>2023-09-17T09:03:06.424Z</time>
      </trkpt>
      <trkpt lat="43.68269" lon="1.46019">
        <ele>145.671406</ele>
        <time>2023-09-17T09:03:06.424Z</time>
      </trkpt>
      <trkpt lat="43.6827" lon="1.46024">
        <ele>145.821145</ele>
        <time>2023-09-17T09:03:07.424Z</time>
      </trkpt>
      <trkpt lat="43.6827" lon="1.46024">
        <ele>145.821145</ele>
        <time>2023-09-17T09:03:07.424Z</time>
      </trkpt>
      <trkpt lat="43.68272" lon="1.4603">
        <ele>146.009304</ele>
        <time>2023-09-17T09:03:09.424Z</time>
      </trkpt>
      <trkpt lat="43.68272" lon="1.4603">
        <ele>146.009304</ele>
        <time>2023-09-17T09:03:09.424Z</time>
      </trkpt>
      <trkpt lat="43.68275" lon="1.4604">
        <ele>146.312727</ele>
        <time>2023-09-17T09:03:10.424Z</time>
      </trkpt>
      <trkpt lat="43.68275" lon="1.4604">
        <ele>146.312727</ele>
        <time>2023-09-17T09:03:10.424Z</time>
      </trkpt>
      <trkpt lat="43.68276" lon="1.46045">
        <ele>146.437914</ele>
        <time>2023-09-17T09:03:11.424Z</time>
      </trkpt>
      <trkpt lat="43.68276" lon="1.46045">
        <ele>146.437914</ele>
        <time>2023-09-17T09:03:11.424Z</time>
      </trkpt>
      <trkpt lat="43.68277" lon="1.46049">
        <ele>146.568358</ele>
        <time>2023-09-17T09:03:13.424Z</time>
      </trkpt>
      <trkpt lat="43.68277" lon="1.46049">
        <ele>146.568358</ele>
        <time>2023-09-17T09:03:13.424Z</time>
      </trkpt>
      <trkpt lat="43.68279" lon="1.46061">
        <ele>146.905113</ele>
        <time>2023-09-17T09:03:14.424Z</time>
      </trkpt>
      <trkpt lat="43.68279" lon="1.46061">
        <ele>146.905113</ele>
        <time>2023-09-17T09:03:14.424Z</time>
      </trkpt>
      <trkpt lat="43.68279" lon="1.46066">
        <ele>147.025722</ele>
        <time>2023-09-17T09:03:15.424Z</time>
      </trkpt>
      <trkpt lat="43.68279" lon="1.46066">
        <ele>147.025722</ele>
        <time>2023-09-17T09:03:15.424Z</time>
      </trkpt>
      <trkpt lat="43.6828" lon="1.46072">
        <ele>147.186582</ele>
        <time>2023-09-17T09:03:17.424Z</time>
      </trkpt>
      <trkpt lat="43.6828" lon="1.46072">
        <ele>147.186582</ele>
        <time>2023-09-17T09:03:17.424Z</time>
      </trkpt>
      <trkpt lat="43.6828" lon="1.46078">
        <ele>147.361294</ele>
        <time>2023-09-17T09:03:18.424Z</time>
      </trkpt>
      <trkpt lat="43.6828" lon="1.46078">
        <ele>147.361294</ele>
        <time>2023-09-17T09:03:18.424Z</time>
      </trkpt>
      <trkpt lat="43.6828" lon="1.46085">
        <ele>147.536005</ele>
        <time>2023-09-17T09:03:19.424Z</time>
      </trkpt>
      <trkpt lat="43.6828" lon="1.46085">
        <ele>147.536005</ele>
        <time>2023-09-17T09:03:19.424Z</time>
      </trkpt>
      <trkpt lat="43.68281" lon="1.46091">
        <ele>147.713426</ele>
        <time>2023-09-17T09:03:20.424Z</time>
      </trkpt>
      <trkpt lat="43.68281" lon="1.46091">
        <ele>147.713426</ele>
        <time>2023-09-17T09:03:20.424Z</time>
      </trkpt>
      <trkpt lat="43.68281" lon="1.46096">
        <ele>147.847539</ele>
        <time>2023-09-17T09:03:21.424Z</time>
      </trkpt>
      <trkpt lat="43.68281" lon="1.46096">
        <ele>147.847539</ele>
        <time>2023-09-17T09:03:21.424Z</time>
      </trkpt>
      <trkpt lat="43.68282" lon="1.46102">
        <ele>148.02496</ele>
        <time>2023-09-17T09:03:23.424Z</time>
      </trkpt>
      <trkpt lat="43.68282" lon="1.46102">
        <ele>148.02496</ele>
        <time>2023-09-17T09:03:23.424Z</time>
      </trkpt>
      <trkpt lat="43.68282" lon="1.46109">
        <ele>148.19396</ele>
        <time>2023-09-17T09:03:24.424Z</time>
      </trkpt>
      <trkpt lat="43.68282" lon="1.46109">
        <ele>148.19396</ele>
        <time>2023-09-17T09:03:24.424Z</time>
      </trkpt>
      <trkpt lat="43.68282" lon="1.46119">
        <ele>148.466348</ele>
        <time>2023-09-17T09:03:25.424Z</time>
      </trkpt>
      <trkpt lat="43.68282" lon="1.46119">
        <ele>148.466348</ele>
        <time>2023-09-17T09:03:25.424Z</time>
      </trkpt>
      <trkpt lat="43.68284" lon="1.46123">
        <ele>148.601111</ele>
        <time>2023-09-17T09:03:26.424Z</time>
      </trkpt>
      <trkpt lat="43.68284" lon="1.46123">
        <ele>148.601111</ele>
        <time>2023-09-17T09:03:26.424Z</time>
      </trkpt>
      <trkpt lat="43.68285" lon="1.46128">
        <ele>148.749815</ele>
        <time>2023-09-17T09:03:27.424Z</time>
      </trkpt>
      <trkpt lat="43.68285" lon="1.46128">
        <ele>148.749815</ele>
        <time>2023-09-17T09:03:27.424Z</time>
      </trkpt>
      <trkpt lat="43.68288" lon="1.46133">
        <ele>148.913282</ele>
        <time>2023-09-17T09:03:29.424Z</time>
      </trkpt>
      <trkpt lat="43.68288" lon="1.46133">
        <ele>148.913282</ele>
        <time>2023-09-17T09:03:29.424Z</time>
      </trkpt>
      <trkpt lat="43.6829" lon="1.46137">
        <ele>149.051656</ele>
        <time>2023-09-17T09:03:30.424Z</time>
      </trkpt>
      <trkpt lat="43.6829" lon="1.46137">
        <ele>149.051656</ele>
        <time>2023-09-17T09:03:30.424Z</time>
      </trkpt>
      <trkpt lat="43.68294" lon="1.46141">
        <ele>149.227733</ele>
        <time>2023-09-17T09:03:31.424Z</time>
      </trkpt>
      <trkpt lat="43.68297" lon="1.46146">
        <ele>149.410469</ele>
        <time>2023-09-17T09:03:32.424Z</time>
      </trkpt>
      <trkpt lat="43.68302" lon="1.46154">
        <ele>149.70218</ele>
        <time>2023-09-17T09:03:33.424Z</time>
      </trkpt>
      <trkpt lat="43.68302" lon="1.46154">
        <ele>149.70218</ele>
        <time>2023-09-17T09:03:33.424Z</time>
      </trkpt>
      <trkpt lat="43.68305" lon="1.46159">
        <ele>149.878876</ele>
        <time>2023-09-17T09:03:34.424Z</time>
      </trkpt>
      <trkpt lat="43.68309" lon="1.46167">
        <ele>150.134717</ele>
        <time>2023-09-17T09:03:35.424Z</time>
      </trkpt>
      <trkpt lat="43.68309" lon="1.46167">
        <ele>150.134717</ele>
        <time>2023-09-17T09:03:35.424Z</time>
      </trkpt>
      <trkpt lat="43.68313" lon="1.46174">
        <ele>150.372768</ele>
        <time>2023-09-17T09:03:36.424Z</time>
      </trkpt>
      <trkpt lat="43.68313" lon="1.46174">
        <ele>150.372768</ele>
        <time>2023-09-17T09:03:36.424Z</time>
      </trkpt>
      <trkpt lat="43.68318" lon="1.46182">
        <ele>150.655016</ele>
        <time>2023-09-17T09:03:38.424Z</time>
      </trkpt>
      <trkpt lat="43.68318" lon="1.46182">
        <ele>150.655016</ele>
        <time>2023-09-17T09:03:38.424Z</time>
      </trkpt>
      <trkpt lat="43.68322" lon="1.46189">
        <ele>150.893067</ele>
        <time>2023-09-17T09:03:39.424Z</time>
      </trkpt>
      <trkpt lat="43.68322" lon="1.46189">
        <ele>150.893067</ele>
        <time>2023-09-17T09:03:39.424Z</time>
      </trkpt>
      <trkpt lat="43.68326" lon="1.46196">
        <ele>150.81988</ele>
        <time>2023-09-17T09:03:39.424Z</time>
      </trkpt>
      <trkpt lat="43.68326" lon="1.46196">
        <ele>150.81988</ele>
        <time>2023-09-17T09:03:39.424Z</time>
      </trkpt>
      <trkpt lat="43.6833" lon="1.46204">
        <ele>150.693203</ele>
        <time>2023-09-17T09:03:41.424Z</time>
      </trkpt>
      <trkpt lat="43.6833" lon="1.46204">
        <ele>150.693203</ele>
        <time>2023-09-17T09:03:41.424Z</time>
      </trkpt>
      <trkpt lat="43.68335" lon="1.46211">
        <ele>150.565545</ele>
        <time>2023-09-17T09:03:42.424Z</time>
      </trkpt>
      <trkpt lat="43.68335" lon="1.46211">
        <ele>150.565545</ele>
        <time>2023-09-17T09:03:42.424Z</time>
      </trkpt>
      <trkpt lat="43.68341" lon="1.4622">
        <ele>150.414543</ele>
        <time>2023-09-17T09:03:42.424Z</time>
      </trkpt>
      <trkpt lat="43.68341" lon="1.4622">
        <ele>150.414543</ele>
        <time>2023-09-17T09:03:42.424Z</time>
      </trkpt>
      <trkpt lat="43.68346" lon="1.46228">
        <ele>150.278669</ele>
        <time>2023-09-17T09:03:43.424Z</time>
      </trkpt>
      <trkpt lat="43.68346" lon="1.46228">
        <ele>150.278669</ele>
        <time>2023-09-17T09:03:43.424Z</time>
      </trkpt>
      <trkpt lat="43.68352" lon="1.46235">
        <ele>150.138718</ele>
        <time>2023-09-17T09:03:45.424Z</time>
      </trkpt>
      <trkpt lat="43.68352" lon="1.46235">
        <ele>150.138718</ele>
        <time>2023-09-17T09:03:45.424Z</time>
      </trkpt>
      <trkpt lat="43.68357" lon="1.46243">
        <ele>150.00162</ele>
        <time>2023-09-17T09:03:46.424Z</time>
      </trkpt>
      <trkpt lat="43.68357" lon="1.46243">
        <ele>150.00162</ele>
        <time>2023-09-17T09:03:46.424Z</time>
      </trkpt>
      <trkpt lat="43.68362" lon="1.4625">
        <ele>149.885375</ele>
        <time>2023-09-17T09:03:46.424Z</time>
      </trkpt>
      <trkpt lat="43.68362" lon="1.4625">
        <ele>149.885375</ele>
        <time>2023-09-17T09:03:46.424Z</time>
      </trkpt>
      <trkpt lat="43.68366" lon="1.46255">
        <ele>149.7809</ele>
        <time>2023-09-17T09:03:48.424Z</time>
      </trkpt>
      <trkpt lat="43.68366" lon="1.46255">
        <ele>149.7809</ele>
        <time>2023-09-17T09:03:48.424Z</time>
      </trkpt>
      <trkpt lat="43.6837" lon="1.46258">
        <ele>149.696753</ele>
        <time>2023-09-17T09:03:49.424Z</time>
      </trkpt>
      <trkpt lat="43.68374" lon="1.46261">
        <ele>149.620229</ele>
        <time>2023-09-17T09:03:50.424Z</time>
      </trkpt>
      <trkpt lat="43.68374" lon="1.46261">
        <ele>149.620229</ele>
        <time>2023-09-17T09:03:50.424Z</time>
      </trkpt>
      <trkpt lat="43.68379" lon="1.46262">
        <ele>149.530282</ele>
        <time>2023-09-17T09:03:50.424Z</time>
      </trkpt>
      <trkpt lat="43.68384" lon="1.46263">
        <ele>149.44176</ele>
        <time>2023-09-17T09:03:52.424Z</time>
      </trkpt>
      <trkpt lat="43.68389" lon="1.46263">
        <ele>149.355154</ele>
        <time>2023-09-17T09:03:53.424Z</time>
      </trkpt>
      <trkpt lat="43.68394" lon="1.46263">
        <ele>149.27381</ele>
        <time>2023-09-17T09:03:53.424Z</time>
      </trkpt>
      <trkpt lat="43.68399" lon="1.46263">
        <ele>149.1854</ele>
        <time>2023-09-17T09:03:54.424Z</time>
      </trkpt>
      <trkpt lat="43.68404" lon="1.46263">
        <ele>149.098784</ele>
        <time>2023-09-17T09:03:56.424Z</time>
      </trkpt>
      <trkpt lat="43.68408" lon="1.46263">
        <ele>149.024539</ele>
        <time>2023-09-17T09:03:57.424Z</time>
      </trkpt>
      <trkpt lat="43.68413" lon="1.46263">
        <ele>148.935934</ele>
        <time>2023-09-17T09:03:58.424Z</time>
      </trkpt>
      <trkpt lat="43.68416" lon="1.46264">
        <ele>148.875718</ele>
        <time>2023-09-17T09:03:58.424Z</time>
      </trkpt>
      <trkpt lat="43.68421" lon="1.46264">
        <ele>148.793923</ele>
        <time>2023-09-17T09:04:01.424Z</time>
      </trkpt>
      <trkpt lat="43.68421" lon="1.46264">
        <ele>148.793923</ele>
        <time>2023-09-17T09:04:01.424Z</time>
      </trkpt>
      <trkpt lat="43.68428" lon="1.46264">
        <ele>148.67164</ele>
        <time>2023-09-17T09:04:01.424Z</time>
      </trkpt>
      <trkpt lat="43.68428" lon="1.46264">
        <ele>148.67164</ele>
        <time>2023-09-17T09:04:01.424Z</time>
      </trkpt>
      <trkpt lat="43.68432" lon="1.46262">
        <ele>148.601431</ele>
        <time>2023-09-17T09:04:02.424Z</time>
      </trkpt>
      <trkpt lat="43.68436" lon="1.46259">
        <ele>148.517879</ele>
        <time>2023-09-17T09:04:04.424Z</time>
      </trkpt>
      <trkpt lat="43.6844" lon="1.46256">
        <ele>148.43186</ele>
        <time>2023-09-17T09:04:05.424Z</time>
      </trkpt>
      <trkpt lat="43.68444" lon="1.46251">
        <ele>148.335182</ele>
        <time>2023-09-17T09:04:05.424Z</time>
      </trkpt>
      <trkpt lat="43.68444" lon="1.46251">
        <ele>148.335182</ele>
        <time>2023-09-17T09:04:05.424Z</time>
      </trkpt>
      <trkpt lat="43.68449" lon="1.46247">
        <ele>148.237754</ele>
        <time>2023-09-17T09:04:07.424Z</time>
      </trkpt>
      <trkpt lat="43.68453" lon="1.46243">
        <ele>148.151773</ele>
        <time>2023-09-17T09:04:09.424Z</time>
      </trkpt>
      <trkpt lat="43.68453" lon="1.46243">
        <ele>148.151773</ele>
        <time>2023-09-17T09:04:09.424Z</time>
      </trkpt>
      <trkpt lat="43.68457" lon="1.46244">
        <ele>148.069828</ele>
        <time>2023-09-17T09:04:09.424Z</time>
      </trkpt>
      <trkpt lat="43.68462" lon="1.46245">
        <ele>147.99248</ele>
        <time>2023-09-17T09:04:11.424Z</time>
      </trkpt>
      <trkpt lat="43.68465" lon="1.46248">
        <ele>147.929051</ele>
        <time>2023-09-17T09:04:11.424Z</time>
      </trkpt>
      <trkpt lat="43.68469" lon="1.46253">
        <ele>147.832746</ele>
        <time>2023-09-17T09:04:12.424Z</time>
      </trkpt>
      <trkpt lat="43.68469" lon="1.46253">
        <ele>147.832746</ele>
        <time>2023-09-17T09:04:12.424Z</time>
      </trkpt>
      <trkpt lat="43.68473" lon="1.46259">
        <ele>147.755271</ele>
        <time>2023-09-17T09:04:14.424Z</time>
      </trkpt>
      <trkpt lat="43.68473" lon="1.46259">
        <ele>147.755271</ele>
        <time>2023-09-17T09:04:14.424Z</time>
      </trkpt>
      <trkpt lat="43.68477" lon="1.46263">
        <ele>147.808709</ele>
        <time>2023-09-17T09:04:15.424Z</time>
      </trkpt>
      <trkpt lat="43.68477" lon="1.46263">
        <ele>147.808709</ele>
        <time>2023-09-17T09:04:15.424Z</time>
      </trkpt>
      <trkpt lat="43.68481" lon="1.46267">
        <ele>147.863551</ele>
        <time>2023-09-17T09:04:17.424Z</time>
      </trkpt>
      <trkpt lat="43.68485" lon="1.4627">
        <ele>147.905819</ele>
        <time>2023-09-17T09:04:18.424Z</time>
      </trkpt>
      <trkpt lat="43.68487" lon="1.46272">
        <ele>147.93721</ele>
        <time>2023-09-17T09:04:19.424Z</time>
      </trkpt>
      <trkpt lat="43.68487" lon="1.46272">
        <ele>147.93721</ele>
        <time>2023-09-17T09:04:19.424Z</time>
      </trkpt>
      <trkpt lat="43.68496" lon="1.46276">
        <ele>148.03736</ele>
        <time>2023-09-17T09:04:19.424Z</time>
      </trkpt>
      <trkpt lat="43.68496" lon="1.46276">
        <ele>148.03736</ele>
        <time>2023-09-17T09:04:19.424Z</time>
      </trkpt>
      <trkpt lat="43.68501" lon="1.46277">
        <ele>148.083258</ele>
        <time>2023-09-17T09:04:21.424Z</time>
      </trkpt>
      <trkpt lat="43.68501" lon="1.46277">
        <ele>148.083258</ele>
        <time>2023-09-17T09:04:21.424Z</time>
      </trkpt>
      <trkpt lat="43.68505" lon="1.46277">
        <ele>148.127724</ele>
        <time>2023-09-17T09:04:22.424Z</time>
      </trkpt>
      <trkpt lat="43.6851" lon="1.46277">
        <ele>148.180651</ele>
        <time>2023-09-17T09:04:23.424Z</time>
      </trkpt>
      <trkpt lat="43.68518" lon="1.46276">
        <ele>148.270371</ele>
        <time>2023-09-17T09:04:23.424Z</time>
      </trkpt>
      <trkpt lat="43.68518" lon="1.46276">
        <ele>148.270371</ele>
        <time>2023-09-17T09:04:23.424Z</time>
      </trkpt>
      <trkpt lat="43.68523" lon="1.46274">
        <ele>148.31973</ele>
        <time>2023-09-17T09:04:24.424Z</time>
      </trkpt>
      <trkpt lat="43.68528" lon="1.46272">
        <ele>148.375021</ele>
        <time>2023-09-17T09:04:26.424Z</time>
      </trkpt>
      <trkpt lat="43.68533" lon="1.4627">
        <ele>148.429887</ele>
        <time>2023-09-17T09:04:26.424Z</time>
      </trkpt>
      <trkpt lat="43.68539" lon="1.46269">
        <ele>148.494883</ele>
        <time>2023-09-17T09:04:28.424Z</time>
      </trkpt>
      <trkpt lat="43.68544" lon="1.46269">
        <ele>148.551009</ele>
        <time>2023-09-17T09:04:29.424Z</time>
      </trkpt>
      <trkpt lat="43.68544" lon="1.46269">
        <ele>148.551009</ele>
        <time>2023-09-17T09:04:29.424Z</time>
      </trkpt>
      <trkpt lat="43.68549" lon="1.46269">
        <ele>148.607172</ele>
        <time>2023-09-17T09:04:30.424Z</time>
      </trkpt>
      <trkpt lat="43.68555" lon="1.46269">
        <ele>148.668547</ele>
        <time>2023-09-17T09:04:30.424Z</time>
      </trkpt>
      <trkpt lat="43.6856" lon="1.46268">
        <ele>148.720534</ele>
        <time>2023-09-17T09:04:32.424Z</time>
      </trkpt>
      <trkpt lat="43.68566" lon="1.46268">
        <ele>148.78089</ele>
        <time>2023-09-17T09:04:33.424Z</time>
      </trkpt>
      <trkpt lat="43.68566" lon="1.46268">
        <ele>148.78089</ele>
        <time>2023-09-17T09:04:33.424Z</time>
      </trkpt>
      <trkpt lat="43.6857" lon="1.46268">
        <ele>148.829658</ele>
        <time>2023-09-17T09:04:33.424Z</time>
      </trkpt>
      <trkpt lat="43.6857" lon="1.46268">
        <ele>148.829658</ele>
        <time>2023-09-17T09:04:33.424Z</time>
      </trkpt>
      <trkpt lat="43.68576" lon="1.46269">
        <ele>148.894654</ele>
        <time>2023-09-17T09:04:35.424Z</time>
      </trkpt>
      <trkpt lat="43.68581" lon="1.4627">
        <ele>148.940194</ele>
        <time>2023-09-17T09:04:36.424Z</time>
      </trkpt>
      <trkpt lat="43.68581" lon="1.4627">
        <ele>148.940194</ele>
        <time>2023-09-17T09:04:36.424Z</time>
      </trkpt>
      <trkpt lat="43.68584" lon="1.46273">
        <ele>148.982978</ele>
        <time>2023-09-17T09:04:37.424Z</time>
      </trkpt>
      <trkpt lat="43.68584" lon="1.46273">
        <ele>148.982978</ele>
        <time>2023-09-17T09:04:37.424Z</time>
      </trkpt>
      <trkpt lat="43.68588" lon="1.46276">
        <ele>149.029277</ele>
        <time>2023-09-17T09:04:38.424Z</time>
      </trkpt>
      <trkpt lat="43.68592" lon="1.46279">
        <ele>149.077167</ele>
        <time>2023-09-17T09:04:39.424Z</time>
      </trkpt>
      <trkpt lat="43.68592" lon="1.46279">
        <ele>149.077167</ele>
        <time>2023-09-17T09:04:39.424Z</time>
      </trkpt>
      <trkpt lat="43.68596" lon="1.46283">
        <ele>149.127698</ele>
        <time>2023-09-17T09:04:40.424Z</time>
      </trkpt>
      <trkpt lat="43.686" lon="1.46287">
        <ele>149.180804</ele>
        <time>2023-09-17T09:04:41.424Z</time>
      </trkpt>
      <trkpt lat="43.68604" lon="1.46291">
        <ele>149.233496</ele>
        <time>2023-09-17T09:04:42.424Z</time>
      </trkpt>
      <trkpt lat="43.68604" lon="1.46291">
        <ele>149.233496</ele>
        <time>2023-09-17T09:04:42.424Z</time>
      </trkpt>
      <trkpt lat="43.68609" lon="1.46294">
        <ele>149.288328</ele>
        <time>2023-09-17T09:04:43.424Z</time>
      </trkpt>
      <trkpt lat="43.68613" lon="1.46297">
        <ele>149.342812</ele>
        <time>2023-09-17T09:04:44.424Z</time>
      </trkpt>
      <trkpt lat="43.68613" lon="1.46297">
        <ele>149.342812</ele>
        <time>2023-09-17T09:04:44.424Z</time>
      </trkpt>
      <trkpt lat="43.68617" lon="1.463">
        <ele>149.388372</ele>
        <time>2023-09-17T09:04:45.424Z</time>
      </trkpt>
      <trkpt lat="43.68622" lon="1.46303">
        <ele>149.446726</ele>
        <time>2023-09-17T09:04:46.424Z</time>
      </trkpt>
      <trkpt lat="43.68622" lon="1.46303">
        <ele>149.446726</ele>
        <time>2023-09-17T09:04:46.424Z</time>
      </trkpt>
      <trkpt lat="43.68627" lon="1.46307">
        <ele>149.509828</ele>
        <time>2023-09-17T09:04:47.424Z</time>
      </trkpt>
      <trkpt lat="43.68633" lon="1.4631">
        <ele>149.571973</ele>
        <time>2023-09-17T09:04:48.424Z</time>
      </trkpt>
      <trkpt lat="43.68633" lon="1.4631">
        <ele>149.571973</ele>
        <time>2023-09-17T09:04:48.424Z</time>
      </trkpt>
      <trkpt lat="43.68638" lon="1.46314">
        <ele>149.634452</ele>
        <time>2023-09-17T09:04:49.424Z</time>
      </trkpt>
      <trkpt lat="43.68638" lon="1.46314">
        <ele>149.634452</ele>
        <time>2023-09-17T09:04:49.424Z</time>
      </trkpt>
      <trkpt lat="43.68642" lon="1.46317">
        <ele>149.717785</ele>
        <time>2023-09-17T09:04:50.424Z</time>
      </trkpt>
      <trkpt lat="43.68642" lon="1.46317">
        <ele>149.717785</ele>
        <time>2023-09-17T09:04:50.424Z</time>
      </trkpt>
      <trkpt lat="43.68647" lon="1.4632">
        <ele>149.836983</ele>
        <time>2023-09-17T09:04:51.424Z</time>
      </trkpt>
      <trkpt lat="43.68647" lon="1.4632">
        <ele>149.836983</ele>
        <time>2023-09-17T09:04:51.424Z</time>
      </trkpt>
      <trkpt lat="43.68652" lon="1.46323">
        <ele>149.941007</ele>
        <time>2023-09-17T09:04:52.424Z</time>
      </trkpt>
      <trkpt lat="43.68652" lon="1.46323">
        <ele>149.941007</ele>
        <time>2023-09-17T09:04:52.424Z</time>
      </trkpt>
      <trkpt lat="43.68656" lon="1.46325">
        <ele>150.035095</ele>
        <time>2023-09-17T09:04:53.424Z</time>
      </trkpt>
      <trkpt lat="43.68656" lon="1.46325">
        <ele>150.035095</ele>
        <time>2023-09-17T09:04:53.424Z</time>
      </trkpt>
      <trkpt lat="43.6866" lon="1.46327">
        <ele>150.127509</ele>
        <time>2023-09-17T09:04:54.424Z</time>
      </trkpt>
      <trkpt lat="43.6866" lon="1.46327">
        <ele>150.127509</ele>
        <time>2023-09-17T09:04:54.424Z</time>
      </trkpt>
      <trkpt lat="43.68666" lon="1.4633">
        <ele>150.244252</ele>
        <time>2023-09-17T09:04:55.424Z</time>
      </trkpt>
      <trkpt lat="43.68666" lon="1.4633">
        <ele>150.244252</ele>
        <time>2023-09-17T09:04:55.424Z</time>
      </trkpt>
      <trkpt lat="43.68672" lon="1.46333">
        <ele>150.385252</ele>
        <time>2023-09-17T09:04:56.424Z</time>
      </trkpt>
      <trkpt lat="43.68672" lon="1.46333">
        <ele>150.385252</ele>
        <time>2023-09-17T09:04:56.424Z</time>
      </trkpt>
      <trkpt lat="43.68678" lon="1.46335">
        <ele>150.497913</ele>
        <time>2023-09-17T09:04:57.424Z</time>
      </trkpt>
      <trkpt lat="43.68683" lon="1.46336">
        <ele>150.615662</ele>
        <time>2023-09-17T09:04:58.424Z</time>
      </trkpt>
      <trkpt lat="43.68689" lon="1.46335">
        <ele>150.726935</ele>
        <time>2023-09-17T09:04:59.424Z</time>
      </trkpt>
      <trkpt lat="43.68695" lon="1.46334">
        <ele>150.853934</ele>
        <time>2023-09-17T09:05:00.424Z</time>
      </trkpt>
      <trkpt lat="43.68695" lon="1.46334">
        <ele>150.853934</ele>
        <time>2023-09-17T09:05:00.424Z</time>
      </trkpt>
      <trkpt lat="43.687" lon="1.46333">
        <ele>150.964211</ele>
        <time>2023-09-17T09:05:01.424Z</time>
      </trkpt>
      <trkpt lat="43.68705" lon="1.46332">
        <ele>151.067962</ele>
        <time>2023-09-17T09:05:02.424Z</time>
      </trkpt>
      <trkpt lat="43.68705" lon="1.46332">
        <ele>151.067962</ele>
        <time>2023-09-17T09:05:02.424Z</time>
      </trkpt>
      <trkpt lat="43.68711" lon="1.46332">
        <ele>151.185258</ele>
        <time>2023-09-17T09:05:03.424Z</time>
      </trkpt>
      <trkpt lat="43.68717" lon="1.46333">
        <ele>151.311488</ele>
        <time>2023-09-17T09:05:04.424Z</time>
      </trkpt>
      <trkpt lat="43.68717" lon="1.46333">
        <ele>151.311488</ele>
        <time>2023-09-17T09:05:04.424Z</time>
      </trkpt>
      <trkpt lat="43.68722" lon="1.46334">
        <ele>151.424537</ele>
        <time>2023-09-17T09:05:05.424Z</time>
      </trkpt>
      <trkpt lat="43.68726" lon="1.46336">
        <ele>151.512196</ele>
        <time>2023-09-17T09:05:06.424Z</time>
      </trkpt>
      <trkpt lat="43.68731" lon="1.46338">
        <ele>151.61972</ele>
        <time>2023-09-17T09:05:07.424Z</time>
      </trkpt>
      <trkpt lat="43.68731" lon="1.46338">
        <ele>151.61972</ele>
        <time>2023-09-17T09:05:07.424Z</time>
      </trkpt>
      <trkpt lat="43.68736" lon="1.4634">
        <ele>151.71894</ele>
        <time>2023-09-17T09:05:08.424Z</time>
      </trkpt>
      <trkpt lat="43.6874" lon="1.46342">
        <ele>151.810837</ele>
        <time>2023-09-17T09:05:08.424Z</time>
      </trkpt>
      <trkpt lat="43.6874" lon="1.46342">
        <ele>151.810837</ele>
        <time>2023-09-17T09:05:08.424Z</time>
      </trkpt>
      <trkpt lat="43.68744" lon="1.46344">
        <ele>151.901765</ele>
        <time>2023-09-17T09:05:10.424Z</time>
      </trkpt>
      <trkpt lat="43.68744" lon="1.46344">
        <ele>151.901765</ele>
        <time>2023-09-17T09:05:10.424Z</time>
      </trkpt>
      <trkpt lat="43.68749" lon="1.46345">
        <ele>151.999014</ele>
        <time>2023-09-17T09:05:11.424Z</time>
      </trkpt>
      <trkpt lat="43.68749" lon="1.46345">
        <ele>151.999014</ele>
        <time>2023-09-17T09:05:11.424Z</time>
      </trkpt>
      <trkpt lat="43.68753" lon="1.46346">
        <ele>152.086467</ele>
        <time>2023-09-17T09:05:12.424Z</time>
      </trkpt>
      <trkpt lat="43.68753" lon="1.46346">
        <ele>152.086467</ele>
        <time>2023-09-17T09:05:12.424Z</time>
      </trkpt>
      <trkpt lat="43.68757" lon="1.46347">
        <ele>152.165166</ele>
        <time>2023-09-17T09:05:13.424Z</time>
      </trkpt>
      <trkpt lat="43.68761" lon="1.46348">
        <ele>152.244048</ele>
        <time>2023-09-17T09:05:13.424Z</time>
      </trkpt>
      <trkpt lat="43.68761" lon="1.46348">
        <ele>152.244048</ele>
        <time>2023-09-17T09:05:13.424Z</time>
      </trkpt>
      <trkpt lat="43.68764" lon="1.46348">
        <ele>152.314575</ele>
        <time>2023-09-17T09:05:14.424Z</time>
      </trkpt>
      <trkpt lat="43.68776" lon="1.46354">
        <ele>152.571279</ele>
        <time>2023-09-17T09:05:16.424Z</time>
      </trkpt>
      <trkpt lat="43.68776" lon="1.46354">
        <ele>152.571279</ele>
        <time>2023-09-17T09:05:16.424Z</time>
      </trkpt>
      <trkpt lat="43.68779" lon="1.46355">
        <ele>152.637935</ele>
        <time>2023-09-17T09:05:17.424Z</time>
      </trkpt>
      <trkpt lat="43.68783" lon="1.46357">
        <ele>152.72108</ele>
        <time>2023-09-17T09:05:18.424Z</time>
      </trkpt>
      <trkpt lat="43.68787" lon="1.46359">
        <ele>152.819448</ele>
        <time>2023-09-17T09:05:19.424Z</time>
      </trkpt>
      <trkpt lat="43.68792" lon="1.46361">
        <ele>152.920097</ele>
        <time>2023-09-17T09:05:20.424Z</time>
      </trkpt>
      <trkpt lat="43.68795" lon="1.46363">
        <ele>152.995009</ele>
        <time>2023-09-17T09:05:22.424Z</time>
      </trkpt>
      <trkpt lat="43.688" lon="1.46364">
        <ele>153.082462</ele>
        <time>2023-09-17T09:05:23.424Z</time>
      </trkpt>
      <trkpt lat="43.688" lon="1.46364">
        <ele>153.082462</ele>
        <time>2023-09-17T09:05:23.424Z</time>
      </trkpt>
      <trkpt lat="43.68804" lon="1.46365">
        <ele>153.178057</ele>
        <time>2023-09-17T09:05:24.424Z</time>
      </trkpt>
      <trkpt lat="43.68804" lon="1.46365">
        <ele>153.178057</ele>
        <time>2023-09-17T09:05:24.424Z</time>
      </trkpt>
      <trkpt lat="43.68808" lon="1.46365">
        <ele>153.248081</ele>
        <time>2023-09-17T09:05:25.424Z</time>
      </trkpt>
      <trkpt lat="43.68814" lon="1.46364">
        <ele>153.37295</ele>
        <time>2023-09-17T09:05:26.424Z</time>
      </trkpt>
      <trkpt lat="43.68822" lon="1.46365">
        <ele>153.487206</ele>
        <time>2023-09-17T09:05:27.424Z</time>
      </trkpt>
      <trkpt lat="43.68828" lon="1.46366">
        <ele>153.578931</ele>
        <time>2023-09-17T09:05:28.424Z</time>
      </trkpt>
      <trkpt lat="43.68834" lon="1.46369">
        <ele>153.681737</ele>
        <time>2023-09-17T09:05:29.424Z</time>
      </trkpt>
      <trkpt lat="43.68834" lon="1.46369">
        <ele>153.681737</ele>
        <time>2023-09-17T09:05:29.424Z</time>
      </trkpt>
      <trkpt lat="43.6884" lon="1.46372">
        <ele>153.768644</ele>
        <time>2023-09-17T09:05:30.424Z</time>
      </trkpt>
      <trkpt lat="43.68844" lon="1.46375">
        <ele>153.838359</ele>
        <time>2023-09-17T09:05:31.424Z</time>
      </trkpt>
      <trkpt lat="43.68844" lon="1.46375">
        <ele>153.838359</ele>
        <time>2023-09-17T09:05:31.424Z</time>
      </trkpt>
      <trkpt lat="43.68846" lon="1.46377">
        <ele>153.872795</ele>
        <time>2023-09-17T09:05:33.424Z</time>
      </trkpt>
      <trkpt lat="43.68853" lon="1.4638">
        <ele>153.986662</ele>
        <time>2023-09-17T09:05:34.424Z</time>
      </trkpt>
      <trkpt lat="43.68853" lon="1.4638">
        <ele>153.986662</ele>
        <time>2023-09-17T09:05:34.424Z</time>
      </trkpt>
      <trkpt lat="43.68856" lon="1.46381">
        <ele>154.039705</ele>
        <time>2023-09-17T09:05:37.424Z</time>
      </trkpt>
      <trkpt lat="43.68856" lon="1.46381">
        <ele>154.039705</ele>
        <time>2023-09-17T09:05:37.424Z</time>
      </trkpt>
      <trkpt lat="43.68861" lon="1.46383">
        <ele>154.104842</ele>
        <time>2023-09-17T09:05:37.424Z</time>
      </trkpt>
      <trkpt lat="43.68861" lon="1.46383">
        <ele>154.104842</ele>
        <time>2023-09-17T09:05:37.424Z</time>
      </trkpt>
      <trkpt lat="43.68868" lon="1.46386">
        <ele>154.217554</ele>
        <time>2023-09-17T09:05:38.424Z</time>
      </trkpt>
      <trkpt lat="43.68872" lon="1.46386">
        <ele>154.28039</ele>
        <time>2023-09-17T09:05:41.424Z</time>
      </trkpt>
      <trkpt lat="43.68883" lon="1.46385">
        <ele>154.440508</ele>
        <time>2023-09-17T09:05:41.424Z</time>
      </trkpt>
      <trkpt lat="43.68887" lon="1.46386">
        <ele>154.497695</ele>
        <time>2023-09-17T09:05:43.424Z</time>
      </trkpt>
      <trkpt lat="43.68892" lon="1.46387">
        <ele>154.583475</ele>
        <time>2023-09-17T09:05:44.424Z</time>
      </trkpt>
      <trkpt lat="43.68897" lon="1.46387">
        <ele>154.652289</ele>
        <time>2023-09-17T09:05:45.424Z</time>
      </trkpt>
      <trkpt lat="43.68902" lon="1.46389">
        <ele>154.733889</ele>
        <time>2023-09-17T09:05:47.424Z</time>
      </trkpt>
      <trkpt lat="43.68906" lon="1.4639">
        <ele>154.798486</ele>
        <time>2023-09-17T09:05:48.424Z</time>
      </trkpt>
      <trkpt lat="43.68913" lon="1.46393">
        <ele>154.904869</ele>
        <time>2023-09-17T09:05:49.424Z</time>
      </trkpt>
      <trkpt lat="43.68918" lon="1.46394">
        <ele>154.969728</ele>
        <time>2023-09-17T09:05:50.424Z</time>
      </trkpt>
      <trkpt lat="43.68918" lon="1.46394">
        <ele>154.969728</ele>
        <time>2023-09-17T09:05:50.424Z</time>
      </trkpt>
      <trkpt lat="43.68923" lon="1.46398">
        <ele>155.058498</ele>
        <time>2023-09-17T09:05:52.424Z</time>
      </trkpt>
      <trkpt lat="43.68924" lon="1.46399">
        <ele>155.083884</ele>
        <time>2023-09-17T09:05:54.424Z</time>
      </trkpt>
      <trkpt lat="43.68924" lon="1.46399">
        <ele>155.083884</ele>
        <time>2023-09-17T09:05:54.424Z</time>
      </trkpt>
      <trkpt lat="43.68927" lon="1.464">
        <ele>155.125171</ele>
        <time>2023-09-17T09:05:55.424Z</time>
      </trkpt>
      <trkpt lat="43.68927" lon="1.464">
        <ele>155.125171</ele>
        <time>2023-09-17T09:05:55.424Z</time>
      </trkpt>
      <trkpt lat="43.68929" lon="1.46402">
        <ele>155.165229</ele>
        <time>2023-09-17T09:05:55.424Z</time>
      </trkpt>
      <trkpt lat="43.68929" lon="1.46402">
        <ele>155.165229</ele>
        <time>2023-09-17T09:05:55.424Z</time>
      </trkpt>
      <trkpt lat="43.68937" lon="1.46406">
        <ele>155.283367</ele>
        <time>2023-09-17T09:05:58.424Z</time>
      </trkpt>
      <trkpt lat="43.68937" lon="1.46406">
        <ele>155.283367</ele>
        <time>2023-09-17T09:05:58.424Z</time>
      </trkpt>
      <trkpt lat="43.6894" lon="1.46408">
        <ele>155.335465</ele>
        <time>2023-09-17T09:05:59.424Z</time>
      </trkpt>
      <trkpt lat="43.6894" lon="1.46408">
        <ele>155.335465</ele>
        <time>2023-09-17T09:05:59.424Z</time>
      </trkpt>
      <trkpt lat="43.68943" lon="1.4641">
        <ele>155.385261</ele>
        <time>2023-09-17T09:06:01.424Z</time>
      </trkpt>
      <trkpt lat="43.68943" lon="1.4641">
        <ele>155.385261</ele>
        <time>2023-09-17T09:06:01.424Z</time>
      </trkpt>
      <trkpt lat="43.68946" lon="1.46412">
        <ele>155.442307</ele>
        <time>2023-09-17T09:06:02.424Z</time>
      </trkpt>
      <trkpt lat="43.68951" lon="1.46415">
        <ele>155.515443</ele>
        <time>2023-09-17T09:06:02.424Z</time>
      </trkpt>
      <trkpt lat="43.68951" lon="1.46415">
        <ele>155.515443</ele>
        <time>2023-09-17T09:06:02.424Z</time>
      </trkpt>
      <trkpt lat="43.68957" lon="1.46417">
        <ele>155.609701</ele>
        <time>2023-09-17T09:06:03.424Z</time>
      </trkpt>
      <trkpt lat="43.6896" lon="1.46418">
        <ele>155.661675</ele>
        <time>2023-09-17T09:06:05.424Z</time>
      </trkpt>
      <trkpt lat="43.6896" lon="1.46418">
        <ele>155.661675</ele>
        <time>2023-09-17T09:06:05.424Z</time>
      </trkpt>
      <trkpt lat="43.68963" lon="1.46419">
        <ele>155.702749</ele>
        <time>2023-09-17T09:06:06.424Z</time>
      </trkpt>
      <trkpt lat="43.68968" lon="1.46419">
        <ele>155.782061</ele>
        <time>2023-09-17T09:06:07.424Z</time>
      </trkpt>
      <trkpt lat="43.6898" lon="1.46419">
        <ele>155.964505</ele>
        <time>2023-09-17T09:06:09.424Z</time>
      </trkpt>
      <trkpt lat="43.68993" lon="1.4642">
        <ele>156.268379</ele>
        <time>2023-09-17T09:06:11.424Z</time>
      </trkpt>
      <trkpt lat="43.68996" lon="1.46421">
        <ele>156.381148</ele>
        <time>2023-09-17T09:06:12.424Z</time>
      </trkpt>
      <trkpt lat="43.68996" lon="1.46421">
        <ele>156.381148</ele>
        <time>2023-09-17T09:06:12.424Z</time>
      </trkpt>
      <trkpt lat="43.69001" lon="1.46422">
        <ele>156.553909</ele>
        <time>2023-09-17T09:06:14.424Z</time>
      </trkpt>
      <trkpt lat="43.69001" lon="1.46422">
        <ele>156.553909</ele>
        <time>2023-09-17T09:06:14.424Z</time>
      </trkpt>
      <trkpt lat="43.69008" lon="1.46425">
        <ele>156.756003</ele>
        <time>2023-09-17T09:06:14.424Z</time>
      </trkpt>
      <trkpt lat="43.69013" lon="1.46428">
        <ele>156.924554</ele>
        <time>2023-09-17T09:06:16.424Z</time>
      </trkpt>
      <trkpt lat="43.69019" lon="1.46432">
        <ele>157.142702</ele>
        <time>2023-09-17T09:06:17.424Z</time>
      </trkpt>
      <trkpt lat="43.69025" lon="1.46438">
        <ele>157.379261</ele>
        <time>2023-09-17T09:06:18.424Z</time>
      </trkpt>
      <trkpt lat="43.69025" lon="1.46438">
        <ele>157.379261</ele>
        <time>2023-09-17T09:06:18.424Z</time>
      </trkpt>
      <trkpt lat="43.69029" lon="1.46442">
        <ele>157.538888</ele>
        <time>2023-09-17T09:06:18.424Z</time>
      </trkpt>
      <trkpt lat="43.69036" lon="1.46449">
        <ele>157.800243</ele>
        <time>2023-09-17T09:06:21.424Z</time>
      </trkpt>
      <trkpt lat="43.69041" lon="1.46456">
        <ele>158.032226</ele>
        <time>2023-09-17T09:06:21.424Z</time>
      </trkpt>
      <trkpt lat="43.69041" lon="1.46456">
        <ele>158.032226</ele>
        <time>2023-09-17T09:06:21.424Z</time>
      </trkpt>
      <trkpt lat="43.69045" lon="1.46462">
        <ele>158.238009</ele>
        <time>2023-09-17T09:06:22.424Z</time>
      </trkpt>
      <trkpt lat="43.69045" lon="1.46462">
        <ele>158.238009</ele>
        <time>2023-09-17T09:06:22.424Z</time>
      </trkpt>
      <trkpt lat="43.6905" lon="1.4647">
        <ele>158.452644</ele>
        <time>2023-09-17T09:06:24.424Z</time>
      </trkpt>
      <trkpt lat="43.6905" lon="1.4647">
        <ele>158.452644</ele>
        <time>2023-09-17T09:06:24.424Z</time>
      </trkpt>
      <trkpt lat="43.6905" lon="1.4647">
        <ele>158.454926</ele>
        <time>2023-09-17T09:06:25.424Z</time>
      </trkpt>
      <trkpt lat="43.69056" lon="1.46483">
        <ele>158.817531</ele>
        <time>2023-09-17T09:06:26.424Z</time>
      </trkpt>
      <trkpt lat="43.69056" lon="1.46483">
        <ele>158.817531</ele>
        <time>2023-09-17T09:06:26.424Z</time>
      </trkpt>
      <trkpt lat="43.69059" lon="1.46491">
        <ele>159.034784</ele>
        <time>2023-09-17T09:06:27.424Z</time>
      </trkpt>
      <trkpt lat="43.69059" lon="1.46491">
        <ele>159.034784</ele>
        <time>2023-09-17T09:06:27.424Z</time>
      </trkpt>
      <trkpt lat="43.69063" lon="1.46502">
        <ele>159.298607</ele>
        <time>2023-09-17T09:06:29.424Z</time>
      </trkpt>
      <trkpt lat="43.69063" lon="1.46502">
        <ele>159.298607</ele>
        <time>2023-09-17T09:06:29.424Z</time>
      </trkpt>
      <trkpt lat="43.69065" lon="1.46507">
        <ele>159.432722</ele>
        <time>2023-09-17T09:06:30.424Z</time>
      </trkpt>
      <trkpt lat="43.69065" lon="1.46507">
        <ele>159.432722</ele>
        <time>2023-09-17T09:06:30.424Z</time>
      </trkpt>
      <trkpt lat="43.69066" lon="1.46512">
        <ele>159.559435</ele>
        <time>2023-09-17T09:06:31.424Z</time>
      </trkpt>
      <trkpt lat="43.69066" lon="1.46512">
        <ele>159.559435</ele>
        <time>2023-09-17T09:06:31.424Z</time>
      </trkpt>
      <trkpt lat="43.69067" lon="1.46519">
        <ele>159.718405</ele>
        <time>2023-09-17T09:06:33.424Z</time>
      </trkpt>
      <trkpt lat="43.69067" lon="1.46519">
        <ele>159.718405</ele>
        <time>2023-09-17T09:06:33.424Z</time>
      </trkpt>
      <trkpt lat="43.69066" lon="1.46526">
        <ele>159.867243</ele>
        <time>2023-09-17T09:06:34.424Z</time>
      </trkpt>
      <trkpt lat="43.69066" lon="1.46526">
        <ele>159.867243</ele>
        <time>2023-09-17T09:06:34.424Z</time>
      </trkpt>
      <trkpt lat="43.69066" lon="1.46531">
        <ele>159.983987</ele>
        <time>2023-09-17T09:06:34.424Z</time>
      </trkpt>
      <trkpt lat="43.69066" lon="1.46531">
        <ele>159.983987</ele>
        <time>2023-09-17T09:06:34.424Z</time>
      </trkpt>
      <trkpt lat="43.69065" lon="1.46536">
        <ele>160.115061</ele>
        <time>2023-09-17T09:06:36.424Z</time>
      </trkpt>
      <trkpt lat="43.69065" lon="1.46536">
        <ele>160.115061</ele>
        <time>2023-09-17T09:06:36.424Z</time>
      </trkpt>
      <trkpt lat="43.69063" lon="1.46542">
        <ele>160.242795</ele>
        <time>2023-09-17T09:06:37.424Z</time>
      </trkpt>
      <trkpt lat="43.69063" lon="1.46542">
        <ele>160.242795</ele>
        <time>2023-09-17T09:06:37.424Z</time>
      </trkpt>
      <trkpt lat="43.69062" lon="1.46546">
        <ele>160.345601</ele>
        <time>2023-09-17T09:06:38.424Z</time>
      </trkpt>
      <trkpt lat="43.69062" lon="1.46546">
        <ele>160.345601</ele>
        <time>2023-09-17T09:06:38.424Z</time>
      </trkpt>
      <trkpt lat="43.69061" lon="1.46549">
        <ele>160.416418</ele>
        <time>2023-09-17T09:06:40.424Z</time>
      </trkpt>
      <trkpt lat="43.69061" lon="1.46549">
        <ele>160.416418</ele>
        <time>2023-09-17T09:06:40.424Z</time>
      </trkpt>
      <trkpt lat="43.6906" lon="1.4655">
        <ele>160.453658</ele>
        <time>2023-09-17T09:06:41.424Z</time>
      </trkpt>
      <trkpt lat="43.69059" lon="1.46552">
        <ele>160.507429</ele>
        <time>2023-09-17T09:06:42.424Z</time>
      </trkpt>
      <trkpt lat="43.69059" lon="1.46552">
        <ele>160.507429</ele>
        <time>2023-09-17T09:06:42.424Z</time>
      </trkpt>
      <trkpt lat="43.69059" lon="1.46553">
        <ele>160.541774</ele>
        <time>2023-09-17T09:06:43.424Z</time>
      </trkpt>
      <trkpt lat="43.69059" lon="1.46553">
        <ele>160.541774</ele>
        <time>2023-09-17T09:06:43.424Z</time>
      </trkpt>
      <trkpt lat="43.69059" lon="1.46555">
        <ele>160.59425</ele>
        <time>2023-09-17T09:06:44.424Z</time>
      </trkpt>
      <trkpt lat="43.6906" lon="1.4656">
        <ele>160.697694</ele>
        <time>2023-09-17T09:06:45.424Z</time>
      </trkpt>
      <trkpt lat="43.69062" lon="1.46564">
        <ele>160.816021</ele>
        <time>2023-09-17T09:06:46.424Z</time>
      </trkpt>
      <trkpt lat="43.69062" lon="1.46564">
        <ele>160.816021</ele>
        <time>2023-09-17T09:06:46.424Z</time>
      </trkpt>
      <trkpt lat="43.69064" lon="1.46567">
        <ele>160.897446</ele>
        <time>2023-09-17T09:06:47.424Z</time>
      </trkpt>
      <trkpt lat="43.69069" lon="1.46571">
        <ele>161.076983</ele>
        <time>2023-09-17T09:06:48.424Z</time>
      </trkpt>
      <trkpt lat="43.69071" lon="1.46573">
        <ele>161.163946</ele>
        <time>2023-09-17T09:06:50.424Z</time>
      </trkpt>
      <trkpt lat="43.69071" lon="1.46573">
        <ele>161.163946</ele>
        <time>2023-09-17T09:06:50.424Z</time>
      </trkpt>
      <trkpt lat="43.69073" lon="1.46574">
        <ele>161.238255</ele>
        <time>2023-09-17T09:06:51.424Z</time>
      </trkpt>
      <trkpt lat="43.69073" lon="1.46574">
        <ele>161.238255</ele>
        <time>2023-09-17T09:06:51.424Z</time>
      </trkpt>
      <trkpt lat="43.69078" lon="1.46574">
        <ele>161.405738</ele>
        <time>2023-09-17T09:06:52.424Z</time>
      </trkpt>
      <trkpt lat="43.69078" lon="1.46574">
        <ele>161.405738</ele>
        <time>2023-09-17T09:06:52.424Z</time>
      </trkpt>
      <trkpt lat="43.69082" lon="1.46575">
        <ele>161.530142</ele>
        <time>2023-09-17T09:06:53.424Z</time>
      </trkpt>
      <trkpt lat="43.69082" lon="1.46575">
        <ele>161.530142</ele>
        <time>2023-09-17T09:06:53.424Z</time>
      </trkpt>
      <trkpt lat="43.69088" lon="1.46576">
        <ele>161.714377</ele>
        <time>2023-09-17T09:06:54.424Z</time>
      </trkpt>
      <trkpt lat="43.69088" lon="1.46576">
        <ele>161.714377</ele>
        <time>2023-09-17T09:06:54.424Z</time>
      </trkpt>
      <trkpt lat="43.69095" lon="1.46577">
        <ele>161.731971</ele>
        <time>2023-09-17T09:06:56.424Z</time>
      </trkpt>
      <trkpt lat="43.69095" lon="1.46577">
        <ele>161.731971</ele>
        <time>2023-09-17T09:06:56.424Z</time>
      </trkpt>
      <trkpt lat="43.69099" lon="1.46578">
        <ele>161.743476</ele>
        <time>2023-09-17T09:06:56.424Z</time>
      </trkpt>
      <trkpt lat="43.69099" lon="1.46578">
        <ele>161.743476</ele>
        <time>2023-09-17T09:06:56.424Z</time>
      </trkpt>
      <trkpt lat="43.69104" lon="1.46579">
        <ele>161.758184</ele>
        <time>2023-09-17T09:06:58.424Z</time>
      </trkpt>
      <trkpt lat="43.69104" lon="1.46579">
        <ele>161.758184</ele>
        <time>2023-09-17T09:06:58.424Z</time>
      </trkpt>
      <trkpt lat="43.69109" lon="1.4658">
        <ele>161.769583</ele>
        <time>2023-09-17T09:06:59.424Z</time>
      </trkpt>
      <trkpt lat="43.69109" lon="1.4658">
        <ele>161.769583</ele>
        <time>2023-09-17T09:06:59.424Z</time>
      </trkpt>
      <trkpt lat="43.69113" lon="1.46581">
        <ele>161.782185</ele>
        <time>2023-09-17T09:07:00.424Z</time>
      </trkpt>
      <trkpt lat="43.69119" lon="1.46582">
        <ele>161.797781</ele>
        <time>2023-09-17T09:07:02.424Z</time>
      </trkpt>
      <trkpt lat="43.69123" lon="1.46584">
        <ele>161.809321</ele>
        <time>2023-09-17T09:07:03.424Z</time>
      </trkpt>
      <trkpt lat="43.69123" lon="1.46584">
        <ele>161.809321</ele>
        <time>2023-09-17T09:07:03.424Z</time>
      </trkpt>
      <trkpt lat="43.69128" lon="1.46586">
        <ele>161.822889</ele>
        <time>2023-09-17T09:07:03.424Z</time>
      </trkpt>
      <trkpt lat="43.6913" lon="1.46591">
        <ele>161.834133</ele>
        <time>2023-09-17T09:07:05.424Z</time>
      </trkpt>
      <trkpt lat="43.69132" lon="1.46596">
        <ele>161.844815</ele>
        <time>2023-09-17T09:07:06.424Z</time>
      </trkpt>
      <trkpt lat="43.69133" lon="1.46602">
        <ele>161.856967</ele>
        <time>2023-09-17T09:07:07.424Z</time>
      </trkpt>
      <trkpt lat="43.69133" lon="1.46602">
        <ele>161.856967</ele>
        <time>2023-09-17T09:07:07.424Z</time>
      </trkpt>
      <trkpt lat="43.69136" lon="1.46615">
        <ele>161.883108</ele>
        <time>2023-09-17T09:07:09.424Z</time>
      </trkpt>
      <trkpt lat="43.69136" lon="1.46615">
        <ele>161.883108</ele>
        <time>2023-09-17T09:07:09.424Z</time>
      </trkpt>
      <trkpt lat="43.69137" lon="1.46619">
        <ele>161.892154</ele>
        <time>2023-09-17T09:07:10.424Z</time>
      </trkpt>
      <trkpt lat="43.69139" lon="1.46625">
        <ele>161.905659</ele>
        <time>2023-09-17T09:07:12.424Z</time>
      </trkpt>
      <trkpt lat="43.69139" lon="1.46625">
        <ele>161.905659</ele>
        <time>2023-09-17T09:07:12.424Z</time>
      </trkpt>
      <trkpt lat="43.6914" lon="1.46631">
        <ele>161.916314</ele>
        <time>2023-09-17T09:07:13.424Z</time>
      </trkpt>
      <trkpt lat="43.69141" lon="1.46638">
        <ele>161.930301</ele>
        <time>2023-09-17T09:07:14.424Z</time>
      </trkpt>
      <trkpt lat="43.69143" lon="1.46645">
        <ele>161.94563</ele>
        <time>2023-09-17T09:07:15.424Z</time>
      </trkpt>
      <trkpt lat="43.69143" lon="1.4665">
        <ele>161.956008</ele>
        <time>2023-09-17T09:07:16.424Z</time>
      </trkpt>
      <trkpt lat="43.69145" lon="1.46657">
        <ele>161.970603</ele>
        <time>2023-09-17T09:07:17.424Z</time>
      </trkpt>
      <trkpt lat="43.69147" lon="1.46665">
        <ele>161.985605</ele>
        <time>2023-09-17T09:07:18.424Z</time>
      </trkpt>
      <trkpt lat="43.69149" lon="1.46672">
        <ele>162.001302</ele>
        <time>2023-09-17T09:07:19.424Z</time>
      </trkpt>
      <trkpt lat="43.69152" lon="1.46686">
        <ele>162.028951</ele>
        <time>2023-09-17T09:07:21.424Z</time>
      </trkpt>
      <trkpt lat="43.69152" lon="1.46686">
        <ele>162.028951</ele>
        <time>2023-09-17T09:07:21.424Z</time>
      </trkpt>
      <trkpt lat="43.69153" lon="1.46691">
        <ele>162.039714</ele>
        <time>2023-09-17T09:07:22.424Z</time>
      </trkpt>
      <trkpt lat="43.69153" lon="1.46691">
        <ele>162.039714</ele>
        <time>2023-09-17T09:07:22.424Z</time>
      </trkpt>
      <trkpt lat="43.69154" lon="1.46696">
        <ele>162.050555</ele>
        <time>2023-09-17T09:07:23.424Z</time>
      </trkpt>
      <trkpt lat="43.69156" lon="1.46705">
        <ele>162.067736</ele>
        <time>2023-09-17T09:07:25.424Z</time>
      </trkpt>
      <trkpt lat="43.69156" lon="1.46705">
        <ele>162.067736</ele>
        <time>2023-09-17T09:07:25.424Z</time>
      </trkpt>
      <trkpt lat="43.69159" lon="1.4672">
        <ele>162.09898</ele>
        <time>2023-09-17T09:07:27.424Z</time>
      </trkpt>
      <trkpt lat="43.69159" lon="1.4672">
        <ele>162.09898</ele>
        <time>2023-09-17T09:07:27.424Z</time>
      </trkpt>
      <trkpt lat="43.69161" lon="1.46724">
        <ele>162.107796</ele>
        <time>2023-09-17T09:07:28.424Z</time>
      </trkpt>
      <trkpt lat="43.69161" lon="1.46724">
        <ele>162.107796</ele>
        <time>2023-09-17T09:07:28.424Z</time>
      </trkpt>
      <trkpt lat="43.69162" lon="1.4673">
        <ele>162.118372</ele>
        <time>2023-09-17T09:07:29.424Z</time>
      </trkpt>
      <trkpt lat="43.69162" lon="1.46736">
        <ele>162.130858</ele>
        <time>2023-09-17T09:07:30.424Z</time>
      </trkpt>
      <trkpt lat="43.69163" lon="1.46743">
        <ele>162.145039</ele>
        <time>2023-09-17T09:07:32.424Z</time>
      </trkpt>
      <trkpt lat="43.69163" lon="1.46743">
        <ele>162.145039</ele>
        <time>2023-09-17T09:07:32.424Z</time>
      </trkpt>
      <trkpt lat="43.69164" lon="1.4675">
        <ele>162.15894</ele>
        <time>2023-09-17T09:07:33.424Z</time>
      </trkpt>
      <trkpt lat="43.69164" lon="1.46757">
        <ele>162.172967</ele>
        <time>2023-09-17T09:07:34.424Z</time>
      </trkpt>
      <trkpt lat="43.69164" lon="1.46763">
        <ele>162.184093</ele>
        <time>2023-09-17T09:07:35.424Z</time>
      </trkpt>
      <trkpt lat="43.69164" lon="1.46763">
        <ele>162.184093</ele>
        <time>2023-09-17T09:07:35.424Z</time>
      </trkpt>
      <trkpt lat="43.69164" lon="1.4677">
        <ele>162.197216</ele>
        <time>2023-09-17T09:07:36.424Z</time>
      </trkpt>
      <trkpt lat="43.69163" lon="1.46782">
        <ele>162.326479</ele>
        <time>2023-09-17T09:07:38.424Z</time>
      </trkpt>
      <trkpt lat="43.69163" lon="1.46782">
        <ele>162.326479</ele>
        <time>2023-09-17T09:07:38.424Z</time>
      </trkpt>
      <trkpt lat="43.69163" lon="1.46787">
        <ele>162.390125</ele>
        <time>2023-09-17T09:07:40.424Z</time>
      </trkpt>
      <trkpt lat="43.69163" lon="1.46793">
        <ele>162.456343</ele>
        <time>2023-09-17T09:07:41.424Z</time>
      </trkpt>
      <trkpt lat="43.69163" lon="1.46801">
        <ele>162.540447</ele>
        <time>2023-09-17T09:07:42.424Z</time>
      </trkpt>
      <trkpt lat="43.69163" lon="1.46806">
        <ele>162.597273</ele>
        <time>2023-09-17T09:07:43.424Z</time>
      </trkpt>
      <trkpt lat="43.69163" lon="1.46806">
        <ele>162.597273</ele>
        <time>2023-09-17T09:07:43.424Z</time>
      </trkpt>
      <trkpt lat="43.69162" lon="1.46813">
        <ele>162.67924</ele>
        <time>2023-09-17T09:07:44.424Z</time>
      </trkpt>
      <trkpt lat="43.69162" lon="1.4682">
        <ele>162.762445</ele>
        <time>2023-09-17T09:07:45.424Z</time>
      </trkpt>
      <trkpt lat="43.69162" lon="1.4682">
        <ele>162.762445</ele>
        <time>2023-09-17T09:07:45.424Z</time>
      </trkpt>
      <trkpt lat="43.69162" lon="1.46827">
        <ele>162.839984</ele>
        <time>2023-09-17T09:07:46.424Z</time>
      </trkpt>
      <trkpt lat="43.69161" lon="1.46834">
        <ele>162.916391</ele>
        <time>2023-09-17T09:07:47.424Z</time>
      </trkpt>
      <trkpt lat="43.69161" lon="1.46834">
        <ele>162.916391</ele>
        <time>2023-09-17T09:07:47.424Z</time>
      </trkpt>
      <trkpt lat="43.69161" lon="1.46841">
        <ele>163.001212</ele>
        <time>2023-09-17T09:07:49.424Z</time>
      </trkpt>
      <trkpt lat="43.69161" lon="1.46841">
        <ele>163.001212</ele>
        <time>2023-09-17T09:07:49.424Z</time>
      </trkpt>
      <trkpt lat="43.69159" lon="1.46848">
        <ele>163.081405</ele>
        <time>2023-09-17T09:07:50.424Z</time>
      </trkpt>
      <trkpt lat="43.69158" lon="1.46853">
        <ele>163.148455</ele>
        <time>2023-09-17T09:07:51.424Z</time>
      </trkpt>
      <trkpt lat="43.69158" lon="1.46853">
        <ele>163.148455</ele>
        <time>2023-09-17T09:07:51.424Z</time>
      </trkpt>
      <trkpt lat="43.69156" lon="1.46862">
        <ele>163.251604</ele>
        <time>2023-09-17T09:07:52.424Z</time>
      </trkpt>
      <trkpt lat="43.69156" lon="1.46862">
        <ele>163.251604</ele>
        <time>2023-09-17T09:07:52.424Z</time>
      </trkpt>
      <trkpt lat="43.69154" lon="1.46868">
        <ele>163.324832</ele>
        <time>2023-09-17T09:07:53.424Z</time>
      </trkpt>
      <trkpt lat="43.69154" lon="1.46868">
        <ele>163.324832</ele>
        <time>2023-09-17T09:07:53.424Z</time>
      </trkpt>
      <trkpt lat="43.69152" lon="1.46875">
        <ele>163.407686</ele>
        <time>2023-09-17T09:07:54.424Z</time>
      </trkpt>
      <trkpt lat="43.6915" lon="1.46882">
        <ele>163.501323</ele>
        <time>2023-09-17T09:07:55.424Z</time>
      </trkpt>
      <trkpt lat="43.6915" lon="1.46882">
        <ele>163.501323</ele>
        <time>2023-09-17T09:07:55.424Z</time>
      </trkpt>
      <trkpt lat="43.69148" lon="1.46889">
        <ele>163.587676</ele>
        <time>2023-09-17T09:07:56.424Z</time>
      </trkpt>
      <trkpt lat="43.69145" lon="1.46895">
        <ele>163.664859</ele>
        <time>2023-09-17T09:07:57.424Z</time>
      </trkpt>
      <trkpt lat="43.69145" lon="1.46895">
        <ele>163.664859</ele>
        <time>2023-09-17T09:07:57.424Z</time>
      </trkpt>
      <trkpt lat="43.69143" lon="1.46902">
        <ele>163.748128</ele>
        <time>2023-09-17T09:07:58.424Z</time>
      </trkpt>
      <trkpt lat="43.69143" lon="1.46902">
        <ele>163.748128</ele>
        <time>2023-09-17T09:07:58.424Z</time>
      </trkpt>
      <trkpt lat="43.69141" lon="1.46908">
        <ele>163.827326</ele>
        <time>2023-09-17T09:07:59.424Z</time>
      </trkpt>
      <trkpt lat="43.69139" lon="1.46914">
        <ele>163.896603</ele>
        <time>2023-09-17T09:08:00.424Z</time>
      </trkpt>
      <trkpt lat="43.69139" lon="1.46914">
        <ele>163.896603</ele>
        <time>2023-09-17T09:08:00.424Z</time>
      </trkpt>
      <trkpt lat="43.69136" lon="1.4692">
        <ele>163.978862</ele>
        <time>2023-09-17T09:08:01.424Z</time>
      </trkpt>
      <trkpt lat="43.69136" lon="1.4692">
        <ele>163.978862</ele>
        <time>2023-09-17T09:08:01.424Z</time>
      </trkpt>
      <trkpt lat="43.69135" lon="1.46926">
        <ele>164.049942</ele>
        <time>2023-09-17T09:08:02.424Z</time>
      </trkpt>
      <trkpt lat="43.69133" lon="1.46931">
        <ele>164.113704</ele>
        <time>2023-09-17T09:08:02.424Z</time>
      </trkpt>
      <trkpt lat="43.69133" lon="1.46931">
        <ele>164.113704</ele>
        <time>2023-09-17T09:08:02.424Z</time>
      </trkpt>
      <trkpt lat="43.69132" lon="1.46937">
        <ele>164.184784</ele>
        <time>2023-09-17T09:08:04.424Z</time>
      </trkpt>
      <trkpt lat="43.69131" lon="1.46943">
        <ele>164.261029</ele>
        <time>2023-09-17T09:08:04.424Z</time>
      </trkpt>
      <trkpt lat="43.69131" lon="1.46943">
        <ele>164.261029</ele>
        <time>2023-09-17T09:08:04.424Z</time>
      </trkpt>
      <trkpt lat="43.6913" lon="1.46949">
        <ele>164.329254</ele>
        <time>2023-09-17T09:08:06.424Z</time>
      </trkpt>
      <trkpt lat="43.69129" lon="1.46956">
        <ele>164.40282</ele>
        <time>2023-09-17T09:08:07.424Z</time>
      </trkpt>
      <trkpt lat="43.69128" lon="1.46962">
        <ele>164.48127</ele>
        <time>2023-09-17T09:08:08.424Z</time>
      </trkpt>
      <trkpt lat="43.69127" lon="1.46969">
        <ele>164.560465</ele>
        <time>2023-09-17T09:08:09.424Z</time>
      </trkpt>
      <trkpt lat="43.69126" lon="1.46975">
        <ele>164.632044</ele>
        <time>2023-09-17T09:08:10.424Z</time>
      </trkpt>
      <trkpt lat="43.69125" lon="1.46983">
        <ele>164.71457</ele>
        <time>2023-09-17T09:08:11.424Z</time>
      </trkpt>
      <trkpt lat="43.69124" lon="1.46989">
        <ele>164.794285</ele>
        <time>2023-09-17T09:08:12.424Z</time>
      </trkpt>
      <trkpt lat="43.69122" lon="1.46997">
        <ele>164.883158</ele>
        <time>2023-09-17T09:08:13.424Z</time>
      </trkpt>
      <trkpt lat="43.6912" lon="1.47003">
        <ele>164.960705</ele>
        <time>2023-09-17T09:08:14.424Z</time>
      </trkpt>
      <trkpt lat="43.69119" lon="1.4701">
        <ele>165.042862</ele>
        <time>2023-09-17T09:08:15.424Z</time>
      </trkpt>
      <trkpt lat="43.69119" lon="1.47016">
        <ele>165.117776</ele>
        <time>2023-09-17T09:08:16.424Z</time>
      </trkpt>
      <trkpt lat="43.69119" lon="1.47016">
        <ele>165.117776</ele>
        <time>2023-09-17T09:08:16.424Z</time>
      </trkpt>
      <trkpt lat="43.69118" lon="1.47023">
        <ele>165.195033</ele>
        <time>2023-09-17T09:08:17.424Z</time>
      </trkpt>
      <trkpt lat="43.69118" lon="1.47023">
        <ele>165.195033</ele>
        <time>2023-09-17T09:08:17.424Z</time>
      </trkpt>
      <trkpt lat="43.69117" lon="1.47029">
        <ele>165.268661</ele>
        <time>2023-09-17T09:08:18.424Z</time>
      </trkpt>
      <trkpt lat="43.69117" lon="1.47029">
        <ele>165.268661</ele>
        <time>2023-09-17T09:08:18.424Z</time>
      </trkpt>
      <trkpt lat="43.69116" lon="1.47035">
        <ele>165.343575</ele>
        <time>2023-09-17T09:08:19.424Z</time>
      </trkpt>
      <trkpt lat="43.69116" lon="1.47035">
        <ele>165.343575</ele>
        <time>2023-09-17T09:08:19.424Z</time>
      </trkpt>
      <trkpt lat="43.69116" lon="1.47042">
        <ele>165.42105</ele>
        <time>2023-09-17T09:08:20.424Z</time>
      </trkpt>
      <trkpt lat="43.69116" lon="1.47042">
        <ele>165.42105</ele>
        <time>2023-09-17T09:08:20.424Z</time>
      </trkpt>
      <trkpt lat="43.69114" lon="1.47047">
        <ele>165.491667</ele>
        <time>2023-09-17T09:08:21.424Z</time>
      </trkpt>
      <trkpt lat="43.69114" lon="1.47047">
        <ele>165.491667</ele>
        <time>2023-09-17T09:08:21.424Z</time>
      </trkpt>
      <trkpt lat="43.69114" lon="1.47053">
        <ele>165.56541</ele>
        <time>2023-09-17T09:08:22.424Z</time>
      </trkpt>
      <trkpt lat="43.69112" lon="1.4706">
        <ele>165.648296</ele>
        <time>2023-09-17T09:08:23.424Z</time>
      </trkpt>
      <trkpt lat="43.69112" lon="1.4706">
        <ele>165.648296</ele>
        <time>2023-09-17T09:08:23.424Z</time>
      </trkpt>
      <trkpt lat="43.69111" lon="1.47067">
        <ele>165.728862</ele>
        <time>2023-09-17T09:08:24.424Z</time>
      </trkpt>
      <trkpt lat="43.69111" lon="1.47067">
        <ele>165.728862</ele>
        <time>2023-09-17T09:08:24.424Z</time>
      </trkpt>
      <trkpt lat="43.69111" lon="1.47072">
        <ele>165.796761</ele>
        <time>2023-09-17T09:08:25.424Z</time>
      </trkpt>
      <trkpt lat="43.6911" lon="1.47079">
        <ele>165.877537</ele>
        <time>2023-09-17T09:08:26.424Z</time>
      </trkpt>
      <trkpt lat="43.6911" lon="1.47079">
        <ele>165.877537</ele>
        <time>2023-09-17T09:08:26.424Z</time>
      </trkpt>
      <trkpt lat="43.69109" lon="1.47085">
        <ele>165.950013</ele>
        <time>2023-09-17T09:08:27.424Z</time>
      </trkpt>
      <trkpt lat="43.69108" lon="1.47091">
        <ele>166.018133</ele>
        <time>2023-09-17T09:08:28.424Z</time>
      </trkpt>
      <trkpt lat="43.69108" lon="1.47091">
        <ele>166.018133</ele>
        <time>2023-09-17T09:08:28.424Z</time>
      </trkpt>
      <trkpt lat="43.69108" lon="1.47097">
        <ele>166.088314</ele>
        <time>2023-09-17T09:08:29.424Z</time>
      </trkpt>
      <trkpt lat="43.69108" lon="1.47102">
        <ele>166.157305</ele>
        <time>2023-09-17T09:08:30.424Z</time>
      </trkpt>
      <trkpt lat="43.69108" lon="1.47102">
        <ele>166.157305</ele>
        <time>2023-09-17T09:08:30.424Z</time>
      </trkpt>
      <trkpt lat="43.69107" lon="1.47109">
        <ele>166.233391</ele>
        <time>2023-09-17T09:08:31.424Z</time>
      </trkpt>
      <trkpt lat="43.69106" lon="1.47116">
        <ele>166.317437</ele>
        <time>2023-09-17T09:08:32.424Z</time>
      </trkpt>
      <trkpt lat="43.69104" lon="1.47122">
        <ele>166.405263</ele>
        <time>2023-09-17T09:08:33.424Z</time>
      </trkpt>
      <trkpt lat="43.69103" lon="1.47129">
        <ele>166.48866</ele>
        <time>2023-09-17T09:08:34.424Z</time>
      </trkpt>
      <trkpt lat="43.691" lon="1.47136">
        <ele>166.583031</ele>
        <time>2023-09-17T09:08:34.424Z</time>
      </trkpt>
      <trkpt lat="43.691" lon="1.47136">
        <ele>166.583031</ele>
        <time>2023-09-17T09:08:34.424Z</time>
      </trkpt>
      <trkpt lat="43.69098" lon="1.47142">
        <ele>166.662761</ele>
        <time>2023-09-17T09:08:36.424Z</time>
      </trkpt>
      <trkpt lat="43.69095" lon="1.47148">
        <ele>166.741447</ele>
        <time>2023-09-17T09:08:36.424Z</time>
      </trkpt>
      <trkpt lat="43.69095" lon="1.47148">
        <ele>166.741447</ele>
        <time>2023-09-17T09:08:36.424Z</time>
      </trkpt>
      <trkpt lat="43.69093" lon="1.47154">
        <ele>166.826701</ele>
        <time>2023-09-17T09:08:37.424Z</time>
      </trkpt>
      <trkpt lat="43.6909" lon="1.47159">
        <ele>166.90125</ele>
        <time>2023-09-17T09:08:38.424Z</time>
      </trkpt>
      <trkpt lat="43.69088" lon="1.47165">
        <ele>166.983303</ele>
        <time>2023-09-17T09:08:39.424Z</time>
      </trkpt>
      <trkpt lat="43.69088" lon="1.47165">
        <ele>166.983303</ele>
        <time>2023-09-17T09:08:39.424Z</time>
      </trkpt>
      <trkpt lat="43.69085" lon="1.47171">
        <ele>167.064358</ele>
        <time>2023-09-17T09:08:41.424Z</time>
      </trkpt>
      <trkpt lat="43.69085" lon="1.47171">
        <ele>167.064358</ele>
        <time>2023-09-17T09:08:41.424Z</time>
      </trkpt>
      <trkpt lat="43.69082" lon="1.47176">
        <ele>167.140541</ele>
        <time>2023-09-17T09:08:42.424Z</time>
      </trkpt>
      <trkpt lat="43.69082" lon="1.47176">
        <ele>167.140541</ele>
        <time>2023-09-17T09:08:42.424Z</time>
      </trkpt>
      <trkpt lat="43.6908" lon="1.47182">
        <ele>167.220604</ele>
        <time>2023-09-17T09:08:42.424Z</time>
      </trkpt>
      <trkpt lat="43.6908" lon="1.47182">
        <ele>167.220604</ele>
        <time>2023-09-17T09:08:42.424Z</time>
      </trkpt>
      <trkpt lat="43.69077" lon="1.47188">
        <ele>167.301384</ele>
        <time>2023-09-17T09:08:43.424Z</time>
      </trkpt>
      <trkpt lat="43.69077" lon="1.47188">
        <ele>167.301384</ele>
        <time>2023-09-17T09:08:43.424Z</time>
      </trkpt>
      <trkpt lat="43.69075" lon="1.47193">
        <ele>167.373893</ele>
        <time>2023-09-17T09:08:44.424Z</time>
      </trkpt>
      <trkpt lat="43.69075" lon="1.47193">
        <ele>167.373893</ele>
        <time>2023-09-17T09:08:44.424Z</time>
      </trkpt>
      <trkpt lat="43.69072" lon="1.47199">
        <ele>167.455946</ele>
        <time>2023-09-17T09:08:45.424Z</time>
      </trkpt>
      <trkpt lat="43.6907" lon="1.47205">
        <ele>167.534909</ele>
        <time>2023-09-17T09:08:46.424Z</time>
      </trkpt>
      <trkpt lat="43.6907" lon="1.47205">
        <ele>167.534909</ele>
        <time>2023-09-17T09:08:46.424Z</time>
      </trkpt>
      <trkpt lat="43.69068" lon="1.4721">
        <ele>167.608139</ele>
        <time>2023-09-17T09:08:48.424Z</time>
      </trkpt>
      <trkpt lat="43.69066" lon="1.47216">
        <ele>167.680645</ele>
        <time>2023-09-17T09:08:48.424Z</time>
      </trkpt>
      <trkpt lat="43.69066" lon="1.47216">
        <ele>167.680645</ele>
        <time>2023-09-17T09:08:48.424Z</time>
      </trkpt>
      <trkpt lat="43.69065" lon="1.47222">
        <ele>167.758414</ele>
        <time>2023-09-17T09:08:49.424Z</time>
      </trkpt>
      <trkpt lat="43.69063" lon="1.47228">
        <ele>167.836182</ele>
        <time>2023-09-17T09:08:50.424Z</time>
      </trkpt>
      <trkpt lat="43.69062" lon="1.47235">
        <ele>167.919612</ele>
        <time>2023-09-17T09:08:52.424Z</time>
      </trkpt>
      <trkpt lat="43.69062" lon="1.47235">
        <ele>167.919612</ele>
        <time>2023-09-17T09:08:52.424Z</time>
      </trkpt>
      <trkpt lat="43.69061" lon="1.4724">
        <ele>167.99723</ele>
        <time>2023-09-17T09:08:53.424Z</time>
      </trkpt>
      <trkpt lat="43.69061" lon="1.47247">
        <ele>168.209968</ele>
        <time>2023-09-17T09:08:53.424Z</time>
      </trkpt>
      <trkpt lat="43.6906" lon="1.47254">
        <ele>168.398553</ele>
        <time>2023-09-17T09:08:55.424Z</time>
      </trkpt>
      <trkpt lat="43.69059" lon="1.4726">
        <ele>168.603648</ele>
        <time>2023-09-17T09:08:56.424Z</time>
      </trkpt>
      <trkpt lat="43.69059" lon="1.47267">
        <ele>168.804307</ele>
        <time>2023-09-17T09:08:57.424Z</time>
      </trkpt>
      <trkpt lat="43.69059" lon="1.47267">
        <ele>168.804307</ele>
        <time>2023-09-17T09:08:57.424Z</time>
      </trkpt>
      <trkpt lat="43.69059" lon="1.47273">
        <ele>168.989117</ele>
        <time>2023-09-17T09:08:57.424Z</time>
      </trkpt>
      <trkpt lat="43.69059" lon="1.47273">
        <ele>168.989117</ele>
        <time>2023-09-17T09:08:57.424Z</time>
      </trkpt>
      <trkpt lat="43.69059" lon="1.4728">
        <ele>169.192104</ele>
        <time>2023-09-17T09:08:59.424Z</time>
      </trkpt>
      <trkpt lat="43.69059" lon="1.4728">
        <ele>169.192104</ele>
        <time>2023-09-17T09:08:59.424Z</time>
      </trkpt>
      <trkpt lat="43.69059" lon="1.47286">
        <ele>169.386002</ele>
        <time>2023-09-17T09:09:00.424Z</time>
      </trkpt>
      <trkpt lat="43.69059" lon="1.47293">
        <ele>169.580624</ele>
        <time>2023-09-17T09:09:00.424Z</time>
      </trkpt>
      <trkpt lat="43.69059" lon="1.47298">
        <ele>169.759374</ele>
        <time>2023-09-17T09:09:02.424Z</time>
      </trkpt>
      <trkpt lat="43.69059" lon="1.47305">
        <ele>169.96842</ele>
        <time>2023-09-17T09:09:02.424Z</time>
      </trkpt>
      <trkpt lat="43.69059" lon="1.47305">
        <ele>169.96842</ele>
        <time>2023-09-17T09:09:02.424Z</time>
      </trkpt>
      <trkpt lat="43.69059" lon="1.47312">
        <ele>170.15626</ele>
        <time>2023-09-17T09:09:03.424Z</time>
      </trkpt>
      <trkpt lat="43.6906" lon="1.47318">
        <ele>170.359938</ele>
        <time>2023-09-17T09:09:04.424Z</time>
      </trkpt>
      <trkpt lat="43.6906" lon="1.47324">
        <ele>170.532628</ele>
        <time>2023-09-17T09:09:06.424Z</time>
      </trkpt>
      <trkpt lat="43.6906" lon="1.47324">
        <ele>170.532628</ele>
        <time>2023-09-17T09:09:06.424Z</time>
      </trkpt>
      <trkpt lat="43.6906" lon="1.47331">
        <ele>170.732981</ele>
        <time>2023-09-17T09:09:07.424Z</time>
      </trkpt>
      <trkpt lat="43.69061" lon="1.47337">
        <ele>170.918548</ele>
        <time>2023-09-17T09:09:07.424Z</time>
      </trkpt>
      <trkpt lat="43.69061" lon="1.47337">
        <ele>170.918548</ele>
        <time>2023-09-17T09:09:07.424Z</time>
      </trkpt>
      <trkpt lat="43.69061" lon="1.47343">
        <ele>171.11317</ele>
        <time>2023-09-17T09:09:09.424Z</time>
      </trkpt>
      <trkpt lat="43.69062" lon="1.47349">
        <ele>171.289083</ele>
        <time>2023-09-17T09:09:10.424Z</time>
      </trkpt>
      <trkpt lat="43.69062" lon="1.47349">
        <ele>171.289083</ele>
        <time>2023-09-17T09:09:10.424Z</time>
      </trkpt>
      <trkpt lat="43.69062" lon="1.47355">
        <ele>171.483389</ele>
        <time>2023-09-17T09:09:11.424Z</time>
      </trkpt>
      <trkpt lat="43.69062" lon="1.47361">
        <ele>171.668956</ele>
        <time>2023-09-17T09:09:11.424Z</time>
      </trkpt>
      <trkpt lat="43.69062" lon="1.47361">
        <ele>171.668956</ele>
        <time>2023-09-17T09:09:11.424Z</time>
      </trkpt>
      <trkpt lat="43.69063" lon="1.47367">
        <ele>171.836429</ele>
        <time>2023-09-17T09:09:13.424Z</time>
      </trkpt>
      <trkpt lat="43.69063" lon="1.47372">
        <ele>171.988836</ele>
        <time>2023-09-17T09:09:14.424Z</time>
      </trkpt>
      <trkpt lat="43.69063" lon="1.47372">
        <ele>171.988836</ele>
        <time>2023-09-17T09:09:14.424Z</time>
      </trkpt>
      <trkpt lat="43.69064" lon="1.47376">
        <ele>172.12319</ele>
        <time>2023-09-17T09:09:14.424Z</time>
      </trkpt>
      <trkpt lat="43.69064" lon="1.47376">
        <ele>172.12319</ele>
        <time>2023-09-17T09:09:14.424Z</time>
      </trkpt>
      <trkpt lat="43.69064" lon="1.47379">
        <ele>172.220139</ele>
        <time>2023-09-17T09:09:16.424Z</time>
      </trkpt>
      <trkpt lat="43.69064" lon="1.47379">
        <ele>172.220139</ele>
        <time>2023-09-17T09:09:16.424Z</time>
      </trkpt>
      <trkpt lat="43.69064" lon="1.47382">
        <ele>172.295743</ele>
        <time>2023-09-17T09:09:17.424Z</time>
      </trkpt>
      <trkpt lat="43.69064" lon="1.47382">
        <ele>172.295743</ele>
        <time>2023-09-17T09:09:17.424Z</time>
      </trkpt>
      <trkpt lat="43.69067" lon="1.4739">
        <ele>172.568059</ele>
        <time>2023-09-17T09:09:18.424Z</time>
      </trkpt>
      <trkpt lat="43.6907" lon="1.47393">
        <ele>172.727319</ele>
        <time>2023-09-17T09:09:20.424Z</time>
      </trkpt>
      <trkpt lat="43.6907" lon="1.47393">
        <ele>172.727319</ele>
        <time>2023-09-17T09:09:20.424Z</time>
      </trkpt>
      <trkpt lat="43.69073" lon="1.47397">
        <ele>172.90618</ele>
        <time>2023-09-17T09:09:21.424Z</time>
      </trkpt>
      <trkpt lat="43.69073" lon="1.47397">
        <ele>172.90618</ele>
        <time>2023-09-17T09:09:21.424Z</time>
      </trkpt>
      <trkpt lat="43.69077" lon="1.47404">
        <ele>173.149233</ele>
        <time>2023-09-17T09:09:23.424Z</time>
      </trkpt>
      <trkpt lat="43.69077" lon="1.47404">
        <ele>173.149233</ele>
        <time>2023-09-17T09:09:23.424Z</time>
      </trkpt>
      <trkpt lat="43.6908" lon="1.47409">
        <ele>173.351087</ele>
        <time>2023-09-17T09:09:24.424Z</time>
      </trkpt>
      <trkpt lat="43.69083" lon="1.47416">
        <ele>173.596601</ele>
        <time>2023-09-17T09:09:25.424Z</time>
      </trkpt>
      <trkpt lat="43.69083" lon="1.47416">
        <ele>173.596601</ele>
        <time>2023-09-17T09:09:25.424Z</time>
      </trkpt>
      <trkpt lat="43.69085" lon="1.4742">
        <ele>173.751433</ele>
        <time>2023-09-17T09:09:26.424Z</time>
      </trkpt>
      <trkpt lat="43.69085" lon="1.4742">
        <ele>173.751433</ele>
        <time>2023-09-17T09:09:26.424Z</time>
      </trkpt>
      <trkpt lat="43.69089" lon="1.47426">
        <ele>173.99942</ele>
        <time>2023-09-17T09:09:27.424Z</time>
      </trkpt>
      <trkpt lat="43.69089" lon="1.47426">
        <ele>173.99942</ele>
        <time>2023-09-17T09:09:27.424Z</time>
      </trkpt>
      <trkpt lat="43.69091" lon="1.4743">
        <ele>174.154252</ele>
        <time>2023-09-17T09:09:28.424Z</time>
      </trkpt>
      <trkpt lat="43.69093" lon="1.47435">
        <ele>174.316297</ele>
        <time>2023-09-17T09:09:29.424Z</time>
      </trkpt>
      <trkpt lat="43.69093" lon="1.47435">
        <ele>174.316297</ele>
        <time>2023-09-17T09:09:29.424Z</time>
      </trkpt>
      <trkpt lat="43.69098" lon="1.47443">
        <ele>174.635746</ele>
        <time>2023-09-17T09:09:31.424Z</time>
      </trkpt>
      <trkpt lat="43.69098" lon="1.47443">
        <ele>174.635746</ele>
        <time>2023-09-17T09:09:31.424Z</time>
      </trkpt>
      <trkpt lat="43.69099" lon="1.47447">
        <ele>174.75901</ele>
        <time>2023-09-17T09:09:32.424Z</time>
      </trkpt>
      <trkpt lat="43.69099" lon="1.47447">
        <ele>174.75901</ele>
        <time>2023-09-17T09:09:32.424Z</time>
      </trkpt>
      <trkpt lat="43.69101" lon="1.47451">
        <ele>174.916885</ele>
        <time>2023-09-17T09:09:33.424Z</time>
      </trkpt>
      <trkpt lat="43.69101" lon="1.47451">
        <ele>174.916885</ele>
        <time>2023-09-17T09:09:33.424Z</time>
      </trkpt>
      <trkpt lat="43.69103" lon="1.47457">
        <ele>175.119957</ele>
        <time>2023-09-17T09:09:34.424Z</time>
      </trkpt>
      <trkpt lat="43.69103" lon="1.47457">
        <ele>175.119957</ele>
        <time>2023-09-17T09:09:34.424Z</time>
      </trkpt>
      <trkpt lat="43.69105" lon="1.47462">
        <ele>175.275223</ele>
        <time>2023-09-17T09:09:34.424Z</time>
      </trkpt>
      <trkpt lat="43.69105" lon="1.47462">
        <ele>175.275223</ele>
        <time>2023-09-17T09:09:34.424Z</time>
      </trkpt>
      <trkpt lat="43.69107" lon="1.47467">
        <ele>175.446434</ele>
        <time>2023-09-17T09:09:37.424Z</time>
      </trkpt>
      <trkpt lat="43.69107" lon="1.47467">
        <ele>175.446434</ele>
        <time>2023-09-17T09:09:37.424Z</time>
      </trkpt>
      <trkpt lat="43.69108" lon="1.47473">
        <ele>175.787363</ele>
        <time>2023-09-17T09:09:38.424Z</time>
      </trkpt>
      <trkpt lat="43.69108" lon="1.47473">
        <ele>175.787363</ele>
        <time>2023-09-17T09:09:38.424Z</time>
      </trkpt>
      <trkpt lat="43.6911" lon="1.47478">
        <ele>176.139853</ele>
        <time>2023-09-17T09:09:39.424Z</time>
      </trkpt>
      <trkpt lat="43.6911" lon="1.47478">
        <ele>176.139853</ele>
        <time>2023-09-17T09:09:39.424Z</time>
      </trkpt>
      <trkpt lat="43.69111" lon="1.47483">
        <ele>176.507833</ele>
        <time>2023-09-17T09:09:39.424Z</time>
      </trkpt>
      <trkpt lat="43.69111" lon="1.47483">
        <ele>176.507833</ele>
        <time>2023-09-17T09:09:39.424Z</time>
      </trkpt>
      <trkpt lat="43.69112" lon="1.47487">
        <ele>176.801458</ele>
        <time>2023-09-17T09:09:41.424Z</time>
      </trkpt>
      <trkpt lat="43.69112" lon="1.47487">
        <ele>176.801458</ele>
        <time>2023-09-17T09:09:41.424Z</time>
      </trkpt>
      <trkpt lat="43.69113" lon="1.47491">
        <ele>177.117699</ele>
        <time>2023-09-17T09:09:43.424Z</time>
      </trkpt>
      <trkpt lat="43.69113" lon="1.47491">
        <ele>177.117699</ele>
        <time>2023-09-17T09:09:43.424Z</time>
      </trkpt>
      <trkpt lat="43.69114" lon="1.47495">
        <ele>177.424189</ele>
        <time>2023-09-17T09:09:44.424Z</time>
      </trkpt>
      <trkpt lat="43.69114" lon="1.47495">
        <ele>177.424189</ele>
        <time>2023-09-17T09:09:44.424Z</time>
      </trkpt>
      <trkpt lat="43.69116" lon="1.47501">
        <ele>177.840371</ele>
        <time>2023-09-17T09:09:45.424Z</time>
      </trkpt>
      <trkpt lat="43.69116" lon="1.47501">
        <ele>177.840371</ele>
        <time>2023-09-17T09:09:45.424Z</time>
      </trkpt>
      <trkpt lat="43.69117" lon="1.47506">
        <ele>178.178343</ele>
        <time>2023-09-17T09:09:46.424Z</time>
      </trkpt>
      <trkpt lat="43.69117" lon="1.47506">
        <ele>178.178343</ele>
        <time>2023-09-17T09:09:46.424Z</time>
      </trkpt>
      <trkpt lat="43.69118" lon="1.4751">
        <ele>178.524566</ele>
        <time>2023-09-17T09:09:47.424Z</time>
      </trkpt>
      <trkpt lat="43.69118" lon="1.4751">
        <ele>178.524566</ele>
        <time>2023-09-17T09:09:47.424Z</time>
      </trkpt>
      <trkpt lat="43.69119" lon="1.47516">
        <ele>178.905618</ele>
        <time>2023-09-17T09:09:47.424Z</time>
      </trkpt>
      <trkpt lat="43.69119" lon="1.47516">
        <ele>178.905618</ele>
        <time>2023-09-17T09:09:47.424Z</time>
      </trkpt>
      <trkpt lat="43.6912" lon="1.47521">
        <ele>179.297151</ele>
        <time>2023-09-17T09:09:50.424Z</time>
      </trkpt>
      <trkpt lat="43.6912" lon="1.47521">
        <ele>179.297151</ele>
        <time>2023-09-17T09:09:50.424Z</time>
      </trkpt>
      <trkpt lat="43.69121" lon="1.47527">
        <ele>179.682075</ele>
        <time>2023-09-17T09:09:51.424Z</time>
      </trkpt>
      <trkpt lat="43.69121" lon="1.47527">
        <ele>179.682075</ele>
        <time>2023-09-17T09:09:51.424Z</time>
      </trkpt>
      <trkpt lat="43.69123" lon="1.47532">
        <ele>180.091815</ele>
        <time>2023-09-17T09:09:52.424Z</time>
      </trkpt>
      <trkpt lat="43.69123" lon="1.47532">
        <ele>180.091815</ele>
        <time>2023-09-17T09:09:52.424Z</time>
      </trkpt>
      <trkpt lat="43.69124" lon="1.47537">
        <ele>180.425577</ele>
        <time>2023-09-17T09:09:53.424Z</time>
      </trkpt>
      <trkpt lat="43.69124" lon="1.47537">
        <ele>180.425577</ele>
        <time>2023-09-17T09:09:53.424Z</time>
      </trkpt>
      <trkpt lat="43.69125" lon="1.47542">
        <ele>180.787038</ele>
        <time>2023-09-17T09:09:54.424Z</time>
      </trkpt>
      <trkpt lat="43.69125" lon="1.47542">
        <ele>180.787038</ele>
        <time>2023-09-17T09:09:54.424Z</time>
      </trkpt>
      <trkpt lat="43.69127" lon="1.47546">
        <ele>181.099987</ele>
        <time>2023-09-17T09:09:55.424Z</time>
      </trkpt>
      <trkpt lat="43.69127" lon="1.47546">
        <ele>181.099987</ele>
        <time>2023-09-17T09:09:55.424Z</time>
      </trkpt>
      <trkpt lat="43.69128" lon="1.4755">
        <ele>181.429067</ele>
        <time>2023-09-17T09:09:56.424Z</time>
      </trkpt>
      <trkpt lat="43.69128" lon="1.4755">
        <ele>181.429067</ele>
        <time>2023-09-17T09:09:56.424Z</time>
      </trkpt>
      <trkpt lat="43.69129" lon="1.47556">
        <ele>181.819571</ele>
        <time>2023-09-17T09:09:58.424Z</time>
      </trkpt>
      <trkpt lat="43.69129" lon="1.47556">
        <ele>181.819571</ele>
        <time>2023-09-17T09:09:58.424Z</time>
      </trkpt>
      <trkpt lat="43.6913" lon="1.4756">
        <ele>182.121985</ele>
        <time>2023-09-17T09:09:59.424Z</time>
      </trkpt>
      <trkpt lat="43.6913" lon="1.4756">
        <ele>182.121985</ele>
        <time>2023-09-17T09:09:59.424Z</time>
      </trkpt>
      <trkpt lat="43.69132" lon="1.47566">
        <ele>182.544381</ele>
        <time>2023-09-17T09:10:00.424Z</time>
      </trkpt>
      <trkpt lat="43.69132" lon="1.47566">
        <ele>182.544381</ele>
        <time>2023-09-17T09:10:00.424Z</time>
      </trkpt>
      <trkpt lat="43.69134" lon="1.47574">
        <ele>183.144476</ele>
        <time>2023-09-17T09:10:02.424Z</time>
      </trkpt>
      <trkpt lat="43.69134" lon="1.47574">
        <ele>183.144476</ele>
        <time>2023-09-17T09:10:02.424Z</time>
      </trkpt>
      <trkpt lat="43.69135" lon="1.47578">
        <ele>183.43528</ele>
        <time>2023-09-17T09:10:03.424Z</time>
      </trkpt>
      <trkpt lat="43.69135" lon="1.47578">
        <ele>183.43528</ele>
        <time>2023-09-17T09:10:03.424Z</time>
      </trkpt>
      <trkpt lat="43.69136" lon="1.47581">
        <ele>183.71612</ele>
        <time>2023-09-17T09:10:04.424Z</time>
      </trkpt>
      <trkpt lat="43.69136" lon="1.47581">
        <ele>183.71612</ele>
        <time>2023-09-17T09:10:04.424Z</time>
      </trkpt>
      <trkpt lat="43.6914" lon="1.4759">
        <ele>184.400106</ele>
        <time>2023-09-17T09:10:06.424Z</time>
      </trkpt>
      <trkpt lat="43.6914" lon="1.4759">
        <ele>184.400106</ele>
        <time>2023-09-17T09:10:06.424Z</time>
      </trkpt>
      <trkpt lat="43.69141" lon="1.47594">
        <ele>184.655672</ele>
        <time>2023-09-17T09:10:07.424Z</time>
      </trkpt>
      <trkpt lat="43.69141" lon="1.47594">
        <ele>184.655672</ele>
        <time>2023-09-17T09:10:07.424Z</time>
      </trkpt>
      <trkpt lat="43.69142" lon="1.47597">
        <ele>184.896929</ele>
        <time>2023-09-17T09:10:08.424Z</time>
      </trkpt>
      <trkpt lat="43.69142" lon="1.47597">
        <ele>184.896929</ele>
        <time>2023-09-17T09:10:08.424Z</time>
      </trkpt>
      <trkpt lat="43.69144" lon="1.47601">
        <ele>185.225295</ele>
        <time>2023-09-17T09:10:09.424Z</time>
      </trkpt>
      <trkpt lat="43.69144" lon="1.47601">
        <ele>185.225295</ele>
        <time>2023-09-17T09:10:09.424Z</time>
      </trkpt>
      <trkpt lat="43.69145" lon="1.47605">
        <ele>185.54056</ele>
        <time>2023-09-17T09:10:10.424Z</time>
      </trkpt>
      <trkpt lat="43.69145" lon="1.47605">
        <ele>185.54056</ele>
        <time>2023-09-17T09:10:10.424Z</time>
      </trkpt>
      <trkpt lat="43.69147" lon="1.47608">
        <ele>185.835387</ele>
        <time>2023-09-17T09:10:11.424Z</time>
      </trkpt>
      <trkpt lat="43.69147" lon="1.47608">
        <ele>185.835387</ele>
        <time>2023-09-17T09:10:11.424Z</time>
      </trkpt>
      <trkpt lat="43.69149" lon="1.47612">
        <ele>186.091312</ele>
        <time>2023-09-17T09:10:12.424Z</time>
      </trkpt>
      <trkpt lat="43.69149" lon="1.47612">
        <ele>186.091312</ele>
        <time>2023-09-17T09:10:12.424Z</time>
      </trkpt>
      <trkpt lat="43.69151" lon="1.47616">
        <ele>186.441956</ele>
        <time>2023-09-17T09:10:14.424Z</time>
      </trkpt>
      <trkpt lat="43.69151" lon="1.47616">
        <ele>186.441956</ele>
        <time>2023-09-17T09:10:14.424Z</time>
      </trkpt>
      <trkpt lat="43.69153" lon="1.47619">
        <ele>186.776734</ele>
        <time>2023-09-17T09:10:15.424Z</time>
      </trkpt>
      <trkpt lat="43.69153" lon="1.47619">
        <ele>186.776734</ele>
        <time>2023-09-17T09:10:15.424Z</time>
      </trkpt>
      <trkpt lat="43.69156" lon="1.47623">
        <ele>187.127377</ele>
        <time>2023-09-17T09:10:16.424Z</time>
      </trkpt>
      <trkpt lat="43.69156" lon="1.47623">
        <ele>187.127377</ele>
        <time>2023-09-17T09:10:16.424Z</time>
      </trkpt>
      <trkpt lat="43.69157" lon="1.47626">
        <ele>187.35559</ele>
        <time>2023-09-17T09:10:17.424Z</time>
      </trkpt>
      <trkpt lat="43.69157" lon="1.47626">
        <ele>187.35559</ele>
        <time>2023-09-17T09:10:17.424Z</time>
      </trkpt>
      <trkpt lat="43.69161" lon="1.47631">
        <ele>187.877527</ele>
        <time>2023-09-17T09:10:19.424Z</time>
      </trkpt>
      <trkpt lat="43.69161" lon="1.47631">
        <ele>187.877527</ele>
        <time>2023-09-17T09:10:19.424Z</time>
      </trkpt>
      <trkpt lat="43.69162" lon="1.47633">
        <ele>188.077637</ele>
        <time>2023-09-17T09:10:20.424Z</time>
      </trkpt>
      <trkpt lat="43.69162" lon="1.47633">
        <ele>188.077637</ele>
        <time>2023-09-17T09:10:20.424Z</time>
      </trkpt>
      <trkpt lat="43.69164" lon="1.47635">
        <ele>188.266081</ele>
        <time>2023-09-17T09:10:20.424Z</time>
      </trkpt>
      <trkpt lat="43.69164" lon="1.47635">
        <ele>188.266081</ele>
        <time>2023-09-17T09:10:20.424Z</time>
      </trkpt>
      <trkpt lat="43.69169" lon="1.4764">
        <ele>188.834196</ele>
        <time>2023-09-17T09:10:23.424Z</time>
      </trkpt>
      <trkpt lat="43.69169" lon="1.4764">
        <ele>188.834196</ele>
        <time>2023-09-17T09:10:23.424Z</time>
      </trkpt>
      <trkpt lat="43.6917" lon="1.47642">
        <ele>189.031905</ele>
        <time>2023-09-17T09:10:24.424Z</time>
      </trkpt>
      <trkpt lat="43.6917" lon="1.47642">
        <ele>189.031905</ele>
        <time>2023-09-17T09:10:24.424Z</time>
      </trkpt>
      <trkpt lat="43.69173" lon="1.47644">
        <ele>189.325841</ele>
        <time>2023-09-17T09:10:25.424Z</time>
      </trkpt>
      <trkpt lat="43.69173" lon="1.47644">
        <ele>189.325841</ele>
        <time>2023-09-17T09:10:25.424Z</time>
      </trkpt>
      <trkpt lat="43.69175" lon="1.47647">
        <ele>189.618704</ele>
        <time>2023-09-17T09:10:26.424Z</time>
      </trkpt>
      <trkpt lat="43.69175" lon="1.47647">
        <ele>189.618704</ele>
        <time>2023-09-17T09:10:26.424Z</time>
      </trkpt>
      <trkpt lat="43.69178" lon="1.47649">
        <ele>189.923258</ele>
        <time>2023-09-17T09:10:28.424Z</time>
      </trkpt>
      <trkpt lat="43.69178" lon="1.47649">
        <ele>189.923258</ele>
        <time>2023-09-17T09:10:28.424Z</time>
      </trkpt>
      <trkpt lat="43.69181" lon="1.47652">
        <ele>190.235446</ele>
        <time>2023-09-17T09:10:29.424Z</time>
      </trkpt>
      <trkpt lat="43.69181" lon="1.47652">
        <ele>190.235446</ele>
        <time>2023-09-17T09:10:29.424Z</time>
      </trkpt>
      <trkpt lat="43.69184" lon="1.47655">
        <ele>190.586732</ele>
        <time>2023-09-17T09:10:30.424Z</time>
      </trkpt>
      <trkpt lat="43.69184" lon="1.47655">
        <ele>190.586732</ele>
        <time>2023-09-17T09:10:30.424Z</time>
      </trkpt>
      <trkpt lat="43.69186" lon="1.47657">
        <ele>190.856052</ele>
        <time>2023-09-17T09:10:31.424Z</time>
      </trkpt>
      <trkpt lat="43.69186" lon="1.47657">
        <ele>190.856052</ele>
        <time>2023-09-17T09:10:31.424Z</time>
      </trkpt>
      <trkpt lat="43.69189" lon="1.4766">
        <ele>191.207383</ele>
        <time>2023-09-17T09:10:32.424Z</time>
      </trkpt>
      <trkpt lat="43.69189" lon="1.4766">
        <ele>191.207383</ele>
        <time>2023-09-17T09:10:32.424Z</time>
      </trkpt>
      <trkpt lat="43.69193" lon="1.47663">
        <ele>191.593807</ele>
        <time>2023-09-17T09:10:33.424Z</time>
      </trkpt>
      <trkpt lat="43.69193" lon="1.47663">
        <ele>191.593807</ele>
        <time>2023-09-17T09:10:33.424Z</time>
      </trkpt>
      <trkpt lat="43.69196" lon="1.47666">
        <ele>191.962463</ele>
        <time>2023-09-17T09:10:34.424Z</time>
      </trkpt>
      <trkpt lat="43.69196" lon="1.47666">
        <ele>191.962463</ele>
        <time>2023-09-17T09:10:34.424Z</time>
      </trkpt>
      <trkpt lat="43.69199" lon="1.47668">
        <ele>192.339451</ele>
        <time>2023-09-17T09:10:36.424Z</time>
      </trkpt>
      <trkpt lat="43.69199" lon="1.47668">
        <ele>192.339451</ele>
        <time>2023-09-17T09:10:36.424Z</time>
      </trkpt>
      <trkpt lat="43.69202" lon="1.4767">
        <ele>192.599864</ele>
        <time>2023-09-17T09:10:37.424Z</time>
      </trkpt>
      <trkpt lat="43.69202" lon="1.4767">
        <ele>192.599864</ele>
        <time>2023-09-17T09:10:37.424Z</time>
      </trkpt>
      <trkpt lat="43.69205" lon="1.47673">
        <ele>192.689682</ele>
        <time>2023-09-17T09:10:38.424Z</time>
      </trkpt>
      <trkpt lat="43.69205" lon="1.47673">
        <ele>192.689682</ele>
        <time>2023-09-17T09:10:38.424Z</time>
      </trkpt>
      <trkpt lat="43.69208" lon="1.47676">
        <ele>192.780359</ele>
        <time>2023-09-17T09:10:39.424Z</time>
      </trkpt>
      <trkpt lat="43.69208" lon="1.47676">
        <ele>192.780359</ele>
        <time>2023-09-17T09:10:39.424Z</time>
      </trkpt>
      <trkpt lat="43.69211" lon="1.47678">
        <ele>192.856238</ele>
        <time>2023-09-17T09:10:40.424Z</time>
      </trkpt>
      <trkpt lat="43.69211" lon="1.47678">
        <ele>192.856238</ele>
        <time>2023-09-17T09:10:40.424Z</time>
      </trkpt>
      <trkpt lat="43.69214" lon="1.47682">
        <ele>192.96232</ele>
        <time>2023-09-17T09:10:41.424Z</time>
      </trkpt>
      <trkpt lat="43.69214" lon="1.47682">
        <ele>192.96232</ele>
        <time>2023-09-17T09:10:41.424Z</time>
      </trkpt>
      <trkpt lat="43.69217" lon="1.47685">
        <ele>193.059234</ele>
        <time>2023-09-17T09:10:42.424Z</time>
      </trkpt>
      <trkpt lat="43.69217" lon="1.47685">
        <ele>193.059234</ele>
        <time>2023-09-17T09:10:42.424Z</time>
      </trkpt>
      <trkpt lat="43.69221" lon="1.47688">
        <ele>193.158196</ele>
        <time>2023-09-17T09:10:44.424Z</time>
      </trkpt>
      <trkpt lat="43.69221" lon="1.47688">
        <ele>193.158196</ele>
        <time>2023-09-17T09:10:44.424Z</time>
      </trkpt>
      <trkpt lat="43.69225" lon="1.4769">
        <ele>193.259574</ele>
        <time>2023-09-17T09:10:45.424Z</time>
      </trkpt>
      <trkpt lat="43.69225" lon="1.4769">
        <ele>193.259574</ele>
        <time>2023-09-17T09:10:45.424Z</time>
      </trkpt>
      <trkpt lat="43.69228" lon="1.47692">
        <ele>193.346726</ele>
        <time>2023-09-17T09:10:46.424Z</time>
      </trkpt>
      <trkpt lat="43.69231" lon="1.47695">
        <ele>193.452564</ele>
        <time>2023-09-17T09:10:47.424Z</time>
      </trkpt>
      <trkpt lat="43.69231" lon="1.47695">
        <ele>193.452564</ele>
        <time>2023-09-17T09:10:47.424Z</time>
      </trkpt>
      <trkpt lat="43.69236" lon="1.47698">
        <ele>193.572233</ele>
        <time>2023-09-17T09:10:48.424Z</time>
      </trkpt>
      <trkpt lat="43.69244" lon="1.47705">
        <ele>193.804862</ele>
        <time>2023-09-17T09:10:50.424Z</time>
      </trkpt>
      <trkpt lat="43.69244" lon="1.47705">
        <ele>193.804862</ele>
        <time>2023-09-17T09:10:50.424Z</time>
      </trkpt>
      <trkpt lat="43.69247" lon="1.47708">
        <ele>193.906873</ele>
        <time>2023-09-17T09:10:51.424Z</time>
      </trkpt>
      <trkpt lat="43.69251" lon="1.47711">
        <ele>194.007761</ele>
        <time>2023-09-17T09:10:52.424Z</time>
      </trkpt>
      <trkpt lat="43.69255" lon="1.47715">
        <ele>194.143337</ele>
        <time>2023-09-17T09:10:53.424Z</time>
      </trkpt>
      <trkpt lat="43.69255" lon="1.47715">
        <ele>194.143337</ele>
        <time>2023-09-17T09:10:53.424Z</time>
      </trkpt>
      <trkpt lat="43.6926" lon="1.4772">
        <ele>194.303292</ele>
        <time>2023-09-17T09:10:54.424Z</time>
      </trkpt>
      <trkpt lat="43.6926" lon="1.4772">
        <ele>194.303292</ele>
        <time>2023-09-17T09:10:54.424Z</time>
      </trkpt>
      <trkpt lat="43.69266" lon="1.47726">
        <ele>194.466377</ele>
        <time>2023-09-17T09:10:55.424Z</time>
      </trkpt>
      <trkpt lat="43.69266" lon="1.47726">
        <ele>194.466377</ele>
        <time>2023-09-17T09:10:55.424Z</time>
      </trkpt>
      <trkpt lat="43.6927" lon="1.47731">
        <ele>194.614701</ele>
        <time>2023-09-17T09:10:56.424Z</time>
      </trkpt>
      <trkpt lat="43.69275" lon="1.47736">
        <ele>194.772972</ele>
        <time>2023-09-17T09:10:57.424Z</time>
      </trkpt>
      <trkpt lat="43.69275" lon="1.47736">
        <ele>194.772972</ele>
        <time>2023-09-17T09:10:57.424Z</time>
      </trkpt>
      <trkpt lat="43.6928" lon="1.47741">
        <ele>194.907951</ele>
        <time>2023-09-17T09:10:58.424Z</time>
      </trkpt>
      <trkpt lat="43.6928" lon="1.47741">
        <ele>194.907951</ele>
        <time>2023-09-17T09:10:58.424Z</time>
      </trkpt>
      <trkpt lat="43.69284" lon="1.47746">
        <ele>195.044077</ele>
        <time>2023-09-17T09:10:59.424Z</time>
      </trkpt>
      <trkpt lat="43.69288" lon="1.47751">
        <ele>195.171573</ele>
        <time>2023-09-17T09:11:00.424Z</time>
      </trkpt>
      <trkpt lat="43.69291" lon="1.47756">
        <ele>195.285224</ele>
        <time>2023-09-17T09:11:01.424Z</time>
      </trkpt>
      <trkpt lat="43.69291" lon="1.47756">
        <ele>195.285224</ele>
        <time>2023-09-17T09:11:01.424Z</time>
      </trkpt>
      <trkpt lat="43.69294" lon="1.4776">
        <ele>195.392733</ele>
        <time>2023-09-17T09:11:02.424Z</time>
      </trkpt>
      <trkpt lat="43.69294" lon="1.4776">
        <ele>195.392733</ele>
        <time>2023-09-17T09:11:02.424Z</time>
      </trkpt>
      <trkpt lat="43.69296" lon="1.47762">
        <ele>195.473229</ele>
        <time>2023-09-17T09:11:03.424Z</time>
      </trkpt>
      <trkpt lat="43.69304" lon="1.47771">
        <ele>195.705437</ele>
        <time>2023-09-17T09:11:05.424Z</time>
      </trkpt>
      <trkpt lat="43.69304" lon="1.47771">
        <ele>195.705437</ele>
        <time>2023-09-17T09:11:05.424Z</time>
      </trkpt>
      <trkpt lat="43.69306" lon="1.47773">
        <ele>195.784951</ele>
        <time>2023-09-17T09:11:06.424Z</time>
      </trkpt>
      <trkpt lat="43.69314" lon="1.47778">
        <ele>195.989062</ele>
        <time>2023-09-17T09:11:08.424Z</time>
      </trkpt>
      <trkpt lat="43.69314" lon="1.47778">
        <ele>195.989062</ele>
        <time>2023-09-17T09:11:08.424Z</time>
      </trkpt>
      <trkpt lat="43.69318" lon="1.47779">
        <ele>196.085243</ele>
        <time>2023-09-17T09:11:09.424Z</time>
      </trkpt>
      <trkpt lat="43.69322" lon="1.4778">
        <ele>196.200602</ele>
        <time>2023-09-17T09:11:10.424Z</time>
      </trkpt>
      <trkpt lat="43.69322" lon="1.4778">
        <ele>196.200602</ele>
        <time>2023-09-17T09:11:10.424Z</time>
      </trkpt>
      <trkpt lat="43.69326" lon="1.4778">
        <ele>196.304898</ele>
        <time>2023-09-17T09:11:11.424Z</time>
      </trkpt>
      <trkpt lat="43.69332" lon="1.4778">
        <ele>196.436211</ele>
        <time>2023-09-17T09:11:12.424Z</time>
      </trkpt>
      <trkpt lat="43.69332" lon="1.4778">
        <ele>196.436211</ele>
        <time>2023-09-17T09:11:12.424Z</time>
      </trkpt>
      <trkpt lat="43.69338" lon="1.4778">
        <ele>196.587374</ele>
        <time>2023-09-17T09:11:13.424Z</time>
      </trkpt>
      <trkpt lat="43.69344" lon="1.4778">
        <ele>196.748414</ele>
        <time>2023-09-17T09:11:14.424Z</time>
      </trkpt>
      <trkpt lat="43.69344" lon="1.4778">
        <ele>196.748414</ele>
        <time>2023-09-17T09:11:14.424Z</time>
      </trkpt>
      <trkpt lat="43.69349" lon="1.4778">
        <ele>196.862373</ele>
        <time>2023-09-17T09:11:15.424Z</time>
      </trkpt>
      <trkpt lat="43.69349" lon="1.4778">
        <ele>196.862373</ele>
        <time>2023-09-17T09:11:15.424Z</time>
      </trkpt>
      <trkpt lat="43.69354" lon="1.47779">
        <ele>196.996344</ele>
        <time>2023-09-17T09:11:16.424Z</time>
      </trkpt>
      <trkpt lat="43.6936" lon="1.47779">
        <ele>197.132676</ele>
        <time>2023-09-17T09:11:17.424Z</time>
      </trkpt>
      <trkpt lat="43.69365" lon="1.47778">
        <ele>197.247527</ele>
        <time>2023-09-17T09:11:18.424Z</time>
      </trkpt>
      <trkpt lat="43.69371" lon="1.47778">
        <ele>197.383198</ele>
        <time>2023-09-17T09:11:19.424Z</time>
      </trkpt>
      <trkpt lat="43.69375" lon="1.47778">
        <ele>197.488441</ele>
        <time>2023-09-17T09:11:20.424Z</time>
      </trkpt>
      <trkpt lat="43.69375" lon="1.47778">
        <ele>197.488441</ele>
        <time>2023-09-17T09:11:20.424Z</time>
      </trkpt>
      <trkpt lat="43.69381" lon="1.47777">
        <ele>197.621776</ele>
        <time>2023-09-17T09:11:21.424Z</time>
      </trkpt>
      <trkpt lat="43.69386" lon="1.47777">
        <ele>197.729355</ele>
        <time>2023-09-17T09:11:22.424Z</time>
      </trkpt>
      <trkpt lat="43.69386" lon="1.47777">
        <ele>197.729355</ele>
        <time>2023-09-17T09:11:22.424Z</time>
      </trkpt>
      <trkpt lat="43.69391" lon="1.47777">
        <ele>197.855627</ele>
        <time>2023-09-17T09:11:23.424Z</time>
      </trkpt>
      <trkpt lat="43.69397" lon="1.47777">
        <ele>197.989037</ele>
        <time>2023-09-17T09:11:24.424Z</time>
      </trkpt>
      <trkpt lat="43.69402" lon="1.47776">
        <ele>198.11303</ele>
        <time>2023-09-17T09:11:25.424Z</time>
      </trkpt>
      <trkpt lat="43.69402" lon="1.47776">
        <ele>198.11303</ele>
        <time>2023-09-17T09:11:25.424Z</time>
      </trkpt>
      <trkpt lat="43.69408" lon="1.47776">
        <ele>198.255659</ele>
        <time>2023-09-17T09:11:26.424Z</time>
      </trkpt>
      <trkpt lat="43.69408" lon="1.47776">
        <ele>198.255659</ele>
        <time>2023-09-17T09:11:26.424Z</time>
      </trkpt>
      <trkpt lat="43.69414" lon="1.47776">
        <ele>198.391246</ele>
        <time>2023-09-17T09:11:27.424Z</time>
      </trkpt>
      <trkpt lat="43.69419" lon="1.47776">
        <ele>198.515135</ele>
        <time>2023-09-17T09:11:28.424Z</time>
      </trkpt>
      <trkpt lat="43.69419" lon="1.47776">
        <ele>198.515135</ele>
        <time>2023-09-17T09:11:28.424Z</time>
      </trkpt>
      <trkpt lat="43.69424" lon="1.47776">
        <ele>198.632121</ele>
        <time>2023-09-17T09:11:29.424Z</time>
      </trkpt>
      <trkpt lat="43.69424" lon="1.47776">
        <ele>198.632121</ele>
        <time>2023-09-17T09:11:29.424Z</time>
      </trkpt>
      <trkpt lat="43.69429" lon="1.47777">
        <ele>198.746772</ele>
        <time>2023-09-17T09:11:30.424Z</time>
      </trkpt>
      <trkpt lat="43.69429" lon="1.47777">
        <ele>198.746772</ele>
        <time>2023-09-17T09:11:30.424Z</time>
      </trkpt>
      <trkpt lat="43.69434" lon="1.47775">
        <ele>198.865118</ele>
        <time>2023-09-17T09:11:31.424Z</time>
      </trkpt>
      <trkpt lat="43.69434" lon="1.47775">
        <ele>198.865118</ele>
        <time>2023-09-17T09:11:31.424Z</time>
      </trkpt>
      <trkpt lat="43.69438" lon="1.47773">
        <ele>198.973381</ele>
        <time>2023-09-17T09:11:32.424Z</time>
      </trkpt>
      <trkpt lat="43.69438" lon="1.47773">
        <ele>198.973381</ele>
        <time>2023-09-17T09:11:32.424Z</time>
      </trkpt>
      <trkpt lat="43.69442" lon="1.47768">
        <ele>199.098612</ele>
        <time>2023-09-17T09:11:33.424Z</time>
      </trkpt>
      <trkpt lat="43.69445" lon="1.47763">
        <ele>199.213708</ele>
        <time>2023-09-17T09:11:34.424Z</time>
      </trkpt>
      <trkpt lat="43.69449" lon="1.47757">
        <ele>199.330243</ele>
        <time>2023-09-17T09:11:35.424Z</time>
      </trkpt>
      <trkpt lat="43.69452" lon="1.47751">
        <ele>199.457738</ele>
        <time>2023-09-17T09:11:36.424Z</time>
      </trkpt>
      <trkpt lat="43.69454" lon="1.47745">
        <ele>199.571497</ele>
        <time>2023-09-17T09:11:37.424Z</time>
      </trkpt>
      <trkpt lat="43.69454" lon="1.47745">
        <ele>199.571497</ele>
        <time>2023-09-17T09:11:37.424Z</time>
      </trkpt>
      <trkpt lat="43.69457" lon="1.47739">
        <ele>199.689271</ele>
        <time>2023-09-17T09:11:38.424Z</time>
      </trkpt>
      <trkpt lat="43.69458" lon="1.47733">
        <ele>199.799977</ele>
        <time>2023-09-17T09:11:38.424Z</time>
      </trkpt>
      <trkpt lat="43.69461" lon="1.47727">
        <ele>199.926673</ele>
        <time>2023-09-17T09:11:40.424Z</time>
      </trkpt>
      <trkpt lat="43.69464" lon="1.47721">
        <ele>200.046349</ele>
        <time>2023-09-17T09:11:40.424Z</time>
      </trkpt>
      <trkpt lat="43.69466" lon="1.47715">
        <ele>200.16723</ele>
        <time>2023-09-17T09:11:42.424Z</time>
      </trkpt>
      <trkpt lat="43.69466" lon="1.47715">
        <ele>200.16723</ele>
        <time>2023-09-17T09:11:42.424Z</time>
      </trkpt>
      <trkpt lat="43.69469" lon="1.47709">
        <ele>200.283816</ele>
        <time>2023-09-17T09:11:42.424Z</time>
      </trkpt>
      <trkpt lat="43.69472" lon="1.47703">
        <ele>200.397721</ele>
        <time>2023-09-17T09:11:44.424Z</time>
      </trkpt>
      <trkpt lat="43.69474" lon="1.47697">
        <ele>200.51148</ele>
        <time>2023-09-17T09:11:44.424Z</time>
      </trkpt>
      <trkpt lat="43.69474" lon="1.47697">
        <ele>200.51148</ele>
        <time>2023-09-17T09:11:44.424Z</time>
      </trkpt>
      <trkpt lat="43.69477" lon="1.47692">
        <ele>200.629491</ele>
        <time>2023-09-17T09:11:46.424Z</time>
      </trkpt>
      <trkpt lat="43.69477" lon="1.47692">
        <ele>200.629491</ele>
        <time>2023-09-17T09:11:46.424Z</time>
      </trkpt>
      <trkpt lat="43.69479" lon="1.47687">
        <ele>200.725409</ele>
        <time>2023-09-17T09:11:46.424Z</time>
      </trkpt>
      <trkpt lat="43.69482" lon="1.47681">
        <ele>200.834259</ele>
        <time>2023-09-17T09:11:48.424Z</time>
      </trkpt>
      <trkpt lat="43.69482" lon="1.47681">
        <ele>200.834259</ele>
        <time>2023-09-17T09:11:48.424Z</time>
      </trkpt>
      <trkpt lat="43.69483" lon="1.47676">
        <ele>200.929077</ele>
        <time>2023-09-17T09:11:48.424Z</time>
      </trkpt>
      <trkpt lat="43.69483" lon="1.47676">
        <ele>200.929077</ele>
        <time>2023-09-17T09:11:48.424Z</time>
      </trkpt>
      <trkpt lat="43.69484" lon="1.4767">
        <ele>201.033693</ele>
        <time>2023-09-17T09:11:50.424Z</time>
      </trkpt>
      <trkpt lat="43.69484" lon="1.4767">
        <ele>201.033693</ele>
        <time>2023-09-17T09:11:50.424Z</time>
      </trkpt>
      <trkpt lat="43.69485" lon="1.47664">
        <ele>201.142168</ele>
        <time>2023-09-17T09:11:51.424Z</time>
      </trkpt>
      <trkpt lat="43.69486" lon="1.47657">
        <ele>201.254659</ele>
        <time>2023-09-17T09:11:52.424Z</time>
      </trkpt>
      <trkpt lat="43.69486" lon="1.47657">
        <ele>201.254659</ele>
        <time>2023-09-17T09:11:52.424Z</time>
      </trkpt>
      <trkpt lat="43.69486" lon="1.4765">
        <ele>201.469815</ele>
        <time>2023-09-17T09:11:53.424Z</time>
      </trkpt>
      <trkpt lat="43.69486" lon="1.4765">
        <ele>201.469815</ele>
        <time>2023-09-17T09:11:53.424Z</time>
      </trkpt>
      <trkpt lat="43.69486" lon="1.47643">
        <ele>201.700465</ele>
        <time>2023-09-17T09:11:54.424Z</time>
      </trkpt>
      <trkpt lat="43.69486" lon="1.47643">
        <ele>201.700465</ele>
        <time>2023-09-17T09:11:54.424Z</time>
      </trkpt>
      <trkpt lat="43.69486" lon="1.47636">
        <ele>201.909114</ele>
        <time>2023-09-17T09:11:55.424Z</time>
      </trkpt>
      <trkpt lat="43.69486" lon="1.47636">
        <ele>201.909114</ele>
        <time>2023-09-17T09:11:55.424Z</time>
      </trkpt>
      <trkpt lat="43.69486" lon="1.4763">
        <ele>202.101824</ele>
        <time>2023-09-17T09:11:56.424Z</time>
      </trkpt>
      <trkpt lat="43.69486" lon="1.4763">
        <ele>202.101824</ele>
        <time>2023-09-17T09:11:56.424Z</time>
      </trkpt>
      <trkpt lat="43.69486" lon="1.47626">
        <ele>202.232369</ele>
        <time>2023-09-17T09:11:57.424Z</time>
      </trkpt>
      <trkpt lat="43.69486" lon="1.47626">
        <ele>202.232369</ele>
        <time>2023-09-17T09:11:57.424Z</time>
      </trkpt>
      <trkpt lat="43.69487" lon="1.47622">
        <ele>202.364365</ele>
        <time>2023-09-17T09:11:58.424Z</time>
      </trkpt>
      <trkpt lat="43.69487" lon="1.47622">
        <ele>202.364365</ele>
        <time>2023-09-17T09:11:58.424Z</time>
      </trkpt>
      <trkpt lat="43.69487" lon="1.47617">
        <ele>202.49912</ele>
        <time>2023-09-17T09:11:59.424Z</time>
      </trkpt>
      <trkpt lat="43.69487" lon="1.47617">
        <ele>202.49912</ele>
        <time>2023-09-17T09:11:59.424Z</time>
      </trkpt>
      <trkpt lat="43.69488" lon="1.47612">
        <ele>202.655479</ele>
        <time>2023-09-17T09:12:00.424Z</time>
      </trkpt>
      <trkpt lat="43.69488" lon="1.47612">
        <ele>202.655479</ele>
        <time>2023-09-17T09:12:00.424Z</time>
      </trkpt>
      <trkpt lat="43.69488" lon="1.4761">
        <ele>202.731183</ele>
        <time>2023-09-17T09:12:01.424Z</time>
      </trkpt>
      <trkpt lat="43.69488" lon="1.4761">
        <ele>202.731183</ele>
        <time>2023-09-17T09:12:01.424Z</time>
      </trkpt>
      <trkpt lat="43.69492" lon="1.47599">
        <ele>203.113282</ele>
        <time>2023-09-17T09:12:03.424Z</time>
      </trkpt>
      <trkpt lat="43.69492" lon="1.47599">
        <ele>203.113282</ele>
        <time>2023-09-17T09:12:03.424Z</time>
      </trkpt>
      <trkpt lat="43.69493" lon="1.47593">
        <ele>203.28467</ele>
        <time>2023-09-17T09:12:04.424Z</time>
      </trkpt>
      <trkpt lat="43.69493" lon="1.47593">
        <ele>203.28467</ele>
        <time>2023-09-17T09:12:04.424Z</time>
      </trkpt>
      <trkpt lat="43.69494" lon="1.47589">
        <ele>203.425038</ele>
        <time>2023-09-17T09:12:05.424Z</time>
      </trkpt>
      <trkpt lat="43.69494" lon="1.47589">
        <ele>203.425038</ele>
        <time>2023-09-17T09:12:05.424Z</time>
      </trkpt>
      <trkpt lat="43.69498" lon="1.47578">
        <ele>203.828742</ele>
        <time>2023-09-17T09:12:07.424Z</time>
      </trkpt>
      <trkpt lat="43.69498" lon="1.47578">
        <ele>203.828742</ele>
        <time>2023-09-17T09:12:07.424Z</time>
      </trkpt>
      <trkpt lat="43.69501" lon="1.47573">
        <ele>204.025212</ele>
        <time>2023-09-17T09:12:08.424Z</time>
      </trkpt>
      <trkpt lat="43.69501" lon="1.47573">
        <ele>204.025212</ele>
        <time>2023-09-17T09:12:08.424Z</time>
      </trkpt>
      <trkpt lat="43.69503" lon="1.47569">
        <ele>204.156331</ele>
        <time>2023-09-17T09:12:09.424Z</time>
      </trkpt>
      <trkpt lat="43.69503" lon="1.47569">
        <ele>204.156331</ele>
        <time>2023-09-17T09:12:09.424Z</time>
      </trkpt>
      <trkpt lat="43.6951" lon="1.4756">
        <ele>204.553927</ele>
        <time>2023-09-17T09:12:10.424Z</time>
      </trkpt>
      <trkpt lat="43.6951" lon="1.4756">
        <ele>204.553927</ele>
        <time>2023-09-17T09:12:10.424Z</time>
      </trkpt>
      <trkpt lat="43.69514" lon="1.47554">
        <ele>204.830045</ele>
        <time>2023-09-17T09:12:11.424Z</time>
      </trkpt>
      <trkpt lat="43.69514" lon="1.47554">
        <ele>204.830045</ele>
        <time>2023-09-17T09:12:11.424Z</time>
      </trkpt>
      <trkpt lat="43.69518" lon="1.47548">
        <ele>205.087395</ele>
        <time>2023-09-17T09:12:12.424Z</time>
      </trkpt>
      <trkpt lat="43.69518" lon="1.47548">
        <ele>205.087395</ele>
        <time>2023-09-17T09:12:12.424Z</time>
      </trkpt>
      <trkpt lat="43.69523" lon="1.47541">
        <ele>205.376837</ele>
        <time>2023-09-17T09:12:13.424Z</time>
      </trkpt>
      <trkpt lat="43.69523" lon="1.47541">
        <ele>205.376837</ele>
        <time>2023-09-17T09:12:13.424Z</time>
      </trkpt>
      <trkpt lat="43.69526" lon="1.47537">
        <ele>205.548693</ele>
        <time>2023-09-17T09:12:14.424Z</time>
      </trkpt>
      <trkpt lat="43.69526" lon="1.47537">
        <ele>205.548693</ele>
        <time>2023-09-17T09:12:14.424Z</time>
      </trkpt>
      <trkpt lat="43.69528" lon="1.47532">
        <ele>205.727675</ele>
        <time>2023-09-17T09:12:15.424Z</time>
      </trkpt>
      <trkpt lat="43.69528" lon="1.47532">
        <ele>205.727675</ele>
        <time>2023-09-17T09:12:15.424Z</time>
      </trkpt>
      <trkpt lat="43.69534" lon="1.47524">
        <ele>206.108844</ele>
        <time>2023-09-17T09:12:17.424Z</time>
      </trkpt>
      <trkpt lat="43.69534" lon="1.47524">
        <ele>206.108844</ele>
        <time>2023-09-17T09:12:17.424Z</time>
      </trkpt>
      <trkpt lat="43.69536" lon="1.47521">
        <ele>206.238532</ele>
        <time>2023-09-17T09:12:18.424Z</time>
      </trkpt>
      <trkpt lat="43.69536" lon="1.47521">
        <ele>206.238532</ele>
        <time>2023-09-17T09:12:18.424Z</time>
      </trkpt>
      <trkpt lat="43.69541" lon="1.47514">
        <ele>206.539983</ele>
        <time>2023-09-17T09:12:20.424Z</time>
      </trkpt>
      <trkpt lat="43.69541" lon="1.47514">
        <ele>206.539983</ele>
        <time>2023-09-17T09:12:20.424Z</time>
      </trkpt>
      <trkpt lat="43.69543" lon="1.47514">
        <ele>206.604765</ele>
        <time>2023-09-17T09:12:21.424Z</time>
      </trkpt>
      <trkpt lat="43.69543" lon="1.47514">
        <ele>206.604765</ele>
        <time>2023-09-17T09:12:21.424Z</time>
      </trkpt>
      <trkpt lat="43.69545" lon="1.47516">
        <ele>206.721557</ele>
        <time>2023-09-17T09:12:22.424Z</time>
      </trkpt>
      <trkpt lat="43.69545" lon="1.47516">
        <ele>206.721557</ele>
        <time>2023-09-17T09:12:22.424Z</time>
      </trkpt>
      <trkpt lat="43.69547" lon="1.47517">
        <ele>206.829583</ele>
        <time>2023-09-17T09:12:23.424Z</time>
      </trkpt>
      <trkpt lat="43.69551" lon="1.47522">
        <ele>207.04263</ele>
        <time>2023-09-17T09:12:25.424Z</time>
      </trkpt>
      <trkpt lat="43.69551" lon="1.47522">
        <ele>207.04263</ele>
        <time>2023-09-17T09:12:25.424Z</time>
      </trkpt>
      <trkpt lat="43.69555" lon="1.47525">
        <ele>207.240636</ele>
        <time>2023-09-17T09:12:26.424Z</time>
      </trkpt>
      <trkpt lat="43.69555" lon="1.47525">
        <ele>207.240636</ele>
        <time>2023-09-17T09:12:26.424Z</time>
      </trkpt>
      <trkpt lat="43.69559" lon="1.4753">
        <ele>207.465274</ele>
        <time>2023-09-17T09:12:27.424Z</time>
      </trkpt>
      <trkpt lat="43.69559" lon="1.4753">
        <ele>207.465274</ele>
        <time>2023-09-17T09:12:27.424Z</time>
      </trkpt>
      <trkpt lat="43.69563" lon="1.47534">
        <ele>207.68627</ele>
        <time>2023-09-17T09:12:28.424Z</time>
      </trkpt>
      <trkpt lat="43.69567" lon="1.47538">
        <ele>207.88969</ele>
        <time>2023-09-17T09:12:28.424Z</time>
      </trkpt>
      <trkpt lat="43.69567" lon="1.47538">
        <ele>207.88969</ele>
        <time>2023-09-17T09:12:28.424Z</time>
      </trkpt>
      <trkpt lat="43.69571" lon="1.47543">
        <ele>208.132016</ele>
        <time>2023-09-17T09:12:30.424Z</time>
      </trkpt>
      <trkpt lat="43.69571" lon="1.47543">
        <ele>208.132016</ele>
        <time>2023-09-17T09:12:30.424Z</time>
      </trkpt>
      <trkpt lat="43.69575" lon="1.47548">
        <ele>208.361692</ele>
        <time>2023-09-17T09:12:31.424Z</time>
      </trkpt>
      <trkpt lat="43.69578" lon="1.47555">
        <ele>208.614188</ele>
        <time>2023-09-17T09:12:32.424Z</time>
      </trkpt>
      <trkpt lat="43.69578" lon="1.47555">
        <ele>208.614188</ele>
        <time>2023-09-17T09:12:32.424Z</time>
      </trkpt>
      <trkpt lat="43.69579" lon="1.47562">
        <ele>208.829224</ele>
        <time>2023-09-17T09:12:33.424Z</time>
      </trkpt>
      <trkpt lat="43.69581" lon="1.4757">
        <ele>209.007005</ele>
        <time>2023-09-17T09:12:34.424Z</time>
      </trkpt>
      <trkpt lat="43.69581" lon="1.4757">
        <ele>209.007005</ele>
        <time>2023-09-17T09:12:34.424Z</time>
      </trkpt>
      <trkpt lat="43.69582" lon="1.47578">
        <ele>209.068311</ele>
        <time>2023-09-17T09:12:35.424Z</time>
      </trkpt>
      <trkpt lat="43.69583" lon="1.47586">
        <ele>209.131133</ele>
        <time>2023-09-17T09:12:36.424Z</time>
      </trkpt>
      <trkpt lat="43.69584" lon="1.47593">
        <ele>209.187382</ele>
        <time>2023-09-17T09:12:37.424Z</time>
      </trkpt>
      <trkpt lat="43.69584" lon="1.47593">
        <ele>209.187382</ele>
        <time>2023-09-17T09:12:37.424Z</time>
      </trkpt>
      <trkpt lat="43.69586" lon="1.47601">
        <ele>209.256016</ele>
        <time>2023-09-17T09:12:38.424Z</time>
      </trkpt>
      <trkpt lat="43.69588" lon="1.47609">
        <ele>209.315869</ele>
        <time>2023-09-17T09:12:39.424Z</time>
      </trkpt>
      <trkpt lat="43.6959" lon="1.47616">
        <ele>209.376593</ele>
        <time>2023-09-17T09:12:40.424Z</time>
      </trkpt>
      <trkpt lat="43.6959" lon="1.47616">
        <ele>209.376593</ele>
        <time>2023-09-17T09:12:40.424Z</time>
      </trkpt>
      <trkpt lat="43.69593" lon="1.47623">
        <ele>209.435093</ele>
        <time>2023-09-17T09:12:41.424Z</time>
      </trkpt>
      <trkpt lat="43.69593" lon="1.47623">
        <ele>209.435093</ele>
        <time>2023-09-17T09:12:41.424Z</time>
      </trkpt>
      <trkpt lat="43.69595" lon="1.47629">
        <ele>209.495117</ele>
        <time>2023-09-17T09:12:42.424Z</time>
      </trkpt>
      <trkpt lat="43.69598" lon="1.47637">
        <ele>209.557003</ele>
        <time>2023-09-17T09:12:43.424Z</time>
      </trkpt>
      <trkpt lat="43.69601" lon="1.47643">
        <ele>209.613501</ele>
        <time>2023-09-17T09:12:44.424Z</time>
      </trkpt>
      <trkpt lat="43.69601" lon="1.47643">
        <ele>209.613501</ele>
        <time>2023-09-17T09:12:44.424Z</time>
      </trkpt>
      <trkpt lat="43.69604" lon="1.4765">
        <ele>209.676275</ele>
        <time>2023-09-17T09:12:45.424Z</time>
      </trkpt>
      <trkpt lat="43.69604" lon="1.4765">
        <ele>209.676275</ele>
        <time>2023-09-17T09:12:45.424Z</time>
      </trkpt>
      <trkpt lat="43.69607" lon="1.47657">
        <ele>209.74026</ele>
        <time>2023-09-17T09:12:46.424Z</time>
      </trkpt>
      <trkpt lat="43.6961" lon="1.47664">
        <ele>209.800785</ele>
        <time>2023-09-17T09:12:47.424Z</time>
      </trkpt>
      <trkpt lat="43.69612" lon="1.47671">
        <ele>209.865646</ele>
        <time>2023-09-17T09:12:48.424Z</time>
      </trkpt>
      <trkpt lat="43.69612" lon="1.47671">
        <ele>209.865646</ele>
        <time>2023-09-17T09:12:48.424Z</time>
      </trkpt>
      <trkpt lat="43.69615" lon="1.47679">
        <ele>209.93431</ele>
        <time>2023-09-17T09:12:49.424Z</time>
      </trkpt>
      <trkpt lat="43.69618" lon="1.47686">
        <ele>209.995019</ele>
        <time>2023-09-17T09:12:50.424Z</time>
      </trkpt>
      <trkpt lat="43.69618" lon="1.47686">
        <ele>209.995019</ele>
        <time>2023-09-17T09:12:50.424Z</time>
      </trkpt>
      <trkpt lat="43.69621" lon="1.47693">
        <ele>210.057589</ele>
        <time>2023-09-17T09:12:51.424Z</time>
      </trkpt>
      <trkpt lat="43.69623" lon="1.477">
        <ele>210.118114</ele>
        <time>2023-09-17T09:12:52.424Z</time>
      </trkpt>
      <trkpt lat="43.69623" lon="1.477">
        <ele>210.118114</ele>
        <time>2023-09-17T09:12:52.424Z</time>
      </trkpt>
      <trkpt lat="43.69626" lon="1.47707">
        <ele>210.179566</ele>
        <time>2023-09-17T09:12:53.424Z</time>
      </trkpt>
      <trkpt lat="43.69629" lon="1.47713">
        <ele>210.231955</ele>
        <time>2023-09-17T09:12:54.424Z</time>
      </trkpt>
      <trkpt lat="43.69631" lon="1.47719">
        <ele>210.288452</ele>
        <time>2023-09-17T09:12:55.424Z</time>
      </trkpt>
      <trkpt lat="43.69631" lon="1.47719">
        <ele>210.288452</ele>
        <time>2023-09-17T09:12:55.424Z</time>
      </trkpt>
      <trkpt lat="43.69634" lon="1.47725">
        <ele>210.335478</ele>
        <time>2023-09-17T09:12:56.424Z</time>
      </trkpt>
      <trkpt lat="43.69636" lon="1.4773">
        <ele>210.381847</ele>
        <time>2023-09-17T09:12:57.424Z</time>
      </trkpt>
      <trkpt lat="43.69638" lon="1.47735">
        <ele>210.427483</ele>
        <time>2023-09-17T09:12:58.424Z</time>
      </trkpt>
      <trkpt lat="43.69638" lon="1.47735">
        <ele>210.427483</ele>
        <time>2023-09-17T09:12:58.424Z</time>
      </trkpt>
      <trkpt lat="43.69639" lon="1.47741">
        <ele>210.473553</ele>
        <time>2023-09-17T09:12:59.424Z</time>
      </trkpt>
      <trkpt lat="43.69639" lon="1.47741">
        <ele>210.473553</ele>
        <time>2023-09-17T09:12:59.424Z</time>
      </trkpt>
      <trkpt lat="43.6964" lon="1.47746">
        <ele>210.515661</ele>
        <time>2023-09-17T09:13:00.424Z</time>
      </trkpt>
      <trkpt lat="43.69641" lon="1.47751">
        <ele>210.553597</ele>
        <time>2023-09-17T09:13:01.424Z</time>
      </trkpt>
      <trkpt lat="43.69641" lon="1.47751">
        <ele>210.553597</ele>
        <time>2023-09-17T09:13:01.424Z</time>
      </trkpt>
      <trkpt lat="43.6964" lon="1.47755">
        <ele>210.583852</ele>
        <time>2023-09-17T09:13:02.424Z</time>
      </trkpt>
      <trkpt lat="43.6964" lon="1.47758">
        <ele>210.609244</ele>
        <time>2023-09-17T09:13:03.424Z</time>
      </trkpt>
      <trkpt lat="43.6964" lon="1.47757">
        <ele>210.618061</ele>
        <time>2023-09-17T09:13:04.424Z</time>
      </trkpt>
      <trkpt lat="43.6964" lon="1.47761">
        <ele>210.647375</ele>
        <time>2023-09-17T09:13:06.424Z</time>
      </trkpt>
      <trkpt lat="43.6964" lon="1.47761">
        <ele>210.647375</ele>
        <time>2023-09-17T09:13:06.424Z</time>
      </trkpt>
      <trkpt lat="43.6964" lon="1.47761">
        <ele>210.647375</ele>
        <time>2023-09-17T09:13:07.424Z</time>
      </trkpt>
      <trkpt lat="43.69645" lon="1.47765">
        <ele>210.708882</ele>
        <time>2023-09-17T09:13:09.424Z</time>
      </trkpt>
      <trkpt lat="43.69647" lon="1.47764">
        <ele>210.72657</ele>
        <time>2023-09-17T09:13:10.424Z</time>
      </trkpt>
      <trkpt lat="43.6965" lon="1.47766">
        <ele>210.761462</ele>
        <time>2023-09-17T09:13:11.424Z</time>
      </trkpt>
      <trkpt lat="43.69655" lon="1.47771">
        <ele>210.834745</ele>
        <time>2023-09-17T09:13:13.424Z</time>
      </trkpt>
      <trkpt lat="43.69664" lon="1.47781">
        <ele>210.867388</ele>
        <time>2023-09-17T09:13:15.424Z</time>
      </trkpt>
      <trkpt lat="43.69664" lon="1.47781">
        <ele>210.867388</ele>
        <time>2023-09-17T09:13:15.424Z</time>
      </trkpt>
      <trkpt lat="43.69667" lon="1.47784">
        <ele>210.842817</ele>
        <time>2023-09-17T09:13:16.424Z</time>
      </trkpt>
      <trkpt lat="43.69671" lon="1.47788">
        <ele>210.815361</ele>
        <time>2023-09-17T09:13:17.424Z</time>
      </trkpt>
      <trkpt lat="43.69671" lon="1.47788">
        <ele>210.815361</ele>
        <time>2023-09-17T09:13:17.424Z</time>
      </trkpt>
      <trkpt lat="43.69675" lon="1.47793">
        <ele>210.781992</ele>
        <time>2023-09-17T09:13:18.424Z</time>
      </trkpt>
      <trkpt lat="43.69675" lon="1.47793">
        <ele>210.781992</ele>
        <time>2023-09-17T09:13:18.424Z</time>
      </trkpt>
      <trkpt lat="43.6968" lon="1.47798">
        <ele>210.741484</ele>
        <time>2023-09-17T09:13:19.424Z</time>
      </trkpt>
      <trkpt lat="43.69684" lon="1.47803">
        <ele>210.707263</ele>
        <time>2023-09-17T09:13:20.424Z</time>
      </trkpt>
      <trkpt lat="43.69688" lon="1.47808">
        <ele>210.675244</ele>
        <time>2023-09-17T09:13:21.424Z</time>
      </trkpt>
      <trkpt lat="43.69692" lon="1.47813">
        <ele>210.640438</ele>
        <time>2023-09-17T09:13:22.424Z</time>
      </trkpt>
      <trkpt lat="43.69696" lon="1.47818">
        <ele>210.605927</ele>
        <time>2023-09-17T09:13:23.424Z</time>
      </trkpt>
      <trkpt lat="43.697" lon="1.47822">
        <ele>210.572277</ele>
        <time>2023-09-17T09:13:24.424Z</time>
      </trkpt>
      <trkpt lat="43.69705" lon="1.47827">
        <ele>210.53456</ele>
        <time>2023-09-17T09:13:25.424Z</time>
      </trkpt>
      <trkpt lat="43.69711" lon="1.47831">
        <ele>210.497271</ele>
        <time>2023-09-17T09:13:26.424Z</time>
      </trkpt>
      <trkpt lat="43.69716" lon="1.47834">
        <ele>210.460005</ele>
        <time>2023-09-17T09:13:27.424Z</time>
      </trkpt>
      <trkpt lat="43.69716" lon="1.47834">
        <ele>210.460005</ele>
        <time>2023-09-17T09:13:27.424Z</time>
      </trkpt>
      <trkpt lat="43.69722" lon="1.47837">
        <ele>210.422446</ele>
        <time>2023-09-17T09:13:28.424Z</time>
      </trkpt>
      <trkpt lat="43.69727" lon="1.47838">
        <ele>210.385723</ele>
        <time>2023-09-17T09:13:29.424Z</time>
      </trkpt>
      <trkpt lat="43.69734" lon="1.47839">
        <ele>210.344645</ele>
        <time>2023-09-17T09:13:30.424Z</time>
      </trkpt>
      <trkpt lat="43.6974" lon="1.4784">
        <ele>210.308832</ele>
        <time>2023-09-17T09:13:31.424Z</time>
      </trkpt>
      <trkpt lat="43.6974" lon="1.4784">
        <ele>210.308832</ele>
        <time>2023-09-17T09:13:31.424Z</time>
      </trkpt>
      <trkpt lat="43.69745" lon="1.47839">
        <ele>210.272391</ele>
        <time>2023-09-17T09:13:32.424Z</time>
      </trkpt>
      <trkpt lat="43.69745" lon="1.47839">
        <ele>210.272391</ele>
        <time>2023-09-17T09:13:32.424Z</time>
      </trkpt>
      <trkpt lat="43.69751" lon="1.47839">
        <ele>210.233981</ele>
        <time>2023-09-17T09:13:33.424Z</time>
      </trkpt>
      <trkpt lat="43.69751" lon="1.47839">
        <ele>210.233981</ele>
        <time>2023-09-17T09:13:33.424Z</time>
      </trkpt>
      <trkpt lat="43.69758" lon="1.47838">
        <ele>210.193474</ele>
        <time>2023-09-17T09:13:34.424Z</time>
      </trkpt>
      <trkpt lat="43.69764" lon="1.47836">
        <ele>210.154708</ele>
        <time>2023-09-17T09:13:35.424Z</time>
      </trkpt>
      <trkpt lat="43.69764" lon="1.47836">
        <ele>210.154708</ele>
        <time>2023-09-17T09:13:35.424Z</time>
      </trkpt>
      <trkpt lat="43.6977" lon="1.47835">
        <ele>210.113389</ele>
        <time>2023-09-17T09:13:36.424Z</time>
      </trkpt>
      <trkpt lat="43.69777" lon="1.47833">
        <ele>210.069109</ele>
        <time>2023-09-17T09:13:37.424Z</time>
      </trkpt>
      <trkpt lat="43.69777" lon="1.47833">
        <ele>210.069109</ele>
        <time>2023-09-17T09:13:37.424Z</time>
      </trkpt>
      <trkpt lat="43.69784" lon="1.47831">
        <ele>210.026968</ele>
        <time>2023-09-17T09:13:38.424Z</time>
      </trkpt>
      <trkpt lat="43.69784" lon="1.47831">
        <ele>210.026968</ele>
        <time>2023-09-17T09:13:38.424Z</time>
      </trkpt>
      <trkpt lat="43.69791" lon="1.47828">
        <ele>209.982533</ele>
        <time>2023-09-17T09:13:39.424Z</time>
      </trkpt>
      <trkpt lat="43.69791" lon="1.47828">
        <ele>209.982533</ele>
        <time>2023-09-17T09:13:39.424Z</time>
      </trkpt>
      <trkpt lat="43.69797" lon="1.47825">
        <ele>209.939772</ele>
        <time>2023-09-17T09:13:40.424Z</time>
      </trkpt>
      <trkpt lat="43.69804" lon="1.47822">
        <ele>209.894607</ele>
        <time>2023-09-17T09:13:41.424Z</time>
      </trkpt>
      <trkpt lat="43.69804" lon="1.47822">
        <ele>209.894607</ele>
        <time>2023-09-17T09:13:41.424Z</time>
      </trkpt>
      <trkpt lat="43.69811" lon="1.4782">
        <ele>209.852108</ele>
        <time>2023-09-17T09:13:42.424Z</time>
      </trkpt>
      <trkpt lat="43.69811" lon="1.4782">
        <ele>209.852108</ele>
        <time>2023-09-17T09:13:42.424Z</time>
      </trkpt>
      <trkpt lat="43.69817" lon="1.47817">
        <ele>209.807068</ele>
        <time>2023-09-17T09:13:43.424Z</time>
      </trkpt>
      <trkpt lat="43.69825" lon="1.47814">
        <ele>209.701297</ele>
        <time>2023-09-17T09:13:44.424Z</time>
      </trkpt>
      <trkpt lat="43.69832" lon="1.47811">
        <ele>209.380279</ele>
        <time>2023-09-17T09:13:45.424Z</time>
      </trkpt>
      <trkpt lat="43.69832" lon="1.47811">
        <ele>209.380279</ele>
        <time>2023-09-17T09:13:45.424Z</time>
      </trkpt>
      <trkpt lat="43.69838" lon="1.47809">
        <ele>209.099098</ele>
        <time>2023-09-17T09:13:46.424Z</time>
      </trkpt>
      <trkpt lat="43.69838" lon="1.47809">
        <ele>209.099098</ele>
        <time>2023-09-17T09:13:46.424Z</time>
      </trkpt>
      <trkpt lat="43.69845" lon="1.47806">
        <ele>208.796821</ele>
        <time>2023-09-17T09:13:47.424Z</time>
      </trkpt>
      <trkpt lat="43.69845" lon="1.47806">
        <ele>208.796821</ele>
        <time>2023-09-17T09:13:47.424Z</time>
      </trkpt>
      <trkpt lat="43.69851" lon="1.47804">
        <ele>208.531085</ele>
        <time>2023-09-17T09:13:48.424Z</time>
      </trkpt>
      <trkpt lat="43.69851" lon="1.47804">
        <ele>208.531085</ele>
        <time>2023-09-17T09:13:48.424Z</time>
      </trkpt>
      <trkpt lat="43.69859" lon="1.47802">
        <ele>208.22026</ele>
        <time>2023-09-17T09:13:49.424Z</time>
      </trkpt>
      <trkpt lat="43.69859" lon="1.47802">
        <ele>208.22026</ele>
        <time>2023-09-17T09:13:49.424Z</time>
      </trkpt>
      <trkpt lat="43.69868" lon="1.47798">
        <ele>207.81884</ele>
        <time>2023-09-17T09:13:50.424Z</time>
      </trkpt>
      <trkpt lat="43.69868" lon="1.47798">
        <ele>207.81884</ele>
        <time>2023-09-17T09:13:50.424Z</time>
      </trkpt>
      <trkpt lat="43.69876" lon="1.47795">
        <ele>207.44814</ele>
        <time>2023-09-17T09:13:51.424Z</time>
      </trkpt>
      <trkpt lat="43.69876" lon="1.47795">
        <ele>207.44814</ele>
        <time>2023-09-17T09:13:51.424Z</time>
      </trkpt>
      <trkpt lat="43.69883" lon="1.47789">
        <ele>207.09477</ele>
        <time>2023-09-17T09:13:52.424Z</time>
      </trkpt>
      <trkpt lat="43.69889" lon="1.47783">
        <ele>206.789096</ele>
        <time>2023-09-17T09:13:53.424Z</time>
      </trkpt>
      <trkpt lat="43.69889" lon="1.47783">
        <ele>206.789096</ele>
        <time>2023-09-17T09:13:53.424Z</time>
      </trkpt>
      <trkpt lat="43.69894" lon="1.47777">
        <ele>206.511201</ele>
        <time>2023-09-17T09:13:54.424Z</time>
      </trkpt>
      <trkpt lat="43.69894" lon="1.47777">
        <ele>206.511201</ele>
        <time>2023-09-17T09:13:54.424Z</time>
      </trkpt>
      <trkpt lat="43.69898" lon="1.4777">
        <ele>206.245518</ele>
        <time>2023-09-17T09:13:55.424Z</time>
      </trkpt>
      <trkpt lat="43.69898" lon="1.4777">
        <ele>206.245518</ele>
        <time>2023-09-17T09:13:55.424Z</time>
      </trkpt>
      <trkpt lat="43.69903" lon="1.47763">
        <ele>205.950398</ele>
        <time>2023-09-17T09:13:56.424Z</time>
      </trkpt>
      <trkpt lat="43.69903" lon="1.47763">
        <ele>205.950398</ele>
        <time>2023-09-17T09:13:56.424Z</time>
      </trkpt>
      <trkpt lat="43.69908" lon="1.47755">
        <ele>205.641715</ele>
        <time>2023-09-17T09:13:57.424Z</time>
      </trkpt>
      <trkpt lat="43.69908" lon="1.47755">
        <ele>205.641715</ele>
        <time>2023-09-17T09:13:57.424Z</time>
      </trkpt>
      <trkpt lat="43.69913" lon="1.47748">
        <ele>205.335895</ele>
        <time>2023-09-17T09:13:57.424Z</time>
      </trkpt>
      <trkpt lat="43.69913" lon="1.47748">
        <ele>205.335895</ele>
        <time>2023-09-17T09:13:57.424Z</time>
      </trkpt>
      <trkpt lat="43.69918" lon="1.47741">
        <ele>205.033828</ele>
        <time>2023-09-17T09:13:59.424Z</time>
      </trkpt>
      <trkpt lat="43.69918" lon="1.47741">
        <ele>205.033828</ele>
        <time>2023-09-17T09:13:59.424Z</time>
      </trkpt>
      <trkpt lat="43.69923" lon="1.47733">
        <ele>204.712018</ele>
        <time>2023-09-17T09:13:59.424Z</time>
      </trkpt>
      <trkpt lat="43.69923" lon="1.47733">
        <ele>204.712018</ele>
        <time>2023-09-17T09:13:59.424Z</time>
      </trkpt>
      <trkpt lat="43.69928" lon="1.47725">
        <ele>204.376229</ele>
        <time>2023-09-17T09:14:01.424Z</time>
      </trkpt>
      <trkpt lat="43.69928" lon="1.47725">
        <ele>204.376229</ele>
        <time>2023-09-17T09:14:01.424Z</time>
      </trkpt>
      <trkpt lat="43.69935" lon="1.47717">
        <ele>204.000094</ele>
        <time>2023-09-17T09:14:02.424Z</time>
      </trkpt>
      <trkpt lat="43.69935" lon="1.47717">
        <ele>204.000094</ele>
        <time>2023-09-17T09:14:02.424Z</time>
      </trkpt>
      <trkpt lat="43.69941" lon="1.47708">
        <ele>203.62343</ele>
        <time>2023-09-17T09:14:03.424Z</time>
      </trkpt>
      <trkpt lat="43.69941" lon="1.47708">
        <ele>203.62343</ele>
        <time>2023-09-17T09:14:03.424Z</time>
      </trkpt>
      <trkpt lat="43.69948" lon="1.47699">
        <ele>203.224582</ele>
        <time>2023-09-17T09:14:04.424Z</time>
      </trkpt>
      <trkpt lat="43.69948" lon="1.47699">
        <ele>203.224582</ele>
        <time>2023-09-17T09:14:04.424Z</time>
      </trkpt>
      <trkpt lat="43.69955" lon="1.47689">
        <ele>202.791486</ele>
        <time>2023-09-17T09:14:05.424Z</time>
      </trkpt>
      <trkpt lat="43.69955" lon="1.47689">
        <ele>202.791486</ele>
        <time>2023-09-17T09:14:05.424Z</time>
      </trkpt>
      <trkpt lat="43.69962" lon="1.47679">
        <ele>202.374132</ele>
        <time>2023-09-17T09:14:06.424Z</time>
      </trkpt>
      <trkpt lat="43.69962" lon="1.47679">
        <ele>202.374132</ele>
        <time>2023-09-17T09:14:06.424Z</time>
      </trkpt>
      <trkpt lat="43.6997" lon="1.4767">
        <ele>201.971928</ele>
        <time>2023-09-17T09:14:07.424Z</time>
      </trkpt>
      <trkpt lat="43.6997" lon="1.4767">
        <ele>201.971928</ele>
        <time>2023-09-17T09:14:07.424Z</time>
      </trkpt>
      <trkpt lat="43.69978" lon="1.4766">
        <ele>201.552709</ele>
        <time>2023-09-17T09:14:08.424Z</time>
      </trkpt>
      <trkpt lat="43.69978" lon="1.4766">
        <ele>201.552709</ele>
        <time>2023-09-17T09:14:08.424Z</time>
      </trkpt>
      <trkpt lat="43.69985" lon="1.47651">
        <ele>201.179158</ele>
        <time>2023-09-17T09:14:09.424Z</time>
      </trkpt>
      <trkpt lat="43.69985" lon="1.47651">
        <ele>201.179158</ele>
        <time>2023-09-17T09:14:09.424Z</time>
      </trkpt>
      <trkpt lat="43.69992" lon="1.47643">
        <ele>200.822238</ele>
        <time>2023-09-17T09:14:10.424Z</time>
      </trkpt>
      <trkpt lat="43.69992" lon="1.47643">
        <ele>200.822238</ele>
        <time>2023-09-17T09:14:10.424Z</time>
      </trkpt>
      <trkpt lat="43.7" lon="1.47637">
        <ele>200.479198</ele>
        <time>2023-09-17T09:14:11.424Z</time>
      </trkpt>
      <trkpt lat="43.7" lon="1.47637">
        <ele>200.479198</ele>
        <time>2023-09-17T09:14:11.424Z</time>
      </trkpt>
      <trkpt lat="43.70007" lon="1.47632">
        <ele>200.162101</ele>
        <time>2023-09-17T09:14:12.424Z</time>
      </trkpt>
      <trkpt lat="43.70007" lon="1.47632">
        <ele>200.162101</ele>
        <time>2023-09-17T09:14:12.424Z</time>
      </trkpt>
      <trkpt lat="43.70015" lon="1.47627">
        <ele>199.80875</ele>
        <time>2023-09-17T09:14:13.424Z</time>
      </trkpt>
      <trkpt lat="43.70015" lon="1.47627">
        <ele>199.80875</ele>
        <time>2023-09-17T09:14:13.424Z</time>
      </trkpt>
      <trkpt lat="43.70024" lon="1.47624">
        <ele>199.469254</ele>
        <time>2023-09-17T09:14:14.424Z</time>
      </trkpt>
      <trkpt lat="43.70024" lon="1.47624">
        <ele>199.469254</ele>
        <time>2023-09-17T09:14:14.424Z</time>
      </trkpt>
      <trkpt lat="43.70032" lon="1.47622">
        <ele>199.153674</ele>
        <time>2023-09-17T09:14:15.424Z</time>
      </trkpt>
      <trkpt lat="43.70032" lon="1.47622">
        <ele>199.153674</ele>
        <time>2023-09-17T09:14:15.424Z</time>
      </trkpt>
      <trkpt lat="43.70041" lon="1.4762">
        <ele>198.8086</ele>
        <time>2023-09-17T09:14:16.424Z</time>
      </trkpt>
      <trkpt lat="43.70041" lon="1.4762">
        <ele>198.8086</ele>
        <time>2023-09-17T09:14:16.424Z</time>
      </trkpt>
      <trkpt lat="43.70048" lon="1.4762">
        <ele>198.512789</ele>
        <time>2023-09-17T09:14:17.424Z</time>
      </trkpt>
      <trkpt lat="43.70048" lon="1.4762">
        <ele>198.512789</ele>
        <time>2023-09-17T09:14:17.424Z</time>
      </trkpt>
      <trkpt lat="43.70056" lon="1.4762">
        <ele>198.197874</ele>
        <time>2023-09-17T09:14:18.424Z</time>
      </trkpt>
      <trkpt lat="43.70056" lon="1.4762">
        <ele>198.197874</ele>
        <time>2023-09-17T09:14:18.424Z</time>
      </trkpt>
      <trkpt lat="43.70064" lon="1.4762">
        <ele>197.886034</ele>
        <time>2023-09-17T09:14:19.424Z</time>
      </trkpt>
      <trkpt lat="43.70064" lon="1.4762">
        <ele>197.886034</ele>
        <time>2023-09-17T09:14:19.424Z</time>
      </trkpt>
      <trkpt lat="43.70072" lon="1.47622">
        <ele>197.571771</ele>
        <time>2023-09-17T09:14:20.424Z</time>
      </trkpt>
      <trkpt lat="43.70072" lon="1.47622">
        <ele>197.571771</ele>
        <time>2023-09-17T09:14:20.424Z</time>
      </trkpt>
      <trkpt lat="43.70081" lon="1.47624">
        <ele>197.240389</ele>
        <time>2023-09-17T09:14:21.424Z</time>
      </trkpt>
      <trkpt lat="43.70081" lon="1.47624">
        <ele>197.240389</ele>
        <time>2023-09-17T09:14:21.424Z</time>
      </trkpt>
      <trkpt lat="43.70089" lon="1.47626">
        <ele>196.924322</ele>
        <time>2023-09-17T09:14:22.424Z</time>
      </trkpt>
      <trkpt lat="43.70089" lon="1.47626">
        <ele>196.924322</ele>
        <time>2023-09-17T09:14:22.424Z</time>
      </trkpt>
      <trkpt lat="43.70097" lon="1.47628">
        <ele>196.593846</ele>
        <time>2023-09-17T09:14:23.424Z</time>
      </trkpt>
      <trkpt lat="43.70105" lon="1.47629">
        <ele>196.265229</ele>
        <time>2023-09-17T09:14:24.424Z</time>
      </trkpt>
      <trkpt lat="43.70114" lon="1.4763">
        <ele>195.937443</ele>
        <time>2023-09-17T09:14:25.424Z</time>
      </trkpt>
      <trkpt lat="43.70123" lon="1.4763">
        <ele>195.568086</ele>
        <time>2023-09-17T09:14:26.424Z</time>
      </trkpt>
      <trkpt lat="43.70123" lon="1.4763">
        <ele>195.568086</ele>
        <time>2023-09-17T09:14:26.424Z</time>
      </trkpt>
      <trkpt lat="43.70132" lon="1.47629">
        <ele>195.2237</ele>
        <time>2023-09-17T09:14:27.424Z</time>
      </trkpt>
      <trkpt lat="43.70132" lon="1.47629">
        <ele>195.2237</ele>
        <time>2023-09-17T09:14:27.424Z</time>
      </trkpt>
      <trkpt lat="43.70141" lon="1.47626">
        <ele>195.248173</ele>
        <time>2023-09-17T09:14:28.424Z</time>
      </trkpt>
      <trkpt lat="43.70149" lon="1.47622">
        <ele>195.30949</ele>
        <time>2023-09-17T09:14:29.424Z</time>
      </trkpt>
      <trkpt lat="43.70156" lon="1.47619">
        <ele>195.358719</ele>
        <time>2023-09-17T09:14:30.424Z</time>
      </trkpt>
      <trkpt lat="43.70164" lon="1.47615">
        <ele>195.415891</ele>
        <time>2023-09-17T09:14:31.424Z</time>
      </trkpt>
      <trkpt lat="43.70164" lon="1.47615">
        <ele>195.415891</ele>
        <time>2023-09-17T09:14:31.424Z</time>
      </trkpt>
      <trkpt lat="43.70172" lon="1.47611">
        <ele>195.470204</ele>
        <time>2023-09-17T09:14:32.424Z</time>
      </trkpt>
      <trkpt lat="43.7018" lon="1.47608">
        <ele>195.528511</ele>
        <time>2023-09-17T09:14:33.424Z</time>
      </trkpt>
      <trkpt lat="43.70188" lon="1.47607">
        <ele>195.582707</ele>
        <time>2023-09-17T09:14:34.424Z</time>
      </trkpt>
      <trkpt lat="43.70198" lon="1.47607">
        <ele>195.647256</ele>
        <time>2023-09-17T09:14:35.424Z</time>
      </trkpt>
      <trkpt lat="43.70207" lon="1.4761">
        <ele>195.709808</ele>
        <time>2023-09-17T09:14:36.424Z</time>
      </trkpt>
      <trkpt lat="43.70213" lon="1.47613">
        <ele>195.753829</ele>
        <time>2023-09-17T09:14:37.424Z</time>
      </trkpt>
      <trkpt lat="43.70219" lon="1.47617">
        <ele>195.801842</ele>
        <time>2023-09-17T09:14:38.424Z</time>
      </trkpt>
      <trkpt lat="43.70225" lon="1.47622">
        <ele>195.845713</ele>
        <time>2023-09-17T09:14:39.424Z</time>
      </trkpt>
      <trkpt lat="43.70225" lon="1.47622">
        <ele>195.845713</ele>
        <time>2023-09-17T09:14:39.424Z</time>
      </trkpt>
      <trkpt lat="43.70231" lon="1.47626">
        <ele>195.890891</ele>
        <time>2023-09-17T09:14:40.424Z</time>
      </trkpt>
      <trkpt lat="43.70231" lon="1.47626">
        <ele>195.890891</ele>
        <time>2023-09-17T09:14:40.424Z</time>
      </trkpt>
      <trkpt lat="43.70237" lon="1.47631">
        <ele>195.938546</ele>
        <time>2023-09-17T09:14:41.424Z</time>
      </trkpt>
      <trkpt lat="43.70237" lon="1.47631">
        <ele>195.938546</ele>
        <time>2023-09-17T09:14:41.424Z</time>
      </trkpt>
      <trkpt lat="43.70244" lon="1.47636">
        <ele>195.988298</ele>
        <time>2023-09-17T09:14:42.424Z</time>
      </trkpt>
      <trkpt lat="43.70244" lon="1.47636">
        <ele>195.988298</ele>
        <time>2023-09-17T09:14:42.424Z</time>
      </trkpt>
      <trkpt lat="43.7025" lon="1.47641">
        <ele>196.034761</ele>
        <time>2023-09-17T09:14:43.424Z</time>
      </trkpt>
      <trkpt lat="43.7025" lon="1.47641">
        <ele>196.034761</ele>
        <time>2023-09-17T09:14:43.424Z</time>
      </trkpt>
      <trkpt lat="43.70256" lon="1.47645">
        <ele>196.080775</ele>
        <time>2023-09-17T09:14:44.424Z</time>
      </trkpt>
      <trkpt lat="43.70256" lon="1.47645">
        <ele>196.080775</ele>
        <time>2023-09-17T09:14:44.424Z</time>
      </trkpt>
      <trkpt lat="43.70262" lon="1.4765">
        <ele>196.127012</ele>
        <time>2023-09-17T09:14:45.424Z</time>
      </trkpt>
      <trkpt lat="43.70262" lon="1.4765">
        <ele>196.127012</ele>
        <time>2023-09-17T09:14:45.424Z</time>
      </trkpt>
      <trkpt lat="43.70268" lon="1.47654">
        <ele>196.174179</ele>
        <time>2023-09-17T09:14:46.424Z</time>
      </trkpt>
      <trkpt lat="43.70268" lon="1.47654">
        <ele>196.174179</ele>
        <time>2023-09-17T09:14:46.424Z</time>
      </trkpt>
      <trkpt lat="43.70274" lon="1.47659">
        <ele>196.221587</ele>
        <time>2023-09-17T09:14:47.424Z</time>
      </trkpt>
      <trkpt lat="43.70274" lon="1.47659">
        <ele>196.221587</ele>
        <time>2023-09-17T09:14:47.424Z</time>
      </trkpt>
      <trkpt lat="43.7028" lon="1.47664">
        <ele>196.268281</ele>
        <time>2023-09-17T09:14:48.424Z</time>
      </trkpt>
      <trkpt lat="43.70286" lon="1.47668">
        <ele>196.313446</ele>
        <time>2023-09-17T09:14:49.424Z</time>
      </trkpt>
      <trkpt lat="43.70292" lon="1.47672">
        <ele>196.355972</ele>
        <time>2023-09-17T09:14:50.424Z</time>
      </trkpt>
      <trkpt lat="43.70298" lon="1.47675">
        <ele>196.398086</ele>
        <time>2023-09-17T09:14:51.424Z</time>
      </trkpt>
      <trkpt lat="43.70305" lon="1.47679">
        <ele>196.284514</ele>
        <time>2023-09-17T09:14:52.424Z</time>
      </trkpt>
      <trkpt lat="43.70305" lon="1.47679">
        <ele>196.284514</ele>
        <time>2023-09-17T09:14:52.424Z</time>
      </trkpt>
      <trkpt lat="43.70311" lon="1.47683">
        <ele>196.156751</ele>
        <time>2023-09-17T09:14:53.424Z</time>
      </trkpt>
      <trkpt lat="43.70317" lon="1.47686">
        <ele>196.036245</ele>
        <time>2023-09-17T09:14:54.424Z</time>
      </trkpt>
      <trkpt lat="43.70323" lon="1.4769">
        <ele>195.914704</ele>
        <time>2023-09-17T09:14:55.424Z</time>
      </trkpt>
      <trkpt lat="43.70323" lon="1.4769">
        <ele>195.914704</ele>
        <time>2023-09-17T09:14:55.424Z</time>
      </trkpt>
      <trkpt lat="43.70329" lon="1.47693">
        <ele>195.810208</ele>
        <time>2023-09-17T09:14:56.424Z</time>
      </trkpt>
      <trkpt lat="43.70333" lon="1.47696">
        <ele>195.725696</ele>
        <time>2023-09-17T09:14:57.424Z</time>
      </trkpt>
      <trkpt lat="43.70336" lon="1.47698">
        <ele>195.658783</ele>
        <time>2023-09-17T09:14:58.424Z</time>
      </trkpt>
      <trkpt lat="43.70336" lon="1.47698">
        <ele>195.658783</ele>
        <time>2023-09-17T09:14:58.424Z</time>
      </trkpt>
      <trkpt lat="43.70339" lon="1.47699">
        <ele>195.607422</ele>
        <time>2023-09-17T09:14:59.424Z</time>
      </trkpt>
      <trkpt lat="43.70342" lon="1.47699">
        <ele>195.542892</ele>
        <time>2023-09-17T09:15:00.424Z</time>
      </trkpt>
      <trkpt lat="43.70345" lon="1.477">
        <ele>195.494992</ele>
        <time>2023-09-17T09:15:01.424Z</time>
      </trkpt>
      <trkpt lat="43.70345" lon="1.477">
        <ele>195.494992</ele>
        <time>2023-09-17T09:15:01.424Z</time>
      </trkpt>
      <trkpt lat="43.70347" lon="1.477">
        <ele>195.453002</ele>
        <time>2023-09-17T09:15:02.424Z</time>
      </trkpt>
      <trkpt lat="43.70349" lon="1.477">
        <ele>195.417932</ele>
        <time>2023-09-17T09:15:03.424Z</time>
      </trkpt>
      <trkpt lat="43.70349" lon="1.477">
        <ele>195.417932</ele>
        <time>2023-09-17T09:15:03.424Z</time>
      </trkpt>
      <trkpt lat="43.70352" lon="1.47701">
        <ele>195.367546</ele>
        <time>2023-09-17T09:15:04.424Z</time>
      </trkpt>
      <trkpt lat="43.70352" lon="1.47701">
        <ele>195.367546</ele>
        <time>2023-09-17T09:15:04.424Z</time>
      </trkpt>
      <trkpt lat="43.70353" lon="1.47702">
        <ele>195.339392</ele>
        <time>2023-09-17T09:15:05.424Z</time>
      </trkpt>
      <trkpt lat="43.70353" lon="1.47702">
        <ele>195.339392</ele>
        <time>2023-09-17T09:15:05.424Z</time>
      </trkpt>
      <trkpt lat="43.70358" lon="1.47705">
        <ele>195.253137</ele>
        <time>2023-09-17T09:15:06.424Z</time>
      </trkpt>
      <trkpt lat="43.70358" lon="1.47705">
        <ele>195.253137</ele>
        <time>2023-09-17T09:15:06.424Z</time>
      </trkpt>
      <trkpt lat="43.70368" lon="1.47711">
        <ele>195.047634</ele>
        <time>2023-09-17T09:15:08.424Z</time>
      </trkpt>
      <trkpt lat="43.70368" lon="1.47711">
        <ele>195.047634</ele>
        <time>2023-09-17T09:15:08.424Z</time>
      </trkpt>
      <trkpt lat="43.70372" lon="1.47713">
        <ele>194.972465</ele>
        <time>2023-09-17T09:15:09.424Z</time>
      </trkpt>
      <trkpt lat="43.70372" lon="1.47713">
        <ele>194.972465</ele>
        <time>2023-09-17T09:15:09.424Z</time>
      </trkpt>
      <trkpt lat="43.70377" lon="1.47716">
        <ele>194.867233</ele>
        <time>2023-09-17T09:15:10.424Z</time>
      </trkpt>
      <trkpt lat="43.70377" lon="1.47716">
        <ele>194.867233</ele>
        <time>2023-09-17T09:15:10.424Z</time>
      </trkpt>
      <trkpt lat="43.70383" lon="1.47719">
        <ele>194.746727</ele>
        <time>2023-09-17T09:15:11.424Z</time>
      </trkpt>
      <trkpt lat="43.70383" lon="1.47719">
        <ele>194.746727</ele>
        <time>2023-09-17T09:15:11.424Z</time>
      </trkpt>
      <trkpt lat="43.70389" lon="1.47722">
        <ele>194.629858</ele>
        <time>2023-09-17T09:15:12.424Z</time>
      </trkpt>
      <trkpt lat="43.70389" lon="1.47722">
        <ele>194.629858</ele>
        <time>2023-09-17T09:15:12.424Z</time>
      </trkpt>
      <trkpt lat="43.70395" lon="1.47725">
        <ele>194.512157</ele>
        <time>2023-09-17T09:15:13.424Z</time>
      </trkpt>
      <trkpt lat="43.70395" lon="1.47725">
        <ele>194.512157</ele>
        <time>2023-09-17T09:15:13.424Z</time>
      </trkpt>
      <trkpt lat="43.70401" lon="1.47728">
        <ele>194.394457</ele>
        <time>2023-09-17T09:15:14.424Z</time>
      </trkpt>
      <trkpt lat="43.70401" lon="1.47728">
        <ele>194.394457</ele>
        <time>2023-09-17T09:15:14.424Z</time>
      </trkpt>
      <trkpt lat="43.70408" lon="1.47731">
        <ele>194.260799</ele>
        <time>2023-09-17T09:15:15.424Z</time>
      </trkpt>
      <trkpt lat="43.70408" lon="1.47731">
        <ele>194.260799</ele>
        <time>2023-09-17T09:15:15.424Z</time>
      </trkpt>
      <trkpt lat="43.70415" lon="1.47735">
        <ele>194.129301</ele>
        <time>2023-09-17T09:15:16.424Z</time>
      </trkpt>
      <trkpt lat="43.70421" lon="1.47737">
        <ele>194.019361</ele>
        <time>2023-09-17T09:15:17.424Z</time>
      </trkpt>
      <trkpt lat="43.70421" lon="1.47737">
        <ele>194.019361</ele>
        <time>2023-09-17T09:15:17.424Z</time>
      </trkpt>
      <trkpt lat="43.70427" lon="1.47741">
        <ele>193.893464</ele>
        <time>2023-09-17T09:15:18.424Z</time>
      </trkpt>
      <trkpt lat="43.70434" lon="1.47744">
        <ele>193.759807</ele>
        <time>2023-09-17T09:15:19.424Z</time>
      </trkpt>
      <trkpt lat="43.70434" lon="1.47744">
        <ele>193.759807</ele>
        <time>2023-09-17T09:15:19.424Z</time>
      </trkpt>
      <trkpt lat="43.70441" lon="1.47747">
        <ele>193.634346</ele>
        <time>2023-09-17T09:15:20.424Z</time>
      </trkpt>
      <trkpt lat="43.70447" lon="1.4775">
        <ele>193.509309</ele>
        <time>2023-09-17T09:15:21.424Z</time>
      </trkpt>
      <trkpt lat="43.70454" lon="1.47753">
        <ele>193.378661</ele>
        <time>2023-09-17T09:15:22.424Z</time>
      </trkpt>
      <trkpt lat="43.70454" lon="1.47753">
        <ele>193.378661</ele>
        <time>2023-09-17T09:15:22.424Z</time>
      </trkpt>
      <trkpt lat="43.70461" lon="1.47756">
        <ele>193.252316</ele>
        <time>2023-09-17T09:15:23.424Z</time>
      </trkpt>
      <trkpt lat="43.70467" lon="1.4776">
        <ele>193.126856</ele>
        <time>2023-09-17T09:15:24.424Z</time>
      </trkpt>
      <trkpt lat="43.70474" lon="1.47763">
        <ele>192.984706</ele>
        <time>2023-09-17T09:15:25.424Z</time>
      </trkpt>
      <trkpt lat="43.70474" lon="1.47763">
        <ele>192.984706</ele>
        <time>2023-09-17T09:15:25.424Z</time>
      </trkpt>
      <trkpt lat="43.70481" lon="1.47766">
        <ele>192.858585</ele>
        <time>2023-09-17T09:15:26.424Z</time>
      </trkpt>
      <trkpt lat="43.70481" lon="1.47766">
        <ele>192.858585</ele>
        <time>2023-09-17T09:15:26.424Z</time>
      </trkpt>
      <trkpt lat="43.70487" lon="1.47767">
        <ele>192.735024</ele>
        <time>2023-09-17T09:15:27.424Z</time>
      </trkpt>
      <trkpt lat="43.70494" lon="1.47769">
        <ele>192.604386</ele>
        <time>2023-09-17T09:15:28.424Z</time>
      </trkpt>
      <trkpt lat="43.70501" lon="1.4777">
        <ele>192.469043</ele>
        <time>2023-09-17T09:15:29.424Z</time>
      </trkpt>
      <trkpt lat="43.70501" lon="1.4777">
        <ele>192.469043</ele>
        <time>2023-09-17T09:15:29.424Z</time>
      </trkpt>
      <trkpt lat="43.70509" lon="1.47772">
        <ele>192.332017</ele>
        <time>2023-09-17T09:15:30.424Z</time>
      </trkpt>
      <trkpt lat="43.70509" lon="1.47772">
        <ele>192.332017</ele>
        <time>2023-09-17T09:15:30.424Z</time>
      </trkpt>
      <trkpt lat="43.70516" lon="1.47773">
        <ele>192.197137</ele>
        <time>2023-09-17T09:15:31.424Z</time>
      </trkpt>
      <trkpt lat="43.70516" lon="1.47773">
        <ele>192.197137</ele>
        <time>2023-09-17T09:15:31.424Z</time>
      </trkpt>
      <trkpt lat="43.70523" lon="1.47774">
        <ele>192.060263</ele>
        <time>2023-09-17T09:15:32.424Z</time>
      </trkpt>
      <trkpt lat="43.70523" lon="1.47774">
        <ele>192.060263</ele>
        <time>2023-09-17T09:15:32.424Z</time>
      </trkpt>
      <trkpt lat="43.7053" lon="1.47775">
        <ele>191.925088</ele>
        <time>2023-09-17T09:15:33.424Z</time>
      </trkpt>
      <trkpt lat="43.7053" lon="1.47775">
        <ele>191.925088</ele>
        <time>2023-09-17T09:15:33.424Z</time>
      </trkpt>
      <trkpt lat="43.70538" lon="1.47776">
        <ele>191.788214</ele>
        <time>2023-09-17T09:15:34.424Z</time>
      </trkpt>
      <trkpt lat="43.70538" lon="1.47776">
        <ele>191.788214</ele>
        <time>2023-09-17T09:15:34.424Z</time>
      </trkpt>
      <trkpt lat="43.70546" lon="1.47777">
        <ele>191.638363</ele>
        <time>2023-09-17T09:15:35.424Z</time>
      </trkpt>
      <trkpt lat="43.70553" lon="1.47778">
        <ele>191.503483</ele>
        <time>2023-09-17T09:15:36.424Z</time>
      </trkpt>
      <trkpt lat="43.70553" lon="1.47778">
        <ele>191.503483</ele>
        <time>2023-09-17T09:15:36.424Z</time>
      </trkpt>
      <trkpt lat="43.7056" lon="1.47779">
        <ele>191.374299</ele>
        <time>2023-09-17T09:15:37.424Z</time>
      </trkpt>
      <trkpt lat="43.7056" lon="1.47779">
        <ele>191.374299</ele>
        <time>2023-09-17T09:15:37.424Z</time>
      </trkpt>
      <trkpt lat="43.70567" lon="1.4778">
        <ele>191.23212</ele>
        <time>2023-09-17T09:15:38.424Z</time>
      </trkpt>
      <trkpt lat="43.70575" lon="1.47781">
        <ele>191.095725</ele>
        <time>2023-09-17T09:15:39.424Z</time>
      </trkpt>
      <trkpt lat="43.70575" lon="1.47781">
        <ele>191.095725</ele>
        <time>2023-09-17T09:15:39.424Z</time>
      </trkpt>
      <trkpt lat="43.70582" lon="1.47782">
        <ele>190.960845</ele>
        <time>2023-09-17T09:15:40.424Z</time>
      </trkpt>
      <trkpt lat="43.70582" lon="1.47782">
        <ele>190.960845</ele>
        <time>2023-09-17T09:15:40.424Z</time>
      </trkpt>
      <trkpt lat="43.7059" lon="1.47783">
        <ele>190.816413</ele>
        <time>2023-09-17T09:15:41.424Z</time>
      </trkpt>
      <trkpt lat="43.70597" lon="1.47784">
        <ele>190.673978</ele>
        <time>2023-09-17T09:15:42.424Z</time>
      </trkpt>
      <trkpt lat="43.70597" lon="1.47784">
        <ele>190.673978</ele>
        <time>2023-09-17T09:15:42.424Z</time>
      </trkpt>
      <trkpt lat="43.70604" lon="1.47785">
        <ele>190.538803</ele>
        <time>2023-09-17T09:15:43.424Z</time>
      </trkpt>
      <trkpt lat="43.70604" lon="1.47785">
        <ele>190.538803</ele>
        <time>2023-09-17T09:15:43.424Z</time>
      </trkpt>
      <trkpt lat="43.70612" lon="1.47786">
        <ele>190.388661</ele>
        <time>2023-09-17T09:15:44.424Z</time>
      </trkpt>
      <trkpt lat="43.70612" lon="1.47786">
        <ele>190.388661</ele>
        <time>2023-09-17T09:15:44.424Z</time>
      </trkpt>
      <trkpt lat="43.7062" lon="1.47788">
        <ele>190.238356</ele>
        <time>2023-09-17T09:15:45.424Z</time>
      </trkpt>
      <trkpt lat="43.7062" lon="1.47788">
        <ele>190.238356</ele>
        <time>2023-09-17T09:15:45.424Z</time>
      </trkpt>
      <trkpt lat="43.70628" lon="1.47789">
        <ele>190.093415</ele>
        <time>2023-09-17T09:15:46.424Z</time>
      </trkpt>
      <trkpt lat="43.70628" lon="1.47789">
        <ele>190.093415</ele>
        <time>2023-09-17T09:15:46.424Z</time>
      </trkpt>
      <trkpt lat="43.70636" lon="1.47791">
        <ele>189.942748</ele>
        <time>2023-09-17T09:15:47.424Z</time>
      </trkpt>
      <trkpt lat="43.70636" lon="1.47791">
        <ele>189.942748</ele>
        <time>2023-09-17T09:15:47.424Z</time>
      </trkpt>
      <trkpt lat="43.70644" lon="1.47793">
        <ele>189.799456</ele>
        <time>2023-09-17T09:15:48.424Z</time>
      </trkpt>
      <trkpt lat="43.70644" lon="1.47793">
        <ele>189.799456</ele>
        <time>2023-09-17T09:15:48.424Z</time>
      </trkpt>
      <trkpt lat="43.70652" lon="1.47794">
        <ele>189.703775</ele>
        <time>2023-09-17T09:15:49.424Z</time>
      </trkpt>
      <trkpt lat="43.70652" lon="1.47794">
        <ele>189.703775</ele>
        <time>2023-09-17T09:15:49.424Z</time>
      </trkpt>
      <trkpt lat="43.7066" lon="1.47796">
        <ele>189.621691</ele>
        <time>2023-09-17T09:15:50.424Z</time>
      </trkpt>
      <trkpt lat="43.7066" lon="1.47796">
        <ele>189.621691</ele>
        <time>2023-09-17T09:15:50.424Z</time>
      </trkpt>
      <trkpt lat="43.70668" lon="1.47797">
        <ele>189.539498</ele>
        <time>2023-09-17T09:15:51.424Z</time>
      </trkpt>
      <trkpt lat="43.70668" lon="1.47797">
        <ele>189.539498</ele>
        <time>2023-09-17T09:15:51.424Z</time>
      </trkpt>
      <trkpt lat="43.70676" lon="1.47799">
        <ele>189.456301</ele>
        <time>2023-09-17T09:15:52.424Z</time>
      </trkpt>
      <trkpt lat="43.70683" lon="1.47801">
        <ele>189.378</ele>
        <time>2023-09-17T09:15:53.424Z</time>
      </trkpt>
      <trkpt lat="43.70691" lon="1.47803">
        <ele>189.299699</ele>
        <time>2023-09-17T09:15:54.424Z</time>
      </trkpt>
      <trkpt lat="43.70699" lon="1.47805">
        <ele>189.217143</ele>
        <time>2023-09-17T09:15:55.424Z</time>
      </trkpt>
      <trkpt lat="43.70706" lon="1.47807">
        <ele>189.145838</ele>
        <time>2023-09-17T09:15:56.424Z</time>
      </trkpt>
      <trkpt lat="43.70713" lon="1.47809">
        <ele>189.066835</ele>
        <time>2023-09-17T09:15:57.424Z</time>
      </trkpt>
      <trkpt lat="43.70721" lon="1.47811">
        <ele>188.990465</ele>
        <time>2023-09-17T09:15:58.424Z</time>
      </trkpt>
      <trkpt lat="43.70727" lon="1.47814">
        <ele>188.92111</ele>
        <time>2023-09-17T09:15:59.424Z</time>
      </trkpt>
      <trkpt lat="43.70734" lon="1.47818">
        <ele>188.847683</ele>
        <time>2023-09-17T09:16:00.424Z</time>
      </trkpt>
      <trkpt lat="43.7074" lon="1.47821">
        <ele>188.780899</ele>
        <time>2023-09-17T09:16:01.424Z</time>
      </trkpt>
      <trkpt lat="43.70747" lon="1.47825">
        <ele>188.709797</ele>
        <time>2023-09-17T09:16:02.424Z</time>
      </trkpt>
      <trkpt lat="43.70753" lon="1.47828">
        <ele>188.63842</ele>
        <time>2023-09-17T09:16:03.424Z</time>
      </trkpt>
      <trkpt lat="43.70759" lon="1.47832">
        <ele>188.575672</ele>
        <time>2023-09-17T09:16:04.424Z</time>
      </trkpt>
      <trkpt lat="43.70759" lon="1.47832">
        <ele>188.575672</ele>
        <time>2023-09-17T09:16:04.424Z</time>
      </trkpt>
      <trkpt lat="43.70765" lon="1.47835">
        <ele>188.504571</ele>
        <time>2023-09-17T09:16:05.424Z</time>
      </trkpt>
      <trkpt lat="43.70771" lon="1.47839">
        <ele>188.437224</ele>
        <time>2023-09-17T09:16:06.424Z</time>
      </trkpt>
      <trkpt lat="43.70771" lon="1.47839">
        <ele>188.437224</ele>
        <time>2023-09-17T09:16:06.424Z</time>
      </trkpt>
      <trkpt lat="43.70778" lon="1.47842">
        <ele>188.362336</ele>
        <time>2023-09-17T09:16:07.424Z</time>
      </trkpt>
      <trkpt lat="43.70784" lon="1.47845">
        <ele>188.300662</ele>
        <time>2023-09-17T09:16:08.424Z</time>
      </trkpt>
      <trkpt lat="43.70791" lon="1.47849">
        <ele>188.22676</ele>
        <time>2023-09-17T09:16:09.424Z</time>
      </trkpt>
      <trkpt lat="43.70791" lon="1.47849">
        <ele>188.22676</ele>
        <time>2023-09-17T09:16:09.424Z</time>
      </trkpt>
      <trkpt lat="43.70797" lon="1.47852">
        <ele>188.158138</ele>
        <time>2023-09-17T09:16:10.424Z</time>
      </trkpt>
      <trkpt lat="43.70797" lon="1.47852">
        <ele>188.158138</ele>
        <time>2023-09-17T09:16:10.424Z</time>
      </trkpt>
      <trkpt lat="43.70804" lon="1.47854">
        <ele>188.089219</ele>
        <time>2023-09-17T09:16:11.424Z</time>
      </trkpt>
      <trkpt lat="43.70811" lon="1.47857">
        <ele>188.016197</ele>
        <time>2023-09-17T09:16:12.424Z</time>
      </trkpt>
      <trkpt lat="43.70811" lon="1.47857">
        <ele>188.016197</ele>
        <time>2023-09-17T09:16:12.424Z</time>
      </trkpt>
      <trkpt lat="43.70817" lon="1.47859">
        <ele>187.948576</ele>
        <time>2023-09-17T09:16:13.424Z</time>
      </trkpt>
      <trkpt lat="43.70824" lon="1.4786">
        <ele>187.788602</ele>
        <time>2023-09-17T09:16:14.424Z</time>
      </trkpt>
      <trkpt lat="43.70824" lon="1.4786">
        <ele>187.788602</ele>
        <time>2023-09-17T09:16:14.424Z</time>
      </trkpt>
      <trkpt lat="43.70831" lon="1.4786">
        <ele>187.629951</ele>
        <time>2023-09-17T09:16:15.424Z</time>
      </trkpt>
      <trkpt lat="43.70831" lon="1.4786">
        <ele>187.629951</ele>
        <time>2023-09-17T09:16:15.424Z</time>
      </trkpt>
      <trkpt lat="43.70839" lon="1.47859">
        <ele>187.454577</ele>
        <time>2023-09-17T09:16:16.424Z</time>
      </trkpt>
      <trkpt lat="43.70845" lon="1.47856">
        <ele>187.29595</ele>
        <time>2023-09-17T09:16:17.424Z</time>
      </trkpt>
      <trkpt lat="43.70845" lon="1.47856">
        <ele>187.29595</ele>
        <time>2023-09-17T09:16:17.424Z</time>
      </trkpt>
      <trkpt lat="43.70852" lon="1.47852">
        <ele>187.128085</ele>
        <time>2023-09-17T09:16:18.424Z</time>
      </trkpt>
      <trkpt lat="43.70852" lon="1.47852">
        <ele>187.128085</ele>
        <time>2023-09-17T09:16:18.424Z</time>
      </trkpt>
      <trkpt lat="43.70858" lon="1.47846">
        <ele>186.95884</ele>
        <time>2023-09-17T09:16:19.424Z</time>
      </trkpt>
      <trkpt lat="43.70858" lon="1.47846">
        <ele>186.95884</ele>
        <time>2023-09-17T09:16:19.424Z</time>
      </trkpt>
      <trkpt lat="43.70865" lon="1.47839">
        <ele>186.76784</ele>
        <time>2023-09-17T09:16:19.424Z</time>
      </trkpt>
      <trkpt lat="43.70871" lon="1.47833">
        <ele>186.591819</ele>
        <time>2023-09-17T09:16:21.424Z</time>
      </trkpt>
      <trkpt lat="43.70871" lon="1.47833">
        <ele>186.591819</ele>
        <time>2023-09-17T09:16:21.424Z</time>
      </trkpt>
      <trkpt lat="43.70877" lon="1.47827">
        <ele>186.418766</ele>
        <time>2023-09-17T09:16:21.424Z</time>
      </trkpt>
      <trkpt lat="43.70877" lon="1.47827">
        <ele>186.418766</ele>
        <time>2023-09-17T09:16:21.424Z</time>
      </trkpt>
      <trkpt lat="43.70885" lon="1.4782">
        <ele>186.213333</ele>
        <time>2023-09-17T09:16:23.424Z</time>
      </trkpt>
      <trkpt lat="43.70885" lon="1.4782">
        <ele>186.213333</ele>
        <time>2023-09-17T09:16:23.424Z</time>
      </trkpt>
      <trkpt lat="43.70891" lon="1.47816">
        <ele>186.043928</ele>
        <time>2023-09-17T09:16:23.424Z</time>
      </trkpt>
      <trkpt lat="43.70891" lon="1.47816">
        <ele>186.043928</ele>
        <time>2023-09-17T09:16:23.424Z</time>
      </trkpt>
      <trkpt lat="43.70899" lon="1.47811">
        <ele>185.85386</ele>
        <time>2023-09-17T09:16:25.424Z</time>
      </trkpt>
      <trkpt lat="43.70899" lon="1.47811">
        <ele>185.85386</ele>
        <time>2023-09-17T09:16:25.424Z</time>
      </trkpt>
      <trkpt lat="43.70907" lon="1.47807">
        <ele>185.657128</ele>
        <time>2023-09-17T09:16:26.424Z</time>
      </trkpt>
      <trkpt lat="43.70907" lon="1.47807">
        <ele>185.657128</ele>
        <time>2023-09-17T09:16:26.424Z</time>
      </trkpt>
      <trkpt lat="43.70915" lon="1.47804">
        <ele>185.466116</ele>
        <time>2023-09-17T09:16:27.424Z</time>
      </trkpt>
      <trkpt lat="43.70915" lon="1.47804">
        <ele>185.466116</ele>
        <time>2023-09-17T09:16:27.424Z</time>
      </trkpt>
      <trkpt lat="43.70924" lon="1.47801">
        <ele>185.241521</ele>
        <time>2023-09-17T09:16:28.424Z</time>
      </trkpt>
      <trkpt lat="43.70924" lon="1.47801">
        <ele>185.241521</ele>
        <time>2023-09-17T09:16:28.424Z</time>
      </trkpt>
      <trkpt lat="43.70932" lon="1.478">
        <ele>185.056123</ele>
        <time>2023-09-17T09:16:29.424Z</time>
      </trkpt>
      <trkpt lat="43.70932" lon="1.478">
        <ele>185.056123</ele>
        <time>2023-09-17T09:16:29.424Z</time>
      </trkpt>
      <trkpt lat="43.70941" lon="1.478">
        <ele>184.862986</ele>
        <time>2023-09-17T09:16:30.424Z</time>
      </trkpt>
      <trkpt lat="43.70941" lon="1.478">
        <ele>184.862986</ele>
        <time>2023-09-17T09:16:30.424Z</time>
      </trkpt>
      <trkpt lat="43.7095" lon="1.478">
        <ele>184.653704</ele>
        <time>2023-09-17T09:16:31.424Z</time>
      </trkpt>
      <trkpt lat="43.70958" lon="1.47801">
        <ele>184.459996</ele>
        <time>2023-09-17T09:16:32.424Z</time>
      </trkpt>
      <trkpt lat="43.70958" lon="1.47801">
        <ele>184.459996</ele>
        <time>2023-09-17T09:16:32.424Z</time>
      </trkpt>
      <trkpt lat="43.70967" lon="1.47802">
        <ele>184.25652</ele>
        <time>2023-09-17T09:16:33.424Z</time>
      </trkpt>
      <trkpt lat="43.70974" lon="1.47804">
        <ele>184.094434</ele>
        <time>2023-09-17T09:16:34.424Z</time>
      </trkpt>
      <trkpt lat="43.70974" lon="1.47804">
        <ele>184.094434</ele>
        <time>2023-09-17T09:16:34.424Z</time>
      </trkpt>
      <trkpt lat="43.70981" lon="1.47807">
        <ele>183.931313</ele>
        <time>2023-09-17T09:16:35.424Z</time>
      </trkpt>
      <trkpt lat="43.70988" lon="1.47811">
        <ele>183.783962</ele>
        <time>2023-09-17T09:16:36.424Z</time>
      </trkpt>
      <trkpt lat="43.70988" lon="1.47811">
        <ele>183.783962</ele>
        <time>2023-09-17T09:16:36.424Z</time>
      </trkpt>
      <trkpt lat="43.70994" lon="1.47814">
        <ele>183.697626</ele>
        <time>2023-09-17T09:16:37.424Z</time>
      </trkpt>
      <trkpt lat="43.71003" lon="1.4782">
        <ele>183.585123</ele>
        <time>2023-09-17T09:16:38.424Z</time>
      </trkpt>
      <trkpt lat="43.71003" lon="1.4782">
        <ele>183.585123</ele>
        <time>2023-09-17T09:16:38.424Z</time>
      </trkpt>
      <trkpt lat="43.7101" lon="1.47825">
        <ele>183.480605</ele>
        <time>2023-09-17T09:16:39.424Z</time>
      </trkpt>
      <trkpt lat="43.7101" lon="1.47825">
        <ele>183.480605</ele>
        <time>2023-09-17T09:16:39.424Z</time>
      </trkpt>
      <trkpt lat="43.71018" lon="1.4783">
        <ele>183.382488</ele>
        <time>2023-09-17T09:16:40.424Z</time>
      </trkpt>
      <trkpt lat="43.71024" lon="1.47832">
        <ele>183.305444</ele>
        <time>2023-09-17T09:16:41.424Z</time>
      </trkpt>
      <trkpt lat="43.71029" lon="1.47835">
        <ele>183.242102</ele>
        <time>2023-09-17T09:16:42.424Z</time>
      </trkpt>
      <trkpt lat="43.71034" lon="1.47838">
        <ele>183.166463</ele>
        <time>2023-09-17T09:16:43.424Z</time>
      </trkpt>
      <trkpt lat="43.71034" lon="1.47838">
        <ele>183.166463</ele>
        <time>2023-09-17T09:16:43.424Z</time>
      </trkpt>
      <trkpt lat="43.71039" lon="1.47842">
        <ele>183.09608</ele>
        <time>2023-09-17T09:16:44.424Z</time>
      </trkpt>
      <trkpt lat="43.71039" lon="1.47842">
        <ele>183.09608</ele>
        <time>2023-09-17T09:16:44.424Z</time>
      </trkpt>
      <trkpt lat="43.71044" lon="1.47847">
        <ele>183.021919</ele>
        <time>2023-09-17T09:16:45.424Z</time>
      </trkpt>
      <trkpt lat="43.7105" lon="1.47852">
        <ele>182.940653</ele>
        <time>2023-09-17T09:16:46.424Z</time>
      </trkpt>
      <trkpt lat="43.7105" lon="1.47852">
        <ele>182.940653</ele>
        <time>2023-09-17T09:16:46.424Z</time>
      </trkpt>
      <trkpt lat="43.71054" lon="1.47858">
        <ele>182.867704</ele>
        <time>2023-09-17T09:16:47.424Z</time>
      </trkpt>
      <trkpt lat="43.71059" lon="1.47863">
        <ele>182.79245</ele>
        <time>2023-09-17T09:16:48.424Z</time>
      </trkpt>
      <trkpt lat="43.71064" lon="1.47868">
        <ele>182.720062</ele>
        <time>2023-09-17T09:16:49.424Z</time>
      </trkpt>
      <trkpt lat="43.71068" lon="1.47873">
        <ele>182.648229</ele>
        <time>2023-09-17T09:16:50.424Z</time>
      </trkpt>
      <trkpt lat="43.71068" lon="1.47873">
        <ele>182.648229</ele>
        <time>2023-09-17T09:16:50.424Z</time>
      </trkpt>
      <trkpt lat="43.71073" lon="1.47878">
        <ele>182.57253</ele>
        <time>2023-09-17T09:16:51.424Z</time>
      </trkpt>
      <trkpt lat="43.71078" lon="1.47883">
        <ele>182.498335</ele>
        <time>2023-09-17T09:16:52.424Z</time>
      </trkpt>
      <trkpt lat="43.71083" lon="1.47888">
        <ele>182.424673</ele>
        <time>2023-09-17T09:16:53.424Z</time>
      </trkpt>
      <trkpt lat="43.71088" lon="1.47892">
        <ele>182.354431</ele>
        <time>2023-09-17T09:16:54.424Z</time>
      </trkpt>
      <trkpt lat="43.71093" lon="1.47896">
        <ele>182.280201</ele>
        <time>2023-09-17T09:16:55.424Z</time>
      </trkpt>
      <trkpt lat="43.71093" lon="1.47896">
        <ele>182.280201</ele>
        <time>2023-09-17T09:16:55.424Z</time>
      </trkpt>
      <trkpt lat="43.71099" lon="1.479">
        <ele>182.20786</ele>
        <time>2023-09-17T09:16:56.424Z</time>
      </trkpt>
      <trkpt lat="43.71104" lon="1.47903">
        <ele>182.139969</ele>
        <time>2023-09-17T09:16:57.424Z</time>
      </trkpt>
      <trkpt lat="43.71104" lon="1.47903">
        <ele>182.139969</ele>
        <time>2023-09-17T09:16:57.424Z</time>
      </trkpt>
      <trkpt lat="43.71109" lon="1.47907">
        <ele>182.067227</ele>
        <time>2023-09-17T09:16:58.424Z</time>
      </trkpt>
      <trkpt lat="43.71114" lon="1.47911">
        <ele>181.994075</ele>
        <time>2023-09-17T09:16:59.424Z</time>
      </trkpt>
      <trkpt lat="43.71114" lon="1.47911">
        <ele>181.994075</ele>
        <time>2023-09-17T09:16:59.424Z</time>
      </trkpt>
      <trkpt lat="43.7112" lon="1.47915">
        <ele>181.918586</ele>
        <time>2023-09-17T09:17:00.424Z</time>
      </trkpt>
      <trkpt lat="43.71125" lon="1.47919">
        <ele>181.847759</ele>
        <time>2023-09-17T09:17:01.424Z</time>
      </trkpt>
      <trkpt lat="43.71131" lon="1.47924">
        <ele>181.762676</ele>
        <time>2023-09-17T09:17:02.424Z</time>
      </trkpt>
      <trkpt lat="43.71136" lon="1.47928">
        <ele>181.692894</ele>
        <time>2023-09-17T09:17:03.424Z</time>
      </trkpt>
      <trkpt lat="43.71142" lon="1.47932">
        <ele>181.605544</ele>
        <time>2023-09-17T09:17:04.424Z</time>
      </trkpt>
      <trkpt lat="43.71148" lon="1.47936">
        <ele>181.485072</ele>
        <time>2023-09-17T09:17:05.424Z</time>
      </trkpt>
      <trkpt lat="43.71148" lon="1.47936">
        <ele>181.485072</ele>
        <time>2023-09-17T09:17:05.424Z</time>
      </trkpt>
      <trkpt lat="43.71154" lon="1.47938">
        <ele>181.345735</ele>
        <time>2023-09-17T09:17:06.424Z</time>
      </trkpt>
      <trkpt lat="43.71161" lon="1.47939">
        <ele>181.217801</ele>
        <time>2023-09-17T09:17:07.424Z</time>
      </trkpt>
      <trkpt lat="43.71161" lon="1.47939">
        <ele>181.217801</ele>
        <time>2023-09-17T09:17:07.424Z</time>
      </trkpt>
      <trkpt lat="43.71168" lon="1.47938">
        <ele>181.082195</ele>
        <time>2023-09-17T09:17:08.424Z</time>
      </trkpt>
      <trkpt lat="43.71168" lon="1.47938">
        <ele>181.082195</ele>
        <time>2023-09-17T09:17:08.424Z</time>
      </trkpt>
      <trkpt lat="43.71175" lon="1.47935">
        <ele>180.943646</ele>
        <time>2023-09-17T09:17:09.424Z</time>
      </trkpt>
      <trkpt lat="43.71181" lon="1.47931">
        <ele>180.801926</ele>
        <time>2023-09-17T09:17:10.424Z</time>
      </trkpt>
      <trkpt lat="43.71181" lon="1.47931">
        <ele>180.801926</ele>
        <time>2023-09-17T09:17:10.424Z</time>
      </trkpt>
      <trkpt lat="43.71187" lon="1.47925">
        <ele>180.663353</ele>
        <time>2023-09-17T09:17:11.424Z</time>
      </trkpt>
      <trkpt lat="43.71187" lon="1.47925">
        <ele>180.663353</ele>
        <time>2023-09-17T09:17:11.424Z</time>
      </trkpt>
      <trkpt lat="43.71193" lon="1.47918">
        <ele>180.507871</ele>
        <time>2023-09-17T09:17:12.424Z</time>
      </trkpt>
      <trkpt lat="43.71198" lon="1.47911">
        <ele>180.365342</ele>
        <time>2023-09-17T09:17:13.424Z</time>
      </trkpt>
      <trkpt lat="43.71198" lon="1.47911">
        <ele>180.365342</ele>
        <time>2023-09-17T09:17:13.424Z</time>
      </trkpt>
      <trkpt lat="43.71204" lon="1.47904">
        <ele>180.217012</ele>
        <time>2023-09-17T09:17:14.424Z</time>
      </trkpt>
      <trkpt lat="43.71204" lon="1.47904">
        <ele>180.217012</ele>
        <time>2023-09-17T09:17:14.424Z</time>
      </trkpt>
      <trkpt lat="43.71209" lon="1.47897">
        <ele>180.068681</ele>
        <time>2023-09-17T09:17:15.424Z</time>
      </trkpt>
      <trkpt lat="43.71209" lon="1.47897">
        <ele>180.068681</ele>
        <time>2023-09-17T09:17:15.424Z</time>
      </trkpt>
      <trkpt lat="43.71214" lon="1.4789">
        <ele>179.935803</ele>
        <time>2023-09-17T09:17:16.424Z</time>
      </trkpt>
      <trkpt lat="43.71218" lon="1.47881">
        <ele>179.778161</ele>
        <time>2023-09-17T09:17:17.424Z</time>
      </trkpt>
      <trkpt lat="43.71218" lon="1.47881">
        <ele>179.778161</ele>
        <time>2023-09-17T09:17:17.424Z</time>
      </trkpt>
      <trkpt lat="43.71221" lon="1.47871">
        <ele>179.633187</ele>
        <time>2023-09-17T09:17:18.424Z</time>
      </trkpt>
      <trkpt lat="43.71221" lon="1.47871">
        <ele>179.633187</ele>
        <time>2023-09-17T09:17:18.424Z</time>
      </trkpt>
      <trkpt lat="43.71225" lon="1.47861">
        <ele>179.475467</ele>
        <time>2023-09-17T09:17:19.424Z</time>
      </trkpt>
      <trkpt lat="43.71225" lon="1.47861">
        <ele>179.475467</ele>
        <time>2023-09-17T09:17:19.424Z</time>
      </trkpt>
      <trkpt lat="43.71228" lon="1.4785">
        <ele>179.311682</ele>
        <time>2023-09-17T09:17:20.424Z</time>
      </trkpt>
      <trkpt lat="43.71228" lon="1.4785">
        <ele>179.311682</ele>
        <time>2023-09-17T09:17:20.424Z</time>
      </trkpt>
      <trkpt lat="43.71231" lon="1.47839">
        <ele>179.139263</ele>
        <time>2023-09-17T09:17:21.424Z</time>
      </trkpt>
      <trkpt lat="43.71231" lon="1.47839">
        <ele>179.139263</ele>
        <time>2023-09-17T09:17:21.424Z</time>
      </trkpt>
      <trkpt lat="43.71234" lon="1.47828">
        <ele>178.966843</ele>
        <time>2023-09-17T09:17:22.424Z</time>
      </trkpt>
      <trkpt lat="43.71234" lon="1.47828">
        <ele>178.966843</ele>
        <time>2023-09-17T09:17:22.424Z</time>
      </trkpt>
      <trkpt lat="43.71237" lon="1.47816">
        <ele>178.795103</ele>
        <time>2023-09-17T09:17:23.424Z</time>
      </trkpt>
      <trkpt lat="43.71237" lon="1.47816">
        <ele>178.795103</ele>
        <time>2023-09-17T09:17:23.424Z</time>
      </trkpt>
      <trkpt lat="43.7124" lon="1.47804">
        <ele>178.612648</ele>
        <time>2023-09-17T09:17:24.424Z</time>
      </trkpt>
      <trkpt lat="43.7124" lon="1.47804">
        <ele>178.612648</ele>
        <time>2023-09-17T09:17:24.424Z</time>
      </trkpt>
      <trkpt lat="43.71244" lon="1.47792">
        <ele>178.433401</ele>
        <time>2023-09-17T09:17:25.424Z</time>
      </trkpt>
      <trkpt lat="43.71244" lon="1.47792">
        <ele>178.433401</ele>
        <time>2023-09-17T09:17:25.424Z</time>
      </trkpt>
      <trkpt lat="43.71248" lon="1.47782">
        <ele>178.26104</ele>
        <time>2023-09-17T09:17:26.424Z</time>
      </trkpt>
      <trkpt lat="43.71248" lon="1.47782">
        <ele>178.26104</ele>
        <time>2023-09-17T09:17:26.424Z</time>
      </trkpt>
      <trkpt lat="43.71253" lon="1.47771">
        <ele>178.07994</ele>
        <time>2023-09-17T09:17:27.424Z</time>
      </trkpt>
      <trkpt lat="43.71253" lon="1.47771">
        <ele>178.07994</ele>
        <time>2023-09-17T09:17:27.424Z</time>
      </trkpt>
      <trkpt lat="43.71257" lon="1.47761">
        <ele>177.920914</ele>
        <time>2023-09-17T09:17:28.424Z</time>
      </trkpt>
      <trkpt lat="43.71257" lon="1.47761">
        <ele>177.920914</ele>
        <time>2023-09-17T09:17:28.424Z</time>
      </trkpt>
      <trkpt lat="43.71262" lon="1.4775">
        <ele>177.747171</ele>
        <time>2023-09-17T09:17:29.424Z</time>
      </trkpt>
      <trkpt lat="43.71262" lon="1.4775">
        <ele>177.747171</ele>
        <time>2023-09-17T09:17:29.424Z</time>
      </trkpt>
      <trkpt lat="43.71267" lon="1.47739">
        <ele>177.580842</ele>
        <time>2023-09-17T09:17:30.424Z</time>
      </trkpt>
      <trkpt lat="43.71267" lon="1.47739">
        <ele>177.580842</ele>
        <time>2023-09-17T09:17:30.424Z</time>
      </trkpt>
      <trkpt lat="43.71271" lon="1.47729">
        <ele>177.413141</ele>
        <time>2023-09-17T09:17:31.424Z</time>
      </trkpt>
      <trkpt lat="43.71271" lon="1.47729">
        <ele>177.413141</ele>
        <time>2023-09-17T09:17:31.424Z</time>
      </trkpt>
      <trkpt lat="43.71275" lon="1.47718">
        <ele>177.247004</ele>
        <time>2023-09-17T09:17:32.424Z</time>
      </trkpt>
      <trkpt lat="43.71275" lon="1.47718">
        <ele>177.247004</ele>
        <time>2023-09-17T09:17:32.424Z</time>
      </trkpt>
      <trkpt lat="43.7128" lon="1.47708">
        <ele>177.088709</ele>
        <time>2023-09-17T09:17:33.424Z</time>
      </trkpt>
      <trkpt lat="43.7128" lon="1.47708">
        <ele>177.088709</ele>
        <time>2023-09-17T09:17:33.424Z</time>
      </trkpt>
      <trkpt lat="43.71284" lon="1.47699">
        <ele>176.949844</ele>
        <time>2023-09-17T09:17:34.424Z</time>
      </trkpt>
      <trkpt lat="43.71284" lon="1.47699">
        <ele>176.949844</ele>
        <time>2023-09-17T09:17:34.424Z</time>
      </trkpt>
      <trkpt lat="43.71287" lon="1.47692">
        <ele>176.83454</ele>
        <time>2023-09-17T09:17:35.424Z</time>
      </trkpt>
      <trkpt lat="43.7129" lon="1.47687">
        <ele>176.745513</ele>
        <time>2023-09-17T09:17:36.424Z</time>
      </trkpt>
      <trkpt lat="43.7129" lon="1.47687">
        <ele>176.745513</ele>
        <time>2023-09-17T09:17:36.424Z</time>
      </trkpt>
      <trkpt lat="43.71293" lon="1.47683">
        <ele>176.676168</ele>
        <time>2023-09-17T09:17:37.424Z</time>
      </trkpt>
      <trkpt lat="43.71295" lon="1.47683">
        <ele>176.632302</ele>
        <time>2023-09-17T09:17:38.424Z</time>
      </trkpt>
      <trkpt lat="43.71297" lon="1.47684">
        <ele>176.587118</ele>
        <time>2023-09-17T09:17:39.424Z</time>
      </trkpt>
      <trkpt lat="43.713" lon="1.47685">
        <ele>176.526359</ele>
        <time>2023-09-17T09:17:40.424Z</time>
      </trkpt>
      <trkpt lat="43.71303" lon="1.47688">
        <ele>176.458417</ele>
        <time>2023-09-17T09:17:41.424Z</time>
      </trkpt>
      <trkpt lat="43.71307" lon="1.47691">
        <ele>176.369829</ele>
        <time>2023-09-17T09:17:42.424Z</time>
      </trkpt>
      <trkpt lat="43.71312" lon="1.47694">
        <ele>176.272085</ele>
        <time>2023-09-17T09:17:43.424Z</time>
      </trkpt>
      <trkpt lat="43.71312" lon="1.47694">
        <ele>176.272085</ele>
        <time>2023-09-17T09:17:43.424Z</time>
      </trkpt>
      <trkpt lat="43.71317" lon="1.47699">
        <ele>176.17035</ele>
        <time>2023-09-17T09:17:44.424Z</time>
      </trkpt>
      <trkpt lat="43.71317" lon="1.47699">
        <ele>176.17035</ele>
        <time>2023-09-17T09:17:44.424Z</time>
      </trkpt>
      <trkpt lat="43.71322" lon="1.47704">
        <ele>176.045475</ele>
        <time>2023-09-17T09:17:45.424Z</time>
      </trkpt>
      <trkpt lat="43.71322" lon="1.47704">
        <ele>176.045475</ele>
        <time>2023-09-17T09:17:45.424Z</time>
      </trkpt>
      <trkpt lat="43.71328" lon="1.47709">
        <ele>175.915231</ele>
        <time>2023-09-17T09:17:46.424Z</time>
      </trkpt>
      <trkpt lat="43.71328" lon="1.47709">
        <ele>175.915231</ele>
        <time>2023-09-17T09:17:46.424Z</time>
      </trkpt>
      <trkpt lat="43.71333" lon="1.47714">
        <ele>175.795004</ele>
        <time>2023-09-17T09:17:47.424Z</time>
      </trkpt>
      <trkpt lat="43.71333" lon="1.47714">
        <ele>175.795004</ele>
        <time>2023-09-17T09:17:47.424Z</time>
      </trkpt>
      <trkpt lat="43.71339" lon="1.4772">
        <ele>175.663191</ele>
        <time>2023-09-17T09:17:48.424Z</time>
      </trkpt>
      <trkpt lat="43.71339" lon="1.4772">
        <ele>175.663191</ele>
        <time>2023-09-17T09:17:48.424Z</time>
      </trkpt>
      <trkpt lat="43.71344" lon="1.47725">
        <ele>175.539105</ele>
        <time>2023-09-17T09:17:49.424Z</time>
      </trkpt>
      <trkpt lat="43.7135" lon="1.47731">
        <ele>175.411883</ele>
        <time>2023-09-17T09:17:50.424Z</time>
      </trkpt>
      <trkpt lat="43.7135" lon="1.47731">
        <ele>175.411883</ele>
        <time>2023-09-17T09:17:50.424Z</time>
      </trkpt>
      <trkpt lat="43.71355" lon="1.47736">
        <ele>175.281639</ele>
        <time>2023-09-17T09:17:51.424Z</time>
      </trkpt>
      <trkpt lat="43.71361" lon="1.47741">
        <ele>175.159101</ele>
        <time>2023-09-17T09:17:52.424Z</time>
      </trkpt>
      <trkpt lat="43.71361" lon="1.47741">
        <ele>175.159101</ele>
        <time>2023-09-17T09:17:52.424Z</time>
      </trkpt>
      <trkpt lat="43.71366" lon="1.47746">
        <ele>175.038874</ele>
        <time>2023-09-17T09:17:53.424Z</time>
      </trkpt>
      <trkpt lat="43.71372" lon="1.47751">
        <ele>174.917843</ele>
        <time>2023-09-17T09:17:54.424Z</time>
      </trkpt>
      <trkpt lat="43.71377" lon="1.47756">
        <ele>174.791352</ele>
        <time>2023-09-17T09:17:55.424Z</time>
      </trkpt>
      <trkpt lat="43.71383" lon="1.47761">
        <ele>174.759065</ele>
        <time>2023-09-17T09:17:56.424Z</time>
      </trkpt>
      <trkpt lat="43.71389" lon="1.47765">
        <ele>174.855293</ele>
        <time>2023-09-17T09:17:57.424Z</time>
      </trkpt>
      <trkpt lat="43.71395" lon="1.47769">
        <ele>174.951059</ele>
        <time>2023-09-17T09:17:58.424Z</time>
      </trkpt>
      <trkpt lat="43.71395" lon="1.47769">
        <ele>174.951059</ele>
        <time>2023-09-17T09:17:58.424Z</time>
      </trkpt>
      <trkpt lat="43.714" lon="1.47773">
        <ele>175.039131</ele>
        <time>2023-09-17T09:17:59.424Z</time>
      </trkpt>
      <trkpt lat="43.71407" lon="1.47777">
        <ele>175.134824</ele>
        <time>2023-09-17T09:18:00.424Z</time>
      </trkpt>
      <trkpt lat="43.71407" lon="1.47777">
        <ele>175.134824</ele>
        <time>2023-09-17T09:18:00.424Z</time>
      </trkpt>
      <trkpt lat="43.71412" lon="1.47781">
        <ele>175.222897</ele>
        <time>2023-09-17T09:18:01.424Z</time>
      </trkpt>
      <trkpt lat="43.71418" lon="1.47785">
        <ele>175.310415</ele>
        <time>2023-09-17T09:18:02.424Z</time>
      </trkpt>
      <trkpt lat="43.71423" lon="1.4779">
        <ele>175.399121</ele>
        <time>2023-09-17T09:18:03.424Z</time>
      </trkpt>
      <trkpt lat="43.71423" lon="1.4779">
        <ele>175.399121</ele>
        <time>2023-09-17T09:18:03.424Z</time>
      </trkpt>
      <trkpt lat="43.71428" lon="1.47795">
        <ele>175.483693</ele>
        <time>2023-09-17T09:18:04.424Z</time>
      </trkpt>
      <trkpt lat="43.71433" lon="1.478">
        <ele>175.568823</ele>
        <time>2023-09-17T09:18:04.424Z</time>
      </trkpt>
      <trkpt lat="43.71433" lon="1.478">
        <ele>175.568823</ele>
        <time>2023-09-17T09:18:04.424Z</time>
      </trkpt>
      <trkpt lat="43.71438" lon="1.47805">
        <ele>175.652806</ele>
        <time>2023-09-17T09:18:06.424Z</time>
      </trkpt>
      <trkpt lat="43.71443" lon="1.47809">
        <ele>175.738516</ele>
        <time>2023-09-17T09:18:07.424Z</time>
      </trkpt>
      <trkpt lat="43.71443" lon="1.47809">
        <ele>175.738516</ele>
        <time>2023-09-17T09:18:07.424Z</time>
      </trkpt>
      <trkpt lat="43.71448" lon="1.47814">
        <ele>175.824225</ele>
        <time>2023-09-17T09:18:08.424Z</time>
      </trkpt>
      <trkpt lat="43.71448" lon="1.47814">
        <ele>175.824225</ele>
        <time>2023-09-17T09:18:08.424Z</time>
      </trkpt>
      <trkpt lat="43.71452" lon="1.47819">
        <ele>175.901894</ele>
        <time>2023-09-17T09:18:09.424Z</time>
      </trkpt>
      <trkpt lat="43.71456" lon="1.47823">
        <ele>175.96748</ele>
        <time>2023-09-17T09:18:10.424Z</time>
      </trkpt>
      <trkpt lat="43.71456" lon="1.47823">
        <ele>175.96748</ele>
        <time>2023-09-17T09:18:10.424Z</time>
      </trkpt>
      <trkpt lat="43.7146" lon="1.47826">
        <ele>176.027302</ele>
        <time>2023-09-17T09:18:11.424Z</time>
      </trkpt>
      <trkpt lat="43.7146" lon="1.47826">
        <ele>176.027302</ele>
        <time>2023-09-17T09:18:11.424Z</time>
      </trkpt>
      <trkpt lat="43.71462" lon="1.47828">
        <ele>176.069934</ele>
        <time>2023-09-17T09:18:11.424Z</time>
      </trkpt>
      <trkpt lat="43.71462" lon="1.47828">
        <ele>176.069934</ele>
        <time>2023-09-17T09:18:11.424Z</time>
      </trkpt>
      <trkpt lat="43.71465" lon="1.47831">
        <ele>176.12228</ele>
        <time>2023-09-17T09:18:13.424Z</time>
      </trkpt>
      <trkpt lat="43.71465" lon="1.47831">
        <ele>176.12228</ele>
        <time>2023-09-17T09:18:13.424Z</time>
      </trkpt>
      <trkpt lat="43.71468" lon="1.47834">
        <ele>176.174625</ele>
        <time>2023-09-17T09:18:14.424Z</time>
      </trkpt>
      <trkpt lat="43.71468" lon="1.47834">
        <ele>176.174625</ele>
        <time>2023-09-17T09:18:14.424Z</time>
      </trkpt>
      <trkpt lat="43.71472" lon="1.47838">
        <ele>176.235135</ele>
        <time>2023-09-17T09:18:15.424Z</time>
      </trkpt>
      <trkpt lat="43.71476" lon="1.47842">
        <ele>176.301318</ele>
        <time>2023-09-17T09:18:16.424Z</time>
      </trkpt>
      <trkpt lat="43.7148" lon="1.47846">
        <ele>176.372643</ele>
        <time>2023-09-17T09:18:17.424Z</time>
      </trkpt>
      <trkpt lat="43.71485" lon="1.4785">
        <ele>176.456635</ele>
        <time>2023-09-17T09:18:18.424Z</time>
      </trkpt>
      <trkpt lat="43.71489" lon="1.47855">
        <ele>176.534303</ele>
        <time>2023-09-17T09:18:18.424Z</time>
      </trkpt>
      <trkpt lat="43.71489" lon="1.47855">
        <ele>176.534303</ele>
        <time>2023-09-17T09:18:18.424Z</time>
      </trkpt>
      <trkpt lat="43.71494" lon="1.4786">
        <ele>176.619432</ele>
        <time>2023-09-17T09:18:20.424Z</time>
      </trkpt>
      <trkpt lat="43.71499" lon="1.47864">
        <ele>176.704561</ele>
        <time>2023-09-17T09:18:21.424Z</time>
      </trkpt>
      <trkpt lat="43.71499" lon="1.47864">
        <ele>176.704561</ele>
        <time>2023-09-17T09:18:21.424Z</time>
      </trkpt>
      <trkpt lat="43.71504" lon="1.47869">
        <ele>176.789133</ele>
        <time>2023-09-17T09:18:22.424Z</time>
      </trkpt>
      <trkpt lat="43.71504" lon="1.47869">
        <ele>176.789133</ele>
        <time>2023-09-17T09:18:22.424Z</time>
      </trkpt>
      <trkpt lat="43.71509" lon="1.47874">
        <ele>176.87257</ele>
        <time>2023-09-17T09:18:23.424Z</time>
      </trkpt>
      <trkpt lat="43.71514" lon="1.47878">
        <ele>176.955973</ele>
        <time>2023-09-17T09:18:24.424Z</time>
      </trkpt>
      <trkpt lat="43.71514" lon="1.47878">
        <ele>176.955973</ele>
        <time>2023-09-17T09:18:24.424Z</time>
      </trkpt>
      <trkpt lat="43.7152" lon="1.47883">
        <ele>177.046865</ele>
        <time>2023-09-17T09:18:25.424Z</time>
      </trkpt>
      <trkpt lat="43.71524" lon="1.47888">
        <ele>177.125734</ele>
        <time>2023-09-17T09:18:26.424Z</time>
      </trkpt>
      <trkpt lat="43.71524" lon="1.47888">
        <ele>177.125734</ele>
        <time>2023-09-17T09:18:26.424Z</time>
      </trkpt>
      <trkpt lat="43.71529" lon="1.47893">
        <ele>177.205724</ele>
        <time>2023-09-17T09:18:27.424Z</time>
      </trkpt>
      <trkpt lat="43.71529" lon="1.47893">
        <ele>177.205724</ele>
        <time>2023-09-17T09:18:27.424Z</time>
      </trkpt>
      <trkpt lat="43.71538" lon="1.47902">
        <ele>177.169408</ele>
        <time>2023-09-17T09:18:28.424Z</time>
      </trkpt>
      <trkpt lat="43.71538" lon="1.47902">
        <ele>177.169408</ele>
        <time>2023-09-17T09:18:28.424Z</time>
      </trkpt>
      <trkpt lat="43.71542" lon="1.47903">
        <ele>177.132412</ele>
        <time>2023-09-17T09:18:29.424Z</time>
      </trkpt>
      <trkpt lat="43.71542" lon="1.47903">
        <ele>177.132412</ele>
        <time>2023-09-17T09:18:29.424Z</time>
      </trkpt>
      <trkpt lat="43.71548" lon="1.47903">
        <ele>177.090977</ele>
        <time>2023-09-17T09:18:31.424Z</time>
      </trkpt>
      <trkpt lat="43.71548" lon="1.47903">
        <ele>177.090977</ele>
        <time>2023-09-17T09:18:31.424Z</time>
      </trkpt>
      <trkpt lat="43.71552" lon="1.479">
        <ele>177.052219</ele>
        <time>2023-09-17T09:18:32.424Z</time>
      </trkpt>
      <trkpt lat="43.71552" lon="1.479">
        <ele>177.052219</ele>
        <time>2023-09-17T09:18:32.424Z</time>
      </trkpt>
      <trkpt lat="43.71557" lon="1.47896">
        <ele>177.009231</ele>
        <time>2023-09-17T09:18:33.424Z</time>
      </trkpt>
      <trkpt lat="43.71557" lon="1.47896">
        <ele>177.009231</ele>
        <time>2023-09-17T09:18:33.424Z</time>
      </trkpt>
      <trkpt lat="43.71561" lon="1.4789">
        <ele>176.96227</ele>
        <time>2023-09-17T09:18:34.424Z</time>
      </trkpt>
      <trkpt lat="43.71569" lon="1.47877">
        <ele>176.867079</ele>
        <time>2023-09-17T09:18:36.424Z</time>
      </trkpt>
      <trkpt lat="43.71569" lon="1.47877">
        <ele>176.867079</ele>
        <time>2023-09-17T09:18:36.424Z</time>
      </trkpt>
      <trkpt lat="43.71573" lon="1.4787">
        <ele>176.817927</ele>
        <time>2023-09-17T09:18:36.424Z</time>
      </trkpt>
      <trkpt lat="43.71578" lon="1.47865">
        <ele>176.767993</ele>
        <time>2023-09-17T09:18:37.424Z</time>
      </trkpt>
      <trkpt lat="43.71583" lon="1.47858">
        <ele>176.712533</ele>
        <time>2023-09-17T09:18:38.424Z</time>
      </trkpt>
      <trkpt lat="43.71583" lon="1.47858">
        <ele>176.712533</ele>
        <time>2023-09-17T09:18:38.424Z</time>
      </trkpt>
      <trkpt lat="43.71588" lon="1.47851">
        <ele>176.660027</ele>
        <time>2023-09-17T09:18:39.424Z</time>
      </trkpt>
      <trkpt lat="43.71588" lon="1.47851">
        <ele>176.660027</ele>
        <time>2023-09-17T09:18:39.424Z</time>
      </trkpt>
      <trkpt lat="43.71592" lon="1.47845">
        <ele>176.608876</ele>
        <time>2023-09-17T09:18:40.424Z</time>
      </trkpt>
      <trkpt lat="43.71597" lon="1.47837">
        <ele>176.550939</ele>
        <time>2023-09-17T09:18:41.424Z</time>
      </trkpt>
      <trkpt lat="43.71607" lon="1.47822">
        <ele>176.434327</ele>
        <time>2023-09-17T09:18:44.424Z</time>
      </trkpt>
      <trkpt lat="43.71607" lon="1.47822">
        <ele>176.434327</ele>
        <time>2023-09-17T09:18:44.424Z</time>
      </trkpt>
      <trkpt lat="43.71612" lon="1.47813">
        <ele>176.373846</ele>
        <time>2023-09-17T09:18:45.424Z</time>
      </trkpt>
      <trkpt lat="43.71612" lon="1.47813">
        <ele>176.373846</ele>
        <time>2023-09-17T09:18:45.424Z</time>
      </trkpt>
      <trkpt lat="43.71618" lon="1.47805">
        <ele>176.310985</ele>
        <time>2023-09-17T09:18:45.424Z</time>
      </trkpt>
      <trkpt lat="43.71618" lon="1.47805">
        <ele>176.310985</ele>
        <time>2023-09-17T09:18:45.424Z</time>
      </trkpt>
      <trkpt lat="43.71623" lon="1.47797">
        <ele>176.247699</ele>
        <time>2023-09-17T09:18:47.424Z</time>
      </trkpt>
      <trkpt lat="43.71623" lon="1.47797">
        <ele>176.247699</ele>
        <time>2023-09-17T09:18:47.424Z</time>
      </trkpt>
      <trkpt lat="43.71629" lon="1.47788">
        <ele>176.180975</ele>
        <time>2023-09-17T09:18:48.424Z</time>
      </trkpt>
      <trkpt lat="43.71629" lon="1.47788">
        <ele>176.180975</ele>
        <time>2023-09-17T09:18:48.424Z</time>
      </trkpt>
      <trkpt lat="43.71634" lon="1.47779">
        <ele>176.114358</ele>
        <time>2023-09-17T09:18:49.424Z</time>
      </trkpt>
      <trkpt lat="43.71634" lon="1.47779">
        <ele>176.114358</ele>
        <time>2023-09-17T09:18:49.424Z</time>
      </trkpt>
      <trkpt lat="43.7164" lon="1.4777">
        <ele>176.045616</ele>
        <time>2023-09-17T09:18:50.424Z</time>
      </trkpt>
      <trkpt lat="43.7164" lon="1.4777">
        <ele>176.045616</ele>
        <time>2023-09-17T09:18:50.424Z</time>
      </trkpt>
      <trkpt lat="43.71646" lon="1.47761">
        <ele>175.980249</ele>
        <time>2023-09-17T09:18:51.424Z</time>
      </trkpt>
      <trkpt lat="43.71646" lon="1.47761">
        <ele>175.980249</ele>
        <time>2023-09-17T09:18:51.424Z</time>
      </trkpt>
      <trkpt lat="43.71652" lon="1.47752">
        <ele>175.91185</ele>
        <time>2023-09-17T09:18:52.424Z</time>
      </trkpt>
      <trkpt lat="43.71652" lon="1.47752">
        <ele>175.91185</ele>
        <time>2023-09-17T09:18:52.424Z</time>
      </trkpt>
      <trkpt lat="43.71657" lon="1.47743">
        <ele>175.843538</ele>
        <time>2023-09-17T09:18:52.424Z</time>
      </trkpt>
      <trkpt lat="43.71657" lon="1.47743">
        <ele>175.843538</ele>
        <time>2023-09-17T09:18:52.424Z</time>
      </trkpt>
      <trkpt lat="43.71663" lon="1.47734">
        <ele>175.679536</ele>
        <time>2023-09-17T09:18:53.424Z</time>
      </trkpt>
      <trkpt lat="43.71663" lon="1.47734">
        <ele>175.679536</ele>
        <time>2023-09-17T09:18:53.424Z</time>
      </trkpt>
      <trkpt lat="43.71669" lon="1.47725">
        <ele>175.509644</ele>
        <time>2023-09-17T09:18:55.424Z</time>
      </trkpt>
      <trkpt lat="43.71669" lon="1.47725">
        <ele>175.509644</ele>
        <time>2023-09-17T09:18:55.424Z</time>
      </trkpt>
      <trkpt lat="43.71675" lon="1.47716">
        <ele>175.337555</ele>
        <time>2023-09-17T09:18:56.424Z</time>
      </trkpt>
      <trkpt lat="43.71675" lon="1.47716">
        <ele>175.337555</ele>
        <time>2023-09-17T09:18:56.424Z</time>
      </trkpt>
      <trkpt lat="43.71681" lon="1.47707">
        <ele>175.163351</ele>
        <time>2023-09-17T09:18:57.424Z</time>
      </trkpt>
      <trkpt lat="43.71681" lon="1.47707">
        <ele>175.163351</ele>
        <time>2023-09-17T09:18:57.424Z</time>
      </trkpt>
      <trkpt lat="43.71687" lon="1.47698">
        <ele>174.990028</ele>
        <time>2023-09-17T09:18:57.424Z</time>
      </trkpt>
      <trkpt lat="43.71687" lon="1.47698">
        <ele>174.990028</ele>
        <time>2023-09-17T09:18:57.424Z</time>
      </trkpt>
      <trkpt lat="43.71692" lon="1.47688">
        <ele>174.81691</ele>
        <time>2023-09-17T09:18:59.424Z</time>
      </trkpt>
      <trkpt lat="43.71692" lon="1.47688">
        <ele>174.81691</ele>
        <time>2023-09-17T09:18:59.424Z</time>
      </trkpt>
      <trkpt lat="43.71698" lon="1.47679">
        <ele>174.641616</ele>
        <time>2023-09-17T09:19:00.424Z</time>
      </trkpt>
      <trkpt lat="43.71698" lon="1.47679">
        <ele>174.641616</ele>
        <time>2023-09-17T09:19:00.424Z</time>
      </trkpt>
      <trkpt lat="43.71703" lon="1.4767">
        <ele>174.475693</ele>
        <time>2023-09-17T09:19:01.424Z</time>
      </trkpt>
      <trkpt lat="43.71703" lon="1.4767">
        <ele>174.475693</ele>
        <time>2023-09-17T09:19:01.424Z</time>
      </trkpt>
      <trkpt lat="43.71709" lon="1.4766">
        <ele>174.299139</ele>
        <time>2023-09-17T09:19:02.424Z</time>
      </trkpt>
      <trkpt lat="43.71709" lon="1.4766">
        <ele>174.299139</ele>
        <time>2023-09-17T09:19:02.424Z</time>
      </trkpt>
      <trkpt lat="43.71714" lon="1.47651">
        <ele>174.130996</ele>
        <time>2023-09-17T09:19:03.424Z</time>
      </trkpt>
      <trkpt lat="43.71714" lon="1.47651">
        <ele>174.130996</ele>
        <time>2023-09-17T09:19:03.424Z</time>
      </trkpt>
      <trkpt lat="43.7172" lon="1.47641">
        <ele>173.955703</ele>
        <time>2023-09-17T09:19:04.424Z</time>
      </trkpt>
      <trkpt lat="43.71726" lon="1.47633">
        <ele>173.79289</ele>
        <time>2023-09-17T09:19:05.424Z</time>
      </trkpt>
      <trkpt lat="43.71726" lon="1.47633">
        <ele>173.79289</ele>
        <time>2023-09-17T09:19:05.424Z</time>
      </trkpt>
      <trkpt lat="43.71731" lon="1.47624">
        <ele>173.624063</ele>
        <time>2023-09-17T09:19:06.424Z</time>
      </trkpt>
      <trkpt lat="43.71731" lon="1.47624">
        <ele>173.624063</ele>
        <time>2023-09-17T09:19:06.424Z</time>
      </trkpt>
      <trkpt lat="43.71737" lon="1.47615">
        <ele>173.449926</ele>
        <time>2023-09-17T09:19:07.424Z</time>
      </trkpt>
      <trkpt lat="43.71743" lon="1.47606">
        <ele>173.28216</ele>
        <time>2023-09-17T09:19:08.424Z</time>
      </trkpt>
      <trkpt lat="43.71743" lon="1.47606">
        <ele>173.28216</ele>
        <time>2023-09-17T09:19:08.424Z</time>
      </trkpt>
      <trkpt lat="43.71748" lon="1.47598">
        <ele>173.122781</ele>
        <time>2023-09-17T09:19:08.424Z</time>
      </trkpt>
      <trkpt lat="43.71754" lon="1.47589">
        <ele>172.955785</ele>
        <time>2023-09-17T09:19:09.424Z</time>
      </trkpt>
      <trkpt lat="43.7176" lon="1.4758">
        <ele>172.789073</ele>
        <time>2023-09-17T09:19:10.424Z</time>
      </trkpt>
      <trkpt lat="43.7176" lon="1.4758">
        <ele>172.789073</ele>
        <time>2023-09-17T09:19:10.424Z</time>
      </trkpt>
      <trkpt lat="43.71766" lon="1.47571">
        <ele>172.620247</ele>
        <time>2023-09-17T09:19:11.424Z</time>
      </trkpt>
      <trkpt lat="43.71771" lon="1.47563">
        <ele>172.452481</ele>
        <time>2023-09-17T09:19:12.424Z</time>
      </trkpt>
      <trkpt lat="43.71777" lon="1.47554">
        <ele>172.280796</ele>
        <time>2023-09-17T09:19:13.424Z</time>
      </trkpt>
      <trkpt lat="43.71777" lon="1.47554">
        <ele>172.280796</ele>
        <time>2023-09-17T09:19:13.424Z</time>
      </trkpt>
      <trkpt lat="43.71782" lon="1.47545">
        <ele>172.109082</ele>
        <time>2023-09-17T09:19:14.424Z</time>
      </trkpt>
      <trkpt lat="43.71788" lon="1.47535">
        <ele>171.912409</ele>
        <time>2023-09-17T09:19:15.424Z</time>
      </trkpt>
      <trkpt lat="43.71794" lon="1.47526">
        <ele>171.728216</ele>
        <time>2023-09-17T09:19:16.424Z</time>
      </trkpt>
      <trkpt lat="43.71794" lon="1.47526">
        <ele>171.728216</ele>
        <time>2023-09-17T09:19:16.424Z</time>
      </trkpt>
      <trkpt lat="43.718" lon="1.47517">
        <ele>171.545176</ele>
        <time>2023-09-17T09:19:17.424Z</time>
      </trkpt>
      <trkpt lat="43.71806" lon="1.47508">
        <ele>171.35959</ele>
        <time>2023-09-17T09:19:19.424Z</time>
      </trkpt>
      <trkpt lat="43.71806" lon="1.47508">
        <ele>171.35959</ele>
        <time>2023-09-17T09:19:19.424Z</time>
      </trkpt>
      <trkpt lat="43.71811" lon="1.47499">
        <ele>171.179633</ele>
        <time>2023-09-17T09:19:20.424Z</time>
      </trkpt>
      <trkpt lat="43.71817" lon="1.4749">
        <ele>170.996594</ele>
        <time>2023-09-17T09:19:21.424Z</time>
      </trkpt>
      <trkpt lat="43.71822" lon="1.47481">
        <ele>170.812153</ele>
        <time>2023-09-17T09:19:22.424Z</time>
      </trkpt>
      <trkpt lat="43.71822" lon="1.47481">
        <ele>170.812153</ele>
        <time>2023-09-17T09:19:22.424Z</time>
      </trkpt>
      <trkpt lat="43.71828" lon="1.47472">
        <ele>170.629114</ele>
        <time>2023-09-17T09:19:22.424Z</time>
      </trkpt>
      <trkpt lat="43.71828" lon="1.47472">
        <ele>170.629114</ele>
        <time>2023-09-17T09:19:22.424Z</time>
      </trkpt>
      <trkpt lat="43.71834" lon="1.47464">
        <ele>170.445892</ele>
        <time>2023-09-17T09:19:24.424Z</time>
      </trkpt>
      <trkpt lat="43.71834" lon="1.47464">
        <ele>170.445892</ele>
        <time>2023-09-17T09:19:24.424Z</time>
      </trkpt>
      <trkpt lat="43.7184" lon="1.47454">
        <ele>170.255854</ele>
        <time>2023-09-17T09:19:25.424Z</time>
      </trkpt>
      <trkpt lat="43.7184" lon="1.47454">
        <ele>170.255854</ele>
        <time>2023-09-17T09:19:25.424Z</time>
      </trkpt>
      <trkpt lat="43.71846" lon="1.47445">
        <ele>170.069339</ele>
        <time>2023-09-17T09:19:26.424Z</time>
      </trkpt>
      <trkpt lat="43.71846" lon="1.47445">
        <ele>170.069339</ele>
        <time>2023-09-17T09:19:26.424Z</time>
      </trkpt>
      <trkpt lat="43.71852" lon="1.47435">
        <ele>169.877241</ele>
        <time>2023-09-17T09:19:27.424Z</time>
      </trkpt>
      <trkpt lat="43.71852" lon="1.47435">
        <ele>169.877241</ele>
        <time>2023-09-17T09:19:27.424Z</time>
      </trkpt>
      <trkpt lat="43.71858" lon="1.47426">
        <ele>169.680569</ele>
        <time>2023-09-17T09:19:28.424Z</time>
      </trkpt>
      <trkpt lat="43.71858" lon="1.47426">
        <ele>169.680569</ele>
        <time>2023-09-17T09:19:28.424Z</time>
      </trkpt>
      <trkpt lat="43.71864" lon="1.47416">
        <ele>169.486195</ele>
        <time>2023-09-17T09:19:29.424Z</time>
      </trkpt>
      <trkpt lat="43.71864" lon="1.47416">
        <ele>169.486195</ele>
        <time>2023-09-17T09:19:29.424Z</time>
      </trkpt>
      <trkpt lat="43.7187" lon="1.47406">
        <ele>169.288366</ele>
        <time>2023-09-17T09:19:30.424Z</time>
      </trkpt>
      <trkpt lat="43.7187" lon="1.47406">
        <ele>169.288366</ele>
        <time>2023-09-17T09:19:30.424Z</time>
      </trkpt>
      <trkpt lat="43.71877" lon="1.47396">
        <ele>169.07806</ele>
        <time>2023-09-17T09:19:31.424Z</time>
      </trkpt>
      <trkpt lat="43.71877" lon="1.47396">
        <ele>169.07806</ele>
        <time>2023-09-17T09:19:31.424Z</time>
      </trkpt>
      <trkpt lat="43.71883" lon="1.47386">
        <ele>168.874375</ele>
        <time>2023-09-17T09:19:32.424Z</time>
      </trkpt>
      <trkpt lat="43.71883" lon="1.47386">
        <ele>168.874375</ele>
        <time>2023-09-17T09:19:32.424Z</time>
      </trkpt>
      <trkpt lat="43.71888" lon="1.47376">
        <ele>168.693094</ele>
        <time>2023-09-17T09:19:33.424Z</time>
      </trkpt>
      <trkpt lat="43.71888" lon="1.47376">
        <ele>168.693094</ele>
        <time>2023-09-17T09:19:33.424Z</time>
      </trkpt>
      <trkpt lat="43.71896" lon="1.47364">
        <ele>168.454245</ele>
        <time>2023-09-17T09:19:34.424Z</time>
      </trkpt>
      <trkpt lat="43.71896" lon="1.47364">
        <ele>168.454245</ele>
        <time>2023-09-17T09:19:34.424Z</time>
      </trkpt>
      <trkpt lat="43.71902" lon="1.47354">
        <ele>168.28174</ele>
        <time>2023-09-17T09:19:35.424Z</time>
      </trkpt>
      <trkpt lat="43.71902" lon="1.47354">
        <ele>168.28174</ele>
        <time>2023-09-17T09:19:35.424Z</time>
      </trkpt>
      <trkpt lat="43.71908" lon="1.47344">
        <ele>168.107513</ele>
        <time>2023-09-17T09:19:35.424Z</time>
      </trkpt>
      <trkpt lat="43.71908" lon="1.47344">
        <ele>168.107513</ele>
        <time>2023-09-17T09:19:35.424Z</time>
      </trkpt>
      <trkpt lat="43.71915" lon="1.47334">
        <ele>167.935203</ele>
        <time>2023-09-17T09:19:37.424Z</time>
      </trkpt>
      <trkpt lat="43.71915" lon="1.47334">
        <ele>167.935203</ele>
        <time>2023-09-17T09:19:37.424Z</time>
      </trkpt>
      <trkpt lat="43.71921" lon="1.47324">
        <ele>167.763846</ele>
        <time>2023-09-17T09:19:37.424Z</time>
      </trkpt>
      <trkpt lat="43.71921" lon="1.47324">
        <ele>167.763846</ele>
        <time>2023-09-17T09:19:37.424Z</time>
      </trkpt>
      <trkpt lat="43.71928" lon="1.47313">
        <ele>167.580912</ele>
        <time>2023-09-17T09:19:39.424Z</time>
      </trkpt>
      <trkpt lat="43.71928" lon="1.47313">
        <ele>167.580912</ele>
        <time>2023-09-17T09:19:39.424Z</time>
      </trkpt>
      <trkpt lat="43.71934" lon="1.47304">
        <ele>167.417259</ele>
        <time>2023-09-17T09:19:40.424Z</time>
      </trkpt>
      <trkpt lat="43.71934" lon="1.47304">
        <ele>167.417259</ele>
        <time>2023-09-17T09:19:40.424Z</time>
      </trkpt>
      <trkpt lat="43.71939" lon="1.47296">
        <ele>167.273551</ele>
        <time>2023-09-17T09:19:41.424Z</time>
      </trkpt>
      <trkpt lat="43.71946" lon="1.47284">
        <ele>167.075471</ele>
        <time>2023-09-17T09:19:42.424Z</time>
      </trkpt>
      <trkpt lat="43.71946" lon="1.47284">
        <ele>167.075471</ele>
        <time>2023-09-17T09:19:42.424Z</time>
      </trkpt>
      <trkpt lat="43.71952" lon="1.47275">
        <ele>166.919265</ele>
        <time>2023-09-17T09:19:43.424Z</time>
      </trkpt>
      <trkpt lat="43.71952" lon="1.47275">
        <ele>166.919265</ele>
        <time>2023-09-17T09:19:43.424Z</time>
      </trkpt>
      <trkpt lat="43.71958" lon="1.47266">
        <ele>166.756573</ele>
        <time>2023-09-17T09:19:44.424Z</time>
      </trkpt>
      <trkpt lat="43.71964" lon="1.47257">
        <ele>166.601554</ele>
        <time>2023-09-17T09:19:45.424Z</time>
      </trkpt>
      <trkpt lat="43.71964" lon="1.47257">
        <ele>166.601554</ele>
        <time>2023-09-17T09:19:45.424Z</time>
      </trkpt>
      <trkpt lat="43.7197" lon="1.47248">
        <ele>166.442602</ele>
        <time>2023-09-17T09:19:46.424Z</time>
      </trkpt>
      <trkpt lat="43.71975" lon="1.47239">
        <ele>166.287583</ele>
        <time>2023-09-17T09:19:46.424Z</time>
      </trkpt>
      <trkpt lat="43.71981" lon="1.4723">
        <ele>166.135466</ele>
        <time>2023-09-17T09:19:48.424Z</time>
      </trkpt>
      <trkpt lat="43.71986" lon="1.47222">
        <ele>165.992713</ele>
        <time>2023-09-17T09:19:49.424Z</time>
      </trkpt>
      <trkpt lat="43.71992" lon="1.47215">
        <ele>165.854375</ele>
        <time>2023-09-17T09:19:50.424Z</time>
      </trkpt>
      <trkpt lat="43.71992" lon="1.47215">
        <ele>165.854375</ele>
        <time>2023-09-17T09:19:50.424Z</time>
      </trkpt>
      <trkpt lat="43.71998" lon="1.47206">
        <ele>165.706057</ele>
        <time>2023-09-17T09:19:50.424Z</time>
      </trkpt>
      <trkpt lat="43.72003" lon="1.47198">
        <ele>165.564254</ele>
        <time>2023-09-17T09:19:52.424Z</time>
      </trkpt>
      <trkpt lat="43.72009" lon="1.4719">
        <ele>165.412713</ele>
        <time>2023-09-17T09:19:52.424Z</time>
      </trkpt>
      <trkpt lat="43.72009" lon="1.4719">
        <ele>165.412713</ele>
        <time>2023-09-17T09:19:52.424Z</time>
      </trkpt>
      <trkpt lat="43.72015" lon="1.47183">
        <ele>165.273499</ele>
        <time>2023-09-17T09:19:54.424Z</time>
      </trkpt>
      <trkpt lat="43.72021" lon="1.47175">
        <ele>165.178953</ele>
        <time>2023-09-17T09:19:54.424Z</time>
      </trkpt>
      <trkpt lat="43.72027" lon="1.47168">
        <ele>165.08721</ele>
        <time>2023-09-17T09:19:56.424Z</time>
      </trkpt>
      <trkpt lat="43.72033" lon="1.4716">
        <ele>164.990986</ele>
        <time>2023-09-17T09:19:57.424Z</time>
      </trkpt>
      <trkpt lat="43.72039" lon="1.47152">
        <ele>164.893515</ele>
        <time>2023-09-17T09:19:58.424Z</time>
      </trkpt>
      <trkpt lat="43.72039" lon="1.47152">
        <ele>164.893515</ele>
        <time>2023-09-17T09:19:58.424Z</time>
      </trkpt>
      <trkpt lat="43.72046" lon="1.47144">
        <ele>164.793878</ele>
        <time>2023-09-17T09:19:59.424Z</time>
      </trkpt>
      <trkpt lat="43.72052" lon="1.47137">
        <ele>164.698222</ele>
        <time>2023-09-17T09:20:00.424Z</time>
      </trkpt>
      <trkpt lat="43.72058" lon="1.47129">
        <ele>164.608773</ele>
        <time>2023-09-17T09:20:01.424Z</time>
      </trkpt>
      <trkpt lat="43.72058" lon="1.47129">
        <ele>164.608773</ele>
        <time>2023-09-17T09:20:01.424Z</time>
      </trkpt>
      <trkpt lat="43.72063" lon="1.47121">
        <ele>164.51887</ele>
        <time>2023-09-17T09:20:02.424Z</time>
      </trkpt>
      <trkpt lat="43.72068" lon="1.47114">
        <ele>164.437159</ele>
        <time>2023-09-17T09:20:03.424Z</time>
      </trkpt>
      <trkpt lat="43.72068" lon="1.47114">
        <ele>164.437159</ele>
        <time>2023-09-17T09:20:03.424Z</time>
      </trkpt>
      <trkpt lat="43.72071" lon="1.47109">
        <ele>164.380408</ele>
        <time>2023-09-17T09:20:04.424Z</time>
      </trkpt>
      <trkpt lat="43.72071" lon="1.47109">
        <ele>164.380408</ele>
        <time>2023-09-17T09:20:04.424Z</time>
      </trkpt>
      <trkpt lat="43.72073" lon="1.47105">
        <ele>164.334533</ele>
        <time>2023-09-17T09:20:04.424Z</time>
      </trkpt>
      <trkpt lat="43.72074" lon="1.47103">
        <ele>164.318248</ele>
        <time>2023-09-17T09:20:06.424Z</time>
      </trkpt>
      <trkpt lat="43.72075" lon="1.471">
        <ele>164.288242</ele>
        <time>2023-09-17T09:20:15.424Z</time>
      </trkpt>
      <trkpt lat="43.72075" lon="1.471">
        <ele>164.288242</ele>
        <time>2023-09-17T09:20:15.424Z</time>
      </trkpt>
      <trkpt lat="43.72074" lon="1.47099">
        <ele>164.274198</ele>
        <time>2023-09-17T09:20:19.424Z</time>
      </trkpt>
      <trkpt lat="43.72074" lon="1.47099">
        <ele>164.270869</ele>
        <time>2023-09-17T09:20:22.424Z</time>
      </trkpt>
      <trkpt lat="43.72072" lon="1.47097">
        <ele>164.244811</ele>
        <time>2023-09-17T09:20:24.424Z</time>
      </trkpt>
      <trkpt lat="43.72072" lon="1.47097">
        <ele>164.244811</ele>
        <time>2023-09-17T09:20:24.424Z</time>
      </trkpt>
      <trkpt lat="43.72077" lon="1.47097">
        <ele>164.191827</ele>
        <time>2023-09-17T09:20:25.424Z</time>
      </trkpt>
      <trkpt lat="43.72082" lon="1.47097">
        <ele>164.130585</ele>
        <time>2023-09-17T09:20:27.424Z</time>
      </trkpt>
      <trkpt lat="43.72086" lon="1.47095">
        <ele>164.08885</ele>
        <time>2023-09-17T09:20:28.424Z</time>
      </trkpt>
      <trkpt lat="43.72089" lon="1.47093">
        <ele>164.044892</ele>
        <time>2023-09-17T09:20:28.424Z</time>
      </trkpt>
      <trkpt lat="43.72089" lon="1.47093">
        <ele>164.044892</ele>
        <time>2023-09-17T09:20:28.424Z</time>
      </trkpt>
      <trkpt lat="43.72093" lon="1.4709">
        <ele>163.994506</ele>
        <time>2023-09-17T09:20:30.424Z</time>
      </trkpt>
      <trkpt lat="43.72098" lon="1.47086">
        <ele>163.926264</ele>
        <time>2023-09-17T09:20:30.424Z</time>
      </trkpt>
      <trkpt lat="43.72098" lon="1.47086">
        <ele>163.926264</ele>
        <time>2023-09-17T09:20:30.424Z</time>
      </trkpt>
      <trkpt lat="43.72104" lon="1.4708">
        <ele>163.844779</ele>
        <time>2023-09-17T09:20:31.424Z</time>
      </trkpt>
      <trkpt lat="43.72109" lon="1.47074">
        <ele>163.763294</ele>
        <time>2023-09-17T09:20:33.424Z</time>
      </trkpt>
      <trkpt lat="43.72109" lon="1.47074">
        <ele>163.763294</ele>
        <time>2023-09-17T09:20:33.424Z</time>
      </trkpt>
      <trkpt lat="43.72115" lon="1.47067">
        <ele>163.6736</ele>
        <time>2023-09-17T09:20:34.424Z</time>
      </trkpt>
      <trkpt lat="43.72122" lon="1.47061">
        <ele>163.577466</ele>
        <time>2023-09-17T09:20:35.424Z</time>
      </trkpt>
      <trkpt lat="43.72122" lon="1.47061">
        <ele>163.577466</ele>
        <time>2023-09-17T09:20:35.424Z</time>
      </trkpt>
      <trkpt lat="43.72128" lon="1.47055">
        <ele>163.493159</ele>
        <time>2023-09-17T09:20:36.424Z</time>
      </trkpt>
      <trkpt lat="43.72128" lon="1.47055">
        <ele>163.493159</ele>
        <time>2023-09-17T09:20:36.424Z</time>
      </trkpt>
      <trkpt lat="43.72134" lon="1.4705">
        <ele>163.416312</ele>
        <time>2023-09-17T09:20:37.424Z</time>
      </trkpt>
      <trkpt lat="43.72134" lon="1.4705">
        <ele>163.416312</ele>
        <time>2023-09-17T09:20:37.424Z</time>
      </trkpt>
      <trkpt lat="43.72139" lon="1.47046">
        <ele>163.344559</ele>
        <time>2023-09-17T09:20:38.424Z</time>
      </trkpt>
      <trkpt lat="43.72139" lon="1.47046">
        <ele>163.344559</ele>
        <time>2023-09-17T09:20:38.424Z</time>
      </trkpt>
      <trkpt lat="43.72145" lon="1.47041">
        <ele>163.271149</ele>
        <time>2023-09-17T09:20:39.424Z</time>
      </trkpt>
      <trkpt lat="43.72145" lon="1.47041">
        <ele>163.271149</ele>
        <time>2023-09-17T09:20:39.424Z</time>
      </trkpt>
      <trkpt lat="43.72151" lon="1.47035">
        <ele>163.188177</ele>
        <time>2023-09-17T09:20:40.424Z</time>
      </trkpt>
      <trkpt lat="43.72151" lon="1.47035">
        <ele>163.188177</ele>
        <time>2023-09-17T09:20:40.424Z</time>
      </trkpt>
      <trkpt lat="43.72157" lon="1.4703">
        <ele>163.135927</ele>
        <time>2023-09-17T09:20:41.424Z</time>
      </trkpt>
      <trkpt lat="43.72163" lon="1.47025">
        <ele>163.080776</ele>
        <time>2023-09-17T09:20:42.424Z</time>
      </trkpt>
      <trkpt lat="43.72163" lon="1.47025">
        <ele>163.080776</ele>
        <time>2023-09-17T09:20:42.424Z</time>
      </trkpt>
      <trkpt lat="43.72169" lon="1.4702">
        <ele>163.025626</ele>
        <time>2023-09-17T09:20:43.424Z</time>
      </trkpt>
      <trkpt lat="43.72169" lon="1.4702">
        <ele>163.025626</ele>
        <time>2023-09-17T09:20:43.424Z</time>
      </trkpt>
      <trkpt lat="43.72175" lon="1.47015">
        <ele>162.973972</ele>
        <time>2023-09-17T09:20:44.424Z</time>
      </trkpt>
      <trkpt lat="43.72175" lon="1.47015">
        <ele>162.973972</ele>
        <time>2023-09-17T09:20:44.424Z</time>
      </trkpt>
      <trkpt lat="43.7218" lon="1.47011">
        <ele>162.929233</ele>
        <time>2023-09-17T09:20:45.424Z</time>
      </trkpt>
      <trkpt lat="43.72185" lon="1.47007">
        <ele>162.881941</ele>
        <time>2023-09-17T09:20:46.424Z</time>
      </trkpt>
      <trkpt lat="43.72185" lon="1.47007">
        <ele>162.881941</ele>
        <time>2023-09-17T09:20:46.424Z</time>
      </trkpt>
      <trkpt lat="43.72191" lon="1.47002">
        <ele>162.833982</ele>
        <time>2023-09-17T09:20:47.424Z</time>
      </trkpt>
      <trkpt lat="43.72191" lon="1.47002">
        <ele>162.833982</ele>
        <time>2023-09-17T09:20:47.424Z</time>
      </trkpt>
      <trkpt lat="43.72195" lon="1.46999">
        <ele>162.791014</ele>
        <time>2023-09-17T09:20:48.424Z</time>
      </trkpt>
      <trkpt lat="43.72201" lon="1.46994">
        <ele>162.740098</ele>
        <time>2023-09-17T09:20:49.424Z</time>
      </trkpt>
      <trkpt lat="43.72206" lon="1.4699">
        <ele>162.69573</ele>
        <time>2023-09-17T09:20:50.424Z</time>
      </trkpt>
      <trkpt lat="43.72212" lon="1.46986">
        <ele>162.647492</ele>
        <time>2023-09-17T09:20:51.424Z</time>
      </trkpt>
      <trkpt lat="43.72218" lon="1.4698">
        <ele>162.587141</ele>
        <time>2023-09-17T09:20:52.424Z</time>
      </trkpt>
      <trkpt lat="43.72218" lon="1.4698">
        <ele>162.587141</ele>
        <time>2023-09-17T09:20:52.424Z</time>
      </trkpt>
      <trkpt lat="43.72224" lon="1.46975">
        <ele>162.533125</ele>
        <time>2023-09-17T09:20:53.424Z</time>
      </trkpt>
      <trkpt lat="43.7223" lon="1.46971">
        <ele>162.484313</ele>
        <time>2023-09-17T09:20:53.424Z</time>
      </trkpt>
      <trkpt lat="43.72237" lon="1.46965">
        <ele>162.420735</ele>
        <time>2023-09-17T09:20:55.424Z</time>
      </trkpt>
      <trkpt lat="43.72243" lon="1.46961">
        <ele>162.36726</ele>
        <time>2023-09-17T09:20:56.424Z</time>
      </trkpt>
      <trkpt lat="43.72243" lon="1.46961">
        <ele>162.36726</ele>
        <time>2023-09-17T09:20:56.424Z</time>
      </trkpt>
      <trkpt lat="43.7225" lon="1.46956">
        <ele>162.311802</ele>
        <time>2023-09-17T09:20:57.424Z</time>
      </trkpt>
      <trkpt lat="43.7225" lon="1.46956">
        <ele>162.311802</ele>
        <time>2023-09-17T09:20:57.424Z</time>
      </trkpt>
      <trkpt lat="43.72256" lon="1.46952">
        <ele>162.259841</ele>
        <time>2023-09-17T09:20:58.424Z</time>
      </trkpt>
      <trkpt lat="43.72263" lon="1.46948">
        <ele>162.201359</ele>
        <time>2023-09-17T09:20:59.424Z</time>
      </trkpt>
      <trkpt lat="43.72263" lon="1.46948">
        <ele>162.201359</ele>
        <time>2023-09-17T09:20:59.424Z</time>
      </trkpt>
      <trkpt lat="43.72269" lon="1.46944">
        <ele>162.145659</ele>
        <time>2023-09-17T09:21:00.424Z</time>
      </trkpt>
      <trkpt lat="43.72276" lon="1.46939">
        <ele>162.087396</ele>
        <time>2023-09-17T09:21:01.424Z</time>
      </trkpt>
      <trkpt lat="43.72282" lon="1.46935">
        <ele>162.034949</ele>
        <time>2023-09-17T09:21:02.424Z</time>
      </trkpt>
      <trkpt lat="43.72289" lon="1.46931">
        <ele>161.979729</ele>
        <time>2023-09-17T09:21:03.424Z</time>
      </trkpt>
      <trkpt lat="43.72295" lon="1.46927">
        <ele>161.928235</ele>
        <time>2023-09-17T09:21:04.424Z</time>
      </trkpt>
      <trkpt lat="43.72295" lon="1.46927">
        <ele>161.928235</ele>
        <time>2023-09-17T09:21:04.424Z</time>
      </trkpt>
      <trkpt lat="43.723" lon="1.46923">
        <ele>161.882334</ele>
        <time>2023-09-17T09:21:05.424Z</time>
      </trkpt>
      <trkpt lat="43.72305" lon="1.4692">
        <ele>161.837366</ele>
        <time>2023-09-17T09:21:06.424Z</time>
      </trkpt>
      <trkpt lat="43.72305" lon="1.4692">
        <ele>161.837366</ele>
        <time>2023-09-17T09:21:06.424Z</time>
      </trkpt>
      <trkpt lat="43.72312" lon="1.46915">
        <ele>161.774922</ele>
        <time>2023-09-17T09:21:07.424Z</time>
      </trkpt>
      <trkpt lat="43.72318" lon="1.46911">
        <ele>161.71677</ele>
        <time>2023-09-17T09:21:08.424Z</time>
      </trkpt>
      <trkpt lat="43.72323" lon="1.46907">
        <ele>161.658321</ele>
        <time>2023-09-17T09:21:09.424Z</time>
      </trkpt>
      <trkpt lat="43.72328" lon="1.46904">
        <ele>161.607372</ele>
        <time>2023-09-17T09:21:10.424Z</time>
      </trkpt>
      <trkpt lat="43.72334" lon="1.46901">
        <ele>161.550607</ele>
        <time>2023-09-17T09:21:11.424Z</time>
      </trkpt>
      <trkpt lat="43.72339" lon="1.46897">
        <ele>161.497181</ele>
        <time>2023-09-17T09:21:12.424Z</time>
      </trkpt>
      <trkpt lat="43.72344" lon="1.46894">
        <ele>161.447342</ele>
        <time>2023-09-17T09:21:13.424Z</time>
      </trkpt>
      <trkpt lat="43.7235" lon="1.46891">
        <ele>161.390312</ele>
        <time>2023-09-17T09:21:14.424Z</time>
      </trkpt>
      <trkpt lat="43.72356" lon="1.46887">
        <ele>161.328293</ele>
        <time>2023-09-17T09:21:15.424Z</time>
      </trkpt>
      <trkpt lat="43.72361" lon="1.46883">
        <ele>161.272278</ele>
        <time>2023-09-17T09:21:16.424Z</time>
      </trkpt>
      <trkpt lat="43.72366" lon="1.46879">
        <ele>161.224269</ele>
        <time>2023-09-17T09:21:16.424Z</time>
      </trkpt>
      <trkpt lat="43.72371" lon="1.46876">
        <ele>161.170563</ele>
        <time>2023-09-17T09:21:17.424Z</time>
      </trkpt>
      <trkpt lat="43.72377" lon="1.46872">
        <ele>161.109915</ele>
        <time>2023-09-17T09:21:18.424Z</time>
      </trkpt>
      <trkpt lat="43.72383" lon="1.46869">
        <ele>161.052885</ele>
        <time>2023-09-17T09:21:19.424Z</time>
      </trkpt>
      <trkpt lat="43.72383" lon="1.46869">
        <ele>161.052885</ele>
        <time>2023-09-17T09:21:19.424Z</time>
      </trkpt>
      <trkpt lat="43.7239" lon="1.46865">
        <ele>160.988607</ele>
        <time>2023-09-17T09:21:21.424Z</time>
      </trkpt>
      <trkpt lat="43.72396" lon="1.46861">
        <ele>160.928466</ele>
        <time>2023-09-17T09:21:22.424Z</time>
      </trkpt>
      <trkpt lat="43.72403" lon="1.46857">
        <ele>160.852866</ele>
        <time>2023-09-17T09:21:23.424Z</time>
      </trkpt>
      <trkpt lat="43.72409" lon="1.46854">
        <ele>160.79526</ele>
        <time>2023-09-17T09:21:24.424Z</time>
      </trkpt>
      <trkpt lat="43.72415" lon="1.4685">
        <ele>160.735119</ele>
        <time>2023-09-17T09:21:25.424Z</time>
      </trkpt>
      <trkpt lat="43.72415" lon="1.4685">
        <ele>160.735119</ele>
        <time>2023-09-17T09:21:25.424Z</time>
      </trkpt>
      <trkpt lat="43.72421" lon="1.46847">
        <ele>160.679579</ele>
        <time>2023-09-17T09:21:26.424Z</time>
      </trkpt>
      <trkpt lat="43.72421" lon="1.46847">
        <ele>160.679579</ele>
        <time>2023-09-17T09:21:26.424Z</time>
      </trkpt>
      <trkpt lat="43.72427" lon="1.46844">
        <ele>160.623808</ele>
        <time>2023-09-17T09:21:27.424Z</time>
      </trkpt>
      <trkpt lat="43.72431" lon="1.46842">
        <ele>160.579509</ele>
        <time>2023-09-17T09:21:28.424Z</time>
      </trkpt>
      <trkpt lat="43.72431" lon="1.46842">
        <ele>160.579509</ele>
        <time>2023-09-17T09:21:28.424Z</time>
      </trkpt>
      <trkpt lat="43.72438" lon="1.4684">
        <ele>160.515644</ele>
        <time>2023-09-17T09:21:29.424Z</time>
      </trkpt>
      <trkpt lat="43.72438" lon="1.4684">
        <ele>160.515644</ele>
        <time>2023-09-17T09:21:29.424Z</time>
      </trkpt>
      <trkpt lat="43.72446" lon="1.46838">
        <ele>160.443871</ele>
        <time>2023-09-17T09:21:30.424Z</time>
      </trkpt>
      <trkpt lat="43.72446" lon="1.46838">
        <ele>160.443871</ele>
        <time>2023-09-17T09:21:30.424Z</time>
      </trkpt>
      <trkpt lat="43.72454" lon="1.46836">
        <ele>160.369949</ele>
        <time>2023-09-17T09:21:31.424Z</time>
      </trkpt>
      <trkpt lat="43.72463" lon="1.46835">
        <ele>160.289014</ele>
        <time>2023-09-17T09:21:32.424Z</time>
      </trkpt>
      <trkpt lat="43.72463" lon="1.46835">
        <ele>160.289014</ele>
        <time>2023-09-17T09:21:32.424Z</time>
      </trkpt>
      <trkpt lat="43.72472" lon="1.46834">
        <ele>160.205697</ele>
        <time>2023-09-17T09:21:33.424Z</time>
      </trkpt>
      <trkpt lat="43.72481" lon="1.46834">
        <ele>160.058923</ele>
        <time>2023-09-17T09:21:34.424Z</time>
      </trkpt>
      <trkpt lat="43.72481" lon="1.46834">
        <ele>160.058923</ele>
        <time>2023-09-17T09:21:34.424Z</time>
      </trkpt>
      <trkpt lat="43.7249" lon="1.46835">
        <ele>159.878588</ele>
        <time>2023-09-17T09:21:35.424Z</time>
      </trkpt>
      <trkpt lat="43.7249" lon="1.46835">
        <ele>159.878588</ele>
        <time>2023-09-17T09:21:35.424Z</time>
      </trkpt>
      <trkpt lat="43.72497" lon="1.46836">
        <ele>159.726617</ele>
        <time>2023-09-17T09:21:36.424Z</time>
      </trkpt>
      <trkpt lat="43.72497" lon="1.46836">
        <ele>159.726617</ele>
        <time>2023-09-17T09:21:36.424Z</time>
      </trkpt>
      <trkpt lat="43.72504" lon="1.46837">
        <ele>159.567971</ele>
        <time>2023-09-17T09:21:37.424Z</time>
      </trkpt>
      <trkpt lat="43.72504" lon="1.46837">
        <ele>159.567971</ele>
        <time>2023-09-17T09:21:37.424Z</time>
      </trkpt>
      <trkpt lat="43.72512" lon="1.46839">
        <ele>159.406192</ele>
        <time>2023-09-17T09:21:38.424Z</time>
      </trkpt>
      <trkpt lat="43.72512" lon="1.46839">
        <ele>159.406192</ele>
        <time>2023-09-17T09:21:38.424Z</time>
      </trkpt>
      <trkpt lat="43.7252" lon="1.46841">
        <ele>159.236919</ele>
        <time>2023-09-17T09:21:39.424Z</time>
      </trkpt>
      <trkpt lat="43.7252" lon="1.46841">
        <ele>159.236919</ele>
        <time>2023-09-17T09:21:39.424Z</time>
      </trkpt>
      <trkpt lat="43.72527" lon="1.46844">
        <ele>159.090767</ele>
        <time>2023-09-17T09:21:40.424Z</time>
      </trkpt>
      <trkpt lat="43.72527" lon="1.46844">
        <ele>159.090767</ele>
        <time>2023-09-17T09:21:40.424Z</time>
      </trkpt>
      <trkpt lat="43.72535" lon="1.46846">
        <ele>158.925832</ele>
        <time>2023-09-17T09:21:41.424Z</time>
      </trkpt>
      <trkpt lat="43.72535" lon="1.46846">
        <ele>158.925832</ele>
        <time>2023-09-17T09:21:41.424Z</time>
      </trkpt>
      <trkpt lat="43.72542" lon="1.4685">
        <ele>158.761687</ele>
        <time>2023-09-17T09:21:42.424Z</time>
      </trkpt>
      <trkpt lat="43.72542" lon="1.4685">
        <ele>158.761687</ele>
        <time>2023-09-17T09:21:42.424Z</time>
      </trkpt>
      <trkpt lat="43.72549" lon="1.46853">
        <ele>158.611852</ele>
        <time>2023-09-17T09:21:43.424Z</time>
      </trkpt>
      <trkpt lat="43.72549" lon="1.46853">
        <ele>158.611852</ele>
        <time>2023-09-17T09:21:43.424Z</time>
      </trkpt>
      <trkpt lat="43.72555" lon="1.46855">
        <ele>158.486547</ele>
        <time>2023-09-17T09:21:43.424Z</time>
      </trkpt>
      <trkpt lat="43.72555" lon="1.46855">
        <ele>158.486547</ele>
        <time>2023-09-17T09:21:43.424Z</time>
      </trkpt>
      <trkpt lat="43.7256" lon="1.46859">
        <ele>158.366752</ele>
        <time>2023-09-17T09:21:44.424Z</time>
      </trkpt>
      <trkpt lat="43.7256" lon="1.46859">
        <ele>158.366752</ele>
        <time>2023-09-17T09:21:44.424Z</time>
      </trkpt>
      <trkpt lat="43.72566" lon="1.46863">
        <ele>158.233666</ele>
        <time>2023-09-17T09:21:46.424Z</time>
      </trkpt>
      <trkpt lat="43.72566" lon="1.46863">
        <ele>158.233666</ele>
        <time>2023-09-17T09:21:46.424Z</time>
      </trkpt>
      <trkpt lat="43.72572" lon="1.46867">
        <ele>158.095173</ele>
        <time>2023-09-17T09:21:46.424Z</time>
      </trkpt>
      <trkpt lat="43.72577" lon="1.46872">
        <ele>157.973339</ele>
        <time>2023-09-17T09:21:47.424Z</time>
      </trkpt>
      <trkpt lat="43.72577" lon="1.46872">
        <ele>157.973339</ele>
        <time>2023-09-17T09:21:47.424Z</time>
      </trkpt>
      <trkpt lat="43.72583" lon="1.46878">
        <ele>157.819158</ele>
        <time>2023-09-17T09:21:49.424Z</time>
      </trkpt>
      <trkpt lat="43.72583" lon="1.46878">
        <ele>157.819158</ele>
        <time>2023-09-17T09:21:49.424Z</time>
      </trkpt>
      <trkpt lat="43.72589" lon="1.46885">
        <ele>157.655938</ele>
        <time>2023-09-17T09:21:50.424Z</time>
      </trkpt>
      <trkpt lat="43.72594" lon="1.4689">
        <ele>157.514323</ele>
        <time>2023-09-17T09:21:51.424Z</time>
      </trkpt>
      <trkpt lat="43.726" lon="1.46897">
        <ele>157.362255</ele>
        <time>2023-09-17T09:21:52.424Z</time>
      </trkpt>
      <trkpt lat="43.726" lon="1.46897">
        <ele>157.362255</ele>
        <time>2023-09-17T09:21:52.424Z</time>
      </trkpt>
      <trkpt lat="43.72606" lon="1.46904">
        <ele>157.189768</ele>
        <time>2023-09-17T09:21:53.424Z</time>
      </trkpt>
      <trkpt lat="43.72606" lon="1.46904">
        <ele>157.189768</ele>
        <time>2023-09-17T09:21:53.424Z</time>
      </trkpt>
      <trkpt lat="43.72612" lon="1.46911">
        <ele>157.026548</ele>
        <time>2023-09-17T09:21:54.424Z</time>
      </trkpt>
      <trkpt lat="43.72619" lon="1.46917">
        <ele>156.867051</ele>
        <time>2023-09-17T09:21:55.424Z</time>
      </trkpt>
      <trkpt lat="43.72625" lon="1.46923">
        <ele>156.712007</ele>
        <time>2023-09-17T09:21:56.424Z</time>
      </trkpt>
      <trkpt lat="43.7263" lon="1.46929">
        <ele>156.564542</ele>
        <time>2023-09-17T09:21:57.424Z</time>
      </trkpt>
      <trkpt lat="43.7263" lon="1.46929">
        <ele>156.564542</ele>
        <time>2023-09-17T09:21:57.424Z</time>
      </trkpt>
      <trkpt lat="43.72637" lon="1.46936">
        <ele>156.383782</ele>
        <time>2023-09-17T09:21:58.424Z</time>
      </trkpt>
      <trkpt lat="43.72637" lon="1.46936">
        <ele>156.383782</ele>
        <time>2023-09-17T09:21:58.424Z</time>
      </trkpt>
      <trkpt lat="43.72643" lon="1.46942">
        <ele>156.177207</ele>
        <time>2023-09-17T09:21:59.424Z</time>
      </trkpt>
      <trkpt lat="43.72643" lon="1.46942">
        <ele>156.177207</ele>
        <time>2023-09-17T09:21:59.424Z</time>
      </trkpt>
      <trkpt lat="43.72649" lon="1.46947">
        <ele>155.983175</ele>
        <time>2023-09-17T09:22:00.424Z</time>
      </trkpt>
      <trkpt lat="43.72649" lon="1.46947">
        <ele>155.983175</ele>
        <time>2023-09-17T09:22:00.424Z</time>
      </trkpt>
      <trkpt lat="43.72654" lon="1.46953">
        <ele>155.786792</ele>
        <time>2023-09-17T09:22:01.424Z</time>
      </trkpt>
      <trkpt lat="43.72654" lon="1.46953">
        <ele>155.786792</ele>
        <time>2023-09-17T09:22:01.424Z</time>
      </trkpt>
      <trkpt lat="43.7266" lon="1.46959">
        <ele>155.576712</ele>
        <time>2023-09-17T09:22:02.424Z</time>
      </trkpt>
      <trkpt lat="43.72667" lon="1.46966">
        <ele>155.339237</ele>
        <time>2023-09-17T09:22:03.424Z</time>
      </trkpt>
      <trkpt lat="43.72667" lon="1.46966">
        <ele>155.339237</ele>
        <time>2023-09-17T09:22:03.424Z</time>
      </trkpt>
      <trkpt lat="43.72673" lon="1.46972">
        <ele>155.137998</ele>
        <time>2023-09-17T09:22:04.424Z</time>
      </trkpt>
      <trkpt lat="43.72673" lon="1.46972">
        <ele>155.137998</ele>
        <time>2023-09-17T09:22:04.424Z</time>
      </trkpt>
      <trkpt lat="43.7268" lon="1.46979">
        <ele>154.913028</ele>
        <time>2023-09-17T09:22:05.424Z</time>
      </trkpt>
      <trkpt lat="43.7268" lon="1.46979">
        <ele>154.913028</ele>
        <time>2023-09-17T09:22:05.424Z</time>
      </trkpt>
      <trkpt lat="43.72686" lon="1.46986">
        <ele>154.684412</ele>
        <time>2023-09-17T09:22:06.424Z</time>
      </trkpt>
      <trkpt lat="43.72686" lon="1.46986">
        <ele>154.684412</ele>
        <time>2023-09-17T09:22:06.424Z</time>
      </trkpt>
      <trkpt lat="43.72693" lon="1.46993">
        <ele>154.459442</ele>
        <time>2023-09-17T09:22:06.424Z</time>
      </trkpt>
      <trkpt lat="43.72693" lon="1.46993">
        <ele>154.459442</ele>
        <time>2023-09-17T09:22:06.424Z</time>
      </trkpt>
      <trkpt lat="43.72699" lon="1.46999">
        <ele>154.236845</ele>
        <time>2023-09-17T09:22:08.424Z</time>
      </trkpt>
      <trkpt lat="43.72699" lon="1.46999">
        <ele>154.236845</ele>
        <time>2023-09-17T09:22:08.424Z</time>
      </trkpt>
      <trkpt lat="43.72705" lon="1.47006">
        <ele>154.024366</ele>
        <time>2023-09-17T09:22:09.424Z</time>
      </trkpt>
      <trkpt lat="43.72705" lon="1.47006">
        <ele>154.024366</ele>
        <time>2023-09-17T09:22:09.424Z</time>
      </trkpt>
      <trkpt lat="43.72711" lon="1.47012">
        <ele>153.81067</ele>
        <time>2023-09-17T09:22:09.424Z</time>
      </trkpt>
      <trkpt lat="43.72711" lon="1.47012">
        <ele>153.81067</ele>
        <time>2023-09-17T09:22:09.424Z</time>
      </trkpt>
      <trkpt lat="43.72718" lon="1.47019">
        <ele>153.589242</ele>
        <time>2023-09-17T09:22:10.424Z</time>
      </trkpt>
      <trkpt lat="43.72718" lon="1.47019">
        <ele>153.589242</ele>
        <time>2023-09-17T09:22:10.424Z</time>
      </trkpt>
      <trkpt lat="43.72725" lon="1.47026">
        <ele>153.339102</ele>
        <time>2023-09-17T09:22:11.424Z</time>
      </trkpt>
      <trkpt lat="43.72725" lon="1.47026">
        <ele>153.339102</ele>
        <time>2023-09-17T09:22:11.424Z</time>
      </trkpt>
      <trkpt lat="43.72731" lon="1.47033">
        <ele>153.115325</ele>
        <time>2023-09-17T09:22:12.424Z</time>
      </trkpt>
      <trkpt lat="43.72731" lon="1.47033">
        <ele>153.115325</ele>
        <time>2023-09-17T09:22:12.424Z</time>
      </trkpt>
      <trkpt lat="43.72738" lon="1.47039">
        <ele>152.891548</ele>
        <time>2023-09-17T09:22:14.424Z</time>
      </trkpt>
      <trkpt lat="43.72738" lon="1.47039">
        <ele>152.891548</ele>
        <time>2023-09-17T09:22:14.424Z</time>
      </trkpt>
      <trkpt lat="43.72744" lon="1.47046">
        <ele>152.66416</ele>
        <time>2023-09-17T09:22:15.424Z</time>
      </trkpt>
      <trkpt lat="43.72744" lon="1.47046">
        <ele>152.66416</ele>
        <time>2023-09-17T09:22:15.424Z</time>
      </trkpt>
      <trkpt lat="43.72751" lon="1.47053">
        <ele>152.436771</ele>
        <time>2023-09-17T09:22:15.424Z</time>
      </trkpt>
      <trkpt lat="43.72751" lon="1.47053">
        <ele>152.436771</ele>
        <time>2023-09-17T09:22:15.424Z</time>
      </trkpt>
      <trkpt lat="43.72757" lon="1.4706">
        <ele>152.212806</ele>
        <time>2023-09-17T09:22:16.424Z</time>
      </trkpt>
      <trkpt lat="43.72757" lon="1.4706">
        <ele>152.212806</ele>
        <time>2023-09-17T09:22:16.424Z</time>
      </trkpt>
      <trkpt lat="43.72764" lon="1.47067">
        <ele>151.986633</ele>
        <time>2023-09-17T09:22:17.424Z</time>
      </trkpt>
      <trkpt lat="43.72764" lon="1.47067">
        <ele>151.986633</ele>
        <time>2023-09-17T09:22:17.424Z</time>
      </trkpt>
      <trkpt lat="43.72771" lon="1.47074">
        <ele>151.740117</ele>
        <time>2023-09-17T09:22:18.424Z</time>
      </trkpt>
      <trkpt lat="43.72771" lon="1.47074">
        <ele>151.740117</ele>
        <time>2023-09-17T09:22:18.424Z</time>
      </trkpt>
      <trkpt lat="43.72778" lon="1.4708">
        <ele>151.523243</ele>
        <time>2023-09-17T09:22:19.424Z</time>
      </trkpt>
      <trkpt lat="43.72778" lon="1.4708">
        <ele>151.523243</ele>
        <time>2023-09-17T09:22:19.424Z</time>
      </trkpt>
      <trkpt lat="43.72784" lon="1.47086">
        <ele>151.419592</ele>
        <time>2023-09-17T09:22:20.424Z</time>
      </trkpt>
      <trkpt lat="43.72784" lon="1.47086">
        <ele>151.419592</ele>
        <time>2023-09-17T09:22:20.424Z</time>
      </trkpt>
      <trkpt lat="43.72791" lon="1.47093">
        <ele>151.367403</ele>
        <time>2023-09-17T09:22:21.424Z</time>
      </trkpt>
      <trkpt lat="43.72791" lon="1.47093">
        <ele>151.367403</ele>
        <time>2023-09-17T09:22:21.424Z</time>
      </trkpt>
      <trkpt lat="43.72797" lon="1.47099">
        <ele>151.317487</ele>
        <time>2023-09-17T09:22:22.424Z</time>
      </trkpt>
      <trkpt lat="43.72797" lon="1.47099">
        <ele>151.317487</ele>
        <time>2023-09-17T09:22:22.424Z</time>
      </trkpt>
      <trkpt lat="43.72804" lon="1.47106">
        <ele>151.270361</ele>
        <time>2023-09-17T09:22:24.424Z</time>
      </trkpt>
      <trkpt lat="43.72804" lon="1.47106">
        <ele>151.270361</ele>
        <time>2023-09-17T09:22:24.424Z</time>
      </trkpt>
      <trkpt lat="43.72809" lon="1.47112">
        <ele>151.225748</ele>
        <time>2023-09-17T09:22:24.424Z</time>
      </trkpt>
      <trkpt lat="43.72809" lon="1.47112">
        <ele>151.225748</ele>
        <time>2023-09-17T09:22:24.424Z</time>
      </trkpt>
      <trkpt lat="43.72815" lon="1.47118">
        <ele>151.181676</ele>
        <time>2023-09-17T09:22:26.424Z</time>
      </trkpt>
      <trkpt lat="43.72815" lon="1.47118">
        <ele>151.181676</ele>
        <time>2023-09-17T09:22:26.424Z</time>
      </trkpt>
      <trkpt lat="43.72821" lon="1.47123">
        <ele>151.137371</ele>
        <time>2023-09-17T09:22:27.424Z</time>
      </trkpt>
      <trkpt lat="43.72821" lon="1.47123">
        <ele>151.137371</ele>
        <time>2023-09-17T09:22:27.424Z</time>
      </trkpt>
      <trkpt lat="43.72827" lon="1.4713">
        <ele>151.089704</ele>
        <time>2023-09-17T09:22:28.424Z</time>
      </trkpt>
      <trkpt lat="43.72827" lon="1.4713">
        <ele>151.089704</ele>
        <time>2023-09-17T09:22:28.424Z</time>
      </trkpt>
      <trkpt lat="43.72833" lon="1.47136">
        <ele>151.045633</ele>
        <time>2023-09-17T09:22:28.424Z</time>
      </trkpt>
      <trkpt lat="43.72833" lon="1.47136">
        <ele>151.045633</ele>
        <time>2023-09-17T09:22:28.424Z</time>
      </trkpt>
      <trkpt lat="43.72839" lon="1.47142">
        <ele>150.999554</ele>
        <time>2023-09-17T09:22:30.424Z</time>
      </trkpt>
      <trkpt lat="43.72839" lon="1.47142">
        <ele>150.999554</ele>
        <time>2023-09-17T09:22:30.424Z</time>
      </trkpt>
      <trkpt lat="43.72845" lon="1.47148">
        <ele>150.950421</ele>
        <time>2023-09-17T09:22:31.424Z</time>
      </trkpt>
      <trkpt lat="43.72851" lon="1.47154">
        <ele>150.903294</ele>
        <time>2023-09-17T09:22:32.424Z</time>
      </trkpt>
      <trkpt lat="43.72857" lon="1.4716">
        <ele>150.85949</ele>
        <time>2023-09-17T09:22:33.424Z</time>
      </trkpt>
      <trkpt lat="43.72863" lon="1.47166">
        <ele>150.816209</ele>
        <time>2023-09-17T09:22:34.424Z</time>
      </trkpt>
      <trkpt lat="43.72863" lon="1.47166">
        <ele>150.816209</ele>
        <time>2023-09-17T09:22:34.424Z</time>
      </trkpt>
      <trkpt lat="43.72868" lon="1.47171">
        <ele>150.775477</ele>
        <time>2023-09-17T09:22:35.424Z</time>
      </trkpt>
      <trkpt lat="43.72873" lon="1.47175">
        <ele>150.738817</ele>
        <time>2023-09-17T09:22:36.424Z</time>
      </trkpt>
      <trkpt lat="43.72878" lon="1.4718">
        <ele>150.702603</ele>
        <time>2023-09-17T09:22:37.424Z</time>
      </trkpt>
      <trkpt lat="43.72883" lon="1.47183">
        <ele>150.668254</ele>
        <time>2023-09-17T09:22:37.424Z</time>
      </trkpt>
      <trkpt lat="43.72889" lon="1.47187">
        <ele>150.628132</ele>
        <time>2023-09-17T09:22:39.424Z</time>
      </trkpt>
      <trkpt lat="43.72895" lon="1.47191">
        <ele>150.587246</ele>
        <time>2023-09-17T09:22:40.424Z</time>
      </trkpt>
      <trkpt lat="43.72901" lon="1.47194">
        <ele>150.546695</ele>
        <time>2023-09-17T09:22:41.424Z</time>
      </trkpt>
      <trkpt lat="43.72907" lon="1.47198">
        <ele>150.503511</ele>
        <time>2023-09-17T09:22:42.424Z</time>
      </trkpt>
      <trkpt lat="43.72914" lon="1.47201">
        <ele>150.459184</ele>
        <time>2023-09-17T09:22:43.424Z</time>
      </trkpt>
      <trkpt lat="43.72914" lon="1.47201">
        <ele>150.459184</ele>
        <time>2023-09-17T09:22:43.424Z</time>
      </trkpt>
      <trkpt lat="43.7292" lon="1.47203">
        <ele>150.422546</ele>
        <time>2023-09-17T09:22:44.424Z</time>
      </trkpt>
      <trkpt lat="43.72925" lon="1.47204">
        <ele>150.390961</ele>
        <time>2023-09-17T09:22:45.424Z</time>
      </trkpt>
      <trkpt lat="43.7293" lon="1.47205">
        <ele>150.359682</ele>
        <time>2023-09-17T09:22:46.424Z</time>
      </trkpt>
      <trkpt lat="43.72935" lon="1.47206">
        <ele>150.377945</ele>
        <time>2023-09-17T09:22:47.424Z</time>
      </trkpt>
      <trkpt lat="43.7294" lon="1.47207">
        <ele>150.513113</ele>
        <time>2023-09-17T09:22:48.424Z</time>
      </trkpt>
      <trkpt lat="43.7294" lon="1.47207">
        <ele>150.513113</ele>
        <time>2023-09-17T09:22:48.424Z</time>
      </trkpt>
      <trkpt lat="43.72944" lon="1.47208">
        <ele>150.618363</ele>
        <time>2023-09-17T09:22:49.424Z</time>
      </trkpt>
      <trkpt lat="43.7295" lon="1.47209">
        <ele>150.750598</ele>
        <time>2023-09-17T09:22:50.424Z</time>
      </trkpt>
      <trkpt lat="43.7295" lon="1.47209">
        <ele>150.750598</ele>
        <time>2023-09-17T09:22:50.424Z</time>
      </trkpt>
      <trkpt lat="43.72954" lon="1.4721">
        <ele>150.865019</ele>
        <time>2023-09-17T09:22:51.424Z</time>
      </trkpt>
      <trkpt lat="43.72954" lon="1.4721">
        <ele>150.865019</ele>
        <time>2023-09-17T09:22:51.424Z</time>
      </trkpt>
      <trkpt lat="43.7296" lon="1.4721">
        <ele>150.996708</ele>
        <time>2023-09-17T09:22:52.424Z</time>
      </trkpt>
      <trkpt lat="43.7296" lon="1.4721">
        <ele>150.996708</ele>
        <time>2023-09-17T09:22:52.424Z</time>
      </trkpt>
      <trkpt lat="43.72964" lon="1.47211">
        <ele>151.110751</ele>
        <time>2023-09-17T09:22:53.424Z</time>
      </trkpt>
      <trkpt lat="43.72964" lon="1.47211">
        <ele>151.110751</ele>
        <time>2023-09-17T09:22:53.424Z</time>
      </trkpt>
      <trkpt lat="43.72969" lon="1.47211">
        <ele>151.22468</ele>
        <time>2023-09-17T09:22:54.424Z</time>
      </trkpt>
      <trkpt lat="43.72969" lon="1.47211">
        <ele>151.22468</ele>
        <time>2023-09-17T09:22:54.424Z</time>
      </trkpt>
      <trkpt lat="43.72973" lon="1.47209">
        <ele>151.320822</ele>
        <time>2023-09-17T09:22:55.424Z</time>
      </trkpt>
      <trkpt lat="43.72973" lon="1.47209">
        <ele>151.320822</ele>
        <time>2023-09-17T09:22:55.424Z</time>
      </trkpt>
      <trkpt lat="43.72975" lon="1.47207">
        <ele>151.393248</ele>
        <time>2023-09-17T09:22:56.424Z</time>
      </trkpt>
      <trkpt lat="43.72975" lon="1.47207">
        <ele>151.393248</ele>
        <time>2023-09-17T09:22:56.424Z</time>
      </trkpt>
      <trkpt lat="43.72976" lon="1.47204">
        <ele>151.447163</ele>
        <time>2023-09-17T09:22:57.424Z</time>
      </trkpt>
      <trkpt lat="43.72976" lon="1.47204">
        <ele>151.447163</ele>
        <time>2023-09-17T09:22:57.424Z</time>
      </trkpt>
      <trkpt lat="43.72978" lon="1.47201">
        <ele>151.526938</ele>
        <time>2023-09-17T09:22:58.424Z</time>
      </trkpt>
      <trkpt lat="43.72978" lon="1.47201">
        <ele>151.526938</ele>
        <time>2023-09-17T09:22:58.424Z</time>
      </trkpt>
      <trkpt lat="43.72979" lon="1.47197">
        <ele>151.597884</ele>
        <time>2023-09-17T09:22:59.424Z</time>
      </trkpt>
      <trkpt lat="43.72979" lon="1.47197">
        <ele>151.597884</ele>
        <time>2023-09-17T09:22:59.424Z</time>
      </trkpt>
      <trkpt lat="43.7298" lon="1.47195">
        <ele>151.634463</ele>
        <time>2023-09-17T09:23:00.424Z</time>
      </trkpt>
      <trkpt lat="43.7298" lon="1.47195">
        <ele>151.634463</ele>
        <time>2023-09-17T09:23:00.424Z</time>
      </trkpt>
      <trkpt lat="43.72979" lon="1.47192">
        <ele>151.699311</ele>
        <time>2023-09-17T09:23:01.424Z</time>
      </trkpt>
      <trkpt lat="43.72979" lon="1.47192">
        <ele>151.699311</ele>
        <time>2023-09-17T09:23:01.424Z</time>
      </trkpt>
      <trkpt lat="43.72977" lon="1.47187">
        <ele>151.795046</ele>
        <time>2023-09-17T09:23:02.424Z</time>
      </trkpt>
      <trkpt lat="43.72977" lon="1.47187">
        <ele>151.795046</ele>
        <time>2023-09-17T09:23:02.424Z</time>
      </trkpt>
      <trkpt lat="43.72973" lon="1.47183">
        <ele>151.918902</ele>
        <time>2023-09-17T09:23:04.424Z</time>
      </trkpt>
      <trkpt lat="43.72973" lon="1.47183">
        <ele>151.918902</ele>
        <time>2023-09-17T09:23:04.424Z</time>
      </trkpt>
      <trkpt lat="43.72969" lon="1.47179">
        <ele>152.034014</ele>
        <time>2023-09-17T09:23:05.424Z</time>
      </trkpt>
      <trkpt lat="43.72969" lon="1.47179">
        <ele>152.034014</ele>
        <time>2023-09-17T09:23:05.424Z</time>
      </trkpt>
      <trkpt lat="43.72966" lon="1.47175">
        <ele>152.152248</ele>
        <time>2023-09-17T09:23:06.424Z</time>
      </trkpt>
      <trkpt lat="43.72966" lon="1.47175">
        <ele>152.152248</ele>
        <time>2023-09-17T09:23:06.424Z</time>
      </trkpt>
      <trkpt lat="43.72962" lon="1.47172">
        <ele>152.26835</ele>
        <time>2023-09-17T09:23:06.424Z</time>
      </trkpt>
      <trkpt lat="43.72962" lon="1.47172">
        <ele>152.26835</ele>
        <time>2023-09-17T09:23:06.424Z</time>
      </trkpt>
      <trkpt lat="43.72958" lon="1.47168">
        <ele>152.384452</ele>
        <time>2023-09-17T09:23:08.424Z</time>
      </trkpt>
      <trkpt lat="43.72953" lon="1.47162">
        <ele>152.543745</ele>
        <time>2023-09-17T09:23:09.424Z</time>
      </trkpt>
      <trkpt lat="43.72946" lon="1.47155">
        <ele>152.761332</ele>
        <time>2023-09-17T09:23:10.424Z</time>
      </trkpt>
      <trkpt lat="43.72944" lon="1.47151">
        <ele>152.841108</ele>
        <time>2023-09-17T09:23:11.424Z</time>
      </trkpt>
      <trkpt lat="43.72944" lon="1.47151">
        <ele>152.841108</ele>
        <time>2023-09-17T09:23:11.424Z</time>
      </trkpt>
      <trkpt lat="43.72943" lon="1.47147">
        <ele>152.922922</ele>
        <time>2023-09-17T09:23:14.424Z</time>
      </trkpt>
      <trkpt lat="43.72942" lon="1.47144">
        <ele>152.983123</ele>
        <time>2023-09-17T09:23:15.424Z</time>
      </trkpt>
      <trkpt lat="43.72942" lon="1.47144">
        <ele>152.983123</ele>
        <time>2023-09-17T09:23:15.424Z</time>
      </trkpt>
      <trkpt lat="43.72942" lon="1.47143">
        <ele>153.008655</ele>
        <time>2023-09-17T09:23:16.424Z</time>
      </trkpt>
      <trkpt lat="43.72946" lon="1.47142">
        <ele>153.095549</ele>
        <time>2023-09-17T09:23:17.424Z</time>
      </trkpt>
      <trkpt lat="43.72946" lon="1.47142">
        <ele>153.095549</ele>
        <time>2023-09-17T09:23:17.424Z</time>
      </trkpt>
      <trkpt lat="43.72949" lon="1.47142">
        <ele>153.169842</ele>
        <time>2023-09-17T09:23:18.424Z</time>
      </trkpt>
      <trkpt lat="43.72953" lon="1.47142">
        <ele>153.267018</ele>
        <time>2023-09-17T09:23:19.424Z</time>
      </trkpt>
      <trkpt lat="43.72953" lon="1.47142">
        <ele>153.267018</ele>
        <time>2023-09-17T09:23:19.424Z</time>
      </trkpt>
      <trkpt lat="43.72957" lon="1.47143">
        <ele>153.37178</ele>
        <time>2023-09-17T09:23:20.424Z</time>
      </trkpt>
      <trkpt lat="43.7296" lon="1.47144">
        <ele>153.437374</ele>
        <time>2023-09-17T09:23:22.424Z</time>
      </trkpt>
      <trkpt lat="43.72966" lon="1.47146">
        <ele>153.611598</ele>
        <time>2023-09-17T09:23:23.424Z</time>
      </trkpt>
      <trkpt lat="43.72966" lon="1.47146">
        <ele>153.611598</ele>
        <time>2023-09-17T09:23:23.424Z</time>
      </trkpt>
      <trkpt lat="43.72971" lon="1.47148">
        <ele>153.737145</ele>
        <time>2023-09-17T09:23:24.424Z</time>
      </trkpt>
      <trkpt lat="43.72971" lon="1.47148">
        <ele>153.737145</ele>
        <time>2023-09-17T09:23:24.424Z</time>
      </trkpt>
      <trkpt lat="43.72976" lon="1.47149">
        <ele>153.864234</ele>
        <time>2023-09-17T09:23:25.424Z</time>
      </trkpt>
      <trkpt lat="43.72982" lon="1.47151">
        <ele>154.010778</ele>
        <time>2023-09-17T09:23:26.424Z</time>
      </trkpt>
      <trkpt lat="43.72982" lon="1.47151">
        <ele>154.010778</ele>
        <time>2023-09-17T09:23:26.424Z</time>
      </trkpt>
      <trkpt lat="43.72989" lon="1.47154">
        <ele>154.197449</ele>
        <time>2023-09-17T09:23:27.424Z</time>
      </trkpt>
      <trkpt lat="43.72989" lon="1.47154">
        <ele>154.197449</ele>
        <time>2023-09-17T09:23:27.424Z</time>
      </trkpt>
      <trkpt lat="43.72997" lon="1.47157">
        <ele>154.401801</ele>
        <time>2023-09-17T09:23:28.424Z</time>
      </trkpt>
      <trkpt lat="43.72997" lon="1.47157">
        <ele>154.401801</ele>
        <time>2023-09-17T09:23:28.424Z</time>
      </trkpt>
      <trkpt lat="43.73005" lon="1.4716">
        <ele>154.606154</ele>
        <time>2023-09-17T09:23:29.424Z</time>
      </trkpt>
      <trkpt lat="43.7301" lon="1.4716">
        <ele>154.730182</ele>
        <time>2023-09-17T09:23:30.424Z</time>
      </trkpt>
      <trkpt lat="43.7301" lon="1.4716">
        <ele>154.730182</ele>
        <time>2023-09-17T09:23:30.424Z</time>
      </trkpt>
      <trkpt lat="43.73016" lon="1.47156">
        <ele>154.817957</ele>
        <time>2023-09-17T09:23:31.424Z</time>
      </trkpt>
      <trkpt lat="43.73016" lon="1.47156">
        <ele>154.817957</ele>
        <time>2023-09-17T09:23:31.424Z</time>
      </trkpt>
      <trkpt lat="43.73017" lon="1.47154">
        <ele>154.830888</ele>
        <time>2023-09-17T09:23:32.424Z</time>
      </trkpt>
      <trkpt lat="43.73018" lon="1.4715">
        <ele>154.850483</ele>
        <time>2023-09-17T09:23:34.424Z</time>
      </trkpt>
      <trkpt lat="43.73018" lon="1.4715">
        <ele>154.850483</ele>
        <time>2023-09-17T09:23:34.424Z</time>
      </trkpt>
      <trkpt lat="43.73019" lon="1.47145">
        <ele>154.874152</ele>
        <time>2023-09-17T09:23:35.424Z</time>
      </trkpt>
      <trkpt lat="43.7302" lon="1.47137">
        <ele>154.913643</ele>
        <time>2023-09-17T09:23:37.424Z</time>
      </trkpt>
      <trkpt lat="43.73022" lon="1.47126">
        <ele>154.972549</ele>
        <time>2023-09-17T09:23:37.424Z</time>
      </trkpt>
      <trkpt lat="43.73022" lon="1.47126">
        <ele>154.972549</ele>
        <time>2023-09-17T09:23:37.424Z</time>
      </trkpt>
      <trkpt lat="43.73024" lon="1.47118">
        <ele>155.010157</ele>
        <time>2023-09-17T09:23:38.424Z</time>
      </trkpt>
      <trkpt lat="43.73027" lon="1.47112">
        <ele>155.044733</ele>
        <time>2023-09-17T09:23:39.424Z</time>
      </trkpt>
      <trkpt lat="43.73031" lon="1.47104">
        <ele>155.091006</ele>
        <time>2023-09-17T09:23:40.424Z</time>
      </trkpt>
      <trkpt lat="43.73035" lon="1.47097">
        <ele>155.136869</ele>
        <time>2023-09-17T09:23:41.424Z</time>
      </trkpt>
      <trkpt lat="43.73038" lon="1.47092">
        <ele>155.16941</ele>
        <time>2023-09-17T09:23:42.424Z</time>
      </trkpt>
      <trkpt lat="43.73041" lon="1.47086">
        <ele>155.205061</ele>
        <time>2023-09-17T09:23:43.424Z</time>
      </trkpt>
      <trkpt lat="43.73043" lon="1.4708">
        <ele>155.236023</ele>
        <time>2023-09-17T09:23:44.424Z</time>
      </trkpt>
      <trkpt lat="43.73044" lon="1.47073">
        <ele>155.270445</ele>
        <time>2023-09-17T09:23:45.424Z</time>
      </trkpt>
      <trkpt lat="43.73043" lon="1.47066">
        <ele>155.305559</ele>
        <time>2023-09-17T09:23:46.424Z</time>
      </trkpt>
      <trkpt lat="43.73042" lon="1.47061">
        <ele>155.329369</ele>
        <time>2023-09-17T09:23:48.424Z</time>
      </trkpt>
      <trkpt lat="43.73041" lon="1.47055">
        <ele>155.360696</ele>
        <time>2023-09-17T09:23:49.424Z</time>
      </trkpt>
      <trkpt lat="43.73041" lon="1.47055">
        <ele>155.360696</ele>
        <time>2023-09-17T09:23:49.424Z</time>
      </trkpt>
      <trkpt lat="43.73041" lon="1.47049">
        <ele>155.389819</ele>
        <time>2023-09-17T09:23:50.424Z</time>
      </trkpt>
      <trkpt lat="43.73041" lon="1.47044">
        <ele>155.411086</ele>
        <time>2023-09-17T09:23:51.424Z</time>
      </trkpt>
      <trkpt lat="43.73042" lon="1.47041">
        <ele>155.428639</ele>
        <time>2023-09-17T09:23:53.424Z</time>
      </trkpt>
      <trkpt lat="43.73042" lon="1.47041">
        <ele>155.428639</ele>
        <time>2023-09-17T09:23:53.424Z</time>
      </trkpt>
      <trkpt lat="43.73042" lon="1.47037">
        <ele>155.446844</ele>
        <time>2023-09-17T09:23:54.424Z</time>
      </trkpt>
      <trkpt lat="43.73043" lon="1.47035">
        <ele>155.461397</ele>
        <time>2023-09-17T09:23:55.424Z</time>
      </trkpt>
      <trkpt lat="43.73043" lon="1.47035">
        <ele>155.461397</ele>
        <time>2023-09-17T09:23:55.424Z</time>
      </trkpt>
      <trkpt lat="43.73044" lon="1.47033">
        <ele>155.471705</ele>
        <time>2023-09-17T09:23:56.424Z</time>
      </trkpt>
      <trkpt lat="43.73044" lon="1.47033">
        <ele>155.471705</ele>
        <time>2023-09-17T09:23:56.424Z</time>
      </trkpt>
      <trkpt lat="43.73045" lon="1.47029">
        <ele>155.488529</ele>
        <time>2023-09-17T09:23:57.424Z</time>
      </trkpt>
      <trkpt lat="43.73045" lon="1.47029">
        <ele>155.488529</ele>
        <time>2023-09-17T09:23:57.424Z</time>
      </trkpt>
      <trkpt lat="43.73045" lon="1.47026">
        <ele>155.505617</ele>
        <time>2023-09-17T09:23:58.424Z</time>
      </trkpt>
      <trkpt lat="43.73045" lon="1.47022">
        <ele>155.525434</ele>
        <time>2023-09-17T09:23:59.424Z</time>
      </trkpt>
      <trkpt lat="43.73045" lon="1.47019">
        <ele>155.538968</ele>
        <time>2023-09-17T09:24:00.424Z</time>
      </trkpt>
      <trkpt lat="43.73046" lon="1.47015">
        <ele>155.559444</ele>
        <time>2023-09-17T09:24:02.424Z</time>
      </trkpt>
      <trkpt lat="43.73046" lon="1.47015">
        <ele>155.559444</ele>
        <time>2023-09-17T09:24:02.424Z</time>
      </trkpt>
      <trkpt lat="43.73046" lon="1.4701">
        <ele>155.581358</ele>
        <time>2023-09-17T09:24:03.424Z</time>
      </trkpt>
      <trkpt lat="43.73047" lon="1.47004">
        <ele>155.611323</ele>
        <time>2023-09-17T09:24:05.424Z</time>
      </trkpt>
      <trkpt lat="43.73047" lon="1.47004">
        <ele>155.611323</ele>
        <time>2023-09-17T09:24:05.424Z</time>
      </trkpt>
      <trkpt lat="43.73048" lon="1.46998">
        <ele>155.642181</ele>
        <time>2023-09-17T09:24:06.424Z</time>
      </trkpt>
      <trkpt lat="43.7305" lon="1.46991">
        <ele>155.681116</ele>
        <time>2023-09-17T09:24:07.424Z</time>
      </trkpt>
      <trkpt lat="43.73052" lon="1.46985">
        <ele>155.708628</ele>
        <time>2023-09-17T09:24:07.424Z</time>
      </trkpt>
      <trkpt lat="43.73055" lon="1.46977">
        <ele>155.756335</ele>
        <time>2023-09-17T09:24:09.424Z</time>
      </trkpt>
      <trkpt lat="43.73058" lon="1.46971">
        <ele>155.789164</ele>
        <time>2023-09-17T09:24:10.424Z</time>
      </trkpt>
      <trkpt lat="43.73062" lon="1.46959">
        <ele>155.853226</ele>
        <time>2023-09-17T09:24:12.424Z</time>
      </trkpt>
      <trkpt lat="43.73062" lon="1.46959">
        <ele>155.853226</ele>
        <time>2023-09-17T09:24:12.424Z</time>
      </trkpt>
      <trkpt lat="43.73065" lon="1.46951">
        <ele>155.895029</ele>
        <time>2023-09-17T09:24:13.424Z</time>
      </trkpt>
      <trkpt lat="43.73066" lon="1.46944">
        <ele>155.933575</ele>
        <time>2023-09-17T09:24:14.424Z</time>
      </trkpt>
      <trkpt lat="43.73066" lon="1.46944">
        <ele>155.933575</ele>
        <time>2023-09-17T09:24:14.424Z</time>
      </trkpt>
      <trkpt lat="43.73067" lon="1.4694">
        <ele>155.951658</ele>
        <time>2023-09-17T09:24:16.424Z</time>
      </trkpt>
      <trkpt lat="43.73067" lon="1.4694">
        <ele>155.951658</ele>
        <time>2023-09-17T09:24:16.424Z</time>
      </trkpt>
      <trkpt lat="43.73067" lon="1.46935">
        <ele>155.977414</ele>
        <time>2023-09-17T09:24:17.424Z</time>
      </trkpt>
      <trkpt lat="43.73067" lon="1.46935">
        <ele>155.977414</ele>
        <time>2023-09-17T09:24:17.424Z</time>
      </trkpt>
      <trkpt lat="43.73067" lon="1.4693">
        <ele>155.990938</ele>
        <time>2023-09-17T09:24:18.424Z</time>
      </trkpt>
      <trkpt lat="43.73066" lon="1.46923">
        <ele>155.960282</ele>
        <time>2023-09-17T09:24:20.424Z</time>
      </trkpt>
      <trkpt lat="43.73066" lon="1.46923">
        <ele>155.960282</ele>
        <time>2023-09-17T09:24:20.424Z</time>
      </trkpt>
      <trkpt lat="43.73065" lon="1.46913">
        <ele>155.907247</ele>
        <time>2023-09-17T09:24:21.424Z</time>
      </trkpt>
      <trkpt lat="43.73065" lon="1.46913">
        <ele>155.907247</ele>
        <time>2023-09-17T09:24:21.424Z</time>
      </trkpt>
      <trkpt lat="43.73066" lon="1.46906">
        <ele>155.873591</ele>
        <time>2023-09-17T09:24:22.424Z</time>
      </trkpt>
      <trkpt lat="43.73066" lon="1.46906">
        <ele>155.873591</ele>
        <time>2023-09-17T09:24:22.424Z</time>
      </trkpt>
      <trkpt lat="43.73067" lon="1.469">
        <ele>155.843351</ele>
        <time>2023-09-17T09:24:23.424Z</time>
      </trkpt>
      <trkpt lat="43.73067" lon="1.469">
        <ele>155.843351</ele>
        <time>2023-09-17T09:24:23.424Z</time>
      </trkpt>
      <trkpt lat="43.73069" lon="1.46894">
        <ele>155.811796</ele>
        <time>2023-09-17T09:24:23.424Z</time>
      </trkpt>
      <trkpt lat="43.73076" lon="1.46879">
        <ele>155.723045</ele>
        <time>2023-09-17T09:24:26.424Z</time>
      </trkpt>
      <trkpt lat="43.73076" lon="1.46879">
        <ele>155.723045</ele>
        <time>2023-09-17T09:24:26.424Z</time>
      </trkpt>
      <trkpt lat="43.73079" lon="1.46874">
        <ele>155.692952</ele>
        <time>2023-09-17T09:24:27.424Z</time>
      </trkpt>
      <trkpt lat="43.73082" lon="1.46868">
        <ele>155.658836</ele>
        <time>2023-09-17T09:24:29.424Z</time>
      </trkpt>
      <trkpt lat="43.73085" lon="1.46863">
        <ele>155.62565</ele>
        <time>2023-09-17T09:24:30.424Z</time>
      </trkpt>
      <trkpt lat="43.7309" lon="1.46856">
        <ele>155.578937</ele>
        <time>2023-09-17T09:24:31.424Z</time>
      </trkpt>
      <trkpt lat="43.7309" lon="1.46856">
        <ele>155.578937</ele>
        <time>2023-09-17T09:24:31.424Z</time>
      </trkpt>
      <trkpt lat="43.73093" lon="1.46851">
        <ele>155.548052</ele>
        <time>2023-09-17T09:24:32.424Z</time>
      </trkpt>
      <trkpt lat="43.73093" lon="1.46851">
        <ele>155.548052</ele>
        <time>2023-09-17T09:24:32.424Z</time>
      </trkpt>
      <trkpt lat="43.73095" lon="1.46848">
        <ele>155.527511</ele>
        <time>2023-09-17T09:24:34.424Z</time>
      </trkpt>
      <trkpt lat="43.73097" lon="1.46846">
        <ele>155.5091</ele>
        <time>2023-09-17T09:24:34.424Z</time>
      </trkpt>
      <trkpt lat="43.731" lon="1.46842">
        <ele>155.479772</ele>
        <time>2023-09-17T09:24:35.424Z</time>
      </trkpt>
      <trkpt lat="43.731" lon="1.46842">
        <ele>155.479772</ele>
        <time>2023-09-17T09:24:35.424Z</time>
      </trkpt>
      <trkpt lat="43.73103" lon="1.46837">
        <ele>155.449284</ele>
        <time>2023-09-17T09:24:36.424Z</time>
      </trkpt>
      <trkpt lat="43.73103" lon="1.46837">
        <ele>155.449284</ele>
        <time>2023-09-17T09:24:36.424Z</time>
      </trkpt>
      <trkpt lat="43.73107" lon="1.46834">
        <ele>155.420652</ele>
        <time>2023-09-17T09:24:38.424Z</time>
      </trkpt>
      <trkpt lat="43.73107" lon="1.46834">
        <ele>155.420652</ele>
        <time>2023-09-17T09:24:38.424Z</time>
      </trkpt>
      <trkpt lat="43.73111" lon="1.46831">
        <ele>155.385992</ele>
        <time>2023-09-17T09:24:39.424Z</time>
      </trkpt>
      <trkpt lat="43.73111" lon="1.46831">
        <ele>155.385992</ele>
        <time>2023-09-17T09:24:39.424Z</time>
      </trkpt>
      <trkpt lat="43.73116" lon="1.46828">
        <ele>155.354039</ele>
        <time>2023-09-17T09:24:39.424Z</time>
      </trkpt>
      <trkpt lat="43.73116" lon="1.46828">
        <ele>155.354039</ele>
        <time>2023-09-17T09:24:39.424Z</time>
      </trkpt>
      <trkpt lat="43.7312" lon="1.46824">
        <ele>155.321143</ele>
        <time>2023-09-17T09:24:42.424Z</time>
      </trkpt>
      <trkpt lat="43.7312" lon="1.46824">
        <ele>155.321143</ele>
        <time>2023-09-17T09:24:42.424Z</time>
      </trkpt>
      <trkpt lat="43.7312" lon="1.46824">
        <ele>155.317807</ele>
        <time>2023-09-17T09:24:42.424Z</time>
      </trkpt>
      <trkpt lat="43.73128" lon="1.46815">
        <ele>155.246859</ele>
        <time>2023-09-17T09:24:43.424Z</time>
      </trkpt>
      <trkpt lat="43.73128" lon="1.46815">
        <ele>155.246859</ele>
        <time>2023-09-17T09:24:43.424Z</time>
      </trkpt>
      <trkpt lat="43.73133" lon="1.4681">
        <ele>155.207615</ele>
        <time>2023-09-17T09:24:45.424Z</time>
      </trkpt>
      <trkpt lat="43.73137" lon="1.46801">
        <ele>155.153363</ele>
        <time>2023-09-17T09:24:46.424Z</time>
      </trkpt>
      <trkpt lat="43.73137" lon="1.46801">
        <ele>155.153363</ele>
        <time>2023-09-17T09:24:46.424Z</time>
      </trkpt>
      <trkpt lat="43.7314" lon="1.46795">
        <ele>155.11772</ele>
        <time>2023-09-17T09:24:48.424Z</time>
      </trkpt>
      <trkpt lat="43.73143" lon="1.46787">
        <ele>155.073375</ele>
        <time>2023-09-17T09:24:49.424Z</time>
      </trkpt>
      <trkpt lat="43.73143" lon="1.46787">
        <ele>155.073375</ele>
        <time>2023-09-17T09:24:49.424Z</time>
      </trkpt>
      <trkpt lat="43.73145" lon="1.46782">
        <ele>155.046928</ele>
        <time>2023-09-17T09:24:50.424Z</time>
      </trkpt>
      <trkpt lat="43.73145" lon="1.4678">
        <ele>155.040912</ele>
        <time>2023-09-17T09:24:50.424Z</time>
      </trkpt>
      <trkpt lat="43.73147" lon="1.46768">
        <ele>154.978049</ele>
        <time>2023-09-17T09:24:51.424Z</time>
      </trkpt>
      <trkpt lat="43.73147" lon="1.46768">
        <ele>154.978049</ele>
        <time>2023-09-17T09:24:51.424Z</time>
      </trkpt>
      <trkpt lat="43.73147" lon="1.46762">
        <ele>154.948128</ele>
        <time>2023-09-17T09:24:53.424Z</time>
      </trkpt>
      <trkpt lat="43.73147" lon="1.46762">
        <ele>154.948128</ele>
        <time>2023-09-17T09:24:53.424Z</time>
      </trkpt>
      <trkpt lat="43.73148" lon="1.46751">
        <ele>154.896764</ele>
        <time>2023-09-17T09:24:55.424Z</time>
      </trkpt>
      <trkpt lat="43.73147" lon="1.4673">
        <ele>154.792677</ele>
        <time>2023-09-17T09:24:56.424Z</time>
      </trkpt>
      <trkpt lat="43.73147" lon="1.4673">
        <ele>154.792677</ele>
        <time>2023-09-17T09:24:56.424Z</time>
      </trkpt>
      <trkpt lat="43.73147" lon="1.46721">
        <ele>154.771991</ele>
        <time>2023-09-17T09:24:57.424Z</time>
      </trkpt>
      <trkpt lat="43.73147" lon="1.46721">
        <ele>154.771991</ele>
        <time>2023-09-17T09:24:57.424Z</time>
      </trkpt>
      <trkpt lat="43.73148" lon="1.46712">
        <ele>154.759866</ele>
        <time>2023-09-17T09:24:58.424Z</time>
      </trkpt>
      <trkpt lat="43.73148" lon="1.46712">
        <ele>154.759866</ele>
        <time>2023-09-17T09:24:58.424Z</time>
      </trkpt>
      <trkpt lat="43.73148" lon="1.46707">
        <ele>154.753307</ele>
        <time>2023-09-17T09:24:59.424Z</time>
      </trkpt>
      <trkpt lat="43.73148" lon="1.46707">
        <ele>154.753307</ele>
        <time>2023-09-17T09:24:59.424Z</time>
      </trkpt>
      <trkpt lat="43.7315" lon="1.46701">
        <ele>154.745313</ele>
        <time>2023-09-17T09:25:01.424Z</time>
      </trkpt>
      <trkpt lat="43.73152" lon="1.46695">
        <ele>154.736453</ele>
        <time>2023-09-17T09:25:02.424Z</time>
      </trkpt>
      <trkpt lat="43.73154" lon="1.46691">
        <ele>154.730479</ele>
        <time>2023-09-17T09:25:03.424Z</time>
      </trkpt>
      <trkpt lat="43.73159" lon="1.46686">
        <ele>154.720689</ele>
        <time>2023-09-17T09:25:04.424Z</time>
      </trkpt>
      <trkpt lat="43.73164" lon="1.46682">
        <ele>154.709522</ele>
        <time>2023-09-17T09:25:05.424Z</time>
      </trkpt>
      <trkpt lat="43.73168" lon="1.46679">
        <ele>154.701725</ele>
        <time>2023-09-17T09:25:07.424Z</time>
      </trkpt>
      <trkpt lat="43.73168" lon="1.46679">
        <ele>154.701725</ele>
        <time>2023-09-17T09:25:07.424Z</time>
      </trkpt>
      <trkpt lat="43.7317" lon="1.46676">
        <ele>154.696181</ele>
        <time>2023-09-17T09:25:08.424Z</time>
      </trkpt>
      <trkpt lat="43.73173" lon="1.46674">
        <ele>154.690301</ele>
        <time>2023-09-17T09:25:09.424Z</time>
      </trkpt>
      <trkpt lat="43.73173" lon="1.46674">
        <ele>154.690301</ele>
        <time>2023-09-17T09:25:09.424Z</time>
      </trkpt>
      <trkpt lat="43.73177" lon="1.46671">
        <ele>154.682048</ele>
        <time>2023-09-17T09:25:10.424Z</time>
      </trkpt>
      <trkpt lat="43.73177" lon="1.46671">
        <ele>154.682048</ele>
        <time>2023-09-17T09:25:10.424Z</time>
      </trkpt>
      <trkpt lat="43.73182" lon="1.46665">
        <ele>154.67017</ele>
        <time>2023-09-17T09:25:12.424Z</time>
      </trkpt>
      <trkpt lat="43.73182" lon="1.46665">
        <ele>154.67017</ele>
        <time>2023-09-17T09:25:12.424Z</time>
      </trkpt>
      <trkpt lat="43.73184" lon="1.46662">
        <ele>154.66493</ele>
        <time>2023-09-17T09:25:14.424Z</time>
      </trkpt>
      <trkpt lat="43.73185" lon="1.46658">
        <ele>154.659114</ele>
        <time>2023-09-17T09:25:15.424Z</time>
      </trkpt>
      <trkpt lat="43.73185" lon="1.46654">
        <ele>154.654551</ele>
        <time>2023-09-17T09:25:16.424Z</time>
      </trkpt>
      <trkpt lat="43.73186" lon="1.46648">
        <ele>154.64647</ele>
        <time>2023-09-17T09:25:18.424Z</time>
      </trkpt>
      <trkpt lat="43.73187" lon="1.46642">
        <ele>154.638613</ele>
        <time>2023-09-17T09:25:18.424Z</time>
      </trkpt>
      <trkpt lat="43.73188" lon="1.46636">
        <ele>154.630517</ele>
        <time>2023-09-17T09:25:20.424Z</time>
      </trkpt>
      <trkpt lat="43.73189" lon="1.46631">
        <ele>154.624582</ele>
        <time>2023-09-17T09:25:20.424Z</time>
      </trkpt>
      <trkpt lat="43.73191" lon="1.46626">
        <ele>154.617132</ele>
        <time>2023-09-17T09:25:21.424Z</time>
      </trkpt>
      <trkpt lat="43.73192" lon="1.46621">
        <ele>154.609802</ele>
        <time>2023-09-17T09:25:23.424Z</time>
      </trkpt>
      <trkpt lat="43.73194" lon="1.46617">
        <ele>154.603957</ele>
        <time>2023-09-17T09:25:24.424Z</time>
      </trkpt>
      <trkpt lat="43.73196" lon="1.46613">
        <ele>154.596859</ele>
        <time>2023-09-17T09:25:25.424Z</time>
      </trkpt>
      <trkpt lat="43.73201" lon="1.46604">
        <ele>154.582873</ele>
        <time>2023-09-17T09:25:27.424Z</time>
      </trkpt>
      <trkpt lat="43.73201" lon="1.46604">
        <ele>154.582873</ele>
        <time>2023-09-17T09:25:27.424Z</time>
      </trkpt>
      <trkpt lat="43.73204" lon="1.46599">
        <ele>154.574504</ele>
        <time>2023-09-17T09:25:28.424Z</time>
      </trkpt>
      <trkpt lat="43.73204" lon="1.46599">
        <ele>154.574504</ele>
        <time>2023-09-17T09:25:28.424Z</time>
      </trkpt>
      <trkpt lat="43.73207" lon="1.46594">
        <ele>154.565922</ele>
        <time>2023-09-17T09:25:30.424Z</time>
      </trkpt>
      <trkpt lat="43.73209" lon="1.46588">
        <ele>154.558304</ele>
        <time>2023-09-17T09:25:32.424Z</time>
      </trkpt>
      <trkpt lat="43.73211" lon="1.46584">
        <ele>154.551703</ele>
        <time>2023-09-17T09:25:33.424Z</time>
      </trkpt>
      <trkpt lat="43.73213" lon="1.4658">
        <ele>154.545539</ele>
        <time>2023-09-17T09:25:34.424Z</time>
      </trkpt>
      <trkpt lat="43.73216" lon="1.46574">
        <ele>154.536557</ele>
        <time>2023-09-17T09:25:35.424Z</time>
      </trkpt>
      <trkpt lat="43.73218" lon="1.4657">
        <ele>154.529974</ele>
        <time>2023-09-17T09:25:36.424Z</time>
      </trkpt>
      <trkpt lat="43.73222" lon="1.46565">
        <ele>154.521039</ele>
        <time>2023-09-17T09:25:37.424Z</time>
      </trkpt>
      <trkpt lat="43.73225" lon="1.4656">
        <ele>154.512369</ele>
        <time>2023-09-17T09:25:38.424Z</time>
      </trkpt>
      <trkpt lat="43.73227" lon="1.46555">
        <ele>154.504331</ele>
        <time>2023-09-17T09:25:38.424Z</time>
      </trkpt>
      <trkpt lat="43.7323" lon="1.46549">
        <ele>154.49441</ele>
        <time>2023-09-17T09:25:40.424Z</time>
      </trkpt>
      <trkpt lat="43.73234" lon="1.46541">
        <ele>154.482296</ele>
        <time>2023-09-17T09:25:42.424Z</time>
      </trkpt>
      <trkpt lat="43.73234" lon="1.46541">
        <ele>154.482296</ele>
        <time>2023-09-17T09:25:42.424Z</time>
      </trkpt>
      <trkpt lat="43.73238" lon="1.46533">
        <ele>154.470785</ele>
        <time>2023-09-17T09:25:43.424Z</time>
      </trkpt>
      <trkpt lat="43.73241" lon="1.46524">
        <ele>154.454542</ele>
        <time>2023-09-17T09:25:44.424Z</time>
      </trkpt>
      <trkpt lat="43.73245" lon="1.46516">
        <ele>154.427112</ele>
        <time>2023-09-17T09:25:45.424Z</time>
      </trkpt>
      <trkpt lat="43.73248" lon="1.46508">
        <ele>154.396873</ele>
        <time>2023-09-17T09:25:47.424Z</time>
      </trkpt>
      <trkpt lat="43.73251" lon="1.46503">
        <ele>154.377581</ele>
        <time>2023-09-17T09:25:48.424Z</time>
      </trkpt>
      <trkpt lat="43.73253" lon="1.46497">
        <ele>154.357126</ele>
        <time>2023-09-17T09:25:49.424Z</time>
      </trkpt>
      <trkpt lat="43.73257" lon="1.4649">
        <ele>154.32992</ele>
        <time>2023-09-17T09:25:50.424Z</time>
      </trkpt>
      <trkpt lat="43.73261" lon="1.46483">
        <ele>154.303205</ele>
        <time>2023-09-17T09:25:51.424Z</time>
      </trkpt>
      <trkpt lat="43.73261" lon="1.46483">
        <ele>154.303205</ele>
        <time>2023-09-17T09:25:51.424Z</time>
      </trkpt>
      <trkpt lat="43.73266" lon="1.46475">
        <ele>154.27342</ele>
        <time>2023-09-17T09:25:52.424Z</time>
      </trkpt>
      <trkpt lat="43.73266" lon="1.46475">
        <ele>154.27342</ele>
        <time>2023-09-17T09:25:52.424Z</time>
      </trkpt>
      <trkpt lat="43.73267" lon="1.46471">
        <ele>154.258814</ele>
        <time>2023-09-17T09:25:53.424Z</time>
      </trkpt>
      <trkpt lat="43.73267" lon="1.46471">
        <ele>154.258814</ele>
        <time>2023-09-17T09:25:53.424Z</time>
      </trkpt>
      <trkpt lat="43.7327" lon="1.46468">
        <ele>154.241845</ele>
        <time>2023-09-17T09:25:54.424Z</time>
      </trkpt>
      <trkpt lat="43.7327" lon="1.46468">
        <ele>154.241845</ele>
        <time>2023-09-17T09:25:54.424Z</time>
      </trkpt>
      <trkpt lat="43.7328" lon="1.46467">
        <ele>154.2</ele>
        <time>2023-09-17T09:25:56.424Z</time>
      </trkpt>
      <trkpt lat="43.7328" lon="1.46467">
        <ele>154.2</ele>
        <time>2023-09-17T09:25:56.424Z</time>
      </trkpt>
      <trkpt lat="43.73286" lon="1.46466">
        <ele>154.175386</ele>
        <time>2023-09-17T09:25:57.424Z</time>
      </trkpt>
      <trkpt lat="43.73286" lon="1.46466">
        <ele>154.175386</ele>
        <time>2023-09-17T09:25:57.424Z</time>
      </trkpt>
      <trkpt lat="43.73291" lon="1.46466">
        <ele>154.154674</ele>
        <time>2023-09-17T09:25:58.424Z</time>
      </trkpt>
      <trkpt lat="43.73303" lon="1.46464">
        <ele>154.10268</ele>
        <time>2023-09-17T09:26:00.424Z</time>
      </trkpt>
      <trkpt lat="43.73303" lon="1.46464">
        <ele>154.10268</ele>
        <time>2023-09-17T09:26:00.424Z</time>
      </trkpt>
      <trkpt lat="43.73308" lon="1.46462">
        <ele>154.082226</ele>
        <time>2023-09-17T09:26:02.424Z</time>
      </trkpt>
      <trkpt lat="43.73311" lon="1.46459">
        <ele>154.066425</ele>
        <time>2023-09-17T09:26:03.424Z</time>
      </trkpt>
      <trkpt lat="43.73311" lon="1.46456">
        <ele>154.058994</ele>
        <time>2023-09-17T09:26:04.424Z</time>
      </trkpt>
      <trkpt lat="43.73311" lon="1.46456">
        <ele>154.058994</ele>
        <time>2023-09-17T09:26:04.424Z</time>
      </trkpt>
      <trkpt lat="43.7331" lon="1.46452">
        <ele>154.043629</ele>
        <time>2023-09-17T09:26:05.424Z</time>
      </trkpt>
      <trkpt lat="43.73308" lon="1.46447">
        <ele>154.026391</ele>
        <time>2023-09-17T09:26:06.424Z</time>
      </trkpt>
      <trkpt lat="43.73307" lon="1.4644">
        <ele>154.004405</ele>
        <time>2023-09-17T09:26:07.424Z</time>
      </trkpt>
      <trkpt lat="43.73307" lon="1.46433">
        <ele>153.983352</ele>
        <time>2023-09-17T09:26:08.424Z</time>
      </trkpt>
      <trkpt lat="43.73309" lon="1.46421">
        <ele>153.945872</ele>
        <time>2023-09-17T09:26:09.424Z</time>
      </trkpt>
      <trkpt lat="43.73309" lon="1.46421">
        <ele>153.945872</ele>
        <time>2023-09-17T09:26:09.424Z</time>
      </trkpt>
      <trkpt lat="43.73314" lon="1.4641">
        <ele>153.907093</ele>
        <time>2023-09-17T09:26:10.424Z</time>
      </trkpt>
      <trkpt lat="43.73317" lon="1.46402">
        <ele>153.879143</ele>
        <time>2023-09-17T09:26:11.424Z</time>
      </trkpt>
      <trkpt lat="43.73322" lon="1.46395">
        <ele>153.850191</ele>
        <time>2023-09-17T09:26:12.424Z</time>
      </trkpt>
      <trkpt lat="43.73322" lon="1.46395">
        <ele>153.850191</ele>
        <time>2023-09-17T09:26:12.424Z</time>
      </trkpt>
      <trkpt lat="43.73325" lon="1.46388">
        <ele>153.823476</ele>
        <time>2023-09-17T09:26:13.424Z</time>
      </trkpt>
      <trkpt lat="43.73329" lon="1.46381">
        <ele>153.796998</ele>
        <time>2023-09-17T09:26:14.424Z</time>
      </trkpt>
      <trkpt lat="43.73332" lon="1.46373">
        <ele>153.769464</ele>
        <time>2023-09-17T09:26:15.424Z</time>
      </trkpt>
      <trkpt lat="43.73332" lon="1.46373">
        <ele>153.769464</ele>
        <time>2023-09-17T09:26:15.424Z</time>
      </trkpt>
      <trkpt lat="43.73335" lon="1.46365">
        <ele>153.743897</ele>
        <time>2023-09-17T09:26:16.424Z</time>
      </trkpt>
      <trkpt lat="43.73335" lon="1.46365">
        <ele>153.743897</ele>
        <time>2023-09-17T09:26:16.424Z</time>
      </trkpt>
      <trkpt lat="43.73338" lon="1.46358">
        <ele>153.717472</ele>
        <time>2023-09-17T09:26:17.424Z</time>
      </trkpt>
      <trkpt lat="43.73338" lon="1.46358">
        <ele>153.717472</ele>
        <time>2023-09-17T09:26:17.424Z</time>
      </trkpt>
      <trkpt lat="43.73341" lon="1.46351">
        <ele>153.717551</ele>
        <time>2023-09-17T09:26:18.424Z</time>
      </trkpt>
      <trkpt lat="43.73341" lon="1.46351">
        <ele>153.717551</ele>
        <time>2023-09-17T09:26:18.424Z</time>
      </trkpt>
      <trkpt lat="43.73344" lon="1.46344">
        <ele>153.78539</ele>
        <time>2023-09-17T09:26:19.424Z</time>
      </trkpt>
      <trkpt lat="43.73344" lon="1.46344">
        <ele>153.78539</ele>
        <time>2023-09-17T09:26:19.424Z</time>
      </trkpt>
      <trkpt lat="43.73348" lon="1.46336">
        <ele>153.85562</ele>
        <time>2023-09-17T09:26:20.424Z</time>
      </trkpt>
      <trkpt lat="43.73348" lon="1.46336">
        <ele>153.85562</ele>
        <time>2023-09-17T09:26:20.424Z</time>
      </trkpt>
      <trkpt lat="43.73352" lon="1.46329">
        <ele>153.924595</ele>
        <time>2023-09-17T09:26:21.424Z</time>
      </trkpt>
      <trkpt lat="43.73352" lon="1.46329">
        <ele>153.924595</ele>
        <time>2023-09-17T09:26:21.424Z</time>
      </trkpt>
      <trkpt lat="43.73356" lon="1.46321">
        <ele>153.996281</ele>
        <time>2023-09-17T09:26:22.424Z</time>
      </trkpt>
      <trkpt lat="43.73356" lon="1.46321">
        <ele>153.996281</ele>
        <time>2023-09-17T09:26:22.424Z</time>
      </trkpt>
      <trkpt lat="43.73359" lon="1.46314">
        <ele>154.063955</ele>
        <time>2023-09-17T09:26:23.424Z</time>
      </trkpt>
      <trkpt lat="43.73361" lon="1.46306">
        <ele>154.130562</ele>
        <time>2023-09-17T09:26:24.424Z</time>
      </trkpt>
      <trkpt lat="43.73361" lon="1.46306">
        <ele>154.130562</ele>
        <time>2023-09-17T09:26:24.424Z</time>
      </trkpt>
      <trkpt lat="43.73363" lon="1.46296">
        <ele>154.205141</ele>
        <time>2023-09-17T09:26:25.424Z</time>
      </trkpt>
      <trkpt lat="43.73364" lon="1.46288">
        <ele>154.273351</ele>
        <time>2023-09-17T09:26:26.424Z</time>
      </trkpt>
      <trkpt lat="43.73364" lon="1.46288">
        <ele>154.273351</ele>
        <time>2023-09-17T09:26:26.424Z</time>
      </trkpt>
      <trkpt lat="43.73361" lon="1.4628">
        <ele>154.337807</ele>
        <time>2023-09-17T09:26:27.424Z</time>
      </trkpt>
      <trkpt lat="43.73357" lon="1.46274">
        <ele>154.400785</ele>
        <time>2023-09-17T09:26:28.424Z</time>
      </trkpt>
      <trkpt lat="43.73352" lon="1.46271">
        <ele>154.455228</ele>
        <time>2023-09-17T09:26:29.424Z</time>
      </trkpt>
      <trkpt lat="43.73348" lon="1.46269">
        <ele>154.509505</ele>
        <time>2023-09-17T09:26:30.424Z</time>
      </trkpt>
      <trkpt lat="43.73348" lon="1.46269">
        <ele>154.509505</ele>
        <time>2023-09-17T09:26:30.424Z</time>
      </trkpt>
      <trkpt lat="43.73342" lon="1.46268">
        <ele>154.568059</ele>
        <time>2023-09-17T09:26:31.424Z</time>
      </trkpt>
      <trkpt lat="43.73338" lon="1.46268">
        <ele>154.61646</ele>
        <time>2023-09-17T09:26:32.424Z</time>
      </trkpt>
      <trkpt lat="43.73333" lon="1.46267">
        <ele>154.661592</ele>
        <time>2023-09-17T09:26:33.424Z</time>
      </trkpt>
      <trkpt lat="43.7333" lon="1.46267">
        <ele>154.703375</ele>
        <time>2023-09-17T09:26:34.424Z</time>
      </trkpt>
      <trkpt lat="43.7333" lon="1.46267">
        <ele>154.703375</ele>
        <time>2023-09-17T09:26:34.424Z</time>
      </trkpt>
      <trkpt lat="43.73327" lon="1.46267">
        <ele>154.735578</ele>
        <time>2023-09-17T09:26:35.424Z</time>
      </trkpt>
      <trkpt lat="43.73323" lon="1.46266">
        <ele>154.768848</ele>
        <time>2023-09-17T09:26:36.424Z</time>
      </trkpt>
      <trkpt lat="43.73323" lon="1.46266">
        <ele>154.768848</ele>
        <time>2023-09-17T09:26:36.424Z</time>
      </trkpt>
      <trkpt lat="43.73322" lon="1.46266">
        <ele>154.789322</ele>
        <time>2023-09-17T09:26:37.424Z</time>
      </trkpt>
      <trkpt lat="43.7332" lon="1.46266">
        <ele>154.809897</ele>
        <time>2023-09-17T09:26:38.424Z</time>
      </trkpt>
      <trkpt lat="43.7332" lon="1.46266">
        <ele>154.809897</ele>
        <time>2023-09-17T09:26:38.424Z</time>
      </trkpt>
      <trkpt lat="43.73319" lon="1.46265">
        <ele>154.821901</ele>
        <time>2023-09-17T09:26:39.424Z</time>
      </trkpt>
      <trkpt lat="43.73319" lon="1.46265">
        <ele>154.821901</ele>
        <time>2023-09-17T09:26:40.424Z</time>
      </trkpt>
      <trkpt lat="43.73315" lon="1.46264">
        <ele>154.859666</ele>
        <time>2023-09-17T09:26:42.424Z</time>
      </trkpt>
      <trkpt lat="43.73314" lon="1.46263">
        <ele>154.877879</ele>
        <time>2023-09-17T09:26:44.424Z</time>
      </trkpt>
      <trkpt lat="43.73312" lon="1.46263">
        <ele>154.889656</ele>
        <time>2023-09-17T09:26:45.424Z</time>
      </trkpt>
      <trkpt lat="43.7331" lon="1.46262">
        <ele>154.915246</ele>
        <time>2023-09-17T09:26:46.424Z</time>
      </trkpt>
      <trkpt lat="43.7331" lon="1.46262">
        <ele>154.915246</ele>
        <time>2023-09-17T09:26:46.424Z</time>
      </trkpt>
      <trkpt lat="43.73307" lon="1.46261">
        <ele>154.945379</ele>
        <time>2023-09-17T09:26:47.424Z</time>
      </trkpt>
      <trkpt lat="43.73304" lon="1.4626">
        <ele>154.9798</ele>
        <time>2023-09-17T09:26:49.424Z</time>
      </trkpt>
      <trkpt lat="43.73304" lon="1.4626">
        <ele>154.9798</ele>
        <time>2023-09-17T09:26:49.424Z</time>
      </trkpt>
      <trkpt lat="43.73298" lon="1.46255">
        <ele>155.053092</ele>
        <time>2023-09-17T09:26:50.424Z</time>
      </trkpt>
      <trkpt lat="43.73294" lon="1.46252">
        <ele>155.106814</ele>
        <time>2023-09-17T09:26:51.424Z</time>
      </trkpt>
      <trkpt lat="43.73291" lon="1.46247">
        <ele>155.156411</ele>
        <time>2023-09-17T09:26:52.424Z</time>
      </trkpt>
      <trkpt lat="43.73286" lon="1.46241">
        <ele>155.228545</ele>
        <time>2023-09-17T09:26:53.424Z</time>
      </trkpt>
      <trkpt lat="43.73286" lon="1.46241">
        <ele>155.228545</ele>
        <time>2023-09-17T09:26:53.424Z</time>
      </trkpt>
      <trkpt lat="43.73281" lon="1.46233">
        <ele>155.311549</ele>
        <time>2023-09-17T09:26:54.424Z</time>
      </trkpt>
      <trkpt lat="43.73278" lon="1.46226">
        <ele>155.373845</ele>
        <time>2023-09-17T09:26:55.424Z</time>
      </trkpt>
      <trkpt lat="43.73275" lon="1.46218">
        <ele>155.439361</ele>
        <time>2023-09-17T09:26:56.424Z</time>
      </trkpt>
      <trkpt lat="43.73273" lon="1.46211">
        <ele>155.499386</ele>
        <time>2023-09-17T09:26:57.424Z</time>
      </trkpt>
      <trkpt lat="43.73271" lon="1.46205">
        <ele>155.548546</ele>
        <time>2023-09-17T09:26:58.424Z</time>
      </trkpt>
      <trkpt lat="43.73267" lon="1.46201">
        <ele>155.599451</ele>
        <time>2023-09-17T09:26:59.424Z</time>
      </trkpt>
      <trkpt lat="43.73267" lon="1.46201">
        <ele>155.599451</ele>
        <time>2023-09-17T09:26:59.424Z</time>
      </trkpt>
      <trkpt lat="43.73264" lon="1.46197">
        <ele>155.649289</ele>
        <time>2023-09-17T09:27:00.424Z</time>
      </trkpt>
      <trkpt lat="43.73261" lon="1.46193">
        <ele>155.712297</ele>
        <time>2023-09-17T09:27:01.424Z</time>
      </trkpt>
      <trkpt lat="43.73257" lon="1.46189">
        <ele>155.774451</ele>
        <time>2023-09-17T09:27:02.424Z</time>
      </trkpt>
      <trkpt lat="43.73254" lon="1.46185">
        <ele>155.839369</ele>
        <time>2023-09-17T09:27:03.424Z</time>
      </trkpt>
      <trkpt lat="43.73251" lon="1.46184">
        <ele>155.885054</ele>
        <time>2023-09-17T09:27:04.424Z</time>
      </trkpt>
      <trkpt lat="43.73251" lon="1.46184">
        <ele>155.885054</ele>
        <time>2023-09-17T09:27:04.424Z</time>
      </trkpt>
      <trkpt lat="43.73248" lon="1.46184">
        <ele>155.923633</ele>
        <time>2023-09-17T09:27:05.424Z</time>
      </trkpt>
      <trkpt lat="43.73244" lon="1.46188">
        <ele>155.98855</ele>
        <time>2023-09-17T09:27:06.424Z</time>
      </trkpt>
      <trkpt lat="43.7324" lon="1.46194">
        <ele>156.070629</ele>
        <time>2023-09-17T09:27:07.424Z</time>
      </trkpt>
      <trkpt lat="43.7324" lon="1.46194">
        <ele>156.070629</ele>
        <time>2023-09-17T09:27:07.424Z</time>
      </trkpt>
      <trkpt lat="43.73237" lon="1.46201">
        <ele>156.154916</ele>
        <time>2023-09-17T09:27:08.424Z</time>
      </trkpt>
      <trkpt lat="43.73235" lon="1.46207">
        <ele>156.219268</ele>
        <time>2023-09-17T09:27:09.424Z</time>
      </trkpt>
      <trkpt lat="43.73232" lon="1.46213">
        <ele>156.287839</ele>
        <time>2023-09-17T09:27:10.424Z</time>
      </trkpt>
      <trkpt lat="43.7323" lon="1.46218">
        <ele>156.346668</ele>
        <time>2023-09-17T09:27:11.424Z</time>
      </trkpt>
      <trkpt lat="43.7323" lon="1.46218">
        <ele>156.346668</ele>
        <time>2023-09-17T09:27:11.424Z</time>
      </trkpt>
      <trkpt lat="43.73229" lon="1.46224">
        <ele>156.409126</ele>
        <time>2023-09-17T09:27:12.424Z</time>
      </trkpt>
      <trkpt lat="43.73226" lon="1.46228">
        <ele>156.463138</ele>
        <time>2023-09-17T09:27:13.424Z</time>
      </trkpt>
      <trkpt lat="43.73226" lon="1.46228">
        <ele>156.463138</ele>
        <time>2023-09-17T09:27:13.424Z</time>
      </trkpt>
      <trkpt lat="43.73223" lon="1.46232">
        <ele>156.524462</ele>
        <time>2023-09-17T09:27:14.424Z</time>
      </trkpt>
      <trkpt lat="43.73223" lon="1.46232">
        <ele>156.524462</ele>
        <time>2023-09-17T09:27:14.424Z</time>
      </trkpt>
      <trkpt lat="43.73221" lon="1.46236">
        <ele>156.574489</ele>
        <time>2023-09-17T09:27:15.424Z</time>
      </trkpt>
      <trkpt lat="43.73221" lon="1.46236">
        <ele>156.574489</ele>
        <time>2023-09-17T09:27:15.424Z</time>
      </trkpt>
      <trkpt lat="43.73214" lon="1.46241">
        <ele>156.684054</ele>
        <time>2023-09-17T09:27:17.424Z</time>
      </trkpt>
      <trkpt lat="43.73214" lon="1.46241">
        <ele>156.684054</ele>
        <time>2023-09-17T09:27:17.424Z</time>
      </trkpt>
      <trkpt lat="43.73211" lon="1.4624">
        <ele>156.732997</ele>
        <time>2023-09-17T09:27:19.424Z</time>
      </trkpt>
      <trkpt lat="43.73211" lon="1.4624">
        <ele>156.732997</ele>
        <time>2023-09-17T09:27:19.424Z</time>
      </trkpt>
      <trkpt lat="43.73208" lon="1.46239">
        <ele>156.777232</ele>
        <time>2023-09-17T09:27:20.424Z</time>
      </trkpt>
      <trkpt lat="43.73203" lon="1.46236">
        <ele>156.842812</ele>
        <time>2023-09-17T09:27:21.424Z</time>
      </trkpt>
      <trkpt lat="43.732" lon="1.46233">
        <ele>156.903144</ele>
        <time>2023-09-17T09:27:22.424Z</time>
      </trkpt>
      <trkpt lat="43.73197" lon="1.46228">
        <ele>156.967217</ele>
        <time>2023-09-17T09:27:23.424Z</time>
      </trkpt>
      <trkpt lat="43.73197" lon="1.46228">
        <ele>156.967217</ele>
        <time>2023-09-17T09:27:23.424Z</time>
      </trkpt>
      <trkpt lat="43.73193" lon="1.46223">
        <ele>157.03877</ele>
        <time>2023-09-17T09:27:25.424Z</time>
      </trkpt>
      <trkpt lat="43.7319" lon="1.46217">
        <ele>157.111258</ele>
        <time>2023-09-17T09:27:26.424Z</time>
      </trkpt>
      <trkpt lat="43.73187" lon="1.46213">
        <ele>157.168642</ele>
        <time>2023-09-17T09:27:27.424Z</time>
      </trkpt>
      <trkpt lat="43.73187" lon="1.46213">
        <ele>157.168642</ele>
        <time>2023-09-17T09:27:27.424Z</time>
      </trkpt>
      <trkpt lat="43.73184" lon="1.46208">
        <ele>157.236781</ele>
        <time>2023-09-17T09:27:28.424Z</time>
      </trkpt>
      <trkpt lat="43.7318" lon="1.46203">
        <ele>157.31074</ele>
        <time>2023-09-17T09:27:29.424Z</time>
      </trkpt>
      <trkpt lat="43.73176" lon="1.46198">
        <ele>157.385406</ele>
        <time>2023-09-17T09:27:30.424Z</time>
      </trkpt>
      <trkpt lat="43.73172" lon="1.46192">
        <ele>157.466195</ele>
        <time>2023-09-17T09:27:31.424Z</time>
      </trkpt>
      <trkpt lat="43.73168" lon="1.46187">
        <ele>157.539456</ele>
        <time>2023-09-17T09:27:32.424Z</time>
      </trkpt>
      <trkpt lat="43.73164" lon="1.46184">
        <ele>157.604373</ele>
        <time>2023-09-17T09:27:33.424Z</time>
      </trkpt>
      <trkpt lat="43.73161" lon="1.4618">
        <ele>157.671695</ele>
        <time>2023-09-17T09:27:34.424Z</time>
      </trkpt>
      <trkpt lat="43.73157" lon="1.46175">
        <ele>157.742641</ele>
        <time>2023-09-17T09:27:35.424Z</time>
      </trkpt>
      <trkpt lat="43.73154" lon="1.4617">
        <ele>157.803205</ele>
        <time>2023-09-17T09:27:36.424Z</time>
      </trkpt>
      <trkpt lat="43.73151" lon="1.46165">
        <ele>157.873628</ele>
        <time>2023-09-17T09:27:37.424Z</time>
      </trkpt>
      <trkpt lat="43.73151" lon="1.46165">
        <ele>157.873628</ele>
        <time>2023-09-17T09:27:37.424Z</time>
      </trkpt>
      <trkpt lat="43.73149" lon="1.46159">
        <ele>157.941309</ele>
        <time>2023-09-17T09:27:38.424Z</time>
      </trkpt>
      <trkpt lat="43.73146" lon="1.46153">
        <ele>158.007221</ele>
        <time>2023-09-17T09:27:39.424Z</time>
      </trkpt>
      <trkpt lat="43.73143" lon="1.46148">
        <ele>158.080296</ele>
        <time>2023-09-17T09:27:40.424Z</time>
      </trkpt>
      <trkpt lat="43.7314" lon="1.46144">
        <ele>158.141743</ele>
        <time>2023-09-17T09:27:41.424Z</time>
      </trkpt>
      <trkpt lat="43.73136" lon="1.4614">
        <ele>158.198382</ele>
        <time>2023-09-17T09:27:42.424Z</time>
      </trkpt>
      <trkpt lat="43.73136" lon="1.4614">
        <ele>158.198382</ele>
        <time>2023-09-17T09:27:42.424Z</time>
      </trkpt>
      <trkpt lat="43.73132" lon="1.46136">
        <ele>158.265019</ele>
        <time>2023-09-17T09:27:43.424Z</time>
      </trkpt>
      <trkpt lat="43.73129" lon="1.46132">
        <ele>158.324251</ele>
        <time>2023-09-17T09:27:44.424Z</time>
      </trkpt>
      <trkpt lat="43.73125" lon="1.46127">
        <ele>158.384752</ele>
        <time>2023-09-17T09:27:45.424Z</time>
      </trkpt>
      <trkpt lat="43.73125" lon="1.46127">
        <ele>158.384752</ele>
        <time>2023-09-17T09:27:45.424Z</time>
      </trkpt>
      <trkpt lat="43.73122" lon="1.46123">
        <ele>158.44494</ele>
        <time>2023-09-17T09:27:46.424Z</time>
      </trkpt>
      <trkpt lat="43.73118" lon="1.46118">
        <ele>158.504172</ele>
        <time>2023-09-17T09:27:47.424Z</time>
      </trkpt>
      <trkpt lat="43.73118" lon="1.46118">
        <ele>158.504172</ele>
        <time>2023-09-17T09:27:47.424Z</time>
      </trkpt>
      <trkpt lat="43.73115" lon="1.46114">
        <ele>158.557744</ele>
        <time>2023-09-17T09:27:48.424Z</time>
      </trkpt>
      <trkpt lat="43.73112" lon="1.4611">
        <ele>158.618553</ele>
        <time>2023-09-17T09:27:49.424Z</time>
      </trkpt>
      <trkpt lat="43.73112" lon="1.4611">
        <ele>158.618553</ele>
        <time>2023-09-17T09:27:49.424Z</time>
      </trkpt>
      <trkpt lat="43.73109" lon="1.46106">
        <ele>158.673431</ele>
        <time>2023-09-17T09:27:50.424Z</time>
      </trkpt>
      <trkpt lat="43.73106" lon="1.46102">
        <ele>158.727937</ele>
        <time>2023-09-17T09:27:51.424Z</time>
      </trkpt>
      <trkpt lat="43.73106" lon="1.46102">
        <ele>158.727937</ele>
        <time>2023-09-17T09:27:51.424Z</time>
      </trkpt>
      <trkpt lat="43.73103" lon="1.46097">
        <ele>158.781579</ele>
        <time>2023-09-17T09:27:52.424Z</time>
      </trkpt>
      <trkpt lat="43.731" lon="1.46093">
        <ele>158.83368</ele>
        <time>2023-09-17T09:27:53.424Z</time>
      </trkpt>
      <trkpt lat="43.731" lon="1.46093">
        <ele>158.83368</ele>
        <time>2023-09-17T09:27:53.424Z</time>
      </trkpt>
      <trkpt lat="43.73098" lon="1.4609">
        <ele>158.870057</ele>
        <time>2023-09-17T09:27:54.424Z</time>
      </trkpt>
      <trkpt lat="43.73096" lon="1.46085">
        <ele>158.92806</ele>
        <time>2023-09-17T09:27:55.424Z</time>
      </trkpt>
      <trkpt lat="43.73096" lon="1.46085">
        <ele>158.92806</ele>
        <time>2023-09-17T09:27:55.424Z</time>
      </trkpt>
      <trkpt lat="43.73093" lon="1.46079">
        <ele>158.994482</ele>
        <time>2023-09-17T09:27:56.424Z</time>
      </trkpt>
      <trkpt lat="43.73093" lon="1.46079">
        <ele>158.994482</ele>
        <time>2023-09-17T09:27:56.424Z</time>
      </trkpt>
      <trkpt lat="43.73093" lon="1.46068">
        <ele>159.092189</ele>
        <time>2023-09-17T09:27:58.424Z</time>
      </trkpt>
      <trkpt lat="43.73092" lon="1.46062">
        <ele>159.150612</ele>
        <time>2023-09-17T09:27:59.424Z</time>
      </trkpt>
      <trkpt lat="43.7309" lon="1.46057">
        <ele>159.210469</ele>
        <time>2023-09-17T09:28:00.424Z</time>
      </trkpt>
      <trkpt lat="43.73087" lon="1.46051">
        <ele>159.275288</ele>
        <time>2023-09-17T09:28:01.424Z</time>
      </trkpt>
      <trkpt lat="43.73082" lon="1.46046">
        <ele>159.352496</ele>
        <time>2023-09-17T09:28:02.424Z</time>
      </trkpt>
      <trkpt lat="43.73082" lon="1.46046">
        <ele>159.352496</ele>
        <time>2023-09-17T09:28:02.424Z</time>
      </trkpt>
      <trkpt lat="43.73079" lon="1.46043">
        <ele>159.394797</ele>
        <time>2023-09-17T09:28:03.424Z</time>
      </trkpt>
      <trkpt lat="43.73076" lon="1.46041">
        <ele>159.448906</ele>
        <time>2023-09-17T09:28:04.424Z</time>
      </trkpt>
      <trkpt lat="43.73076" lon="1.46041">
        <ele>159.448906</ele>
        <time>2023-09-17T09:28:04.424Z</time>
      </trkpt>
      <trkpt lat="43.73073" lon="1.46039">
        <ele>159.485101</ele>
        <time>2023-09-17T09:28:05.424Z</time>
      </trkpt>
      <trkpt lat="43.73073" lon="1.46039">
        <ele>159.485101</ele>
        <time>2023-09-17T09:28:05.424Z</time>
      </trkpt>
      <trkpt lat="43.7307" lon="1.46038">
        <ele>159.525012</ele>
        <time>2023-09-17T09:28:06.424Z</time>
      </trkpt>
      <trkpt lat="43.7307" lon="1.46038">
        <ele>159.525012</ele>
        <time>2023-09-17T09:28:06.424Z</time>
      </trkpt>
      <trkpt lat="43.73066" lon="1.46038">
        <ele>159.570108</ele>
        <time>2023-09-17T09:28:08.424Z</time>
      </trkpt>
      <trkpt lat="43.73066" lon="1.46038">
        <ele>159.570108</ele>
        <time>2023-09-17T09:28:08.424Z</time>
      </trkpt>
      <trkpt lat="43.73063" lon="1.46037">
        <ele>159.610268</ele>
        <time>2023-09-17T09:28:09.424Z</time>
      </trkpt>
      <trkpt lat="43.73063" lon="1.46037">
        <ele>159.610268</ele>
        <time>2023-09-17T09:28:09.424Z</time>
      </trkpt>
      <trkpt lat="43.73062" lon="1.46036">
        <ele>159.630109</ele>
        <time>2023-09-17T09:28:10.424Z</time>
      </trkpt>
      <trkpt lat="43.73062" lon="1.46036">
        <ele>159.630109</ele>
        <time>2023-09-17T09:28:10.424Z</time>
      </trkpt>
      <trkpt lat="43.7306" lon="1.46036">
        <ele>159.650873</ele>
        <time>2023-09-17T09:28:11.424Z</time>
      </trkpt>
      <trkpt lat="43.7306" lon="1.46036">
        <ele>159.650873</ele>
        <time>2023-09-17T09:28:11.424Z</time>
      </trkpt>
      <trkpt lat="43.7306" lon="1.46032">
        <ele>159.686558</ele>
        <time>2023-09-17T09:28:12.424Z</time>
      </trkpt>
      <trkpt lat="43.7306" lon="1.46029">
        <ele>159.720404</ele>
        <time>2023-09-17T09:28:13.424Z</time>
      </trkpt>
      <trkpt lat="43.73061" lon="1.46024">
        <ele>159.760767</ele>
        <time>2023-09-17T09:28:14.424Z</time>
      </trkpt>
      <trkpt lat="43.73064" lon="1.46014">
        <ele>159.863102</ele>
        <time>2023-09-17T09:28:16.424Z</time>
      </trkpt>
      <trkpt lat="43.73064" lon="1.46014">
        <ele>159.863102</ele>
        <time>2023-09-17T09:28:16.424Z</time>
      </trkpt>
      <trkpt lat="43.73067" lon="1.46006">
        <ele>159.945824</ele>
        <time>2023-09-17T09:28:18.424Z</time>
      </trkpt>
      <trkpt lat="43.73069" lon="1.46001">
        <ele>160.005001</ele>
        <time>2023-09-17T09:28:19.424Z</time>
      </trkpt>
      <trkpt lat="43.73072" lon="1.45995">
        <ele>160.067645</ele>
        <time>2023-09-17T09:28:20.424Z</time>
      </trkpt>
      <trkpt lat="43.73077" lon="1.45986">
        <ele>160.178441</ele>
        <time>2023-09-17T09:28:21.424Z</time>
      </trkpt>
      <trkpt lat="43.73082" lon="1.45978">
        <ele>160.271999</ele>
        <time>2023-09-17T09:28:22.424Z</time>
      </trkpt>
      <trkpt lat="43.73082" lon="1.45978">
        <ele>160.271999</ele>
        <time>2023-09-17T09:28:22.424Z</time>
      </trkpt>
      <trkpt lat="43.73087" lon="1.45971">
        <ele>160.358371</ele>
        <time>2023-09-17T09:28:23.424Z</time>
      </trkpt>
      <trkpt lat="43.73091" lon="1.45965">
        <ele>160.440794</ele>
        <time>2023-09-17T09:28:24.424Z</time>
      </trkpt>
      <trkpt lat="43.73091" lon="1.45965">
        <ele>160.440794</ele>
        <time>2023-09-17T09:28:24.424Z</time>
      </trkpt>
      <trkpt lat="43.73094" lon="1.4596">
        <ele>160.601262</ele>
        <time>2023-09-17T09:28:25.424Z</time>
      </trkpt>
      <trkpt lat="43.73094" lon="1.4596">
        <ele>160.601262</ele>
        <time>2023-09-17T09:28:25.424Z</time>
      </trkpt>
      <trkpt lat="43.73097" lon="1.45956">
        <ele>160.740389</ele>
        <time>2023-09-17T09:28:27.424Z</time>
      </trkpt>
      <trkpt lat="43.73099" lon="1.45952">
        <ele>160.895085</ele>
        <time>2023-09-17T09:28:28.424Z</time>
      </trkpt>
      <trkpt lat="43.73102" lon="1.45947">
        <ele>161.052192</ele>
        <time>2023-09-17T09:28:29.424Z</time>
      </trkpt>
      <trkpt lat="43.73104" lon="1.45943">
        <ele>161.204437</ele>
        <time>2023-09-17T09:28:30.424Z</time>
      </trkpt>
      <trkpt lat="43.73106" lon="1.45937">
        <ele>161.372699</ele>
        <time>2023-09-17T09:28:31.424Z</time>
      </trkpt>
      <trkpt lat="43.73109" lon="1.45932">
        <ele>161.542582</ele>
        <time>2023-09-17T09:28:32.424Z</time>
      </trkpt>
      <trkpt lat="43.73111" lon="1.45927">
        <ele>161.713677</ele>
        <time>2023-09-17T09:28:34.424Z</time>
      </trkpt>
      <trkpt lat="43.73114" lon="1.45921">
        <ele>161.896902</ele>
        <time>2023-09-17T09:28:35.424Z</time>
      </trkpt>
      <trkpt lat="43.73114" lon="1.45921">
        <ele>161.896902</ele>
        <time>2023-09-17T09:28:35.424Z</time>
      </trkpt>
      <trkpt lat="43.73118" lon="1.45914">
        <ele>162.157305</ele>
        <time>2023-09-17T09:28:36.424Z</time>
      </trkpt>
      <trkpt lat="43.73122" lon="1.45908">
        <ele>162.364829</ele>
        <time>2023-09-17T09:28:37.424Z</time>
      </trkpt>
      <trkpt lat="43.73122" lon="1.45908">
        <ele>162.364829</ele>
        <time>2023-09-17T09:28:37.424Z</time>
      </trkpt>
      <trkpt lat="43.73125" lon="1.45902">
        <ele>162.548302</ele>
        <time>2023-09-17T09:28:38.424Z</time>
      </trkpt>
      <trkpt lat="43.73125" lon="1.45902">
        <ele>162.548302</ele>
        <time>2023-09-17T09:28:38.424Z</time>
      </trkpt>
      <trkpt lat="43.7313" lon="1.45893">
        <ele>162.868529</ele>
        <time>2023-09-17T09:28:39.424Z</time>
      </trkpt>
      <trkpt lat="43.7313" lon="1.45893">
        <ele>162.868529</ele>
        <time>2023-09-17T09:28:39.424Z</time>
      </trkpt>
      <trkpt lat="43.73134" lon="1.45886">
        <ele>163.100206</ele>
        <time>2023-09-17T09:28:41.424Z</time>
      </trkpt>
      <trkpt lat="43.73136" lon="1.45881">
        <ele>163.261522</ele>
        <time>2023-09-17T09:28:42.424Z</time>
      </trkpt>
      <trkpt lat="43.73137" lon="1.45875">
        <ele>163.429183</ele>
        <time>2023-09-17T09:28:43.424Z</time>
      </trkpt>
      <trkpt lat="43.73137" lon="1.45867">
        <ele>163.671408</ele>
        <time>2023-09-17T09:28:44.424Z</time>
      </trkpt>
      <trkpt lat="43.73137" lon="1.45867">
        <ele>163.671408</ele>
        <time>2023-09-17T09:28:44.424Z</time>
      </trkpt>
      <trkpt lat="43.73137" lon="1.45863">
        <ele>163.767849</ele>
        <time>2023-09-17T09:28:45.424Z</time>
      </trkpt>
      <trkpt lat="43.73137" lon="1.45863">
        <ele>163.767849</ele>
        <time>2023-09-17T09:28:45.424Z</time>
      </trkpt>
      <trkpt lat="43.73135" lon="1.45859">
        <ele>163.890501</ele>
        <time>2023-09-17T09:28:47.424Z</time>
      </trkpt>
      <trkpt lat="43.73135" lon="1.45859">
        <ele>163.890501</ele>
        <time>2023-09-17T09:28:47.424Z</time>
      </trkpt>
      <trkpt lat="43.73134" lon="1.45854">
        <ele>164.039457</ele>
        <time>2023-09-17T09:28:48.424Z</time>
      </trkpt>
      <trkpt lat="43.73134" lon="1.45854">
        <ele>164.039457</ele>
        <time>2023-09-17T09:28:48.424Z</time>
      </trkpt>
      <trkpt lat="43.73129" lon="1.45841">
        <ele>164.433413</ele>
        <time>2023-09-17T09:28:50.424Z</time>
      </trkpt>
      <trkpt lat="43.73129" lon="1.45841">
        <ele>164.433413</ele>
        <time>2023-09-17T09:28:50.424Z</time>
      </trkpt>
      <trkpt lat="43.73126" lon="1.45837">
        <ele>164.578459</ele>
        <time>2023-09-17T09:28:51.424Z</time>
      </trkpt>
      <trkpt lat="43.73126" lon="1.45837">
        <ele>164.578459</ele>
        <time>2023-09-17T09:28:51.424Z</time>
      </trkpt>
      <trkpt lat="43.73124" lon="1.45833">
        <ele>164.719726</ele>
        <time>2023-09-17T09:28:52.424Z</time>
      </trkpt>
      <trkpt lat="43.73124" lon="1.45833">
        <ele>164.719726</ele>
        <time>2023-09-17T09:28:52.424Z</time>
      </trkpt>
      <trkpt lat="43.73123" lon="1.45831">
        <ele>164.792538</ele>
        <time>2023-09-17T09:28:53.424Z</time>
      </trkpt>
      <trkpt lat="43.73123" lon="1.45831">
        <ele>164.792538</ele>
        <time>2023-09-17T09:28:53.424Z</time>
      </trkpt>
      <trkpt lat="43.73122" lon="1.4583">
        <ele>164.845493</ele>
        <time>2023-09-17T09:28:54.424Z</time>
      </trkpt>
      <trkpt lat="43.73122" lon="1.4583">
        <ele>164.845493</ele>
        <time>2023-09-17T09:28:54.424Z</time>
      </trkpt>
      <trkpt lat="43.7312" lon="1.45827">
        <ele>164.950801</ele>
        <time>2023-09-17T09:28:56.424Z</time>
      </trkpt>
      <trkpt lat="43.7312" lon="1.45827">
        <ele>164.950801</ele>
        <time>2023-09-17T09:28:56.424Z</time>
      </trkpt>
      <trkpt lat="43.73118" lon="1.45824">
        <ele>165.061553</ele>
        <time>2023-09-17T09:28:57.424Z</time>
      </trkpt>
      <trkpt lat="43.73118" lon="1.45824">
        <ele>165.061553</ele>
        <time>2023-09-17T09:28:57.424Z</time>
      </trkpt>
      <trkpt lat="43.73117" lon="1.45821">
        <ele>165.148293</ele>
        <time>2023-09-17T09:28:58.424Z</time>
      </trkpt>
      <trkpt lat="43.73117" lon="1.45821">
        <ele>165.148293</ele>
        <time>2023-09-17T09:28:58.424Z</time>
      </trkpt>
      <trkpt lat="43.73116" lon="1.45817">
        <ele>165.263877</ele>
        <time>2023-09-17T09:28:59.424Z</time>
      </trkpt>
      <trkpt lat="43.73116" lon="1.45817">
        <ele>165.263877</ele>
        <time>2023-09-17T09:28:59.424Z</time>
      </trkpt>
      <trkpt lat="43.73116" lon="1.45811">
        <ele>165.413568</ele>
        <time>2023-09-17T09:29:00.424Z</time>
      </trkpt>
      <trkpt lat="43.73116" lon="1.45811">
        <ele>165.413568</ele>
        <time>2023-09-17T09:29:00.424Z</time>
      </trkpt>
      <trkpt lat="43.73117" lon="1.45805">
        <ele>165.582981</ele>
        <time>2023-09-17T09:29:01.424Z</time>
      </trkpt>
      <trkpt lat="43.73117" lon="1.45805">
        <ele>165.582981</ele>
        <time>2023-09-17T09:29:01.424Z</time>
      </trkpt>
      <trkpt lat="43.73117" lon="1.458">
        <ele>165.722599</ele>
        <time>2023-09-17T09:29:02.424Z</time>
      </trkpt>
      <trkpt lat="43.73117" lon="1.458">
        <ele>165.722599</ele>
        <time>2023-09-17T09:29:02.424Z</time>
      </trkpt>
      <trkpt lat="43.73117" lon="1.45793">
        <ele>165.913449</ele>
        <time>2023-09-17T09:29:03.424Z</time>
      </trkpt>
      <trkpt lat="43.73117" lon="1.45793">
        <ele>165.913449</ele>
        <time>2023-09-17T09:29:03.424Z</time>
      </trkpt>
      <trkpt lat="43.73117" lon="1.45787">
        <ele>166.090356</ele>
        <time>2023-09-17T09:29:05.424Z</time>
      </trkpt>
      <trkpt lat="43.73117" lon="1.45787">
        <ele>166.090356</ele>
        <time>2023-09-17T09:29:05.424Z</time>
      </trkpt>
      <trkpt lat="43.73117" lon="1.45782">
        <ele>166.218297</ele>
        <time>2023-09-17T09:29:05.424Z</time>
      </trkpt>
      <trkpt lat="43.73117" lon="1.45782">
        <ele>166.218297</ele>
        <time>2023-09-17T09:29:05.424Z</time>
      </trkpt>
      <trkpt lat="43.73115" lon="1.45778">
        <ele>166.336145</ele>
        <time>2023-09-17T09:29:07.424Z</time>
      </trkpt>
      <trkpt lat="43.73115" lon="1.45778">
        <ele>166.336145</ele>
        <time>2023-09-17T09:29:07.424Z</time>
      </trkpt>
      <trkpt lat="43.73113" lon="1.45774">
        <ele>166.475324</ele>
        <time>2023-09-17T09:29:08.424Z</time>
      </trkpt>
      <trkpt lat="43.73113" lon="1.45774">
        <ele>166.475324</ele>
        <time>2023-09-17T09:29:08.424Z</time>
      </trkpt>
      <trkpt lat="43.73109" lon="1.45769">
        <ele>166.684792</ele>
        <time>2023-09-17T09:29:09.424Z</time>
      </trkpt>
      <trkpt lat="43.73109" lon="1.45769">
        <ele>166.684792</ele>
        <time>2023-09-17T09:29:09.424Z</time>
      </trkpt>
      <trkpt lat="43.73105" lon="1.45763">
        <ele>166.892584</ele>
        <time>2023-09-17T09:29:09.424Z</time>
      </trkpt>
      <trkpt lat="43.73105" lon="1.45763">
        <ele>166.892584</ele>
        <time>2023-09-17T09:29:09.424Z</time>
      </trkpt>
      <trkpt lat="43.73102" lon="1.45759">
        <ele>167.063262</ele>
        <time>2023-09-17T09:29:11.424Z</time>
      </trkpt>
      <trkpt lat="43.73102" lon="1.45759">
        <ele>167.063262</ele>
        <time>2023-09-17T09:29:11.424Z</time>
      </trkpt>
      <trkpt lat="43.73101" lon="1.45755">
        <ele>167.188337</ele>
        <time>2023-09-17T09:29:13.424Z</time>
      </trkpt>
      <trkpt lat="43.73101" lon="1.45755">
        <ele>167.188337</ele>
        <time>2023-09-17T09:29:13.424Z</time>
      </trkpt>
      <trkpt lat="43.73101" lon="1.45749">
        <ele>167.202939</ele>
        <time>2023-09-17T09:29:14.424Z</time>
      </trkpt>
      <trkpt lat="43.73101" lon="1.45749">
        <ele>167.202939</ele>
        <time>2023-09-17T09:29:14.424Z</time>
      </trkpt>
      <trkpt lat="43.73101" lon="1.45744">
        <ele>167.175972</ele>
        <time>2023-09-17T09:29:15.424Z</time>
      </trkpt>
      <trkpt lat="43.73101" lon="1.45744">
        <ele>167.175972</ele>
        <time>2023-09-17T09:29:15.424Z</time>
      </trkpt>
      <trkpt lat="43.73104" lon="1.45737">
        <ele>167.129573</ele>
        <time>2023-09-17T09:29:16.424Z</time>
      </trkpt>
      <trkpt lat="43.73107" lon="1.45729">
        <ele>167.079256</ele>
        <time>2023-09-17T09:29:18.424Z</time>
      </trkpt>
      <trkpt lat="43.73107" lon="1.45729">
        <ele>167.079256</ele>
        <time>2023-09-17T09:29:18.424Z</time>
      </trkpt>
      <trkpt lat="43.73111" lon="1.45723">
        <ele>167.034177</ele>
        <time>2023-09-17T09:29:19.424Z</time>
      </trkpt>
      <trkpt lat="43.73114" lon="1.45716">
        <ele>166.989264</ele>
        <time>2023-09-17T09:29:20.424Z</time>
      </trkpt>
      <trkpt lat="43.73114" lon="1.45716">
        <ele>166.989264</ele>
        <time>2023-09-17T09:29:20.424Z</time>
      </trkpt>
      <trkpt lat="43.73117" lon="1.45709">
        <ele>166.942056</ele>
        <time>2023-09-17T09:29:21.424Z</time>
      </trkpt>
      <trkpt lat="43.73121" lon="1.45696">
        <ele>166.862771</ele>
        <time>2023-09-17T09:29:23.424Z</time>
      </trkpt>
      <trkpt lat="43.73121" lon="1.45696">
        <ele>166.862771</ele>
        <time>2023-09-17T09:29:23.424Z</time>
      </trkpt>
      <trkpt lat="43.73122" lon="1.45689">
        <ele>166.823511</ele>
        <time>2023-09-17T09:29:24.424Z</time>
      </trkpt>
      <trkpt lat="43.73123" lon="1.45676">
        <ele>166.748491</ele>
        <time>2023-09-17T09:29:25.424Z</time>
      </trkpt>
      <trkpt lat="43.73124" lon="1.45669">
        <ele>166.711126</ele>
        <time>2023-09-17T09:29:27.424Z</time>
      </trkpt>
      <trkpt lat="43.73124" lon="1.45669">
        <ele>166.711126</ele>
        <time>2023-09-17T09:29:27.424Z</time>
      </trkpt>
      <trkpt lat="43.73126" lon="1.45662">
        <ele>166.670314</ele>
        <time>2023-09-17T09:29:28.424Z</time>
      </trkpt>
      <trkpt lat="43.73126" lon="1.45661">
        <ele>166.662675</ele>
        <time>2023-09-17T09:29:29.424Z</time>
      </trkpt>
      <trkpt lat="43.73126" lon="1.45661">
        <ele>166.662675</ele>
        <time>2023-09-17T09:29:29.424Z</time>
      </trkpt>
      <trkpt lat="43.73129" lon="1.45646">
        <ele>166.576578</ele>
        <time>2023-09-17T09:29:30.424Z</time>
      </trkpt>
      <trkpt lat="43.73129" lon="1.45646">
        <ele>166.576578</ele>
        <time>2023-09-17T09:29:30.424Z</time>
      </trkpt>
      <trkpt lat="43.73132" lon="1.45636">
        <ele>166.51762</ele>
        <time>2023-09-17T09:29:31.424Z</time>
      </trkpt>
      <trkpt lat="43.73132" lon="1.45636">
        <ele>166.51762</ele>
        <time>2023-09-17T09:29:31.424Z</time>
      </trkpt>
      <trkpt lat="43.73136" lon="1.45627">
        <ele>166.457919</ele>
        <time>2023-09-17T09:29:32.424Z</time>
      </trkpt>
      <trkpt lat="43.73136" lon="1.45627">
        <ele>166.457919</ele>
        <time>2023-09-17T09:29:32.424Z</time>
      </trkpt>
      <trkpt lat="43.7314" lon="1.45619">
        <ele>166.400732</ele>
        <time>2023-09-17T09:29:33.424Z</time>
      </trkpt>
      <trkpt lat="43.7314" lon="1.45619">
        <ele>166.400732</ele>
        <time>2023-09-17T09:29:33.424Z</time>
      </trkpt>
      <trkpt lat="43.73144" lon="1.45615">
        <ele>166.364106</ele>
        <time>2023-09-17T09:29:34.424Z</time>
      </trkpt>
      <trkpt lat="43.73144" lon="1.45615">
        <ele>166.364106</ele>
        <time>2023-09-17T09:29:34.424Z</time>
      </trkpt>
      <trkpt lat="43.73148" lon="1.45615">
        <ele>166.332034</ele>
        <time>2023-09-17T09:29:35.424Z</time>
      </trkpt>
      <trkpt lat="43.73148" lon="1.45615">
        <ele>166.332034</ele>
        <time>2023-09-17T09:29:35.424Z</time>
      </trkpt>
      <trkpt lat="43.73152" lon="1.45614">
        <ele>166.301804</ele>
        <time>2023-09-17T09:29:36.424Z</time>
      </trkpt>
      <trkpt lat="43.73152" lon="1.45614">
        <ele>166.301804</ele>
        <time>2023-09-17T09:29:36.424Z</time>
      </trkpt>
      <trkpt lat="43.73156" lon="1.45614">
        <ele>166.269151</ele>
        <time>2023-09-17T09:29:37.424Z</time>
      </trkpt>
      <trkpt lat="43.73156" lon="1.45614">
        <ele>166.269151</ele>
        <time>2023-09-17T09:29:37.424Z</time>
      </trkpt>
      <trkpt lat="43.7316" lon="1.45612">
        <ele>166.238691</ele>
        <time>2023-09-17T09:29:38.424Z</time>
      </trkpt>
      <trkpt lat="43.7316" lon="1.45612">
        <ele>166.238691</ele>
        <time>2023-09-17T09:29:38.424Z</time>
      </trkpt>
      <trkpt lat="43.73166" lon="1.45609">
        <ele>166.186643</ele>
        <time>2023-09-17T09:29:39.424Z</time>
      </trkpt>
      <trkpt lat="43.73166" lon="1.45609">
        <ele>166.186643</ele>
        <time>2023-09-17T09:29:39.424Z</time>
      </trkpt>
      <trkpt lat="43.73172" lon="1.45603">
        <ele>166.130249</ele>
        <time>2023-09-17T09:29:40.424Z</time>
      </trkpt>
      <trkpt lat="43.73172" lon="1.45603">
        <ele>166.130249</ele>
        <time>2023-09-17T09:29:40.424Z</time>
      </trkpt>
      <trkpt lat="43.73179" lon="1.45595">
        <ele>166.065153</ele>
        <time>2023-09-17T09:29:41.424Z</time>
      </trkpt>
      <trkpt lat="43.73179" lon="1.45595">
        <ele>166.065153</ele>
        <time>2023-09-17T09:29:41.424Z</time>
      </trkpt>
      <trkpt lat="43.73185" lon="1.45586">
        <ele>165.995497</ele>
        <time>2023-09-17T09:29:42.424Z</time>
      </trkpt>
      <trkpt lat="43.73185" lon="1.45586">
        <ele>165.995497</ele>
        <time>2023-09-17T09:29:42.424Z</time>
      </trkpt>
      <trkpt lat="43.73189" lon="1.45581">
        <ele>165.952584</ele>
        <time>2023-09-17T09:29:43.424Z</time>
      </trkpt>
      <trkpt lat="43.73189" lon="1.45581">
        <ele>165.952584</ele>
        <time>2023-09-17T09:29:43.424Z</time>
      </trkpt>
      <trkpt lat="43.73192" lon="1.45578">
        <ele>165.923245</ele>
        <time>2023-09-17T09:29:44.424Z</time>
      </trkpt>
      <trkpt lat="43.73192" lon="1.45578">
        <ele>165.923245</ele>
        <time>2023-09-17T09:29:44.424Z</time>
      </trkpt>
      <trkpt lat="43.73195" lon="1.45573">
        <ele>165.889596</ele>
        <time>2023-09-17T09:29:45.424Z</time>
      </trkpt>
      <trkpt lat="43.73195" lon="1.45573">
        <ele>165.889596</ele>
        <time>2023-09-17T09:29:45.424Z</time>
      </trkpt>
      <trkpt lat="43.73195" lon="1.45571">
        <ele>165.876899</ele>
        <time>2023-09-17T09:29:47.424Z</time>
      </trkpt>
      <trkpt lat="43.73195" lon="1.45569">
        <ele>165.868503</ele>
        <time>2023-09-17T09:29:48.424Z</time>
      </trkpt>
      <trkpt lat="43.73192" lon="1.45565">
        <ele>165.841745</ele>
        <time>2023-09-17T09:29:49.424Z</time>
      </trkpt>
      <trkpt lat="43.73192" lon="1.45565">
        <ele>165.841745</ele>
        <time>2023-09-17T09:29:49.424Z</time>
      </trkpt>
      <trkpt lat="43.73183" lon="1.45554">
        <ele>166.462961</ele>
        <time>2023-09-17T09:29:51.424Z</time>
      </trkpt>
      <trkpt lat="43.73183" lon="1.45554">
        <ele>166.462961</ele>
        <time>2023-09-17T09:29:51.424Z</time>
      </trkpt>
      <trkpt lat="43.7318" lon="1.45551">
        <ele>166.692745</ele>
        <time>2023-09-17T09:29:52.424Z</time>
      </trkpt>
      <trkpt lat="43.7318" lon="1.45551">
        <ele>166.692745</ele>
        <time>2023-09-17T09:29:52.424Z</time>
      </trkpt>
      <trkpt lat="43.73177" lon="1.45546">
        <ele>166.969346</ele>
        <time>2023-09-17T09:29:53.424Z</time>
      </trkpt>
      <trkpt lat="43.73177" lon="1.45546">
        <ele>166.969346</ele>
        <time>2023-09-17T09:29:53.424Z</time>
      </trkpt>
      <trkpt lat="43.73173" lon="1.45542">
        <ele>167.230626</ele>
        <time>2023-09-17T09:29:54.424Z</time>
      </trkpt>
      <trkpt lat="43.73173" lon="1.45542">
        <ele>167.230626</ele>
        <time>2023-09-17T09:29:54.424Z</time>
      </trkpt>
      <trkpt lat="43.73164" lon="1.45528">
        <ele>167.975383</ele>
        <time>2023-09-17T09:29:56.424Z</time>
      </trkpt>
      <trkpt lat="43.73164" lon="1.45528">
        <ele>167.975383</ele>
        <time>2023-09-17T09:29:56.424Z</time>
      </trkpt>
      <trkpt lat="43.73162" lon="1.45523">
        <ele>168.214484</ele>
        <time>2023-09-17T09:29:57.424Z</time>
      </trkpt>
      <trkpt lat="43.73162" lon="1.45523">
        <ele>168.214484</ele>
        <time>2023-09-17T09:29:57.424Z</time>
      </trkpt>
      <trkpt lat="43.73161" lon="1.45518">
        <ele>168.429186</ele>
        <time>2023-09-17T09:29:58.424Z</time>
      </trkpt>
      <trkpt lat="43.73161" lon="1.45518">
        <ele>168.429186</ele>
        <time>2023-09-17T09:29:58.424Z</time>
      </trkpt>
      <trkpt lat="43.73159" lon="1.45513">
        <ele>168.653236</ele>
        <time>2023-09-17T09:29:59.424Z</time>
      </trkpt>
      <trkpt lat="43.73159" lon="1.45508">
        <ele>168.8682</ele>
        <time>2023-09-17T09:30:00.424Z</time>
      </trkpt>
      <trkpt lat="43.73159" lon="1.45508">
        <ele>168.8682</ele>
        <time>2023-09-17T09:30:00.424Z</time>
      </trkpt>
      <trkpt lat="43.73158" lon="1.45499">
        <ele>169.208604</ele>
        <time>2023-09-17T09:30:02.424Z</time>
      </trkpt>
      <trkpt lat="43.73158" lon="1.45499">
        <ele>169.208604</ele>
        <time>2023-09-17T09:30:02.424Z</time>
      </trkpt>
      <trkpt lat="43.73156" lon="1.45487">
        <ele>169.715994</ele>
        <time>2023-09-17T09:30:03.424Z</time>
      </trkpt>
      <trkpt lat="43.73155" lon="1.45473">
        <ele>170.290557</ele>
        <time>2023-09-17T09:30:04.424Z</time>
      </trkpt>
      <trkpt lat="43.73155" lon="1.45473">
        <ele>170.290557</ele>
        <time>2023-09-17T09:30:04.424Z</time>
      </trkpt>
      <trkpt lat="43.73154" lon="1.45471">
        <ele>170.382773</ele>
        <time>2023-09-17T09:30:05.424Z</time>
      </trkpt>
      <trkpt lat="43.73154" lon="1.45471">
        <ele>170.382773</ele>
        <time>2023-09-17T09:30:05.424Z</time>
      </trkpt>
      <trkpt lat="43.73153" lon="1.4546">
        <ele>170.84624</ele>
        <time>2023-09-17T09:30:07.424Z</time>
      </trkpt>
      <trkpt lat="43.73153" lon="1.4546">
        <ele>170.84624</ele>
        <time>2023-09-17T09:30:07.424Z</time>
      </trkpt>
      <trkpt lat="43.7315" lon="1.45447">
        <ele>171.396752</ele>
        <time>2023-09-17T09:30:08.424Z</time>
      </trkpt>
      <trkpt lat="43.7315" lon="1.45447">
        <ele>171.396752</ele>
        <time>2023-09-17T09:30:08.424Z</time>
      </trkpt>
      <trkpt lat="43.73148" lon="1.45443">
        <ele>171.560429</ele>
        <time>2023-09-17T09:30:09.424Z</time>
      </trkpt>
      <trkpt lat="43.73148" lon="1.45443">
        <ele>171.560429</ele>
        <time>2023-09-17T09:30:09.424Z</time>
      </trkpt>
      <trkpt lat="43.73146" lon="1.45439">
        <ele>171.763213</ele>
        <time>2023-09-17T09:30:11.424Z</time>
      </trkpt>
      <trkpt lat="43.73146" lon="1.45439">
        <ele>171.763213</ele>
        <time>2023-09-17T09:30:11.424Z</time>
      </trkpt>
      <trkpt lat="43.73143" lon="1.45435">
        <ele>171.986988</ele>
        <time>2023-09-17T09:30:12.424Z</time>
      </trkpt>
      <trkpt lat="43.73143" lon="1.45435">
        <ele>171.986988</ele>
        <time>2023-09-17T09:30:12.424Z</time>
      </trkpt>
      <trkpt lat="43.7314" lon="1.4543">
        <ele>172.258136</ele>
        <time>2023-09-17T09:30:13.424Z</time>
      </trkpt>
      <trkpt lat="43.7314" lon="1.4543">
        <ele>172.258136</ele>
        <time>2023-09-17T09:30:13.424Z</time>
      </trkpt>
      <trkpt lat="43.73137" lon="1.45426">
        <ele>172.492021</ele>
        <time>2023-09-17T09:30:14.424Z</time>
      </trkpt>
      <trkpt lat="43.73137" lon="1.45426">
        <ele>172.492021</ele>
        <time>2023-09-17T09:30:14.424Z</time>
      </trkpt>
      <trkpt lat="43.73134" lon="1.45423">
        <ele>172.719063</ele>
        <time>2023-09-17T09:30:15.424Z</time>
      </trkpt>
      <trkpt lat="43.73134" lon="1.45423">
        <ele>172.719063</ele>
        <time>2023-09-17T09:30:15.424Z</time>
      </trkpt>
      <trkpt lat="43.7313" lon="1.45418">
        <ele>172.99997</ele>
        <time>2023-09-17T09:30:16.424Z</time>
      </trkpt>
      <trkpt lat="43.7313" lon="1.45418">
        <ele>172.99997</ele>
        <time>2023-09-17T09:30:16.424Z</time>
      </trkpt>
      <trkpt lat="43.73126" lon="1.45414">
        <ele>173.281818</ele>
        <time>2023-09-17T09:30:18.424Z</time>
      </trkpt>
      <trkpt lat="43.73126" lon="1.45414">
        <ele>173.281818</ele>
        <time>2023-09-17T09:30:18.424Z</time>
      </trkpt>
      <trkpt lat="43.73123" lon="1.4541">
        <ele>173.530947</ele>
        <time>2023-09-17T09:30:19.424Z</time>
      </trkpt>
      <trkpt lat="43.73123" lon="1.4541">
        <ele>173.530947</ele>
        <time>2023-09-17T09:30:19.424Z</time>
      </trkpt>
      <trkpt lat="43.7312" lon="1.45406">
        <ele>173.759483</ele>
        <time>2023-09-17T09:30:20.424Z</time>
      </trkpt>
      <trkpt lat="43.7312" lon="1.45406">
        <ele>173.759483</ele>
        <time>2023-09-17T09:30:20.424Z</time>
      </trkpt>
      <trkpt lat="43.73116" lon="1.45401">
        <ele>174.038692</ele>
        <time>2023-09-17T09:30:21.424Z</time>
      </trkpt>
      <trkpt lat="43.73116" lon="1.45401">
        <ele>174.038692</ele>
        <time>2023-09-17T09:30:21.424Z</time>
      </trkpt>
      <trkpt lat="43.73113" lon="1.45398">
        <ele>174.280159</ele>
        <time>2023-09-17T09:30:22.424Z</time>
      </trkpt>
      <trkpt lat="43.73113" lon="1.45398">
        <ele>174.280159</ele>
        <time>2023-09-17T09:30:22.424Z</time>
      </trkpt>
      <trkpt lat="43.7311" lon="1.45394">
        <ele>174.48669</ele>
        <time>2023-09-17T09:30:24.424Z</time>
      </trkpt>
      <trkpt lat="43.7311" lon="1.45394">
        <ele>174.48669</ele>
        <time>2023-09-17T09:30:24.424Z</time>
      </trkpt>
      <trkpt lat="43.73107" lon="1.45391">
        <ele>174.688699</ele>
        <time>2023-09-17T09:30:25.424Z</time>
      </trkpt>
      <trkpt lat="43.73107" lon="1.45391">
        <ele>174.688699</ele>
        <time>2023-09-17T09:30:25.424Z</time>
      </trkpt>
      <trkpt lat="43.73103" lon="1.45386">
        <ele>174.995374</ele>
        <time>2023-09-17T09:30:26.424Z</time>
      </trkpt>
      <trkpt lat="43.73103" lon="1.45386">
        <ele>174.995374</ele>
        <time>2023-09-17T09:30:26.424Z</time>
      </trkpt>
      <trkpt lat="43.73098" lon="1.45382">
        <ele>175.299465</ele>
        <time>2023-09-17T09:30:27.424Z</time>
      </trkpt>
      <trkpt lat="43.73098" lon="1.45382">
        <ele>175.299465</ele>
        <time>2023-09-17T09:30:27.424Z</time>
      </trkpt>
      <trkpt lat="43.73093" lon="1.45377">
        <ele>175.636902</ele>
        <time>2023-09-17T09:30:28.424Z</time>
      </trkpt>
      <trkpt lat="43.73093" lon="1.45377">
        <ele>175.636902</ele>
        <time>2023-09-17T09:30:28.424Z</time>
      </trkpt>
      <trkpt lat="43.7309" lon="1.45373">
        <ele>175.859947</ele>
        <time>2023-09-17T09:30:29.424Z</time>
      </trkpt>
      <trkpt lat="43.7309" lon="1.45373">
        <ele>175.859947</ele>
        <time>2023-09-17T09:30:29.424Z</time>
      </trkpt>
      <trkpt lat="43.73088" lon="1.45369">
        <ele>175.667049</ele>
        <time>2023-09-17T09:30:31.424Z</time>
      </trkpt>
      <trkpt lat="43.73088" lon="1.45369">
        <ele>175.667049</ele>
        <time>2023-09-17T09:30:31.424Z</time>
      </trkpt>
      <trkpt lat="43.73086" lon="1.45366">
        <ele>175.494934</ele>
        <time>2023-09-17T09:30:31.424Z</time>
      </trkpt>
      <trkpt lat="43.73086" lon="1.45362">
        <ele>175.34817</ele>
        <time>2023-09-17T09:30:33.424Z</time>
      </trkpt>
      <trkpt lat="43.73086" lon="1.45362">
        <ele>175.34817</ele>
        <time>2023-09-17T09:30:33.424Z</time>
      </trkpt>
      <trkpt lat="43.73086" lon="1.45358">
        <ele>175.174217</ele>
        <time>2023-09-17T09:30:34.424Z</time>
      </trkpt>
      <trkpt lat="43.73087" lon="1.45354">
        <ele>174.987615</ele>
        <time>2023-09-17T09:30:35.424Z</time>
      </trkpt>
      <trkpt lat="43.73087" lon="1.45354">
        <ele>174.987615</ele>
        <time>2023-09-17T09:30:35.424Z</time>
      </trkpt>
      <trkpt lat="43.73088" lon="1.45349">
        <ele>174.753532</ele>
        <time>2023-09-17T09:30:36.424Z</time>
      </trkpt>
      <trkpt lat="43.73088" lon="1.45349">
        <ele>174.753532</ele>
        <time>2023-09-17T09:30:36.424Z</time>
      </trkpt>
      <trkpt lat="43.7309" lon="1.45343">
        <ele>174.501042</ele>
        <time>2023-09-17T09:30:37.424Z</time>
      </trkpt>
      <trkpt lat="43.7309" lon="1.45343">
        <ele>174.501042</ele>
        <time>2023-09-17T09:30:37.424Z</time>
      </trkpt>
      <trkpt lat="43.73093" lon="1.45336">
        <ele>174.176048</ele>
        <time>2023-09-17T09:30:39.424Z</time>
      </trkpt>
      <trkpt lat="43.73093" lon="1.45336">
        <ele>174.176048</ele>
        <time>2023-09-17T09:30:39.424Z</time>
      </trkpt>
      <trkpt lat="43.73096" lon="1.45331">
        <ele>173.897205</ele>
        <time>2023-09-17T09:30:40.424Z</time>
      </trkpt>
      <trkpt lat="43.73096" lon="1.45331">
        <ele>173.897205</ele>
        <time>2023-09-17T09:30:40.424Z</time>
      </trkpt>
      <trkpt lat="43.73102" lon="1.4532">
        <ele>173.326193</ele>
        <time>2023-09-17T09:30:41.424Z</time>
      </trkpt>
      <trkpt lat="43.73102" lon="1.4532">
        <ele>173.326193</ele>
        <time>2023-09-17T09:30:41.424Z</time>
      </trkpt>
      <trkpt lat="43.73107" lon="1.45312">
        <ele>172.873609</ele>
        <time>2023-09-17T09:30:42.424Z</time>
      </trkpt>
      <trkpt lat="43.73107" lon="1.45312">
        <ele>172.873609</ele>
        <time>2023-09-17T09:30:42.424Z</time>
      </trkpt>
      <trkpt lat="43.73112" lon="1.45305">
        <ele>172.477559</ele>
        <time>2023-09-17T09:30:43.424Z</time>
      </trkpt>
      <trkpt lat="43.73112" lon="1.45305">
        <ele>172.477559</ele>
        <time>2023-09-17T09:30:43.424Z</time>
      </trkpt>
      <trkpt lat="43.73118" lon="1.45298">
        <ele>172.023355</ele>
        <time>2023-09-17T09:30:44.424Z</time>
      </trkpt>
      <trkpt lat="43.73118" lon="1.45298">
        <ele>172.023355</ele>
        <time>2023-09-17T09:30:44.424Z</time>
      </trkpt>
      <trkpt lat="43.73124" lon="1.45292">
        <ele>171.629004</ele>
        <time>2023-09-17T09:30:45.424Z</time>
      </trkpt>
      <trkpt lat="43.73124" lon="1.45292">
        <ele>171.629004</ele>
        <time>2023-09-17T09:30:45.424Z</time>
      </trkpt>
      <trkpt lat="43.73126" lon="1.4529">
        <ele>171.487009</ele>
        <time>2023-09-17T09:30:46.424Z</time>
      </trkpt>
      <trkpt lat="43.73126" lon="1.4529">
        <ele>171.487009</ele>
        <time>2023-09-17T09:30:46.424Z</time>
      </trkpt>
      <trkpt lat="43.73129" lon="1.45288">
        <ele>171.29959</ele>
        <time>2023-09-17T09:30:47.424Z</time>
      </trkpt>
      <trkpt lat="43.73129" lon="1.45288">
        <ele>171.29959</ele>
        <time>2023-09-17T09:30:47.424Z</time>
      </trkpt>
      <trkpt lat="43.73131" lon="1.45286">
        <ele>171.122066</ele>
        <time>2023-09-17T09:30:48.424Z</time>
      </trkpt>
      <trkpt lat="43.73131" lon="1.45286">
        <ele>171.122066</ele>
        <time>2023-09-17T09:30:48.424Z</time>
      </trkpt>
      <trkpt lat="43.73134" lon="1.45284">
        <ele>170.927463</ele>
        <time>2023-09-17T09:30:49.424Z</time>
      </trkpt>
      <trkpt lat="43.73134" lon="1.45284">
        <ele>170.927463</ele>
        <time>2023-09-17T09:30:49.424Z</time>
      </trkpt>
      <trkpt lat="43.7314" lon="1.45282">
        <ele>170.605958</ele>
        <time>2023-09-17T09:30:50.424Z</time>
      </trkpt>
      <trkpt lat="43.7314" lon="1.45282">
        <ele>170.605958</ele>
        <time>2023-09-17T09:30:50.424Z</time>
      </trkpt>
      <trkpt lat="43.73143" lon="1.4528">
        <ele>170.401415</ele>
        <time>2023-09-17T09:30:52.424Z</time>
      </trkpt>
      <trkpt lat="43.73143" lon="1.4528">
        <ele>170.401415</ele>
        <time>2023-09-17T09:30:52.424Z</time>
      </trkpt>
      <trkpt lat="43.73146" lon="1.45279">
        <ele>170.20128</ele>
        <time>2023-09-17T09:30:53.424Z</time>
      </trkpt>
      <trkpt lat="43.73146" lon="1.45279">
        <ele>170.20128</ele>
        <time>2023-09-17T09:30:53.424Z</time>
      </trkpt>
      <trkpt lat="43.73151" lon="1.45278">
        <ele>169.932975</ele>
        <time>2023-09-17T09:30:54.424Z</time>
      </trkpt>
      <trkpt lat="43.73151" lon="1.45278">
        <ele>169.932975</ele>
        <time>2023-09-17T09:30:54.424Z</time>
      </trkpt>
      <trkpt lat="43.73156" lon="1.45277">
        <ele>169.616445</ele>
        <time>2023-09-17T09:30:55.424Z</time>
      </trkpt>
      <trkpt lat="43.73156" lon="1.45277">
        <ele>169.616445</ele>
        <time>2023-09-17T09:30:55.424Z</time>
      </trkpt>
      <trkpt lat="43.73161" lon="1.45276">
        <ele>169.372841</ele>
        <time>2023-09-17T09:30:56.424Z</time>
      </trkpt>
      <trkpt lat="43.73161" lon="1.45276">
        <ele>169.372841</ele>
        <time>2023-09-17T09:30:56.424Z</time>
      </trkpt>
      <trkpt lat="43.73164" lon="1.45275">
        <ele>169.151867</ele>
        <time>2023-09-17T09:30:57.424Z</time>
      </trkpt>
      <trkpt lat="43.73164" lon="1.45275">
        <ele>169.151867</ele>
        <time>2023-09-17T09:30:57.424Z</time>
      </trkpt>
      <trkpt lat="43.73168" lon="1.45274">
        <ele>168.933077</ele>
        <time>2023-09-17T09:30:58.424Z</time>
      </trkpt>
      <trkpt lat="43.73168" lon="1.45274">
        <ele>168.933077</ele>
        <time>2023-09-17T09:30:58.424Z</time>
      </trkpt>
      <trkpt lat="43.73174" lon="1.45273">
        <ele>168.580483</ele>
        <time>2023-09-17T09:31:00.424Z</time>
      </trkpt>
      <trkpt lat="43.73174" lon="1.45273">
        <ele>168.580483</ele>
        <time>2023-09-17T09:31:00.424Z</time>
      </trkpt>
      <trkpt lat="43.73179" lon="1.45272">
        <ele>168.295263</ele>
        <time>2023-09-17T09:31:01.424Z</time>
      </trkpt>
      <trkpt lat="43.73179" lon="1.45272">
        <ele>168.295263</ele>
        <time>2023-09-17T09:31:01.424Z</time>
      </trkpt>
      <trkpt lat="43.73185" lon="1.4527">
        <ele>167.957065</ele>
        <time>2023-09-17T09:31:02.424Z</time>
      </trkpt>
      <trkpt lat="43.73185" lon="1.4527">
        <ele>167.957065</ele>
        <time>2023-09-17T09:31:02.424Z</time>
      </trkpt>
      <trkpt lat="43.7319" lon="1.45268">
        <ele>167.664247</ele>
        <time>2023-09-17T09:31:03.424Z</time>
      </trkpt>
      <trkpt lat="43.7319" lon="1.45268">
        <ele>167.664247</ele>
        <time>2023-09-17T09:31:03.424Z</time>
      </trkpt>
      <trkpt lat="43.73197" lon="1.45266">
        <ele>167.22893</ele>
        <time>2023-09-17T09:31:04.424Z</time>
      </trkpt>
      <trkpt lat="43.73197" lon="1.45266">
        <ele>167.22893</ele>
        <time>2023-09-17T09:31:04.424Z</time>
      </trkpt>
      <trkpt lat="43.73206" lon="1.45262">
        <ele>166.726112</ele>
        <time>2023-09-17T09:31:05.424Z</time>
      </trkpt>
      <trkpt lat="43.73206" lon="1.45262">
        <ele>166.726112</ele>
        <time>2023-09-17T09:31:05.424Z</time>
      </trkpt>
      <trkpt lat="43.73214" lon="1.45259">
        <ele>166.210136</ele>
        <time>2023-09-17T09:31:06.424Z</time>
      </trkpt>
      <trkpt lat="43.73214" lon="1.45259">
        <ele>166.210136</ele>
        <time>2023-09-17T09:31:06.424Z</time>
      </trkpt>
      <trkpt lat="43.73222" lon="1.45256">
        <ele>165.778082</ele>
        <time>2023-09-17T09:31:07.424Z</time>
      </trkpt>
      <trkpt lat="43.73222" lon="1.45256">
        <ele>165.778082</ele>
        <time>2023-09-17T09:31:07.424Z</time>
      </trkpt>
      <trkpt lat="43.73227" lon="1.45254">
        <ele>165.498187</ele>
        <time>2023-09-17T09:31:08.424Z</time>
      </trkpt>
      <trkpt lat="43.73227" lon="1.45254">
        <ele>165.498187</ele>
        <time>2023-09-17T09:31:08.424Z</time>
      </trkpt>
      <trkpt lat="43.73233" lon="1.45252">
        <ele>165.278077</ele>
        <time>2023-09-17T09:31:09.424Z</time>
      </trkpt>
      <trkpt lat="43.73233" lon="1.45252">
        <ele>165.278077</ele>
        <time>2023-09-17T09:31:09.424Z</time>
      </trkpt>
      <trkpt lat="43.73237" lon="1.4525">
        <ele>165.116225</ele>
        <time>2023-09-17T09:31:10.424Z</time>
      </trkpt>
      <trkpt lat="43.73237" lon="1.4525">
        <ele>165.116225</ele>
        <time>2023-09-17T09:31:10.424Z</time>
      </trkpt>
      <trkpt lat="43.7324" lon="1.45248">
        <ele>164.977828</ele>
        <time>2023-09-17T09:31:11.424Z</time>
      </trkpt>
      <trkpt lat="43.7324" lon="1.45248">
        <ele>164.977828</ele>
        <time>2023-09-17T09:31:11.424Z</time>
      </trkpt>
      <trkpt lat="43.73246" lon="1.45247">
        <ele>164.782274</ele>
        <time>2023-09-17T09:31:12.424Z</time>
      </trkpt>
      <trkpt lat="43.73246" lon="1.45247">
        <ele>164.782274</ele>
        <time>2023-09-17T09:31:12.424Z</time>
      </trkpt>
      <trkpt lat="43.73251" lon="1.45246">
        <ele>164.571088</ele>
        <time>2023-09-17T09:31:13.424Z</time>
      </trkpt>
      <trkpt lat="43.73251" lon="1.45246">
        <ele>164.571088</ele>
        <time>2023-09-17T09:31:13.424Z</time>
      </trkpt>
      <trkpt lat="43.73258" lon="1.45246">
        <ele>164.330869</ele>
        <time>2023-09-17T09:31:14.424Z</time>
      </trkpt>
      <trkpt lat="43.73258" lon="1.45246">
        <ele>164.330869</ele>
        <time>2023-09-17T09:31:14.424Z</time>
      </trkpt>
      <trkpt lat="43.73266" lon="1.45246">
        <ele>164.03633</ele>
        <time>2023-09-17T09:31:16.424Z</time>
      </trkpt>
      <trkpt lat="43.73266" lon="1.45246">
        <ele>164.03633</ele>
        <time>2023-09-17T09:31:16.424Z</time>
      </trkpt>
      <trkpt lat="43.73274" lon="1.45246">
        <ele>163.741406</ele>
        <time>2023-09-17T09:31:17.424Z</time>
      </trkpt>
      <trkpt lat="43.73274" lon="1.45246">
        <ele>163.741406</ele>
        <time>2023-09-17T09:31:17.424Z</time>
      </trkpt>
      <trkpt lat="43.73281" lon="1.45247">
        <ele>163.487185</ele>
        <time>2023-09-17T09:31:18.424Z</time>
      </trkpt>
      <trkpt lat="43.73289" lon="1.45247">
        <ele>163.177866</ele>
        <time>2023-09-17T09:31:19.424Z</time>
      </trkpt>
      <trkpt lat="43.733" lon="1.45247">
        <ele>162.783948</ele>
        <time>2023-09-17T09:31:20.424Z</time>
      </trkpt>
      <trkpt lat="43.733" lon="1.45247">
        <ele>162.783948</ele>
        <time>2023-09-17T09:31:20.424Z</time>
      </trkpt>
      <trkpt lat="43.73306" lon="1.45247">
        <ele>162.574123</ele>
        <time>2023-09-17T09:31:21.424Z</time>
      </trkpt>
      <trkpt lat="43.73312" lon="1.45247">
        <ele>162.334834</ele>
        <time>2023-09-17T09:31:22.424Z</time>
      </trkpt>
      <trkpt lat="43.73319" lon="1.45247">
        <ele>162.080835</ele>
        <time>2023-09-17T09:31:23.424Z</time>
      </trkpt>
      <trkpt lat="43.73319" lon="1.45247">
        <ele>162.080835</ele>
        <time>2023-09-17T09:31:23.424Z</time>
      </trkpt>
      <trkpt lat="43.73326" lon="1.45247">
        <ele>161.815672</ele>
        <time>2023-09-17T09:31:24.424Z</time>
      </trkpt>
      <trkpt lat="43.73333" lon="1.45247">
        <ele>161.546831</ele>
        <time>2023-09-17T09:31:25.424Z</time>
      </trkpt>
      <trkpt lat="43.7334" lon="1.45246">
        <ele>161.296386</ele>
        <time>2023-09-17T09:31:26.424Z</time>
      </trkpt>
      <trkpt lat="43.7334" lon="1.45246">
        <ele>161.296386</ele>
        <time>2023-09-17T09:31:26.424Z</time>
      </trkpt>
      <trkpt lat="43.73348" lon="1.45246">
        <ele>161.012825</ele>
        <time>2023-09-17T09:31:27.424Z</time>
      </trkpt>
      <trkpt lat="43.73348" lon="1.45246">
        <ele>161.012825</ele>
        <time>2023-09-17T09:31:27.424Z</time>
      </trkpt>
      <trkpt lat="43.73355" lon="1.45246">
        <ele>160.762381</ele>
        <time>2023-09-17T09:31:28.424Z</time>
      </trkpt>
      <trkpt lat="43.73363" lon="1.45245">
        <ele>160.467781</ele>
        <time>2023-09-17T09:31:29.424Z</time>
      </trkpt>
      <trkpt lat="43.73363" lon="1.45245">
        <ele>160.467781</ele>
        <time>2023-09-17T09:31:29.424Z</time>
      </trkpt>
      <trkpt lat="43.7337" lon="1.45245">
        <ele>160.198729</ele>
        <time>2023-09-17T09:31:30.424Z</time>
      </trkpt>
      <trkpt lat="43.7337" lon="1.45245">
        <ele>160.198729</ele>
        <time>2023-09-17T09:31:30.424Z</time>
      </trkpt>
      <trkpt lat="43.73378" lon="1.45244">
        <ele>159.918646</ele>
        <time>2023-09-17T09:31:31.424Z</time>
      </trkpt>
      <trkpt lat="43.73378" lon="1.45244">
        <ele>159.918646</ele>
        <time>2023-09-17T09:31:31.424Z</time>
      </trkpt>
      <trkpt lat="43.73385" lon="1.45244">
        <ele>159.649712</ele>
        <time>2023-09-17T09:31:32.424Z</time>
      </trkpt>
      <trkpt lat="43.73385" lon="1.45244">
        <ele>159.649712</ele>
        <time>2023-09-17T09:31:32.424Z</time>
      </trkpt>
      <trkpt lat="43.73393" lon="1.45244">
        <ele>159.369832</ele>
        <time>2023-09-17T09:31:33.424Z</time>
      </trkpt>
      <trkpt lat="43.73393" lon="1.45244">
        <ele>159.369832</ele>
        <time>2023-09-17T09:31:33.424Z</time>
      </trkpt>
      <trkpt lat="43.73401" lon="1.45244">
        <ele>159.075292</ele>
        <time>2023-09-17T09:31:34.424Z</time>
      </trkpt>
      <trkpt lat="43.73401" lon="1.45244">
        <ele>159.075292</ele>
        <time>2023-09-17T09:31:34.424Z</time>
      </trkpt>
      <trkpt lat="43.73408" lon="1.45243">
        <ele>158.869462</ele>
        <time>2023-09-17T09:31:35.424Z</time>
      </trkpt>
      <trkpt lat="43.73408" lon="1.45243">
        <ele>158.869462</ele>
        <time>2023-09-17T09:31:35.424Z</time>
      </trkpt>
      <trkpt lat="43.73415" lon="1.45243">
        <ele>158.719815</ele>
        <time>2023-09-17T09:31:36.424Z</time>
      </trkpt>
      <trkpt lat="43.73415" lon="1.45243">
        <ele>158.719815</ele>
        <time>2023-09-17T09:31:36.424Z</time>
      </trkpt>
      <trkpt lat="43.73423" lon="1.45242">
        <ele>158.563888</ele>
        <time>2023-09-17T09:31:37.424Z</time>
      </trkpt>
      <trkpt lat="43.73423" lon="1.45242">
        <ele>158.563888</ele>
        <time>2023-09-17T09:31:37.424Z</time>
      </trkpt>
      <trkpt lat="43.7343" lon="1.45241">
        <ele>158.422057</ele>
        <time>2023-09-17T09:31:38.424Z</time>
      </trkpt>
      <trkpt lat="43.7343" lon="1.45241">
        <ele>158.422057</ele>
        <time>2023-09-17T09:31:38.424Z</time>
      </trkpt>
      <trkpt lat="43.73436" lon="1.45241">
        <ele>158.288709</ele>
        <time>2023-09-17T09:31:39.424Z</time>
      </trkpt>
      <trkpt lat="43.73436" lon="1.45241">
        <ele>158.288709</ele>
        <time>2023-09-17T09:31:39.424Z</time>
      </trkpt>
      <trkpt lat="43.73444" lon="1.45241">
        <ele>158.132972</ele>
        <time>2023-09-17T09:31:40.424Z</time>
      </trkpt>
      <trkpt lat="43.7345" lon="1.4524">
        <ele>157.999755</ele>
        <time>2023-09-17T09:31:41.424Z</time>
      </trkpt>
      <trkpt lat="43.7345" lon="1.4524">
        <ele>157.999755</ele>
        <time>2023-09-17T09:31:41.424Z</time>
      </trkpt>
      <trkpt lat="43.73457" lon="1.4524">
        <ele>157.852208</ele>
        <time>2023-09-17T09:31:42.424Z</time>
      </trkpt>
      <trkpt lat="43.73457" lon="1.4524">
        <ele>157.852208</ele>
        <time>2023-09-17T09:31:42.424Z</time>
      </trkpt>
      <trkpt lat="43.73464" lon="1.45239">
        <ele>157.718769</ele>
        <time>2023-09-17T09:31:43.424Z</time>
      </trkpt>
      <trkpt lat="43.73464" lon="1.45239">
        <ele>157.718769</ele>
        <time>2023-09-17T09:31:43.424Z</time>
      </trkpt>
      <trkpt lat="43.73471" lon="1.45238">
        <ele>157.568648</ele>
        <time>2023-09-17T09:31:44.424Z</time>
      </trkpt>
      <trkpt lat="43.73471" lon="1.45238">
        <ele>157.568648</ele>
        <time>2023-09-17T09:31:44.424Z</time>
      </trkpt>
      <trkpt lat="43.73478" lon="1.45238">
        <ele>157.420693</ele>
        <time>2023-09-17T09:31:45.424Z</time>
      </trkpt>
      <trkpt lat="43.73486" lon="1.45237">
        <ele>157.262277</ele>
        <time>2023-09-17T09:31:46.424Z</time>
      </trkpt>
      <trkpt lat="43.73486" lon="1.45237">
        <ele>157.262277</ele>
        <time>2023-09-17T09:31:46.424Z</time>
      </trkpt>
      <trkpt lat="43.73493" lon="1.45236">
        <ele>157.1139</ele>
        <time>2023-09-17T09:31:47.424Z</time>
      </trkpt>
      <trkpt lat="43.73493" lon="1.45236">
        <ele>157.1139</ele>
        <time>2023-09-17T09:31:47.424Z</time>
      </trkpt>
      <trkpt lat="43.735" lon="1.45234">
        <ele>156.965354</ele>
        <time>2023-09-17T09:31:48.424Z</time>
      </trkpt>
      <trkpt lat="43.73509" lon="1.45233">
        <ele>156.79849</ele>
        <time>2023-09-17T09:31:49.424Z</time>
      </trkpt>
      <trkpt lat="43.73509" lon="1.45233">
        <ele>156.79849</ele>
        <time>2023-09-17T09:31:49.424Z</time>
      </trkpt>
      <trkpt lat="43.73516" lon="1.45232">
        <ele>156.642366</ele>
        <time>2023-09-17T09:31:50.424Z</time>
      </trkpt>
      <trkpt lat="43.73516" lon="1.45232">
        <ele>156.642366</ele>
        <time>2023-09-17T09:31:50.424Z</time>
      </trkpt>
      <trkpt lat="43.73524" lon="1.45231">
        <ele>156.486123</ele>
        <time>2023-09-17T09:31:51.424Z</time>
      </trkpt>
      <trkpt lat="43.73524" lon="1.45231">
        <ele>156.486123</ele>
        <time>2023-09-17T09:31:51.424Z</time>
      </trkpt>
      <trkpt lat="43.73532" lon="1.45231">
        <ele>156.321829</ele>
        <time>2023-09-17T09:31:52.424Z</time>
      </trkpt>
      <trkpt lat="43.73539" lon="1.4523">
        <ele>156.171831</ele>
        <time>2023-09-17T09:31:53.424Z</time>
      </trkpt>
      <trkpt lat="43.73546" lon="1.45229">
        <ele>156.023876</ele>
        <time>2023-09-17T09:31:54.424Z</time>
      </trkpt>
      <trkpt lat="43.73546" lon="1.45229">
        <ele>156.023876</ele>
        <time>2023-09-17T09:31:54.424Z</time>
      </trkpt>
      <trkpt lat="43.73555" lon="1.45228">
        <ele>155.851408</ele>
        <time>2023-09-17T09:31:55.424Z</time>
      </trkpt>
      <trkpt lat="43.73562" lon="1.45227">
        <ele>155.701411</ele>
        <time>2023-09-17T09:31:56.424Z</time>
      </trkpt>
      <trkpt lat="43.7357" lon="1.45227">
        <ele>155.545287</ele>
        <time>2023-09-17T09:31:57.424Z</time>
      </trkpt>
      <trkpt lat="43.7357" lon="1.45227">
        <ele>155.545287</ele>
        <time>2023-09-17T09:31:57.424Z</time>
      </trkpt>
      <trkpt lat="43.73578" lon="1.45226">
        <ele>155.380992</ele>
        <time>2023-09-17T09:31:58.424Z</time>
      </trkpt>
      <trkpt lat="43.73585" lon="1.45225">
        <ele>155.23964</ele>
        <time>2023-09-17T09:31:59.424Z</time>
      </trkpt>
      <trkpt lat="43.73585" lon="1.45225">
        <ele>155.23964</ele>
        <time>2023-09-17T09:31:59.424Z</time>
      </trkpt>
      <trkpt lat="43.73592" lon="1.45224">
        <ele>155.119612</ele>
        <time>2023-09-17T09:32:00.424Z</time>
      </trkpt>
      <trkpt lat="43.73592" lon="1.45224">
        <ele>155.119612</ele>
        <time>2023-09-17T09:32:00.424Z</time>
      </trkpt>
      <trkpt lat="43.736" lon="1.45224">
        <ele>155.001284</ele>
        <time>2023-09-17T09:32:01.424Z</time>
      </trkpt>
      <trkpt lat="43.736" lon="1.45224">
        <ele>155.001284</ele>
        <time>2023-09-17T09:32:01.424Z</time>
      </trkpt>
      <trkpt lat="43.73608" lon="1.45223">
        <ele>154.876605</ele>
        <time>2023-09-17T09:32:02.424Z</time>
      </trkpt>
      <trkpt lat="43.73615" lon="1.45222">
        <ele>154.76286</ele>
        <time>2023-09-17T09:32:03.424Z</time>
      </trkpt>
      <trkpt lat="43.73615" lon="1.45222">
        <ele>154.76286</ele>
        <time>2023-09-17T09:32:03.424Z</time>
      </trkpt>
      <trkpt lat="43.73623" lon="1.45222">
        <ele>154.650739</ele>
        <time>2023-09-17T09:32:03.424Z</time>
      </trkpt>
      <trkpt lat="43.7363" lon="1.45221">
        <ele>154.532517</ele>
        <time>2023-09-17T09:32:05.424Z</time>
      </trkpt>
      <trkpt lat="43.7363" lon="1.45221">
        <ele>154.532517</ele>
        <time>2023-09-17T09:32:05.424Z</time>
      </trkpt>
      <trkpt lat="43.73637" lon="1.45221">
        <ele>154.425167</ele>
        <time>2023-09-17T09:32:05.424Z</time>
      </trkpt>
      <trkpt lat="43.73643" lon="1.45221">
        <ele>154.336558</ele>
        <time>2023-09-17T09:32:06.424Z</time>
      </trkpt>
      <trkpt lat="43.73647" lon="1.45221">
        <ele>154.271262</ele>
        <time>2023-09-17T09:32:08.424Z</time>
      </trkpt>
      <trkpt lat="43.73647" lon="1.45221">
        <ele>154.271262</ele>
        <time>2023-09-17T09:32:10.424Z</time>
      </trkpt>
      <trkpt lat="43.73652" lon="1.45221">
        <ele>154.199749</ele>
        <time>2023-09-17T09:32:11.424Z</time>
      </trkpt>
      <trkpt lat="43.73652" lon="1.4522">
        <ele>154.186866</ele>
        <time>2023-09-17T09:32:12.424Z</time>
      </trkpt>
      <trkpt lat="43.73655" lon="1.45221">
        <ele>154.150833</ele>
        <time>2023-09-17T09:32:13.424Z</time>
      </trkpt>
      <trkpt lat="43.73655" lon="1.45221">
        <ele>154.150833</ele>
        <time>2023-09-17T09:32:13.424Z</time>
      </trkpt>
      <trkpt lat="43.73658" lon="1.45221">
        <ele>154.103715</ele>
        <time>2023-09-17T09:32:14.424Z</time>
      </trkpt>
      <trkpt lat="43.73658" lon="1.45221">
        <ele>154.103715</ele>
        <time>2023-09-17T09:32:14.424Z</time>
      </trkpt>
      <trkpt lat="43.73662" lon="1.45223">
        <ele>154.036291</ele>
        <time>2023-09-17T09:32:15.424Z</time>
      </trkpt>
      <trkpt lat="43.73666" lon="1.45225">
        <ele>153.960638</ele>
        <time>2023-09-17T09:32:16.424Z</time>
      </trkpt>
      <trkpt lat="43.73671" lon="1.45229">
        <ele>153.883249</ele>
        <time>2023-09-17T09:32:17.424Z</time>
      </trkpt>
      <trkpt lat="43.73671" lon="1.45229">
        <ele>153.883249</ele>
        <time>2023-09-17T09:32:17.424Z</time>
      </trkpt>
      <trkpt lat="43.73673" lon="1.45232">
        <ele>153.835635</ele>
        <time>2023-09-17T09:32:18.424Z</time>
      </trkpt>
      <trkpt lat="43.73678" lon="1.45239">
        <ele>153.720396</ele>
        <time>2023-09-17T09:32:19.424Z</time>
      </trkpt>
      <trkpt lat="43.73678" lon="1.45239">
        <ele>153.720396</ele>
        <time>2023-09-17T09:32:19.424Z</time>
      </trkpt>
      <trkpt lat="43.7368" lon="1.45246">
        <ele>153.638099</ele>
        <time>2023-09-17T09:32:20.424Z</time>
      </trkpt>
      <trkpt lat="43.7368" lon="1.45246">
        <ele>153.638099</ele>
        <time>2023-09-17T09:32:20.424Z</time>
      </trkpt>
      <trkpt lat="43.73682" lon="1.45253">
        <ele>153.55394</ele>
        <time>2023-09-17T09:32:21.424Z</time>
      </trkpt>
      <trkpt lat="43.73682" lon="1.45253">
        <ele>153.55394</ele>
        <time>2023-09-17T09:32:21.424Z</time>
      </trkpt>
      <trkpt lat="43.73682" lon="1.45261">
        <ele>153.467683</ele>
        <time>2023-09-17T09:32:22.424Z</time>
      </trkpt>
      <trkpt lat="43.73683" lon="1.45264">
        <ele>153.431209</ele>
        <time>2023-09-17T09:32:23.424Z</time>
      </trkpt>
      <trkpt lat="43.73683" lon="1.45264">
        <ele>153.431209</ele>
        <time>2023-09-17T09:32:23.424Z</time>
      </trkpt>
      <trkpt lat="43.73685" lon="1.45277">
        <ele>153.284449</ele>
        <time>2023-09-17T09:32:24.424Z</time>
      </trkpt>
      <trkpt lat="43.73685" lon="1.45277">
        <ele>153.284449</ele>
        <time>2023-09-17T09:32:24.424Z</time>
      </trkpt>
      <trkpt lat="43.73687" lon="1.45284">
        <ele>153.199105</ele>
        <time>2023-09-17T09:32:25.424Z</time>
      </trkpt>
      <trkpt lat="43.73689" lon="1.45287">
        <ele>153.150831</ele>
        <time>2023-09-17T09:32:26.424Z</time>
      </trkpt>
      <trkpt lat="43.73689" lon="1.45287">
        <ele>153.150831</ele>
        <time>2023-09-17T09:32:26.424Z</time>
      </trkpt>
      <trkpt lat="43.73695" lon="1.45295">
        <ele>153.019428</ele>
        <time>2023-09-17T09:32:27.424Z</time>
      </trkpt>
      <trkpt lat="43.73695" lon="1.45295">
        <ele>153.019428</ele>
        <time>2023-09-17T09:32:27.424Z</time>
      </trkpt>
      <trkpt lat="43.737" lon="1.45298">
        <ele>152.938889</ele>
        <time>2023-09-17T09:32:27.424Z</time>
      </trkpt>
      <trkpt lat="43.73705" lon="1.45301">
        <ele>152.845242</ele>
        <time>2023-09-17T09:32:29.424Z</time>
      </trkpt>
      <trkpt lat="43.73705" lon="1.45301">
        <ele>152.845242</ele>
        <time>2023-09-17T09:32:29.424Z</time>
      </trkpt>
      <trkpt lat="43.73711" lon="1.45303">
        <ele>152.746665</ele>
        <time>2023-09-17T09:32:29.424Z</time>
      </trkpt>
      <trkpt lat="43.73711" lon="1.45303">
        <ele>152.746665</ele>
        <time>2023-09-17T09:32:29.424Z</time>
      </trkpt>
      <trkpt lat="43.73718" lon="1.45306">
        <ele>152.647775</ele>
        <time>2023-09-17T09:32:31.424Z</time>
      </trkpt>
      <trkpt lat="43.73718" lon="1.45306">
        <ele>152.647775</ele>
        <time>2023-09-17T09:32:31.424Z</time>
      </trkpt>
      <trkpt lat="43.73724" lon="1.45308">
        <ele>152.548885</ele>
        <time>2023-09-17T09:32:32.424Z</time>
      </trkpt>
      <trkpt lat="43.73729" lon="1.45311">
        <ele>152.466247</ele>
        <time>2023-09-17T09:32:32.424Z</time>
      </trkpt>
      <trkpt lat="43.73729" lon="1.45311">
        <ele>152.466247</ele>
        <time>2023-09-17T09:32:32.424Z</time>
      </trkpt>
      <trkpt lat="43.73736" lon="1.45315">
        <ele>152.290822</ele>
        <time>2023-09-17T09:32:34.424Z</time>
      </trkpt>
      <trkpt lat="43.73742" lon="1.45318">
        <ele>152.151886</ele>
        <time>2023-09-17T09:32:35.424Z</time>
      </trkpt>
      <trkpt lat="43.73748" lon="1.45321">
        <ele>152.01295</ele>
        <time>2023-09-17T09:32:36.424Z</time>
      </trkpt>
      <trkpt lat="43.73754" lon="1.45322">
        <ele>151.887799</ele>
        <time>2023-09-17T09:32:37.424Z</time>
      </trkpt>
      <trkpt lat="43.73754" lon="1.45322">
        <ele>151.887799</ele>
        <time>2023-09-17T09:32:37.424Z</time>
      </trkpt>
      <trkpt lat="43.73762" lon="1.45325">
        <ele>151.718922</ele>
        <time>2023-09-17T09:32:38.424Z</time>
      </trkpt>
      <trkpt lat="43.73762" lon="1.45325">
        <ele>151.718922</ele>
        <time>2023-09-17T09:32:38.424Z</time>
      </trkpt>
      <trkpt lat="43.73768" lon="1.45327">
        <ele>151.589315</ele>
        <time>2023-09-17T09:32:39.424Z</time>
      </trkpt>
      <trkpt lat="43.73768" lon="1.45327">
        <ele>151.589315</ele>
        <time>2023-09-17T09:32:39.424Z</time>
      </trkpt>
      <trkpt lat="43.73774" lon="1.45329">
        <ele>151.437605</ele>
        <time>2023-09-17T09:32:40.424Z</time>
      </trkpt>
      <trkpt lat="43.73781" lon="1.45331">
        <ele>151.292171</ele>
        <time>2023-09-17T09:32:41.424Z</time>
      </trkpt>
      <trkpt lat="43.73781" lon="1.45331">
        <ele>151.292171</ele>
        <time>2023-09-17T09:32:41.424Z</time>
      </trkpt>
      <trkpt lat="43.73788" lon="1.45334">
        <ele>151.130318</ele>
        <time>2023-09-17T09:32:42.424Z</time>
      </trkpt>
      <trkpt lat="43.73788" lon="1.45334">
        <ele>151.130318</ele>
        <time>2023-09-17T09:32:42.424Z</time>
      </trkpt>
      <trkpt lat="43.73794" lon="1.45336">
        <ele>150.995147</ele>
        <time>2023-09-17T09:32:42.424Z</time>
      </trkpt>
      <trkpt lat="43.73794" lon="1.45336">
        <ele>150.995147</ele>
        <time>2023-09-17T09:32:42.424Z</time>
      </trkpt>
      <trkpt lat="43.738" lon="1.45337">
        <ele>150.869714</ele>
        <time>2023-09-17T09:32:44.424Z</time>
      </trkpt>
      <trkpt lat="43.738" lon="1.45337">
        <ele>150.869714</ele>
        <time>2023-09-17T09:32:44.424Z</time>
      </trkpt>
      <trkpt lat="43.73808" lon="1.45339">
        <ele>150.703282</ele>
        <time>2023-09-17T09:32:44.424Z</time>
      </trkpt>
      <trkpt lat="43.73811" lon="1.45339">
        <ele>150.635974</ele>
        <time>2023-09-17T09:32:46.424Z</time>
      </trkpt>
      <trkpt lat="43.73811" lon="1.45339">
        <ele>150.635974</ele>
        <time>2023-09-17T09:32:46.424Z</time>
      </trkpt>
      <trkpt lat="43.73821" lon="1.4534">
        <ele>150.404129</ele>
        <time>2023-09-17T09:32:47.424Z</time>
      </trkpt>
      <trkpt lat="43.73821" lon="1.4534">
        <ele>150.404129</ele>
        <time>2023-09-17T09:32:47.424Z</time>
      </trkpt>
      <trkpt lat="43.73828" lon="1.4534">
        <ele>150.265762</ele>
        <time>2023-09-17T09:32:48.424Z</time>
      </trkpt>
      <trkpt lat="43.73828" lon="1.4534">
        <ele>150.265762</ele>
        <time>2023-09-17T09:32:48.424Z</time>
      </trkpt>
      <trkpt lat="43.73843" lon="1.45339">
        <ele>149.942796</ele>
        <time>2023-09-17T09:32:49.424Z</time>
      </trkpt>
      <trkpt lat="43.73843" lon="1.45339">
        <ele>149.942796</ele>
        <time>2023-09-17T09:32:49.424Z</time>
      </trkpt>
      <trkpt lat="43.7385" lon="1.45337">
        <ele>149.774903</ele>
        <time>2023-09-17T09:32:51.424Z</time>
      </trkpt>
      <trkpt lat="43.7385" lon="1.45337">
        <ele>149.774903</ele>
        <time>2023-09-17T09:32:51.424Z</time>
      </trkpt>
      <trkpt lat="43.73864" lon="1.45334">
        <ele>149.483584</ele>
        <time>2023-09-17T09:32:52.424Z</time>
      </trkpt>
      <trkpt lat="43.73864" lon="1.45334">
        <ele>149.483584</ele>
        <time>2023-09-17T09:32:52.424Z</time>
      </trkpt>
      <trkpt lat="43.73871" lon="1.45332">
        <ele>149.325127</ele>
        <time>2023-09-17T09:32:54.424Z</time>
      </trkpt>
      <trkpt lat="43.73871" lon="1.45332">
        <ele>149.325127</ele>
        <time>2023-09-17T09:32:54.424Z</time>
      </trkpt>
      <trkpt lat="43.73879" lon="1.4533">
        <ele>149.15604</ele>
        <time>2023-09-17T09:32:55.424Z</time>
      </trkpt>
      <trkpt lat="43.73885" lon="1.45328">
        <ele>149.005419</ele>
        <time>2023-09-17T09:32:56.424Z</time>
      </trkpt>
      <trkpt lat="43.73885" lon="1.45328">
        <ele>149.005419</ele>
        <time>2023-09-17T09:32:56.424Z</time>
      </trkpt>
      <trkpt lat="43.73893" lon="1.45326">
        <ele>148.835125</ele>
        <time>2023-09-17T09:32:57.424Z</time>
      </trkpt>
      <trkpt lat="43.739" lon="1.45324">
        <ele>148.684156</ele>
        <time>2023-09-17T09:32:58.424Z</time>
      </trkpt>
      <trkpt lat="43.739" lon="1.45324">
        <ele>148.684156</ele>
        <time>2023-09-17T09:32:58.424Z</time>
      </trkpt>
      <trkpt lat="43.73915" lon="1.4532">
        <ele>148.46573</ele>
        <time>2023-09-17T09:32:59.424Z</time>
      </trkpt>
      <trkpt lat="43.73915" lon="1.4532">
        <ele>148.46573</ele>
        <time>2023-09-17T09:32:59.424Z</time>
      </trkpt>
      <trkpt lat="43.7393" lon="1.4532">
        <ele>148.304361</ele>
        <time>2023-09-17T09:33:01.424Z</time>
      </trkpt>
      <trkpt lat="43.73937" lon="1.45322">
        <ele>148.220593</ele>
        <time>2023-09-17T09:33:03.424Z</time>
      </trkpt>
      <trkpt lat="43.73937" lon="1.45322">
        <ele>148.220593</ele>
        <time>2023-09-17T09:33:03.424Z</time>
      </trkpt>
      <trkpt lat="43.73944" lon="1.45325">
        <ele>148.145891</ele>
        <time>2023-09-17T09:33:04.424Z</time>
      </trkpt>
      <trkpt lat="43.73957" lon="1.45333">
        <ele>147.983957</ele>
        <time>2023-09-17T09:33:05.424Z</time>
      </trkpt>
      <trkpt lat="43.73957" lon="1.45333">
        <ele>147.983957</ele>
        <time>2023-09-17T09:33:05.424Z</time>
      </trkpt>
      <trkpt lat="43.73964" lon="1.45337">
        <ele>147.901695</ele>
        <time>2023-09-17T09:33:06.424Z</time>
      </trkpt>
      <trkpt lat="43.73971" lon="1.45342">
        <ele>147.823345</ele>
        <time>2023-09-17T09:33:07.424Z</time>
      </trkpt>
      <trkpt lat="43.73978" lon="1.45346">
        <ele>147.740753</ele>
        <time>2023-09-17T09:33:09.424Z</time>
      </trkpt>
      <trkpt lat="43.73978" lon="1.45346">
        <ele>147.740753</ele>
        <time>2023-09-17T09:33:09.424Z</time>
      </trkpt>
      <trkpt lat="43.73986" lon="1.45352">
        <ele>147.636527</ele>
        <time>2023-09-17T09:33:11.424Z</time>
      </trkpt>
      <trkpt lat="43.73997" lon="1.45359">
        <ele>147.511581</ele>
        <time>2023-09-17T09:33:13.424Z</time>
      </trkpt>
      <trkpt lat="43.73997" lon="1.45359">
        <ele>147.511581</ele>
        <time>2023-09-17T09:33:13.424Z</time>
      </trkpt>
      <trkpt lat="43.74007" lon="1.45366">
        <ele>147.39024</ele>
        <time>2023-09-17T09:33:14.424Z</time>
      </trkpt>
      <trkpt lat="43.74007" lon="1.45366">
        <ele>147.39024</ele>
        <time>2023-09-17T09:33:14.424Z</time>
      </trkpt>
      <trkpt lat="43.7402" lon="1.45376">
        <ele>147.22818</ele>
        <time>2023-09-17T09:33:16.424Z</time>
      </trkpt>
      <trkpt lat="43.7402" lon="1.45376">
        <ele>147.22818</ele>
        <time>2023-09-17T09:33:16.424Z</time>
      </trkpt>
      <trkpt lat="43.74025" lon="1.45379">
        <ele>147.171713</ele>
        <time>2023-09-17T09:33:17.424Z</time>
      </trkpt>
      <trkpt lat="43.7403" lon="1.45383">
        <ele>147.102864</ele>
        <time>2023-09-17T09:33:18.424Z</time>
      </trkpt>
      <trkpt lat="43.74036" lon="1.45387">
        <ele>147.029436</ele>
        <time>2023-09-17T09:33:19.424Z</time>
      </trkpt>
      <trkpt lat="43.74043" lon="1.45391">
        <ele>146.956009</ele>
        <time>2023-09-17T09:33:20.424Z</time>
      </trkpt>
      <trkpt lat="43.74048" lon="1.45395">
        <ele>146.891014</ele>
        <time>2023-09-17T09:33:21.424Z</time>
      </trkpt>
      <trkpt lat="43.74054" lon="1.45399">
        <ele>146.820135</ele>
        <time>2023-09-17T09:33:21.424Z</time>
      </trkpt>
      <trkpt lat="43.7406" lon="1.45403">
        <ele>146.746708</ele>
        <time>2023-09-17T09:33:23.424Z</time>
      </trkpt>
      <trkpt lat="43.7406" lon="1.45403">
        <ele>146.746708</ele>
        <time>2023-09-17T09:33:23.424Z</time>
      </trkpt>
      <trkpt lat="43.74065" lon="1.45408">
        <ele>146.677151</ele>
        <time>2023-09-17T09:33:24.424Z</time>
      </trkpt>
      <trkpt lat="43.74065" lon="1.45408">
        <ele>146.677151</ele>
        <time>2023-09-17T09:33:24.424Z</time>
      </trkpt>
      <trkpt lat="43.74072" lon="1.45412">
        <ele>146.56041</ele>
        <time>2023-09-17T09:33:25.424Z</time>
      </trkpt>
      <trkpt lat="43.74072" lon="1.45412">
        <ele>146.56041</ele>
        <time>2023-09-17T09:33:25.424Z</time>
      </trkpt>
      <trkpt lat="43.74077" lon="1.45417">
        <ele>146.365575</ele>
        <time>2023-09-17T09:33:25.424Z</time>
      </trkpt>
      <trkpt lat="43.74083" lon="1.45421">
        <ele>146.171817</ele>
        <time>2023-09-17T09:33:27.424Z</time>
      </trkpt>
      <trkpt lat="43.74083" lon="1.45421">
        <ele>146.171817</ele>
        <time>2023-09-17T09:33:27.424Z</time>
      </trkpt>
      <trkpt lat="43.74088" lon="1.45426">
        <ele>145.987806</ele>
        <time>2023-09-17T09:33:28.424Z</time>
      </trkpt>
      <trkpt lat="43.74088" lon="1.45426">
        <ele>145.987806</ele>
        <time>2023-09-17T09:33:28.424Z</time>
      </trkpt>
      <trkpt lat="43.74094" lon="1.45431">
        <ele>145.788495</ele>
        <time>2023-09-17T09:33:29.424Z</time>
      </trkpt>
      <trkpt lat="43.74099" lon="1.45435">
        <ele>145.603654</ele>
        <time>2023-09-17T09:33:29.424Z</time>
      </trkpt>
      <trkpt lat="43.74105" lon="1.4544">
        <ele>145.404113</ele>
        <time>2023-09-17T09:33:30.424Z</time>
      </trkpt>
      <trkpt lat="43.7411" lon="1.45445">
        <ele>145.220408</ele>
        <time>2023-09-17T09:33:32.424Z</time>
      </trkpt>
      <trkpt lat="43.7411" lon="1.45445">
        <ele>145.220408</ele>
        <time>2023-09-17T09:33:32.424Z</time>
      </trkpt>
      <trkpt lat="43.74115" lon="1.45449">
        <ele>145.04527</ele>
        <time>2023-09-17T09:33:33.424Z</time>
      </trkpt>
      <trkpt lat="43.74115" lon="1.45449">
        <ele>145.04527</ele>
        <time>2023-09-17T09:33:33.424Z</time>
      </trkpt>
      <trkpt lat="43.74126" lon="1.45458">
        <ele>144.689823</ele>
        <time>2023-09-17T09:33:35.424Z</time>
      </trkpt>
      <trkpt lat="43.74132" lon="1.45463">
        <ele>144.48055</ele>
        <time>2023-09-17T09:33:36.424Z</time>
      </trkpt>
      <trkpt lat="43.74137" lon="1.45468">
        <ele>144.296845</ele>
        <time>2023-09-17T09:33:37.424Z</time>
      </trkpt>
      <trkpt lat="43.74143" lon="1.45472">
        <ele>144.111749</ele>
        <time>2023-09-17T09:33:38.424Z</time>
      </trkpt>
      <trkpt lat="43.74143" lon="1.45472">
        <ele>144.111749</ele>
        <time>2023-09-17T09:33:38.424Z</time>
      </trkpt>
      <trkpt lat="43.74148" lon="1.45476">
        <ele>143.934478</ele>
        <time>2023-09-17T09:33:39.424Z</time>
      </trkpt>
      <trkpt lat="43.74154" lon="1.45481">
        <ele>143.734409</ele>
        <time>2023-09-17T09:33:40.424Z</time>
      </trkpt>
      <trkpt lat="43.74154" lon="1.45481">
        <ele>143.734409</ele>
        <time>2023-09-17T09:33:40.424Z</time>
      </trkpt>
      <trkpt lat="43.7416" lon="1.45485">
        <ele>143.544785</ele>
        <time>2023-09-17T09:33:41.424Z</time>
      </trkpt>
      <trkpt lat="43.7416" lon="1.45485">
        <ele>143.544785</ele>
        <time>2023-09-17T09:33:41.424Z</time>
      </trkpt>
      <trkpt lat="43.74166" lon="1.45489">
        <ele>143.334134</ele>
        <time>2023-09-17T09:33:42.424Z</time>
      </trkpt>
      <trkpt lat="43.74166" lon="1.45489">
        <ele>143.334134</ele>
        <time>2023-09-17T09:33:42.424Z</time>
      </trkpt>
      <trkpt lat="43.74173" lon="1.45494">
        <ele>143.116784</ele>
        <time>2023-09-17T09:33:42.424Z</time>
      </trkpt>
      <trkpt lat="43.74173" lon="1.45494">
        <ele>143.116784</ele>
        <time>2023-09-17T09:33:42.424Z</time>
      </trkpt>
      <trkpt lat="43.74179" lon="1.45499">
        <ele>142.897373</ele>
        <time>2023-09-17T09:33:44.424Z</time>
      </trkpt>
      <trkpt lat="43.74179" lon="1.45499">
        <ele>142.897373</ele>
        <time>2023-09-17T09:33:44.424Z</time>
      </trkpt>
      <trkpt lat="43.74186" lon="1.45504">
        <ele>142.668205</ele>
        <time>2023-09-17T09:33:45.424Z</time>
      </trkpt>
      <trkpt lat="43.74186" lon="1.45504">
        <ele>142.668205</ele>
        <time>2023-09-17T09:33:45.424Z</time>
      </trkpt>
      <trkpt lat="43.74193" lon="1.4551">
        <ele>142.436474</ele>
        <time>2023-09-17T09:33:46.424Z</time>
      </trkpt>
      <trkpt lat="43.74193" lon="1.4551">
        <ele>142.436474</ele>
        <time>2023-09-17T09:33:46.424Z</time>
      </trkpt>
      <trkpt lat="43.74199" lon="1.45515">
        <ele>142.212756</ele>
        <time>2023-09-17T09:33:46.424Z</time>
      </trkpt>
      <trkpt lat="43.74199" lon="1.45515">
        <ele>142.212756</ele>
        <time>2023-09-17T09:33:46.424Z</time>
      </trkpt>
      <trkpt lat="43.74207" lon="1.45521">
        <ele>141.965962</ele>
        <time>2023-09-17T09:33:48.424Z</time>
      </trkpt>
      <trkpt lat="43.74207" lon="1.45521">
        <ele>141.965962</ele>
        <time>2023-09-17T09:33:48.424Z</time>
      </trkpt>
      <trkpt lat="43.74213" lon="1.45527">
        <ele>141.727794</ele>
        <time>2023-09-17T09:33:49.424Z</time>
      </trkpt>
      <trkpt lat="43.74213" lon="1.45527">
        <ele>141.727794</ele>
        <time>2023-09-17T09:33:49.424Z</time>
      </trkpt>
      <trkpt lat="43.74221" lon="1.45533">
        <ele>141.482704</ele>
        <time>2023-09-17T09:33:50.424Z</time>
      </trkpt>
      <trkpt lat="43.74221" lon="1.45533">
        <ele>141.482704</ele>
        <time>2023-09-17T09:33:50.424Z</time>
      </trkpt>
      <trkpt lat="43.74228" lon="1.45538">
        <ele>141.285139</ele>
        <time>2023-09-17T09:33:51.424Z</time>
      </trkpt>
      <trkpt lat="43.74228" lon="1.45538">
        <ele>141.285139</ele>
        <time>2023-09-17T09:33:51.424Z</time>
      </trkpt>
      <trkpt lat="43.74235" lon="1.45544">
        <ele>141.128897</ele>
        <time>2023-09-17T09:33:52.424Z</time>
      </trkpt>
      <trkpt lat="43.74235" lon="1.45544">
        <ele>141.128897</ele>
        <time>2023-09-17T09:33:52.424Z</time>
      </trkpt>
      <trkpt lat="43.74242" lon="1.4555">
        <ele>140.97985</ele>
        <time>2023-09-17T09:33:52.424Z</time>
      </trkpt>
      <trkpt lat="43.74242" lon="1.4555">
        <ele>140.97985</ele>
        <time>2023-09-17T09:33:52.424Z</time>
      </trkpt>
      <trkpt lat="43.74249" lon="1.45556">
        <ele>140.829946</ele>
        <time>2023-09-17T09:33:54.424Z</time>
      </trkpt>
      <trkpt lat="43.74249" lon="1.45556">
        <ele>140.829946</ele>
        <time>2023-09-17T09:33:54.424Z</time>
      </trkpt>
      <trkpt lat="43.74262" lon="1.45568">
        <ele>140.54114</ele>
        <time>2023-09-17T09:33:56.424Z</time>
      </trkpt>
      <trkpt lat="43.74262" lon="1.45568">
        <ele>140.54114</ele>
        <time>2023-09-17T09:33:56.424Z</time>
      </trkpt>
      <trkpt lat="43.74268" lon="1.45574">
        <ele>140.400332</ele>
        <time>2023-09-17T09:33:57.424Z</time>
      </trkpt>
      <trkpt lat="43.74268" lon="1.45574">
        <ele>140.400332</ele>
        <time>2023-09-17T09:33:57.424Z</time>
      </trkpt>
      <trkpt lat="43.74274" lon="1.45578">
        <ele>140.267045</ele>
        <time>2023-09-17T09:33:58.424Z</time>
      </trkpt>
      <trkpt lat="43.74274" lon="1.45578">
        <ele>140.267045</ele>
        <time>2023-09-17T09:33:58.424Z</time>
      </trkpt>
      <trkpt lat="43.74281" lon="1.45583">
        <ele>140.121836</ele>
        <time>2023-09-17T09:33:59.424Z</time>
      </trkpt>
      <trkpt lat="43.74288" lon="1.45589">
        <ele>139.975984</ele>
        <time>2023-09-17T09:34:00.424Z</time>
      </trkpt>
      <trkpt lat="43.74288" lon="1.45589">
        <ele>139.975984</ele>
        <time>2023-09-17T09:34:00.424Z</time>
      </trkpt>
      <trkpt lat="43.74294" lon="1.45593">
        <ele>139.85892</ele>
        <time>2023-09-17T09:34:01.424Z</time>
      </trkpt>
      <trkpt lat="43.74299" lon="1.45599">
        <ele>139.733474</ele>
        <time>2023-09-17T09:34:02.424Z</time>
      </trkpt>
      <trkpt lat="43.74305" lon="1.45604">
        <ele>139.607183</ele>
        <time>2023-09-17T09:34:03.424Z</time>
      </trkpt>
      <trkpt lat="43.7431" lon="1.45608">
        <ele>139.489383</ele>
        <time>2023-09-17T09:34:03.424Z</time>
      </trkpt>
      <trkpt lat="43.74315" lon="1.45613">
        <ele>139.378418</ele>
        <time>2023-09-17T09:34:05.424Z</time>
      </trkpt>
      <trkpt lat="43.7432" lon="1.45617">
        <ele>139.271894</ele>
        <time>2023-09-17T09:34:05.424Z</time>
      </trkpt>
      <trkpt lat="43.74326" lon="1.45622">
        <ele>139.148576</ele>
        <time>2023-09-17T09:34:06.424Z</time>
      </trkpt>
      <trkpt lat="43.74331" lon="1.45627">
        <ele>139.032077</ele>
        <time>2023-09-17T09:34:08.424Z</time>
      </trkpt>
      <trkpt lat="43.74337" lon="1.45631">
        <ele>138.91145</ele>
        <time>2023-09-17T09:34:09.424Z</time>
      </trkpt>
      <trkpt lat="43.74343" lon="1.45635">
        <ele>138.794515</ele>
        <time>2023-09-17T09:34:10.424Z</time>
      </trkpt>
      <trkpt lat="43.74348" lon="1.45638">
        <ele>138.678714</ele>
        <time>2023-09-17T09:34:10.424Z</time>
      </trkpt>
      <trkpt lat="43.74354" lon="1.45642">
        <ele>138.56123</ele>
        <time>2023-09-17T09:34:12.424Z</time>
      </trkpt>
      <trkpt lat="43.74361" lon="1.45645">
        <ele>138.432321</ele>
        <time>2023-09-17T09:34:13.424Z</time>
      </trkpt>
      <trkpt lat="43.74361" lon="1.45645">
        <ele>138.432321</ele>
        <time>2023-09-17T09:34:13.424Z</time>
      </trkpt>
      <trkpt lat="43.74367" lon="1.45649">
        <ele>138.305133</ele>
        <time>2023-09-17T09:34:14.424Z</time>
      </trkpt>
      <trkpt lat="43.74367" lon="1.45649">
        <ele>138.305133</ele>
        <time>2023-09-17T09:34:14.424Z</time>
      </trkpt>
      <trkpt lat="43.74374" lon="1.45652">
        <ele>138.177623</ele>
        <time>2023-09-17T09:34:14.424Z</time>
      </trkpt>
      <trkpt lat="43.7438" lon="1.45655">
        <ele>138.05884</ele>
        <time>2023-09-17T09:34:16.424Z</time>
      </trkpt>
      <trkpt lat="43.74386" lon="1.45658">
        <ele>137.92124</ele>
        <time>2023-09-17T09:34:17.424Z</time>
      </trkpt>
      <trkpt lat="43.74386" lon="1.45658">
        <ele>137.92124</ele>
        <time>2023-09-17T09:34:17.424Z</time>
      </trkpt>
      <trkpt lat="43.74393" lon="1.4566">
        <ele>137.780383</ele>
        <time>2023-09-17T09:34:17.424Z</time>
      </trkpt>
      <trkpt lat="43.74393" lon="1.4566">
        <ele>137.780383</ele>
        <time>2023-09-17T09:34:17.424Z</time>
      </trkpt>
      <trkpt lat="43.74399" lon="1.45662">
        <ele>137.650097</ele>
        <time>2023-09-17T09:34:18.424Z</time>
      </trkpt>
      <trkpt lat="43.74405" lon="1.45664">
        <ele>137.519811</ele>
        <time>2023-09-17T09:34:20.424Z</time>
      </trkpt>
      <trkpt lat="43.74405" lon="1.45664">
        <ele>137.519811</ele>
        <time>2023-09-17T09:34:20.424Z</time>
      </trkpt>
      <trkpt lat="43.74411" lon="1.45665">
        <ele>137.390089</ele>
        <time>2023-09-17T09:34:21.424Z</time>
      </trkpt>
      <trkpt lat="43.74417" lon="1.45667">
        <ele>137.260366</ele>
        <time>2023-09-17T09:34:22.424Z</time>
      </trkpt>
      <trkpt lat="43.74423" lon="1.45668">
        <ele>137.13037</ele>
        <time>2023-09-17T09:34:23.424Z</time>
      </trkpt>
      <trkpt lat="43.74429" lon="1.4567">
        <ele>137.008885</ele>
        <time>2023-09-17T09:34:24.424Z</time>
      </trkpt>
      <trkpt lat="43.74435" lon="1.45671">
        <ele>136.884751</ele>
        <time>2023-09-17T09:34:25.424Z</time>
      </trkpt>
      <trkpt lat="43.74435" lon="1.45671">
        <ele>136.884751</ele>
        <time>2023-09-17T09:34:25.424Z</time>
      </trkpt>
      <trkpt lat="43.7444" lon="1.45674">
        <ele>136.768896</ele>
        <time>2023-09-17T09:34:26.424Z</time>
      </trkpt>
      <trkpt lat="43.74446" lon="1.45676">
        <ele>136.644581</ele>
        <time>2023-09-17T09:34:26.424Z</time>
      </trkpt>
      <trkpt lat="43.74446" lon="1.45676">
        <ele>136.644581</ele>
        <time>2023-09-17T09:34:26.424Z</time>
      </trkpt>
      <trkpt lat="43.74451" lon="1.45679">
        <ele>136.518439</ele>
        <time>2023-09-17T09:34:28.424Z</time>
      </trkpt>
      <trkpt lat="43.74451" lon="1.45679">
        <ele>136.518439</ele>
        <time>2023-09-17T09:34:28.424Z</time>
      </trkpt>
      <trkpt lat="43.74458" lon="1.45682">
        <ele>136.38238</ele>
        <time>2023-09-17T09:34:28.424Z</time>
      </trkpt>
      <trkpt lat="43.74458" lon="1.45682">
        <ele>136.38238</ele>
        <time>2023-09-17T09:34:28.424Z</time>
      </trkpt>
      <trkpt lat="43.74464" lon="1.45685">
        <ele>136.227985</ele>
        <time>2023-09-17T09:34:29.424Z</time>
      </trkpt>
      <trkpt lat="43.74464" lon="1.45685">
        <ele>136.227985</ele>
        <time>2023-09-17T09:34:29.424Z</time>
      </trkpt>
      <trkpt lat="43.74471" lon="1.45688">
        <ele>136.075618</ele>
        <time>2023-09-17T09:34:30.424Z</time>
      </trkpt>
      <trkpt lat="43.74471" lon="1.45688">
        <ele>136.075618</ele>
        <time>2023-09-17T09:34:30.424Z</time>
      </trkpt>
      <trkpt lat="43.74478" lon="1.45691">
        <ele>135.925483</ele>
        <time>2023-09-17T09:34:31.424Z</time>
      </trkpt>
      <trkpt lat="43.74478" lon="1.45691">
        <ele>135.925483</ele>
        <time>2023-09-17T09:34:31.424Z</time>
      </trkpt>
      <trkpt lat="43.74485" lon="1.45694">
        <ele>135.769294</ele>
        <time>2023-09-17T09:34:32.424Z</time>
      </trkpt>
      <trkpt lat="43.74485" lon="1.45694">
        <ele>135.769294</ele>
        <time>2023-09-17T09:34:32.424Z</time>
      </trkpt>
      <trkpt lat="43.74493" lon="1.45696">
        <ele>135.614229</ele>
        <time>2023-09-17T09:34:33.424Z</time>
      </trkpt>
      <trkpt lat="43.74493" lon="1.45696">
        <ele>135.614229</ele>
        <time>2023-09-17T09:34:33.424Z</time>
      </trkpt>
      <trkpt lat="43.745" lon="1.45698">
        <ele>135.458975</ele>
        <time>2023-09-17T09:34:34.424Z</time>
      </trkpt>
      <trkpt lat="43.745" lon="1.45698">
        <ele>135.458975</ele>
        <time>2023-09-17T09:34:34.424Z</time>
      </trkpt>
      <trkpt lat="43.74507" lon="1.45699">
        <ele>135.307735</ele>
        <time>2023-09-17T09:34:35.424Z</time>
      </trkpt>
      <trkpt lat="43.74507" lon="1.45699">
        <ele>135.307735</ele>
        <time>2023-09-17T09:34:35.424Z</time>
      </trkpt>
      <trkpt lat="43.74514" lon="1.45698">
        <ele>135.171502</ele>
        <time>2023-09-17T09:34:36.424Z</time>
      </trkpt>
      <trkpt lat="43.74519" lon="1.45698">
        <ele>135.066114</ele>
        <time>2023-09-17T09:34:37.424Z</time>
      </trkpt>
      <trkpt lat="43.74522" lon="1.45698">
        <ele>135.002647</ele>
        <time>2023-09-17T09:34:38.424Z</time>
      </trkpt>
      <trkpt lat="43.74522" lon="1.45698">
        <ele>135.002647</ele>
        <time>2023-09-17T09:34:38.424Z</time>
      </trkpt>
      <trkpt lat="43.74524" lon="1.45698">
        <ele>134.946033</ele>
        <time>2023-09-17T09:34:39.424Z</time>
      </trkpt>
      <trkpt lat="43.74527" lon="1.45697">
        <ele>134.878212</ele>
        <time>2023-09-17T09:34:40.424Z</time>
      </trkpt>
      <trkpt lat="43.7453" lon="1.45695">
        <ele>134.808492</ele>
        <time>2023-09-17T09:34:41.424Z</time>
      </trkpt>
      <trkpt lat="43.74533" lon="1.45691">
        <ele>134.72787</ele>
        <time>2023-09-17T09:34:42.424Z</time>
      </trkpt>
      <trkpt lat="43.74535" lon="1.45686">
        <ele>134.637016</ele>
        <time>2023-09-17T09:34:44.424Z</time>
      </trkpt>
      <trkpt lat="43.74536" lon="1.45681">
        <ele>134.565157</ele>
        <time>2023-09-17T09:34:45.424Z</time>
      </trkpt>
      <trkpt lat="43.74536" lon="1.45681">
        <ele>134.565157</ele>
        <time>2023-09-17T09:34:45.424Z</time>
      </trkpt>
      <trkpt lat="43.74539" lon="1.45671">
        <ele>134.407919</ele>
        <time>2023-09-17T09:34:46.424Z</time>
      </trkpt>
      <trkpt lat="43.7454" lon="1.45665">
        <ele>134.300373</ele>
        <time>2023-09-17T09:34:46.424Z</time>
      </trkpt>
      <trkpt lat="43.74542" lon="1.45657">
        <ele>134.232484</ele>
        <time>2023-09-17T09:34:48.424Z</time>
      </trkpt>
      <trkpt lat="43.74542" lon="1.45657">
        <ele>134.232484</ele>
        <time>2023-09-17T09:34:48.424Z</time>
      </trkpt>
      <trkpt lat="43.74543" lon="1.45649">
        <ele>134.194335</ele>
        <time>2023-09-17T09:34:48.424Z</time>
      </trkpt>
      <trkpt lat="43.74545" lon="1.45641">
        <ele>134.155005</ele>
        <time>2023-09-17T09:34:50.424Z</time>
      </trkpt>
      <trkpt lat="43.74547" lon="1.45633">
        <ele>134.117758</ele>
        <time>2023-09-17T09:34:51.424Z</time>
      </trkpt>
      <trkpt lat="43.74547" lon="1.45633">
        <ele>134.117758</ele>
        <time>2023-09-17T09:34:51.424Z</time>
      </trkpt>
      <trkpt lat="43.74549" lon="1.45626">
        <ele>134.080639</ele>
        <time>2023-09-17T09:34:52.424Z</time>
      </trkpt>
      <trkpt lat="43.74551" lon="1.45618">
        <ele>134.041309</ele>
        <time>2023-09-17T09:34:53.424Z</time>
      </trkpt>
      <trkpt lat="43.74551" lon="1.45618">
        <ele>134.041309</ele>
        <time>2023-09-17T09:34:53.424Z</time>
      </trkpt>
      <trkpt lat="43.74552" lon="1.45609">
        <ele>134.000737</ele>
        <time>2023-09-17T09:34:54.424Z</time>
      </trkpt>
      <trkpt lat="43.74554" lon="1.45601">
        <ele>133.961684</ele>
        <time>2023-09-17T09:34:55.424Z</time>
      </trkpt>
      <trkpt lat="43.74554" lon="1.45601">
        <ele>133.961684</ele>
        <time>2023-09-17T09:34:55.424Z</time>
      </trkpt>
      <trkpt lat="43.74555" lon="1.45597">
        <ele>133.939054</ele>
        <time>2023-09-17T09:34:56.424Z</time>
      </trkpt>
      <trkpt lat="43.74557" lon="1.45584">
        <ele>133.878939</ele>
        <time>2023-09-17T09:34:57.424Z</time>
      </trkpt>
      <trkpt lat="43.74557" lon="1.45584">
        <ele>133.878939</ele>
        <time>2023-09-17T09:34:57.424Z</time>
      </trkpt>
      <trkpt lat="43.74557" lon="1.45583">
        <ele>133.871472</ele>
        <time>2023-09-17T09:34:58.424Z</time>
      </trkpt>
      <trkpt lat="43.74559" lon="1.45566">
        <ele>133.79253</ele>
        <time>2023-09-17T09:34:59.424Z</time>
      </trkpt>
      <trkpt lat="43.74559" lon="1.45566">
        <ele>133.79253</ele>
        <time>2023-09-17T09:34:59.424Z</time>
      </trkpt>
      <trkpt lat="43.74561" lon="1.45557">
        <ele>133.748057</ele>
        <time>2023-09-17T09:35:00.424Z</time>
      </trkpt>
      <trkpt lat="43.74561" lon="1.45554">
        <ele>133.736098</ele>
        <time>2023-09-17T09:35:01.424Z</time>
      </trkpt>
      <trkpt lat="43.74561" lon="1.45554">
        <ele>133.736098</ele>
        <time>2023-09-17T09:35:01.424Z</time>
      </trkpt>
      <trkpt lat="43.74563" lon="1.45535">
        <ele>133.645663</ele>
        <time>2023-09-17T09:35:02.424Z</time>
      </trkpt>
      <trkpt lat="43.74563" lon="1.45535">
        <ele>133.645663</ele>
        <time>2023-09-17T09:35:02.424Z</time>
      </trkpt>
      <trkpt lat="43.74564" lon="1.45525">
        <ele>133.599241</ele>
        <time>2023-09-17T09:35:03.424Z</time>
      </trkpt>
      <trkpt lat="43.74564" lon="1.45525">
        <ele>133.599241</ele>
        <time>2023-09-17T09:35:03.424Z</time>
      </trkpt>
      <trkpt lat="43.74566" lon="1.45516">
        <ele>133.55615</ele>
        <time>2023-09-17T09:35:04.424Z</time>
      </trkpt>
      <trkpt lat="43.74566" lon="1.45516">
        <ele>133.55615</ele>
        <time>2023-09-17T09:35:04.424Z</time>
      </trkpt>
      <trkpt lat="43.74566" lon="1.4551">
        <ele>133.528114</ele>
        <time>2023-09-17T09:35:05.424Z</time>
      </trkpt>
      <trkpt lat="43.74566" lon="1.4551">
        <ele>133.528114</ele>
        <time>2023-09-17T09:35:05.424Z</time>
      </trkpt>
      <trkpt lat="43.74569" lon="1.45493">
        <ele>133.445129</ele>
        <time>2023-09-17T09:35:06.424Z</time>
      </trkpt>
      <trkpt lat="43.7457" lon="1.45483">
        <ele>133.400548</ele>
        <time>2023-09-17T09:35:07.424Z</time>
      </trkpt>
      <trkpt lat="43.7457" lon="1.45483">
        <ele>133.400548</ele>
        <time>2023-09-17T09:35:07.424Z</time>
      </trkpt>
      <trkpt lat="43.7457" lon="1.45483">
        <ele>133.398213</ele>
        <time>2023-09-17T09:35:08.424Z</time>
      </trkpt>
      <trkpt lat="43.74573" lon="1.45463">
        <ele>133.30273</ele>
        <time>2023-09-17T09:35:09.424Z</time>
      </trkpt>
      <trkpt lat="43.74573" lon="1.45463">
        <ele>133.30273</ele>
        <time>2023-09-17T09:35:09.424Z</time>
      </trkpt>
      <trkpt lat="43.74574" lon="1.45454">
        <ele>133.258717</ele>
        <time>2023-09-17T09:35:10.424Z</time>
      </trkpt>
      <trkpt lat="43.74575" lon="1.45445">
        <ele>133.219306</ele>
        <time>2023-09-17T09:35:11.424Z</time>
      </trkpt>
      <trkpt lat="43.74575" lon="1.45445">
        <ele>133.219306</ele>
        <time>2023-09-17T09:35:11.424Z</time>
      </trkpt>
      <trkpt lat="43.74575" lon="1.45443">
        <ele>133.206696</ele>
        <time>2023-09-17T09:35:12.424Z</time>
      </trkpt>
      <trkpt lat="43.74575" lon="1.45443">
        <ele>133.206696</ele>
        <time>2023-09-17T09:35:12.424Z</time>
      </trkpt>
      <trkpt lat="43.74576" lon="1.45427">
        <ele>133.135519</ele>
        <time>2023-09-17T09:35:13.424Z</time>
      </trkpt>
      <trkpt lat="43.74576" lon="1.45427">
        <ele>133.135519</ele>
        <time>2023-09-17T09:35:13.424Z</time>
      </trkpt>
      <trkpt lat="43.74576" lon="1.45419">
        <ele>133.098067</ele>
        <time>2023-09-17T09:35:14.424Z</time>
      </trkpt>
      <trkpt lat="43.74576" lon="1.45419">
        <ele>133.098067</ele>
        <time>2023-09-17T09:35:14.424Z</time>
      </trkpt>
      <trkpt lat="43.74577" lon="1.45411">
        <ele>133.111854</ele>
        <time>2023-09-17T09:35:14.424Z</time>
      </trkpt>
      <trkpt lat="43.74577" lon="1.45411">
        <ele>133.111854</ele>
        <time>2023-09-17T09:35:14.424Z</time>
      </trkpt>
      <trkpt lat="43.74577" lon="1.45408">
        <ele>133.119171</ele>
        <time>2023-09-17T09:35:16.424Z</time>
      </trkpt>
      <trkpt lat="43.74577" lon="1.45408">
        <ele>133.119171</ele>
        <time>2023-09-17T09:35:16.424Z</time>
      </trkpt>
      <trkpt lat="43.74579" lon="1.45393">
        <ele>133.160026</ele>
        <time>2023-09-17T09:35:16.424Z</time>
      </trkpt>
      <trkpt lat="43.74579" lon="1.45393">
        <ele>133.160026</ele>
        <time>2023-09-17T09:35:16.424Z</time>
      </trkpt>
      <trkpt lat="43.74581" lon="1.45386">
        <ele>133.181212</ele>
        <time>2023-09-17T09:35:18.424Z</time>
      </trkpt>
      <trkpt lat="43.74581" lon="1.45386">
        <ele>133.181212</ele>
        <time>2023-09-17T09:35:18.424Z</time>
      </trkpt>
      <trkpt lat="43.74584" lon="1.45379">
        <ele>133.203896</ele>
        <time>2023-09-17T09:35:18.424Z</time>
      </trkpt>
      <trkpt lat="43.74587" lon="1.45371">
        <ele>133.227612</ele>
        <time>2023-09-17T09:35:20.424Z</time>
      </trkpt>
      <trkpt lat="43.74587" lon="1.45371">
        <ele>133.227612</ele>
        <time>2023-09-17T09:35:20.424Z</time>
      </trkpt>
      <trkpt lat="43.74591" lon="1.45364">
        <ele>133.250194</ele>
        <time>2023-09-17T09:35:20.424Z</time>
      </trkpt>
      <trkpt lat="43.74591" lon="1.45364">
        <ele>133.250194</ele>
        <time>2023-09-17T09:35:20.424Z</time>
      </trkpt>
      <trkpt lat="43.74593" lon="1.45359">
        <ele>133.268226</ele>
        <time>2023-09-17T09:35:22.424Z</time>
      </trkpt>
      <trkpt lat="43.74593" lon="1.45359">
        <ele>133.268226</ele>
        <time>2023-09-17T09:35:22.424Z</time>
      </trkpt>
      <trkpt lat="43.74598" lon="1.45349">
        <ele>133.298207</ele>
        <time>2023-09-17T09:35:23.424Z</time>
      </trkpt>
      <trkpt lat="43.74598" lon="1.45349">
        <ele>133.298207</ele>
        <time>2023-09-17T09:35:23.424Z</time>
      </trkpt>
      <trkpt lat="43.74599" lon="1.45347">
        <ele>133.306246</ele>
        <time>2023-09-17T09:35:24.424Z</time>
      </trkpt>
      <trkpt lat="43.74599" lon="1.45347">
        <ele>133.306246</ele>
        <time>2023-09-17T09:35:24.424Z</time>
      </trkpt>
      <trkpt lat="43.74605" lon="1.45335">
        <ele>133.344937</ele>
        <time>2023-09-17T09:35:25.424Z</time>
      </trkpt>
      <trkpt lat="43.74606" lon="1.45333">
        <ele>133.349931</ele>
        <time>2023-09-17T09:35:26.424Z</time>
      </trkpt>
      <trkpt lat="43.74606" lon="1.45333">
        <ele>133.349931</ele>
        <time>2023-09-17T09:35:26.424Z</time>
      </trkpt>
      <trkpt lat="43.74613" lon="1.45321">
        <ele>133.392541</ele>
        <time>2023-09-17T09:35:27.424Z</time>
      </trkpt>
      <trkpt lat="43.74616" lon="1.45314">
        <ele>133.414691</ele>
        <time>2023-09-17T09:35:28.424Z</time>
      </trkpt>
      <trkpt lat="43.7462" lon="1.45306">
        <ele>133.440108</ele>
        <time>2023-09-17T09:35:29.424Z</time>
      </trkpt>
      <trkpt lat="43.7462" lon="1.45306">
        <ele>133.442251</ele>
        <time>2023-09-17T09:35:30.424Z</time>
      </trkpt>
      <trkpt lat="43.7462" lon="1.45306">
        <ele>133.442251</ele>
        <time>2023-09-17T09:35:30.424Z</time>
      </trkpt>
      <trkpt lat="43.74627" lon="1.45291">
        <ele>133.489205</ele>
        <time>2023-09-17T09:35:31.424Z</time>
      </trkpt>
      <trkpt lat="43.74631" lon="1.45283">
        <ele>133.513148</ele>
        <time>2023-09-17T09:35:32.424Z</time>
      </trkpt>
      <trkpt lat="43.74634" lon="1.45275">
        <ele>133.538198</ele>
        <time>2023-09-17T09:35:33.424Z</time>
      </trkpt>
      <trkpt lat="43.74638" lon="1.45268">
        <ele>133.561687</ele>
        <time>2023-09-17T09:35:34.424Z</time>
      </trkpt>
      <trkpt lat="43.74639" lon="1.45264">
        <ele>133.572157</ele>
        <time>2023-09-17T09:35:35.424Z</time>
      </trkpt>
      <trkpt lat="43.74639" lon="1.45264">
        <ele>133.572157</ele>
        <time>2023-09-17T09:35:35.424Z</time>
      </trkpt>
      <trkpt lat="43.74643" lon="1.45251">
        <ele>133.611893</ele>
        <time>2023-09-17T09:35:36.424Z</time>
      </trkpt>
      <trkpt lat="43.74646" lon="1.45243">
        <ele>133.634706</ele>
        <time>2023-09-17T09:35:37.424Z</time>
      </trkpt>
      <trkpt lat="43.74646" lon="1.45243">
        <ele>133.634706</ele>
        <time>2023-09-17T09:35:37.424Z</time>
      </trkpt>
      <trkpt lat="43.74648" lon="1.45234">
        <ele>133.660592</ele>
        <time>2023-09-17T09:35:38.424Z</time>
      </trkpt>
      <trkpt lat="43.74648" lon="1.45234">
        <ele>133.660592</ele>
        <time>2023-09-17T09:35:38.424Z</time>
      </trkpt>
      <trkpt lat="43.74649" lon="1.45225">
        <ele>133.683768</ele>
        <time>2023-09-17T09:35:39.424Z</time>
      </trkpt>
      <trkpt lat="43.7465" lon="1.45217">
        <ele>133.707754</ele>
        <time>2023-09-17T09:35:40.424Z</time>
      </trkpt>
      <trkpt lat="43.74651" lon="1.45208">
        <ele>133.731938</ele>
        <time>2023-09-17T09:35:41.424Z</time>
      </trkpt>
      <trkpt lat="43.74652" lon="1.45199">
        <ele>133.7541</ele>
        <time>2023-09-17T09:35:42.424Z</time>
      </trkpt>
      <trkpt lat="43.74653" lon="1.4519">
        <ele>133.691616</ele>
        <time>2023-09-17T09:35:43.424Z</time>
      </trkpt>
      <trkpt lat="43.74653" lon="1.4519">
        <ele>133.691616</ele>
        <time>2023-09-17T09:35:43.424Z</time>
      </trkpt>
      <trkpt lat="43.74654" lon="1.45181">
        <ele>133.608645</ele>
        <time>2023-09-17T09:35:44.424Z</time>
      </trkpt>
      <trkpt lat="43.74655" lon="1.45171">
        <ele>133.521918</ele>
        <time>2023-09-17T09:35:45.424Z</time>
      </trkpt>
      <trkpt lat="43.74656" lon="1.45166">
        <ele>133.4768</ele>
        <time>2023-09-17T09:35:46.424Z</time>
      </trkpt>
      <trkpt lat="43.74657" lon="1.45153">
        <ele>133.357324</ele>
        <time>2023-09-17T09:35:47.424Z</time>
      </trkpt>
      <trkpt lat="43.74657" lon="1.45153">
        <ele>133.357324</ele>
        <time>2023-09-17T09:35:47.424Z</time>
      </trkpt>
      <trkpt lat="43.74658" lon="1.45144">
        <ele>133.275239</ele>
        <time>2023-09-17T09:35:48.424Z</time>
      </trkpt>
      <trkpt lat="43.74659" lon="1.45135">
        <ele>133.191017</ele>
        <time>2023-09-17T09:35:49.424Z</time>
      </trkpt>
      <trkpt lat="43.74659" lon="1.45135">
        <ele>133.191017</ele>
        <time>2023-09-17T09:35:49.424Z</time>
      </trkpt>
      <trkpt lat="43.7466" lon="1.45125">
        <ele>133.101831</ele>
        <time>2023-09-17T09:35:50.424Z</time>
      </trkpt>
      <trkpt lat="43.7466" lon="1.45125">
        <ele>133.101831</ele>
        <time>2023-09-17T09:35:50.424Z</time>
      </trkpt>
      <trkpt lat="43.7466" lon="1.45116">
        <ele>133.023595</ele>
        <time>2023-09-17T09:35:51.424Z</time>
      </trkpt>
      <trkpt lat="43.7466" lon="1.45116">
        <ele>133.023595</ele>
        <time>2023-09-17T09:35:51.424Z</time>
      </trkpt>
      <trkpt lat="43.7466" lon="1.45107">
        <ele>132.940712</ele>
        <time>2023-09-17T09:35:52.424Z</time>
      </trkpt>
      <trkpt lat="43.7466" lon="1.45107">
        <ele>132.940712</ele>
        <time>2023-09-17T09:35:52.424Z</time>
      </trkpt>
      <trkpt lat="43.74658" lon="1.45099">
        <ele>132.863773</ele>
        <time>2023-09-17T09:35:53.424Z</time>
      </trkpt>
      <trkpt lat="43.74658" lon="1.45099">
        <ele>132.863773</ele>
        <time>2023-09-17T09:35:53.424Z</time>
      </trkpt>
      <trkpt lat="43.74656" lon="1.4509">
        <ele>132.781306</ele>
        <time>2023-09-17T09:35:54.424Z</time>
      </trkpt>
      <trkpt lat="43.74656" lon="1.4509">
        <ele>132.781306</ele>
        <time>2023-09-17T09:35:54.424Z</time>
      </trkpt>
      <trkpt lat="43.74655" lon="1.45088">
        <ele>132.756354</ele>
        <time>2023-09-17T09:35:55.424Z</time>
      </trkpt>
      <trkpt lat="43.74655" lon="1.45088">
        <ele>132.756354</ele>
        <time>2023-09-17T09:35:55.424Z</time>
      </trkpt>
      <trkpt lat="43.74651" lon="1.45075">
        <ele>132.629399</ele>
        <time>2023-09-17T09:35:56.424Z</time>
      </trkpt>
      <trkpt lat="43.74651" lon="1.45075">
        <ele>132.629399</ele>
        <time>2023-09-17T09:35:56.424Z</time>
      </trkpt>
      <trkpt lat="43.7465" lon="1.45074">
        <ele>132.61502</ele>
        <time>2023-09-17T09:35:57.424Z</time>
      </trkpt>
      <trkpt lat="43.74645" lon="1.4506">
        <ele>132.475464</ele>
        <time>2023-09-17T09:35:58.424Z</time>
      </trkpt>
      <trkpt lat="43.74642" lon="1.45053">
        <ele>132.401464</ele>
        <time>2023-09-17T09:35:59.424Z</time>
      </trkpt>
      <trkpt lat="43.74642" lon="1.45053">
        <ele>132.401464</ele>
        <time>2023-09-17T09:35:59.424Z</time>
      </trkpt>
      <trkpt lat="43.74642" lon="1.4505">
        <ele>132.381934</ele>
        <time>2023-09-17T09:36:00.424Z</time>
      </trkpt>
      <trkpt lat="43.74638" lon="1.45038">
        <ele>132.263503</ele>
        <time>2023-09-17T09:36:01.424Z</time>
      </trkpt>
      <trkpt lat="43.74638" lon="1.45031">
        <ele>132.202434</ele>
        <time>2023-09-17T09:36:02.424Z</time>
      </trkpt>
      <trkpt lat="43.74638" lon="1.45031">
        <ele>132.202434</ele>
        <time>2023-09-17T09:36:02.424Z</time>
      </trkpt>
      <trkpt lat="43.74637" lon="1.45024">
        <ele>132.136599</ele>
        <time>2023-09-17T09:36:03.424Z</time>
      </trkpt>
      <trkpt lat="43.74637" lon="1.45018">
        <ele>132.078146</ele>
        <time>2023-09-17T09:36:04.424Z</time>
      </trkpt>
      <trkpt lat="43.74637" lon="1.45011">
        <ele>132.015197</ele>
        <time>2023-09-17T09:36:04.424Z</time>
      </trkpt>
      <trkpt lat="43.74638" lon="1.45004">
        <ele>131.951155</ele>
        <time>2023-09-17T09:36:05.424Z</time>
      </trkpt>
      <trkpt lat="43.74638" lon="1.44996">
        <ele>131.886216</ele>
        <time>2023-09-17T09:36:07.424Z</time>
      </trkpt>
      <trkpt lat="43.74639" lon="1.44989">
        <ele>131.818211</ele>
        <time>2023-09-17T09:36:07.424Z</time>
      </trkpt>
      <trkpt lat="43.74639" lon="1.44989">
        <ele>131.818211</ele>
        <time>2023-09-17T09:36:07.424Z</time>
      </trkpt>
      <trkpt lat="43.74639" lon="1.44981">
        <ele>131.747891</ele>
        <time>2023-09-17T09:36:08.424Z</time>
      </trkpt>
      <trkpt lat="43.7464" lon="1.44973">
        <ele>131.679365</ele>
        <time>2023-09-17T09:36:10.424Z</time>
      </trkpt>
      <trkpt lat="43.7464" lon="1.44966">
        <ele>131.610299</ele>
        <time>2023-09-17T09:36:10.424Z</time>
      </trkpt>
      <trkpt lat="43.74641" lon="1.44959">
        <ele>131.544968</ele>
        <time>2023-09-17T09:36:11.424Z</time>
      </trkpt>
      <trkpt lat="43.74641" lon="1.44959">
        <ele>131.544968</ele>
        <time>2023-09-17T09:36:11.424Z</time>
      </trkpt>
      <trkpt lat="43.74641" lon="1.4495">
        <ele>131.476305</ele>
        <time>2023-09-17T09:36:13.424Z</time>
      </trkpt>
      <trkpt lat="43.74642" lon="1.44942">
        <ele>131.419054</ele>
        <time>2023-09-17T09:36:13.424Z</time>
      </trkpt>
      <trkpt lat="43.74642" lon="1.44934">
        <ele>131.36394</ele>
        <time>2023-09-17T09:36:14.424Z</time>
      </trkpt>
      <trkpt lat="43.74643" lon="1.44927">
        <ele>131.312386</ele>
        <time>2023-09-17T09:36:15.424Z</time>
      </trkpt>
      <trkpt lat="43.74643" lon="1.4492">
        <ele>131.265886</ele>
        <time>2023-09-17T09:36:16.424Z</time>
      </trkpt>
      <trkpt lat="43.74643" lon="1.44915">
        <ele>131.227334</ele>
        <time>2023-09-17T09:36:17.424Z</time>
      </trkpt>
      <trkpt lat="43.74643" lon="1.4491">
        <ele>131.194965</ele>
        <time>2023-09-17T09:36:18.424Z</time>
      </trkpt>
      <trkpt lat="43.74644" lon="1.44905">
        <ele>131.156921</ele>
        <time>2023-09-17T09:36:19.424Z</time>
      </trkpt>
      <trkpt lat="43.74644" lon="1.44901">
        <ele>131.126222</ele>
        <time>2023-09-17T09:36:20.424Z</time>
      </trkpt>
      <trkpt lat="43.74644" lon="1.44896">
        <ele>131.094809</ele>
        <time>2023-09-17T09:36:21.424Z</time>
      </trkpt>
      <trkpt lat="43.74644" lon="1.44892">
        <ele>131.061023</ele>
        <time>2023-09-17T09:36:22.424Z</time>
      </trkpt>
      <trkpt lat="43.74644" lon="1.44887">
        <ele>131.027468</ele>
        <time>2023-09-17T09:36:23.424Z</time>
      </trkpt>
      <trkpt lat="43.74645" lon="1.44883">
        <ele>130.998639</ele>
        <time>2023-09-17T09:36:25.424Z</time>
      </trkpt>
      <trkpt lat="43.74645" lon="1.44881">
        <ele>130.985788</ele>
        <time>2023-09-17T09:36:26.424Z</time>
      </trkpt>
      <trkpt lat="43.74643" lon="1.44873">
        <ele>130.925667</ele>
        <time>2023-09-17T09:36:29.424Z</time>
      </trkpt>
      <trkpt lat="43.74642" lon="1.44876">
        <ele>130.908777</ele>
        <time>2023-09-17T09:36:30.424Z</time>
      </trkpt>
      <trkpt lat="43.74642" lon="1.44876">
        <ele>130.908777</ele>
        <time>2023-09-17T09:36:30.424Z</time>
      </trkpt>
      <trkpt lat="43.74643" lon="1.44878">
        <ele>130.890299</ele>
        <time>2023-09-17T09:36:32.424Z</time>
      </trkpt>
      <trkpt lat="43.74644" lon="1.4488">
        <ele>130.874599</ele>
        <time>2023-09-17T09:36:32.424Z</time>
      </trkpt>
      <trkpt lat="43.74643" lon="1.44884">
        <ele>130.847183</ele>
        <time>2023-09-17T09:36:33.424Z</time>
      </trkpt>
      <trkpt lat="43.74643" lon="1.44884">
        <ele>130.847183</ele>
        <time>2023-09-17T09:36:33.424Z</time>
      </trkpt>
      <trkpt lat="43.74644" lon="1.44887">
        <ele>130.82118</ele>
        <time>2023-09-17T09:36:35.424Z</time>
      </trkpt>
      <trkpt lat="43.74644" lon="1.44887">
        <ele>130.82118</ele>
        <time>2023-09-17T09:36:35.424Z</time>
      </trkpt>
      <trkpt lat="43.74643" lon="1.4489">
        <ele>130.800803</ele>
        <time>2023-09-17T09:36:35.424Z</time>
      </trkpt>
      <trkpt lat="43.74643" lon="1.44895">
        <ele>130.765106</ele>
        <time>2023-09-17T09:36:36.424Z</time>
      </trkpt>
      <trkpt lat="43.74643" lon="1.44901">
        <ele>130.7228</ele>
        <time>2023-09-17T09:36:38.424Z</time>
      </trkpt>
      <trkpt lat="43.74643" lon="1.44901">
        <ele>130.7228</ele>
        <time>2023-09-17T09:36:38.424Z</time>
      </trkpt>
      <trkpt lat="43.74643" lon="1.44906">
        <ele>130.687817</ele>
        <time>2023-09-17T09:36:39.424Z</time>
      </trkpt>
      <trkpt lat="43.74644" lon="1.4491">
        <ele>130.656117</ele>
        <time>2023-09-17T09:36:40.424Z</time>
      </trkpt>
      <trkpt lat="43.74645" lon="1.44913">
        <ele>130.63462</ele>
        <time>2023-09-17T09:36:41.424Z</time>
      </trkpt>
      <trkpt lat="43.74647" lon="1.44916">
        <ele>130.60117</ele>
        <time>2023-09-17T09:36:42.424Z</time>
      </trkpt>
      <trkpt lat="43.74647" lon="1.44916">
        <ele>130.60117</ele>
        <time>2023-09-17T09:36:42.424Z</time>
      </trkpt>
      <trkpt lat="43.74649" lon="1.44917">
        <ele>130.576339</ele>
        <time>2023-09-17T09:36:43.424Z</time>
      </trkpt>
      <trkpt lat="43.74652" lon="1.44919">
        <ele>130.547314</ele>
        <time>2023-09-17T09:36:45.424Z</time>
      </trkpt>
      <trkpt lat="43.74657" lon="1.44921">
        <ele>130.495465</ele>
        <time>2023-09-17T09:36:46.424Z</time>
      </trkpt>
      <trkpt lat="43.74658" lon="1.44922">
        <ele>130.481171</ele>
        <time>2023-09-17T09:36:47.424Z</time>
      </trkpt>
      <trkpt lat="43.74658" lon="1.44922">
        <ele>130.481171</ele>
        <time>2023-09-17T09:36:47.424Z</time>
      </trkpt>
      <trkpt lat="43.7466" lon="1.44923">
        <ele>130.462058</ele>
        <time>2023-09-17T09:36:49.424Z</time>
      </trkpt>
      <trkpt lat="43.74662" lon="1.44924">
        <ele>130.442627</ele>
        <time>2023-09-17T09:36:50.424Z</time>
      </trkpt>
      <trkpt lat="43.74666" lon="1.44925">
        <ele>130.400245</ele>
        <time>2023-09-17T09:36:51.424Z</time>
      </trkpt>
      <trkpt lat="43.74669" lon="1.44926">
        <ele>130.368619</ele>
        <time>2023-09-17T09:36:52.424Z</time>
      </trkpt>
      <trkpt lat="43.74669" lon="1.44926">
        <ele>130.368619</ele>
        <time>2023-09-17T09:36:52.424Z</time>
      </trkpt>
      <trkpt lat="43.74674" lon="1.44928">
        <ele>130.322521</ele>
        <time>2023-09-17T09:36:54.424Z</time>
      </trkpt>
      <trkpt lat="43.74674" lon="1.44928">
        <ele>130.322521</ele>
        <time>2023-09-17T09:36:54.424Z</time>
      </trkpt>
      <trkpt lat="43.74678" lon="1.44929">
        <ele>130.282113</ele>
        <time>2023-09-17T09:36:55.424Z</time>
      </trkpt>
      <trkpt lat="43.74678" lon="1.44929">
        <ele>130.282113</ele>
        <time>2023-09-17T09:36:55.424Z</time>
      </trkpt>
      <trkpt lat="43.74682" lon="1.4493">
        <ele>130.243747</ele>
        <time>2023-09-17T09:36:57.424Z</time>
      </trkpt>
      <trkpt lat="43.74686" lon="1.44932">
        <ele>130.199852</ele>
        <time>2023-09-17T09:36:58.424Z</time>
      </trkpt>
      <trkpt lat="43.74686" lon="1.44932">
        <ele>130.199852</ele>
        <time>2023-09-17T09:36:58.424Z</time>
      </trkpt>
      <trkpt lat="43.7469" lon="1.44934">
        <ele>130.15411</ele>
        <time>2023-09-17T09:36:58.424Z</time>
      </trkpt>
      <trkpt lat="43.7469" lon="1.44934">
        <ele>130.15411</ele>
        <time>2023-09-17T09:36:58.424Z</time>
      </trkpt>
      <trkpt lat="43.74694" lon="1.44936">
        <ele>130.11391</ele>
        <time>2023-09-17T09:36:59.424Z</time>
      </trkpt>
      <trkpt lat="43.74694" lon="1.44936">
        <ele>130.11391</ele>
        <time>2023-09-17T09:36:59.424Z</time>
      </trkpt>
      <trkpt lat="43.74699" lon="1.44937">
        <ele>130.060145</ele>
        <time>2023-09-17T09:37:02.424Z</time>
      </trkpt>
      <trkpt lat="43.74703" lon="1.44939">
        <ele>130.020216</ele>
        <time>2023-09-17T09:37:02.424Z</time>
      </trkpt>
      <trkpt lat="43.74708" lon="1.44941">
        <ele>129.969335</ele>
        <time>2023-09-17T09:37:03.424Z</time>
      </trkpt>
      <trkpt lat="43.74713" lon="1.44943">
        <ele>129.919046</ele>
        <time>2023-09-17T09:37:05.424Z</time>
      </trkpt>
      <trkpt lat="43.74717" lon="1.44945">
        <ele>129.875379</ele>
        <time>2023-09-17T09:37:06.424Z</time>
      </trkpt>
      <trkpt lat="43.74717" lon="1.44945">
        <ele>129.875379</ele>
        <time>2023-09-17T09:37:06.424Z</time>
      </trkpt>
      <trkpt lat="43.74722" lon="1.44946">
        <ele>129.828675</ele>
        <time>2023-09-17T09:37:06.424Z</time>
      </trkpt>
      <trkpt lat="43.74727" lon="1.44948">
        <ele>129.781802</ele>
        <time>2023-09-17T09:37:07.424Z</time>
      </trkpt>
      <trkpt lat="43.74727" lon="1.44948">
        <ele>129.781802</ele>
        <time>2023-09-17T09:37:07.424Z</time>
      </trkpt>
      <trkpt lat="43.7473" lon="1.44949">
        <ele>129.74319</ele>
        <time>2023-09-17T09:37:10.424Z</time>
      </trkpt>
      <trkpt lat="43.74735" lon="1.44951">
        <ele>129.744119</ele>
        <time>2023-09-17T09:37:10.424Z</time>
      </trkpt>
      <trkpt lat="43.74739" lon="1.44953">
        <ele>129.745048</ele>
        <time>2023-09-17T09:37:12.424Z</time>
      </trkpt>
      <trkpt lat="43.74743" lon="1.44955">
        <ele>129.746067</ele>
        <time>2023-09-17T09:37:13.424Z</time>
      </trkpt>
      <trkpt lat="43.74747" lon="1.44956">
        <ele>129.746812</ele>
        <time>2023-09-17T09:37:13.424Z</time>
      </trkpt>
      <trkpt lat="43.7475" lon="1.44957">
        <ele>129.747558</ele>
        <time>2023-09-17T09:37:15.424Z</time>
      </trkpt>
      <trkpt lat="43.7475" lon="1.44957">
        <ele>129.747558</ele>
        <time>2023-09-17T09:37:15.424Z</time>
      </trkpt>
      <trkpt lat="43.74754" lon="1.44959">
        <ele>129.748389</ele>
        <time>2023-09-17T09:37:16.424Z</time>
      </trkpt>
      <trkpt lat="43.74757" lon="1.4496">
        <ele>129.748969</ele>
        <time>2023-09-17T09:37:16.424Z</time>
      </trkpt>
      <trkpt lat="43.74757" lon="1.4496">
        <ele>129.748969</ele>
        <time>2023-09-17T09:37:16.424Z</time>
      </trkpt>
      <trkpt lat="43.74761" lon="1.44961">
        <ele>129.749972</ele>
        <time>2023-09-17T09:37:17.424Z</time>
      </trkpt>
      <trkpt lat="43.74766" lon="1.44963">
        <ele>129.750967</ele>
        <time>2023-09-17T09:37:18.424Z</time>
      </trkpt>
      <trkpt lat="43.7477" lon="1.44964">
        <ele>129.751951</ele>
        <time>2023-09-17T09:37:21.424Z</time>
      </trkpt>
      <trkpt lat="43.74773" lon="1.44964">
        <ele>129.752506</ele>
        <time>2023-09-17T09:37:22.424Z</time>
      </trkpt>
      <trkpt lat="43.74778" lon="1.44966">
        <ele>129.753587</ele>
        <time>2023-09-17T09:37:23.424Z</time>
      </trkpt>
      <trkpt lat="43.74778" lon="1.44966">
        <ele>129.753587</ele>
        <time>2023-09-17T09:37:23.424Z</time>
      </trkpt>
      <trkpt lat="43.74781" lon="1.44967">
        <ele>129.754332</ele>
        <time>2023-09-17T09:37:24.424Z</time>
      </trkpt>
      <trkpt lat="43.74786" lon="1.44968">
        <ele>129.755253</ele>
        <time>2023-09-17T09:37:24.424Z</time>
      </trkpt>
      <trkpt lat="43.74791" lon="1.44971">
        <ele>129.756512</ele>
        <time>2023-09-17T09:37:26.424Z</time>
      </trkpt>
      <trkpt lat="43.74796" lon="1.44973">
        <ele>129.757616</ele>
        <time>2023-09-17T09:37:28.424Z</time>
      </trkpt>
      <trkpt lat="43.748" lon="1.44974">
        <ele>129.758447</ele>
        <time>2023-09-17T09:37:28.424Z</time>
      </trkpt>
      <trkpt lat="43.748" lon="1.44974">
        <ele>129.758447</ele>
        <time>2023-09-17T09:37:28.424Z</time>
      </trkpt>
      <trkpt lat="43.74804" lon="1.44976">
        <ele>129.759372</ele>
        <time>2023-09-17T09:37:30.424Z</time>
      </trkpt>
      <trkpt lat="43.7481" lon="1.44978">
        <ele>129.760533</ele>
        <time>2023-09-17T09:37:31.424Z</time>
      </trkpt>
      <trkpt lat="43.74815" lon="1.4498">
        <ele>129.761646</ele>
        <time>2023-09-17T09:37:32.424Z</time>
      </trkpt>
      <trkpt lat="43.74815" lon="1.4498">
        <ele>129.761646</ele>
        <time>2023-09-17T09:37:32.424Z</time>
      </trkpt>
      <trkpt lat="43.74819" lon="1.44983">
        <ele>129.762601</ele>
        <time>2023-09-17T09:37:33.424Z</time>
      </trkpt>
      <trkpt lat="43.74822" lon="1.44984">
        <ele>129.76335</ele>
        <time>2023-09-17T09:37:34.424Z</time>
      </trkpt>
      <trkpt lat="43.74828" lon="1.44987">
        <ele>129.764713</ele>
        <time>2023-09-17T09:37:36.424Z</time>
      </trkpt>
      <trkpt lat="43.74828" lon="1.44987">
        <ele>129.764713</ele>
        <time>2023-09-17T09:37:36.424Z</time>
      </trkpt>
      <trkpt lat="43.74831" lon="1.44988">
        <ele>129.7653</ele>
        <time>2023-09-17T09:37:37.424Z</time>
      </trkpt>
      <trkpt lat="43.74834" lon="1.44989">
        <ele>129.765895</ele>
        <time>2023-09-17T09:37:38.424Z</time>
      </trkpt>
      <trkpt lat="43.74834" lon="1.44989">
        <ele>129.765895</ele>
        <time>2023-09-17T09:37:38.424Z</time>
      </trkpt>
      <trkpt lat="43.74836" lon="1.4499">
        <ele>129.76649</ele>
        <time>2023-09-17T09:37:40.424Z</time>
      </trkpt>
      <trkpt lat="43.74839" lon="1.44991">
        <ele>129.767079</ele>
        <time>2023-09-17T09:37:41.424Z</time>
      </trkpt>
      <trkpt lat="43.74839" lon="1.44991">
        <ele>129.767079</ele>
        <time>2023-09-17T09:37:41.424Z</time>
      </trkpt>
      <trkpt lat="43.74841" lon="1.44992">
        <ele>129.767589</ele>
        <time>2023-09-17T09:37:42.424Z</time>
      </trkpt>
      <trkpt lat="43.74844" lon="1.44994">
        <ele>129.768193</ele>
        <time>2023-09-17T09:37:43.424Z</time>
      </trkpt>
      <trkpt lat="43.74847" lon="1.44995">
        <ele>129.768849</ele>
        <time>2023-09-17T09:37:45.424Z</time>
      </trkpt>
      <trkpt lat="43.74849" lon="1.44996">
        <ele>129.769208</ele>
        <time>2023-09-17T09:37:45.424Z</time>
      </trkpt>
      <trkpt lat="43.74853" lon="1.44997">
        <ele>129.770121</ele>
        <time>2023-09-17T09:37:47.424Z</time>
      </trkpt>
      <trkpt lat="43.74857" lon="1.44998">
        <ele>129.770945</ele>
        <time>2023-09-17T09:37:48.424Z</time>
      </trkpt>
      <trkpt lat="43.74859" lon="1.44999">
        <ele>129.771515</ele>
        <time>2023-09-17T09:37:49.424Z</time>
      </trkpt>
      <trkpt lat="43.74862" lon="1.45">
        <ele>129.772192</ele>
        <time>2023-09-17T09:37:50.424Z</time>
      </trkpt>
      <trkpt lat="43.74865" lon="1.45001">
        <ele>129.772697</ele>
        <time>2023-09-17T09:37:52.424Z</time>
      </trkpt>
      <trkpt lat="43.74868" lon="1.45002">
        <ele>129.773435</ele>
        <time>2023-09-17T09:37:53.424Z</time>
      </trkpt>
      <trkpt lat="43.74871" lon="1.45003">
        <ele>129.774021</ele>
        <time>2023-09-17T09:37:54.424Z</time>
      </trkpt>
      <trkpt lat="43.74873" lon="1.45004">
        <ele>129.774584</ele>
        <time>2023-09-17T09:37:55.424Z</time>
      </trkpt>
      <trkpt lat="43.74876" lon="1.45004">
        <ele>129.775158</ele>
        <time>2023-09-17T09:37:57.424Z</time>
      </trkpt>
      <trkpt lat="43.74882" lon="1.45006">
        <ele>129.776374</ele>
        <time>2023-09-17T09:37:59.424Z</time>
      </trkpt>
      <trkpt lat="43.74882" lon="1.45006">
        <ele>129.776374</ele>
        <time>2023-09-17T09:37:59.424Z</time>
      </trkpt>
      <trkpt lat="43.74883" lon="1.45005">
        <ele>129.776721</ele>
        <time>2023-09-17T09:38:00.424Z</time>
      </trkpt>
      <trkpt lat="43.74884" lon="1.45005">
        <ele>129.776791</ele>
        <time>2023-09-17T09:38:01.424Z</time>
      </trkpt>
      <trkpt lat="43.74884" lon="1.45005">
        <ele>129.776791</ele>
        <time>2023-09-17T09:38:01.424Z</time>
      </trkpt>
      <trkpt lat="43.74884" lon="1.45004">
        <ele>129.777009</ele>
        <time>2023-09-17T09:38:02.424Z</time>
      </trkpt>
      <trkpt lat="43.74886" lon="1.45002">
        <ele>129.777372</ele>
        <time>2023-09-17T09:38:03.424Z</time>
      </trkpt>
      <trkpt lat="43.74887" lon="1.44999">
        <ele>129.777904</ele>
        <time>2023-09-17T09:38:04.424Z</time>
      </trkpt>
      <trkpt lat="43.74888" lon="1.44997">
        <ele>129.778351</ele>
        <time>2023-09-17T09:38:06.424Z</time>
      </trkpt>
      <trkpt lat="43.7489" lon="1.44994">
        <ele>129.778905</ele>
        <time>2023-09-17T09:38:07.424Z</time>
      </trkpt>
      <trkpt lat="43.74892" lon="1.44993">
        <ele>129.779471</ele>
        <time>2023-09-17T09:38:07.424Z</time>
      </trkpt>
      <trkpt lat="43.74892" lon="1.44993">
        <ele>129.779471</ele>
        <time>2023-09-17T09:38:07.424Z</time>
      </trkpt>
      <trkpt lat="43.74894" lon="1.44991">
        <ele>129.779919</ele>
        <time>2023-09-17T09:38:09.424Z</time>
      </trkpt>
      <trkpt lat="43.74896" lon="1.4499">
        <ele>129.780343</ele>
        <time>2023-09-17T09:38:10.424Z</time>
      </trkpt>
      <trkpt lat="43.74899" lon="1.44989">
        <ele>129.78093</ele>
        <time>2023-09-17T09:38:11.424Z</time>
      </trkpt>
      <trkpt lat="43.74901" lon="1.44989">
        <ele>129.777715</ele>
        <time>2023-09-17T09:38:13.424Z</time>
      </trkpt>
      <trkpt lat="43.74903" lon="1.44988">
        <ele>129.772932</ele>
        <time>2023-09-17T09:38:14.424Z</time>
      </trkpt>
      <trkpt lat="43.74903" lon="1.44988">
        <ele>129.772932</ele>
        <time>2023-09-17T09:38:14.424Z</time>
      </trkpt>
      <trkpt lat="43.74906" lon="1.44988">
        <ele>129.763227</ele>
        <time>2023-09-17T09:38:15.424Z</time>
      </trkpt>
      <trkpt lat="43.74908" lon="1.44987">
        <ele>129.757185</ele>
        <time>2023-09-17T09:38:16.424Z</time>
      </trkpt>
      <trkpt lat="43.74911" lon="1.44987">
        <ele>129.74786</ele>
        <time>2023-09-17T09:38:17.424Z</time>
      </trkpt>
      <trkpt lat="43.74915" lon="1.44986">
        <ele>129.735694</ele>
        <time>2023-09-17T09:38:18.424Z</time>
      </trkpt>
      <trkpt lat="43.74919" lon="1.44985">
        <ele>129.721598</ele>
        <time>2023-09-17T09:38:19.424Z</time>
      </trkpt>
      <trkpt lat="43.74919" lon="1.44985">
        <ele>129.721598</ele>
        <time>2023-09-17T09:38:19.424Z</time>
      </trkpt>
      <trkpt lat="43.74923" lon="1.44984">
        <ele>129.709681</ele>
        <time>2023-09-17T09:38:20.424Z</time>
      </trkpt>
      <trkpt lat="43.74923" lon="1.44984">
        <ele>129.709681</ele>
        <time>2023-09-17T09:38:20.424Z</time>
      </trkpt>
      <trkpt lat="43.74926" lon="1.44983">
        <ele>129.698553</ele>
        <time>2023-09-17T09:38:22.424Z</time>
      </trkpt>
      <trkpt lat="43.74926" lon="1.44983">
        <ele>129.698553</ele>
        <time>2023-09-17T09:38:22.424Z</time>
      </trkpt>
      <trkpt lat="43.74929" lon="1.44983">
        <ele>129.689081</ele>
        <time>2023-09-17T09:38:23.424Z</time>
      </trkpt>
      <trkpt lat="43.74933" lon="1.44981">
        <ele>129.67683</ele>
        <time>2023-09-17T09:38:24.424Z</time>
      </trkpt>
      <trkpt lat="43.74933" lon="1.44981">
        <ele>129.67683</ele>
        <time>2023-09-17T09:38:25.424Z</time>
      </trkpt>
      <trkpt lat="43.74937" lon="1.4498">
        <ele>129.665867</ele>
        <time>2023-09-17T09:38:28.424Z</time>
      </trkpt>
      <trkpt lat="43.74937" lon="1.4498">
        <ele>129.665867</ele>
        <time>2023-09-17T09:38:29.424Z</time>
      </trkpt>
      <trkpt lat="43.7494" lon="1.4498">
        <ele>129.655287</ele>
        <time>2023-09-17T09:38:31.424Z</time>
      </trkpt>
      <trkpt lat="43.74944" lon="1.44979">
        <ele>129.644462</ele>
        <time>2023-09-17T09:38:32.424Z</time>
      </trkpt>
      <trkpt lat="43.74947" lon="1.44978">
        <ele>129.632025</ele>
        <time>2023-09-17T09:38:33.424Z</time>
      </trkpt>
      <trkpt lat="43.74951" lon="1.44977">
        <ele>129.621425</ele>
        <time>2023-09-17T09:38:34.424Z</time>
      </trkpt>
      <trkpt lat="43.74954" lon="1.44976">
        <ele>129.610489</ele>
        <time>2023-09-17T09:38:35.424Z</time>
      </trkpt>
      <trkpt lat="43.74958" lon="1.44975">
        <ele>129.598405</ele>
        <time>2023-09-17T09:38:36.424Z</time>
      </trkpt>
      <trkpt lat="43.74958" lon="1.44975">
        <ele>129.598405</ele>
        <time>2023-09-17T09:38:36.424Z</time>
      </trkpt>
      <trkpt lat="43.74962" lon="1.44973">
        <ele>129.585011</ele>
        <time>2023-09-17T09:38:37.424Z</time>
      </trkpt>
      <trkpt lat="43.74966" lon="1.44972">
        <ele>129.571668</ele>
        <time>2023-09-17T09:38:39.424Z</time>
      </trkpt>
      <trkpt lat="43.74973" lon="1.4497">
        <ele>129.552233</ele>
        <time>2023-09-17T09:38:40.424Z</time>
      </trkpt>
      <trkpt lat="43.7498" lon="1.44968">
        <ele>129.529116</ele>
        <time>2023-09-17T09:38:41.424Z</time>
      </trkpt>
      <trkpt lat="43.74985" lon="1.44966">
        <ele>129.513605</ele>
        <time>2023-09-17T09:38:42.424Z</time>
      </trkpt>
      <trkpt lat="43.74991" lon="1.44965">
        <ele>129.495311</ele>
        <time>2023-09-17T09:38:43.424Z</time>
      </trkpt>
      <trkpt lat="43.74996" lon="1.44963">
        <ele>129.478583</ele>
        <time>2023-09-17T09:38:44.424Z</time>
      </trkpt>
      <trkpt lat="43.75001" lon="1.44962">
        <ele>129.46285</ele>
        <time>2023-09-17T09:38:44.424Z</time>
      </trkpt>
      <trkpt lat="43.75006" lon="1.44961">
        <ele>129.447422</ele>
        <time>2023-09-17T09:38:46.424Z</time>
      </trkpt>
      <trkpt lat="43.75011" lon="1.4496">
        <ele>129.431689</ele>
        <time>2023-09-17T09:38:47.424Z</time>
      </trkpt>
      <trkpt lat="43.75011" lon="1.4496">
        <ele>129.431689</ele>
        <time>2023-09-17T09:38:47.424Z</time>
      </trkpt>
      <trkpt lat="43.75015" lon="1.44959">
        <ele>129.417177</ele>
        <time>2023-09-17T09:38:48.424Z</time>
      </trkpt>
      <trkpt lat="43.75021" lon="1.44957">
        <ele>129.400448</ele>
        <time>2023-09-17T09:38:49.424Z</time>
      </trkpt>
      <trkpt lat="43.75025" lon="1.44956">
        <ele>129.386075</ele>
        <time>2023-09-17T09:38:50.424Z</time>
      </trkpt>
      <trkpt lat="43.7503" lon="1.44955">
        <ele>129.370606</ele>
        <time>2023-09-17T09:38:51.424Z</time>
      </trkpt>
      <trkpt lat="43.75034" lon="1.44954">
        <ele>129.357354</ele>
        <time>2023-09-17T09:38:52.424Z</time>
      </trkpt>
      <trkpt lat="43.75039" lon="1.44953">
        <ele>129.342881</ele>
        <time>2023-09-17T09:38:53.424Z</time>
      </trkpt>
      <trkpt lat="43.75044" lon="1.44952">
        <ele>129.327065</ele>
        <time>2023-09-17T09:38:54.424Z</time>
      </trkpt>
      <trkpt lat="43.75049" lon="1.4495">
        <ele>129.311507</ele>
        <time>2023-09-17T09:38:55.424Z</time>
      </trkpt>
      <trkpt lat="43.75053" lon="1.44949">
        <ele>129.298254</ele>
        <time>2023-09-17T09:38:55.424Z</time>
      </trkpt>
      <trkpt lat="43.75058" lon="1.44948">
        <ele>129.282481</ele>
        <time>2023-09-17T09:38:57.424Z</time>
      </trkpt>
      <trkpt lat="43.75058" lon="1.44948">
        <ele>129.282481</ele>
        <time>2023-09-17T09:38:57.424Z</time>
      </trkpt>
      <trkpt lat="43.75063" lon="1.44946">
        <ele>129.267925</ele>
        <time>2023-09-17T09:38:58.424Z</time>
      </trkpt>
      <trkpt lat="43.75066" lon="1.44945">
        <ele>129.255889</ele>
        <time>2023-09-17T09:38:59.424Z</time>
      </trkpt>
      <trkpt lat="43.75071" lon="1.44944">
        <ele>129.242546</ele>
        <time>2023-09-17T09:38:59.424Z</time>
      </trkpt>
      <trkpt lat="43.75071" lon="1.44944">
        <ele>129.242546</ele>
        <time>2023-09-17T09:38:59.424Z</time>
      </trkpt>
      <trkpt lat="43.75075" lon="1.44943">
        <ele>129.229294</ele>
        <time>2023-09-17T09:39:01.424Z</time>
      </trkpt>
      <trkpt lat="43.75075" lon="1.44943">
        <ele>129.229294</ele>
        <time>2023-09-17T09:39:01.424Z</time>
      </trkpt>
      <trkpt lat="43.75079" lon="1.44942">
        <ele>129.183617</ele>
        <time>2023-09-17T09:39:02.424Z</time>
      </trkpt>
      <trkpt lat="43.75083" lon="1.44941">
        <ele>129.119589</ele>
        <time>2023-09-17T09:39:03.424Z</time>
      </trkpt>
      <trkpt lat="43.75087" lon="1.4494">
        <ele>129.055794</ele>
        <time>2023-09-17T09:39:03.424Z</time>
      </trkpt>
      <trkpt lat="43.75089" lon="1.44939">
        <ele>129.017192</ele>
        <time>2023-09-17T09:39:05.424Z</time>
      </trkpt>
      <trkpt lat="43.75093" lon="1.44938">
        <ele>128.945942</ele>
        <time>2023-09-17T09:39:05.424Z</time>
      </trkpt>
      <trkpt lat="43.75098" lon="1.44937">
        <ele>128.868951</ele>
        <time>2023-09-17T09:39:07.424Z</time>
      </trkpt>
      <trkpt lat="43.75101" lon="1.44936">
        <ele>128.812071</ele>
        <time>2023-09-17T09:39:09.424Z</time>
      </trkpt>
      <trkpt lat="43.75101" lon="1.44936">
        <ele>128.812071</ele>
        <time>2023-09-17T09:39:09.424Z</time>
      </trkpt>
      <trkpt lat="43.75106" lon="1.44934">
        <ele>128.723298</ele>
        <time>2023-09-17T09:39:10.424Z</time>
      </trkpt>
      <trkpt lat="43.75106" lon="1.44934">
        <ele>128.723298</ele>
        <time>2023-09-17T09:39:10.424Z</time>
      </trkpt>
      <trkpt lat="43.75112" lon="1.44933">
        <ele>128.633096</ele>
        <time>2023-09-17T09:39:11.424Z</time>
      </trkpt>
      <trkpt lat="43.75116" lon="1.44932">
        <ele>128.5693</ele>
        <time>2023-09-17T09:39:12.424Z</time>
      </trkpt>
      <trkpt lat="43.7512" lon="1.44931">
        <ele>128.491621</ele>
        <time>2023-09-17T09:39:13.424Z</time>
      </trkpt>
      <trkpt lat="43.7512" lon="1.44931">
        <ele>128.491621</ele>
        <time>2023-09-17T09:39:13.424Z</time>
      </trkpt>
      <trkpt lat="43.75129" lon="1.44929">
        <ele>128.347025</ele>
        <time>2023-09-17T09:39:14.424Z</time>
      </trkpt>
      <trkpt lat="43.75133" lon="1.44928">
        <ele>128.281381</ele>
        <time>2023-09-17T09:39:16.424Z</time>
      </trkpt>
      <trkpt lat="43.75133" lon="1.44928">
        <ele>128.281381</ele>
        <time>2023-09-17T09:39:16.424Z</time>
      </trkpt>
      <trkpt lat="43.75137" lon="1.44927">
        <ele>128.211094</ele>
        <time>2023-09-17T09:39:17.424Z</time>
      </trkpt>
      <trkpt lat="43.75137" lon="1.44927">
        <ele>128.211094</ele>
        <time>2023-09-17T09:39:17.424Z</time>
      </trkpt>
      <trkpt lat="43.75141" lon="1.44927">
        <ele>128.143096</ele>
        <time>2023-09-17T09:39:17.424Z</time>
      </trkpt>
      <trkpt lat="43.75141" lon="1.44927">
        <ele>128.143096</ele>
        <time>2023-09-17T09:39:17.424Z</time>
      </trkpt>
      <trkpt lat="43.75146" lon="1.44926">
        <ele>128.066772</ele>
        <time>2023-09-17T09:39:18.424Z</time>
      </trkpt>
      <trkpt lat="43.75151" lon="1.44926">
        <ele>127.977702</ele>
        <time>2023-09-17T09:39:21.424Z</time>
      </trkpt>
      <trkpt lat="43.75151" lon="1.44926">
        <ele>127.977702</ele>
        <time>2023-09-17T09:39:21.424Z</time>
      </trkpt>
      <trkpt lat="43.75155" lon="1.44929">
        <ele>127.9023</ele>
        <time>2023-09-17T09:39:22.424Z</time>
      </trkpt>
      <trkpt lat="43.75155" lon="1.44929">
        <ele>127.9023</ele>
        <time>2023-09-17T09:39:22.424Z</time>
      </trkpt>
      <trkpt lat="43.75159" lon="1.44933">
        <ele>127.822209</ele>
        <time>2023-09-17T09:39:23.424Z</time>
      </trkpt>
      <trkpt lat="43.75159" lon="1.44933">
        <ele>127.822209</ele>
        <time>2023-09-17T09:39:23.424Z</time>
      </trkpt>
      <trkpt lat="43.7516" lon="1.44939">
        <ele>127.757656</ele>
        <time>2023-09-17T09:39:23.424Z</time>
      </trkpt>
      <trkpt lat="43.7516" lon="1.44939">
        <ele>127.757656</ele>
        <time>2023-09-17T09:39:23.424Z</time>
      </trkpt>
      <trkpt lat="43.75159" lon="1.44944">
        <ele>127.688518</ele>
        <time>2023-09-17T09:39:25.424Z</time>
      </trkpt>
      <trkpt lat="43.75159" lon="1.44944">
        <ele>127.688518</ele>
        <time>2023-09-17T09:39:25.424Z</time>
      </trkpt>
      <trkpt lat="43.75156" lon="1.4495">
        <ele>127.609692</ele>
        <time>2023-09-17T09:39:25.424Z</time>
      </trkpt>
      <trkpt lat="43.75156" lon="1.4495">
        <ele>127.609692</ele>
        <time>2023-09-17T09:39:25.424Z</time>
      </trkpt>
      <trkpt lat="43.75154" lon="1.44956">
        <ele>127.527714</ele>
        <time>2023-09-17T09:39:28.424Z</time>
      </trkpt>
      <trkpt lat="43.75154" lon="1.44956">
        <ele>127.527714</ele>
        <time>2023-09-17T09:39:28.424Z</time>
      </trkpt>
      <trkpt lat="43.75152" lon="1.44962">
        <ele>127.447841</ele>
        <time>2023-09-17T09:39:29.424Z</time>
      </trkpt>
      <trkpt lat="43.75152" lon="1.44962">
        <ele>127.447841</ele>
        <time>2023-09-17T09:39:29.424Z</time>
      </trkpt>
      <trkpt lat="43.7515" lon="1.44968">
        <ele>127.366918</ele>
        <time>2023-09-17T09:39:29.424Z</time>
      </trkpt>
      <trkpt lat="43.7515" lon="1.44968">
        <ele>127.366918</ele>
        <time>2023-09-17T09:39:29.424Z</time>
      </trkpt>
      <trkpt lat="43.75147" lon="1.44974">
        <ele>127.288092</ele>
        <time>2023-09-17T09:39:30.424Z</time>
      </trkpt>
      <trkpt lat="43.75147" lon="1.44974">
        <ele>127.288092</ele>
        <time>2023-09-17T09:39:30.424Z</time>
      </trkpt>
      <trkpt lat="43.75145" lon="1.44981">
        <ele>127.188983</ele>
        <time>2023-09-17T09:39:32.424Z</time>
      </trkpt>
      <trkpt lat="43.75145" lon="1.44981">
        <ele>127.188983</ele>
        <time>2023-09-17T09:39:32.424Z</time>
      </trkpt>
      <trkpt lat="43.75142" lon="1.44988">
        <ele>127.100607</ele>
        <time>2023-09-17T09:39:33.424Z</time>
      </trkpt>
      <trkpt lat="43.7514" lon="1.44993">
        <ele>127.029047</ele>
        <time>2023-09-17T09:39:34.424Z</time>
      </trkpt>
      <trkpt lat="43.75138" lon="1.45001">
        <ele>126.935256</ele>
        <time>2023-09-17T09:39:35.424Z</time>
      </trkpt>
      <trkpt lat="43.75135" lon="1.45009">
        <ele>126.824994</ele>
        <time>2023-09-17T09:39:36.424Z</time>
      </trkpt>
      <trkpt lat="43.75135" lon="1.45009">
        <ele>126.824994</ele>
        <time>2023-09-17T09:39:36.424Z</time>
      </trkpt>
      <trkpt lat="43.75133" lon="1.45015">
        <ele>126.740553</ele>
        <time>2023-09-17T09:39:37.424Z</time>
      </trkpt>
      <trkpt lat="43.75131" lon="1.45022">
        <ele>126.653251</ele>
        <time>2023-09-17T09:39:38.424Z</time>
      </trkpt>
      <trkpt lat="43.75131" lon="1.45022">
        <ele>126.653251</ele>
        <time>2023-09-17T09:39:38.424Z</time>
      </trkpt>
      <trkpt lat="43.75129" lon="1.45027">
        <ele>126.580619</ele>
        <time>2023-09-17T09:39:39.424Z</time>
      </trkpt>
      <trkpt lat="43.75126" lon="1.45034">
        <ele>126.496522</ele>
        <time>2023-09-17T09:39:40.424Z</time>
      </trkpt>
      <trkpt lat="43.75124" lon="1.4504">
        <ele>126.41738</ele>
        <time>2023-09-17T09:39:41.424Z</time>
      </trkpt>
      <trkpt lat="43.75124" lon="1.4504">
        <ele>126.41738</ele>
        <time>2023-09-17T09:39:41.424Z</time>
      </trkpt>
      <trkpt lat="43.75122" lon="1.45046">
        <ele>126.335403</ele>
        <time>2023-09-17T09:39:42.424Z</time>
      </trkpt>
      <trkpt lat="43.7512" lon="1.45052">
        <ele>126.257496</ele>
        <time>2023-09-17T09:39:43.424Z</time>
      </trkpt>
      <trkpt lat="43.75118" lon="1.45057">
        <ele>126.29726</ele>
        <time>2023-09-17T09:39:44.424Z</time>
      </trkpt>
      <trkpt lat="43.75116" lon="1.45064">
        <ele>126.341488</ele>
        <time>2023-09-17T09:39:45.424Z</time>
      </trkpt>
      <trkpt lat="43.75115" lon="1.4507">
        <ele>126.381688</ele>
        <time>2023-09-17T09:39:46.424Z</time>
      </trkpt>
      <trkpt lat="43.75114" lon="1.45076">
        <ele>126.421054</ele>
        <time>2023-09-17T09:39:47.424Z</time>
      </trkpt>
      <trkpt lat="43.75116" lon="1.45081">
        <ele>126.45798</ele>
        <time>2023-09-17T09:39:48.424Z</time>
      </trkpt>
      <trkpt lat="43.75118" lon="1.45087">
        <ele>126.497718</ele>
        <time>2023-09-17T09:39:49.424Z</time>
      </trkpt>
      <trkpt lat="43.75121" lon="1.45091">
        <ele>126.537837</ele>
        <time>2023-09-17T09:39:50.424Z</time>
      </trkpt>
      <trkpt lat="43.75121" lon="1.45091">
        <ele>126.537837</ele>
        <time>2023-09-17T09:39:50.424Z</time>
      </trkpt>
      <trkpt lat="43.75125" lon="1.45094">
        <ele>126.576444</ele>
        <time>2023-09-17T09:39:51.424Z</time>
      </trkpt>
      <trkpt lat="43.75129" lon="1.45096">
        <ele>126.614448</ele>
        <time>2023-09-17T09:39:52.424Z</time>
      </trkpt>
      <trkpt lat="43.75129" lon="1.45096">
        <ele>126.614448</ele>
        <time>2023-09-17T09:39:52.424Z</time>
      </trkpt>
      <trkpt lat="43.75133" lon="1.45099">
        <ele>126.652165</ele>
        <time>2023-09-17T09:39:53.424Z</time>
      </trkpt>
      <trkpt lat="43.75137" lon="1.45101">
        <ele>126.694627</ele>
        <time>2023-09-17T09:39:54.424Z</time>
      </trkpt>
      <trkpt lat="43.75142" lon="1.45103">
        <ele>126.737526</ele>
        <time>2023-09-17T09:39:55.424Z</time>
      </trkpt>
      <trkpt lat="43.75145" lon="1.45104">
        <ele>126.762757</ele>
        <time>2023-09-17T09:39:56.424Z</time>
      </trkpt>
      <trkpt lat="43.75145" lon="1.45104">
        <ele>126.762757</ele>
        <time>2023-09-17T09:39:56.424Z</time>
      </trkpt>
      <trkpt lat="43.75148" lon="1.45106">
        <ele>126.799161</ele>
        <time>2023-09-17T09:39:56.424Z</time>
      </trkpt>
      <trkpt lat="43.75153" lon="1.45108">
        <ele>126.842677</ele>
        <time>2023-09-17T09:39:58.424Z</time>
      </trkpt>
      <trkpt lat="43.75158" lon="1.45111">
        <ele>126.886314</ele>
        <time>2023-09-17T09:39:58.424Z</time>
      </trkpt>
      <trkpt lat="43.75162" lon="1.45114">
        <ele>126.926991</ele>
        <time>2023-09-17T09:40:00.424Z</time>
      </trkpt>
      <trkpt lat="43.75167" lon="1.45116">
        <ele>126.975225</ele>
        <time>2023-09-17T09:40:00.424Z</time>
      </trkpt>
      <trkpt lat="43.75171" lon="1.45119">
        <ele>127.019433</ele>
        <time>2023-09-17T09:40:02.424Z</time>
      </trkpt>
      <trkpt lat="43.75171" lon="1.45119">
        <ele>127.019433</ele>
        <time>2023-09-17T09:40:02.424Z</time>
      </trkpt>
      <trkpt lat="43.75176" lon="1.45121">
        <ele>127.063171</ele>
        <time>2023-09-17T09:40:03.424Z</time>
      </trkpt>
      <trkpt lat="43.7518" lon="1.45124">
        <ele>127.103358</ele>
        <time>2023-09-17T09:40:04.424Z</time>
      </trkpt>
      <trkpt lat="43.75184" lon="1.45126">
        <ele>127.140521</ele>
        <time>2023-09-17T09:40:05.424Z</time>
      </trkpt>
      <trkpt lat="43.75184" lon="1.45126">
        <ele>127.140521</ele>
        <time>2023-09-17T09:40:05.424Z</time>
      </trkpt>
      <trkpt lat="43.75188" lon="1.45129">
        <ele>127.180948</ele>
        <time>2023-09-17T09:40:06.424Z</time>
      </trkpt>
      <trkpt lat="43.75193" lon="1.45131">
        <ele>127.22409</ele>
        <time>2023-09-17T09:40:07.424Z</time>
      </trkpt>
      <trkpt lat="43.75197" lon="1.45133">
        <ele>127.264277</ele>
        <time>2023-09-17T09:40:08.424Z</time>
      </trkpt>
      <trkpt lat="43.75197" lon="1.45133">
        <ele>127.264277</ele>
        <time>2023-09-17T09:40:08.424Z</time>
      </trkpt>
      <trkpt lat="43.752" lon="1.45136">
        <ele>127.298477</ele>
        <time>2023-09-17T09:40:09.424Z</time>
      </trkpt>
      <trkpt lat="43.75205" lon="1.45138">
        <ele>127.339413</ele>
        <time>2023-09-17T09:40:10.424Z</time>
      </trkpt>
      <trkpt lat="43.75205" lon="1.45138">
        <ele>127.339413</ele>
        <time>2023-09-17T09:40:10.424Z</time>
      </trkpt>
      <trkpt lat="43.75209" lon="1.45141">
        <ele>127.382798</ele>
        <time>2023-09-17T09:40:11.424Z</time>
      </trkpt>
      <trkpt lat="43.75213" lon="1.45143">
        <ele>127.420772</ele>
        <time>2023-09-17T09:40:12.424Z</time>
      </trkpt>
      <trkpt lat="43.75217" lon="1.45146">
        <ele>127.462531</ele>
        <time>2023-09-17T09:40:13.424Z</time>
      </trkpt>
      <trkpt lat="43.75221" lon="1.45149">
        <ele>127.497406</ele>
        <time>2023-09-17T09:40:14.424Z</time>
      </trkpt>
      <trkpt lat="43.75224" lon="1.45151">
        <ele>127.528897</ele>
        <time>2023-09-17T09:40:15.424Z</time>
      </trkpt>
      <trkpt lat="43.75227" lon="1.45155">
        <ele>127.570604</ele>
        <time>2023-09-17T09:40:16.424Z</time>
      </trkpt>
      <trkpt lat="43.75232" lon="1.45159">
        <ele>127.615984</ele>
        <time>2023-09-17T09:40:17.424Z</time>
      </trkpt>
      <trkpt lat="43.75235" lon="1.45163">
        <ele>127.65805</ele>
        <time>2023-09-17T09:40:18.424Z</time>
      </trkpt>
      <trkpt lat="43.75239" lon="1.45166">
        <ele>127.69866</ele>
        <time>2023-09-17T09:40:18.424Z</time>
      </trkpt>
      <trkpt lat="43.75244" lon="1.4517">
        <ele>127.746653</ele>
        <time>2023-09-17T09:40:20.424Z</time>
      </trkpt>
      <trkpt lat="43.75248" lon="1.45174">
        <ele>127.787622</ele>
        <time>2023-09-17T09:40:21.424Z</time>
      </trkpt>
      <trkpt lat="43.75248" lon="1.45174">
        <ele>127.787622</ele>
        <time>2023-09-17T09:40:21.424Z</time>
      </trkpt>
      <trkpt lat="43.75252" lon="1.45178">
        <ele>127.835283</ele>
        <time>2023-09-17T09:40:22.424Z</time>
      </trkpt>
      <trkpt lat="43.75256" lon="1.45181">
        <ele>127.916618</ele>
        <time>2023-09-17T09:40:23.424Z</time>
      </trkpt>
      <trkpt lat="43.75261" lon="1.45185">
        <ele>128.067147</ele>
        <time>2023-09-17T09:40:24.424Z</time>
      </trkpt>
      <trkpt lat="43.75261" lon="1.45185">
        <ele>128.067147</ele>
        <time>2023-09-17T09:40:24.424Z</time>
      </trkpt>
      <trkpt lat="43.75266" lon="1.4519">
        <ele>128.230566</ele>
        <time>2023-09-17T09:40:25.424Z</time>
      </trkpt>
      <trkpt lat="43.75266" lon="1.4519">
        <ele>128.230566</ele>
        <time>2023-09-17T09:40:25.424Z</time>
      </trkpt>
      <trkpt lat="43.75269" lon="1.45193">
        <ele>128.3581</ele>
        <time>2023-09-17T09:40:26.424Z</time>
      </trkpt>
      <trkpt lat="43.75274" lon="1.45197">
        <ele>128.51652</ele>
        <time>2023-09-17T09:40:27.424Z</time>
      </trkpt>
      <trkpt lat="43.75279" lon="1.452">
        <ele>128.665175</ele>
        <time>2023-09-17T09:40:28.424Z</time>
      </trkpt>
      <trkpt lat="43.75283" lon="1.45204">
        <ele>128.79872</ele>
        <time>2023-09-17T09:40:29.424Z</time>
      </trkpt>
      <trkpt lat="43.75283" lon="1.45204">
        <ele>128.79872</ele>
        <time>2023-09-17T09:40:29.424Z</time>
      </trkpt>
      <trkpt lat="43.75288" lon="1.45208">
        <ele>128.950508</ele>
        <time>2023-09-17T09:40:30.424Z</time>
      </trkpt>
      <trkpt lat="43.75292" lon="1.45212">
        <ele>129.105601</ele>
        <time>2023-09-17T09:40:31.424Z</time>
      </trkpt>
      <trkpt lat="43.75292" lon="1.45212">
        <ele>129.105601</ele>
        <time>2023-09-17T09:40:31.424Z</time>
      </trkpt>
      <trkpt lat="43.75296" lon="1.45216">
        <ele>129.248048</ele>
        <time>2023-09-17T09:40:32.424Z</time>
      </trkpt>
      <trkpt lat="43.75301" lon="1.4522">
        <ele>129.396703</ele>
        <time>2023-09-17T09:40:33.424Z</time>
      </trkpt>
      <trkpt lat="43.75301" lon="1.4522">
        <ele>129.396703</ele>
        <time>2023-09-17T09:40:33.424Z</time>
      </trkpt>
      <trkpt lat="43.75305" lon="1.45223">
        <ele>129.519949</ele>
        <time>2023-09-17T09:40:34.424Z</time>
      </trkpt>
      <trkpt lat="43.75309" lon="1.45226">
        <ele>129.656928</ele>
        <time>2023-09-17T09:40:35.424Z</time>
      </trkpt>
      <trkpt lat="43.75309" lon="1.45226">
        <ele>129.656928</ele>
        <time>2023-09-17T09:40:35.424Z</time>
      </trkpt>
      <trkpt lat="43.75313" lon="1.4523">
        <ele>129.78121</ele>
        <time>2023-09-17T09:40:36.424Z</time>
      </trkpt>
      <trkpt lat="43.75313" lon="1.4523">
        <ele>129.78121</ele>
        <time>2023-09-17T09:40:36.424Z</time>
      </trkpt>
      <trkpt lat="43.75317" lon="1.45233">
        <ele>129.906553</ele>
        <time>2023-09-17T09:40:37.424Z</time>
      </trkpt>
      <trkpt lat="43.75317" lon="1.45233">
        <ele>129.906553</ele>
        <time>2023-09-17T09:40:37.424Z</time>
      </trkpt>
      <trkpt lat="43.7532" lon="1.45236">
        <ele>130.030836</ele>
        <time>2023-09-17T09:40:38.424Z</time>
      </trkpt>
      <trkpt lat="43.7532" lon="1.45236">
        <ele>130.030836</ele>
        <time>2023-09-17T09:40:38.424Z</time>
      </trkpt>
      <trkpt lat="43.75325" lon="1.4524">
        <ele>130.168867</ele>
        <time>2023-09-17T09:40:39.424Z</time>
      </trkpt>
      <trkpt lat="43.75325" lon="1.4524">
        <ele>130.168867</ele>
        <time>2023-09-17T09:40:39.424Z</time>
      </trkpt>
      <trkpt lat="43.75328" lon="1.45242">
        <ele>130.278916</ele>
        <time>2023-09-17T09:40:40.424Z</time>
      </trkpt>
      <trkpt lat="43.75332" lon="1.45245">
        <ele>130.402161</ele>
        <time>2023-09-17T09:40:41.424Z</time>
      </trkpt>
      <trkpt lat="43.75332" lon="1.45245">
        <ele>130.402161</ele>
        <time>2023-09-17T09:40:41.424Z</time>
      </trkpt>
      <trkpt lat="43.75335" lon="1.45249">
        <ele>130.518187</ele>
        <time>2023-09-17T09:40:42.424Z</time>
      </trkpt>
      <trkpt lat="43.75335" lon="1.45249">
        <ele>130.518187</ele>
        <time>2023-09-17T09:40:42.424Z</time>
      </trkpt>
      <trkpt lat="43.75339" lon="1.45252">
        <ele>130.648001</ele>
        <time>2023-09-17T09:40:43.424Z</time>
      </trkpt>
      <trkpt lat="43.75339" lon="1.45252">
        <ele>130.648001</ele>
        <time>2023-09-17T09:40:43.424Z</time>
      </trkpt>
      <trkpt lat="43.75343" lon="1.45256">
        <ele>130.775534</ele>
        <time>2023-09-17T09:40:44.424Z</time>
      </trkpt>
      <trkpt lat="43.75346" lon="1.45259">
        <ele>130.896178</ele>
        <time>2023-09-17T09:40:45.424Z</time>
      </trkpt>
      <trkpt lat="43.75346" lon="1.45259">
        <ele>130.896178</ele>
        <time>2023-09-17T09:40:45.424Z</time>
      </trkpt>
      <trkpt lat="43.7535" lon="1.45263">
        <ele>131.022605</ele>
        <time>2023-09-17T09:40:46.424Z</time>
      </trkpt>
      <trkpt lat="43.7535" lon="1.45263">
        <ele>131.022605</ele>
        <time>2023-09-17T09:40:46.424Z</time>
      </trkpt>
      <trkpt lat="43.75353" lon="1.45265">
        <ele>131.098499</ele>
        <time>2023-09-17T09:40:47.424Z</time>
      </trkpt>
      <trkpt lat="43.75353" lon="1.45265">
        <ele>131.098499</ele>
        <time>2023-09-17T09:40:47.424Z</time>
      </trkpt>
      <trkpt lat="43.75356" lon="1.45266">
        <ele>131.198842</ele>
        <time>2023-09-17T09:40:48.424Z</time>
      </trkpt>
      <trkpt lat="43.75356" lon="1.45266">
        <ele>131.198842</ele>
        <time>2023-09-17T09:40:48.424Z</time>
      </trkpt>
      <trkpt lat="43.75359" lon="1.45268">
        <ele>131.285377</ele>
        <time>2023-09-17T09:40:49.424Z</time>
      </trkpt>
      <trkpt lat="43.75359" lon="1.45268">
        <ele>131.285377</ele>
        <time>2023-09-17T09:40:49.424Z</time>
      </trkpt>
      <trkpt lat="43.75362" lon="1.45269">
        <ele>131.371601</ele>
        <time>2023-09-17T09:40:50.424Z</time>
      </trkpt>
      <trkpt lat="43.75362" lon="1.45269">
        <ele>131.371601</ele>
        <time>2023-09-17T09:40:50.424Z</time>
      </trkpt>
      <trkpt lat="43.75365" lon="1.45269">
        <ele>131.459714</ele>
        <time>2023-09-17T09:40:52.424Z</time>
      </trkpt>
      <trkpt lat="43.75365" lon="1.45269">
        <ele>131.459714</ele>
        <time>2023-09-17T09:40:52.424Z</time>
      </trkpt>
      <trkpt lat="43.75367" lon="1.45267">
        <ele>131.54178</ele>
        <time>2023-09-17T09:40:53.424Z</time>
      </trkpt>
      <trkpt lat="43.75367" lon="1.45267">
        <ele>131.54178</ele>
        <time>2023-09-17T09:40:53.424Z</time>
      </trkpt>
      <trkpt lat="43.7537" lon="1.45263">
        <ele>131.658087</ele>
        <time>2023-09-17T09:40:54.424Z</time>
      </trkpt>
      <trkpt lat="43.75375" lon="1.45249">
        <ele>131.97309</ele>
        <time>2023-09-17T09:40:56.424Z</time>
      </trkpt>
      <trkpt lat="43.75375" lon="1.45249">
        <ele>131.97309</ele>
        <time>2023-09-17T09:40:56.424Z</time>
      </trkpt>
      <trkpt lat="43.75377" lon="1.45244">
        <ele>132.076799</ele>
        <time>2023-09-17T09:40:57.424Z</time>
      </trkpt>
      <trkpt lat="43.75377" lon="1.45244">
        <ele>132.076799</ele>
        <time>2023-09-17T09:40:57.424Z</time>
      </trkpt>
      <trkpt lat="43.75379" lon="1.45238">
        <ele>132.216458</ele>
        <time>2023-09-17T09:40:58.424Z</time>
      </trkpt>
      <trkpt lat="43.75379" lon="1.45238">
        <ele>132.216458</ele>
        <time>2023-09-17T09:40:58.424Z</time>
      </trkpt>
      <trkpt lat="43.75381" lon="1.45232">
        <ele>132.355341</ele>
        <time>2023-09-17T09:40:59.424Z</time>
      </trkpt>
      <trkpt lat="43.75384" lon="1.45224">
        <ele>132.533564</ele>
        <time>2023-09-17T09:41:00.424Z</time>
      </trkpt>
      <trkpt lat="43.75384" lon="1.45224">
        <ele>132.533564</ele>
        <time>2023-09-17T09:41:00.424Z</time>
      </trkpt>
      <trkpt lat="43.75387" lon="1.45216">
        <ele>132.704837</ele>
        <time>2023-09-17T09:41:01.424Z</time>
      </trkpt>
      <trkpt lat="43.75387" lon="1.45216">
        <ele>132.704837</ele>
        <time>2023-09-17T09:41:01.424Z</time>
      </trkpt>
      <trkpt lat="43.75389" lon="1.4521">
        <ele>132.847311</ele>
        <time>2023-09-17T09:41:02.424Z</time>
      </trkpt>
      <trkpt lat="43.75392" lon="1.45203">
        <ele>132.834563</ele>
        <time>2023-09-17T09:41:03.424Z</time>
      </trkpt>
      <trkpt lat="43.75392" lon="1.45203">
        <ele>132.834563</ele>
        <time>2023-09-17T09:41:03.424Z</time>
      </trkpt>
      <trkpt lat="43.75395" lon="1.45196">
        <ele>132.765456</ele>
        <time>2023-09-17T09:41:04.424Z</time>
      </trkpt>
      <trkpt lat="43.75398" lon="1.45189">
        <ele>132.703684</ele>
        <time>2023-09-17T09:41:05.424Z</time>
      </trkpt>
      <trkpt lat="43.75398" lon="1.45189">
        <ele>132.703684</ele>
        <time>2023-09-17T09:41:05.424Z</time>
      </trkpt>
      <trkpt lat="43.75401" lon="1.45183">
        <ele>132.640178</ele>
        <time>2023-09-17T09:41:06.424Z</time>
      </trkpt>
      <trkpt lat="43.75404" lon="1.45176">
        <ele>132.571514</ele>
        <time>2023-09-17T09:41:07.424Z</time>
      </trkpt>
      <trkpt lat="43.75407" lon="1.45169">
        <ele>132.511004</ele>
        <time>2023-09-17T09:41:08.424Z</time>
      </trkpt>
      <trkpt lat="43.75411" lon="1.45161">
        <ele>132.431727</ele>
        <time>2023-09-17T09:41:09.424Z</time>
      </trkpt>
      <trkpt lat="43.75411" lon="1.45161">
        <ele>132.431727</ele>
        <time>2023-09-17T09:41:09.424Z</time>
      </trkpt>
      <trkpt lat="43.75414" lon="1.45154">
        <ele>132.363705</ele>
        <time>2023-09-17T09:41:10.424Z</time>
      </trkpt>
      <trkpt lat="43.75417" lon="1.45148">
        <ele>132.300199</ele>
        <time>2023-09-17T09:41:11.424Z</time>
      </trkpt>
      <trkpt lat="43.7542" lon="1.4514">
        <ele>132.228164</ele>
        <time>2023-09-17T09:41:12.424Z</time>
      </trkpt>
      <trkpt lat="43.7542" lon="1.4514">
        <ele>132.228164</ele>
        <time>2023-09-17T09:41:12.424Z</time>
      </trkpt>
      <trkpt lat="43.75424" lon="1.45132">
        <ele>132.149507</ele>
        <time>2023-09-17T09:41:13.424Z</time>
      </trkpt>
      <trkpt lat="43.75428" lon="1.45124">
        <ele>132.076011</ele>
        <time>2023-09-17T09:41:14.424Z</time>
      </trkpt>
      <trkpt lat="43.75431" lon="1.45116">
        <ele>131.999842</ele>
        <time>2023-09-17T09:41:15.424Z</time>
      </trkpt>
      <trkpt lat="43.75431" lon="1.45116">
        <ele>131.999842</ele>
        <time>2023-09-17T09:41:15.424Z</time>
      </trkpt>
      <trkpt lat="43.75435" lon="1.45108">
        <ele>131.924251</ele>
        <time>2023-09-17T09:41:16.424Z</time>
      </trkpt>
      <trkpt lat="43.75435" lon="1.45108">
        <ele>131.924251</ele>
        <time>2023-09-17T09:41:16.424Z</time>
      </trkpt>
      <trkpt lat="43.75438" lon="1.45101">
        <ele>131.852285</ele>
        <time>2023-09-17T09:41:17.424Z</time>
      </trkpt>
      <trkpt lat="43.75438" lon="1.45101">
        <ele>131.852285</ele>
        <time>2023-09-17T09:41:17.424Z</time>
      </trkpt>
      <trkpt lat="43.75441" lon="1.45092">
        <ele>131.772551</ele>
        <time>2023-09-17T09:41:18.424Z</time>
      </trkpt>
      <trkpt lat="43.75441" lon="1.45092">
        <ele>131.772551</ele>
        <time>2023-09-17T09:41:18.424Z</time>
      </trkpt>
      <trkpt lat="43.75444" lon="1.45083">
        <ele>131.694278</ele>
        <time>2023-09-17T09:41:19.424Z</time>
      </trkpt>
      <trkpt lat="43.75444" lon="1.45083">
        <ele>131.694278</ele>
        <time>2023-09-17T09:41:19.424Z</time>
      </trkpt>
      <trkpt lat="43.75446" lon="1.45074">
        <ele>131.618441</ele>
        <time>2023-09-17T09:41:20.424Z</time>
      </trkpt>
      <trkpt lat="43.75446" lon="1.45074">
        <ele>131.618441</ele>
        <time>2023-09-17T09:41:20.424Z</time>
      </trkpt>
      <trkpt lat="43.75448" lon="1.45065">
        <ele>131.542862</ele>
        <time>2023-09-17T09:41:21.424Z</time>
      </trkpt>
      <trkpt lat="43.75448" lon="1.45065">
        <ele>131.542862</ele>
        <time>2023-09-17T09:41:21.424Z</time>
      </trkpt>
      <trkpt lat="43.7545" lon="1.45056">
        <ele>131.461495</ele>
        <time>2023-09-17T09:41:22.424Z</time>
      </trkpt>
      <trkpt lat="43.75452" lon="1.45047">
        <ele>131.38357</ele>
        <time>2023-09-17T09:41:23.424Z</time>
      </trkpt>
      <trkpt lat="43.75452" lon="1.45047">
        <ele>131.38357</ele>
        <time>2023-09-17T09:41:23.424Z</time>
      </trkpt>
      <trkpt lat="43.75454" lon="1.45037">
        <ele>131.299996</ele>
        <time>2023-09-17T09:41:24.424Z</time>
      </trkpt>
      <trkpt lat="43.75454" lon="1.45037">
        <ele>131.299996</ele>
        <time>2023-09-17T09:41:24.424Z</time>
      </trkpt>
      <trkpt lat="43.75456" lon="1.45027">
        <ele>131.218629</ele>
        <time>2023-09-17T09:41:25.424Z</time>
      </trkpt>
      <trkpt lat="43.75456" lon="1.45027">
        <ele>131.218629</ele>
        <time>2023-09-17T09:41:25.424Z</time>
      </trkpt>
      <trkpt lat="43.75457" lon="1.45017">
        <ele>131.133858</ele>
        <time>2023-09-17T09:41:26.424Z</time>
      </trkpt>
      <trkpt lat="43.75457" lon="1.45017">
        <ele>131.133858</ele>
        <time>2023-09-17T09:41:26.424Z</time>
      </trkpt>
      <trkpt lat="43.75459" lon="1.45007">
        <ele>131.052796</ele>
        <time>2023-09-17T09:41:27.424Z</time>
      </trkpt>
      <trkpt lat="43.75459" lon="1.45007">
        <ele>131.052796</ele>
        <time>2023-09-17T09:41:27.424Z</time>
      </trkpt>
      <trkpt lat="43.75461" lon="1.44997">
        <ele>130.967801</ele>
        <time>2023-09-17T09:41:28.424Z</time>
      </trkpt>
      <trkpt lat="43.75461" lon="1.44997">
        <ele>130.967801</ele>
        <time>2023-09-17T09:41:28.424Z</time>
      </trkpt>
      <trkpt lat="43.75463" lon="1.44987">
        <ele>130.883593</ele>
        <time>2023-09-17T09:41:29.424Z</time>
      </trkpt>
      <trkpt lat="43.75464" lon="1.4498">
        <ele>130.830692</ele>
        <time>2023-09-17T09:41:30.424Z</time>
      </trkpt>
      <trkpt lat="43.75464" lon="1.4498">
        <ele>130.830692</ele>
        <time>2023-09-17T09:41:30.424Z</time>
      </trkpt>
      <trkpt lat="43.75467" lon="1.44967">
        <ele>130.738079</ele>
        <time>2023-09-17T09:41:31.424Z</time>
      </trkpt>
      <trkpt lat="43.75467" lon="1.44967">
        <ele>130.738079</ele>
        <time>2023-09-17T09:41:31.424Z</time>
      </trkpt>
      <trkpt lat="43.75469" lon="1.44957">
        <ele>130.671021</ele>
        <time>2023-09-17T09:41:32.424Z</time>
      </trkpt>
      <trkpt lat="43.75469" lon="1.44957">
        <ele>130.671021</ele>
        <time>2023-09-17T09:41:32.424Z</time>
      </trkpt>
      <trkpt lat="43.75472" lon="1.44947">
        <ele>130.59845</ele>
        <time>2023-09-17T09:41:33.424Z</time>
      </trkpt>
      <trkpt lat="43.75472" lon="1.44947">
        <ele>130.59845</ele>
        <time>2023-09-17T09:41:33.424Z</time>
      </trkpt>
      <trkpt lat="43.75473" lon="1.44937">
        <ele>130.530747</ele>
        <time>2023-09-17T09:41:34.424Z</time>
      </trkpt>
      <trkpt lat="43.75473" lon="1.44937">
        <ele>130.530747</ele>
        <time>2023-09-17T09:41:34.424Z</time>
      </trkpt>
      <trkpt lat="43.75476" lon="1.44927">
        <ele>130.455753</ele>
        <time>2023-09-17T09:41:35.424Z</time>
      </trkpt>
      <trkpt lat="43.75476" lon="1.44927">
        <ele>130.455753</ele>
        <time>2023-09-17T09:41:35.424Z</time>
      </trkpt>
      <trkpt lat="43.75478" lon="1.44917">
        <ele>130.388267</ele>
        <time>2023-09-17T09:41:36.424Z</time>
      </trkpt>
      <trkpt lat="43.75478" lon="1.44917">
        <ele>130.388267</ele>
        <time>2023-09-17T09:41:36.424Z</time>
      </trkpt>
      <trkpt lat="43.7548" lon="1.44909">
        <ele>130.333344</ele>
        <time>2023-09-17T09:41:37.424Z</time>
      </trkpt>
      <trkpt lat="43.75484" lon="1.44898">
        <ele>130.251668</ele>
        <time>2023-09-17T09:41:38.424Z</time>
      </trkpt>
      <trkpt lat="43.75484" lon="1.44898">
        <ele>130.251668</ele>
        <time>2023-09-17T09:41:38.424Z</time>
      </trkpt>
      <trkpt lat="43.75486" lon="1.44889">
        <ele>130.186027</ele>
        <time>2023-09-17T09:41:39.424Z</time>
      </trkpt>
      <trkpt lat="43.75489" lon="1.44879">
        <ele>130.119808</ele>
        <time>2023-09-17T09:41:40.424Z</time>
      </trkpt>
      <trkpt lat="43.75489" lon="1.44879">
        <ele>130.119808</ele>
        <time>2023-09-17T09:41:40.424Z</time>
      </trkpt>
      <trkpt lat="43.75491" lon="1.44871">
        <ele>130.057603</ele>
        <time>2023-09-17T09:41:41.424Z</time>
      </trkpt>
      <trkpt lat="43.75491" lon="1.44871">
        <ele>130.057603</ele>
        <time>2023-09-17T09:41:41.424Z</time>
      </trkpt>
      <trkpt lat="43.75494" lon="1.44862">
        <ele>129.993276</ele>
        <time>2023-09-17T09:41:42.424Z</time>
      </trkpt>
      <trkpt lat="43.75494" lon="1.44862">
        <ele>129.993276</ele>
        <time>2023-09-17T09:41:42.424Z</time>
      </trkpt>
      <trkpt lat="43.75496" lon="1.44853">
        <ele>129.933908</ele>
        <time>2023-09-17T09:41:43.424Z</time>
      </trkpt>
      <trkpt lat="43.75496" lon="1.44853">
        <ele>129.933908</ele>
        <time>2023-09-17T09:41:43.424Z</time>
      </trkpt>
      <trkpt lat="43.75498" lon="1.44844">
        <ele>129.870839</ele>
        <time>2023-09-17T09:41:44.424Z</time>
      </trkpt>
      <trkpt lat="43.75498" lon="1.44844">
        <ele>129.870839</ele>
        <time>2023-09-17T09:41:44.424Z</time>
      </trkpt>
      <trkpt lat="43.755" lon="1.44835">
        <ele>129.808917</ele>
        <time>2023-09-17T09:41:45.424Z</time>
      </trkpt>
      <trkpt lat="43.75501" lon="1.44827">
        <ele>129.747722</ele>
        <time>2023-09-17T09:41:45.424Z</time>
      </trkpt>
      <trkpt lat="43.75503" lon="1.44817">
        <ele>129.684143</ele>
        <time>2023-09-17T09:41:47.424Z</time>
      </trkpt>
      <trkpt lat="43.75504" lon="1.44808">
        <ele>129.624554</ele>
        <time>2023-09-17T09:41:48.424Z</time>
      </trkpt>
      <trkpt lat="43.75505" lon="1.448">
        <ele>129.568684</ele>
        <time>2023-09-17T09:41:49.424Z</time>
      </trkpt>
      <trkpt lat="43.75506" lon="1.44791">
        <ele>129.509096</ele>
        <time>2023-09-17T09:41:50.424Z</time>
      </trkpt>
      <trkpt lat="43.75506" lon="1.44791">
        <ele>129.509096</ele>
        <time>2023-09-17T09:41:50.424Z</time>
      </trkpt>
      <trkpt lat="43.75507" lon="1.44783">
        <ele>129.453226</ele>
        <time>2023-09-17T09:41:51.424Z</time>
      </trkpt>
      <trkpt lat="43.75508" lon="1.44775">
        <ele>129.394844</ele>
        <time>2023-09-17T09:41:52.424Z</time>
      </trkpt>
      <trkpt lat="43.7551" lon="1.44766">
        <ele>129.334515</ele>
        <time>2023-09-17T09:41:53.424Z</time>
      </trkpt>
      <trkpt lat="43.7551" lon="1.44766">
        <ele>129.334515</ele>
        <time>2023-09-17T09:41:53.424Z</time>
      </trkpt>
      <trkpt lat="43.75511" lon="1.44757">
        <ele>129.273321</ele>
        <time>2023-09-17T09:41:54.424Z</time>
      </trkpt>
      <trkpt lat="43.75511" lon="1.44757">
        <ele>129.273321</ele>
        <time>2023-09-17T09:41:54.424Z</time>
      </trkpt>
      <trkpt lat="43.75513" lon="1.44749">
        <ele>129.217528</ele>
        <time>2023-09-17T09:41:55.424Z</time>
      </trkpt>
      <trkpt lat="43.75513" lon="1.44749">
        <ele>129.217528</ele>
        <time>2023-09-17T09:41:55.424Z</time>
      </trkpt>
      <trkpt lat="43.75514" lon="1.4474">
        <ele>129.236289</ele>
        <time>2023-09-17T09:41:56.424Z</time>
      </trkpt>
      <trkpt lat="43.75516" lon="1.44732">
        <ele>129.305042</ele>
        <time>2023-09-17T09:41:57.424Z</time>
      </trkpt>
      <trkpt lat="43.75516" lon="1.44732">
        <ele>129.305042</ele>
        <time>2023-09-17T09:41:57.424Z</time>
      </trkpt>
      <trkpt lat="43.75517" lon="1.44723">
        <ele>129.371025</ele>
        <time>2023-09-17T09:41:58.424Z</time>
      </trkpt>
      <trkpt lat="43.75519" lon="1.44715">
        <ele>129.437196</ele>
        <time>2023-09-17T09:41:59.424Z</time>
      </trkpt>
      <trkpt lat="43.75521" lon="1.44707">
        <ele>129.507861</ele>
        <time>2023-09-17T09:42:00.424Z</time>
      </trkpt>
      <trkpt lat="43.75523" lon="1.44699">
        <ele>129.575527</ele>
        <time>2023-09-17T09:42:01.424Z</time>
      </trkpt>
      <trkpt lat="43.75523" lon="1.44699">
        <ele>129.575527</ele>
        <time>2023-09-17T09:42:01.424Z</time>
      </trkpt>
      <trkpt lat="43.75525" lon="1.4469">
        <ele>129.643193</ele>
        <time>2023-09-17T09:42:02.424Z</time>
      </trkpt>
      <trkpt lat="43.75527" lon="1.44682">
        <ele>129.713779</ele>
        <time>2023-09-17T09:42:03.424Z</time>
      </trkpt>
      <trkpt lat="43.75529" lon="1.44674">
        <ele>129.782942</ele>
        <time>2023-09-17T09:42:04.424Z</time>
      </trkpt>
      <trkpt lat="43.75529" lon="1.44674">
        <ele>129.782942</ele>
        <time>2023-09-17T09:42:04.424Z</time>
      </trkpt>
      <trkpt lat="43.75531" lon="1.44665">
        <ele>129.855</ele>
        <time>2023-09-17T09:42:05.424Z</time>
      </trkpt>
      <trkpt lat="43.75531" lon="1.44665">
        <ele>129.855</ele>
        <time>2023-09-17T09:42:05.424Z</time>
      </trkpt>
      <trkpt lat="43.75533" lon="1.44657">
        <ele>129.924914</ele>
        <time>2023-09-17T09:42:06.424Z</time>
      </trkpt>
      <trkpt lat="43.75535" lon="1.44648">
        <ele>129.99258</ele>
        <time>2023-09-17T09:42:07.424Z</time>
      </trkpt>
      <trkpt lat="43.75537" lon="1.4464">
        <ele>130.063245</ele>
        <time>2023-09-17T09:42:08.424Z</time>
      </trkpt>
      <trkpt lat="43.75537" lon="1.4464">
        <ele>130.063245</ele>
        <time>2023-09-17T09:42:08.424Z</time>
      </trkpt>
      <trkpt lat="43.75539" lon="1.44632">
        <ele>130.127267</ele>
        <time>2023-09-17T09:42:09.424Z</time>
      </trkpt>
      <trkpt lat="43.75544" lon="1.44627">
        <ele>130.18804</ele>
        <time>2023-09-17T09:42:10.424Z</time>
      </trkpt>
      <trkpt lat="43.75544" lon="1.44627">
        <ele>130.18804</ele>
        <time>2023-09-17T09:42:10.424Z</time>
      </trkpt>
      <trkpt lat="43.75548" lon="1.44626">
        <ele>130.238475</ele>
        <time>2023-09-17T09:42:11.424Z</time>
      </trkpt>
      <trkpt lat="43.75554" lon="1.44628">
        <ele>130.301904</ele>
        <time>2023-09-17T09:42:12.424Z</time>
      </trkpt>
      <trkpt lat="43.75554" lon="1.44628">
        <ele>130.301904</ele>
        <time>2023-09-17T09:42:12.424Z</time>
      </trkpt>
      <trkpt lat="43.75559" lon="1.44631">
        <ele>130.357559</ele>
        <time>2023-09-17T09:42:13.424Z</time>
      </trkpt>
      <trkpt lat="43.75563" lon="1.44637">
        <ele>130.419911</ele>
        <time>2023-09-17T09:42:14.424Z</time>
      </trkpt>
      <trkpt lat="43.75568" lon="1.44642">
        <ele>130.488533</ele>
        <time>2023-09-17T09:42:15.424Z</time>
      </trkpt>
      <trkpt lat="43.75572" lon="1.44648">
        <ele>130.552513</ele>
        <time>2023-09-17T09:42:16.424Z</time>
      </trkpt>
      <trkpt lat="43.75576" lon="1.44653">
        <ele>130.613286</ele>
        <time>2023-09-17T09:42:17.424Z</time>
      </trkpt>
      <trkpt lat="43.7558" lon="1.44658">
        <ele>130.67458</ele>
        <time>2023-09-17T09:42:18.424Z</time>
      </trkpt>
      <trkpt lat="43.75584" lon="1.44663">
        <ele>130.73161</ele>
        <time>2023-09-17T09:42:19.424Z</time>
      </trkpt>
      <trkpt lat="43.75588" lon="1.44668">
        <ele>130.792904</ele>
        <time>2023-09-17T09:42:20.424Z</time>
      </trkpt>
      <trkpt lat="43.75592" lon="1.44674">
        <ele>130.856336</ele>
        <time>2023-09-17T09:42:21.424Z</time>
      </trkpt>
      <trkpt lat="43.75596" lon="1.44679">
        <ele>130.909928</ele>
        <time>2023-09-17T09:42:22.424Z</time>
      </trkpt>
      <trkpt lat="43.75596" lon="1.44679">
        <ele>130.909928</ele>
        <time>2023-09-17T09:42:22.424Z</time>
      </trkpt>
      <trkpt lat="43.756" lon="1.44684">
        <ele>130.967501</ele>
        <time>2023-09-17T09:42:23.424Z</time>
      </trkpt>
      <trkpt lat="43.75604" lon="1.44689">
        <ele>131.028795</ele>
        <time>2023-09-17T09:42:24.424Z</time>
      </trkpt>
      <trkpt lat="43.75608" lon="1.44694">
        <ele>131.089568</ele>
        <time>2023-09-17T09:42:25.424Z</time>
      </trkpt>
      <trkpt lat="43.75612" lon="1.44699">
        <ele>131.147141</ele>
        <time>2023-09-17T09:42:26.424Z</time>
      </trkpt>
      <trkpt lat="43.75612" lon="1.44699">
        <ele>131.147141</ele>
        <time>2023-09-17T09:42:26.424Z</time>
      </trkpt>
      <trkpt lat="43.75616" lon="1.44704">
        <ele>131.354102</ele>
        <time>2023-09-17T09:42:27.424Z</time>
      </trkpt>
      <trkpt lat="43.7562" lon="1.44709">
        <ele>131.537815</ele>
        <time>2023-09-17T09:42:28.424Z</time>
      </trkpt>
      <trkpt lat="43.75624" lon="1.44714">
        <ele>131.751426</ele>
        <time>2023-09-17T09:42:29.424Z</time>
      </trkpt>
      <trkpt lat="43.75624" lon="1.44714">
        <ele>131.751426</ele>
        <time>2023-09-17T09:42:29.424Z</time>
      </trkpt>
      <trkpt lat="43.75628" lon="1.44719">
        <ele>131.946262</ele>
        <time>2023-09-17T09:42:30.424Z</time>
      </trkpt>
      <trkpt lat="43.75631" lon="1.44724">
        <ele>132.133918</ele>
        <time>2023-09-17T09:42:31.424Z</time>
      </trkpt>
      <trkpt lat="43.75631" lon="1.44724">
        <ele>132.133918</ele>
        <time>2023-09-17T09:42:31.424Z</time>
      </trkpt>
      <trkpt lat="43.75635" lon="1.44728">
        <ele>132.32982</ele>
        <time>2023-09-17T09:42:32.424Z</time>
      </trkpt>
      <trkpt lat="43.75635" lon="1.44728">
        <ele>132.32982</ele>
        <time>2023-09-17T09:42:32.424Z</time>
      </trkpt>
      <trkpt lat="43.75638" lon="1.44733">
        <ele>132.505901</ele>
        <time>2023-09-17T09:42:33.424Z</time>
      </trkpt>
      <trkpt lat="43.75638" lon="1.44733">
        <ele>132.505901</ele>
        <time>2023-09-17T09:42:33.424Z</time>
      </trkpt>
      <trkpt lat="43.75642" lon="1.44737">
        <ele>132.681981</ele>
        <time>2023-09-17T09:42:34.424Z</time>
      </trkpt>
      <trkpt lat="43.75642" lon="1.44737">
        <ele>132.681981</ele>
        <time>2023-09-17T09:42:34.424Z</time>
      </trkpt>
      <trkpt lat="43.75646" lon="1.44742">
        <ele>132.891991</ele>
        <time>2023-09-17T09:42:35.424Z</time>
      </trkpt>
      <trkpt lat="43.75646" lon="1.44742">
        <ele>132.891991</ele>
        <time>2023-09-17T09:42:35.424Z</time>
      </trkpt>
      <trkpt lat="43.75649" lon="1.44746">
        <ele>133.070913</ele>
        <time>2023-09-17T09:42:36.424Z</time>
      </trkpt>
      <trkpt lat="43.75649" lon="1.44746">
        <ele>133.070913</ele>
        <time>2023-09-17T09:42:36.424Z</time>
      </trkpt>
      <trkpt lat="43.75653" lon="1.44751">
        <ele>133.248868</ele>
        <time>2023-09-17T09:42:37.424Z</time>
      </trkpt>
      <trkpt lat="43.75657" lon="1.44755">
        <ele>133.438285</ele>
        <time>2023-09-17T09:42:38.424Z</time>
      </trkpt>
      <trkpt lat="43.75657" lon="1.44755">
        <ele>133.438285</ele>
        <time>2023-09-17T09:42:38.424Z</time>
      </trkpt>
      <trkpt lat="43.7566" lon="1.44759">
        <ele>133.61624</ele>
        <time>2023-09-17T09:42:39.424Z</time>
      </trkpt>
      <trkpt lat="43.7566" lon="1.44759">
        <ele>133.61624</ele>
        <time>2023-09-17T09:42:39.424Z</time>
      </trkpt>
      <trkpt lat="43.75663" lon="1.44764">
        <ele>133.793341</ele>
        <time>2023-09-17T09:42:40.424Z</time>
      </trkpt>
      <trkpt lat="43.75663" lon="1.44764">
        <ele>133.793341</ele>
        <time>2023-09-17T09:42:40.424Z</time>
      </trkpt>
      <trkpt lat="43.75667" lon="1.44768">
        <ele>133.991899</ele>
        <time>2023-09-17T09:42:41.424Z</time>
      </trkpt>
      <trkpt lat="43.75667" lon="1.44768">
        <ele>133.991899</ele>
        <time>2023-09-17T09:42:41.424Z</time>
      </trkpt>
      <trkpt lat="43.7567" lon="1.44772">
        <ele>134.147373</ele>
        <time>2023-09-17T09:42:42.424Z</time>
      </trkpt>
      <trkpt lat="43.75674" lon="1.44777">
        <ele>134.35044</ele>
        <time>2023-09-17T09:42:43.424Z</time>
      </trkpt>
      <trkpt lat="43.75674" lon="1.44777">
        <ele>134.35044</ele>
        <time>2023-09-17T09:42:43.424Z</time>
      </trkpt>
      <trkpt lat="43.75678" lon="1.4478">
        <ele>134.51882</ele>
        <time>2023-09-17T09:42:44.424Z</time>
      </trkpt>
      <trkpt lat="43.75678" lon="1.4478">
        <ele>134.51882</ele>
        <time>2023-09-17T09:42:44.424Z</time>
      </trkpt>
      <trkpt lat="43.75681" lon="1.44785">
        <ele>134.680003</ele>
        <time>2023-09-17T09:42:45.424Z</time>
      </trkpt>
      <trkpt lat="43.75681" lon="1.44785">
        <ele>134.680003</ele>
        <time>2023-09-17T09:42:45.424Z</time>
      </trkpt>
      <trkpt lat="43.75684" lon="1.44789">
        <ele>134.86644</ele>
        <time>2023-09-17T09:42:46.424Z</time>
      </trkpt>
      <trkpt lat="43.75684" lon="1.44789">
        <ele>134.86644</ele>
        <time>2023-09-17T09:42:46.424Z</time>
      </trkpt>
      <trkpt lat="43.75688" lon="1.44794">
        <ele>135.046292</ele>
        <time>2023-09-17T09:42:47.424Z</time>
      </trkpt>
      <trkpt lat="43.75688" lon="1.44794">
        <ele>135.046292</ele>
        <time>2023-09-17T09:42:47.424Z</time>
      </trkpt>
      <trkpt lat="43.75691" lon="1.44798">
        <ele>135.215419</ele>
        <time>2023-09-17T09:42:48.424Z</time>
      </trkpt>
      <trkpt lat="43.75691" lon="1.44798">
        <ele>135.215419</ele>
        <time>2023-09-17T09:42:48.424Z</time>
      </trkpt>
      <trkpt lat="43.75695" lon="1.44803">
        <ele>135.414946</ele>
        <time>2023-09-17T09:42:49.424Z</time>
      </trkpt>
      <trkpt lat="43.75695" lon="1.44803">
        <ele>135.414946</ele>
        <time>2023-09-17T09:42:49.424Z</time>
      </trkpt>
      <trkpt lat="43.75697" lon="1.44807">
        <ele>135.569821</ele>
        <time>2023-09-17T09:42:50.424Z</time>
      </trkpt>
      <trkpt lat="43.75697" lon="1.44807">
        <ele>135.569821</ele>
        <time>2023-09-17T09:42:50.424Z</time>
      </trkpt>
      <trkpt lat="43.757" lon="1.44811">
        <ele>135.709376</ele>
        <time>2023-09-17T09:42:51.424Z</time>
      </trkpt>
      <trkpt lat="43.757" lon="1.44811">
        <ele>135.709376</ele>
        <time>2023-09-17T09:42:51.424Z</time>
      </trkpt>
      <trkpt lat="43.75703" lon="1.44815">
        <ele>135.880542</ele>
        <time>2023-09-17T09:42:52.424Z</time>
      </trkpt>
      <trkpt lat="43.75703" lon="1.44815">
        <ele>135.880542</ele>
        <time>2023-09-17T09:42:52.424Z</time>
      </trkpt>
      <trkpt lat="43.75707" lon="1.44821">
        <ele>136.089272</ele>
        <time>2023-09-17T09:42:53.424Z</time>
      </trkpt>
      <trkpt lat="43.75707" lon="1.44821">
        <ele>136.089272</ele>
        <time>2023-09-17T09:42:53.424Z</time>
      </trkpt>
      <trkpt lat="43.7571" lon="1.44826">
        <ele>136.273072</ele>
        <time>2023-09-17T09:42:54.424Z</time>
      </trkpt>
      <trkpt lat="43.7571" lon="1.44826">
        <ele>136.273072</ele>
        <time>2023-09-17T09:42:54.424Z</time>
      </trkpt>
      <trkpt lat="43.75713" lon="1.44832">
        <ele>136.463575</ele>
        <time>2023-09-17T09:42:55.424Z</time>
      </trkpt>
      <trkpt lat="43.75713" lon="1.44832">
        <ele>136.463575</ele>
        <time>2023-09-17T09:42:55.424Z</time>
      </trkpt>
      <trkpt lat="43.75716" lon="1.44837">
        <ele>136.651723</ele>
        <time>2023-09-17T09:42:56.424Z</time>
      </trkpt>
      <trkpt lat="43.75716" lon="1.44837">
        <ele>136.651723</ele>
        <time>2023-09-17T09:42:56.424Z</time>
      </trkpt>
      <trkpt lat="43.75719" lon="1.44842">
        <ele>136.835812</ele>
        <time>2023-09-17T09:42:56.424Z</time>
      </trkpt>
      <trkpt lat="43.75719" lon="1.44842">
        <ele>136.835812</ele>
        <time>2023-09-17T09:42:56.424Z</time>
      </trkpt>
      <trkpt lat="43.75722" lon="1.44847">
        <ele>137.013214</ele>
        <time>2023-09-17T09:42:58.424Z</time>
      </trkpt>
      <trkpt lat="43.75722" lon="1.44847">
        <ele>137.013214</ele>
        <time>2023-09-17T09:42:58.424Z</time>
      </trkpt>
      <trkpt lat="43.75725" lon="1.44853">
        <ele>137.208071</ele>
        <time>2023-09-17T09:42:59.424Z</time>
      </trkpt>
      <trkpt lat="43.75725" lon="1.44853">
        <ele>137.208071</ele>
        <time>2023-09-17T09:42:59.424Z</time>
      </trkpt>
      <trkpt lat="43.75728" lon="1.44858">
        <ele>137.394021</ele>
        <time>2023-09-17T09:43:00.424Z</time>
      </trkpt>
      <trkpt lat="43.75728" lon="1.44858">
        <ele>137.394021</ele>
        <time>2023-09-17T09:43:00.424Z</time>
      </trkpt>
      <trkpt lat="43.7573" lon="1.44863">
        <ele>137.559721</ele>
        <time>2023-09-17T09:43:01.424Z</time>
      </trkpt>
      <trkpt lat="43.7573" lon="1.44863">
        <ele>137.559721</ele>
        <time>2023-09-17T09:43:01.424Z</time>
      </trkpt>
      <trkpt lat="43.75733" lon="1.44869">
        <ele>137.747974</ele>
        <time>2023-09-17T09:43:02.424Z</time>
      </trkpt>
      <trkpt lat="43.75733" lon="1.44869">
        <ele>137.747974</ele>
        <time>2023-09-17T09:43:02.424Z</time>
      </trkpt>
      <trkpt lat="43.75736" lon="1.44875">
        <ele>137.936227</ele>
        <time>2023-09-17T09:43:03.424Z</time>
      </trkpt>
      <trkpt lat="43.75736" lon="1.44875">
        <ele>137.936227</ele>
        <time>2023-09-17T09:43:03.424Z</time>
      </trkpt>
      <trkpt lat="43.75739" lon="1.4488">
        <ele>138.121925</ele>
        <time>2023-09-17T09:43:04.424Z</time>
      </trkpt>
      <trkpt lat="43.75739" lon="1.4488">
        <ele>138.121925</ele>
        <time>2023-09-17T09:43:04.424Z</time>
      </trkpt>
      <trkpt lat="43.75742" lon="1.44885">
        <ele>138.320799</ele>
        <time>2023-09-17T09:43:05.424Z</time>
      </trkpt>
      <trkpt lat="43.75742" lon="1.44885">
        <ele>138.320799</ele>
        <time>2023-09-17T09:43:05.424Z</time>
      </trkpt>
      <trkpt lat="43.75745" lon="1.44891">
        <ele>138.512825</ele>
        <time>2023-09-17T09:43:06.424Z</time>
      </trkpt>
      <trkpt lat="43.75745" lon="1.44891">
        <ele>138.512825</ele>
        <time>2023-09-17T09:43:06.424Z</time>
      </trkpt>
      <trkpt lat="43.75748" lon="1.44896">
        <ele>138.705055</ele>
        <time>2023-09-17T09:43:07.424Z</time>
      </trkpt>
      <trkpt lat="43.75748" lon="1.44896">
        <ele>138.705055</ele>
        <time>2023-09-17T09:43:07.424Z</time>
      </trkpt>
      <trkpt lat="43.75751" lon="1.44901">
        <ele>138.897081</ele>
        <time>2023-09-17T09:43:08.424Z</time>
      </trkpt>
      <trkpt lat="43.75751" lon="1.44901">
        <ele>138.897081</ele>
        <time>2023-09-17T09:43:08.424Z</time>
      </trkpt>
      <trkpt lat="43.75754" lon="1.44907">
        <ele>139.087129</ele>
        <time>2023-09-17T09:43:09.424Z</time>
      </trkpt>
      <trkpt lat="43.75754" lon="1.44907">
        <ele>139.087129</ele>
        <time>2023-09-17T09:43:09.424Z</time>
      </trkpt>
      <trkpt lat="43.75757" lon="1.44912">
        <ele>139.288209</ele>
        <time>2023-09-17T09:43:10.424Z</time>
      </trkpt>
      <trkpt lat="43.7576" lon="1.44917">
        <ele>139.457479</ele>
        <time>2023-09-17T09:43:10.424Z</time>
      </trkpt>
      <trkpt lat="43.7576" lon="1.44917">
        <ele>139.457479</ele>
        <time>2023-09-17T09:43:10.424Z</time>
      </trkpt>
      <trkpt lat="43.75763" lon="1.44923">
        <ele>139.661534</ele>
        <time>2023-09-17T09:43:12.424Z</time>
      </trkpt>
      <trkpt lat="43.75763" lon="1.44923">
        <ele>139.661534</ele>
        <time>2023-09-17T09:43:12.424Z</time>
      </trkpt>
      <trkpt lat="43.75766" lon="1.44928">
        <ele>139.84727</ele>
        <time>2023-09-17T09:43:13.424Z</time>
      </trkpt>
      <trkpt lat="43.75766" lon="1.44928">
        <ele>139.84727</ele>
        <time>2023-09-17T09:43:13.424Z</time>
      </trkpt>
      <trkpt lat="43.75769" lon="1.44933">
        <ele>140.028328</ele>
        <time>2023-09-17T09:43:14.424Z</time>
      </trkpt>
      <trkpt lat="43.75769" lon="1.44933">
        <ele>140.028328</ele>
        <time>2023-09-17T09:43:14.424Z</time>
      </trkpt>
      <trkpt lat="43.75772" lon="1.44937">
        <ele>140.211933</ele>
        <time>2023-09-17T09:43:14.424Z</time>
      </trkpt>
      <trkpt lat="43.75772" lon="1.44937">
        <ele>140.211933</ele>
        <time>2023-09-17T09:43:14.424Z</time>
      </trkpt>
      <trkpt lat="43.75776" lon="1.44942">
        <ele>140.399431</ele>
        <time>2023-09-17T09:43:16.424Z</time>
      </trkpt>
      <trkpt lat="43.75776" lon="1.44942">
        <ele>140.399431</ele>
        <time>2023-09-17T09:43:16.424Z</time>
      </trkpt>
      <trkpt lat="43.75779" lon="1.44947">
        <ele>140.591683</ele>
        <time>2023-09-17T09:43:17.424Z</time>
      </trkpt>
      <trkpt lat="43.75779" lon="1.44947">
        <ele>140.591683</ele>
        <time>2023-09-17T09:43:17.424Z</time>
      </trkpt>
      <trkpt lat="43.75782" lon="1.44951">
        <ele>140.74975</ele>
        <time>2023-09-17T09:43:17.424Z</time>
      </trkpt>
      <trkpt lat="43.75782" lon="1.44951">
        <ele>140.74975</ele>
        <time>2023-09-17T09:43:17.424Z</time>
      </trkpt>
      <trkpt lat="43.75785" lon="1.44956">
        <ele>140.9486</ele>
        <time>2023-09-17T09:43:18.424Z</time>
      </trkpt>
      <trkpt lat="43.75785" lon="1.44956">
        <ele>140.9486</ele>
        <time>2023-09-17T09:43:18.424Z</time>
      </trkpt>
      <trkpt lat="43.75789" lon="1.44961">
        <ele>141.148537</ele>
        <time>2023-09-17T09:43:20.424Z</time>
      </trkpt>
      <trkpt lat="43.75789" lon="1.44961">
        <ele>141.148537</ele>
        <time>2023-09-17T09:43:20.424Z</time>
      </trkpt>
      <trkpt lat="43.75792" lon="1.44964">
        <ele>141.307216</ele>
        <time>2023-09-17T09:43:21.424Z</time>
      </trkpt>
      <trkpt lat="43.75792" lon="1.44964">
        <ele>141.307216</ele>
        <time>2023-09-17T09:43:21.424Z</time>
      </trkpt>
      <trkpt lat="43.75797" lon="1.44969">
        <ele>141.514466</ele>
        <time>2023-09-17T09:43:21.424Z</time>
      </trkpt>
      <trkpt lat="43.75797" lon="1.44969">
        <ele>141.514466</ele>
        <time>2023-09-17T09:43:21.424Z</time>
      </trkpt>
      <trkpt lat="43.758" lon="1.44973">
        <ele>141.700754</ele>
        <time>2023-09-17T09:43:23.424Z</time>
      </trkpt>
      <trkpt lat="43.758" lon="1.44973">
        <ele>141.700754</ele>
        <time>2023-09-17T09:43:23.424Z</time>
      </trkpt>
      <trkpt lat="43.75804" lon="1.44977">
        <ele>141.883684</ele>
        <time>2023-09-17T09:43:24.424Z</time>
      </trkpt>
      <trkpt lat="43.75804" lon="1.44977">
        <ele>141.883684</ele>
        <time>2023-09-17T09:43:24.424Z</time>
      </trkpt>
      <trkpt lat="43.75808" lon="1.4498">
        <ele>142.077955</ele>
        <time>2023-09-17T09:43:24.424Z</time>
      </trkpt>
      <trkpt lat="43.75812" lon="1.44984">
        <ele>142.25452</ele>
        <time>2023-09-17T09:43:25.424Z</time>
      </trkpt>
      <trkpt lat="43.75812" lon="1.44984">
        <ele>142.25452</ele>
        <time>2023-09-17T09:43:25.424Z</time>
      </trkpt>
      <trkpt lat="43.75816" lon="1.44987">
        <ele>142.447292</ele>
        <time>2023-09-17T09:43:27.424Z</time>
      </trkpt>
      <trkpt lat="43.75816" lon="1.44987">
        <ele>142.447292</ele>
        <time>2023-09-17T09:43:27.424Z</time>
      </trkpt>
      <trkpt lat="43.75821" lon="1.4499">
        <ele>142.633033</ele>
        <time>2023-09-17T09:43:28.424Z</time>
      </trkpt>
      <trkpt lat="43.75825" lon="1.44993">
        <ele>142.814949</ele>
        <time>2023-09-17T09:43:28.424Z</time>
      </trkpt>
      <trkpt lat="43.75825" lon="1.44993">
        <ele>142.814949</ele>
        <time>2023-09-17T09:43:28.424Z</time>
      </trkpt>
      <trkpt lat="43.75829" lon="1.44996">
        <ele>143.009929</ele>
        <time>2023-09-17T09:43:29.424Z</time>
      </trkpt>
      <trkpt lat="43.75829" lon="1.44996">
        <ele>143.009929</ele>
        <time>2023-09-17T09:43:29.424Z</time>
      </trkpt>
      <trkpt lat="43.75834" lon="1.44999">
        <ele>143.204909</ele>
        <time>2023-09-17T09:43:31.424Z</time>
      </trkpt>
      <trkpt lat="43.75834" lon="1.44999">
        <ele>143.204909</ele>
        <time>2023-09-17T09:43:31.424Z</time>
      </trkpt>
      <trkpt lat="43.75838" lon="1.45001">
        <ele>143.362577</ele>
        <time>2023-09-17T09:43:31.424Z</time>
      </trkpt>
      <trkpt lat="43.75843" lon="1.45002">
        <ele>143.579333</ele>
        <time>2023-09-17T09:43:32.424Z</time>
      </trkpt>
      <trkpt lat="43.75848" lon="1.45002">
        <ele>143.754968</ele>
        <time>2023-09-17T09:43:34.424Z</time>
      </trkpt>
      <trkpt lat="43.75848" lon="1.45002">
        <ele>143.754968</ele>
        <time>2023-09-17T09:43:34.424Z</time>
      </trkpt>
      <trkpt lat="43.75852" lon="1.45001">
        <ele>143.936682</ele>
        <time>2023-09-17T09:43:34.424Z</time>
      </trkpt>
      <trkpt lat="43.75852" lon="1.45001">
        <ele>143.936682</ele>
        <time>2023-09-17T09:43:34.424Z</time>
      </trkpt>
      <trkpt lat="43.75857" lon="1.44998">
        <ele>144.138863</ele>
        <time>2023-09-17T09:43:35.424Z</time>
      </trkpt>
      <trkpt lat="43.75857" lon="1.44998">
        <ele>144.138863</ele>
        <time>2023-09-17T09:43:35.424Z</time>
      </trkpt>
      <trkpt lat="43.75861" lon="1.44995">
        <ele>144.308193</ele>
        <time>2023-09-17T09:43:36.424Z</time>
      </trkpt>
      <trkpt lat="43.75861" lon="1.44995">
        <ele>144.308193</ele>
        <time>2023-09-17T09:43:36.424Z</time>
      </trkpt>
      <trkpt lat="43.75866" lon="1.44991">
        <ele>144.533548</ele>
        <time>2023-09-17T09:43:38.424Z</time>
      </trkpt>
      <trkpt lat="43.75866" lon="1.44991">
        <ele>144.533548</ele>
        <time>2023-09-17T09:43:38.424Z</time>
      </trkpt>
      <trkpt lat="43.75869" lon="1.44988">
        <ele>144.711659</ele>
        <time>2023-09-17T09:43:38.424Z</time>
      </trkpt>
      <trkpt lat="43.75869" lon="1.44988">
        <ele>144.711659</ele>
        <time>2023-09-17T09:43:38.424Z</time>
      </trkpt>
      <trkpt lat="43.75874" lon="1.44984">
        <ele>144.902962</ele>
        <time>2023-09-17T09:43:39.424Z</time>
      </trkpt>
      <trkpt lat="43.75877" lon="1.44981">
        <ele>145.057718</ele>
        <time>2023-09-17T09:43:40.424Z</time>
      </trkpt>
      <trkpt lat="43.75877" lon="1.44981">
        <ele>145.057718</ele>
        <time>2023-09-17T09:43:40.424Z</time>
      </trkpt>
      <trkpt lat="43.75882" lon="1.44977">
        <ele>145.117418</ele>
        <time>2023-09-17T09:43:41.424Z</time>
      </trkpt>
      <trkpt lat="43.75882" lon="1.44977">
        <ele>145.117418</ele>
        <time>2023-09-17T09:43:41.424Z</time>
      </trkpt>
      <trkpt lat="43.75885" lon="1.44974">
        <ele>145.173001</ele>
        <time>2023-09-17T09:43:43.424Z</time>
      </trkpt>
      <trkpt lat="43.75885" lon="1.44974">
        <ele>145.173001</ele>
        <time>2023-09-17T09:43:43.424Z</time>
      </trkpt>
      <trkpt lat="43.7589" lon="1.4497">
        <ele>145.238236</ele>
        <time>2023-09-17T09:43:44.424Z</time>
      </trkpt>
      <trkpt lat="43.75894" lon="1.44966">
        <ele>145.298395</ele>
        <time>2023-09-17T09:43:45.424Z</time>
      </trkpt>
      <trkpt lat="43.75894" lon="1.44966">
        <ele>145.298395</ele>
        <time>2023-09-17T09:43:45.424Z</time>
      </trkpt>
      <trkpt lat="43.75898" lon="1.44963">
        <ele>145.349993</ele>
        <time>2023-09-17T09:43:46.424Z</time>
      </trkpt>
      <trkpt lat="43.75902" lon="1.44959">
        <ele>145.414782</ele>
        <time>2023-09-17T09:43:47.424Z</time>
      </trkpt>
      <trkpt lat="43.75902" lon="1.44959">
        <ele>145.414782</ele>
        <time>2023-09-17T09:43:47.424Z</time>
      </trkpt>
      <trkpt lat="43.75906" lon="1.44956">
        <ele>145.46941</ele>
        <time>2023-09-17T09:43:48.424Z</time>
      </trkpt>
      <trkpt lat="43.75906" lon="1.44956">
        <ele>145.46941</ele>
        <time>2023-09-17T09:43:48.424Z</time>
      </trkpt>
      <trkpt lat="43.7591" lon="1.44952">
        <ele>145.525987</ele>
        <time>2023-09-17T09:43:48.424Z</time>
      </trkpt>
      <trkpt lat="43.75914" lon="1.44948">
        <ele>145.586613</ele>
        <time>2023-09-17T09:43:50.424Z</time>
      </trkpt>
      <trkpt lat="43.75914" lon="1.44948">
        <ele>145.586613</ele>
        <time>2023-09-17T09:43:50.424Z</time>
      </trkpt>
      <trkpt lat="43.75918" lon="1.44945">
        <ele>145.647239</ele>
        <time>2023-09-17T09:43:51.424Z</time>
      </trkpt>
      <trkpt lat="43.75918" lon="1.44945">
        <ele>145.647239</ele>
        <time>2023-09-17T09:43:51.424Z</time>
      </trkpt>
      <trkpt lat="43.75922" lon="1.44941">
        <ele>145.703314</ele>
        <time>2023-09-17T09:43:52.424Z</time>
      </trkpt>
      <trkpt lat="43.75922" lon="1.44941">
        <ele>145.703314</ele>
        <time>2023-09-17T09:43:52.424Z</time>
      </trkpt>
      <trkpt lat="43.75927" lon="1.44937">
        <ele>145.769004</ele>
        <time>2023-09-17T09:43:52.424Z</time>
      </trkpt>
      <trkpt lat="43.7593" lon="1.44934">
        <ele>145.820082</ele>
        <time>2023-09-17T09:43:54.424Z</time>
      </trkpt>
      <trkpt lat="43.7593" lon="1.44934">
        <ele>145.820082</ele>
        <time>2023-09-17T09:43:54.424Z</time>
      </trkpt>
      <trkpt lat="43.75934" lon="1.4493">
        <ele>145.88167</ele>
        <time>2023-09-17T09:43:55.424Z</time>
      </trkpt>
      <trkpt lat="43.75938" lon="1.44926">
        <ele>145.937745</ele>
        <time>2023-09-17T09:43:55.424Z</time>
      </trkpt>
      <trkpt lat="43.75938" lon="1.44926">
        <ele>145.937745</ele>
        <time>2023-09-17T09:43:55.424Z</time>
      </trkpt>
      <trkpt lat="43.75942" lon="1.44923">
        <ele>145.997904</ele>
        <time>2023-09-17T09:43:57.424Z</time>
      </trkpt>
      <trkpt lat="43.75942" lon="1.44923">
        <ele>145.997904</ele>
        <time>2023-09-17T09:43:57.424Z</time>
      </trkpt>
      <trkpt lat="43.75946" lon="1.44919">
        <ele>146.05448</ele>
        <time>2023-09-17T09:43:58.424Z</time>
      </trkpt>
      <trkpt lat="43.75946" lon="1.44919">
        <ele>146.05448</ele>
        <time>2023-09-17T09:43:58.424Z</time>
      </trkpt>
      <trkpt lat="43.7595" lon="1.44916">
        <ele>146.111081</ele>
        <time>2023-09-17T09:43:59.424Z</time>
      </trkpt>
      <trkpt lat="43.7595" lon="1.44916">
        <ele>146.111081</ele>
        <time>2023-09-17T09:43:59.424Z</time>
      </trkpt>
      <trkpt lat="43.75954" lon="1.44911">
        <ele>146.176686</ele>
        <time>2023-09-17T09:43:59.424Z</time>
      </trkpt>
      <trkpt lat="43.75954" lon="1.44911">
        <ele>146.176686</ele>
        <time>2023-09-17T09:43:59.424Z</time>
      </trkpt>
      <trkpt lat="43.75959" lon="1.44908">
        <ele>146.237789</ele>
        <time>2023-09-17T09:44:00.424Z</time>
      </trkpt>
      <trkpt lat="43.75963" lon="1.44904">
        <ele>146.295365</ele>
        <time>2023-09-17T09:44:02.424Z</time>
      </trkpt>
      <trkpt lat="43.75963" lon="1.44904">
        <ele>146.295365</ele>
        <time>2023-09-17T09:44:02.424Z</time>
      </trkpt>
      <trkpt lat="43.75967" lon="1.449">
        <ele>146.356959</ele>
        <time>2023-09-17T09:44:03.424Z</time>
      </trkpt>
      <trkpt lat="43.75971" lon="1.44896">
        <ele>146.419544</ele>
        <time>2023-09-17T09:44:03.424Z</time>
      </trkpt>
      <trkpt lat="43.75971" lon="1.44896">
        <ele>146.419544</ele>
        <time>2023-09-17T09:44:03.424Z</time>
      </trkpt>
      <trkpt lat="43.75975" lon="1.44892">
        <ele>146.48264</ele>
        <time>2023-09-17T09:44:05.424Z</time>
      </trkpt>
      <trkpt lat="43.75979" lon="1.44887">
        <ele>146.547317</ele>
        <time>2023-09-17T09:44:06.424Z</time>
      </trkpt>
      <trkpt lat="43.75984" lon="1.44882">
        <ele>146.620198</ele>
        <time>2023-09-17T09:44:06.424Z</time>
      </trkpt>
      <trkpt lat="43.75989" lon="1.44877">
        <ele>146.69583</ele>
        <time>2023-09-17T09:44:08.424Z</time>
      </trkpt>
      <trkpt lat="43.75989" lon="1.44877">
        <ele>146.69583</ele>
        <time>2023-09-17T09:44:08.424Z</time>
      </trkpt>
      <trkpt lat="43.75994" lon="1.44872">
        <ele>146.769442</ele>
        <time>2023-09-17T09:44:09.424Z</time>
      </trkpt>
      <trkpt lat="43.75999" lon="1.44867">
        <ele>146.845075</ele>
        <time>2023-09-17T09:44:10.424Z</time>
      </trkpt>
      <trkpt lat="43.76004" lon="1.44863">
        <ele>146.91697</ele>
        <time>2023-09-17T09:44:10.424Z</time>
      </trkpt>
      <trkpt lat="43.76004" lon="1.44863">
        <ele>146.91697</ele>
        <time>2023-09-17T09:44:10.424Z</time>
      </trkpt>
      <trkpt lat="43.7601" lon="1.44859">
        <ele>146.994379</ele>
        <time>2023-09-17T09:44:12.424Z</time>
      </trkpt>
      <trkpt lat="43.76016" lon="1.44856">
        <ele>147.070678</ele>
        <time>2023-09-17T09:44:13.424Z</time>
      </trkpt>
      <trkpt lat="43.76016" lon="1.44856">
        <ele>147.070678</ele>
        <time>2023-09-17T09:44:13.424Z</time>
      </trkpt>
      <trkpt lat="43.76022" lon="1.44853">
        <ele>147.15012</ele>
        <time>2023-09-17T09:44:13.424Z</time>
      </trkpt>
      <trkpt lat="43.76028" lon="1.4485">
        <ele>147.229256</ele>
        <time>2023-09-17T09:44:15.424Z</time>
      </trkpt>
      <trkpt lat="43.76035" lon="1.44847">
        <ele>147.290189</ele>
        <time>2023-09-17T09:44:16.424Z</time>
      </trkpt>
      <trkpt lat="43.76041" lon="1.44844">
        <ele>147.341952</ele>
        <time>2023-09-17T09:44:17.424Z</time>
      </trkpt>
      <trkpt lat="43.76041" lon="1.44844">
        <ele>147.341952</ele>
        <time>2023-09-17T09:44:17.424Z</time>
      </trkpt>
      <trkpt lat="43.76049" lon="1.44842">
        <ele>147.399438</ele>
        <time>2023-09-17T09:44:17.424Z</time>
      </trkpt>
      <trkpt lat="43.76049" lon="1.44842">
        <ele>147.399438</ele>
        <time>2023-09-17T09:44:17.424Z</time>
      </trkpt>
      <trkpt lat="43.76057" lon="1.4484">
        <ele>147.462309</ele>
        <time>2023-09-17T09:44:18.424Z</time>
      </trkpt>
      <trkpt lat="43.76057" lon="1.4484">
        <ele>147.462309</ele>
        <time>2023-09-17T09:44:18.424Z</time>
      </trkpt>
      <trkpt lat="43.76065" lon="1.44838">
        <ele>147.524962</ele>
        <time>2023-09-17T09:44:20.424Z</time>
      </trkpt>
      <trkpt lat="43.76065" lon="1.44838">
        <ele>147.524962</ele>
        <time>2023-09-17T09:44:20.424Z</time>
      </trkpt>
      <trkpt lat="43.76074" lon="1.44836">
        <ele>147.59586</ele>
        <time>2023-09-17T09:44:20.424Z</time>
      </trkpt>
      <trkpt lat="43.76074" lon="1.44836">
        <ele>147.59586</ele>
        <time>2023-09-17T09:44:20.424Z</time>
      </trkpt>
      <trkpt lat="43.76082" lon="1.44834">
        <ele>147.658671</ele>
        <time>2023-09-17T09:44:22.424Z</time>
      </trkpt>
      <trkpt lat="43.76082" lon="1.44834">
        <ele>147.658671</ele>
        <time>2023-09-17T09:44:22.424Z</time>
      </trkpt>
      <trkpt lat="43.76091" lon="1.44833">
        <ele>147.729064</ele>
        <time>2023-09-17T09:44:23.424Z</time>
      </trkpt>
      <trkpt lat="43.76091" lon="1.44833">
        <ele>147.729064</ele>
        <time>2023-09-17T09:44:23.424Z</time>
      </trkpt>
      <trkpt lat="43.76101" lon="1.44832">
        <ele>147.802419</ele>
        <time>2023-09-17T09:44:24.424Z</time>
      </trkpt>
      <trkpt lat="43.76101" lon="1.44832">
        <ele>147.802419</ele>
        <time>2023-09-17T09:44:24.424Z</time>
      </trkpt>
      <trkpt lat="43.76109" lon="1.44831">
        <ele>147.870407</ele>
        <time>2023-09-17T09:44:24.424Z</time>
      </trkpt>
      <trkpt lat="43.76109" lon="1.44831">
        <ele>147.870407</ele>
        <time>2023-09-17T09:44:24.424Z</time>
      </trkpt>
      <trkpt lat="43.76119" lon="1.44828">
        <ele>147.944921</ele>
        <time>2023-09-17T09:44:25.424Z</time>
      </trkpt>
      <trkpt lat="43.76119" lon="1.44828">
        <ele>147.944921</ele>
        <time>2023-09-17T09:44:25.424Z</time>
      </trkpt>
      <trkpt lat="43.76126" lon="1.44823">
        <ele>148.007589</ele>
        <time>2023-09-17T09:44:26.424Z</time>
      </trkpt>
      <trkpt lat="43.76126" lon="1.44823">
        <ele>148.007589</ele>
        <time>2023-09-17T09:44:26.424Z</time>
      </trkpt>
      <trkpt lat="43.76134" lon="1.44815">
        <ele>148.080381</ele>
        <time>2023-09-17T09:44:28.424Z</time>
      </trkpt>
      <trkpt lat="43.76134" lon="1.44815">
        <ele>148.080381</ele>
        <time>2023-09-17T09:44:28.424Z</time>
      </trkpt>
      <trkpt lat="43.7614" lon="1.44807">
        <ele>148.14658</ele>
        <time>2023-09-17T09:44:28.424Z</time>
      </trkpt>
      <trkpt lat="43.76146" lon="1.44798">
        <ele>148.213172</ele>
        <time>2023-09-17T09:44:29.424Z</time>
      </trkpt>
      <trkpt lat="43.76151" lon="1.44792">
        <ele>148.2671</ele>
        <time>2023-09-17T09:44:31.424Z</time>
      </trkpt>
      <trkpt lat="43.76151" lon="1.44792">
        <ele>148.2671</ele>
        <time>2023-09-17T09:44:31.424Z</time>
      </trkpt>
      <trkpt lat="43.76156" lon="1.44786">
        <ele>148.315348</ele>
        <time>2023-09-17T09:44:32.424Z</time>
      </trkpt>
      <trkpt lat="43.76156" lon="1.44786">
        <ele>148.315348</ele>
        <time>2023-09-17T09:44:32.424Z</time>
      </trkpt>
      <trkpt lat="43.76159" lon="1.44781">
        <ele>148.354927</ele>
        <time>2023-09-17T09:44:33.424Z</time>
      </trkpt>
      <trkpt lat="43.76159" lon="1.44781">
        <ele>148.354927</ele>
        <time>2023-09-17T09:44:33.424Z</time>
      </trkpt>
      <trkpt lat="43.76163" lon="1.44777">
        <ele>148.389258</ele>
        <time>2023-09-17T09:44:34.424Z</time>
      </trkpt>
      <trkpt lat="43.76163" lon="1.44777">
        <ele>148.389258</ele>
        <time>2023-09-17T09:44:34.424Z</time>
      </trkpt>
      <trkpt lat="43.76166" lon="1.44774">
        <ele>148.419346</ele>
        <time>2023-09-17T09:44:35.424Z</time>
      </trkpt>
      <trkpt lat="43.76166" lon="1.44774">
        <ele>148.419346</ele>
        <time>2023-09-17T09:44:35.424Z</time>
      </trkpt>
      <trkpt lat="43.76168" lon="1.44771">
        <ele>148.444691</ele>
        <time>2023-09-17T09:44:36.424Z</time>
      </trkpt>
      <trkpt lat="43.76168" lon="1.44771">
        <ele>148.444691</ele>
        <time>2023-09-17T09:44:36.424Z</time>
      </trkpt>
      <trkpt lat="43.76171" lon="1.44768">
        <ele>148.470318</ele>
        <time>2023-09-17T09:44:37.424Z</time>
      </trkpt>
      <trkpt lat="43.76171" lon="1.44768">
        <ele>148.470318</ele>
        <time>2023-09-17T09:44:37.424Z</time>
      </trkpt>
      <trkpt lat="43.76174" lon="1.44766">
        <ele>148.495311</ele>
        <time>2023-09-17T09:44:38.424Z</time>
      </trkpt>
      <trkpt lat="43.76174" lon="1.44766">
        <ele>148.495311</ele>
        <time>2023-09-17T09:44:38.424Z</time>
      </trkpt>
      <trkpt lat="43.76177" lon="1.44763">
        <ele>148.52315</ele>
        <time>2023-09-17T09:44:39.424Z</time>
      </trkpt>
      <trkpt lat="43.76177" lon="1.44763">
        <ele>148.52315</ele>
        <time>2023-09-17T09:44:39.424Z</time>
      </trkpt>
      <trkpt lat="43.7618" lon="1.4476">
        <ele>148.548143</ele>
        <time>2023-09-17T09:44:40.424Z</time>
      </trkpt>
      <trkpt lat="43.7618" lon="1.4476">
        <ele>148.548143</ele>
        <time>2023-09-17T09:44:40.424Z</time>
      </trkpt>
      <trkpt lat="43.76182" lon="1.44758">
        <ele>148.572831</ele>
        <time>2023-09-17T09:44:41.424Z</time>
      </trkpt>
      <trkpt lat="43.76182" lon="1.44758">
        <ele>148.572831</ele>
        <time>2023-09-17T09:44:41.424Z</time>
      </trkpt>
      <trkpt lat="43.76185" lon="1.44755">
        <ele>148.597188</ele>
        <time>2023-09-17T09:44:42.424Z</time>
      </trkpt>
      <trkpt lat="43.76185" lon="1.44755">
        <ele>148.597188</ele>
        <time>2023-09-17T09:44:42.424Z</time>
      </trkpt>
      <trkpt lat="43.76188" lon="1.44753">
        <ele>148.633649</ele>
        <time>2023-09-17T09:44:43.424Z</time>
      </trkpt>
      <trkpt lat="43.76188" lon="1.44753">
        <ele>148.633649</ele>
        <time>2023-09-17T09:44:43.424Z</time>
      </trkpt>
      <trkpt lat="43.76191" lon="1.44751">
        <ele>148.771733</ele>
        <time>2023-09-17T09:44:44.424Z</time>
      </trkpt>
      <trkpt lat="43.76191" lon="1.44751">
        <ele>148.771733</ele>
        <time>2023-09-17T09:44:44.424Z</time>
      </trkpt>
      <trkpt lat="43.76194" lon="1.44748">
        <ele>148.905054</ele>
        <time>2023-09-17T09:44:45.424Z</time>
      </trkpt>
      <trkpt lat="43.76194" lon="1.44748">
        <ele>148.905054</ele>
        <time>2023-09-17T09:44:45.424Z</time>
      </trkpt>
      <trkpt lat="43.76198" lon="1.44745">
        <ele>149.080954</ele>
        <time>2023-09-17T09:44:46.424Z</time>
      </trkpt>
      <trkpt lat="43.76198" lon="1.44745">
        <ele>149.080954</ele>
        <time>2023-09-17T09:44:46.424Z</time>
      </trkpt>
      <trkpt lat="43.76202" lon="1.44742">
        <ele>149.245745</ele>
        <time>2023-09-17T09:44:47.424Z</time>
      </trkpt>
      <trkpt lat="43.76202" lon="1.44742">
        <ele>149.245745</ele>
        <time>2023-09-17T09:44:47.424Z</time>
      </trkpt>
      <trkpt lat="43.76205" lon="1.44739">
        <ele>149.408809</ele>
        <time>2023-09-17T09:44:49.424Z</time>
      </trkpt>
      <trkpt lat="43.76205" lon="1.44739">
        <ele>149.408809</ele>
        <time>2023-09-17T09:44:49.424Z</time>
      </trkpt>
      <trkpt lat="43.76209" lon="1.44736">
        <ele>149.570237</ele>
        <time>2023-09-17T09:44:50.424Z</time>
      </trkpt>
      <trkpt lat="43.76209" lon="1.44736">
        <ele>149.570237</ele>
        <time>2023-09-17T09:44:50.424Z</time>
      </trkpt>
      <trkpt lat="43.76211" lon="1.44734">
        <ele>149.694978</ele>
        <time>2023-09-17T09:44:51.424Z</time>
      </trkpt>
      <trkpt lat="43.76211" lon="1.44734">
        <ele>149.694978</ele>
        <time>2023-09-17T09:44:51.424Z</time>
      </trkpt>
      <trkpt lat="43.76215" lon="1.4473">
        <ele>149.856407</ele>
        <time>2023-09-17T09:44:52.424Z</time>
      </trkpt>
      <trkpt lat="43.76215" lon="1.4473">
        <ele>149.856407</ele>
        <time>2023-09-17T09:44:52.424Z</time>
      </trkpt>
      <trkpt lat="43.76218" lon="1.44726">
        <ele>150.028061</ele>
        <time>2023-09-17T09:44:53.424Z</time>
      </trkpt>
      <trkpt lat="43.76218" lon="1.44726">
        <ele>150.028061</ele>
        <time>2023-09-17T09:44:53.424Z</time>
      </trkpt>
      <trkpt lat="43.76222" lon="1.44722">
        <ele>150.202727</ele>
        <time>2023-09-17T09:44:55.424Z</time>
      </trkpt>
      <trkpt lat="43.76222" lon="1.44722">
        <ele>150.202727</ele>
        <time>2023-09-17T09:44:55.424Z</time>
      </trkpt>
      <trkpt lat="43.76224" lon="1.44719">
        <ele>150.351756</ele>
        <time>2023-09-17T09:44:56.424Z</time>
      </trkpt>
      <trkpt lat="43.76224" lon="1.44719">
        <ele>150.351756</ele>
        <time>2023-09-17T09:44:56.424Z</time>
      </trkpt>
      <trkpt lat="43.76227" lon="1.44715">
        <ele>150.514598</ele>
        <time>2023-09-17T09:44:56.424Z</time>
      </trkpt>
      <trkpt lat="43.76227" lon="1.44715">
        <ele>150.514598</ele>
        <time>2023-09-17T09:44:56.424Z</time>
      </trkpt>
      <trkpt lat="43.76231" lon="1.4471">
        <ele>150.718404</ele>
        <time>2023-09-17T09:44:58.424Z</time>
      </trkpt>
      <trkpt lat="43.76231" lon="1.4471">
        <ele>150.718404</ele>
        <time>2023-09-17T09:44:58.424Z</time>
      </trkpt>
      <trkpt lat="43.76238" lon="1.44702">
        <ele>151.042029</ele>
        <time>2023-09-17T09:45:00.424Z</time>
      </trkpt>
      <trkpt lat="43.76238" lon="1.44702">
        <ele>151.042029</ele>
        <time>2023-09-17T09:45:00.424Z</time>
      </trkpt>
      <trkpt lat="43.76241" lon="1.44699">
        <ele>151.210156</ele>
        <time>2023-09-17T09:45:00.424Z</time>
      </trkpt>
      <trkpt lat="43.76241" lon="1.44699">
        <ele>151.210156</ele>
        <time>2023-09-17T09:45:00.424Z</time>
      </trkpt>
      <trkpt lat="43.76244" lon="1.44695">
        <ele>151.384821</ele>
        <time>2023-09-17T09:45:02.424Z</time>
      </trkpt>
      <trkpt lat="43.76251" lon="1.44687">
        <ele>151.711474</ele>
        <time>2023-09-17T09:45:02.424Z</time>
      </trkpt>
      <trkpt lat="43.76251" lon="1.44687">
        <ele>151.711474</ele>
        <time>2023-09-17T09:45:02.424Z</time>
      </trkpt>
      <trkpt lat="43.76254" lon="1.44683">
        <ele>151.875355</ele>
        <time>2023-09-17T09:45:04.424Z</time>
      </trkpt>
      <trkpt lat="43.76257" lon="1.44678">
        <ele>152.054383</ele>
        <time>2023-09-17T09:45:06.424Z</time>
      </trkpt>
      <trkpt lat="43.76261" lon="1.44674">
        <ele>152.25725</ele>
        <time>2023-09-17T09:45:07.424Z</time>
      </trkpt>
      <trkpt lat="43.76265" lon="1.44668">
        <ele>152.485895</ele>
        <time>2023-09-17T09:45:08.424Z</time>
      </trkpt>
      <trkpt lat="43.7627" lon="1.44661">
        <ele>152.757608</ele>
        <time>2023-09-17T09:45:09.424Z</time>
      </trkpt>
      <trkpt lat="43.76275" lon="1.44654">
        <ele>153.02618</ele>
        <time>2023-09-17T09:45:10.424Z</time>
      </trkpt>
      <trkpt lat="43.76275" lon="1.44654">
        <ele>153.02618</ele>
        <time>2023-09-17T09:45:10.424Z</time>
      </trkpt>
      <trkpt lat="43.76279" lon="1.44649">
        <ele>153.2652</ele>
        <time>2023-09-17T09:45:11.424Z</time>
      </trkpt>
      <trkpt lat="43.76284" lon="1.44643">
        <ele>153.512829</ele>
        <time>2023-09-17T09:45:12.424Z</time>
      </trkpt>
      <trkpt lat="43.76284" lon="1.44643">
        <ele>153.512829</ele>
        <time>2023-09-17T09:45:12.424Z</time>
      </trkpt>
      <trkpt lat="43.76288" lon="1.44637">
        <ele>153.747447</ele>
        <time>2023-09-17T09:45:13.424Z</time>
      </trkpt>
      <trkpt lat="43.76293" lon="1.4463">
        <ele>154.017964</ele>
        <time>2023-09-17T09:45:14.424Z</time>
      </trkpt>
      <trkpt lat="43.76293" lon="1.4463">
        <ele>154.017964</ele>
        <time>2023-09-17T09:45:14.424Z</time>
      </trkpt>
      <trkpt lat="43.76298" lon="1.44623">
        <ele>154.271492</ele>
        <time>2023-09-17T09:45:15.424Z</time>
      </trkpt>
      <trkpt lat="43.76298" lon="1.44623">
        <ele>154.271492</ele>
        <time>2023-09-17T09:45:15.424Z</time>
      </trkpt>
      <trkpt lat="43.76303" lon="1.44616">
        <ele>154.562134</ele>
        <time>2023-09-17T09:45:16.424Z</time>
      </trkpt>
      <trkpt lat="43.76303" lon="1.44616">
        <ele>154.562134</ele>
        <time>2023-09-17T09:45:16.424Z</time>
      </trkpt>
      <trkpt lat="43.76308" lon="1.44609">
        <ele>154.832049</ele>
        <time>2023-09-17T09:45:17.424Z</time>
      </trkpt>
      <trkpt lat="43.76308" lon="1.44609">
        <ele>154.832049</ele>
        <time>2023-09-17T09:45:17.424Z</time>
      </trkpt>
      <trkpt lat="43.76312" lon="1.44601">
        <ele>155.112633</ele>
        <time>2023-09-17T09:45:18.424Z</time>
      </trkpt>
      <trkpt lat="43.76312" lon="1.44601">
        <ele>155.112633</ele>
        <time>2023-09-17T09:45:18.424Z</time>
      </trkpt>
      <trkpt lat="43.76317" lon="1.44594">
        <ele>155.384259</ele>
        <time>2023-09-17T09:45:19.424Z</time>
      </trkpt>
      <trkpt lat="43.76317" lon="1.44594">
        <ele>155.384259</ele>
        <time>2023-09-17T09:45:19.424Z</time>
      </trkpt>
      <trkpt lat="43.76321" lon="1.44587">
        <ele>155.636849</ele>
        <time>2023-09-17T09:45:20.424Z</time>
      </trkpt>
      <trkpt lat="43.76321" lon="1.44587">
        <ele>155.636849</ele>
        <time>2023-09-17T09:45:20.424Z</time>
      </trkpt>
      <trkpt lat="43.76325" lon="1.44581">
        <ele>155.846042</ele>
        <time>2023-09-17T09:45:21.424Z</time>
      </trkpt>
      <trkpt lat="43.76325" lon="1.44581">
        <ele>155.846042</ele>
        <time>2023-09-17T09:45:21.424Z</time>
      </trkpt>
      <trkpt lat="43.7633" lon="1.44579">
        <ele>156.011749</ele>
        <time>2023-09-17T09:45:22.424Z</time>
      </trkpt>
      <trkpt lat="43.7633" lon="1.44579">
        <ele>156.011749</ele>
        <time>2023-09-17T09:45:22.424Z</time>
      </trkpt>
      <trkpt lat="43.76335" lon="1.44578">
        <ele>156.194512</ele>
        <time>2023-09-17T09:45:23.424Z</time>
      </trkpt>
      <trkpt lat="43.76335" lon="1.44578">
        <ele>156.194512</ele>
        <time>2023-09-17T09:45:23.424Z</time>
      </trkpt>
      <trkpt lat="43.76341" lon="1.44579">
        <ele>156.381756</ele>
        <time>2023-09-17T09:45:24.424Z</time>
      </trkpt>
      <trkpt lat="43.76341" lon="1.44579">
        <ele>156.381756</ele>
        <time>2023-09-17T09:45:24.424Z</time>
      </trkpt>
      <trkpt lat="43.76345" lon="1.44581">
        <ele>156.544177</ele>
        <time>2023-09-17T09:45:25.424Z</time>
      </trkpt>
      <trkpt lat="43.7635" lon="1.44582">
        <ele>156.705161</ele>
        <time>2023-09-17T09:45:26.424Z</time>
      </trkpt>
      <trkpt lat="43.76354" lon="1.44584">
        <ele>156.86817</ele>
        <time>2023-09-17T09:45:27.424Z</time>
      </trkpt>
      <trkpt lat="43.76354" lon="1.44584">
        <ele>156.86817</ele>
        <time>2023-09-17T09:45:27.424Z</time>
      </trkpt>
      <trkpt lat="43.76358" lon="1.44586">
        <ele>157.019275</ele>
        <time>2023-09-17T09:45:28.424Z</time>
      </trkpt>
      <trkpt lat="43.76358" lon="1.44586">
        <ele>157.019275</ele>
        <time>2023-09-17T09:45:28.424Z</time>
      </trkpt>
      <trkpt lat="43.76363" lon="1.44588">
        <ele>157.183563</ele>
        <time>2023-09-17T09:45:29.424Z</time>
      </trkpt>
      <trkpt lat="43.76366" lon="1.44589">
        <ele>157.307803</ele>
        <time>2023-09-17T09:45:30.424Z</time>
      </trkpt>
      <trkpt lat="43.76366" lon="1.44589">
        <ele>157.307803</ele>
        <time>2023-09-17T09:45:30.424Z</time>
      </trkpt>
      <trkpt lat="43.7637" lon="1.44591">
        <ele>157.446658</ele>
        <time>2023-09-17T09:45:31.424Z</time>
      </trkpt>
      <trkpt lat="43.76374" lon="1.44593">
        <ele>157.588751</ele>
        <time>2023-09-17T09:45:32.424Z</time>
      </trkpt>
      <trkpt lat="43.76374" lon="1.44593">
        <ele>157.588751</ele>
        <time>2023-09-17T09:45:32.424Z</time>
      </trkpt>
      <trkpt lat="43.76378" lon="1.44595">
        <ele>157.739856</ele>
        <time>2023-09-17T09:45:33.424Z</time>
      </trkpt>
      <trkpt lat="43.76378" lon="1.44595">
        <ele>157.739856</ele>
        <time>2023-09-17T09:45:33.424Z</time>
      </trkpt>
      <trkpt lat="43.76382" lon="1.44597">
        <ele>157.877105</ele>
        <time>2023-09-17T09:45:34.424Z</time>
      </trkpt>
      <trkpt lat="43.76382" lon="1.44597">
        <ele>157.877105</ele>
        <time>2023-09-17T09:45:34.424Z</time>
      </trkpt>
      <trkpt lat="43.76385" lon="1.44598">
        <ele>157.970542</ele>
        <time>2023-09-17T09:45:35.424Z</time>
      </trkpt>
      <trkpt lat="43.76385" lon="1.44598">
        <ele>157.970542</ele>
        <time>2023-09-17T09:45:35.424Z</time>
      </trkpt>
      <trkpt lat="43.76389" lon="1.446">
        <ele>158.115277</ele>
        <time>2023-09-17T09:45:36.424Z</time>
      </trkpt>
      <trkpt lat="43.76389" lon="1.446">
        <ele>158.115277</ele>
        <time>2023-09-17T09:45:36.424Z</time>
      </trkpt>
      <trkpt lat="43.76393" lon="1.44602">
        <ele>158.261679</ele>
        <time>2023-09-17T09:45:37.424Z</time>
      </trkpt>
      <trkpt lat="43.76393" lon="1.44602">
        <ele>158.261679</ele>
        <time>2023-09-17T09:45:37.424Z</time>
      </trkpt>
      <trkpt lat="43.76396" lon="1.44603">
        <ele>158.37454</ele>
        <time>2023-09-17T09:45:38.424Z</time>
      </trkpt>
      <trkpt lat="43.76396" lon="1.44603">
        <ele>158.37454</ele>
        <time>2023-09-17T09:45:38.424Z</time>
      </trkpt>
      <trkpt lat="43.76402" lon="1.44606">
        <ele>158.583248</ele>
        <time>2023-09-17T09:45:39.424Z</time>
      </trkpt>
      <trkpt lat="43.76402" lon="1.44606">
        <ele>158.583248</ele>
        <time>2023-09-17T09:45:39.424Z</time>
      </trkpt>
      <trkpt lat="43.76406" lon="1.44609">
        <ele>158.758003</ele>
        <time>2023-09-17T09:45:40.424Z</time>
      </trkpt>
      <trkpt lat="43.76406" lon="1.44609">
        <ele>158.758003</ele>
        <time>2023-09-17T09:45:40.424Z</time>
      </trkpt>
      <trkpt lat="43.76409" lon="1.44611">
        <ele>158.877081</ele>
        <time>2023-09-17T09:45:41.424Z</time>
      </trkpt>
      <trkpt lat="43.76409" lon="1.44611">
        <ele>158.877081</ele>
        <time>2023-09-17T09:45:41.424Z</time>
      </trkpt>
      <trkpt lat="43.76413" lon="1.44615">
        <ele>159.052278</ele>
        <time>2023-09-17T09:45:43.424Z</time>
      </trkpt>
      <trkpt lat="43.76413" lon="1.44615">
        <ele>159.052278</ele>
        <time>2023-09-17T09:45:43.424Z</time>
      </trkpt>
      <trkpt lat="43.76421" lon="1.44623">
        <ele>159.36469</ele>
        <time>2023-09-17T09:45:44.424Z</time>
      </trkpt>
      <trkpt lat="43.76421" lon="1.44623">
        <ele>159.36469</ele>
        <time>2023-09-17T09:45:44.424Z</time>
      </trkpt>
      <trkpt lat="43.76423" lon="1.44626">
        <ele>159.488465</ele>
        <time>2023-09-17T09:45:46.424Z</time>
      </trkpt>
      <trkpt lat="43.76423" lon="1.44626">
        <ele>159.488465</ele>
        <time>2023-09-17T09:45:46.424Z</time>
      </trkpt>
      <trkpt lat="43.76427" lon="1.44631">
        <ele>159.650114</ele>
        <time>2023-09-17T09:45:47.424Z</time>
      </trkpt>
      <trkpt lat="43.76427" lon="1.44631">
        <ele>159.650114</ele>
        <time>2023-09-17T09:45:47.424Z</time>
      </trkpt>
      <trkpt lat="43.7643" lon="1.44634">
        <ele>159.784503</ele>
        <time>2023-09-17T09:45:48.424Z</time>
      </trkpt>
      <trkpt lat="43.7643" lon="1.44634">
        <ele>159.784503</ele>
        <time>2023-09-17T09:45:48.424Z</time>
      </trkpt>
      <trkpt lat="43.76434" lon="1.44638">
        <ele>159.948558</ele>
        <time>2023-09-17T09:45:49.424Z</time>
      </trkpt>
      <trkpt lat="43.76434" lon="1.44638">
        <ele>159.948558</ele>
        <time>2023-09-17T09:45:49.424Z</time>
      </trkpt>
      <trkpt lat="43.76441" lon="1.44644">
        <ele>160.25299</ele>
        <time>2023-09-17T09:45:51.424Z</time>
      </trkpt>
      <trkpt lat="43.76441" lon="1.44644">
        <ele>160.25299</ele>
        <time>2023-09-17T09:45:51.424Z</time>
      </trkpt>
      <trkpt lat="43.76445" lon="1.44647">
        <ele>160.385298</ele>
        <time>2023-09-17T09:45:52.424Z</time>
      </trkpt>
      <trkpt lat="43.76445" lon="1.44647">
        <ele>160.385298</ele>
        <time>2023-09-17T09:45:52.424Z</time>
      </trkpt>
      <trkpt lat="43.76449" lon="1.4465">
        <ele>160.562225</ele>
        <time>2023-09-17T09:45:53.424Z</time>
      </trkpt>
      <trkpt lat="43.76449" lon="1.4465">
        <ele>160.562225</ele>
        <time>2023-09-17T09:45:53.424Z</time>
      </trkpt>
      <trkpt lat="43.76455" lon="1.44653">
        <ele>160.762979</ele>
        <time>2023-09-17T09:45:54.424Z</time>
      </trkpt>
      <trkpt lat="43.76455" lon="1.44653">
        <ele>160.762979</ele>
        <time>2023-09-17T09:45:54.424Z</time>
      </trkpt>
      <trkpt lat="43.76458" lon="1.44656">
        <ele>160.909658</ele>
        <time>2023-09-17T09:45:55.424Z</time>
      </trkpt>
      <trkpt lat="43.76463" lon="1.44658">
        <ele>161.06678</ele>
        <time>2023-09-17T09:45:56.424Z</time>
      </trkpt>
      <trkpt lat="43.76463" lon="1.44658">
        <ele>161.06678</ele>
        <time>2023-09-17T09:45:56.424Z</time>
      </trkpt>
      <trkpt lat="43.76467" lon="1.44661">
        <ele>161.236337</ele>
        <time>2023-09-17T09:45:57.424Z</time>
      </trkpt>
      <trkpt lat="43.76467" lon="1.44661">
        <ele>161.236337</ele>
        <time>2023-09-17T09:45:57.424Z</time>
      </trkpt>
      <trkpt lat="43.76471" lon="1.44663">
        <ele>161.379882</ele>
        <time>2023-09-17T09:45:58.424Z</time>
      </trkpt>
      <trkpt lat="43.76471" lon="1.44663">
        <ele>161.379882</ele>
        <time>2023-09-17T09:45:58.424Z</time>
      </trkpt>
      <trkpt lat="43.76475" lon="1.44666">
        <ele>161.527587</ele>
        <time>2023-09-17T09:45:59.424Z</time>
      </trkpt>
      <trkpt lat="43.76475" lon="1.44666">
        <ele>161.527587</ele>
        <time>2023-09-17T09:45:59.424Z</time>
      </trkpt>
      <trkpt lat="43.76479" lon="1.44669">
        <ele>161.696142</ele>
        <time>2023-09-17T09:46:00.424Z</time>
      </trkpt>
      <trkpt lat="43.76484" lon="1.44671">
        <ele>161.865807</ele>
        <time>2023-09-17T09:46:01.424Z</time>
      </trkpt>
      <trkpt lat="43.76484" lon="1.44671">
        <ele>161.865807</ele>
        <time>2023-09-17T09:46:01.424Z</time>
      </trkpt>
      <trkpt lat="43.76487" lon="1.44674">
        <ele>162.044723</ele>
        <time>2023-09-17T09:46:02.424Z</time>
      </trkpt>
      <trkpt lat="43.76492" lon="1.44676">
        <ele>162.235199</ele>
        <time>2023-09-17T09:46:03.424Z</time>
      </trkpt>
      <trkpt lat="43.76492" lon="1.44676">
        <ele>162.235199</ele>
        <time>2023-09-17T09:46:03.424Z</time>
      </trkpt>
      <trkpt lat="43.76496" lon="1.44679">
        <ele>162.442019</ele>
        <time>2023-09-17T09:46:04.424Z</time>
      </trkpt>
      <trkpt lat="43.76501" lon="1.44681">
        <ele>162.648096</ele>
        <time>2023-09-17T09:46:05.424Z</time>
      </trkpt>
      <trkpt lat="43.76505" lon="1.44683">
        <ele>162.820763</ele>
        <time>2023-09-17T09:46:06.424Z</time>
      </trkpt>
      <trkpt lat="43.76505" lon="1.44683">
        <ele>162.820763</ele>
        <time>2023-09-17T09:46:06.424Z</time>
      </trkpt>
      <trkpt lat="43.76509" lon="1.44686">
        <ele>163.010105</ele>
        <time>2023-09-17T09:46:07.424Z</time>
      </trkpt>
      <trkpt lat="43.76513" lon="1.44688">
        <ele>163.200581</ele>
        <time>2023-09-17T09:46:08.424Z</time>
      </trkpt>
      <trkpt lat="43.76518" lon="1.4469">
        <ele>163.406658</ele>
        <time>2023-09-17T09:46:09.424Z</time>
      </trkpt>
      <trkpt lat="43.76518" lon="1.4469">
        <ele>163.406658</ele>
        <time>2023-09-17T09:46:09.424Z</time>
      </trkpt>
      <trkpt lat="43.76522" lon="1.44692">
        <ele>163.591889</ele>
        <time>2023-09-17T09:46:10.424Z</time>
      </trkpt>
      <trkpt lat="43.76526" lon="1.44694">
        <ele>163.758394</ele>
        <time>2023-09-17T09:46:11.424Z</time>
      </trkpt>
      <trkpt lat="43.76526" lon="1.44694">
        <ele>163.758394</ele>
        <time>2023-09-17T09:46:11.424Z</time>
      </trkpt>
      <trkpt lat="43.7653" lon="1.44696">
        <ele>163.944588</ele>
        <time>2023-09-17T09:46:12.424Z</time>
      </trkpt>
      <trkpt lat="43.7653" lon="1.44696">
        <ele>163.944588</ele>
        <time>2023-09-17T09:46:12.424Z</time>
      </trkpt>
      <trkpt lat="43.76534" lon="1.44698">
        <ele>164.144981</ele>
        <time>2023-09-17T09:46:13.424Z</time>
      </trkpt>
      <trkpt lat="43.76534" lon="1.44698">
        <ele>164.144981</ele>
        <time>2023-09-17T09:46:13.424Z</time>
      </trkpt>
      <trkpt lat="43.76539" lon="1.44699">
        <ele>164.327596</ele>
        <time>2023-09-17T09:46:14.424Z</time>
      </trkpt>
      <trkpt lat="43.76539" lon="1.44699">
        <ele>164.327596</ele>
        <time>2023-09-17T09:46:14.424Z</time>
      </trkpt>
      <trkpt lat="43.76543" lon="1.44701">
        <ele>164.511037</ele>
        <time>2023-09-17T09:46:15.424Z</time>
      </trkpt>
      <trkpt lat="43.76543" lon="1.44701">
        <ele>164.511037</ele>
        <time>2023-09-17T09:46:15.424Z</time>
      </trkpt>
      <trkpt lat="43.76547" lon="1.44703">
        <ele>164.680408</ele>
        <time>2023-09-17T09:46:16.424Z</time>
      </trkpt>
      <trkpt lat="43.76547" lon="1.44703">
        <ele>164.680408</ele>
        <time>2023-09-17T09:46:16.424Z</time>
      </trkpt>
      <trkpt lat="43.76551" lon="1.44704">
        <ele>164.875165</ele>
        <time>2023-09-17T09:46:17.424Z</time>
      </trkpt>
      <trkpt lat="43.76551" lon="1.44704">
        <ele>164.875165</ele>
        <time>2023-09-17T09:46:17.424Z</time>
      </trkpt>
      <trkpt lat="43.7656" lon="1.44707">
        <ele>165.253323</ele>
        <time>2023-09-17T09:46:19.424Z</time>
      </trkpt>
      <trkpt lat="43.7656" lon="1.44707">
        <ele>165.253323</ele>
        <time>2023-09-17T09:46:19.424Z</time>
      </trkpt>
      <trkpt lat="43.76566" lon="1.44709">
        <ele>165.515438</ele>
        <time>2023-09-17T09:46:20.424Z</time>
      </trkpt>
      <trkpt lat="43.76566" lon="1.44709">
        <ele>165.515438</ele>
        <time>2023-09-17T09:46:20.424Z</time>
      </trkpt>
      <trkpt lat="43.76572" lon="1.44711">
        <ele>165.779694</ele>
        <time>2023-09-17T09:46:22.424Z</time>
      </trkpt>
      <trkpt lat="43.76572" lon="1.44711">
        <ele>165.779694</ele>
        <time>2023-09-17T09:46:22.424Z</time>
      </trkpt>
      <trkpt lat="43.76576" lon="1.44713">
        <ele>165.948594</ele>
        <time>2023-09-17T09:46:23.424Z</time>
      </trkpt>
      <trkpt lat="43.76576" lon="1.44713">
        <ele>165.948594</ele>
        <time>2023-09-17T09:46:23.424Z</time>
      </trkpt>
      <trkpt lat="43.7658" lon="1.44714">
        <ele>166.143363</ele>
        <time>2023-09-17T09:46:24.424Z</time>
      </trkpt>
      <trkpt lat="43.7658" lon="1.44714">
        <ele>166.143363</ele>
        <time>2023-09-17T09:46:24.424Z</time>
      </trkpt>
      <trkpt lat="43.76586" lon="1.44716">
        <ele>166.389871</ele>
        <time>2023-09-17T09:46:25.424Z</time>
      </trkpt>
      <trkpt lat="43.76586" lon="1.44716">
        <ele>166.389871</ele>
        <time>2023-09-17T09:46:25.424Z</time>
      </trkpt>
      <trkpt lat="43.76591" lon="1.44718">
        <ele>166.60645</ele>
        <time>2023-09-17T09:46:26.424Z</time>
      </trkpt>
      <trkpt lat="43.76591" lon="1.44718">
        <ele>166.61856</ele>
        <time>2023-09-17T09:46:26.424Z</time>
      </trkpt>
      <trkpt lat="43.76597" lon="1.44719">
        <ele>166.87607</ele>
        <time>2023-09-17T09:46:28.424Z</time>
      </trkpt>
      <trkpt lat="43.76597" lon="1.44719">
        <ele>166.87607</ele>
        <time>2023-09-17T09:46:28.424Z</time>
      </trkpt>
      <trkpt lat="43.76601" lon="1.44721">
        <ele>167.045441</ele>
        <time>2023-09-17T09:46:29.424Z</time>
      </trkpt>
      <trkpt lat="43.76601" lon="1.44721">
        <ele>167.045441</ele>
        <time>2023-09-17T09:46:29.424Z</time>
      </trkpt>
      <trkpt lat="43.76606" lon="1.44723">
        <ele>167.262801</ele>
        <time>2023-09-17T09:46:30.424Z</time>
      </trkpt>
      <trkpt lat="43.76611" lon="1.44724">
        <ele>167.475536</ele>
        <time>2023-09-17T09:46:32.424Z</time>
      </trkpt>
      <trkpt lat="43.76611" lon="1.44724">
        <ele>167.475536</ele>
        <time>2023-09-17T09:46:32.424Z</time>
      </trkpt>
      <trkpt lat="43.76615" lon="1.44726">
        <ele>167.651865</ele>
        <time>2023-09-17T09:46:33.424Z</time>
      </trkpt>
      <trkpt lat="43.76615" lon="1.44726">
        <ele>167.651865</ele>
        <time>2023-09-17T09:46:33.424Z</time>
      </trkpt>
      <trkpt lat="43.76621" lon="1.44727">
        <ele>167.899792</ele>
        <time>2023-09-17T09:46:34.424Z</time>
      </trkpt>
      <trkpt lat="43.76621" lon="1.44727">
        <ele>167.899792</ele>
        <time>2023-09-17T09:46:34.424Z</time>
      </trkpt>
      <trkpt lat="43.76626" lon="1.44729">
        <ele>168.127197</ele>
        <time>2023-09-17T09:46:35.424Z</time>
      </trkpt>
      <trkpt lat="43.76626" lon="1.44729">
        <ele>168.127197</ele>
        <time>2023-09-17T09:46:35.424Z</time>
      </trkpt>
      <trkpt lat="43.7663" lon="1.4473">
        <ele>168.271776</ele>
        <time>2023-09-17T09:46:36.424Z</time>
      </trkpt>
      <trkpt lat="43.7663" lon="1.4473">
        <ele>168.271776</ele>
        <time>2023-09-17T09:46:36.424Z</time>
      </trkpt>
      <trkpt lat="43.76639" lon="1.44733">
        <ele>168.683058</ele>
        <time>2023-09-17T09:46:38.424Z</time>
      </trkpt>
      <trkpt lat="43.76639" lon="1.44733">
        <ele>168.683058</ele>
        <time>2023-09-17T09:46:38.424Z</time>
      </trkpt>
      <trkpt lat="43.76643" lon="1.44734">
        <ele>168.862252</ele>
        <time>2023-09-17T09:46:39.424Z</time>
      </trkpt>
      <trkpt lat="43.76643" lon="1.44734">
        <ele>168.862252</ele>
        <time>2023-09-17T09:46:39.424Z</time>
      </trkpt>
      <trkpt lat="43.76647" lon="1.44735">
        <ele>169.025</ele>
        <time>2023-09-17T09:46:40.424Z</time>
      </trkpt>
      <trkpt lat="43.76647" lon="1.44735">
        <ele>169.025</ele>
        <time>2023-09-17T09:46:40.424Z</time>
      </trkpt>
      <trkpt lat="43.76651" lon="1.44736">
        <ele>169.203656</ele>
        <time>2023-09-17T09:46:41.424Z</time>
      </trkpt>
      <trkpt lat="43.76651" lon="1.44736">
        <ele>169.203656</ele>
        <time>2023-09-17T09:46:41.424Z</time>
      </trkpt>
      <trkpt lat="43.76656" lon="1.44737">
        <ele>169.369822</ele>
        <time>2023-09-17T09:46:42.424Z</time>
      </trkpt>
      <trkpt lat="43.76656" lon="1.44737">
        <ele>169.369822</ele>
        <time>2023-09-17T09:46:42.424Z</time>
      </trkpt>
      <trkpt lat="43.7666" lon="1.44738">
        <ele>169.501593</ele>
        <time>2023-09-17T09:46:44.424Z</time>
      </trkpt>
      <trkpt lat="43.7666" lon="1.44738">
        <ele>169.501593</ele>
        <time>2023-09-17T09:46:44.424Z</time>
      </trkpt>
      <trkpt lat="43.76663" lon="1.44738">
        <ele>169.607559</ele>
        <time>2023-09-17T09:46:45.424Z</time>
      </trkpt>
      <trkpt lat="43.76668" lon="1.4474">
        <ele>169.752289</ele>
        <time>2023-09-17T09:46:46.424Z</time>
      </trkpt>
      <trkpt lat="43.76668" lon="1.4474">
        <ele>169.752289</ele>
        <time>2023-09-17T09:46:46.424Z</time>
      </trkpt>
      <trkpt lat="43.76673" lon="1.44741">
        <ele>169.906091</ele>
        <time>2023-09-17T09:46:47.424Z</time>
      </trkpt>
      <trkpt lat="43.76673" lon="1.44741">
        <ele>169.906091</ele>
        <time>2023-09-17T09:46:47.424Z</time>
      </trkpt>
      <trkpt lat="43.76677" lon="1.44742">
        <ele>170.050821</ele>
        <time>2023-09-17T09:46:48.424Z</time>
      </trkpt>
      <trkpt lat="43.76677" lon="1.44742">
        <ele>170.050821</ele>
        <time>2023-09-17T09:46:48.424Z</time>
      </trkpt>
      <trkpt lat="43.76682" lon="1.44744">
        <ele>170.196507</ele>
        <time>2023-09-17T09:46:49.424Z</time>
      </trkpt>
      <trkpt lat="43.76682" lon="1.44744">
        <ele>170.196507</ele>
        <time>2023-09-17T09:46:49.424Z</time>
      </trkpt>
      <trkpt lat="43.76686" lon="1.44745">
        <ele>170.330793</ele>
        <time>2023-09-17T09:46:50.424Z</time>
      </trkpt>
      <trkpt lat="43.76686" lon="1.44745">
        <ele>170.330793</ele>
        <time>2023-09-17T09:46:50.424Z</time>
      </trkpt>
      <trkpt lat="43.76691" lon="1.44747">
        <ele>170.475984</ele>
        <time>2023-09-17T09:46:51.424Z</time>
      </trkpt>
      <trkpt lat="43.76691" lon="1.44747">
        <ele>170.475984</ele>
        <time>2023-09-17T09:46:51.424Z</time>
      </trkpt>
      <trkpt lat="43.767" lon="1.4475">
        <ele>170.77792</ele>
        <time>2023-09-17T09:46:53.424Z</time>
      </trkpt>
      <trkpt lat="43.767" lon="1.4475">
        <ele>170.77792</ele>
        <time>2023-09-17T09:46:53.424Z</time>
      </trkpt>
      <trkpt lat="43.76705" lon="1.44752">
        <ele>170.926553</ele>
        <time>2023-09-17T09:46:55.424Z</time>
      </trkpt>
      <trkpt lat="43.76705" lon="1.44752">
        <ele>170.926553</ele>
        <time>2023-09-17T09:46:55.424Z</time>
      </trkpt>
      <trkpt lat="43.76709" lon="1.44754">
        <ele>171.061446</ele>
        <time>2023-09-17T09:46:56.424Z</time>
      </trkpt>
      <trkpt lat="43.76714" lon="1.44756">
        <ele>171.233347</ele>
        <time>2023-09-17T09:46:57.424Z</time>
      </trkpt>
      <trkpt lat="43.76723" lon="1.4476">
        <ele>171.505083</ele>
        <time>2023-09-17T09:46:59.424Z</time>
      </trkpt>
      <trkpt lat="43.76723" lon="1.4476">
        <ele>171.505083</ele>
        <time>2023-09-17T09:46:59.424Z</time>
      </trkpt>
      <trkpt lat="43.76731" lon="1.44764">
        <ele>171.778918</ele>
        <time>2023-09-17T09:47:00.424Z</time>
      </trkpt>
      <trkpt lat="43.76731" lon="1.44764">
        <ele>171.778918</ele>
        <time>2023-09-17T09:47:00.424Z</time>
      </trkpt>
      <trkpt lat="43.76737" lon="1.44767">
        <ele>171.955163</ele>
        <time>2023-09-17T09:47:01.424Z</time>
      </trkpt>
      <trkpt lat="43.76741" lon="1.44769">
        <ele>172.115389</ele>
        <time>2023-09-17T09:47:02.424Z</time>
      </trkpt>
      <trkpt lat="43.76741" lon="1.44769">
        <ele>172.115389</ele>
        <time>2023-09-17T09:47:02.424Z</time>
      </trkpt>
      <trkpt lat="43.76746" lon="1.44771">
        <ele>172.255455</ele>
        <time>2023-09-17T09:47:03.424Z</time>
      </trkpt>
      <trkpt lat="43.76746" lon="1.44771">
        <ele>172.255455</ele>
        <time>2023-09-17T09:47:03.424Z</time>
      </trkpt>
      <trkpt lat="43.7675" lon="1.44774">
        <ele>172.399155</ele>
        <time>2023-09-17T09:47:05.424Z</time>
      </trkpt>
      <trkpt lat="43.76754" lon="1.44777">
        <ele>172.53082</ele>
        <time>2023-09-17T09:47:06.424Z</time>
      </trkpt>
      <trkpt lat="43.76757" lon="1.4478">
        <ele>172.643717</ele>
        <time>2023-09-17T09:47:07.424Z</time>
      </trkpt>
      <trkpt lat="43.76757" lon="1.4478">
        <ele>172.643717</ele>
        <time>2023-09-17T09:47:07.424Z</time>
      </trkpt>
      <trkpt lat="43.7676" lon="1.44782">
        <ele>172.760369</ele>
        <time>2023-09-17T09:47:08.424Z</time>
      </trkpt>
      <trkpt lat="43.7676" lon="1.44782">
        <ele>172.760369</ele>
        <time>2023-09-17T09:47:08.424Z</time>
      </trkpt>
      <trkpt lat="43.76766" lon="1.44786">
        <ele>172.957362</ele>
        <time>2023-09-17T09:47:09.424Z</time>
      </trkpt>
      <trkpt lat="43.7677" lon="1.44789">
        <ele>173.092207</ele>
        <time>2023-09-17T09:47:10.424Z</time>
      </trkpt>
      <trkpt lat="43.7677" lon="1.44789">
        <ele>173.092207</ele>
        <time>2023-09-17T09:47:10.424Z</time>
      </trkpt>
      <trkpt lat="43.76774" lon="1.44792">
        <ele>173.25295</ele>
        <time>2023-09-17T09:47:11.424Z</time>
      </trkpt>
      <trkpt lat="43.76774" lon="1.44792">
        <ele>173.25295</ele>
        <time>2023-09-17T09:47:11.424Z</time>
      </trkpt>
      <trkpt lat="43.76777" lon="1.44794">
        <ele>173.359338</ele>
        <time>2023-09-17T09:47:12.424Z</time>
      </trkpt>
      <trkpt lat="43.76777" lon="1.44794">
        <ele>173.359338</ele>
        <time>2023-09-17T09:47:12.424Z</time>
      </trkpt>
      <trkpt lat="43.76782" lon="1.44798">
        <ele>173.517368</ele>
        <time>2023-09-17T09:47:14.424Z</time>
      </trkpt>
      <trkpt lat="43.76791" lon="1.44805">
        <ele>173.854997</ele>
        <time>2023-09-17T09:47:15.424Z</time>
      </trkpt>
      <trkpt lat="43.76791" lon="1.44805">
        <ele>173.854997</ele>
        <time>2023-09-17T09:47:15.424Z</time>
      </trkpt>
      <trkpt lat="43.76794" lon="1.44807">
        <ele>173.947375</ele>
        <time>2023-09-17T09:47:16.424Z</time>
      </trkpt>
      <trkpt lat="43.76794" lon="1.44807">
        <ele>173.947375</ele>
        <time>2023-09-17T09:47:16.424Z</time>
      </trkpt>
      <trkpt lat="43.76799" lon="1.4481">
        <ele>174.102317</ele>
        <time>2023-09-17T09:47:18.424Z</time>
      </trkpt>
      <trkpt lat="43.76799" lon="1.4481">
        <ele>174.102317</ele>
        <time>2023-09-17T09:47:18.424Z</time>
      </trkpt>
      <trkpt lat="43.76802" lon="1.44813">
        <ele>174.233983</ele>
        <time>2023-09-17T09:47:19.424Z</time>
      </trkpt>
      <trkpt lat="43.76807" lon="1.44816">
        <ele>174.379669</ele>
        <time>2023-09-17T09:47:20.424Z</time>
      </trkpt>
      <trkpt lat="43.76807" lon="1.44816">
        <ele>174.379669</ele>
        <time>2023-09-17T09:47:20.424Z</time>
      </trkpt>
      <trkpt lat="43.76811" lon="1.44819">
        <ele>174.5172</ele>
        <time>2023-09-17T09:47:21.424Z</time>
      </trkpt>
      <trkpt lat="43.76811" lon="1.44819">
        <ele>174.5172</ele>
        <time>2023-09-17T09:47:21.424Z</time>
      </trkpt>
      <trkpt lat="43.76814" lon="1.44821">
        <ele>174.638026</ele>
        <time>2023-09-17T09:47:22.424Z</time>
      </trkpt>
      <trkpt lat="43.76819" lon="1.44825">
        <ele>174.811156</ele>
        <time>2023-09-17T09:47:23.424Z</time>
      </trkpt>
      <trkpt lat="43.76824" lon="1.44828">
        <ele>174.912098</ele>
        <time>2023-09-17T09:47:25.424Z</time>
      </trkpt>
      <trkpt lat="43.76824" lon="1.44828">
        <ele>174.912098</ele>
        <time>2023-09-17T09:47:25.424Z</time>
      </trkpt>
      <trkpt lat="43.76829" lon="1.44832">
        <ele>174.967523</ele>
        <time>2023-09-17T09:47:26.424Z</time>
      </trkpt>
      <trkpt lat="43.76829" lon="1.44832">
        <ele>174.967523</ele>
        <time>2023-09-17T09:47:26.424Z</time>
      </trkpt>
      <trkpt lat="43.76833" lon="1.44835">
        <ele>175.012599</ele>
        <time>2023-09-17T09:47:27.424Z</time>
      </trkpt>
      <trkpt lat="43.76833" lon="1.44835">
        <ele>175.012599</ele>
        <time>2023-09-17T09:47:27.424Z</time>
      </trkpt>
      <trkpt lat="43.76841" lon="1.44841">
        <ele>175.093152</ele>
        <time>2023-09-17T09:47:28.424Z</time>
      </trkpt>
      <trkpt lat="43.76841" lon="1.44841">
        <ele>175.093152</ele>
        <time>2023-09-17T09:47:28.424Z</time>
      </trkpt>
      <trkpt lat="43.76845" lon="1.44843">
        <ele>175.137613</ele>
        <time>2023-09-17T09:47:30.424Z</time>
      </trkpt>
      <trkpt lat="43.76849" lon="1.44846">
        <ele>175.182377</ele>
        <time>2023-09-17T09:47:31.424Z</time>
      </trkpt>
      <trkpt lat="43.76849" lon="1.44846">
        <ele>175.182377</ele>
        <time>2023-09-17T09:47:31.424Z</time>
      </trkpt>
      <trkpt lat="43.76854" lon="1.4485">
        <ele>175.239949</ele>
        <time>2023-09-17T09:47:32.424Z</time>
      </trkpt>
      <trkpt lat="43.76859" lon="1.44854">
        <ele>175.289684</ele>
        <time>2023-09-17T09:47:33.424Z</time>
      </trkpt>
      <trkpt lat="43.76864" lon="1.44857">
        <ele>175.339746</ele>
        <time>2023-09-17T09:47:34.424Z</time>
      </trkpt>
      <trkpt lat="43.76864" lon="1.44857">
        <ele>175.339746</ele>
        <time>2023-09-17T09:47:34.424Z</time>
      </trkpt>
      <trkpt lat="43.76868" lon="1.44861">
        <ele>175.393313</ele>
        <time>2023-09-17T09:47:34.424Z</time>
      </trkpt>
      <trkpt lat="43.76873" lon="1.44864">
        <ele>175.443375</ele>
        <time>2023-09-17T09:47:36.424Z</time>
      </trkpt>
      <trkpt lat="43.76878" lon="1.44869">
        <ele>175.50279</ele>
        <time>2023-09-17T09:47:36.424Z</time>
      </trkpt>
      <trkpt lat="43.76883" lon="1.44873">
        <ele>175.557043</ele>
        <time>2023-09-17T09:47:38.424Z</time>
      </trkpt>
      <trkpt lat="43.76883" lon="1.44873">
        <ele>175.557043</ele>
        <time>2023-09-17T09:47:38.424Z</time>
      </trkpt>
      <trkpt lat="43.76889" lon="1.44877">
        <ele>175.616804</ele>
        <time>2023-09-17T09:47:38.424Z</time>
      </trkpt>
      <trkpt lat="43.76889" lon="1.44877">
        <ele>175.616804</ele>
        <time>2023-09-17T09:47:38.424Z</time>
      </trkpt>
      <trkpt lat="43.76894" lon="1.44882">
        <ele>175.675744</ele>
        <time>2023-09-17T09:47:40.424Z</time>
      </trkpt>
      <trkpt lat="43.76899" lon="1.44886">
        <ele>175.731169</ele>
        <time>2023-09-17T09:47:40.424Z</time>
      </trkpt>
      <trkpt lat="43.76899" lon="1.44886">
        <ele>175.731169</ele>
        <time>2023-09-17T09:47:40.424Z</time>
      </trkpt>
      <trkpt lat="43.76904" lon="1.4489">
        <ele>175.786501</ele>
        <time>2023-09-17T09:47:42.424Z</time>
      </trkpt>
      <trkpt lat="43.76909" lon="1.44894">
        <ele>175.846613</ele>
        <time>2023-09-17T09:47:42.424Z</time>
      </trkpt>
      <trkpt lat="43.76909" lon="1.44894">
        <ele>175.846613</ele>
        <time>2023-09-17T09:47:42.424Z</time>
      </trkpt>
      <trkpt lat="43.76914" lon="1.44898">
        <ele>175.896183</ele>
        <time>2023-09-17T09:47:44.424Z</time>
      </trkpt>
      <trkpt lat="43.76918" lon="1.44902">
        <ele>175.943296</ele>
        <time>2023-09-17T09:47:45.424Z</time>
      </trkpt>
      <trkpt lat="43.76923" lon="1.44906">
        <ele>175.998373</ele>
        <time>2023-09-17T09:47:46.424Z</time>
      </trkpt>
      <trkpt lat="43.76928" lon="1.44909">
        <ele>176.048435</ele>
        <time>2023-09-17T09:47:46.424Z</time>
      </trkpt>
      <trkpt lat="43.76932" lon="1.44913">
        <ele>176.09733</ele>
        <time>2023-09-17T09:47:47.424Z</time>
      </trkpt>
      <trkpt lat="43.76932" lon="1.44913">
        <ele>176.09733</ele>
        <time>2023-09-17T09:47:47.424Z</time>
      </trkpt>
      <trkpt lat="43.76937" lon="1.44916">
        <ele>176.151403</ele>
        <time>2023-09-17T09:47:48.424Z</time>
      </trkpt>
      <trkpt lat="43.76941" lon="1.44919">
        <ele>176.197126</ele>
        <time>2023-09-17T09:47:49.424Z</time>
      </trkpt>
      <trkpt lat="43.76946" lon="1.44923">
        <ele>176.250878</ele>
        <time>2023-09-17T09:47:50.424Z</time>
      </trkpt>
      <trkpt lat="43.7695" lon="1.44926">
        <ele>176.293299</ele>
        <time>2023-09-17T09:47:52.424Z</time>
      </trkpt>
      <trkpt lat="43.7695" lon="1.44926">
        <ele>176.293299</ele>
        <time>2023-09-17T09:47:52.424Z</time>
      </trkpt>
      <trkpt lat="43.76955" lon="1.4493">
        <ele>176.343033</ele>
        <time>2023-09-17T09:47:53.424Z</time>
      </trkpt>
      <trkpt lat="43.76959" lon="1.44933">
        <ele>176.387589</ele>
        <time>2023-09-17T09:47:54.424Z</time>
      </trkpt>
      <trkpt lat="43.76963" lon="1.44936">
        <ele>176.433312</ele>
        <time>2023-09-17T09:47:55.424Z</time>
      </trkpt>
      <trkpt lat="43.76967" lon="1.44939">
        <ele>176.479035</ele>
        <time>2023-09-17T09:47:56.424Z</time>
      </trkpt>
      <trkpt lat="43.76967" lon="1.44939">
        <ele>176.479035</ele>
        <time>2023-09-17T09:47:56.424Z</time>
      </trkpt>
      <trkpt lat="43.76971" lon="1.44942">
        <ele>176.524111</ele>
        <time>2023-09-17T09:47:56.424Z</time>
      </trkpt>
      <trkpt lat="43.76971" lon="1.44942">
        <ele>176.524111</ele>
        <time>2023-09-17T09:47:56.424Z</time>
      </trkpt>
      <trkpt lat="43.76976" lon="1.44945">
        <ele>176.568874</ele>
        <time>2023-09-17T09:47:58.424Z</time>
      </trkpt>
      <trkpt lat="43.76976" lon="1.44945">
        <ele>176.568874</ele>
        <time>2023-09-17T09:47:58.424Z</time>
      </trkpt>
      <trkpt lat="43.76979" lon="1.44948">
        <ele>176.647871</ele>
        <time>2023-09-17T09:47:59.424Z</time>
      </trkpt>
      <trkpt lat="43.76983" lon="1.4495">
        <ele>176.864108</ele>
        <time>2023-09-17T09:47:59.424Z</time>
      </trkpt>
      <trkpt lat="43.76983" lon="1.4495">
        <ele>176.864108</ele>
        <time>2023-09-17T09:47:59.424Z</time>
      </trkpt>
      <trkpt lat="43.76987" lon="1.44953">
        <ele>177.075564</ele>
        <time>2023-09-17T09:48:01.424Z</time>
      </trkpt>
      <trkpt lat="43.76987" lon="1.44953">
        <ele>177.075564</ele>
        <time>2023-09-17T09:48:01.424Z</time>
      </trkpt>
      <trkpt lat="43.7699" lon="1.44955">
        <ele>177.264049</ele>
        <time>2023-09-17T09:48:02.424Z</time>
      </trkpt>
      <trkpt lat="43.7699" lon="1.44955">
        <ele>177.264049</ele>
        <time>2023-09-17T09:48:02.424Z</time>
      </trkpt>
      <trkpt lat="43.76994" lon="1.44957">
        <ele>177.471193</ele>
        <time>2023-09-17T09:48:03.424Z</time>
      </trkpt>
      <trkpt lat="43.76998" lon="1.44959">
        <ele>177.685806</ele>
        <time>2023-09-17T09:48:04.424Z</time>
      </trkpt>
      <trkpt lat="43.76998" lon="1.44959">
        <ele>177.685806</ele>
        <time>2023-09-17T09:48:04.424Z</time>
      </trkpt>
      <trkpt lat="43.77" lon="1.44961">
        <ele>177.808388</ele>
        <time>2023-09-17T09:48:05.424Z</time>
      </trkpt>
      <trkpt lat="43.77" lon="1.44961">
        <ele>177.808388</ele>
        <time>2023-09-17T09:48:05.424Z</time>
      </trkpt>
      <trkpt lat="43.77004" lon="1.44964">
        <ele>178.016788</ele>
        <time>2023-09-17T09:48:07.424Z</time>
      </trkpt>
      <trkpt lat="43.77004" lon="1.44964">
        <ele>178.016788</ele>
        <time>2023-09-17T09:48:07.424Z</time>
      </trkpt>
      <trkpt lat="43.77007" lon="1.44966">
        <ele>178.226752</ele>
        <time>2023-09-17T09:48:07.424Z</time>
      </trkpt>
      <trkpt lat="43.77007" lon="1.44966">
        <ele>178.226752</ele>
        <time>2023-09-17T09:48:07.424Z</time>
      </trkpt>
      <trkpt lat="43.77011" lon="1.44968">
        <ele>178.421652</ele>
        <time>2023-09-17T09:48:09.424Z</time>
      </trkpt>
      <trkpt lat="43.77011" lon="1.44968">
        <ele>178.421652</ele>
        <time>2023-09-17T09:48:09.424Z</time>
      </trkpt>
      <trkpt lat="43.77015" lon="1.44971">
        <ele>178.677545</ele>
        <time>2023-09-17T09:48:10.424Z</time>
      </trkpt>
      <trkpt lat="43.77015" lon="1.44971">
        <ele>178.677545</ele>
        <time>2023-09-17T09:48:10.424Z</time>
      </trkpt>
      <trkpt lat="43.7702" lon="1.44974">
        <ele>178.925154</ele>
        <time>2023-09-17T09:48:11.424Z</time>
      </trkpt>
      <trkpt lat="43.7702" lon="1.44974">
        <ele>178.925154</ele>
        <time>2023-09-17T09:48:11.424Z</time>
      </trkpt>
      <trkpt lat="43.77024" lon="1.44976">
        <ele>179.159592</ele>
        <time>2023-09-17T09:48:13.424Z</time>
      </trkpt>
      <trkpt lat="43.77024" lon="1.44976">
        <ele>179.159592</ele>
        <time>2023-09-17T09:48:13.424Z</time>
      </trkpt>
      <trkpt lat="43.77029" lon="1.44979">
        <ele>179.429381</ele>
        <time>2023-09-17T09:48:14.424Z</time>
      </trkpt>
      <trkpt lat="43.77029" lon="1.44979">
        <ele>179.429381</ele>
        <time>2023-09-17T09:48:14.424Z</time>
      </trkpt>
      <trkpt lat="43.77034" lon="1.44982">
        <ele>179.701092</ele>
        <time>2023-09-17T09:48:15.424Z</time>
      </trkpt>
      <trkpt lat="43.77034" lon="1.44982">
        <ele>179.701092</ele>
        <time>2023-09-17T09:48:15.424Z</time>
      </trkpt>
      <trkpt lat="43.77038" lon="1.44984">
        <ele>179.911056</ele>
        <time>2023-09-17T09:48:16.424Z</time>
      </trkpt>
      <trkpt lat="43.77038" lon="1.44984">
        <ele>179.911056</ele>
        <time>2023-09-17T09:48:16.424Z</time>
      </trkpt>
      <trkpt lat="43.77043" lon="1.44987">
        <ele>180.184117</ele>
        <time>2023-09-17T09:48:17.424Z</time>
      </trkpt>
      <trkpt lat="43.77043" lon="1.44987">
        <ele>180.184117</ele>
        <time>2023-09-17T09:48:17.424Z</time>
      </trkpt>
      <trkpt lat="43.77048" lon="1.4499">
        <ele>180.453906</ele>
        <time>2023-09-17T09:48:19.424Z</time>
      </trkpt>
      <trkpt lat="43.77048" lon="1.4499">
        <ele>180.453906</ele>
        <time>2023-09-17T09:48:19.424Z</time>
      </trkpt>
      <trkpt lat="43.77051" lon="1.44992">
        <ele>180.645601</ele>
        <time>2023-09-17T09:48:20.424Z</time>
      </trkpt>
      <trkpt lat="43.77051" lon="1.44992">
        <ele>180.645601</ele>
        <time>2023-09-17T09:48:20.424Z</time>
      </trkpt>
      <trkpt lat="43.77055" lon="1.44994">
        <ele>180.878522</ele>
        <time>2023-09-17T09:48:20.424Z</time>
      </trkpt>
      <trkpt lat="43.77055" lon="1.44994">
        <ele>180.878522</ele>
        <time>2023-09-17T09:48:20.424Z</time>
      </trkpt>
      <trkpt lat="43.77059" lon="1.44997">
        <ele>181.067007</ele>
        <time>2023-09-17T09:48:22.424Z</time>
      </trkpt>
      <trkpt lat="43.77059" lon="1.44997">
        <ele>181.067007</ele>
        <time>2023-09-17T09:48:22.424Z</time>
      </trkpt>
      <trkpt lat="43.77064" lon="1.45">
        <ele>181.339752</ele>
        <time>2023-09-17T09:48:23.424Z</time>
      </trkpt>
      <trkpt lat="43.77064" lon="1.45">
        <ele>181.339752</ele>
        <time>2023-09-17T09:48:23.424Z</time>
      </trkpt>
      <trkpt lat="43.77069" lon="1.45003">
        <ele>181.615637</ele>
        <time>2023-09-17T09:48:24.424Z</time>
      </trkpt>
      <trkpt lat="43.77069" lon="1.45003">
        <ele>181.615637</ele>
        <time>2023-09-17T09:48:24.424Z</time>
      </trkpt>
      <trkpt lat="43.77073" lon="1.45005">
        <ele>181.827092</ele>
        <time>2023-09-17T09:48:25.424Z</time>
      </trkpt>
      <trkpt lat="43.77073" lon="1.45005">
        <ele>181.827092</ele>
        <time>2023-09-17T09:48:25.424Z</time>
      </trkpt>
      <trkpt lat="43.77077" lon="1.45007">
        <ele>182.054437</ele>
        <time>2023-09-17T09:48:26.424Z</time>
      </trkpt>
      <trkpt lat="43.77077" lon="1.45007">
        <ele>182.054437</ele>
        <time>2023-09-17T09:48:26.424Z</time>
      </trkpt>
      <trkpt lat="43.7708" lon="1.45009">
        <ele>182.247557</ele>
        <time>2023-09-17T09:48:28.424Z</time>
      </trkpt>
      <trkpt lat="43.7708" lon="1.45009">
        <ele>182.247557</ele>
        <time>2023-09-17T09:48:28.424Z</time>
      </trkpt>
      <trkpt lat="43.77084" lon="1.45012">
        <ele>182.457521</ele>
        <time>2023-09-17T09:48:29.424Z</time>
      </trkpt>
      <trkpt lat="43.77084" lon="1.45012">
        <ele>182.457521</ele>
        <time>2023-09-17T09:48:29.424Z</time>
      </trkpt>
      <trkpt lat="43.77089" lon="1.45014">
        <ele>182.703002</ele>
        <time>2023-09-17T09:48:30.424Z</time>
      </trkpt>
      <trkpt lat="43.77089" lon="1.45014">
        <ele>182.703002</ele>
        <time>2023-09-17T09:48:30.424Z</time>
      </trkpt>
      <trkpt lat="43.77094" lon="1.45017">
        <ele>182.993673</ele>
        <time>2023-09-17T09:48:31.424Z</time>
      </trkpt>
      <trkpt lat="43.77094" lon="1.45017">
        <ele>182.993673</ele>
        <time>2023-09-17T09:48:31.424Z</time>
      </trkpt>
      <trkpt lat="43.77097" lon="1.45019">
        <ele>183.180698</ele>
        <time>2023-09-17T09:48:32.424Z</time>
      </trkpt>
      <trkpt lat="43.77097" lon="1.45019">
        <ele>183.180698</ele>
        <time>2023-09-17T09:48:32.424Z</time>
      </trkpt>
      <trkpt lat="43.77101" lon="1.45021">
        <ele>183.373817</ele>
        <time>2023-09-17T09:48:33.424Z</time>
      </trkpt>
      <trkpt lat="43.77101" lon="1.45021">
        <ele>183.373817</ele>
        <time>2023-09-17T09:48:33.424Z</time>
      </trkpt>
      <trkpt lat="43.7711" lon="1.45026">
        <ele>183.893735</ele>
        <time>2023-09-17T09:48:35.424Z</time>
      </trkpt>
      <trkpt lat="43.7711" lon="1.45026">
        <ele>183.893735</ele>
        <time>2023-09-17T09:48:35.424Z</time>
      </trkpt>
      <trkpt lat="43.77114" lon="1.45029">
        <ele>184.103699</ele>
        <time>2023-09-17T09:48:36.424Z</time>
      </trkpt>
      <trkpt lat="43.77114" lon="1.45029">
        <ele>184.103699</ele>
        <time>2023-09-17T09:48:36.424Z</time>
      </trkpt>
      <trkpt lat="43.77117" lon="1.45031">
        <ele>184.281755</ele>
        <time>2023-09-17T09:48:37.424Z</time>
      </trkpt>
      <trkpt lat="43.77117" lon="1.45031">
        <ele>184.281755</ele>
        <time>2023-09-17T09:48:37.424Z</time>
      </trkpt>
      <trkpt lat="43.77122" lon="1.45034">
        <ele>184.539559</ele>
        <time>2023-09-17T09:48:39.424Z</time>
      </trkpt>
      <trkpt lat="43.77126" lon="1.45037">
        <ele>184.773995</ele>
        <time>2023-09-17T09:48:40.424Z</time>
      </trkpt>
      <trkpt lat="43.77126" lon="1.45037">
        <ele>184.773995</ele>
        <time>2023-09-17T09:48:40.424Z</time>
      </trkpt>
      <trkpt lat="43.7713" lon="1.4504">
        <ele>185.013257</ele>
        <time>2023-09-17T09:48:41.424Z</time>
      </trkpt>
      <trkpt lat="43.7713" lon="1.4504">
        <ele>185.013257</ele>
        <time>2023-09-17T09:48:41.424Z</time>
      </trkpt>
      <trkpt lat="43.77135" lon="1.45043">
        <ele>185.269149</ele>
        <time>2023-09-17T09:48:42.424Z</time>
      </trkpt>
      <trkpt lat="43.77139" lon="1.45045">
        <ele>185.471329</ele>
        <time>2023-09-17T09:48:43.424Z</time>
      </trkpt>
      <trkpt lat="43.77142" lon="1.45046">
        <ele>185.642964</ele>
        <time>2023-09-17T09:48:43.424Z</time>
      </trkpt>
      <trkpt lat="43.77148" lon="1.4505">
        <ele>185.659891</ele>
        <time>2023-09-17T09:48:45.424Z</time>
      </trkpt>
      <trkpt lat="43.77148" lon="1.4505">
        <ele>185.659891</ele>
        <time>2023-09-17T09:48:45.424Z</time>
      </trkpt>
      <trkpt lat="43.77153" lon="1.45052">
        <ele>185.62732</ele>
        <time>2023-09-17T09:48:46.424Z</time>
      </trkpt>
      <trkpt lat="43.77158" lon="1.45054">
        <ele>185.588761</ele>
        <time>2023-09-17T09:48:47.424Z</time>
      </trkpt>
      <trkpt lat="43.77158" lon="1.45054">
        <ele>185.588761</ele>
        <time>2023-09-17T09:48:47.424Z</time>
      </trkpt>
      <trkpt lat="43.77164" lon="1.45058">
        <ele>185.540458</ele>
        <time>2023-09-17T09:48:48.424Z</time>
      </trkpt>
      <trkpt lat="43.77164" lon="1.45058">
        <ele>185.540458</ele>
        <time>2023-09-17T09:48:48.424Z</time>
      </trkpt>
      <trkpt lat="43.77168" lon="1.45061">
        <ele>185.504219</ele>
        <time>2023-09-17T09:48:48.424Z</time>
      </trkpt>
      <trkpt lat="43.77173" lon="1.45063">
        <ele>185.468851</ele>
        <time>2023-09-17T09:48:50.424Z</time>
      </trkpt>
      <trkpt lat="43.77177" lon="1.45067">
        <ele>185.433297</ele>
        <time>2023-09-17T09:48:50.424Z</time>
      </trkpt>
      <trkpt lat="43.77177" lon="1.45067">
        <ele>185.433297</ele>
        <time>2023-09-17T09:48:50.424Z</time>
      </trkpt>
      <trkpt lat="43.77181" lon="1.4507">
        <ele>185.398526</ele>
        <time>2023-09-17T09:48:51.424Z</time>
      </trkpt>
      <trkpt lat="43.77185" lon="1.45073">
        <ele>185.364248</ele>
        <time>2023-09-17T09:48:53.424Z</time>
      </trkpt>
      <trkpt lat="43.77185" lon="1.45073">
        <ele>185.364248</ele>
        <time>2023-09-17T09:48:53.424Z</time>
      </trkpt>
      <trkpt lat="43.7719" lon="1.45076">
        <ele>185.330438</ele>
        <time>2023-09-17T09:48:54.424Z</time>
      </trkpt>
      <trkpt lat="43.77194" lon="1.45079">
        <ele>185.293991</ele>
        <time>2023-09-17T09:48:55.424Z</time>
      </trkpt>
      <trkpt lat="43.77194" lon="1.45079">
        <ele>185.293991</ele>
        <time>2023-09-17T09:48:55.424Z</time>
      </trkpt>
      <trkpt lat="43.77198" lon="1.45081">
        <ele>185.260622</ele>
        <time>2023-09-17T09:48:55.424Z</time>
      </trkpt>
      <trkpt lat="43.77203" lon="1.45084">
        <ele>185.221882</ele>
        <time>2023-09-17T09:48:57.424Z</time>
      </trkpt>
      <trkpt lat="43.77207" lon="1.45086">
        <ele>185.192007</ele>
        <time>2023-09-17T09:48:57.424Z</time>
      </trkpt>
      <trkpt lat="43.77211" lon="1.45088">
        <ele>185.161492</ele>
        <time>2023-09-17T09:48:59.424Z</time>
      </trkpt>
      <trkpt lat="43.77216" lon="1.45091">
        <ele>185.119962</ele>
        <time>2023-09-17T09:48:59.424Z</time>
      </trkpt>
      <trkpt lat="43.77221" lon="1.45094">
        <ele>185.086151</ele>
        <time>2023-09-17T09:49:01.424Z</time>
      </trkpt>
      <trkpt lat="43.77224" lon="1.45097">
        <ele>185.058051</ele>
        <time>2023-09-17T09:49:01.424Z</time>
      </trkpt>
      <trkpt lat="43.77229" lon="1.451">
        <ele>185.019191</ele>
        <time>2023-09-17T09:49:02.424Z</time>
      </trkpt>
      <trkpt lat="43.77234" lon="1.45103">
        <ele>184.981614</ele>
        <time>2023-09-17T09:49:04.424Z</time>
      </trkpt>
      <trkpt lat="43.77237" lon="1.45105">
        <ele>184.951099</ele>
        <time>2023-09-17T09:49:05.424Z</time>
      </trkpt>
      <trkpt lat="43.77242" lon="1.45108">
        <ele>184.914219</ele>
        <time>2023-09-17T09:49:06.424Z</time>
      </trkpt>
      <trkpt lat="43.77246" lon="1.45111">
        <ele>184.882748</ele>
        <time>2023-09-17T09:49:07.424Z</time>
      </trkpt>
      <trkpt lat="43.77246" lon="1.45111">
        <ele>184.882748</ele>
        <time>2023-09-17T09:49:07.424Z</time>
      </trkpt>
      <trkpt lat="43.77249" lon="1.45113">
        <ele>184.859097</ele>
        <time>2023-09-17T09:49:08.424Z</time>
      </trkpt>
      <trkpt lat="43.77252" lon="1.45114">
        <ele>184.833989</ele>
        <time>2023-09-17T09:49:09.424Z</time>
      </trkpt>
      <trkpt lat="43.77252" lon="1.45114">
        <ele>184.833989</ele>
        <time>2023-09-17T09:49:09.424Z</time>
      </trkpt>
      <trkpt lat="43.77255" lon="1.45113">
        <ele>184.817175</ele>
        <time>2023-09-17T09:49:10.424Z</time>
      </trkpt>
      <trkpt lat="43.77258" lon="1.45112">
        <ele>184.795015</ele>
        <time>2023-09-17T09:49:11.424Z</time>
      </trkpt>
      <trkpt lat="43.7726" lon="1.45113">
        <ele>184.778258</ele>
        <time>2023-09-17T09:49:12.424Z</time>
      </trkpt>
      <trkpt lat="43.7726" lon="1.45113">
        <ele>184.778258</ele>
        <time>2023-09-17T09:49:12.424Z</time>
      </trkpt>
      <trkpt lat="43.77263" lon="1.45114">
        <ele>184.751355</ele>
        <time>2023-09-17T09:49:12.424Z</time>
      </trkpt>
      <trkpt lat="43.77263" lon="1.45114">
        <ele>184.751355</ele>
        <time>2023-09-17T09:49:12.424Z</time>
      </trkpt>
      <trkpt lat="43.77267" lon="1.45118">
        <ele>184.717661</ele>
        <time>2023-09-17T09:49:13.424Z</time>
      </trkpt>
      <trkpt lat="43.77267" lon="1.45118">
        <ele>184.717661</ele>
        <time>2023-09-17T09:49:13.424Z</time>
      </trkpt>
      <trkpt lat="43.77272" lon="1.45124">
        <ele>184.671245</ele>
        <time>2023-09-17T09:49:15.424Z</time>
      </trkpt>
      <trkpt lat="43.77272" lon="1.45124">
        <ele>184.671245</ele>
        <time>2023-09-17T09:49:15.424Z</time>
      </trkpt>
      <trkpt lat="43.77277" lon="1.4513">
        <ele>184.622822</ele>
        <time>2023-09-17T09:49:15.424Z</time>
      </trkpt>
      <trkpt lat="43.77277" lon="1.4513">
        <ele>184.622822</ele>
        <time>2023-09-17T09:49:15.424Z</time>
      </trkpt>
      <trkpt lat="43.77281" lon="1.45138">
        <ele>184.571283</ele>
        <time>2023-09-17T09:49:16.424Z</time>
      </trkpt>
      <trkpt lat="43.77281" lon="1.45138">
        <ele>184.571283</ele>
        <time>2023-09-17T09:49:16.424Z</time>
      </trkpt>
      <trkpt lat="43.77288" lon="1.45151">
        <ele>184.485472</ele>
        <time>2023-09-17T09:49:17.424Z</time>
      </trkpt>
      <trkpt lat="43.77288" lon="1.45151">
        <ele>184.485472</ele>
        <time>2023-09-17T09:49:17.424Z</time>
      </trkpt>
      <trkpt lat="43.77294" lon="1.45162">
        <ele>184.414936</ele>
        <time>2023-09-17T09:49:19.424Z</time>
      </trkpt>
      <trkpt lat="43.77294" lon="1.45162">
        <ele>184.414936</ele>
        <time>2023-09-17T09:49:19.424Z</time>
      </trkpt>
      <trkpt lat="43.77299" lon="1.45174">
        <ele>184.818936</ele>
        <time>2023-09-17T09:49:19.424Z</time>
      </trkpt>
      <trkpt lat="43.77299" lon="1.45174">
        <ele>184.818936</ele>
        <time>2023-09-17T09:49:19.424Z</time>
      </trkpt>
      <trkpt lat="43.77304" lon="1.45183">
        <ele>185.259194</ele>
        <time>2023-09-17T09:49:20.424Z</time>
      </trkpt>
      <trkpt lat="43.77308" lon="1.4519">
        <ele>185.613245</ele>
        <time>2023-09-17T09:49:21.424Z</time>
      </trkpt>
      <trkpt lat="43.77308" lon="1.4519">
        <ele>185.613245</ele>
        <time>2023-09-17T09:49:21.424Z</time>
      </trkpt>
      <trkpt lat="43.7731" lon="1.45195">
        <ele>185.826952</ele>
        <time>2023-09-17T09:49:22.424Z</time>
      </trkpt>
      <trkpt lat="43.7731" lon="1.45195">
        <ele>185.826952</ele>
        <time>2023-09-17T09:49:22.424Z</time>
      </trkpt>
      <trkpt lat="43.77312" lon="1.45197">
        <ele>185.964447</ele>
        <time>2023-09-17T09:49:25.424Z</time>
      </trkpt>
      <trkpt lat="43.77312" lon="1.45197">
        <ele>185.964447</ele>
        <time>2023-09-17T09:49:25.424Z</time>
      </trkpt>
      <trkpt lat="43.77313" lon="1.452">
        <ele>186.108009</ele>
        <time>2023-09-17T09:49:26.424Z</time>
      </trkpt>
      <trkpt lat="43.77313" lon="1.452">
        <ele>186.108009</ele>
        <time>2023-09-17T09:49:26.424Z</time>
      </trkpt>
      <trkpt lat="43.77316" lon="1.45203">
        <ele>186.296614</ele>
        <time>2023-09-17T09:49:27.424Z</time>
      </trkpt>
      <trkpt lat="43.77316" lon="1.45203">
        <ele>186.296614</ele>
        <time>2023-09-17T09:49:27.424Z</time>
      </trkpt>
      <trkpt lat="43.77318" lon="1.45206">
        <ele>186.463465</ele>
        <time>2023-09-17T09:49:28.424Z</time>
      </trkpt>
      <trkpt lat="43.77318" lon="1.45206">
        <ele>186.463465</ele>
        <time>2023-09-17T09:49:28.424Z</time>
      </trkpt>
      <trkpt lat="43.7732" lon="1.4521">
        <ele>186.642089</ele>
        <time>2023-09-17T09:49:28.424Z</time>
      </trkpt>
      <trkpt lat="43.7732" lon="1.4521">
        <ele>186.642089</ele>
        <time>2023-09-17T09:49:28.424Z</time>
      </trkpt>
      <trkpt lat="43.77322" lon="1.45212">
        <ele>186.793258</ele>
        <time>2023-09-17T09:49:29.424Z</time>
      </trkpt>
      <trkpt lat="43.77322" lon="1.45212">
        <ele>186.793258</ele>
        <time>2023-09-17T09:49:29.424Z</time>
      </trkpt>
      <trkpt lat="43.77324" lon="1.45216">
        <ele>186.994428</ele>
        <time>2023-09-17T09:49:31.424Z</time>
      </trkpt>
      <trkpt lat="43.77324" lon="1.45216">
        <ele>186.994428</ele>
        <time>2023-09-17T09:49:31.424Z</time>
      </trkpt>
      <trkpt lat="43.77326" lon="1.45219">
        <ele>187.131594</ele>
        <time>2023-09-17T09:49:33.424Z</time>
      </trkpt>
      <trkpt lat="43.77326" lon="1.45219">
        <ele>187.131594</ele>
        <time>2023-09-17T09:49:33.424Z</time>
      </trkpt>
      <trkpt lat="43.77327" lon="1.45222">
        <ele>187.265621</ele>
        <time>2023-09-17T09:49:33.424Z</time>
      </trkpt>
      <trkpt lat="43.77327" lon="1.45222">
        <ele>187.265621</ele>
        <time>2023-09-17T09:49:33.424Z</time>
      </trkpt>
      <trkpt lat="43.77329" lon="1.45225">
        <ele>187.415536</ele>
        <time>2023-09-17T09:49:35.424Z</time>
      </trkpt>
      <trkpt lat="43.77329" lon="1.45225">
        <ele>187.415536</ele>
        <time>2023-09-17T09:49:35.424Z</time>
      </trkpt>
      <trkpt lat="43.7733" lon="1.45228">
        <ele>187.537503</ele>
        <time>2023-09-17T09:49:36.424Z</time>
      </trkpt>
      <trkpt lat="43.7733" lon="1.45228">
        <ele>187.537503</ele>
        <time>2023-09-17T09:49:36.424Z</time>
      </trkpt>
      <trkpt lat="43.77331" lon="1.45229">
        <ele>187.628262</ele>
        <time>2023-09-17T09:49:37.424Z</time>
      </trkpt>
      <trkpt lat="43.77333" lon="1.45232">
        <ele>187.776588</ele>
        <time>2023-09-17T09:49:38.424Z</time>
      </trkpt>
      <trkpt lat="43.77333" lon="1.45232">
        <ele>187.776588</ele>
        <time>2023-09-17T09:49:38.424Z</time>
      </trkpt>
      <trkpt lat="43.77335" lon="1.45235">
        <ele>187.924913</ele>
        <time>2023-09-17T09:49:39.424Z</time>
      </trkpt>
      <trkpt lat="43.77335" lon="1.45235">
        <ele>187.924913</ele>
        <time>2023-09-17T09:49:39.424Z</time>
      </trkpt>
      <trkpt lat="43.77337" lon="1.45237">
        <ele>188.055844</ele>
        <time>2023-09-17T09:49:40.424Z</time>
      </trkpt>
      <trkpt lat="43.77337" lon="1.45237">
        <ele>188.055844</ele>
        <time>2023-09-17T09:49:40.424Z</time>
      </trkpt>
      <trkpt lat="43.77342" lon="1.45245">
        <ele>188.466193</ele>
        <time>2023-09-17T09:49:42.424Z</time>
      </trkpt>
      <trkpt lat="43.77342" lon="1.45245">
        <ele>188.466193</ele>
        <time>2023-09-17T09:49:42.424Z</time>
      </trkpt>
      <trkpt lat="43.77343" lon="1.45247">
        <ele>188.562004</ele>
        <time>2023-09-17T09:49:43.424Z</time>
      </trkpt>
      <trkpt lat="43.77344" lon="1.4525">
        <ele>188.715416</ele>
        <time>2023-09-17T09:49:44.424Z</time>
      </trkpt>
      <trkpt lat="43.77344" lon="1.4525">
        <ele>188.715416</ele>
        <time>2023-09-17T09:49:44.424Z</time>
      </trkpt>
      <trkpt lat="43.77346" lon="1.45253">
        <ele>188.868548</ele>
        <time>2023-09-17T09:49:45.424Z</time>
      </trkpt>
      <trkpt lat="43.77346" lon="1.45253">
        <ele>188.868548</ele>
        <time>2023-09-17T09:49:45.424Z</time>
      </trkpt>
      <trkpt lat="43.77347" lon="1.45256">
        <ele>188.993956</ele>
        <time>2023-09-17T09:49:46.424Z</time>
      </trkpt>
      <trkpt lat="43.77347" lon="1.45256">
        <ele>188.993956</ele>
        <time>2023-09-17T09:49:46.424Z</time>
      </trkpt>
      <trkpt lat="43.77349" lon="1.45261">
        <ele>189.207662</ele>
        <time>2023-09-17T09:49:48.424Z</time>
      </trkpt>
      <trkpt lat="43.77349" lon="1.45261">
        <ele>189.207662</ele>
        <time>2023-09-17T09:49:48.424Z</time>
      </trkpt>
      <trkpt lat="43.7735" lon="1.45264">
        <ele>189.343554</ele>
        <time>2023-09-17T09:49:49.424Z</time>
      </trkpt>
      <trkpt lat="43.7735" lon="1.45264">
        <ele>189.343554</ele>
        <time>2023-09-17T09:49:49.424Z</time>
      </trkpt>
      <trkpt lat="43.77353" lon="1.45267">
        <ele>189.526849</ele>
        <time>2023-09-17T09:49:50.424Z</time>
      </trkpt>
      <trkpt lat="43.77353" lon="1.45267">
        <ele>189.526849</ele>
        <time>2023-09-17T09:49:50.424Z</time>
      </trkpt>
      <trkpt lat="43.77354" lon="1.45271">
        <ele>189.686975</ele>
        <time>2023-09-17T09:49:51.424Z</time>
      </trkpt>
      <trkpt lat="43.77354" lon="1.45271">
        <ele>189.686975</ele>
        <time>2023-09-17T09:49:51.424Z</time>
      </trkpt>
      <trkpt lat="43.77356" lon="1.45275">
        <ele>189.885082</ele>
        <time>2023-09-17T09:49:52.424Z</time>
      </trkpt>
      <trkpt lat="43.77356" lon="1.45275">
        <ele>189.885082</ele>
        <time>2023-09-17T09:49:52.424Z</time>
      </trkpt>
      <trkpt lat="43.77358" lon="1.45278">
        <ele>190.044746</ele>
        <time>2023-09-17T09:49:54.424Z</time>
      </trkpt>
      <trkpt lat="43.77358" lon="1.45278">
        <ele>190.044746</ele>
        <time>2023-09-17T09:49:54.424Z</time>
      </trkpt>
      <trkpt lat="43.77363" lon="1.45286">
        <ele>190.463498</ele>
        <time>2023-09-17T09:49:55.424Z</time>
      </trkpt>
      <trkpt lat="43.77363" lon="1.45286">
        <ele>190.463498</ele>
        <time>2023-09-17T09:49:55.424Z</time>
      </trkpt>
      <trkpt lat="43.77365" lon="1.45291">
        <ele>190.693427</ele>
        <time>2023-09-17T09:49:56.424Z</time>
      </trkpt>
      <trkpt lat="43.77365" lon="1.45291">
        <ele>190.693427</ele>
        <time>2023-09-17T09:49:56.424Z</time>
      </trkpt>
      <trkpt lat="43.77373" lon="1.45304">
        <ele>191.345395</ele>
        <time>2023-09-17T09:49:58.424Z</time>
      </trkpt>
      <trkpt lat="43.77375" lon="1.45308">
        <ele>191.572567</ele>
        <time>2023-09-17T09:49:59.424Z</time>
      </trkpt>
      <trkpt lat="43.77379" lon="1.45313">
        <ele>191.831843</ele>
        <time>2023-09-17T09:50:00.424Z</time>
      </trkpt>
      <trkpt lat="43.77382" lon="1.45318">
        <ele>192.093585</ele>
        <time>2023-09-17T09:50:01.424Z</time>
      </trkpt>
      <trkpt lat="43.77382" lon="1.45318">
        <ele>192.093585</ele>
        <time>2023-09-17T09:50:01.424Z</time>
      </trkpt>
      <trkpt lat="43.77387" lon="1.45324">
        <ele>192.466559</ele>
        <time>2023-09-17T09:50:02.424Z</time>
      </trkpt>
      <trkpt lat="43.77387" lon="1.45324">
        <ele>192.466559</ele>
        <time>2023-09-17T09:50:02.424Z</time>
      </trkpt>
      <trkpt lat="43.77391" lon="1.45327">
        <ele>192.73363</ele>
        <time>2023-09-17T09:50:03.424Z</time>
      </trkpt>
      <trkpt lat="43.77395" lon="1.4533">
        <ele>192.958037</ele>
        <time>2023-09-17T09:50:04.424Z</time>
      </trkpt>
      <trkpt lat="43.77395" lon="1.4533">
        <ele>192.958037</ele>
        <time>2023-09-17T09:50:04.424Z</time>
      </trkpt>
      <trkpt lat="43.77399" lon="1.45332">
        <ele>193.190562</ele>
        <time>2023-09-17T09:50:05.424Z</time>
      </trkpt>
      <trkpt lat="43.77404" lon="1.45334">
        <ele>193.45191</ele>
        <time>2023-09-17T09:50:06.424Z</time>
      </trkpt>
      <trkpt lat="43.77408" lon="1.45337">
        <ele>193.718375</ele>
        <time>2023-09-17T09:50:07.424Z</time>
      </trkpt>
      <trkpt lat="43.77408" lon="1.45337">
        <ele>193.718375</ele>
        <time>2023-09-17T09:50:07.424Z</time>
      </trkpt>
      <trkpt lat="43.77413" lon="1.45339">
        <ele>193.987614</ele>
        <time>2023-09-17T09:50:08.424Z</time>
      </trkpt>
      <trkpt lat="43.77418" lon="1.45342">
        <ele>194.200639</ele>
        <time>2023-09-17T09:50:08.424Z</time>
      </trkpt>
      <trkpt lat="43.77422" lon="1.45345">
        <ele>194.206237</ele>
        <time>2023-09-17T09:50:10.424Z</time>
      </trkpt>
      <trkpt lat="43.77425" lon="1.45347">
        <ele>194.210417</ele>
        <time>2023-09-17T09:50:11.424Z</time>
      </trkpt>
      <trkpt lat="43.77429" lon="1.45351">
        <ele>194.21689</ele>
        <time>2023-09-17T09:50:13.424Z</time>
      </trkpt>
      <trkpt lat="43.77429" lon="1.45351">
        <ele>194.21689</ele>
        <time>2023-09-17T09:50:13.424Z</time>
      </trkpt>
      <trkpt lat="43.77432" lon="1.45354">
        <ele>194.222504</ele>
        <time>2023-09-17T09:50:14.424Z</time>
      </trkpt>
      <trkpt lat="43.77437" lon="1.45358">
        <ele>194.228977</ele>
        <time>2023-09-17T09:50:15.424Z</time>
      </trkpt>
      <trkpt lat="43.77437" lon="1.45358">
        <ele>194.228977</ele>
        <time>2023-09-17T09:50:15.424Z</time>
      </trkpt>
      <trkpt lat="43.77439" lon="1.45361">
        <ele>194.233627</ele>
        <time>2023-09-17T09:50:16.424Z</time>
      </trkpt>
      <trkpt lat="43.77439" lon="1.45361">
        <ele>194.233627</ele>
        <time>2023-09-17T09:50:16.424Z</time>
      </trkpt>
      <trkpt lat="43.77443" lon="1.45366">
        <ele>194.241016</ele>
        <time>2023-09-17T09:50:17.424Z</time>
      </trkpt>
      <trkpt lat="43.77446" lon="1.45371">
        <ele>194.246582</ele>
        <time>2023-09-17T09:50:18.424Z</time>
      </trkpt>
      <trkpt lat="43.77446" lon="1.45371">
        <ele>194.246582</ele>
        <time>2023-09-17T09:50:18.424Z</time>
      </trkpt>
      <trkpt lat="43.77449" lon="1.45375">
        <ele>194.251522</ele>
        <time>2023-09-17T09:50:19.424Z</time>
      </trkpt>
      <trkpt lat="43.77451" lon="1.4538">
        <ele>194.25694</ele>
        <time>2023-09-17T09:50:21.424Z</time>
      </trkpt>
      <trkpt lat="43.77451" lon="1.4538">
        <ele>194.25694</ele>
        <time>2023-09-17T09:50:21.424Z</time>
      </trkpt>
      <trkpt lat="43.77454" lon="1.45385">
        <ele>194.263419</ele>
        <time>2023-09-17T09:50:22.424Z</time>
      </trkpt>
      <trkpt lat="43.77454" lon="1.45385">
        <ele>194.263419</ele>
        <time>2023-09-17T09:50:22.424Z</time>
      </trkpt>
      <trkpt lat="43.77456" lon="1.45391">
        <ele>194.269066</ele>
        <time>2023-09-17T09:50:23.424Z</time>
      </trkpt>
      <trkpt lat="43.77458" lon="1.45396">
        <ele>194.274791</ele>
        <time>2023-09-17T09:50:24.424Z</time>
      </trkpt>
      <trkpt lat="43.77461" lon="1.45402">
        <ele>194.281504</ele>
        <time>2023-09-17T09:50:25.424Z</time>
      </trkpt>
      <trkpt lat="43.77461" lon="1.45402">
        <ele>194.281504</ele>
        <time>2023-09-17T09:50:25.424Z</time>
      </trkpt>
      <trkpt lat="43.77462" lon="1.45409">
        <ele>194.28827</ele>
        <time>2023-09-17T09:50:26.424Z</time>
      </trkpt>
      <trkpt lat="43.77463" lon="1.45416">
        <ele>194.294997</ele>
        <time>2023-09-17T09:50:27.424Z</time>
      </trkpt>
      <trkpt lat="43.77467" lon="1.4543">
        <ele>194.308972</ele>
        <time>2023-09-17T09:50:29.424Z</time>
      </trkpt>
      <trkpt lat="43.7747" lon="1.45434">
        <ele>194.3137</ele>
        <time>2023-09-17T09:50:30.424Z</time>
      </trkpt>
      <trkpt lat="43.77473" lon="1.45437">
        <ele>194.319084</ele>
        <time>2023-09-17T09:50:31.424Z</time>
      </trkpt>
      <trkpt lat="43.77478" lon="1.45442">
        <ele>194.327268</ele>
        <time>2023-09-17T09:50:32.424Z</time>
      </trkpt>
      <trkpt lat="43.77478" lon="1.45442">
        <ele>194.327268</ele>
        <time>2023-09-17T09:50:32.424Z</time>
      </trkpt>
      <trkpt lat="43.77483" lon="1.45446">
        <ele>194.33473</ele>
        <time>2023-09-17T09:50:33.424Z</time>
      </trkpt>
      <trkpt lat="43.77488" lon="1.45449">
        <ele>194.341383</ele>
        <time>2023-09-17T09:50:34.424Z</time>
      </trkpt>
      <trkpt lat="43.77488" lon="1.45449">
        <ele>194.341383</ele>
        <time>2023-09-17T09:50:34.424Z</time>
      </trkpt>
      <trkpt lat="43.77493" lon="1.45452">
        <ele>194.348939</ele>
        <time>2023-09-17T09:50:35.424Z</time>
      </trkpt>
      <trkpt lat="43.77498" lon="1.45455">
        <ele>194.355551</ele>
        <time>2023-09-17T09:50:36.424Z</time>
      </trkpt>
      <trkpt lat="43.77502" lon="1.45459">
        <ele>194.362596</ele>
        <time>2023-09-17T09:50:37.424Z</time>
      </trkpt>
      <trkpt lat="43.77502" lon="1.45459">
        <ele>194.362596</ele>
        <time>2023-09-17T09:50:37.424Z</time>
      </trkpt>
      <trkpt lat="43.77506" lon="1.45461">
        <ele>194.368072</ele>
        <time>2023-09-17T09:50:38.424Z</time>
      </trkpt>
      <trkpt lat="43.77511" lon="1.45464">
        <ele>194.375002</ele>
        <time>2023-09-17T09:50:38.424Z</time>
      </trkpt>
      <trkpt lat="43.77515" lon="1.45466">
        <ele>194.380984</ele>
        <time>2023-09-17T09:50:40.424Z</time>
      </trkpt>
      <trkpt lat="43.77521" lon="1.45469">
        <ele>194.388586</ele>
        <time>2023-09-17T09:50:41.424Z</time>
      </trkpt>
      <trkpt lat="43.77521" lon="1.45469">
        <ele>194.388586</ele>
        <time>2023-09-17T09:50:41.424Z</time>
      </trkpt>
      <trkpt lat="43.77526" lon="1.45472">
        <ele>194.395409</ele>
        <time>2023-09-17T09:50:42.424Z</time>
      </trkpt>
      <trkpt lat="43.7753" lon="1.45475">
        <ele>194.401906</ele>
        <time>2023-09-17T09:50:43.424Z</time>
      </trkpt>
      <trkpt lat="43.77534" lon="1.45478">
        <ele>194.407893</ele>
        <time>2023-09-17T09:50:44.424Z</time>
      </trkpt>
      <trkpt lat="43.77536" lon="1.45482">
        <ele>194.412407</ele>
        <time>2023-09-17T09:50:45.424Z</time>
      </trkpt>
      <trkpt lat="43.77536" lon="1.45482">
        <ele>194.412407</ele>
        <time>2023-09-17T09:50:45.424Z</time>
      </trkpt>
      <trkpt lat="43.77539" lon="1.45486">
        <ele>194.416991</ele>
        <time>2023-09-17T09:50:46.424Z</time>
      </trkpt>
      <trkpt lat="43.77539" lon="1.45486">
        <ele>194.416991</ele>
        <time>2023-09-17T09:50:46.424Z</time>
      </trkpt>
      <trkpt lat="43.77539" lon="1.45489">
        <ele>194.420133</ele>
        <time>2023-09-17T09:50:47.424Z</time>
      </trkpt>
      <trkpt lat="43.77538" lon="1.45492">
        <ele>194.42296</ele>
        <time>2023-09-17T09:50:48.424Z</time>
      </trkpt>
      <trkpt lat="43.77538" lon="1.45492">
        <ele>194.42296</ele>
        <time>2023-09-17T09:50:48.424Z</time>
      </trkpt>
      <trkpt lat="43.77536" lon="1.45495">
        <ele>194.427404</ele>
        <time>2023-09-17T09:50:48.424Z</time>
      </trkpt>
      <trkpt lat="43.77534" lon="1.45499">
        <ele>194.431917</ele>
        <time>2023-09-17T09:50:50.424Z</time>
      </trkpt>
      <trkpt lat="43.77532" lon="1.45502">
        <ele>194.455108</ele>
        <time>2023-09-17T09:50:51.424Z</time>
      </trkpt>
      <trkpt lat="43.77532" lon="1.45502">
        <ele>194.455108</ele>
        <time>2023-09-17T09:50:51.424Z</time>
      </trkpt>
      <trkpt lat="43.77528" lon="1.45505">
        <ele>194.491672</ele>
        <time>2023-09-17T09:50:53.424Z</time>
      </trkpt>
      <trkpt lat="43.77528" lon="1.45505">
        <ele>194.491672</ele>
        <time>2023-09-17T09:50:53.424Z</time>
      </trkpt>
      <trkpt lat="43.77525" lon="1.45508">
        <ele>194.529146</ele>
        <time>2023-09-17T09:50:54.424Z</time>
      </trkpt>
      <trkpt lat="43.77522" lon="1.45518">
        <ele>194.598068</ele>
        <time>2023-09-17T09:50:55.424Z</time>
      </trkpt>
      <trkpt lat="43.77522" lon="1.45518">
        <ele>194.598068</ele>
        <time>2023-09-17T09:50:55.424Z</time>
      </trkpt>
      <trkpt lat="43.77523" lon="1.45523">
        <ele>194.633867</ele>
        <time>2023-09-17T09:50:55.424Z</time>
      </trkpt>
      <trkpt lat="43.77526" lon="1.45527">
        <ele>194.671544</ele>
        <time>2023-09-17T09:50:57.424Z</time>
      </trkpt>
      <trkpt lat="43.77526" lon="1.45527">
        <ele>194.671544</ele>
        <time>2023-09-17T09:50:57.424Z</time>
      </trkpt>
      <trkpt lat="43.7753" lon="1.45531">
        <ele>194.710733</ele>
        <time>2023-09-17T09:50:59.424Z</time>
      </trkpt>
      <trkpt lat="43.7753" lon="1.45531">
        <ele>194.710733</ele>
        <time>2023-09-17T09:50:59.424Z</time>
      </trkpt>
      <trkpt lat="43.77533" lon="1.45534">
        <ele>194.749505</ele>
        <time>2023-09-17T09:50:59.424Z</time>
      </trkpt>
      <trkpt lat="43.77538" lon="1.45538">
        <ele>194.805419</ele>
        <time>2023-09-17T09:51:01.424Z</time>
      </trkpt>
      <trkpt lat="43.77542" lon="1.45541">
        <ele>194.845803</ele>
        <time>2023-09-17T09:51:02.424Z</time>
      </trkpt>
      <trkpt lat="43.77547" lon="1.45545">
        <ele>194.898677</ele>
        <time>2023-09-17T09:51:04.424Z</time>
      </trkpt>
      <trkpt lat="43.77555" lon="1.45551">
        <ele>194.978457</ele>
        <time>2023-09-17T09:51:05.424Z</time>
      </trkpt>
      <trkpt lat="43.77555" lon="1.45551">
        <ele>194.978457</ele>
        <time>2023-09-17T09:51:05.424Z</time>
      </trkpt>
      <trkpt lat="43.77558" lon="1.45554">
        <ele>195.012712</ele>
        <time>2023-09-17T09:51:06.424Z</time>
      </trkpt>
      <trkpt lat="43.77562" lon="1.45557">
        <ele>195.057596</ele>
        <time>2023-09-17T09:51:08.424Z</time>
      </trkpt>
      <trkpt lat="43.77562" lon="1.45557">
        <ele>195.057596</ele>
        <time>2023-09-17T09:51:08.424Z</time>
      </trkpt>
      <trkpt lat="43.77571" lon="1.45565">
        <ele>195.153563</ele>
        <time>2023-09-17T09:51:09.424Z</time>
      </trkpt>
      <trkpt lat="43.77574" lon="1.45567">
        <ele>195.187096</ele>
        <time>2023-09-17T09:51:10.424Z</time>
      </trkpt>
      <trkpt lat="43.77578" lon="1.4557">
        <ele>195.22748</ele>
        <time>2023-09-17T09:51:11.424Z</time>
      </trkpt>
      <trkpt lat="43.77578" lon="1.4557">
        <ele>195.22748</ele>
        <time>2023-09-17T09:51:11.424Z</time>
      </trkpt>
      <trkpt lat="43.77581" lon="1.45573">
        <ele>195.263702</ele>
        <time>2023-09-17T09:51:12.424Z</time>
      </trkpt>
      <trkpt lat="43.77585" lon="1.45577">
        <ele>195.30549</ele>
        <time>2023-09-17T09:51:13.424Z</time>
      </trkpt>
      <trkpt lat="43.77585" lon="1.45577">
        <ele>195.30549</ele>
        <time>2023-09-17T09:51:13.424Z</time>
      </trkpt>
      <trkpt lat="43.7759" lon="1.45581">
        <ele>195.355581</ele>
        <time>2023-09-17T09:51:14.424Z</time>
      </trkpt>
      <trkpt lat="43.7759" lon="1.45581">
        <ele>195.355581</ele>
        <time>2023-09-17T09:51:14.424Z</time>
      </trkpt>
      <trkpt lat="43.77593" lon="1.45584">
        <ele>195.391469</ele>
        <time>2023-09-17T09:51:15.424Z</time>
      </trkpt>
      <trkpt lat="43.77593" lon="1.45584">
        <ele>195.391469</ele>
        <time>2023-09-17T09:51:15.424Z</time>
      </trkpt>
      <trkpt lat="43.77601" lon="1.45591">
        <ele>195.478474</ele>
        <time>2023-09-17T09:51:17.424Z</time>
      </trkpt>
      <trkpt lat="43.77604" lon="1.45592">
        <ele>195.502043</ele>
        <time>2023-09-17T09:51:18.424Z</time>
      </trkpt>
      <trkpt lat="43.77604" lon="1.45592">
        <ele>195.502043</ele>
        <time>2023-09-17T09:51:18.424Z</time>
      </trkpt>
      <trkpt lat="43.77607" lon="1.45595">
        <ele>195.542427</ele>
        <time>2023-09-17T09:51:19.424Z</time>
      </trkpt>
      <trkpt lat="43.77612" lon="1.45599">
        <ele>195.588365</ele>
        <time>2023-09-17T09:51:20.424Z</time>
      </trkpt>
      <trkpt lat="43.77612" lon="1.45599">
        <ele>195.588365</ele>
        <time>2023-09-17T09:51:20.424Z</time>
      </trkpt>
      <trkpt lat="43.7762" lon="1.45607">
        <ele>195.679525</ele>
        <time>2023-09-17T09:51:22.424Z</time>
      </trkpt>
      <trkpt lat="43.77623" lon="1.4561">
        <ele>195.717567</ele>
        <time>2023-09-17T09:51:23.424Z</time>
      </trkpt>
      <trkpt lat="43.77623" lon="1.4561">
        <ele>195.717567</ele>
        <time>2023-09-17T09:51:23.424Z</time>
      </trkpt>
      <trkpt lat="43.77627" lon="1.45613">
        <ele>195.760102</ele>
        <time>2023-09-17T09:51:24.424Z</time>
      </trkpt>
      <trkpt lat="43.77631" lon="1.45618">
        <ele>195.807928</ele>
        <time>2023-09-17T09:51:25.424Z</time>
      </trkpt>
      <trkpt lat="43.77636" lon="1.45622">
        <ele>195.856151</ele>
        <time>2023-09-17T09:51:26.424Z</time>
      </trkpt>
      <trkpt lat="43.77639" lon="1.45626">
        <ele>195.892069</ele>
        <time>2023-09-17T09:51:27.424Z</time>
      </trkpt>
      <trkpt lat="43.77639" lon="1.45626">
        <ele>195.892069</ele>
        <time>2023-09-17T09:51:27.424Z</time>
      </trkpt>
      <trkpt lat="43.77644" lon="1.45632">
        <ele>195.952649</ele>
        <time>2023-09-17T09:51:29.424Z</time>
      </trkpt>
      <trkpt lat="43.77647" lon="1.45635">
        <ele>195.991838</ele>
        <time>2023-09-17T09:51:30.424Z</time>
      </trkpt>
      <trkpt lat="43.77647" lon="1.45635">
        <ele>195.991838</ele>
        <time>2023-09-17T09:51:30.424Z</time>
      </trkpt>
      <trkpt lat="43.7765" lon="1.45638">
        <ele>196.027242</ele>
        <time>2023-09-17T09:51:30.424Z</time>
      </trkpt>
      <trkpt lat="43.77654" lon="1.45643">
        <ele>196.075866</ele>
        <time>2023-09-17T09:51:32.424Z</time>
      </trkpt>
      <trkpt lat="43.77657" lon="1.45647">
        <ele>196.063262</ele>
        <time>2023-09-17T09:51:33.424Z</time>
      </trkpt>
      <trkpt lat="43.77657" lon="1.45647">
        <ele>196.063262</ele>
        <time>2023-09-17T09:51:33.424Z</time>
      </trkpt>
      <trkpt lat="43.77661" lon="1.45651">
        <ele>196.041941</ele>
        <time>2023-09-17T09:51:35.424Z</time>
      </trkpt>
      <trkpt lat="43.77661" lon="1.45651">
        <ele>196.041941</ele>
        <time>2023-09-17T09:51:35.424Z</time>
      </trkpt>
      <trkpt lat="43.77666" lon="1.45656">
        <ele>196.016254</ele>
        <time>2023-09-17T09:51:36.424Z</time>
      </trkpt>
      <trkpt lat="43.7767" lon="1.45659">
        <ele>195.995319</ele>
        <time>2023-09-17T09:51:36.424Z</time>
      </trkpt>
      <trkpt lat="43.7767" lon="1.45659">
        <ele>195.995319</ele>
        <time>2023-09-17T09:51:36.424Z</time>
      </trkpt>
      <trkpt lat="43.77673" lon="1.45664">
        <ele>195.973395</ele>
        <time>2023-09-17T09:51:38.424Z</time>
      </trkpt>
      <trkpt lat="43.77677" lon="1.45668">
        <ele>195.95371</ele>
        <time>2023-09-17T09:51:39.424Z</time>
      </trkpt>
      <trkpt lat="43.77681" lon="1.45672">
        <ele>195.930206</ele>
        <time>2023-09-17T09:51:40.424Z</time>
      </trkpt>
      <trkpt lat="43.77681" lon="1.45672">
        <ele>195.930206</ele>
        <time>2023-09-17T09:51:40.424Z</time>
      </trkpt>
      <trkpt lat="43.77685" lon="1.45677">
        <ele>195.908075</ele>
        <time>2023-09-17T09:51:42.424Z</time>
      </trkpt>
      <trkpt lat="43.77691" lon="1.45684">
        <ele>195.872806</ele>
        <time>2023-09-17T09:51:43.424Z</time>
      </trkpt>
      <trkpt lat="43.77691" lon="1.45684">
        <ele>195.872806</ele>
        <time>2023-09-17T09:51:43.424Z</time>
      </trkpt>
      <trkpt lat="43.77695" lon="1.45688">
        <ele>195.851086</ele>
        <time>2023-09-17T09:51:44.424Z</time>
      </trkpt>
      <trkpt lat="43.77699" lon="1.45693">
        <ele>195.828955</ele>
        <time>2023-09-17T09:51:45.424Z</time>
      </trkpt>
      <trkpt lat="43.77702" lon="1.45697">
        <ele>195.806825</ele>
        <time>2023-09-17T09:51:46.424Z</time>
      </trkpt>
      <trkpt lat="43.77705" lon="1.45701">
        <ele>195.787405</ele>
        <time>2023-09-17T09:51:47.424Z</time>
      </trkpt>
      <trkpt lat="43.77709" lon="1.45708">
        <ele>195.759415</ele>
        <time>2023-09-17T09:51:49.424Z</time>
      </trkpt>
      <trkpt lat="43.77709" lon="1.45708">
        <ele>195.759415</ele>
        <time>2023-09-17T09:51:49.424Z</time>
      </trkpt>
      <trkpt lat="43.77707" lon="1.45714">
        <ele>195.740217</ele>
        <time>2023-09-17T09:51:50.424Z</time>
      </trkpt>
      <trkpt lat="43.77707" lon="1.45714">
        <ele>195.740217</ele>
        <time>2023-09-17T09:51:50.424Z</time>
      </trkpt>
      <trkpt lat="43.77705" lon="1.45719">
        <ele>195.721019</ele>
        <time>2023-09-17T09:51:50.424Z</time>
      </trkpt>
      <trkpt lat="43.77705" lon="1.45719">
        <ele>195.721019</ele>
        <time>2023-09-17T09:51:50.424Z</time>
      </trkpt>
      <trkpt lat="43.77702" lon="1.45724">
        <ele>195.698991</ele>
        <time>2023-09-17T09:51:52.424Z</time>
      </trkpt>
      <trkpt lat="43.77702" lon="1.45724">
        <ele>195.698991</ele>
        <time>2023-09-17T09:51:52.424Z</time>
      </trkpt>
      <trkpt lat="43.77699" lon="1.45729">
        <ele>195.678214</ele>
        <time>2023-09-17T09:51:53.424Z</time>
      </trkpt>
      <trkpt lat="43.77699" lon="1.45729">
        <ele>195.678214</ele>
        <time>2023-09-17T09:51:53.424Z</time>
      </trkpt>
      <trkpt lat="43.77695" lon="1.45734">
        <ele>195.655232</ele>
        <time>2023-09-17T09:51:54.424Z</time>
      </trkpt>
      <trkpt lat="43.77691" lon="1.45739">
        <ele>195.629865</ele>
        <time>2023-09-17T09:51:55.424Z</time>
      </trkpt>
      <trkpt lat="43.77691" lon="1.45739">
        <ele>195.629865</ele>
        <time>2023-09-17T09:51:55.424Z</time>
      </trkpt>
      <trkpt lat="43.77687" lon="1.45744">
        <ele>195.606665</ele>
        <time>2023-09-17T09:51:56.424Z</time>
      </trkpt>
      <trkpt lat="43.77687" lon="1.45744">
        <ele>195.606665</ele>
        <time>2023-09-17T09:51:56.424Z</time>
      </trkpt>
      <trkpt lat="43.77684" lon="1.45749">
        <ele>195.585956</ele>
        <time>2023-09-17T09:51:57.424Z</time>
      </trkpt>
      <trkpt lat="43.77684" lon="1.45749">
        <ele>195.585956</ele>
        <time>2023-09-17T09:51:57.424Z</time>
      </trkpt>
      <trkpt lat="43.77681" lon="1.45751">
        <ele>195.570119</ele>
        <time>2023-09-17T09:51:58.424Z</time>
      </trkpt>
      <trkpt lat="43.77678" lon="1.45756">
        <ele>195.551907</ele>
        <time>2023-09-17T09:51:59.424Z</time>
      </trkpt>
      <trkpt lat="43.77671" lon="1.45764">
        <ele>195.512989</ele>
        <time>2023-09-17T09:52:01.424Z</time>
      </trkpt>
      <trkpt lat="43.77671" lon="1.45764">
        <ele>195.512989</ele>
        <time>2023-09-17T09:52:01.424Z</time>
      </trkpt>
      <trkpt lat="43.77669" lon="1.45767">
        <ele>195.498331</ele>
        <time>2023-09-17T09:52:02.424Z</time>
      </trkpt>
      <trkpt lat="43.77669" lon="1.45767">
        <ele>195.498331</ele>
        <time>2023-09-17T09:52:02.424Z</time>
      </trkpt>
      <trkpt lat="43.77663" lon="1.45777">
        <ele>195.456571</ele>
        <time>2023-09-17T09:52:04.424Z</time>
      </trkpt>
      <trkpt lat="43.77663" lon="1.45777">
        <ele>195.456571</ele>
        <time>2023-09-17T09:52:04.424Z</time>
      </trkpt>
      <trkpt lat="43.77659" lon="1.45782">
        <ele>195.433141</ele>
        <time>2023-09-17T09:52:06.424Z</time>
      </trkpt>
      <trkpt lat="43.77659" lon="1.45782">
        <ele>195.433141</ele>
        <time>2023-09-17T09:52:06.424Z</time>
      </trkpt>
      <trkpt lat="43.77655" lon="1.45788">
        <ele>195.406661</ele>
        <time>2023-09-17T09:52:07.424Z</time>
      </trkpt>
      <trkpt lat="43.77655" lon="1.45788">
        <ele>195.406661</ele>
        <time>2023-09-17T09:52:07.424Z</time>
      </trkpt>
      <trkpt lat="43.77651" lon="1.45794">
        <ele>195.379723</ele>
        <time>2023-09-17T09:52:08.424Z</time>
      </trkpt>
      <trkpt lat="43.77648" lon="1.45799">
        <ele>195.35919</ele>
        <time>2023-09-17T09:52:09.424Z</time>
      </trkpt>
      <trkpt lat="43.77645" lon="1.45805">
        <ele>195.33605</ele>
        <time>2023-09-17T09:52:10.424Z</time>
      </trkpt>
      <trkpt lat="43.77644" lon="1.45813">
        <ele>195.311178</ele>
        <time>2023-09-17T09:52:11.424Z</time>
      </trkpt>
      <trkpt lat="43.77644" lon="1.45819">
        <ele>195.291753</ele>
        <time>2023-09-17T09:52:12.424Z</time>
      </trkpt>
      <trkpt lat="43.77646" lon="1.45823">
        <ele>195.296214</ele>
        <time>2023-09-17T09:52:13.424Z</time>
      </trkpt>
      <trkpt lat="43.77646" lon="1.45823">
        <ele>195.296214</ele>
        <time>2023-09-17T09:52:13.424Z</time>
      </trkpt>
      <trkpt lat="43.7765" lon="1.45828">
        <ele>195.341838</ele>
        <time>2023-09-17T09:52:15.424Z</time>
      </trkpt>
      <trkpt lat="43.77652" lon="1.45831">
        <ele>195.375719</ele>
        <time>2023-09-17T09:52:16.424Z</time>
      </trkpt>
      <trkpt lat="43.77652" lon="1.45831">
        <ele>195.375719</ele>
        <time>2023-09-17T09:52:16.424Z</time>
      </trkpt>
      <trkpt lat="43.7766" lon="1.45839">
        <ele>195.46008</ele>
        <time>2023-09-17T09:52:17.424Z</time>
      </trkpt>
      <trkpt lat="43.77663" lon="1.45842">
        <ele>195.495123</ele>
        <time>2023-09-17T09:52:18.424Z</time>
      </trkpt>
      <trkpt lat="43.77663" lon="1.45842">
        <ele>195.495123</ele>
        <time>2023-09-17T09:52:18.424Z</time>
      </trkpt>
      <trkpt lat="43.77667" lon="1.45846">
        <ele>195.534534</ele>
        <time>2023-09-17T09:52:19.424Z</time>
      </trkpt>
      <trkpt lat="43.77671" lon="1.45851">
        <ele>195.588212</ele>
        <time>2023-09-17T09:52:20.424Z</time>
      </trkpt>
      <trkpt lat="43.77671" lon="1.45851">
        <ele>195.588212</ele>
        <time>2023-09-17T09:52:20.424Z</time>
      </trkpt>
      <trkpt lat="43.77675" lon="1.45855">
        <ele>195.628966</ele>
        <time>2023-09-17T09:52:21.424Z</time>
      </trkpt>
      <trkpt lat="43.77678" lon="1.45859">
        <ele>195.66972</ele>
        <time>2023-09-17T09:52:22.424Z</time>
      </trkpt>
      <trkpt lat="43.7768" lon="1.45861">
        <ele>195.694988</ele>
        <time>2023-09-17T09:52:23.424Z</time>
      </trkpt>
      <trkpt lat="43.7768" lon="1.45861">
        <ele>195.694988</ele>
        <time>2023-09-17T09:52:23.424Z</time>
      </trkpt>
      <trkpt lat="43.77684" lon="1.45865">
        <ele>195.734077</ele>
        <time>2023-09-17T09:52:24.424Z</time>
      </trkpt>
      <trkpt lat="43.77684" lon="1.45865">
        <ele>195.734077</ele>
        <time>2023-09-17T09:52:24.424Z</time>
      </trkpt>
      <trkpt lat="43.77688" lon="1.45869">
        <ele>195.779551</ele>
        <time>2023-09-17T09:52:26.424Z</time>
      </trkpt>
      <trkpt lat="43.77688" lon="1.45869">
        <ele>195.779551</ele>
        <time>2023-09-17T09:52:26.424Z</time>
      </trkpt>
      <trkpt lat="43.77691" lon="1.45873">
        <ele>195.81501</ele>
        <time>2023-09-17T09:52:27.424Z</time>
      </trkpt>
      <trkpt lat="43.77691" lon="1.45873">
        <ele>195.81501</ele>
        <time>2023-09-17T09:52:27.424Z</time>
      </trkpt>
      <trkpt lat="43.77694" lon="1.45877">
        <ele>195.858556</ele>
        <time>2023-09-17T09:52:28.424Z</time>
      </trkpt>
      <trkpt lat="43.77694" lon="1.45877">
        <ele>195.858556</ele>
        <time>2023-09-17T09:52:28.424Z</time>
      </trkpt>
      <trkpt lat="43.77699" lon="1.45881">
        <ele>195.905772</ele>
        <time>2023-09-17T09:52:29.424Z</time>
      </trkpt>
      <trkpt lat="43.77699" lon="1.45881">
        <ele>195.905772</ele>
        <time>2023-09-17T09:52:29.424Z</time>
      </trkpt>
      <trkpt lat="43.77702" lon="1.45886">
        <ele>195.951396</ele>
        <time>2023-09-17T09:52:30.424Z</time>
      </trkpt>
      <trkpt lat="43.77702" lon="1.45886">
        <ele>195.951396</ele>
        <time>2023-09-17T09:52:30.424Z</time>
      </trkpt>
      <trkpt lat="43.77706" lon="1.4589">
        <ele>195.991599</ele>
        <time>2023-09-17T09:52:31.424Z</time>
      </trkpt>
      <trkpt lat="43.77712" lon="1.45897">
        <ele>196.06781</ele>
        <time>2023-09-17T09:52:33.424Z</time>
      </trkpt>
      <trkpt lat="43.77712" lon="1.45897">
        <ele>196.06781</ele>
        <time>2023-09-17T09:52:33.424Z</time>
      </trkpt>
      <trkpt lat="43.77715" lon="1.459">
        <ele>196.095066</ele>
        <time>2023-09-17T09:52:34.424Z</time>
      </trkpt>
      <trkpt lat="43.77715" lon="1.459">
        <ele>196.095066</ele>
        <time>2023-09-17T09:52:34.424Z</time>
      </trkpt>
      <trkpt lat="43.77718" lon="1.45903">
        <ele>196.134092</ele>
        <time>2023-09-17T09:52:35.424Z</time>
      </trkpt>
      <trkpt lat="43.77718" lon="1.45903">
        <ele>196.134092</ele>
        <time>2023-09-17T09:52:35.424Z</time>
      </trkpt>
      <trkpt lat="43.77721" lon="1.45907">
        <ele>196.174001</ele>
        <time>2023-09-17T09:52:36.424Z</time>
      </trkpt>
      <trkpt lat="43.77721" lon="1.45907">
        <ele>196.174001</ele>
        <time>2023-09-17T09:52:36.424Z</time>
      </trkpt>
      <trkpt lat="43.77726" lon="1.45912">
        <ele>196.223226</ele>
        <time>2023-09-17T09:52:38.424Z</time>
      </trkpt>
      <trkpt lat="43.77726" lon="1.45912">
        <ele>196.223226</ele>
        <time>2023-09-17T09:52:38.424Z</time>
      </trkpt>
      <trkpt lat="43.77729" lon="1.45916">
        <ele>196.265982</ele>
        <time>2023-09-17T09:52:39.424Z</time>
      </trkpt>
      <trkpt lat="43.77729" lon="1.45916">
        <ele>196.265982</ele>
        <time>2023-09-17T09:52:39.424Z</time>
      </trkpt>
      <trkpt lat="43.77733" lon="1.4592">
        <ele>196.309528</ele>
        <time>2023-09-17T09:52:40.424Z</time>
      </trkpt>
      <trkpt lat="43.77733" lon="1.4592">
        <ele>196.309528</ele>
        <time>2023-09-17T09:52:40.424Z</time>
      </trkpt>
      <trkpt lat="43.77737" lon="1.45924">
        <ele>196.353888</ele>
        <time>2023-09-17T09:52:41.424Z</time>
      </trkpt>
      <trkpt lat="43.77737" lon="1.45924">
        <ele>196.353888</ele>
        <time>2023-09-17T09:52:41.424Z</time>
      </trkpt>
      <trkpt lat="43.7774" lon="1.45928">
        <ele>196.388224</ele>
        <time>2023-09-17T09:52:42.424Z</time>
      </trkpt>
      <trkpt lat="43.7774" lon="1.45928">
        <ele>196.388224</ele>
        <time>2023-09-17T09:52:42.424Z</time>
      </trkpt>
      <trkpt lat="43.77742" lon="1.45932">
        <ele>196.418933</ele>
        <time>2023-09-17T09:52:44.424Z</time>
      </trkpt>
      <trkpt lat="43.77742" lon="1.45932">
        <ele>196.418933</ele>
        <time>2023-09-17T09:52:44.424Z</time>
      </trkpt>
      <trkpt lat="43.77743" lon="1.45937">
        <ele>196.451673</ele>
        <time>2023-09-17T09:52:44.424Z</time>
      </trkpt>
      <trkpt lat="43.77743" lon="1.4594">
        <ele>196.474803</ele>
        <time>2023-09-17T09:52:46.424Z</time>
      </trkpt>
      <trkpt lat="43.77743" lon="1.4594">
        <ele>196.474803</ele>
        <time>2023-09-17T09:52:46.424Z</time>
      </trkpt>
      <trkpt lat="43.77742" lon="1.45944">
        <ele>196.503679</ele>
        <time>2023-09-17T09:52:47.424Z</time>
      </trkpt>
      <trkpt lat="43.77737" lon="1.45953">
        <ele>196.573625</ele>
        <time>2023-09-17T09:52:49.424Z</time>
      </trkpt>
      <trkpt lat="43.77737" lon="1.45953">
        <ele>196.573625</ele>
        <time>2023-09-17T09:52:49.424Z</time>
      </trkpt>
      <trkpt lat="43.77734" lon="1.45957">
        <ele>196.610377</ele>
        <time>2023-09-17T09:52:50.424Z</time>
      </trkpt>
      <trkpt lat="43.77731" lon="1.45961">
        <ele>196.648237</ele>
        <time>2023-09-17T09:52:50.424Z</time>
      </trkpt>
      <trkpt lat="43.77731" lon="1.45961">
        <ele>196.648237</ele>
        <time>2023-09-17T09:52:50.424Z</time>
      </trkpt>
      <trkpt lat="43.77723" lon="1.4597">
        <ele>196.744243</ele>
        <time>2023-09-17T09:52:53.424Z</time>
      </trkpt>
      <trkpt lat="43.77723" lon="1.4597">
        <ele>196.744243</ele>
        <time>2023-09-17T09:52:53.424Z</time>
      </trkpt>
      <trkpt lat="43.7772" lon="1.45973">
        <ele>196.777693</ele>
        <time>2023-09-17T09:52:53.424Z</time>
      </trkpt>
      <trkpt lat="43.7772" lon="1.45973">
        <ele>196.777693</ele>
        <time>2023-09-17T09:52:53.424Z</time>
      </trkpt>
      <trkpt lat="43.77717" lon="1.45975">
        <ele>196.809799</ele>
        <time>2023-09-17T09:52:55.424Z</time>
      </trkpt>
      <trkpt lat="43.77717" lon="1.45975">
        <ele>196.809799</ele>
        <time>2023-09-17T09:52:55.424Z</time>
      </trkpt>
      <trkpt lat="43.77712" lon="1.45979">
        <ele>196.862878</ele>
        <time>2023-09-17T09:52:56.424Z</time>
      </trkpt>
      <trkpt lat="43.77712" lon="1.45979">
        <ele>196.862878</ele>
        <time>2023-09-17T09:52:56.424Z</time>
      </trkpt>
      <trkpt lat="43.77706" lon="1.45982">
        <ele>196.903366</ele>
        <time>2023-09-17T09:52:57.424Z</time>
      </trkpt>
      <trkpt lat="43.77706" lon="1.45982">
        <ele>196.903366</ele>
        <time>2023-09-17T09:52:57.424Z</time>
      </trkpt>
      <trkpt lat="43.77702" lon="1.45985">
        <ele>196.870021</ele>
        <time>2023-09-17T09:52:58.424Z</time>
      </trkpt>
      <trkpt lat="43.77702" lon="1.45985">
        <ele>196.870021</ele>
        <time>2023-09-17T09:52:58.424Z</time>
      </trkpt>
      <trkpt lat="43.77698" lon="1.45987">
        <ele>196.837547</ele>
        <time>2023-09-17T09:52:58.424Z</time>
      </trkpt>
      <trkpt lat="43.77693" lon="1.4599">
        <ele>196.801768</ele>
        <time>2023-09-17T09:53:00.424Z</time>
      </trkpt>
      <trkpt lat="43.77689" lon="1.45993">
        <ele>196.766182</ele>
        <time>2023-09-17T09:53:01.424Z</time>
      </trkpt>
      <trkpt lat="43.77684" lon="1.45995">
        <ele>196.730203</ele>
        <time>2023-09-17T09:53:01.424Z</time>
      </trkpt>
      <trkpt lat="43.7768" lon="1.45998">
        <ele>196.696858</ele>
        <time>2023-09-17T09:53:03.424Z</time>
      </trkpt>
      <trkpt lat="43.77675" lon="1.46001">
        <ele>196.658064</ele>
        <time>2023-09-17T09:53:04.424Z</time>
      </trkpt>
      <trkpt lat="43.77671" lon="1.46004">
        <ele>196.627768</ele>
        <time>2023-09-17T09:53:04.424Z</time>
      </trkpt>
      <trkpt lat="43.77667" lon="1.46007">
        <ele>196.590461</ele>
        <time>2023-09-17T09:53:05.424Z</time>
      </trkpt>
      <trkpt lat="43.77667" lon="1.46007">
        <ele>196.590461</ele>
        <time>2023-09-17T09:53:05.424Z</time>
      </trkpt>
      <trkpt lat="43.77661" lon="1.46011">
        <ele>196.546841</ele>
        <time>2023-09-17T09:53:07.424Z</time>
      </trkpt>
      <trkpt lat="43.77657" lon="1.46014">
        <ele>196.510172</ele>
        <time>2023-09-17T09:53:07.424Z</time>
      </trkpt>
      <trkpt lat="43.77657" lon="1.46014">
        <ele>196.510172</ele>
        <time>2023-09-17T09:53:07.424Z</time>
      </trkpt>
      <trkpt lat="43.77652" lon="1.46018">
        <ele>196.474602</ele>
        <time>2023-09-17T09:53:09.424Z</time>
      </trkpt>
      <trkpt lat="43.77647" lon="1.46022">
        <ele>196.429745</ele>
        <time>2023-09-17T09:53:10.424Z</time>
      </trkpt>
      <trkpt lat="43.77643" lon="1.46025">
        <ele>196.394175</ele>
        <time>2023-09-17T09:53:11.424Z</time>
      </trkpt>
      <trkpt lat="43.77643" lon="1.46025">
        <ele>196.394175</ele>
        <time>2023-09-17T09:53:11.424Z</time>
      </trkpt>
      <trkpt lat="43.77638" lon="1.4603">
        <ele>196.352948</ele>
        <time>2023-09-17T09:53:12.424Z</time>
      </trkpt>
      <trkpt lat="43.77633" lon="1.46033">
        <ele>196.314899</ele>
        <time>2023-09-17T09:53:13.424Z</time>
      </trkpt>
      <trkpt lat="43.77629" lon="1.46037">
        <ele>196.2796</ele>
        <time>2023-09-17T09:53:14.424Z</time>
      </trkpt>
      <trkpt lat="43.77629" lon="1.46037">
        <ele>196.2796</ele>
        <time>2023-09-17T09:53:14.424Z</time>
      </trkpt>
      <trkpt lat="43.77624" lon="1.46041">
        <ele>196.237755</ele>
        <time>2023-09-17T09:53:15.424Z</time>
      </trkpt>
      <trkpt lat="43.77619" lon="1.46044">
        <ele>196.197564</ele>
        <time>2023-09-17T09:53:16.424Z</time>
      </trkpt>
      <trkpt lat="43.77614" lon="1.46049">
        <ele>196.155718</ele>
        <time>2023-09-17T09:53:17.424Z</time>
      </trkpt>
      <trkpt lat="43.77609" lon="1.46052">
        <ele>196.112498</ele>
        <time>2023-09-17T09:53:18.424Z</time>
      </trkpt>
      <trkpt lat="43.77605" lon="1.46056">
        <ele>196.079634</ele>
        <time>2023-09-17T09:53:19.424Z</time>
      </trkpt>
      <trkpt lat="43.77605" lon="1.46056">
        <ele>196.079634</ele>
        <time>2023-09-17T09:53:19.424Z</time>
      </trkpt>
      <trkpt lat="43.776" lon="1.4606">
        <ele>196.037249</ele>
        <time>2023-09-17T09:53:20.424Z</time>
      </trkpt>
      <trkpt lat="43.776" lon="1.4606">
        <ele>196.037249</ele>
        <time>2023-09-17T09:53:20.424Z</time>
      </trkpt>
      <trkpt lat="43.77596" lon="1.46064">
        <ele>196.00195</ele>
        <time>2023-09-17T09:53:20.424Z</time>
      </trkpt>
      <trkpt lat="43.77591" lon="1.46068">
        <ele>195.960367</ele>
        <time>2023-09-17T09:53:22.424Z</time>
      </trkpt>
      <trkpt lat="43.77591" lon="1.46068">
        <ele>195.960367</ele>
        <time>2023-09-17T09:53:22.424Z</time>
      </trkpt>
      <trkpt lat="43.77587" lon="1.46071">
        <ele>195.925847</ele>
        <time>2023-09-17T09:53:23.424Z</time>
      </trkpt>
      <trkpt lat="43.77581" lon="1.46076">
        <ele>195.875828</ele>
        <time>2023-09-17T09:53:23.424Z</time>
      </trkpt>
      <trkpt lat="43.77581" lon="1.46076">
        <ele>195.875828</ele>
        <time>2023-09-17T09:53:23.424Z</time>
      </trkpt>
      <trkpt lat="43.77577" lon="1.46079">
        <ele>195.843249</ele>
        <time>2023-09-17T09:53:25.424Z</time>
      </trkpt>
      <trkpt lat="43.77572" lon="1.46084">
        <ele>195.798205</ele>
        <time>2023-09-17T09:53:26.424Z</time>
      </trkpt>
      <trkpt lat="43.77567" lon="1.46088">
        <ele>195.757346</ele>
        <time>2023-09-17T09:53:27.424Z</time>
      </trkpt>
      <trkpt lat="43.77563" lon="1.46092">
        <ele>195.720342</ele>
        <time>2023-09-17T09:53:28.424Z</time>
      </trkpt>
      <trkpt lat="43.77563" lon="1.46092">
        <ele>195.720342</ele>
        <time>2023-09-17T09:53:28.424Z</time>
      </trkpt>
      <trkpt lat="43.77559" lon="1.46097">
        <ele>195.679772</ele>
        <time>2023-09-17T09:53:29.424Z</time>
      </trkpt>
      <trkpt lat="43.77559" lon="1.46097">
        <ele>195.679772</ele>
        <time>2023-09-17T09:53:29.424Z</time>
      </trkpt>
      <trkpt lat="43.77556" lon="1.46101">
        <ele>195.653295</ele>
        <time>2023-09-17T09:53:30.424Z</time>
      </trkpt>
      <trkpt lat="43.77556" lon="1.46101">
        <ele>195.653295</ele>
        <time>2023-09-17T09:53:30.424Z</time>
      </trkpt>
      <trkpt lat="43.77551" lon="1.46108">
        <ele>195.610647</ele>
        <time>2023-09-17T09:53:31.424Z</time>
      </trkpt>
      <trkpt lat="43.77551" lon="1.46108">
        <ele>195.610647</ele>
        <time>2023-09-17T09:53:31.424Z</time>
      </trkpt>
      <trkpt lat="43.77547" lon="1.46114">
        <ele>195.602539</ele>
        <time>2023-09-17T09:53:32.424Z</time>
      </trkpt>
      <trkpt lat="43.77544" lon="1.4612">
        <ele>195.594247</ele>
        <time>2023-09-17T09:53:33.424Z</time>
      </trkpt>
      <trkpt lat="43.77544" lon="1.4612">
        <ele>195.594247</ele>
        <time>2023-09-17T09:53:33.424Z</time>
      </trkpt>
      <trkpt lat="43.7754" lon="1.46127">
        <ele>195.585082</ele>
        <time>2023-09-17T09:53:34.424Z</time>
      </trkpt>
      <trkpt lat="43.7754" lon="1.46127">
        <ele>195.585082</ele>
        <time>2023-09-17T09:53:34.424Z</time>
      </trkpt>
      <trkpt lat="43.77537" lon="1.46133">
        <ele>195.576903</ele>
        <time>2023-09-17T09:53:35.424Z</time>
      </trkpt>
      <trkpt lat="43.77535" lon="1.46138">
        <ele>195.569349</ele>
        <time>2023-09-17T09:53:36.424Z</time>
      </trkpt>
      <trkpt lat="43.77531" lon="1.46145">
        <ele>195.560095</ele>
        <time>2023-09-17T09:53:37.424Z</time>
      </trkpt>
      <trkpt lat="43.7753" lon="1.46148">
        <ele>195.556756</ele>
        <time>2023-09-17T09:53:37.424Z</time>
      </trkpt>
      <trkpt lat="43.7753" lon="1.46148">
        <ele>195.556756</ele>
        <time>2023-09-17T09:53:37.424Z</time>
      </trkpt>
      <trkpt lat="43.77525" lon="1.46157">
        <ele>195.543988</ele>
        <time>2023-09-17T09:53:39.424Z</time>
      </trkpt>
      <trkpt lat="43.77525" lon="1.46157">
        <ele>195.543988</ele>
        <time>2023-09-17T09:53:39.424Z</time>
      </trkpt>
      <trkpt lat="43.77522" lon="1.46164">
        <ele>195.535626</ele>
        <time>2023-09-17T09:53:40.424Z</time>
      </trkpt>
      <trkpt lat="43.7752" lon="1.46169">
        <ele>195.527979</ele>
        <time>2023-09-17T09:53:41.424Z</time>
      </trkpt>
      <trkpt lat="43.7752" lon="1.46169">
        <ele>195.527979</ele>
        <time>2023-09-17T09:53:41.424Z</time>
      </trkpt>
      <trkpt lat="43.77517" lon="1.46175">
        <ele>195.519891</ele>
        <time>2023-09-17T09:53:41.424Z</time>
      </trkpt>
      <trkpt lat="43.77514" lon="1.46181">
        <ele>195.513134</ele>
        <time>2023-09-17T09:53:43.424Z</time>
      </trkpt>
      <trkpt lat="43.77514" lon="1.46181">
        <ele>195.513134</ele>
        <time>2023-09-17T09:53:43.424Z</time>
      </trkpt>
      <trkpt lat="43.77511" lon="1.46187">
        <ele>195.50397</ele>
        <time>2023-09-17T09:53:44.424Z</time>
      </trkpt>
      <trkpt lat="43.77507" lon="1.46193">
        <ele>195.495518</ele>
        <time>2023-09-17T09:53:45.424Z</time>
      </trkpt>
      <trkpt lat="43.77507" lon="1.46193">
        <ele>195.495518</ele>
        <time>2023-09-17T09:53:45.424Z</time>
      </trkpt>
      <trkpt lat="43.77504" lon="1.46199">
        <ele>195.48788</ele>
        <time>2023-09-17T09:53:46.424Z</time>
      </trkpt>
      <trkpt lat="43.77501" lon="1.46205">
        <ele>195.478934</ele>
        <time>2023-09-17T09:53:47.424Z</time>
      </trkpt>
      <trkpt lat="43.77499" lon="1.46207">
        <ele>195.475581</ele>
        <time>2023-09-17T09:53:48.424Z</time>
      </trkpt>
      <trkpt lat="43.77493" lon="1.46216">
        <ele>195.461902</ele>
        <time>2023-09-17T09:53:49.424Z</time>
      </trkpt>
      <trkpt lat="43.77489" lon="1.46222">
        <ele>195.453031</ele>
        <time>2023-09-17T09:53:50.424Z</time>
      </trkpt>
      <trkpt lat="43.77489" lon="1.46222">
        <ele>195.453031</ele>
        <time>2023-09-17T09:53:50.424Z</time>
      </trkpt>
      <trkpt lat="43.77485" lon="1.46227">
        <ele>195.44416</ele>
        <time>2023-09-17T09:53:51.424Z</time>
      </trkpt>
      <trkpt lat="43.77481" lon="1.46232">
        <ele>195.436192</ele>
        <time>2023-09-17T09:53:52.424Z</time>
      </trkpt>
      <trkpt lat="43.77481" lon="1.46232">
        <ele>195.436192</ele>
        <time>2023-09-17T09:53:52.424Z</time>
      </trkpt>
      <trkpt lat="43.77477" lon="1.46237">
        <ele>195.427836</ele>
        <time>2023-09-17T09:53:53.424Z</time>
      </trkpt>
      <trkpt lat="43.77477" lon="1.46237">
        <ele>195.427836</ele>
        <time>2023-09-17T09:53:53.424Z</time>
      </trkpt>
      <trkpt lat="43.77475" lon="1.46241">
        <ele>195.422833</ele>
        <time>2023-09-17T09:53:54.424Z</time>
      </trkpt>
      <trkpt lat="43.77469" lon="1.46248">
        <ele>195.410964</ele>
        <time>2023-09-17T09:53:55.424Z</time>
      </trkpt>
      <trkpt lat="43.77469" lon="1.46248">
        <ele>195.410964</ele>
        <time>2023-09-17T09:53:55.424Z</time>
      </trkpt>
      <trkpt lat="43.77465" lon="1.46254">
        <ele>195.402181</ele>
        <time>2023-09-17T09:53:56.424Z</time>
      </trkpt>
      <trkpt lat="43.77462" lon="1.4626">
        <ele>195.393584</ele>
        <time>2023-09-17T09:53:57.424Z</time>
      </trkpt>
      <trkpt lat="43.77462" lon="1.4626">
        <ele>195.393584</ele>
        <time>2023-09-17T09:53:57.424Z</time>
      </trkpt>
      <trkpt lat="43.7746" lon="1.46263">
        <ele>195.389631</ele>
        <time>2023-09-17T09:53:58.424Z</time>
      </trkpt>
      <trkpt lat="43.77455" lon="1.46272">
        <ele>195.376589</ele>
        <time>2023-09-17T09:53:59.424Z</time>
      </trkpt>
      <trkpt lat="43.77455" lon="1.46272">
        <ele>195.376589</ele>
        <time>2023-09-17T09:53:59.424Z</time>
      </trkpt>
      <trkpt lat="43.77452" lon="1.46278">
        <ele>195.368413</ele>
        <time>2023-09-17T09:54:00.424Z</time>
      </trkpt>
      <trkpt lat="43.77452" lon="1.46278">
        <ele>195.368413</ele>
        <time>2023-09-17T09:54:00.424Z</time>
      </trkpt>
      <trkpt lat="43.77448" lon="1.46284">
        <ele>195.360305</ele>
        <time>2023-09-17T09:54:01.424Z</time>
      </trkpt>
      <trkpt lat="43.77448" lon="1.46284">
        <ele>195.360305</ele>
        <time>2023-09-17T09:54:01.424Z</time>
      </trkpt>
      <trkpt lat="43.77445" lon="1.4629">
        <ele>195.351497</ele>
        <time>2023-09-17T09:54:02.424Z</time>
      </trkpt>
      <trkpt lat="43.77442" lon="1.46296">
        <ele>195.3435</ele>
        <time>2023-09-17T09:54:03.424Z</time>
      </trkpt>
      <trkpt lat="43.77439" lon="1.46302">
        <ele>195.360399</ele>
        <time>2023-09-17T09:54:04.424Z</time>
      </trkpt>
      <trkpt lat="43.77437" lon="1.46305">
        <ele>195.399433</ele>
        <time>2023-09-17T09:54:05.424Z</time>
      </trkpt>
      <trkpt lat="43.77437" lon="1.46305">
        <ele>195.399433</ele>
        <time>2023-09-17T09:54:05.424Z</time>
      </trkpt>
      <trkpt lat="43.77432" lon="1.46313">
        <ele>195.503549</ele>
        <time>2023-09-17T09:54:06.424Z</time>
      </trkpt>
      <trkpt lat="43.77429" lon="1.46319">
        <ele>195.572705</ele>
        <time>2023-09-17T09:54:07.424Z</time>
      </trkpt>
      <trkpt lat="43.77429" lon="1.46319">
        <ele>195.572705</ele>
        <time>2023-09-17T09:54:07.424Z</time>
      </trkpt>
      <trkpt lat="43.77429" lon="1.46325">
        <ele>195.630671</ele>
        <time>2023-09-17T09:54:08.424Z</time>
      </trkpt>
      <trkpt lat="43.77429" lon="1.46325">
        <ele>195.630671</ele>
        <time>2023-09-17T09:54:08.424Z</time>
      </trkpt>
      <trkpt lat="43.7743" lon="1.46328">
        <ele>195.66769</ele>
        <time>2023-09-17T09:54:09.424Z</time>
      </trkpt>
      <trkpt lat="43.7743" lon="1.46328">
        <ele>195.66769</ele>
        <time>2023-09-17T09:54:09.424Z</time>
      </trkpt>
      <trkpt lat="43.77433" lon="1.46336">
        <ele>195.755868</ele>
        <time>2023-09-17T09:54:10.424Z</time>
      </trkpt>
      <trkpt lat="43.77433" lon="1.46336">
        <ele>195.755868</ele>
        <time>2023-09-17T09:54:10.424Z</time>
      </trkpt>
      <trkpt lat="43.77437" lon="1.46342">
        <ele>195.832477</ele>
        <time>2023-09-17T09:54:11.424Z</time>
      </trkpt>
      <trkpt lat="43.77437" lon="1.46342">
        <ele>195.832477</ele>
        <time>2023-09-17T09:54:11.424Z</time>
      </trkpt>
      <trkpt lat="43.7744" lon="1.46347">
        <ele>195.896942</ele>
        <time>2023-09-17T09:54:12.424Z</time>
      </trkpt>
      <trkpt lat="43.7744" lon="1.46347">
        <ele>195.896942</ele>
        <time>2023-09-17T09:54:12.424Z</time>
      </trkpt>
      <trkpt lat="43.77444" lon="1.46353">
        <ele>195.971403</ele>
        <time>2023-09-17T09:54:12.424Z</time>
      </trkpt>
      <trkpt lat="43.77444" lon="1.46353">
        <ele>195.971403</ele>
        <time>2023-09-17T09:54:12.424Z</time>
      </trkpt>
      <trkpt lat="43.77448" lon="1.46358">
        <ele>196.052446</ele>
        <time>2023-09-17T09:54:14.424Z</time>
      </trkpt>
      <trkpt lat="43.77451" lon="1.46364">
        <ele>196.121066</ele>
        <time>2023-09-17T09:54:15.424Z</time>
      </trkpt>
      <trkpt lat="43.77451" lon="1.46364">
        <ele>196.121066</ele>
        <time>2023-09-17T09:54:15.424Z</time>
      </trkpt>
      <trkpt lat="43.77455" lon="1.46369">
        <ele>196.192778</ele>
        <time>2023-09-17T09:54:16.424Z</time>
      </trkpt>
      <trkpt lat="43.77457" lon="1.46372">
        <ele>196.235998</ele>
        <time>2023-09-17T09:54:16.424Z</time>
      </trkpt>
      <trkpt lat="43.77457" lon="1.46372">
        <ele>196.235998</ele>
        <time>2023-09-17T09:54:16.424Z</time>
      </trkpt>
      <trkpt lat="43.77463" lon="1.46381">
        <ele>196.348982</ele>
        <time>2023-09-17T09:54:18.424Z</time>
      </trkpt>
      <trkpt lat="43.77467" lon="1.46386">
        <ele>196.420667</ele>
        <time>2023-09-17T09:54:19.424Z</time>
      </trkpt>
      <trkpt lat="43.77467" lon="1.46386">
        <ele>196.420667</ele>
        <time>2023-09-17T09:54:19.424Z</time>
      </trkpt>
      <trkpt lat="43.7747" lon="1.46391">
        <ele>196.491674</ele>
        <time>2023-09-17T09:54:20.424Z</time>
      </trkpt>
      <trkpt lat="43.77474" lon="1.46395">
        <ele>196.556065</ele>
        <time>2023-09-17T09:54:21.424Z</time>
      </trkpt>
      <trkpt lat="43.77474" lon="1.46395">
        <ele>196.556065</ele>
        <time>2023-09-17T09:54:21.424Z</time>
      </trkpt>
      <trkpt lat="43.77478" lon="1.46401">
        <ele>196.63437</ele>
        <time>2023-09-17T09:54:22.424Z</time>
      </trkpt>
      <trkpt lat="43.77482" lon="1.46406">
        <ele>196.704625</ele>
        <time>2023-09-17T09:54:23.424Z</time>
      </trkpt>
      <trkpt lat="43.77485" lon="1.46412">
        <ele>196.774414</ele>
        <time>2023-09-17T09:54:24.424Z</time>
      </trkpt>
      <trkpt lat="43.77485" lon="1.46412">
        <ele>196.774414</ele>
        <time>2023-09-17T09:54:24.424Z</time>
      </trkpt>
      <trkpt lat="43.77488" lon="1.46418">
        <ele>196.845</ele>
        <time>2023-09-17T09:54:25.424Z</time>
      </trkpt>
      <trkpt lat="43.77488" lon="1.46418">
        <ele>196.845</ele>
        <time>2023-09-17T09:54:25.424Z</time>
      </trkpt>
      <trkpt lat="43.77491" lon="1.46424">
        <ele>196.918076</ele>
        <time>2023-09-17T09:54:26.424Z</time>
      </trkpt>
      <trkpt lat="43.77494" lon="1.46429">
        <ele>196.985558</ele>
        <time>2023-09-17T09:54:27.424Z</time>
      </trkpt>
      <trkpt lat="43.77494" lon="1.46429">
        <ele>196.985558</ele>
        <time>2023-09-17T09:54:27.424Z</time>
      </trkpt>
      <trkpt lat="43.77498" lon="1.46435">
        <ele>197.058634</ele>
        <time>2023-09-17T09:54:28.424Z</time>
      </trkpt>
      <trkpt lat="43.77501" lon="1.4644">
        <ele>197.120733</ele>
        <time>2023-09-17T09:54:29.424Z</time>
      </trkpt>
      <trkpt lat="43.77501" lon="1.4644">
        <ele>197.120733</ele>
        <time>2023-09-17T09:54:29.424Z</time>
      </trkpt>
      <trkpt lat="43.77504" lon="1.46445">
        <ele>197.19318</ele>
        <time>2023-09-17T09:54:30.424Z</time>
      </trkpt>
      <trkpt lat="43.77507" lon="1.4645">
        <ele>197.256771</ele>
        <time>2023-09-17T09:54:31.424Z</time>
      </trkpt>
      <trkpt lat="43.77507" lon="1.4645">
        <ele>197.256771</ele>
        <time>2023-09-17T09:54:31.424Z</time>
      </trkpt>
      <trkpt lat="43.7751" lon="1.46455">
        <ele>197.316288</ele>
        <time>2023-09-17T09:54:32.424Z</time>
      </trkpt>
      <trkpt lat="43.7751" lon="1.46455">
        <ele>197.316288</ele>
        <time>2023-09-17T09:54:32.424Z</time>
      </trkpt>
      <trkpt lat="43.77513" lon="1.4646">
        <ele>197.382935</ele>
        <time>2023-09-17T09:54:33.424Z</time>
      </trkpt>
      <trkpt lat="43.77516" lon="1.46466">
        <ele>197.449653</ele>
        <time>2023-09-17T09:54:34.424Z</time>
      </trkpt>
      <trkpt lat="43.77519" lon="1.46471">
        <ele>197.51552</ele>
        <time>2023-09-17T09:54:35.424Z</time>
      </trkpt>
      <trkpt lat="43.77521" lon="1.46477">
        <ele>197.578539</ele>
        <time>2023-09-17T09:54:36.424Z</time>
      </trkpt>
      <trkpt lat="43.77521" lon="1.46477">
        <ele>197.578539</ele>
        <time>2023-09-17T09:54:36.424Z</time>
      </trkpt>
      <trkpt lat="43.77523" lon="1.46482">
        <ele>197.638178</ele>
        <time>2023-09-17T09:54:37.424Z</time>
      </trkpt>
      <trkpt lat="43.77523" lon="1.46482">
        <ele>197.638178</ele>
        <time>2023-09-17T09:54:37.424Z</time>
      </trkpt>
      <trkpt lat="43.77525" lon="1.46489">
        <ele>197.7095</ele>
        <time>2023-09-17T09:54:38.424Z</time>
      </trkpt>
      <trkpt lat="43.77525" lon="1.46489">
        <ele>197.7095</ele>
        <time>2023-09-17T09:54:38.424Z</time>
      </trkpt>
      <trkpt lat="43.77526" lon="1.46496">
        <ele>197.773852</ele>
        <time>2023-09-17T09:54:39.424Z</time>
      </trkpt>
      <trkpt lat="43.77527" lon="1.46501">
        <ele>197.66712</ele>
        <time>2023-09-17T09:54:40.424Z</time>
      </trkpt>
      <trkpt lat="43.77526" lon="1.46508">
        <ele>197.541974</ele>
        <time>2023-09-17T09:54:41.424Z</time>
      </trkpt>
      <trkpt lat="43.77525" lon="1.46515">
        <ele>197.420681</ele>
        <time>2023-09-17T09:54:42.424Z</time>
      </trkpt>
      <trkpt lat="43.77525" lon="1.46515">
        <ele>197.420681</ele>
        <time>2023-09-17T09:54:42.424Z</time>
      </trkpt>
      <trkpt lat="43.77523" lon="1.4652">
        <ele>197.312698</ele>
        <time>2023-09-17T09:54:43.424Z</time>
      </trkpt>
      <trkpt lat="43.77521" lon="1.46527">
        <ele>197.18507</ele>
        <time>2023-09-17T09:54:44.424Z</time>
      </trkpt>
      <trkpt lat="43.77521" lon="1.46527">
        <ele>197.18507</ele>
        <time>2023-09-17T09:54:44.424Z</time>
      </trkpt>
      <trkpt lat="43.77519" lon="1.46533">
        <ele>197.060658</ele>
        <time>2023-09-17T09:54:45.424Z</time>
      </trkpt>
      <trkpt lat="43.77517" lon="1.46538">
        <ele>196.952058</ele>
        <time>2023-09-17T09:54:46.424Z</time>
      </trkpt>
      <trkpt lat="43.77514" lon="1.46545">
        <ele>196.811349</ele>
        <time>2023-09-17T09:54:47.424Z</time>
      </trkpt>
      <trkpt lat="43.77512" lon="1.46551">
        <ele>196.691718</ele>
        <time>2023-09-17T09:54:48.424Z</time>
      </trkpt>
      <trkpt lat="43.77512" lon="1.46551">
        <ele>196.691718</ele>
        <time>2023-09-17T09:54:48.424Z</time>
      </trkpt>
      <trkpt lat="43.77509" lon="1.46558">
        <ele>196.554577</ele>
        <time>2023-09-17T09:54:49.424Z</time>
      </trkpt>
      <trkpt lat="43.77509" lon="1.46558">
        <ele>196.554577</ele>
        <time>2023-09-17T09:54:49.424Z</time>
      </trkpt>
      <trkpt lat="43.77506" lon="1.46563">
        <ele>196.431399</ele>
        <time>2023-09-17T09:54:50.424Z</time>
      </trkpt>
      <trkpt lat="43.77502" lon="1.46569">
        <ele>196.290739</ele>
        <time>2023-09-17T09:54:51.424Z</time>
      </trkpt>
      <trkpt lat="43.77502" lon="1.46569">
        <ele>196.290739</ele>
        <time>2023-09-17T09:54:51.424Z</time>
      </trkpt>
      <trkpt lat="43.77499" lon="1.46574">
        <ele>196.163912</ele>
        <time>2023-09-17T09:54:52.424Z</time>
      </trkpt>
      <trkpt lat="43.77495" lon="1.46579">
        <ele>196.021646</ele>
        <time>2023-09-17T09:54:53.424Z</time>
      </trkpt>
      <trkpt lat="43.77495" lon="1.46579">
        <ele>196.021646</ele>
        <time>2023-09-17T09:54:53.424Z</time>
      </trkpt>
      <trkpt lat="43.7749" lon="1.46585">
        <ele>195.8671</ele>
        <time>2023-09-17T09:54:54.424Z</time>
      </trkpt>
      <trkpt lat="43.7749" lon="1.46585">
        <ele>195.8671</ele>
        <time>2023-09-17T09:54:54.424Z</time>
      </trkpt>
      <trkpt lat="43.77487" lon="1.4659">
        <ele>195.73757</ele>
        <time>2023-09-17T09:54:55.424Z</time>
      </trkpt>
      <trkpt lat="43.77487" lon="1.4659">
        <ele>195.73757</ele>
        <time>2023-09-17T09:54:55.424Z</time>
      </trkpt>
      <trkpt lat="43.77483" lon="1.46596">
        <ele>195.592843</ele>
        <time>2023-09-17T09:54:56.424Z</time>
      </trkpt>
      <trkpt lat="43.77483" lon="1.46596">
        <ele>195.592843</ele>
        <time>2023-09-17T09:54:56.424Z</time>
      </trkpt>
      <trkpt lat="43.77478" lon="1.46602">
        <ele>195.441763</ele>
        <time>2023-09-17T09:54:57.424Z</time>
      </trkpt>
      <trkpt lat="43.77478" lon="1.46602">
        <ele>195.441763</ele>
        <time>2023-09-17T09:54:57.424Z</time>
      </trkpt>
      <trkpt lat="43.77475" lon="1.46607">
        <ele>195.304142</ele>
        <time>2023-09-17T09:54:58.424Z</time>
      </trkpt>
      <trkpt lat="43.77475" lon="1.46607">
        <ele>195.304142</ele>
        <time>2023-09-17T09:54:58.424Z</time>
      </trkpt>
      <trkpt lat="43.7747" lon="1.46613">
        <ele>195.151758</ele>
        <time>2023-09-17T09:54:59.424Z</time>
      </trkpt>
      <trkpt lat="43.7747" lon="1.46613">
        <ele>195.151758</ele>
        <time>2023-09-17T09:54:59.424Z</time>
      </trkpt>
      <trkpt lat="43.77466" lon="1.46619">
        <ele>195.005784</ele>
        <time>2023-09-17T09:55:00.424Z</time>
      </trkpt>
      <trkpt lat="43.77466" lon="1.46619">
        <ele>195.005784</ele>
        <time>2023-09-17T09:55:00.424Z</time>
      </trkpt>
      <trkpt lat="43.77463" lon="1.46624">
        <ele>194.874886</ele>
        <time>2023-09-17T09:55:01.424Z</time>
      </trkpt>
      <trkpt lat="43.77463" lon="1.46624">
        <ele>194.874886</ele>
        <time>2023-09-17T09:55:01.424Z</time>
      </trkpt>
      <trkpt lat="43.77459" lon="1.4663">
        <ele>194.734629</ele>
        <time>2023-09-17T09:55:02.424Z</time>
      </trkpt>
      <trkpt lat="43.77459" lon="1.4663">
        <ele>194.734629</ele>
        <time>2023-09-17T09:55:02.424Z</time>
      </trkpt>
      <trkpt lat="43.77455" lon="1.46636">
        <ele>194.587394</ele>
        <time>2023-09-17T09:55:03.424Z</time>
      </trkpt>
      <trkpt lat="43.77455" lon="1.46636">
        <ele>194.587394</ele>
        <time>2023-09-17T09:55:03.424Z</time>
      </trkpt>
      <trkpt lat="43.77451" lon="1.46641">
        <ele>194.449314</ele>
        <time>2023-09-17T09:55:04.424Z</time>
      </trkpt>
      <trkpt lat="43.77451" lon="1.46641">
        <ele>194.449314</ele>
        <time>2023-09-17T09:55:04.424Z</time>
      </trkpt>
      <trkpt lat="43.77448" lon="1.46646">
        <ele>194.322487</ele>
        <time>2023-09-17T09:55:05.424Z</time>
      </trkpt>
      <trkpt lat="43.77448" lon="1.46646">
        <ele>194.322487</ele>
        <time>2023-09-17T09:55:05.424Z</time>
      </trkpt>
      <trkpt lat="43.77444" lon="1.46651">
        <ele>194.196994</ele>
        <time>2023-09-17T09:55:06.424Z</time>
      </trkpt>
      <trkpt lat="43.77444" lon="1.46651">
        <ele>194.196994</ele>
        <time>2023-09-17T09:55:06.424Z</time>
      </trkpt>
      <trkpt lat="43.77441" lon="1.46657">
        <ele>194.068473</ele>
        <time>2023-09-17T09:55:07.424Z</time>
      </trkpt>
      <trkpt lat="43.77441" lon="1.46657">
        <ele>194.068473</ele>
        <time>2023-09-17T09:55:07.424Z</time>
      </trkpt>
      <trkpt lat="43.77437" lon="1.46662">
        <ele>193.937233</ele>
        <time>2023-09-17T09:55:08.424Z</time>
      </trkpt>
      <trkpt lat="43.77437" lon="1.46662">
        <ele>193.937233</ele>
        <time>2023-09-17T09:55:08.424Z</time>
      </trkpt>
      <trkpt lat="43.77433" lon="1.46667">
        <ele>193.804956</ele>
        <time>2023-09-17T09:55:09.424Z</time>
      </trkpt>
      <trkpt lat="43.7743" lon="1.46673">
        <ele>193.67129</ele>
        <time>2023-09-17T09:55:10.424Z</time>
      </trkpt>
      <trkpt lat="43.77427" lon="1.46679">
        <ele>193.533242</ele>
        <time>2023-09-17T09:55:11.424Z</time>
      </trkpt>
      <trkpt lat="43.77423" lon="1.46684">
        <ele>193.410381</ele>
        <time>2023-09-17T09:55:12.424Z</time>
      </trkpt>
      <trkpt lat="43.77423" lon="1.46684">
        <ele>193.410381</ele>
        <time>2023-09-17T09:55:12.424Z</time>
      </trkpt>
      <trkpt lat="43.77419" lon="1.46689">
        <ele>193.276625</ele>
        <time>2023-09-17T09:55:13.424Z</time>
      </trkpt>
      <trkpt lat="43.77419" lon="1.46689">
        <ele>193.276625</ele>
        <time>2023-09-17T09:55:13.424Z</time>
      </trkpt>
      <trkpt lat="43.77415" lon="1.46694">
        <ele>193.288558</ele>
        <time>2023-09-17T09:55:14.424Z</time>
      </trkpt>
      <trkpt lat="43.77415" lon="1.46694">
        <ele>193.288558</ele>
        <time>2023-09-17T09:55:14.424Z</time>
      </trkpt>
      <trkpt lat="43.77412" lon="1.46699">
        <ele>193.304645</ele>
        <time>2023-09-17T09:55:15.424Z</time>
      </trkpt>
      <trkpt lat="43.77412" lon="1.46699">
        <ele>193.304645</ele>
        <time>2023-09-17T09:55:15.424Z</time>
      </trkpt>
      <trkpt lat="43.77408" lon="1.46704">
        <ele>193.322426</ele>
        <time>2023-09-17T09:55:16.424Z</time>
      </trkpt>
      <trkpt lat="43.77405" lon="1.4671">
        <ele>193.33868</ele>
        <time>2023-09-17T09:55:17.424Z</time>
      </trkpt>
      <trkpt lat="43.77405" lon="1.4671">
        <ele>193.33868</ele>
        <time>2023-09-17T09:55:17.424Z</time>
      </trkpt>
      <trkpt lat="43.77401" lon="1.46716">
        <ele>193.357608</ele>
        <time>2023-09-17T09:55:18.424Z</time>
      </trkpt>
      <trkpt lat="43.774" lon="1.46723">
        <ele>193.373579</ele>
        <time>2023-09-17T09:55:19.424Z</time>
      </trkpt>
      <trkpt lat="43.774" lon="1.46723">
        <ele>193.373579</ele>
        <time>2023-09-17T09:55:19.424Z</time>
      </trkpt>
      <trkpt lat="43.77399" lon="1.46729">
        <ele>193.390012</ele>
        <time>2023-09-17T09:55:20.424Z</time>
      </trkpt>
      <trkpt lat="43.77399" lon="1.46729">
        <ele>193.390012</ele>
        <time>2023-09-17T09:55:20.424Z</time>
      </trkpt>
      <trkpt lat="43.77398" lon="1.46736">
        <ele>193.405396</ele>
        <time>2023-09-17T09:55:21.424Z</time>
      </trkpt>
      <trkpt lat="43.77398" lon="1.46742">
        <ele>193.420016</ele>
        <time>2023-09-17T09:55:22.424Z</time>
      </trkpt>
      <trkpt lat="43.77398" lon="1.46742">
        <ele>193.420016</ele>
        <time>2023-09-17T09:55:22.424Z</time>
      </trkpt>
      <trkpt lat="43.77399" lon="1.46748">
        <ele>193.433247</ele>
        <time>2023-09-17T09:55:23.424Z</time>
      </trkpt>
      <trkpt lat="43.77399" lon="1.46748">
        <ele>193.433247</ele>
        <time>2023-09-17T09:55:23.424Z</time>
      </trkpt>
      <trkpt lat="43.774" lon="1.46754">
        <ele>193.447579</ele>
        <time>2023-09-17T09:55:24.424Z</time>
      </trkpt>
      <trkpt lat="43.774" lon="1.46754">
        <ele>193.447579</ele>
        <time>2023-09-17T09:55:24.424Z</time>
      </trkpt>
      <trkpt lat="43.77401" lon="1.46759">
        <ele>193.46158</ele>
        <time>2023-09-17T09:55:25.424Z</time>
      </trkpt>
      <trkpt lat="43.77401" lon="1.46759">
        <ele>193.46158</ele>
        <time>2023-09-17T09:55:25.424Z</time>
      </trkpt>
      <trkpt lat="43.77402" lon="1.46764">
        <ele>193.474132</ele>
        <time>2023-09-17T09:55:26.424Z</time>
      </trkpt>
      <trkpt lat="43.77402" lon="1.46764">
        <ele>193.474132</ele>
        <time>2023-09-17T09:55:26.424Z</time>
      </trkpt>
      <trkpt lat="43.77403" lon="1.46769">
        <ele>193.485519</ele>
        <time>2023-09-17T09:55:27.424Z</time>
      </trkpt>
      <trkpt lat="43.77403" lon="1.46769">
        <ele>193.485519</ele>
        <time>2023-09-17T09:55:27.424Z</time>
      </trkpt>
      <trkpt lat="43.77404" lon="1.46774">
        <ele>193.498523</ele>
        <time>2023-09-17T09:55:28.424Z</time>
      </trkpt>
      <trkpt lat="43.77404" lon="1.46774">
        <ele>193.498523</ele>
        <time>2023-09-17T09:55:28.424Z</time>
      </trkpt>
      <trkpt lat="43.77405" lon="1.4678">
        <ele>193.511622</ele>
        <time>2023-09-17T09:55:29.424Z</time>
      </trkpt>
      <trkpt lat="43.77405" lon="1.4678">
        <ele>193.511622</ele>
        <time>2023-09-17T09:55:29.424Z</time>
      </trkpt>
      <trkpt lat="43.77406" lon="1.46783">
        <ele>193.52084</ele>
        <time>2023-09-17T09:55:30.424Z</time>
      </trkpt>
      <trkpt lat="43.77406" lon="1.46783">
        <ele>193.52084</ele>
        <time>2023-09-17T09:55:30.424Z</time>
      </trkpt>
      <trkpt lat="43.77408" lon="1.46789">
        <ele>193.535813</ele>
        <time>2023-09-17T09:55:31.424Z</time>
      </trkpt>
      <trkpt lat="43.77408" lon="1.46789">
        <ele>193.535813</ele>
        <time>2023-09-17T09:55:31.424Z</time>
      </trkpt>
      <trkpt lat="43.77409" lon="1.46795">
        <ele>193.550201</ele>
        <time>2023-09-17T09:55:32.424Z</time>
      </trkpt>
      <trkpt lat="43.77409" lon="1.46795">
        <ele>193.550201</ele>
        <time>2023-09-17T09:55:32.424Z</time>
      </trkpt>
      <trkpt lat="43.77409" lon="1.46801">
        <ele>193.564589</ele>
        <time>2023-09-17T09:55:34.424Z</time>
      </trkpt>
      <trkpt lat="43.7741" lon="1.46807">
        <ele>193.577831</ele>
        <time>2023-09-17T09:55:35.424Z</time>
      </trkpt>
      <trkpt lat="43.7741" lon="1.46807">
        <ele>193.577831</ele>
        <time>2023-09-17T09:55:35.424Z</time>
      </trkpt>
      <trkpt lat="43.7741" lon="1.46814">
        <ele>193.594574</ele>
        <time>2023-09-17T09:55:36.424Z</time>
      </trkpt>
      <trkpt lat="43.77409" lon="1.46821">
        <ele>193.61239</ele>
        <time>2023-09-17T09:55:37.424Z</time>
      </trkpt>
      <trkpt lat="43.77408" lon="1.46826">
        <ele>193.624007</ele>
        <time>2023-09-17T09:55:38.424Z</time>
      </trkpt>
      <trkpt lat="43.77407" lon="1.46833">
        <ele>193.640901</ele>
        <time>2023-09-17T09:55:39.424Z</time>
      </trkpt>
      <trkpt lat="43.77406" lon="1.46839">
        <ele>193.654902</ele>
        <time>2023-09-17T09:55:41.424Z</time>
      </trkpt>
      <trkpt lat="43.77404" lon="1.46845">
        <ele>193.67122</ele>
        <time>2023-09-17T09:55:42.424Z</time>
      </trkpt>
      <trkpt lat="43.77404" lon="1.46845">
        <ele>193.67122</ele>
        <time>2023-09-17T09:55:42.424Z</time>
      </trkpt>
      <trkpt lat="43.77402" lon="1.46852">
        <ele>193.688194</ele>
        <time>2023-09-17T09:55:43.424Z</time>
      </trkpt>
      <trkpt lat="43.774" lon="1.46857">
        <ele>193.701618</ele>
        <time>2023-09-17T09:55:44.424Z</time>
      </trkpt>
      <trkpt lat="43.77399" lon="1.46863">
        <ele>193.715703</ele>
        <time>2023-09-17T09:55:45.424Z</time>
      </trkpt>
      <trkpt lat="43.77396" lon="1.46869">
        <ele>193.73214</ele>
        <time>2023-09-17T09:55:46.424Z</time>
      </trkpt>
      <trkpt lat="43.77396" lon="1.46869">
        <ele>193.73214</ele>
        <time>2023-09-17T09:55:46.424Z</time>
      </trkpt>
      <trkpt lat="43.77394" lon="1.46876">
        <ele>193.750491</ele>
        <time>2023-09-17T09:55:48.424Z</time>
      </trkpt>
      <trkpt lat="43.77392" lon="1.46881">
        <ele>193.764024</ele>
        <time>2023-09-17T09:55:49.424Z</time>
      </trkpt>
      <trkpt lat="43.77392" lon="1.46881">
        <ele>193.764024</ele>
        <time>2023-09-17T09:55:49.424Z</time>
      </trkpt>
      <trkpt lat="43.7739" lon="1.46889">
        <ele>193.783366</ele>
        <time>2023-09-17T09:55:50.424Z</time>
      </trkpt>
      <trkpt lat="43.77388" lon="1.46894">
        <ele>193.797744</ele>
        <time>2023-09-17T09:55:51.424Z</time>
      </trkpt>
      <trkpt lat="43.77386" lon="1.46901">
        <ele>193.813835</ele>
        <time>2023-09-17T09:55:52.424Z</time>
      </trkpt>
      <trkpt lat="43.77386" lon="1.46901">
        <ele>193.813835</ele>
        <time>2023-09-17T09:55:52.424Z</time>
      </trkpt>
      <trkpt lat="43.77384" lon="1.46908">
        <ele>193.833051</ele>
        <time>2023-09-17T09:55:53.424Z</time>
      </trkpt>
      <trkpt lat="43.77384" lon="1.46908">
        <ele>193.833051</ele>
        <time>2023-09-17T09:55:53.424Z</time>
      </trkpt>
      <trkpt lat="43.77381" lon="1.46915">
        <ele>193.851974</ele>
        <time>2023-09-17T09:55:54.424Z</time>
      </trkpt>
      <trkpt lat="43.77379" lon="1.46921">
        <ele>193.777607</ele>
        <time>2023-09-17T09:55:55.424Z</time>
      </trkpt>
      <trkpt lat="43.77377" lon="1.46927">
        <ele>193.65748</ele>
        <time>2023-09-17T09:55:55.424Z</time>
      </trkpt>
      <trkpt lat="43.77374" lon="1.46933">
        <ele>193.526852</ele>
        <time>2023-09-17T09:55:57.424Z</time>
      </trkpt>
      <trkpt lat="43.77372" lon="1.46938">
        <ele>193.399594</ele>
        <time>2023-09-17T09:55:57.424Z</time>
      </trkpt>
      <trkpt lat="43.77369" lon="1.46944">
        <ele>193.267549</ele>
        <time>2023-09-17T09:55:59.424Z</time>
      </trkpt>
      <trkpt lat="43.77367" lon="1.46951">
        <ele>193.130759</ele>
        <time>2023-09-17T09:56:00.424Z</time>
      </trkpt>
      <trkpt lat="43.77367" lon="1.46951">
        <ele>193.130759</ele>
        <time>2023-09-17T09:56:00.424Z</time>
      </trkpt>
      <trkpt lat="43.77364" lon="1.46956">
        <ele>193.004144</ele>
        <time>2023-09-17T09:56:01.424Z</time>
      </trkpt>
      <trkpt lat="43.77362" lon="1.46962">
        <ele>192.887168</ele>
        <time>2023-09-17T09:56:01.424Z</time>
      </trkpt>
      <trkpt lat="43.77359" lon="1.46968">
        <ele>192.750263</ele>
        <time>2023-09-17T09:56:03.424Z</time>
      </trkpt>
      <trkpt lat="43.77359" lon="1.46968">
        <ele>192.750263</ele>
        <time>2023-09-17T09:56:03.424Z</time>
      </trkpt>
      <trkpt lat="43.77357" lon="1.46974">
        <ele>192.625322</ele>
        <time>2023-09-17T09:56:03.424Z</time>
      </trkpt>
      <trkpt lat="43.77354" lon="1.4698">
        <ele>192.490045</ele>
        <time>2023-09-17T09:56:05.424Z</time>
      </trkpt>
      <trkpt lat="43.77352" lon="1.46985">
        <ele>192.364257</ele>
        <time>2023-09-17T09:56:06.424Z</time>
      </trkpt>
      <trkpt lat="43.77352" lon="1.46985">
        <ele>192.364257</ele>
        <time>2023-09-17T09:56:06.424Z</time>
      </trkpt>
      <trkpt lat="43.77349" lon="1.46991">
        <ele>192.236999</ele>
        <time>2023-09-17T09:56:07.424Z</time>
      </trkpt>
      <trkpt lat="43.77347" lon="1.46997">
        <ele>192.107016</ele>
        <time>2023-09-17T09:56:08.424Z</time>
      </trkpt>
      <trkpt lat="43.77347" lon="1.46997">
        <ele>192.107016</ele>
        <time>2023-09-17T09:56:08.424Z</time>
      </trkpt>
      <trkpt lat="43.77345" lon="1.47003">
        <ele>191.977033</ele>
        <time>2023-09-17T09:56:09.424Z</time>
      </trkpt>
      <trkpt lat="43.77342" lon="1.47008">
        <ele>191.855418</ele>
        <time>2023-09-17T09:56:10.424Z</time>
      </trkpt>
      <trkpt lat="43.7734" lon="1.47014">
        <ele>191.718227</ele>
        <time>2023-09-17T09:56:11.424Z</time>
      </trkpt>
      <trkpt lat="43.7734" lon="1.47014">
        <ele>191.718227</ele>
        <time>2023-09-17T09:56:11.424Z</time>
      </trkpt>
      <trkpt lat="43.77337" lon="1.4702">
        <ele>191.591612</ele>
        <time>2023-09-17T09:56:12.424Z</time>
      </trkpt>
      <trkpt lat="43.77337" lon="1.4702">
        <ele>191.591612</ele>
        <time>2023-09-17T09:56:12.424Z</time>
      </trkpt>
      <trkpt lat="43.77335" lon="1.47026">
        <ele>191.469996</ele>
        <time>2023-09-17T09:56:13.424Z</time>
      </trkpt>
      <trkpt lat="43.77333" lon="1.47031">
        <ele>191.3417</ele>
        <time>2023-09-17T09:56:14.424Z</time>
      </trkpt>
      <trkpt lat="43.77333" lon="1.47031">
        <ele>191.3417</ele>
        <time>2023-09-17T09:56:14.424Z</time>
      </trkpt>
      <trkpt lat="43.7733" lon="1.47037">
        <ele>191.215084</ele>
        <time>2023-09-17T09:56:15.424Z</time>
      </trkpt>
      <trkpt lat="43.7733" lon="1.47037">
        <ele>191.215084</ele>
        <time>2023-09-17T09:56:15.424Z</time>
      </trkpt>
      <trkpt lat="43.77328" lon="1.47042">
        <ele>191.103256</ele>
        <time>2023-09-17T09:56:16.424Z</time>
      </trkpt>
      <trkpt lat="43.77325" lon="1.47048">
        <ele>190.969598</ele>
        <time>2023-09-17T09:56:17.424Z</time>
      </trkpt>
      <trkpt lat="43.77325" lon="1.47048">
        <ele>190.969598</ele>
        <time>2023-09-17T09:56:17.424Z</time>
      </trkpt>
      <trkpt lat="43.77324" lon="1.47053">
        <ele>190.856374</ele>
        <time>2023-09-17T09:56:18.424Z</time>
      </trkpt>
      <trkpt lat="43.77324" lon="1.47053">
        <ele>190.856374</ele>
        <time>2023-09-17T09:56:18.424Z</time>
      </trkpt>
      <trkpt lat="43.77321" lon="1.4706">
        <ele>190.719183</ele>
        <time>2023-09-17T09:56:19.424Z</time>
      </trkpt>
      <trkpt lat="43.7732" lon="1.47064">
        <ele>190.630973</ele>
        <time>2023-09-17T09:56:20.424Z</time>
      </trkpt>
      <trkpt lat="43.77317" lon="1.47071">
        <ele>190.476816</ele>
        <time>2023-09-17T09:56:21.424Z</time>
      </trkpt>
      <trkpt lat="43.77317" lon="1.47077">
        <ele>190.36555</ele>
        <time>2023-09-17T09:56:22.424Z</time>
      </trkpt>
      <trkpt lat="43.77317" lon="1.47077">
        <ele>190.36555</ele>
        <time>2023-09-17T09:56:22.424Z</time>
      </trkpt>
      <trkpt lat="43.77316" lon="1.47084">
        <ele>190.237494</ele>
        <time>2023-09-17T09:56:23.424Z</time>
      </trkpt>
      <trkpt lat="43.77316" lon="1.47091">
        <ele>190.105039</ele>
        <time>2023-09-17T09:56:24.424Z</time>
      </trkpt>
      <trkpt lat="43.77316" lon="1.47091">
        <ele>190.105039</ele>
        <time>2023-09-17T09:56:24.424Z</time>
      </trkpt>
      <trkpt lat="43.77316" lon="1.47097">
        <ele>189.976836</ele>
        <time>2023-09-17T09:56:25.424Z</time>
      </trkpt>
      <trkpt lat="43.77316" lon="1.47104">
        <ele>189.852461</ele>
        <time>2023-09-17T09:56:26.424Z</time>
      </trkpt>
      <trkpt lat="43.77316" lon="1.47104">
        <ele>189.852461</ele>
        <time>2023-09-17T09:56:26.424Z</time>
      </trkpt>
      <trkpt lat="43.77316" lon="1.47111">
        <ele>189.708559</ele>
        <time>2023-09-17T09:56:27.424Z</time>
      </trkpt>
      <trkpt lat="43.77316" lon="1.47111">
        <ele>189.708559</ele>
        <time>2023-09-17T09:56:27.424Z</time>
      </trkpt>
      <trkpt lat="43.77317" lon="1.47119">
        <ele>189.564658</ele>
        <time>2023-09-17T09:56:28.424Z</time>
      </trkpt>
      <trkpt lat="43.77317" lon="1.47119">
        <ele>189.564658</ele>
        <time>2023-09-17T09:56:28.424Z</time>
      </trkpt>
      <trkpt lat="43.77317" lon="1.47126">
        <ele>189.428801</ele>
        <time>2023-09-17T09:56:29.424Z</time>
      </trkpt>
      <trkpt lat="43.77317" lon="1.47126">
        <ele>189.428801</ele>
        <time>2023-09-17T09:56:29.424Z</time>
      </trkpt>
      <trkpt lat="43.77317" lon="1.47134">
        <ele>189.269629</ele>
        <time>2023-09-17T09:56:30.424Z</time>
      </trkpt>
      <trkpt lat="43.77317" lon="1.47134">
        <ele>189.269629</ele>
        <time>2023-09-17T09:56:30.424Z</time>
      </trkpt>
      <trkpt lat="43.77316" lon="1.47142">
        <ele>189.120775</ele>
        <time>2023-09-17T09:56:31.424Z</time>
      </trkpt>
      <trkpt lat="43.77316" lon="1.47142">
        <ele>189.120775</ele>
        <time>2023-09-17T09:56:31.424Z</time>
      </trkpt>
      <trkpt lat="43.77314" lon="1.4715">
        <ele>188.609615</ele>
        <time>2023-09-17T09:56:32.424Z</time>
      </trkpt>
      <trkpt lat="43.77314" lon="1.4715">
        <ele>188.609615</ele>
        <time>2023-09-17T09:56:32.424Z</time>
      </trkpt>
      <trkpt lat="43.77311" lon="1.47157">
        <ele>187.963945</ele>
        <time>2023-09-17T09:56:33.424Z</time>
      </trkpt>
      <trkpt lat="43.77311" lon="1.47157">
        <ele>187.963945</ele>
        <time>2023-09-17T09:56:33.424Z</time>
      </trkpt>
      <trkpt lat="43.77307" lon="1.47165">
        <ele>187.278046</ele>
        <time>2023-09-17T09:56:34.424Z</time>
      </trkpt>
      <trkpt lat="43.77307" lon="1.47165">
        <ele>187.278046</ele>
        <time>2023-09-17T09:56:34.424Z</time>
      </trkpt>
      <trkpt lat="43.77303" lon="1.47173">
        <ele>186.59812</ele>
        <time>2023-09-17T09:56:35.424Z</time>
      </trkpt>
      <trkpt lat="43.77303" lon="1.47173">
        <ele>186.59812</ele>
        <time>2023-09-17T09:56:35.424Z</time>
      </trkpt>
      <trkpt lat="43.77299" lon="1.47181">
        <ele>185.887791</ele>
        <time>2023-09-17T09:56:36.424Z</time>
      </trkpt>
      <trkpt lat="43.77299" lon="1.47181">
        <ele>185.887791</ele>
        <time>2023-09-17T09:56:36.424Z</time>
      </trkpt>
      <trkpt lat="43.77294" lon="1.47189">
        <ele>185.136374</ele>
        <time>2023-09-17T09:56:37.424Z</time>
      </trkpt>
      <trkpt lat="43.77294" lon="1.47189">
        <ele>185.136374</ele>
        <time>2023-09-17T09:56:37.424Z</time>
      </trkpt>
      <trkpt lat="43.77288" lon="1.47197">
        <ele>184.346712</ele>
        <time>2023-09-17T09:56:38.424Z</time>
      </trkpt>
      <trkpt lat="43.77288" lon="1.47197">
        <ele>184.346712</ele>
        <time>2023-09-17T09:56:38.424Z</time>
      </trkpt>
      <trkpt lat="43.77283" lon="1.47205">
        <ele>183.547691</ele>
        <time>2023-09-17T09:56:39.424Z</time>
      </trkpt>
      <trkpt lat="43.77283" lon="1.47205">
        <ele>183.547691</ele>
        <time>2023-09-17T09:56:39.424Z</time>
      </trkpt>
      <trkpt lat="43.77282" lon="1.47208">
        <ele>183.306687</ele>
        <time>2023-09-17T09:56:40.424Z</time>
      </trkpt>
      <trkpt lat="43.77282" lon="1.47208">
        <ele>183.306687</ele>
        <time>2023-09-17T09:56:40.424Z</time>
      </trkpt>
      <trkpt lat="43.77276" lon="1.47226">
        <ele>181.914409</ele>
        <time>2023-09-17T09:56:41.424Z</time>
      </trkpt>
      <trkpt lat="43.77276" lon="1.47226">
        <ele>181.914409</ele>
        <time>2023-09-17T09:56:41.424Z</time>
      </trkpt>
      <trkpt lat="43.77274" lon="1.47238">
        <ele>181.030708</ele>
        <time>2023-09-17T09:56:42.424Z</time>
      </trkpt>
      <trkpt lat="43.77274" lon="1.47238">
        <ele>181.030708</ele>
        <time>2023-09-17T09:56:42.424Z</time>
      </trkpt>
      <trkpt lat="43.77272" lon="1.47248">
        <ele>180.318719</ele>
        <time>2023-09-17T09:56:43.424Z</time>
      </trkpt>
      <trkpt lat="43.77272" lon="1.47248">
        <ele>180.318719</ele>
        <time>2023-09-17T09:56:43.424Z</time>
      </trkpt>
      <trkpt lat="43.77271" lon="1.4726">
        <ele>179.418137</ele>
        <time>2023-09-17T09:56:44.424Z</time>
      </trkpt>
      <trkpt lat="43.77271" lon="1.4726">
        <ele>179.418137</ele>
        <time>2023-09-17T09:56:44.424Z</time>
      </trkpt>
      <trkpt lat="43.77269" lon="1.47274">
        <ele>178.404806</ele>
        <time>2023-09-17T09:56:45.424Z</time>
      </trkpt>
      <trkpt lat="43.77269" lon="1.47274">
        <ele>178.404806</ele>
        <time>2023-09-17T09:56:45.424Z</time>
      </trkpt>
      <trkpt lat="43.77268" lon="1.47285">
        <ele>177.58183</ele>
        <time>2023-09-17T09:56:46.424Z</time>
      </trkpt>
      <trkpt lat="43.77268" lon="1.47285">
        <ele>177.58183</ele>
        <time>2023-09-17T09:56:46.424Z</time>
      </trkpt>
      <trkpt lat="43.77265" lon="1.47298">
        <ele>176.616145</ele>
        <time>2023-09-17T09:56:47.424Z</time>
      </trkpt>
      <trkpt lat="43.77265" lon="1.47298">
        <ele>176.616145</ele>
        <time>2023-09-17T09:56:47.424Z</time>
      </trkpt>
      <trkpt lat="43.77265" lon="1.473">
        <ele>176.494864</ele>
        <time>2023-09-17T09:56:48.424Z</time>
      </trkpt>
      <trkpt lat="43.77261" lon="1.47321">
        <ele>174.906382</ele>
        <time>2023-09-17T09:56:49.424Z</time>
      </trkpt>
      <trkpt lat="43.77261" lon="1.47321">
        <ele>174.906382</ele>
        <time>2023-09-17T09:56:49.424Z</time>
      </trkpt>
      <trkpt lat="43.77258" lon="1.47332">
        <ele>174.072319</ele>
        <time>2023-09-17T09:56:50.424Z</time>
      </trkpt>
      <trkpt lat="43.77258" lon="1.47332">
        <ele>174.072319</ele>
        <time>2023-09-17T09:56:50.424Z</time>
      </trkpt>
      <trkpt lat="43.77256" lon="1.47341">
        <ele>173.407538</ele>
        <time>2023-09-17T09:56:51.424Z</time>
      </trkpt>
      <trkpt lat="43.77256" lon="1.47341">
        <ele>173.407538</ele>
        <time>2023-09-17T09:56:51.424Z</time>
      </trkpt>
      <trkpt lat="43.77255" lon="1.47347">
        <ele>172.998743</ele>
        <time>2023-09-17T09:56:52.424Z</time>
      </trkpt>
      <trkpt lat="43.77255" lon="1.47347">
        <ele>172.998743</ele>
        <time>2023-09-17T09:56:52.424Z</time>
      </trkpt>
      <trkpt lat="43.77252" lon="1.4736">
        <ele>171.977197</ele>
        <time>2023-09-17T09:56:53.424Z</time>
      </trkpt>
      <trkpt lat="43.77252" lon="1.4736">
        <ele>171.977197</ele>
        <time>2023-09-17T09:56:53.424Z</time>
      </trkpt>
      <trkpt lat="43.77251" lon="1.47369">
        <ele>171.378221</ele>
        <time>2023-09-17T09:56:54.424Z</time>
      </trkpt>
      <trkpt lat="43.77251" lon="1.47369">
        <ele>171.378221</ele>
        <time>2023-09-17T09:56:54.424Z</time>
      </trkpt>
      <trkpt lat="43.7725" lon="1.47369">
        <ele>171.302522</ele>
        <time>2023-09-17T09:56:55.424Z</time>
      </trkpt>
      <trkpt lat="43.77248" lon="1.47379">
        <ele>171.060355</ele>
        <time>2023-09-17T09:56:56.424Z</time>
      </trkpt>
      <trkpt lat="43.77248" lon="1.47379">
        <ele>171.060355</ele>
        <time>2023-09-17T09:56:56.424Z</time>
      </trkpt>
      <trkpt lat="43.77243" lon="1.474">
        <ele>170.634853</ele>
        <time>2023-09-17T09:56:57.424Z</time>
      </trkpt>
      <trkpt lat="43.77243" lon="1.474">
        <ele>170.634853</ele>
        <time>2023-09-17T09:56:57.424Z</time>
      </trkpt>
      <trkpt lat="43.77242" lon="1.47411">
        <ele>170.411017</ele>
        <time>2023-09-17T09:56:58.424Z</time>
      </trkpt>
      <trkpt lat="43.77242" lon="1.47411">
        <ele>170.411017</ele>
        <time>2023-09-17T09:56:58.424Z</time>
      </trkpt>
      <trkpt lat="43.77242" lon="1.47409">
        <ele>170.369882</ele>
        <time>2023-09-17T09:56:58.424Z</time>
      </trkpt>
      <trkpt lat="43.77242" lon="1.47439">
        <ele>169.765334</ele>
        <time>2023-09-17T09:56:59.424Z</time>
      </trkpt>
      <trkpt lat="43.77242" lon="1.47439">
        <ele>169.765334</ele>
        <time>2023-09-17T09:56:59.424Z</time>
      </trkpt>
      <trkpt lat="43.77244" lon="1.47452">
        <ele>169.506345</ele>
        <time>2023-09-17T09:57:00.424Z</time>
      </trkpt>
      <trkpt lat="43.77244" lon="1.47452">
        <ele>169.506345</ele>
        <time>2023-09-17T09:57:00.424Z</time>
      </trkpt>
      <trkpt lat="43.77247" lon="1.47466">
        <ele>169.209814</ele>
        <time>2023-09-17T09:57:01.424Z</time>
      </trkpt>
      <trkpt lat="43.77247" lon="1.47466">
        <ele>169.209814</ele>
        <time>2023-09-17T09:57:01.424Z</time>
      </trkpt>
      <trkpt lat="43.7725" lon="1.47477">
        <ele>168.984967</ele>
        <time>2023-09-17T09:57:02.424Z</time>
      </trkpt>
      <trkpt lat="43.7725" lon="1.47477">
        <ele>168.984967</ele>
        <time>2023-09-17T09:57:02.424Z</time>
      </trkpt>
      <trkpt lat="43.77253" lon="1.47486">
        <ele>168.78996</ele>
        <time>2023-09-17T09:57:03.424Z</time>
      </trkpt>
      <trkpt lat="43.77255" lon="1.47495">
        <ele>168.608182</ele>
        <time>2023-09-17T09:57:04.424Z</time>
      </trkpt>
      <trkpt lat="43.77256" lon="1.47497">
        <ele>168.555993</ele>
        <time>2023-09-17T09:57:05.424Z</time>
      </trkpt>
      <trkpt lat="43.77257" lon="1.4751">
        <ele>168.294601</ele>
        <time>2023-09-17T09:57:06.424Z</time>
      </trkpt>
      <trkpt lat="43.77258" lon="1.47513">
        <ele>168.232606</ele>
        <time>2023-09-17T09:57:07.424Z</time>
      </trkpt>
      <trkpt lat="43.77257" lon="1.47525">
        <ele>168.010455</ele>
        <time>2023-09-17T09:57:08.424Z</time>
      </trkpt>
      <trkpt lat="43.77258" lon="1.47531">
        <ele>167.885311</ele>
        <time>2023-09-17T09:57:09.424Z</time>
      </trkpt>
      <trkpt lat="43.77258" lon="1.47538">
        <ele>167.752508</ele>
        <time>2023-09-17T09:57:10.424Z</time>
      </trkpt>
      <trkpt lat="43.77258" lon="1.47544">
        <ele>167.623203</ele>
        <time>2023-09-17T09:57:12.424Z</time>
      </trkpt>
      <trkpt lat="43.77258" lon="1.4755">
        <ele>167.507717</ele>
        <time>2023-09-17T09:57:12.424Z</time>
      </trkpt>
      <trkpt lat="43.77258" lon="1.4755">
        <ele>167.507717</ele>
        <time>2023-09-17T09:57:12.424Z</time>
      </trkpt>
      <trkpt lat="43.77259" lon="1.47556">
        <ele>167.392231</ele>
        <time>2023-09-17T09:57:13.424Z</time>
      </trkpt>
      <trkpt lat="43.77259" lon="1.47561">
        <ele>167.289333</ele>
        <time>2023-09-17T09:57:14.424Z</time>
      </trkpt>
      <trkpt lat="43.77259" lon="1.47561">
        <ele>167.289333</ele>
        <time>2023-09-17T09:57:14.424Z</time>
      </trkpt>
      <trkpt lat="43.77261" lon="1.47567">
        <ele>167.169744</ele>
        <time>2023-09-17T09:57:16.424Z</time>
      </trkpt>
      <trkpt lat="43.77261" lon="1.47567">
        <ele>167.169744</ele>
        <time>2023-09-17T09:57:16.424Z</time>
      </trkpt>
      <trkpt lat="43.77262" lon="1.47571">
        <ele>167.068035</ele>
        <time>2023-09-17T09:57:16.424Z</time>
      </trkpt>
      <trkpt lat="43.77262" lon="1.47571">
        <ele>167.068035</ele>
        <time>2023-09-17T09:57:16.424Z</time>
      </trkpt>
      <trkpt lat="43.77263" lon="1.47576">
        <ele>166.970392</ele>
        <time>2023-09-17T09:57:17.424Z</time>
      </trkpt>
      <trkpt lat="43.77263" lon="1.47576">
        <ele>166.970392</ele>
        <time>2023-09-17T09:57:17.424Z</time>
      </trkpt>
      <trkpt lat="43.77263" lon="1.47579">
        <ele>166.908858</ele>
        <time>2023-09-17T09:57:18.424Z</time>
      </trkpt>
      <trkpt lat="43.77263" lon="1.47579">
        <ele>166.908858</ele>
        <time>2023-09-17T09:57:18.424Z</time>
      </trkpt>
      <trkpt lat="43.77264" lon="1.47584">
        <ele>166.811386</ele>
        <time>2023-09-17T09:57:20.424Z</time>
      </trkpt>
      <trkpt lat="43.77264" lon="1.47584">
        <ele>166.811386</ele>
        <time>2023-09-17T09:57:20.424Z</time>
      </trkpt>
      <trkpt lat="43.77265" lon="1.47589">
        <ele>166.699398</ele>
        <time>2023-09-17T09:57:20.424Z</time>
      </trkpt>
      <trkpt lat="43.77265" lon="1.47589">
        <ele>166.699398</ele>
        <time>2023-09-17T09:57:20.424Z</time>
      </trkpt>
      <trkpt lat="43.77266" lon="1.47594">
        <ele>166.59958</ele>
        <time>2023-09-17T09:57:21.424Z</time>
      </trkpt>
      <trkpt lat="43.77266" lon="1.47594">
        <ele>166.59958</ele>
        <time>2023-09-17T09:57:21.424Z</time>
      </trkpt>
      <trkpt lat="43.77266" lon="1.47599">
        <ele>166.505775</ele>
        <time>2023-09-17T09:57:24.424Z</time>
      </trkpt>
      <trkpt lat="43.77266" lon="1.47599">
        <ele>166.505775</ele>
        <time>2023-09-17T09:57:24.424Z</time>
      </trkpt>
      <trkpt lat="43.77267" lon="1.47603">
        <ele>166.415907</ele>
        <time>2023-09-17T09:57:24.424Z</time>
      </trkpt>
      <trkpt lat="43.77267" lon="1.47603">
        <ele>166.415907</ele>
        <time>2023-09-17T09:57:24.424Z</time>
      </trkpt>
      <trkpt lat="43.77266" lon="1.47609">
        <ele>166.337512</ele>
        <time>2023-09-17T09:57:26.424Z</time>
      </trkpt>
      <trkpt lat="43.77266" lon="1.47609">
        <ele>166.337512</ele>
        <time>2023-09-17T09:57:26.424Z</time>
      </trkpt>
      <trkpt lat="43.77265" lon="1.4762">
        <ele>166.850033</ele>
        <time>2023-09-17T09:57:28.424Z</time>
      </trkpt>
      <trkpt lat="43.77265" lon="1.4762">
        <ele>166.850033</ele>
        <time>2023-09-17T09:57:28.424Z</time>
      </trkpt>
      <trkpt lat="43.77264" lon="1.47624">
        <ele>167.056198</ele>
        <time>2023-09-17T09:57:28.424Z</time>
      </trkpt>
      <trkpt lat="43.77264" lon="1.47624">
        <ele>167.056198</ele>
        <time>2023-09-17T09:57:28.424Z</time>
      </trkpt>
      <trkpt lat="43.77262" lon="1.47629">
        <ele>167.29141</ele>
        <time>2023-09-17T09:57:30.424Z</time>
      </trkpt>
      <trkpt lat="43.77262" lon="1.47629">
        <ele>167.29141</ele>
        <time>2023-09-17T09:57:30.424Z</time>
      </trkpt>
      <trkpt lat="43.77261" lon="1.47634">
        <ele>167.53943</ele>
        <time>2023-09-17T09:57:31.424Z</time>
      </trkpt>
      <trkpt lat="43.77261" lon="1.47634">
        <ele>167.53943</ele>
        <time>2023-09-17T09:57:31.424Z</time>
      </trkpt>
      <trkpt lat="43.77259" lon="1.47637">
        <ele>167.74535</ele>
        <time>2023-09-17T09:57:32.424Z</time>
      </trkpt>
      <trkpt lat="43.77259" lon="1.47637">
        <ele>167.74535</ele>
        <time>2023-09-17T09:57:32.424Z</time>
      </trkpt>
      <trkpt lat="43.77255" lon="1.47647">
        <ele>168.235229</ele>
        <time>2023-09-17T09:57:34.424Z</time>
      </trkpt>
      <trkpt lat="43.77255" lon="1.47647">
        <ele>168.235229</ele>
        <time>2023-09-17T09:57:34.424Z</time>
      </trkpt>
      <trkpt lat="43.77253" lon="1.47651">
        <ele>168.497532</ele>
        <time>2023-09-17T09:57:35.424Z</time>
      </trkpt>
      <trkpt lat="43.77253" lon="1.47651">
        <ele>168.497532</ele>
        <time>2023-09-17T09:57:35.424Z</time>
      </trkpt>
      <trkpt lat="43.77252" lon="1.47656">
        <ele>168.720077</ele>
        <time>2023-09-17T09:57:37.424Z</time>
      </trkpt>
      <trkpt lat="43.77252" lon="1.47656">
        <ele>168.720077</ele>
        <time>2023-09-17T09:57:37.424Z</time>
      </trkpt>
      <trkpt lat="43.7725" lon="1.47661">
        <ele>168.991663</ele>
        <time>2023-09-17T09:57:38.424Z</time>
      </trkpt>
      <trkpt lat="43.7725" lon="1.47661">
        <ele>168.991663</ele>
        <time>2023-09-17T09:57:38.424Z</time>
      </trkpt>
      <trkpt lat="43.77248" lon="1.47667">
        <ele>169.287556</ele>
        <time>2023-09-17T09:57:39.424Z</time>
      </trkpt>
      <trkpt lat="43.77248" lon="1.47667">
        <ele>169.287556</ele>
        <time>2023-09-17T09:57:39.424Z</time>
      </trkpt>
      <trkpt lat="43.77247" lon="1.47672">
        <ele>169.56749</ele>
        <time>2023-09-17T09:57:40.424Z</time>
      </trkpt>
      <trkpt lat="43.77247" lon="1.47672">
        <ele>169.56749</ele>
        <time>2023-09-17T09:57:40.424Z</time>
      </trkpt>
      <trkpt lat="43.77245" lon="1.47677">
        <ele>169.822353</ele>
        <time>2023-09-17T09:57:41.424Z</time>
      </trkpt>
      <trkpt lat="43.77245" lon="1.47677">
        <ele>169.822353</ele>
        <time>2023-09-17T09:57:41.424Z</time>
      </trkpt>
      <trkpt lat="43.77244" lon="1.47683">
        <ele>170.083824</ele>
        <time>2023-09-17T09:57:42.424Z</time>
      </trkpt>
      <trkpt lat="43.77244" lon="1.47683">
        <ele>170.083824</ele>
        <time>2023-09-17T09:57:42.424Z</time>
      </trkpt>
      <trkpt lat="43.77243" lon="1.47687">
        <ele>170.314069</ele>
        <time>2023-09-17T09:57:44.424Z</time>
      </trkpt>
      <trkpt lat="43.77243" lon="1.47687">
        <ele>170.314069</ele>
        <time>2023-09-17T09:57:44.424Z</time>
      </trkpt>
      <trkpt lat="43.7724" lon="1.47697">
        <ele>170.807236</ele>
        <time>2023-09-17T09:57:45.424Z</time>
      </trkpt>
      <trkpt lat="43.7724" lon="1.47697">
        <ele>170.807236</ele>
        <time>2023-09-17T09:57:45.424Z</time>
      </trkpt>
      <trkpt lat="43.77239" lon="1.47701">
        <ele>171.00066</ele>
        <time>2023-09-17T09:57:46.424Z</time>
      </trkpt>
      <trkpt lat="43.77239" lon="1.47701">
        <ele>171.00066</ele>
        <time>2023-09-17T09:57:46.424Z</time>
      </trkpt>
      <trkpt lat="43.77239" lon="1.47705">
        <ele>171.196995</ele>
        <time>2023-09-17T09:57:47.424Z</time>
      </trkpt>
      <trkpt lat="43.77239" lon="1.47705">
        <ele>171.196995</ele>
        <time>2023-09-17T09:57:47.424Z</time>
      </trkpt>
      <trkpt lat="43.77238" lon="1.47711">
        <ele>171.458453</ele>
        <time>2023-09-17T09:57:49.424Z</time>
      </trkpt>
      <trkpt lat="43.77238" lon="1.47711">
        <ele>171.458453</ele>
        <time>2023-09-17T09:57:49.424Z</time>
      </trkpt>
      <trkpt lat="43.77237" lon="1.47718">
        <ele>171.774111</ele>
        <time>2023-09-17T09:57:50.424Z</time>
      </trkpt>
      <trkpt lat="43.77235" lon="1.47727">
        <ele>172.246883</ele>
        <time>2023-09-17T09:57:52.424Z</time>
      </trkpt>
      <trkpt lat="43.77235" lon="1.47727">
        <ele>172.246883</ele>
        <time>2023-09-17T09:57:52.424Z</time>
      </trkpt>
      <trkpt lat="43.77235" lon="1.47732">
        <ele>172.456591</ele>
        <time>2023-09-17T09:57:53.424Z</time>
      </trkpt>
      <trkpt lat="43.77235" lon="1.47738">
        <ele>172.718834</ele>
        <time>2023-09-17T09:57:54.424Z</time>
      </trkpt>
      <trkpt lat="43.77235" lon="1.47738">
        <ele>172.718834</ele>
        <time>2023-09-17T09:57:54.424Z</time>
      </trkpt>
      <trkpt lat="43.77235" lon="1.47743">
        <ele>172.994994</ele>
        <time>2023-09-17T09:57:55.424Z</time>
      </trkpt>
      <trkpt lat="43.77235" lon="1.47743">
        <ele>172.994994</ele>
        <time>2023-09-17T09:57:55.424Z</time>
      </trkpt>
      <trkpt lat="43.77235" lon="1.47748">
        <ele>173.214022</ele>
        <time>2023-09-17T09:57:56.424Z</time>
      </trkpt>
      <trkpt lat="43.77235" lon="1.47748">
        <ele>173.214022</ele>
        <time>2023-09-17T09:57:56.424Z</time>
      </trkpt>
      <trkpt lat="43.77236" lon="1.47754">
        <ele>173.48005</ele>
        <time>2023-09-17T09:57:58.424Z</time>
      </trkpt>
      <trkpt lat="43.77236" lon="1.47754">
        <ele>173.48005</ele>
        <time>2023-09-17T09:57:58.424Z</time>
      </trkpt>
      <trkpt lat="43.77236" lon="1.47759">
        <ele>173.73302</ele>
        <time>2023-09-17T09:57:59.424Z</time>
      </trkpt>
      <trkpt lat="43.77236" lon="1.47759">
        <ele>173.73302</ele>
        <time>2023-09-17T09:57:59.424Z</time>
      </trkpt>
      <trkpt lat="43.77237" lon="1.47764">
        <ele>173.963265</ele>
        <time>2023-09-17T09:58:00.424Z</time>
      </trkpt>
      <trkpt lat="43.77237" lon="1.47764">
        <ele>173.963265</ele>
        <time>2023-09-17T09:58:00.424Z</time>
      </trkpt>
      <trkpt lat="43.7724" lon="1.47772">
        <ele>174.390645</ele>
        <time>2023-09-17T09:58:02.424Z</time>
      </trkpt>
      <trkpt lat="43.7724" lon="1.47772">
        <ele>174.390645</ele>
        <time>2023-09-17T09:58:02.424Z</time>
      </trkpt>
      <trkpt lat="43.7724" lon="1.47776">
        <ele>174.55729</ele>
        <time>2023-09-17T09:58:03.424Z</time>
      </trkpt>
      <trkpt lat="43.7724" lon="1.47776">
        <ele>174.55729</ele>
        <time>2023-09-17T09:58:03.424Z</time>
      </trkpt>
      <trkpt lat="43.77242" lon="1.4778">
        <ele>174.792503</ele>
        <time>2023-09-17T09:58:04.424Z</time>
      </trkpt>
      <trkpt lat="43.77242" lon="1.4778">
        <ele>174.792503</ele>
        <time>2023-09-17T09:58:04.424Z</time>
      </trkpt>
      <trkpt lat="43.77245" lon="1.47789">
        <ele>175.233402</ele>
        <time>2023-09-17T09:58:05.424Z</time>
      </trkpt>
      <trkpt lat="43.77245" lon="1.47789">
        <ele>175.233402</ele>
        <time>2023-09-17T09:58:05.424Z</time>
      </trkpt>
      <trkpt lat="43.77246" lon="1.47792">
        <ele>175.409761</ele>
        <time>2023-09-17T09:58:06.424Z</time>
      </trkpt>
      <trkpt lat="43.77246" lon="1.47792">
        <ele>175.409761</ele>
        <time>2023-09-17T09:58:06.424Z</time>
      </trkpt>
      <trkpt lat="43.77247" lon="1.47795">
        <ele>175.566557</ele>
        <time>2023-09-17T09:58:08.424Z</time>
      </trkpt>
      <trkpt lat="43.77247" lon="1.47795">
        <ele>175.566557</ele>
        <time>2023-09-17T09:58:08.424Z</time>
      </trkpt>
      <trkpt lat="43.77249" lon="1.478">
        <ele>175.829861</ele>
        <time>2023-09-17T09:58:09.424Z</time>
      </trkpt>
      <trkpt lat="43.77249" lon="1.478">
        <ele>175.829861</ele>
        <time>2023-09-17T09:58:09.424Z</time>
      </trkpt>
      <trkpt lat="43.77251" lon="1.47804">
        <ele>176.056593</ele>
        <time>2023-09-17T09:58:10.424Z</time>
      </trkpt>
      <trkpt lat="43.77251" lon="1.47804">
        <ele>176.056593</ele>
        <time>2023-09-17T09:58:10.424Z</time>
      </trkpt>
      <trkpt lat="43.77253" lon="1.47808">
        <ele>176.275836</ele>
        <time>2023-09-17T09:58:11.424Z</time>
      </trkpt>
      <trkpt lat="43.77253" lon="1.47808">
        <ele>176.275836</ele>
        <time>2023-09-17T09:58:11.424Z</time>
      </trkpt>
      <trkpt lat="43.77255" lon="1.47813">
        <ele>176.522795</ele>
        <time>2023-09-17T09:58:12.424Z</time>
      </trkpt>
      <trkpt lat="43.77255" lon="1.47813">
        <ele>176.522795</ele>
        <time>2023-09-17T09:58:12.424Z</time>
      </trkpt>
      <trkpt lat="43.77257" lon="1.47817">
        <ele>176.768441</ele>
        <time>2023-09-17T09:58:13.424Z</time>
      </trkpt>
      <trkpt lat="43.77257" lon="1.47817">
        <ele>176.768441</ele>
        <time>2023-09-17T09:58:13.424Z</time>
      </trkpt>
      <trkpt lat="43.77259" lon="1.4782">
        <ele>176.957929</ele>
        <time>2023-09-17T09:58:14.424Z</time>
      </trkpt>
      <trkpt lat="43.77259" lon="1.4782">
        <ele>176.957929</ele>
        <time>2023-09-17T09:58:14.424Z</time>
      </trkpt>
      <trkpt lat="43.77262" lon="1.47824">
        <ele>177.217189</ele>
        <time>2023-09-17T09:58:16.424Z</time>
      </trkpt>
      <trkpt lat="43.77262" lon="1.47824">
        <ele>177.217189</ele>
        <time>2023-09-17T09:58:16.424Z</time>
      </trkpt>
      <trkpt lat="43.77268" lon="1.47829">
        <ele>177.633836</ele>
        <time>2023-09-17T09:58:17.424Z</time>
      </trkpt>
      <trkpt lat="43.77268" lon="1.47829">
        <ele>177.633836</ele>
        <time>2023-09-17T09:58:17.424Z</time>
      </trkpt>
      <trkpt lat="43.7727" lon="1.47831">
        <ele>177.803676</ele>
        <time>2023-09-17T09:58:19.424Z</time>
      </trkpt>
      <trkpt lat="43.7727" lon="1.47831">
        <ele>177.803676</ele>
        <time>2023-09-17T09:58:19.424Z</time>
      </trkpt>
      <trkpt lat="43.77272" lon="1.47833">
        <ele>177.929563</ele>
        <time>2023-09-17T09:58:20.424Z</time>
      </trkpt>
      <trkpt lat="43.77272" lon="1.47833">
        <ele>177.929563</ele>
        <time>2023-09-17T09:58:20.424Z</time>
      </trkpt>
      <trkpt lat="43.77276" lon="1.47835">
        <ele>177.956973</ele>
        <time>2023-09-17T09:58:21.424Z</time>
      </trkpt>
      <trkpt lat="43.77276" lon="1.47835">
        <ele>177.956973</ele>
        <time>2023-09-17T09:58:21.424Z</time>
      </trkpt>
      <trkpt lat="43.77278" lon="1.47837">
        <ele>177.975858</ele>
        <time>2023-09-17T09:58:22.424Z</time>
      </trkpt>
      <trkpt lat="43.77278" lon="1.47837">
        <ele>177.975858</ele>
        <time>2023-09-17T09:58:22.424Z</time>
      </trkpt>
      <trkpt lat="43.77282" lon="1.4784">
        <ele>178.009853</ele>
        <time>2023-09-17T09:58:23.424Z</time>
      </trkpt>
      <trkpt lat="43.77282" lon="1.4784">
        <ele>178.009853</ele>
        <time>2023-09-17T09:58:23.424Z</time>
      </trkpt>
      <trkpt lat="43.77286" lon="1.47842">
        <ele>178.037483</ele>
        <time>2023-09-17T09:58:25.424Z</time>
      </trkpt>
      <trkpt lat="43.77286" lon="1.47842">
        <ele>178.037483</ele>
        <time>2023-09-17T09:58:25.424Z</time>
      </trkpt>
      <trkpt lat="43.77289" lon="1.47844">
        <ele>178.064241</ele>
        <time>2023-09-17T09:58:26.424Z</time>
      </trkpt>
      <trkpt lat="43.77289" lon="1.47844">
        <ele>178.064241</ele>
        <time>2023-09-17T09:58:26.424Z</time>
      </trkpt>
      <trkpt lat="43.77293" lon="1.47845">
        <ele>178.090426</ele>
        <time>2023-09-17T09:58:27.424Z</time>
      </trkpt>
      <trkpt lat="43.77293" lon="1.47845">
        <ele>178.090426</ele>
        <time>2023-09-17T09:58:27.424Z</time>
      </trkpt>
      <trkpt lat="43.77296" lon="1.47847">
        <ele>178.113742</ele>
        <time>2023-09-17T09:58:28.424Z</time>
      </trkpt>
      <trkpt lat="43.77296" lon="1.47847">
        <ele>178.113742</ele>
        <time>2023-09-17T09:58:28.424Z</time>
      </trkpt>
      <trkpt lat="43.773" lon="1.47848">
        <ele>178.148229</ele>
        <time>2023-09-17T09:58:28.424Z</time>
      </trkpt>
      <trkpt lat="43.773" lon="1.47848">
        <ele>178.148229</ele>
        <time>2023-09-17T09:58:28.424Z</time>
      </trkpt>
      <trkpt lat="43.77304" lon="1.4785">
        <ele>178.176583</ele>
        <time>2023-09-17T09:58:30.424Z</time>
      </trkpt>
      <trkpt lat="43.77304" lon="1.4785">
        <ele>178.176583</ele>
        <time>2023-09-17T09:58:30.424Z</time>
      </trkpt>
      <trkpt lat="43.77307" lon="1.4785">
        <ele>178.198818</ele>
        <time>2023-09-17T09:58:31.424Z</time>
      </trkpt>
      <trkpt lat="43.77307" lon="1.4785">
        <ele>178.198818</ele>
        <time>2023-09-17T09:58:31.424Z</time>
      </trkpt>
      <trkpt lat="43.77311" lon="1.47852">
        <ele>178.224816</ele>
        <time>2023-09-17T09:58:33.424Z</time>
      </trkpt>
      <trkpt lat="43.77311" lon="1.47852">
        <ele>178.224816</ele>
        <time>2023-09-17T09:58:33.424Z</time>
      </trkpt>
      <trkpt lat="43.77315" lon="1.47853">
        <ele>178.257916</ele>
        <time>2023-09-17T09:58:34.424Z</time>
      </trkpt>
      <trkpt lat="43.77315" lon="1.47853">
        <ele>178.257916</ele>
        <time>2023-09-17T09:58:34.424Z</time>
      </trkpt>
      <trkpt lat="43.77319" lon="1.47854">
        <ele>178.288879</ele>
        <time>2023-09-17T09:58:35.424Z</time>
      </trkpt>
      <trkpt lat="43.77319" lon="1.47854">
        <ele>178.288879</ele>
        <time>2023-09-17T09:58:35.424Z</time>
      </trkpt>
      <trkpt lat="43.77323" lon="1.47855">
        <ele>178.31761</ele>
        <time>2023-09-17T09:58:36.424Z</time>
      </trkpt>
      <trkpt lat="43.77323" lon="1.47855">
        <ele>178.31761</ele>
        <time>2023-09-17T09:58:36.424Z</time>
      </trkpt>
      <trkpt lat="43.77328" lon="1.47856">
        <ele>178.353852</ele>
        <time>2023-09-17T09:58:36.424Z</time>
      </trkpt>
      <trkpt lat="43.77328" lon="1.47856">
        <ele>178.353852</ele>
        <time>2023-09-17T09:58:36.424Z</time>
      </trkpt>
      <trkpt lat="43.77331" lon="1.47857">
        <ele>178.376795</ele>
        <time>2023-09-17T09:58:38.424Z</time>
      </trkpt>
      <trkpt lat="43.77331" lon="1.47857">
        <ele>178.376795</ele>
        <time>2023-09-17T09:58:38.424Z</time>
      </trkpt>
      <trkpt lat="43.77335" lon="1.47858">
        <ele>178.407758</ele>
        <time>2023-09-17T09:58:40.424Z</time>
      </trkpt>
      <trkpt lat="43.77335" lon="1.47858">
        <ele>178.407758</ele>
        <time>2023-09-17T09:58:40.424Z</time>
      </trkpt>
      <trkpt lat="43.77343" lon="1.47861">
        <ele>178.464725</ele>
        <time>2023-09-17T09:58:41.424Z</time>
      </trkpt>
      <trkpt lat="43.77343" lon="1.47861">
        <ele>178.464725</ele>
        <time>2023-09-17T09:58:41.424Z</time>
      </trkpt>
      <trkpt lat="43.77345" lon="1.47862">
        <ele>178.481783</ele>
        <time>2023-09-17T09:58:42.424Z</time>
      </trkpt>
      <trkpt lat="43.77345" lon="1.47862">
        <ele>178.481783</ele>
        <time>2023-09-17T09:58:42.424Z</time>
      </trkpt>
      <trkpt lat="43.77348" lon="1.47863">
        <ele>178.501807</ele>
        <time>2023-09-17T09:58:43.424Z</time>
      </trkpt>
      <trkpt lat="43.77348" lon="1.47863">
        <ele>178.501807</ele>
        <time>2023-09-17T09:58:43.424Z</time>
      </trkpt>
      <trkpt lat="43.77352" lon="1.47865">
        <ele>178.534153</ele>
        <time>2023-09-17T09:58:45.424Z</time>
      </trkpt>
      <trkpt lat="43.77352" lon="1.47865">
        <ele>178.534153</ele>
        <time>2023-09-17T09:58:45.424Z</time>
      </trkpt>
      <trkpt lat="43.77355" lon="1.47867">
        <ele>178.555426</ele>
        <time>2023-09-17T09:58:46.424Z</time>
      </trkpt>
      <trkpt lat="43.77355" lon="1.47867">
        <ele>178.555426</ele>
        <time>2023-09-17T09:58:46.424Z</time>
      </trkpt>
      <trkpt lat="43.77359" lon="1.47869">
        <ele>178.588968</ele>
        <time>2023-09-17T09:58:47.424Z</time>
      </trkpt>
      <trkpt lat="43.77359" lon="1.47869">
        <ele>178.588968</ele>
        <time>2023-09-17T09:58:47.424Z</time>
      </trkpt>
      <trkpt lat="43.77365" lon="1.47875">
        <ele>178.639591</ele>
        <time>2023-09-17T09:58:49.424Z</time>
      </trkpt>
      <trkpt lat="43.77365" lon="1.47875">
        <ele>178.639591</ele>
        <time>2023-09-17T09:58:49.424Z</time>
      </trkpt>
      <trkpt lat="43.77367" lon="1.47879">
        <ele>178.665128</ele>
        <time>2023-09-17T09:58:50.424Z</time>
      </trkpt>
      <trkpt lat="43.77369" lon="1.47884">
        <ele>178.693448</ele>
        <time>2023-09-17T09:58:52.424Z</time>
      </trkpt>
      <trkpt lat="43.77369" lon="1.47884">
        <ele>178.693448</ele>
        <time>2023-09-17T09:58:52.424Z</time>
      </trkpt>
      <trkpt lat="43.7737" lon="1.47889">
        <ele>178.721007</ele>
        <time>2023-09-17T09:58:53.424Z</time>
      </trkpt>
      <trkpt lat="43.77369" lon="1.47901">
        <ele>178.78852</ele>
        <time>2023-09-17T09:58:55.424Z</time>
      </trkpt>
      <trkpt lat="43.77369" lon="1.47901">
        <ele>178.78852</ele>
        <time>2023-09-17T09:58:55.424Z</time>
      </trkpt>
      <trkpt lat="43.77366" lon="1.47908">
        <ele>178.827123</ele>
        <time>2023-09-17T09:58:56.424Z</time>
      </trkpt>
      <trkpt lat="43.77366" lon="1.47908">
        <ele>178.827123</ele>
        <time>2023-09-17T09:58:56.424Z</time>
      </trkpt>
      <trkpt lat="43.77362" lon="1.47914">
        <ele>178.867845</ele>
        <time>2023-09-17T09:58:57.424Z</time>
      </trkpt>
      <trkpt lat="43.77362" lon="1.47914">
        <ele>178.867845</ele>
        <time>2023-09-17T09:58:57.424Z</time>
      </trkpt>
      <trkpt lat="43.77359" lon="1.47921">
        <ele>178.91195</ele>
        <time>2023-09-17T09:58:58.424Z</time>
      </trkpt>
      <trkpt lat="43.77359" lon="1.47921">
        <ele>178.91195</ele>
        <time>2023-09-17T09:58:58.424Z</time>
      </trkpt>
      <trkpt lat="43.77353" lon="1.47932">
        <ele>178.983751</ele>
        <time>2023-09-17T09:58:59.424Z</time>
      </trkpt>
      <trkpt lat="43.77353" lon="1.47932">
        <ele>178.983751</ele>
        <time>2023-09-17T09:58:59.424Z</time>
      </trkpt>
      <trkpt lat="43.7735" lon="1.47942">
        <ele>179.041014</ele>
        <time>2023-09-17T09:59:00.424Z</time>
      </trkpt>
      <trkpt lat="43.7735" lon="1.47942">
        <ele>179.041014</ele>
        <time>2023-09-17T09:59:00.424Z</time>
      </trkpt>
      <trkpt lat="43.77345" lon="1.47952">
        <ele>179.103798</ele>
        <time>2023-09-17T09:59:01.424Z</time>
      </trkpt>
      <trkpt lat="43.77345" lon="1.47952">
        <ele>179.103798</ele>
        <time>2023-09-17T09:59:01.424Z</time>
      </trkpt>
      <trkpt lat="43.77342" lon="1.47962">
        <ele>179.162442</ele>
        <time>2023-09-17T09:59:02.424Z</time>
      </trkpt>
      <trkpt lat="43.77342" lon="1.47962">
        <ele>179.162442</ele>
        <time>2023-09-17T09:59:02.424Z</time>
      </trkpt>
      <trkpt lat="43.77336" lon="1.47975">
        <ele>179.076884</ele>
        <time>2023-09-17T09:59:03.424Z</time>
      </trkpt>
      <trkpt lat="43.77336" lon="1.47975">
        <ele>179.076884</ele>
        <time>2023-09-17T09:59:03.424Z</time>
      </trkpt>
      <trkpt lat="43.7733" lon="1.47985">
        <ele>178.474254</ele>
        <time>2023-09-17T09:59:04.424Z</time>
      </trkpt>
      <trkpt lat="43.7733" lon="1.47985">
        <ele>178.474254</ele>
        <time>2023-09-17T09:59:04.424Z</time>
      </trkpt>
      <trkpt lat="43.77324" lon="1.47994">
        <ele>177.890528</ele>
        <time>2023-09-17T09:59:05.424Z</time>
      </trkpt>
      <trkpt lat="43.77324" lon="1.47994">
        <ele>177.890528</ele>
        <time>2023-09-17T09:59:05.424Z</time>
      </trkpt>
      <trkpt lat="43.77318" lon="1.48004">
        <ele>177.296388</ele>
        <time>2023-09-17T09:59:06.424Z</time>
      </trkpt>
      <trkpt lat="43.77318" lon="1.48004">
        <ele>177.296388</ele>
        <time>2023-09-17T09:59:06.424Z</time>
      </trkpt>
      <trkpt lat="43.77314" lon="1.48013">
        <ele>176.766446</ele>
        <time>2023-09-17T09:59:07.424Z</time>
      </trkpt>
      <trkpt lat="43.77314" lon="1.48013">
        <ele>176.766446</ele>
        <time>2023-09-17T09:59:07.424Z</time>
      </trkpt>
      <trkpt lat="43.77308" lon="1.48026">
        <ele>176.047429</ele>
        <time>2023-09-17T09:59:08.424Z</time>
      </trkpt>
      <trkpt lat="43.77308" lon="1.48026">
        <ele>176.047429</ele>
        <time>2023-09-17T09:59:08.424Z</time>
      </trkpt>
      <trkpt lat="43.77303" lon="1.48038">
        <ele>175.379755</ele>
        <time>2023-09-17T09:59:09.424Z</time>
      </trkpt>
      <trkpt lat="43.77303" lon="1.48038">
        <ele>175.379755</ele>
        <time>2023-09-17T09:59:09.424Z</time>
      </trkpt>
      <trkpt lat="43.77298" lon="1.48051">
        <ele>174.723128</ele>
        <time>2023-09-17T09:59:10.424Z</time>
      </trkpt>
      <trkpt lat="43.77298" lon="1.48051">
        <ele>174.723128</ele>
        <time>2023-09-17T09:59:10.424Z</time>
      </trkpt>
      <trkpt lat="43.77293" lon="1.48064">
        <ele>174.043105</ele>
        <time>2023-09-17T09:59:11.424Z</time>
      </trkpt>
      <trkpt lat="43.77293" lon="1.48064">
        <ele>174.043105</ele>
        <time>2023-09-17T09:59:11.424Z</time>
      </trkpt>
      <trkpt lat="43.77289" lon="1.48077">
        <ele>173.345586</ele>
        <time>2023-09-17T09:59:12.424Z</time>
      </trkpt>
      <trkpt lat="43.77289" lon="1.48077">
        <ele>173.345586</ele>
        <time>2023-09-17T09:59:12.424Z</time>
      </trkpt>
      <trkpt lat="43.77284" lon="1.48089">
        <ele>172.698561</ele>
        <time>2023-09-17T09:59:13.424Z</time>
      </trkpt>
      <trkpt lat="43.77284" lon="1.48089">
        <ele>172.698561</ele>
        <time>2023-09-17T09:59:13.424Z</time>
      </trkpt>
      <trkpt lat="43.77284" lon="1.48092">
        <ele>172.550346</ele>
        <time>2023-09-17T09:59:14.424Z</time>
      </trkpt>
      <trkpt lat="43.77284" lon="1.48092">
        <ele>172.550346</ele>
        <time>2023-09-17T09:59:14.424Z</time>
      </trkpt>
      <trkpt lat="43.77278" lon="1.4811">
        <ele>171.617723</ele>
        <time>2023-09-17T09:59:15.424Z</time>
      </trkpt>
      <trkpt lat="43.77278" lon="1.4811">
        <ele>171.617723</ele>
        <time>2023-09-17T09:59:15.424Z</time>
      </trkpt>
      <trkpt lat="43.77276" lon="1.48118">
        <ele>171.234655</ele>
        <time>2023-09-17T09:59:16.424Z</time>
      </trkpt>
      <trkpt lat="43.77276" lon="1.48118">
        <ele>171.234655</ele>
        <time>2023-09-17T09:59:16.424Z</time>
      </trkpt>
      <trkpt lat="43.77274" lon="1.48123">
        <ele>170.964546</ele>
        <time>2023-09-17T09:59:17.424Z</time>
      </trkpt>
      <trkpt lat="43.77274" lon="1.48123">
        <ele>170.964546</ele>
        <time>2023-09-17T09:59:17.424Z</time>
      </trkpt>
      <trkpt lat="43.77274" lon="1.48127">
        <ele>170.809407</ele>
        <time>2023-09-17T09:59:18.424Z</time>
      </trkpt>
      <trkpt lat="43.77274" lon="1.48127">
        <ele>170.809407</ele>
        <time>2023-09-17T09:59:18.424Z</time>
      </trkpt>
      <trkpt lat="43.77275" lon="1.4813">
        <ele>170.652098</ele>
        <time>2023-09-17T09:59:19.424Z</time>
      </trkpt>
      <trkpt lat="43.77275" lon="1.4813">
        <ele>170.652098</ele>
        <time>2023-09-17T09:59:19.424Z</time>
      </trkpt>
      <trkpt lat="43.77276" lon="1.48134">
        <ele>170.460758</ele>
        <time>2023-09-17T09:59:20.424Z</time>
      </trkpt>
      <trkpt lat="43.77276" lon="1.48134">
        <ele>170.460758</ele>
        <time>2023-09-17T09:59:20.424Z</time>
      </trkpt>
      <trkpt lat="43.77279" lon="1.48136">
        <ele>170.261385</ele>
        <time>2023-09-17T09:59:21.424Z</time>
      </trkpt>
      <trkpt lat="43.77279" lon="1.48136">
        <ele>170.261385</ele>
        <time>2023-09-17T09:59:21.424Z</time>
      </trkpt>
      <trkpt lat="43.77281" lon="1.48139">
        <ele>170.058877</ele>
        <time>2023-09-17T09:59:22.424Z</time>
      </trkpt>
      <trkpt lat="43.77284" lon="1.48141">
        <ele>169.859527</ele>
        <time>2023-09-17T09:59:23.424Z</time>
      </trkpt>
      <trkpt lat="43.77286" lon="1.48143">
        <ele>169.69596</ele>
        <time>2023-09-17T09:59:24.424Z</time>
      </trkpt>
      <trkpt lat="43.77288" lon="1.48144">
        <ele>169.530444</ele>
        <time>2023-09-17T09:59:25.424Z</time>
      </trkpt>
      <trkpt lat="43.77288" lon="1.48144">
        <ele>169.530444</ele>
        <time>2023-09-17T09:59:25.424Z</time>
      </trkpt>
      <trkpt lat="43.77291" lon="1.48146">
        <ele>169.322789</ele>
        <time>2023-09-17T09:59:26.424Z</time>
      </trkpt>
      <trkpt lat="43.77291" lon="1.48146">
        <ele>169.322789</ele>
        <time>2023-09-17T09:59:26.424Z</time>
      </trkpt>
      <trkpt lat="43.77299" lon="1.4815">
        <ele>168.767427</ele>
        <time>2023-09-17T09:59:28.424Z</time>
      </trkpt>
      <trkpt lat="43.77308" lon="1.48154">
        <ele>168.189118</ele>
        <time>2023-09-17T09:59:30.424Z</time>
      </trkpt>
      <trkpt lat="43.77308" lon="1.48154">
        <ele>168.189118</ele>
        <time>2023-09-17T09:59:30.424Z</time>
      </trkpt>
      <trkpt lat="43.77311" lon="1.48156">
        <ele>167.927647</ele>
        <time>2023-09-17T09:59:31.424Z</time>
      </trkpt>
      <trkpt lat="43.77311" lon="1.48156">
        <ele>167.927647</ele>
        <time>2023-09-17T09:59:31.424Z</time>
      </trkpt>
      <trkpt lat="43.77314" lon="1.48157">
        <ele>167.716771</ele>
        <time>2023-09-17T09:59:32.424Z</time>
      </trkpt>
      <trkpt lat="43.77314" lon="1.48157">
        <ele>167.716771</ele>
        <time>2023-09-17T09:59:32.424Z</time>
      </trkpt>
      <trkpt lat="43.77324" lon="1.48162">
        <ele>167.488733</ele>
        <time>2023-09-17T09:59:34.424Z</time>
      </trkpt>
      <trkpt lat="43.77324" lon="1.48162">
        <ele>167.488733</ele>
        <time>2023-09-17T09:59:34.424Z</time>
      </trkpt>
      <trkpt lat="43.77331" lon="1.48165">
        <ele>167.459911</ele>
        <time>2023-09-17T09:59:36.424Z</time>
      </trkpt>
      <trkpt lat="43.77331" lon="1.48165">
        <ele>167.459911</ele>
        <time>2023-09-17T09:59:36.424Z</time>
      </trkpt>
      <trkpt lat="43.77334" lon="1.48166">
        <ele>167.446597</ele>
        <time>2023-09-17T09:59:37.424Z</time>
      </trkpt>
      <trkpt lat="43.77334" lon="1.48166">
        <ele>167.446597</ele>
        <time>2023-09-17T09:59:37.424Z</time>
      </trkpt>
      <trkpt lat="43.77342" lon="1.4817">
        <ele>167.414853</ele>
        <time>2023-09-17T09:59:39.424Z</time>
      </trkpt>
      <trkpt lat="43.77342" lon="1.4817">
        <ele>167.414853</ele>
        <time>2023-09-17T09:59:39.424Z</time>
      </trkpt>
      <trkpt lat="43.77345" lon="1.48172">
        <ele>167.403606</ele>
        <time>2023-09-17T09:59:40.424Z</time>
      </trkpt>
      <trkpt lat="43.77345" lon="1.48172">
        <ele>167.403606</ele>
        <time>2023-09-17T09:59:40.424Z</time>
      </trkpt>
      <trkpt lat="43.77354" lon="1.48177">
        <ele>167.368205</ele>
        <time>2023-09-17T09:59:42.424Z</time>
      </trkpt>
      <trkpt lat="43.77354" lon="1.48177">
        <ele>167.368205</ele>
        <time>2023-09-17T09:59:42.424Z</time>
      </trkpt>
      <trkpt lat="43.77356" lon="1.48178">
        <ele>167.359072</ele>
        <time>2023-09-17T09:59:43.424Z</time>
      </trkpt>
      <trkpt lat="43.77356" lon="1.48178">
        <ele>167.359072</ele>
        <time>2023-09-17T09:59:43.424Z</time>
      </trkpt>
      <trkpt lat="43.7736" lon="1.4818">
        <ele>167.343814</ele>
        <time>2023-09-17T09:59:44.424Z</time>
      </trkpt>
      <trkpt lat="43.7736" lon="1.4818">
        <ele>167.343814</ele>
        <time>2023-09-17T09:59:44.424Z</time>
      </trkpt>
      <trkpt lat="43.77368" lon="1.48183">
        <ele>167.310889</ele>
        <time>2023-09-17T09:59:46.424Z</time>
      </trkpt>
      <trkpt lat="43.77368" lon="1.48183">
        <ele>167.310889</ele>
        <time>2023-09-17T09:59:46.424Z</time>
      </trkpt>
      <trkpt lat="43.77372" lon="1.4819">
        <ele>167.288916</ele>
        <time>2023-09-17T09:59:48.424Z</time>
      </trkpt>
      <trkpt lat="43.77372" lon="1.4819">
        <ele>167.288916</ele>
        <time>2023-09-17T09:59:48.424Z</time>
      </trkpt>
      <trkpt lat="43.77371" lon="1.48192">
        <ele>167.281711</ele>
        <time>2023-09-17T09:59:49.424Z</time>
      </trkpt>
      <trkpt lat="43.77371" lon="1.48192">
        <ele>167.281711</ele>
        <time>2023-09-17T09:59:49.424Z</time>
      </trkpt>
      <trkpt lat="43.77369" lon="1.48195">
        <ele>167.271063</ele>
        <time>2023-09-17T09:59:50.424Z</time>
      </trkpt>
      <trkpt lat="43.77369" lon="1.48195">
        <ele>167.271063</ele>
        <time>2023-09-17T09:59:50.424Z</time>
      </trkpt>
      <trkpt lat="43.77366" lon="1.48194">
        <ele>167.261271</ele>
        <time>2023-09-17T09:59:51.424Z</time>
      </trkpt>
      <trkpt lat="43.77362" lon="1.48194">
        <ele>167.245504</ele>
        <time>2023-09-17T09:59:52.424Z</time>
      </trkpt>
      <trkpt lat="43.77362" lon="1.48194">
        <ele>167.245504</ele>
        <time>2023-09-17T09:59:52.424Z</time>
      </trkpt>
      <trkpt lat="43.77352" lon="1.48191">
        <ele>167.206053</ele>
        <time>2023-09-17T09:59:54.424Z</time>
      </trkpt>
      <trkpt lat="43.77352" lon="1.48191">
        <ele>167.206053</ele>
        <time>2023-09-17T09:59:54.424Z</time>
      </trkpt>
      <trkpt lat="43.77347" lon="1.4819">
        <ele>167.187007</ele>
        <time>2023-09-17T09:59:55.424Z</time>
      </trkpt>
      <trkpt lat="43.77342" lon="1.4819">
        <ele>167.169665</ele>
        <time>2023-09-17T09:59:56.424Z</time>
      </trkpt>
      <trkpt lat="43.77342" lon="1.4819">
        <ele>167.169665</ele>
        <time>2023-09-17T09:59:56.424Z</time>
      </trkpt>
      <trkpt lat="43.77335" lon="1.4819">
        <ele>167.142619</ele>
        <time>2023-09-17T09:59:57.424Z</time>
      </trkpt>
      <trkpt lat="43.77329" lon="1.48193">
        <ele>167.118412</ele>
        <time>2023-09-17T09:59:58.424Z</time>
      </trkpt>
      <trkpt lat="43.77329" lon="1.48193">
        <ele>167.118412</ele>
        <time>2023-09-17T09:59:58.424Z</time>
      </trkpt>
      <trkpt lat="43.77324" lon="1.48198">
        <ele>167.095104</ele>
        <time>2023-09-17T09:59:59.424Z</time>
      </trkpt>
      <trkpt lat="43.77324" lon="1.48198">
        <ele>167.095104</ele>
        <time>2023-09-17T09:59:59.424Z</time>
      </trkpt>
      <trkpt lat="43.7732" lon="1.48206">
        <ele>167.068697</ele>
        <time>2023-09-17T10:00:00.424Z</time>
      </trkpt>
      <trkpt lat="43.7732" lon="1.48206">
        <ele>167.068697</ele>
        <time>2023-09-17T10:00:00.424Z</time>
      </trkpt>
      <trkpt lat="43.77319" lon="1.48212">
        <ele>167.052968</ele>
        <time>2023-09-17T10:00:01.424Z</time>
      </trkpt>
      <trkpt lat="43.77319" lon="1.48212">
        <ele>167.052968</ele>
        <time>2023-09-17T10:00:01.424Z</time>
      </trkpt>
      <trkpt lat="43.77318" lon="1.48226">
        <ele>167.014488</ele>
        <time>2023-09-17T10:00:02.424Z</time>
      </trkpt>
      <trkpt lat="43.77318" lon="1.48226">
        <ele>167.014488</ele>
        <time>2023-09-17T10:00:02.424Z</time>
      </trkpt>
      <trkpt lat="43.77319" lon="1.48236">
        <ele>166.987281</ele>
        <time>2023-09-17T10:00:03.424Z</time>
      </trkpt>
      <trkpt lat="43.77319" lon="1.48236">
        <ele>166.987281</ele>
        <time>2023-09-17T10:00:03.424Z</time>
      </trkpt>
      <trkpt lat="43.77322" lon="1.48245">
        <ele>166.960232</ele>
        <time>2023-09-17T10:00:04.424Z</time>
      </trkpt>
      <trkpt lat="43.77328" lon="1.48252">
        <ele>166.932929</ele>
        <time>2023-09-17T10:00:05.424Z</time>
      </trkpt>
      <trkpt lat="43.77328" lon="1.48252">
        <ele>166.932929</ele>
        <time>2023-09-17T10:00:05.424Z</time>
      </trkpt>
      <trkpt lat="43.77334" lon="1.48256">
        <ele>166.906232</ele>
        <time>2023-09-17T10:00:06.424Z</time>
      </trkpt>
      <trkpt lat="43.77334" lon="1.48256">
        <ele>166.906232</ele>
        <time>2023-09-17T10:00:06.424Z</time>
      </trkpt>
      <trkpt lat="43.77341" lon="1.48258">
        <ele>166.879167</ele>
        <time>2023-09-17T10:00:07.424Z</time>
      </trkpt>
      <trkpt lat="43.77341" lon="1.48258">
        <ele>166.879167</ele>
        <time>2023-09-17T10:00:07.424Z</time>
      </trkpt>
      <trkpt lat="43.77349" lon="1.48261">
        <ele>166.848605</ele>
        <time>2023-09-17T10:00:08.424Z</time>
      </trkpt>
      <trkpt lat="43.77349" lon="1.48261">
        <ele>166.848605</ele>
        <time>2023-09-17T10:00:08.424Z</time>
      </trkpt>
      <trkpt lat="43.77357" lon="1.48262">
        <ele>166.539391</ele>
        <time>2023-09-17T10:00:09.424Z</time>
      </trkpt>
      <trkpt lat="43.77357" lon="1.48262">
        <ele>166.539391</ele>
        <time>2023-09-17T10:00:09.424Z</time>
      </trkpt>
      <trkpt lat="43.77366" lon="1.48265">
        <ele>166.044118</ele>
        <time>2023-09-17T10:00:10.424Z</time>
      </trkpt>
      <trkpt lat="43.77366" lon="1.48265">
        <ele>166.044118</ele>
        <time>2023-09-17T10:00:10.424Z</time>
      </trkpt>
      <trkpt lat="43.77374" lon="1.48268">
        <ele>165.567018</ele>
        <time>2023-09-17T10:00:11.424Z</time>
      </trkpt>
      <trkpt lat="43.77374" lon="1.48268">
        <ele>165.567018</ele>
        <time>2023-09-17T10:00:11.424Z</time>
      </trkpt>
      <trkpt lat="43.77383" lon="1.48271">
        <ele>165.066741</ele>
        <time>2023-09-17T10:00:12.424Z</time>
      </trkpt>
      <trkpt lat="43.77383" lon="1.48271">
        <ele>165.066741</ele>
        <time>2023-09-17T10:00:12.424Z</time>
      </trkpt>
      <trkpt lat="43.77391" lon="1.48275">
        <ele>164.573583</ele>
        <time>2023-09-17T10:00:13.424Z</time>
      </trkpt>
      <trkpt lat="43.77391" lon="1.48275">
        <ele>164.573583</ele>
        <time>2023-09-17T10:00:13.424Z</time>
      </trkpt>
      <trkpt lat="43.774" lon="1.4828">
        <ele>164.070262</ele>
        <time>2023-09-17T10:00:14.424Z</time>
      </trkpt>
      <trkpt lat="43.774" lon="1.4828">
        <ele>164.070262</ele>
        <time>2023-09-17T10:00:14.424Z</time>
      </trkpt>
      <trkpt lat="43.77408" lon="1.48286">
        <ele>163.580553</ele>
        <time>2023-09-17T10:00:15.424Z</time>
      </trkpt>
      <trkpt lat="43.77408" lon="1.48286">
        <ele>163.580553</ele>
        <time>2023-09-17T10:00:15.424Z</time>
      </trkpt>
      <trkpt lat="43.77416" lon="1.48292">
        <ele>163.053049</ele>
        <time>2023-09-17T10:00:16.424Z</time>
      </trkpt>
      <trkpt lat="43.77416" lon="1.48292">
        <ele>163.053049</ele>
        <time>2023-09-17T10:00:16.424Z</time>
      </trkpt>
      <trkpt lat="43.77424" lon="1.48299">
        <ele>162.534714</ele>
        <time>2023-09-17T10:00:17.424Z</time>
      </trkpt>
      <trkpt lat="43.77424" lon="1.48299">
        <ele>162.534714</ele>
        <time>2023-09-17T10:00:17.424Z</time>
      </trkpt>
      <trkpt lat="43.77433" lon="1.48307">
        <ele>161.951234</ele>
        <time>2023-09-17T10:00:18.424Z</time>
      </trkpt>
      <trkpt lat="43.77433" lon="1.48307">
        <ele>161.951234</ele>
        <time>2023-09-17T10:00:18.424Z</time>
      </trkpt>
      <trkpt lat="43.7744" lon="1.48314">
        <ele>161.451676</ele>
        <time>2023-09-17T10:00:19.424Z</time>
      </trkpt>
      <trkpt lat="43.7744" lon="1.48314">
        <ele>161.451676</ele>
        <time>2023-09-17T10:00:19.424Z</time>
      </trkpt>
      <trkpt lat="43.77448" lon="1.48323">
        <ele>160.882525</ele>
        <time>2023-09-17T10:00:20.424Z</time>
      </trkpt>
      <trkpt lat="43.77448" lon="1.48323">
        <ele>160.882525</ele>
        <time>2023-09-17T10:00:20.424Z</time>
      </trkpt>
      <trkpt lat="43.77456" lon="1.48333">
        <ele>160.290092</ele>
        <time>2023-09-17T10:00:21.424Z</time>
      </trkpt>
      <trkpt lat="43.77456" lon="1.48333">
        <ele>160.290092</ele>
        <time>2023-09-17T10:00:21.424Z</time>
      </trkpt>
      <trkpt lat="43.77463" lon="1.48344">
        <ele>159.726423</ele>
        <time>2023-09-17T10:00:21.424Z</time>
      </trkpt>
      <trkpt lat="43.77463" lon="1.48344">
        <ele>159.726423</ele>
        <time>2023-09-17T10:00:21.424Z</time>
      </trkpt>
      <trkpt lat="43.77467" lon="1.48355">
        <ele>159.212568</ele>
        <time>2023-09-17T10:00:23.424Z</time>
      </trkpt>
      <trkpt lat="43.77467" lon="1.48355">
        <ele>159.212568</ele>
        <time>2023-09-17T10:00:23.424Z</time>
      </trkpt>
      <trkpt lat="43.7747" lon="1.48371">
        <ele>158.580421</ele>
        <time>2023-09-17T10:00:24.424Z</time>
      </trkpt>
      <trkpt lat="43.7747" lon="1.48371">
        <ele>158.580421</ele>
        <time>2023-09-17T10:00:24.424Z</time>
      </trkpt>
      <trkpt lat="43.7747" lon="1.48377">
        <ele>158.31726</ele>
        <time>2023-09-17T10:00:25.424Z</time>
      </trkpt>
      <trkpt lat="43.7747" lon="1.48377">
        <ele>158.31726</ele>
        <time>2023-09-17T10:00:25.424Z</time>
      </trkpt>
      <trkpt lat="43.77467" lon="1.48403">
        <ele>157.27547</ele>
        <time>2023-09-17T10:00:26.424Z</time>
      </trkpt>
      <trkpt lat="43.77467" lon="1.48403">
        <ele>157.27547</ele>
        <time>2023-09-17T10:00:26.424Z</time>
      </trkpt>
      <trkpt lat="43.77461" lon="1.48417">
        <ele>156.918669</ele>
        <time>2023-09-17T10:00:27.424Z</time>
      </trkpt>
      <trkpt lat="43.77461" lon="1.48417">
        <ele>156.918669</ele>
        <time>2023-09-17T10:00:27.424Z</time>
      </trkpt>
      <trkpt lat="43.77454" lon="1.48429">
        <ele>156.946877</ele>
        <time>2023-09-17T10:00:28.424Z</time>
      </trkpt>
      <trkpt lat="43.77454" lon="1.48429">
        <ele>156.946877</ele>
        <time>2023-09-17T10:00:28.424Z</time>
      </trkpt>
      <trkpt lat="43.77437" lon="1.48447">
        <ele>157.000588</ele>
        <time>2023-09-17T10:00:29.424Z</time>
      </trkpt>
      <trkpt lat="43.77437" lon="1.48447">
        <ele>157.000588</ele>
        <time>2023-09-17T10:00:29.424Z</time>
      </trkpt>
      <trkpt lat="43.77428" lon="1.48453">
        <ele>157.026152</ele>
        <time>2023-09-17T10:00:31.424Z</time>
      </trkpt>
      <trkpt lat="43.77428" lon="1.48453">
        <ele>157.026152</ele>
        <time>2023-09-17T10:00:31.424Z</time>
      </trkpt>
      <trkpt lat="43.7741" lon="1.48459">
        <ele>157.073713</ele>
        <time>2023-09-17T10:00:32.424Z</time>
      </trkpt>
      <trkpt lat="43.7741" lon="1.48459">
        <ele>157.073713</ele>
        <time>2023-09-17T10:00:32.424Z</time>
      </trkpt>
      <trkpt lat="43.77395" lon="1.48458">
        <ele>157.112184</ele>
        <time>2023-09-17T10:00:34.424Z</time>
      </trkpt>
      <trkpt lat="43.77395" lon="1.48458">
        <ele>157.112184</ele>
        <time>2023-09-17T10:00:34.424Z</time>
      </trkpt>
      <trkpt lat="43.77388" lon="1.48458">
        <ele>157.12761</ele>
        <time>2023-09-17T10:00:36.424Z</time>
      </trkpt>
      <trkpt lat="43.77388" lon="1.48458">
        <ele>157.12761</ele>
        <time>2023-09-17T10:00:36.424Z</time>
      </trkpt>
      <trkpt lat="43.77384" lon="1.48459">
        <ele>157.139603</ele>
        <time>2023-09-17T10:00:37.424Z</time>
      </trkpt>
      <trkpt lat="43.77384" lon="1.48459">
        <ele>157.139603</ele>
        <time>2023-09-17T10:00:37.424Z</time>
      </trkpt>
      <trkpt lat="43.7738" lon="1.48462">
        <ele>157.150755</ele>
        <time>2023-09-17T10:00:38.424Z</time>
      </trkpt>
      <trkpt lat="43.7738" lon="1.48462">
        <ele>157.150755</ele>
        <time>2023-09-17T10:00:38.424Z</time>
      </trkpt>
      <trkpt lat="43.77377" lon="1.48468">
        <ele>157.162302</ele>
        <time>2023-09-17T10:00:39.424Z</time>
      </trkpt>
      <trkpt lat="43.77377" lon="1.48468">
        <ele>157.162302</ele>
        <time>2023-09-17T10:00:39.424Z</time>
      </trkpt>
      <trkpt lat="43.77376" lon="1.48473">
        <ele>157.173251</ele>
        <time>2023-09-17T10:00:40.424Z</time>
      </trkpt>
      <trkpt lat="43.77376" lon="1.48473">
        <ele>157.173251</ele>
        <time>2023-09-17T10:00:40.424Z</time>
      </trkpt>
      <trkpt lat="43.77376" lon="1.4848">
        <ele>157.184572</ele>
        <time>2023-09-17T10:00:41.424Z</time>
      </trkpt>
      <trkpt lat="43.77376" lon="1.4848">
        <ele>157.184572</ele>
        <time>2023-09-17T10:00:41.424Z</time>
      </trkpt>
      <trkpt lat="43.77376" lon="1.48493">
        <ele>157.209404</ele>
        <time>2023-09-17T10:00:43.424Z</time>
      </trkpt>
      <trkpt lat="43.77376" lon="1.48493">
        <ele>157.209404</ele>
        <time>2023-09-17T10:00:43.424Z</time>
      </trkpt>
      <trkpt lat="43.77376" lon="1.48508">
        <ele>157.235716</ele>
        <time>2023-09-17T10:00:45.424Z</time>
      </trkpt>
      <trkpt lat="43.77376" lon="1.48508">
        <ele>157.235716</ele>
        <time>2023-09-17T10:00:45.424Z</time>
      </trkpt>
      <trkpt lat="43.77374" lon="1.48521">
        <ele>157.260836</ele>
        <time>2023-09-17T10:00:46.424Z</time>
      </trkpt>
      <trkpt lat="43.77374" lon="1.48521">
        <ele>157.260836</ele>
        <time>2023-09-17T10:00:46.424Z</time>
      </trkpt>
      <trkpt lat="43.77373" lon="1.48528">
        <ele>157.273263</ele>
        <time>2023-09-17T10:00:47.424Z</time>
      </trkpt>
      <trkpt lat="43.77373" lon="1.48528">
        <ele>157.273263</ele>
        <time>2023-09-17T10:00:47.424Z</time>
      </trkpt>
      <trkpt lat="43.77372" lon="1.48534">
        <ele>157.285376</ele>
        <time>2023-09-17T10:00:48.424Z</time>
      </trkpt>
      <trkpt lat="43.7737" lon="1.4854">
        <ele>157.297506</ele>
        <time>2023-09-17T10:00:50.424Z</time>
      </trkpt>
      <trkpt lat="43.7737" lon="1.4854">
        <ele>157.297506</ele>
        <time>2023-09-17T10:00:50.424Z</time>
      </trkpt>
      <trkpt lat="43.77367" lon="1.48546">
        <ele>157.309269</ele>
        <time>2023-09-17T10:00:51.424Z</time>
      </trkpt>
      <trkpt lat="43.77367" lon="1.48546">
        <ele>157.309269</ele>
        <time>2023-09-17T10:00:51.424Z</time>
      </trkpt>
      <trkpt lat="43.77366" lon="1.48551">
        <ele>157.320401</ele>
        <time>2023-09-17T10:00:52.424Z</time>
      </trkpt>
      <trkpt lat="43.77366" lon="1.48551">
        <ele>157.320401</ele>
        <time>2023-09-17T10:00:52.424Z</time>
      </trkpt>
      <trkpt lat="43.77363" lon="1.48557">
        <ele>157.332006</ele>
        <time>2023-09-17T10:00:53.424Z</time>
      </trkpt>
      <trkpt lat="43.77363" lon="1.48557">
        <ele>157.332006</ele>
        <time>2023-09-17T10:00:53.424Z</time>
      </trkpt>
      <trkpt lat="43.77361" lon="1.48562">
        <ele>157.342323</ele>
        <time>2023-09-17T10:00:54.424Z</time>
      </trkpt>
      <trkpt lat="43.77361" lon="1.48562">
        <ele>157.342323</ele>
        <time>2023-09-17T10:00:54.424Z</time>
      </trkpt>
      <trkpt lat="43.77357" lon="1.48573">
        <ele>157.388902</ele>
        <time>2023-09-17T10:00:55.424Z</time>
      </trkpt>
      <trkpt lat="43.77357" lon="1.48573">
        <ele>157.388902</ele>
        <time>2023-09-17T10:00:55.424Z</time>
      </trkpt>
      <trkpt lat="43.77355" lon="1.48579">
        <ele>157.451682</ele>
        <time>2023-09-17T10:00:56.424Z</time>
      </trkpt>
      <trkpt lat="43.77355" lon="1.48579">
        <ele>157.451682</ele>
        <time>2023-09-17T10:00:56.424Z</time>
      </trkpt>
      <trkpt lat="43.77352" lon="1.48585">
        <ele>157.522379</ele>
        <time>2023-09-17T10:00:57.424Z</time>
      </trkpt>
      <trkpt lat="43.77352" lon="1.48585">
        <ele>157.522379</ele>
        <time>2023-09-17T10:00:57.424Z</time>
      </trkpt>
      <trkpt lat="43.7735" lon="1.4859">
        <ele>157.581551</ele>
        <time>2023-09-17T10:00:58.424Z</time>
      </trkpt>
      <trkpt lat="43.7735" lon="1.4859">
        <ele>157.581551</ele>
        <time>2023-09-17T10:00:58.424Z</time>
      </trkpt>
      <trkpt lat="43.77348" lon="1.48596">
        <ele>157.646152</ele>
        <time>2023-09-17T10:00:59.424Z</time>
      </trkpt>
      <trkpt lat="43.77346" lon="1.48602">
        <ele>157.713504</ele>
        <time>2023-09-17T10:01:00.424Z</time>
      </trkpt>
      <trkpt lat="43.77345" lon="1.48608">
        <ele>157.77902</ele>
        <time>2023-09-17T10:01:01.424Z</time>
      </trkpt>
      <trkpt lat="43.77342" lon="1.48615">
        <ele>157.851404</ele>
        <time>2023-09-17T10:01:02.424Z</time>
      </trkpt>
      <trkpt lat="43.77342" lon="1.48615">
        <ele>157.851404</ele>
        <time>2023-09-17T10:01:02.424Z</time>
      </trkpt>
      <trkpt lat="43.7734" lon="1.48621">
        <ele>157.924688</ele>
        <time>2023-09-17T10:01:03.424Z</time>
      </trkpt>
      <trkpt lat="43.77338" lon="1.48628">
        <ele>157.992962</ele>
        <time>2023-09-17T10:01:04.424Z</time>
      </trkpt>
      <trkpt lat="43.77336" lon="1.48634">
        <ele>158.067147</ele>
        <time>2023-09-17T10:01:05.424Z</time>
      </trkpt>
      <trkpt lat="43.77334" lon="1.48642">
        <ele>158.143804</ele>
        <time>2023-09-17T10:01:06.424Z</time>
      </trkpt>
      <trkpt lat="43.77332" lon="1.48648">
        <ele>158.21395</ele>
        <time>2023-09-17T10:01:07.424Z</time>
      </trkpt>
      <trkpt lat="43.77332" lon="1.48648">
        <ele>158.21395</ele>
        <time>2023-09-17T10:01:07.424Z</time>
      </trkpt>
      <trkpt lat="43.77331" lon="1.48656">
        <ele>158.289502</ele>
        <time>2023-09-17T10:01:08.424Z</time>
      </trkpt>
      <trkpt lat="43.7733" lon="1.48663">
        <ele>158.361361</ele>
        <time>2023-09-17T10:01:09.424Z</time>
      </trkpt>
      <trkpt lat="43.7733" lon="1.48663">
        <ele>158.361361</ele>
        <time>2023-09-17T10:01:09.424Z</time>
      </trkpt>
      <trkpt lat="43.7733" lon="1.4867">
        <ele>158.435567</ele>
        <time>2023-09-17T10:01:10.424Z</time>
      </trkpt>
      <trkpt lat="43.7733" lon="1.48678">
        <ele>158.516756</ele>
        <time>2023-09-17T10:01:11.424Z</time>
      </trkpt>
      <trkpt lat="43.7733" lon="1.48678">
        <ele>158.516756</ele>
        <time>2023-09-17T10:01:11.424Z</time>
      </trkpt>
      <trkpt lat="43.7733" lon="1.48685">
        <ele>158.587756</ele>
        <time>2023-09-17T10:01:12.424Z</time>
      </trkpt>
      <trkpt lat="43.7733" lon="1.48693">
        <ele>158.662756</ele>
        <time>2023-09-17T10:01:13.424Z</time>
      </trkpt>
      <trkpt lat="43.7733" lon="1.48701">
        <ele>158.741755</ele>
        <time>2023-09-17T10:01:14.424Z</time>
      </trkpt>
      <trkpt lat="43.7733" lon="1.48701">
        <ele>158.741755</ele>
        <time>2023-09-17T10:01:14.424Z</time>
      </trkpt>
      <trkpt lat="43.77329" lon="1.48709">
        <ele>158.821863</ele>
        <time>2023-09-17T10:01:15.424Z</time>
      </trkpt>
      <trkpt lat="43.77329" lon="1.48717">
        <ele>158.900862</ele>
        <time>2023-09-17T10:01:16.424Z</time>
      </trkpt>
      <trkpt lat="43.77329" lon="1.48717">
        <ele>158.900862</ele>
        <time>2023-09-17T10:01:16.424Z</time>
      </trkpt>
      <trkpt lat="43.77329" lon="1.48724">
        <ele>158.971081</ele>
        <time>2023-09-17T10:01:17.424Z</time>
      </trkpt>
      <trkpt lat="43.77329" lon="1.48731">
        <ele>159.043293</ele>
        <time>2023-09-17T10:01:18.424Z</time>
      </trkpt>
      <trkpt lat="43.77328" lon="1.4874">
        <ele>159.13695</ele>
        <time>2023-09-17T10:01:19.424Z</time>
      </trkpt>
      <trkpt lat="43.77327" lon="1.48748">
        <ele>159.21555</ele>
        <time>2023-09-17T10:01:20.424Z</time>
      </trkpt>
      <trkpt lat="43.77326" lon="1.48756">
        <ele>159.292353</ele>
        <time>2023-09-17T10:01:21.424Z</time>
      </trkpt>
      <trkpt lat="43.77326" lon="1.48756">
        <ele>159.292353</ele>
        <time>2023-09-17T10:01:21.424Z</time>
      </trkpt>
      <trkpt lat="43.77325" lon="1.48763">
        <ele>159.370845</ele>
        <time>2023-09-17T10:01:22.424Z</time>
      </trkpt>
      <trkpt lat="43.77324" lon="1.4877">
        <ele>159.434812</ele>
        <time>2023-09-17T10:01:23.424Z</time>
      </trkpt>
      <trkpt lat="43.77323" lon="1.48779">
        <ele>159.534977</ele>
        <time>2023-09-17T10:01:24.424Z</time>
      </trkpt>
      <trkpt lat="43.77322" lon="1.48787">
        <ele>159.611796</ele>
        <time>2023-09-17T10:01:25.424Z</time>
      </trkpt>
      <trkpt lat="43.77321" lon="1.48794">
        <ele>159.685772</ele>
        <time>2023-09-17T10:01:26.424Z</time>
      </trkpt>
      <trkpt lat="43.77319" lon="1.48801">
        <ele>159.76167</ele>
        <time>2023-09-17T10:01:27.424Z</time>
      </trkpt>
      <trkpt lat="43.77319" lon="1.48801">
        <ele>159.76167</ele>
        <time>2023-09-17T10:01:27.424Z</time>
      </trkpt>
      <trkpt lat="43.77317" lon="1.48809">
        <ele>159.839874</ele>
        <time>2023-09-17T10:01:28.424Z</time>
      </trkpt>
      <trkpt lat="43.77316" lon="1.48816">
        <ele>159.858164</ele>
        <time>2023-09-17T10:01:30.424Z</time>
      </trkpt>
      <trkpt lat="43.77316" lon="1.48816">
        <ele>159.858164</ele>
        <time>2023-09-17T10:01:30.424Z</time>
      </trkpt>
      <trkpt lat="43.77314" lon="1.48824">
        <ele>159.866614</ele>
        <time>2023-09-17T10:01:30.424Z</time>
      </trkpt>
      <trkpt lat="43.77314" lon="1.48824">
        <ele>159.866614</ele>
        <time>2023-09-17T10:01:30.424Z</time>
      </trkpt>
      <trkpt lat="43.77312" lon="1.48831">
        <ele>159.874292</ele>
        <time>2023-09-17T10:01:32.424Z</time>
      </trkpt>
      <trkpt lat="43.77312" lon="1.48831">
        <ele>159.874292</ele>
        <time>2023-09-17T10:01:32.424Z</time>
      </trkpt>
      <trkpt lat="43.77309" lon="1.48838">
        <ele>159.882648</ele>
        <time>2023-09-17T10:01:32.424Z</time>
      </trkpt>
      <trkpt lat="43.77307" lon="1.48846">
        <ele>159.891146</ele>
        <time>2023-09-17T10:01:33.424Z</time>
      </trkpt>
      <trkpt lat="43.77307" lon="1.48846">
        <ele>159.891146</ele>
        <time>2023-09-17T10:01:33.424Z</time>
      </trkpt>
      <trkpt lat="43.77304" lon="1.48853">
        <ele>159.8994</ele>
        <time>2023-09-17T10:01:35.424Z</time>
      </trkpt>
      <trkpt lat="43.77301" lon="1.4886">
        <ele>159.907807</ele>
        <time>2023-09-17T10:01:35.424Z</time>
      </trkpt>
      <trkpt lat="43.77299" lon="1.48868">
        <ele>159.916034</ele>
        <time>2023-09-17T10:01:37.424Z</time>
      </trkpt>
      <trkpt lat="43.77296" lon="1.48875">
        <ele>159.924996</ele>
        <time>2023-09-17T10:01:37.424Z</time>
      </trkpt>
      <trkpt lat="43.77296" lon="1.48875">
        <ele>159.924996</ele>
        <time>2023-09-17T10:01:37.424Z</time>
      </trkpt>
      <trkpt lat="43.77293" lon="1.48882">
        <ele>159.933237</ele>
        <time>2023-09-17T10:01:39.424Z</time>
      </trkpt>
      <trkpt lat="43.7729" lon="1.48889">
        <ele>159.941317</ele>
        <time>2023-09-17T10:01:39.424Z</time>
      </trkpt>
      <trkpt lat="43.77286" lon="1.48896">
        <ele>159.949703</ele>
        <time>2023-09-17T10:01:41.424Z</time>
      </trkpt>
      <trkpt lat="43.77283" lon="1.48902">
        <ele>159.957525</ele>
        <time>2023-09-17T10:01:41.424Z</time>
      </trkpt>
      <trkpt lat="43.7728" lon="1.48909">
        <ele>159.965996</ele>
        <time>2023-09-17T10:01:43.424Z</time>
      </trkpt>
      <trkpt lat="43.77277" lon="1.48916">
        <ele>159.973811</ele>
        <time>2023-09-17T10:01:43.424Z</time>
      </trkpt>
      <trkpt lat="43.77274" lon="1.48922">
        <ele>159.981463</ele>
        <time>2023-09-17T10:01:44.424Z</time>
      </trkpt>
      <trkpt lat="43.77274" lon="1.48922">
        <ele>159.981463</ele>
        <time>2023-09-17T10:01:44.424Z</time>
      </trkpt>
      <trkpt lat="43.7727" lon="1.48929">
        <ele>159.99019</ele>
        <time>2023-09-17T10:01:45.424Z</time>
      </trkpt>
      <trkpt lat="43.77266" lon="1.48935">
        <ele>159.998247</ele>
        <time>2023-09-17T10:01:46.424Z</time>
      </trkpt>
      <trkpt lat="43.77263" lon="1.48941">
        <ele>160.006571</ele>
        <time>2023-09-17T10:01:48.424Z</time>
      </trkpt>
      <trkpt lat="43.77259" lon="1.48948">
        <ele>160.014895</ele>
        <time>2023-09-17T10:01:48.424Z</time>
      </trkpt>
      <trkpt lat="43.77259" lon="1.48948">
        <ele>160.014895</ele>
        <time>2023-09-17T10:01:48.424Z</time>
      </trkpt>
      <trkpt lat="43.77255" lon="1.48954">
        <ele>160.02359</ele>
        <time>2023-09-17T10:01:49.424Z</time>
      </trkpt>
      <trkpt lat="43.77251" lon="1.4896">
        <ele>160.03176</ele>
        <time>2023-09-17T10:01:50.424Z</time>
      </trkpt>
      <trkpt lat="43.77247" lon="1.48966">
        <ele>160.039552</ele>
        <time>2023-09-17T10:01:52.424Z</time>
      </trkpt>
      <trkpt lat="43.77243" lon="1.48972">
        <ele>160.047738</ele>
        <time>2023-09-17T10:01:53.424Z</time>
      </trkpt>
      <trkpt lat="43.77243" lon="1.48972">
        <ele>160.047738</ele>
        <time>2023-09-17T10:01:53.424Z</time>
      </trkpt>
      <trkpt lat="43.7724" lon="1.48978">
        <ele>160.055553</ele>
        <time>2023-09-17T10:01:54.424Z</time>
      </trkpt>
      <trkpt lat="43.7724" lon="1.48978">
        <ele>160.055553</ele>
        <time>2023-09-17T10:01:54.424Z</time>
      </trkpt>
      <trkpt lat="43.77235" lon="1.48984">
        <ele>160.06455</ele>
        <time>2023-09-17T10:01:55.424Z</time>
      </trkpt>
      <trkpt lat="43.77235" lon="1.48984">
        <ele>160.06455</ele>
        <time>2023-09-17T10:01:55.424Z</time>
      </trkpt>
      <trkpt lat="43.77232" lon="1.48992">
        <ele>160.073189</ele>
        <time>2023-09-17T10:01:56.424Z</time>
      </trkpt>
      <trkpt lat="43.77229" lon="1.48998">
        <ele>160.081657</ele>
        <time>2023-09-17T10:01:56.424Z</time>
      </trkpt>
      <trkpt lat="43.77225" lon="1.49006">
        <ele>160.090381</ele>
        <time>2023-09-17T10:01:58.424Z</time>
      </trkpt>
      <trkpt lat="43.77221" lon="1.49013">
        <ele>160.099342</ele>
        <time>2023-09-17T10:01:59.424Z</time>
      </trkpt>
      <trkpt lat="43.77218" lon="1.49019">
        <ele>160.080206</ele>
        <time>2023-09-17T10:02:00.424Z</time>
      </trkpt>
      <trkpt lat="43.77218" lon="1.49019">
        <ele>160.080206</ele>
        <time>2023-09-17T10:02:00.424Z</time>
      </trkpt>
      <trkpt lat="43.77214" lon="1.49026">
        <ele>160.013517</ele>
        <time>2023-09-17T10:02:01.424Z</time>
      </trkpt>
      <trkpt lat="43.77211" lon="1.49033">
        <ele>159.948089</ele>
        <time>2023-09-17T10:02:02.424Z</time>
      </trkpt>
      <trkpt lat="43.77208" lon="1.49041">
        <ele>159.878728</ele>
        <time>2023-09-17T10:02:03.424Z</time>
      </trkpt>
      <trkpt lat="43.77208" lon="1.49041">
        <ele>159.878728</ele>
        <time>2023-09-17T10:02:03.424Z</time>
      </trkpt>
      <trkpt lat="43.77205" lon="1.49048">
        <ele>159.812387</ele>
        <time>2023-09-17T10:02:04.424Z</time>
      </trkpt>
      <trkpt lat="43.77202" lon="1.49056">
        <ele>159.745342</ele>
        <time>2023-09-17T10:02:04.424Z</time>
      </trkpt>
      <trkpt lat="43.772" lon="1.49064">
        <ele>159.677898</ele>
        <time>2023-09-17T10:02:06.424Z</time>
      </trkpt>
      <trkpt lat="43.77198" lon="1.49072">
        <ele>159.611642</ele>
        <time>2023-09-17T10:02:06.424Z</time>
      </trkpt>
      <trkpt lat="43.77197" lon="1.49081">
        <ele>159.541949</ele>
        <time>2023-09-17T10:02:07.424Z</time>
      </trkpt>
      <trkpt lat="43.77195" lon="1.49089">
        <ele>159.474497</ele>
        <time>2023-09-17T10:02:09.424Z</time>
      </trkpt>
      <trkpt lat="43.77193" lon="1.49097">
        <ele>159.406298</ele>
        <time>2023-09-17T10:02:10.424Z</time>
      </trkpt>
      <trkpt lat="43.7719" lon="1.49105">
        <ele>159.338126</ele>
        <time>2023-09-17T10:02:10.424Z</time>
      </trkpt>
      <trkpt lat="43.77187" lon="1.49113">
        <ele>159.270439</ele>
        <time>2023-09-17T10:02:11.424Z</time>
      </trkpt>
      <trkpt lat="43.77187" lon="1.49113">
        <ele>159.270439</ele>
        <time>2023-09-17T10:02:11.424Z</time>
      </trkpt>
      <trkpt lat="43.77184" lon="1.4912">
        <ele>159.2024</ele>
        <time>2023-09-17T10:02:12.424Z</time>
      </trkpt>
      <trkpt lat="43.77184" lon="1.4912">
        <ele>159.2024</ele>
        <time>2023-09-17T10:02:12.424Z</time>
      </trkpt>
      <trkpt lat="43.77181" lon="1.49127">
        <ele>159.136323</ele>
        <time>2023-09-17T10:02:14.424Z</time>
      </trkpt>
      <trkpt lat="43.77181" lon="1.49127">
        <ele>159.136323</ele>
        <time>2023-09-17T10:02:14.424Z</time>
      </trkpt>
      <trkpt lat="43.77176" lon="1.49134">
        <ele>159.068004</ele>
        <time>2023-09-17T10:02:14.424Z</time>
      </trkpt>
      <trkpt lat="43.77173" lon="1.4914">
        <ele>159.004903</ele>
        <time>2023-09-17T10:02:15.424Z</time>
      </trkpt>
      <trkpt lat="43.77173" lon="1.4914">
        <ele>159.004903</ele>
        <time>2023-09-17T10:02:15.424Z</time>
      </trkpt>
      <trkpt lat="43.77168" lon="1.49146">
        <ele>158.938886</ele>
        <time>2023-09-17T10:02:17.424Z</time>
      </trkpt>
      <trkpt lat="43.77168" lon="1.49146">
        <ele>158.938886</ele>
        <time>2023-09-17T10:02:17.424Z</time>
      </trkpt>
      <trkpt lat="43.77164" lon="1.49152">
        <ele>158.873994</ele>
        <time>2023-09-17T10:02:18.424Z</time>
      </trkpt>
      <trkpt lat="43.77164" lon="1.49152">
        <ele>158.873994</ele>
        <time>2023-09-17T10:02:18.424Z</time>
      </trkpt>
      <trkpt lat="43.7716" lon="1.49158">
        <ele>158.809658</ele>
        <time>2023-09-17T10:02:19.424Z</time>
      </trkpt>
      <trkpt lat="43.77156" lon="1.49164">
        <ele>158.744205</ele>
        <time>2023-09-17T10:02:20.424Z</time>
      </trkpt>
      <trkpt lat="43.77156" lon="1.49164">
        <ele>158.744205</ele>
        <time>2023-09-17T10:02:20.424Z</time>
      </trkpt>
      <trkpt lat="43.77152" lon="1.4917">
        <ele>158.677619</ele>
        <time>2023-09-17T10:02:21.424Z</time>
      </trkpt>
      <trkpt lat="43.77152" lon="1.4917">
        <ele>158.677619</ele>
        <time>2023-09-17T10:02:21.424Z</time>
      </trkpt>
      <trkpt lat="43.77148" lon="1.49176">
        <ele>158.618495</ele>
        <time>2023-09-17T10:02:22.424Z</time>
      </trkpt>
      <trkpt lat="43.77144" lon="1.49182">
        <ele>158.552478</ele>
        <time>2023-09-17T10:02:23.424Z</time>
      </trkpt>
      <trkpt lat="43.7714" lon="1.49188">
        <ele>158.485892</ele>
        <time>2023-09-17T10:02:24.424Z</time>
      </trkpt>
      <trkpt lat="43.7714" lon="1.49188">
        <ele>158.485892</ele>
        <time>2023-09-17T10:02:24.424Z</time>
      </trkpt>
      <trkpt lat="43.77136" lon="1.49194">
        <ele>158.425478</ele>
        <time>2023-09-17T10:02:25.424Z</time>
      </trkpt>
      <trkpt lat="43.77132" lon="1.492">
        <ele>158.362968</ele>
        <time>2023-09-17T10:02:25.424Z</time>
      </trkpt>
      <trkpt lat="43.77132" lon="1.492">
        <ele>158.362968</ele>
        <time>2023-09-17T10:02:25.424Z</time>
      </trkpt>
      <trkpt lat="43.77129" lon="1.49206">
        <ele>158.300457</ele>
        <time>2023-09-17T10:02:27.424Z</time>
      </trkpt>
      <trkpt lat="43.77125" lon="1.49212">
        <ele>158.239116</ele>
        <time>2023-09-17T10:02:28.424Z</time>
      </trkpt>
      <trkpt lat="43.77125" lon="1.49212">
        <ele>158.239116</ele>
        <time>2023-09-17T10:02:28.424Z</time>
      </trkpt>
      <trkpt lat="43.77121" lon="1.49218">
        <ele>158.176015</ele>
        <time>2023-09-17T10:02:29.424Z</time>
      </trkpt>
      <trkpt lat="43.77117" lon="1.49223">
        <ele>158.162852</ele>
        <time>2023-09-17T10:02:30.424Z</time>
      </trkpt>
      <trkpt lat="43.77114" lon="1.49229">
        <ele>158.177189</ele>
        <time>2023-09-17T10:02:31.424Z</time>
      </trkpt>
      <trkpt lat="43.7711" lon="1.49234">
        <ele>158.192516</ele>
        <time>2023-09-17T10:02:32.424Z</time>
      </trkpt>
      <trkpt lat="43.7711" lon="1.49234">
        <ele>158.192516</ele>
        <time>2023-09-17T10:02:32.424Z</time>
      </trkpt>
      <trkpt lat="43.77106" lon="1.4924">
        <ele>158.206995</ele>
        <time>2023-09-17T10:02:33.424Z</time>
      </trkpt>
      <trkpt lat="43.77103" lon="1.49245">
        <ele>158.220565</ele>
        <time>2023-09-17T10:02:34.424Z</time>
      </trkpt>
      <trkpt lat="43.77099" lon="1.4925">
        <ele>158.236517</ele>
        <time>2023-09-17T10:02:35.424Z</time>
      </trkpt>
      <trkpt lat="43.77095" lon="1.49255">
        <ele>158.250276</ele>
        <time>2023-09-17T10:02:36.424Z</time>
      </trkpt>
      <trkpt lat="43.77091" lon="1.4926">
        <ele>158.265559</ele>
        <time>2023-09-17T10:02:37.424Z</time>
      </trkpt>
      <trkpt lat="43.77087" lon="1.49266">
        <ele>158.281375</ele>
        <time>2023-09-17T10:02:38.424Z</time>
      </trkpt>
      <trkpt lat="43.77083" lon="1.49271">
        <ele>158.29466</ele>
        <time>2023-09-17T10:02:39.424Z</time>
      </trkpt>
      <trkpt lat="43.77079" lon="1.49276">
        <ele>158.309416</ele>
        <time>2023-09-17T10:02:40.424Z</time>
      </trkpt>
      <trkpt lat="43.77079" lon="1.49276">
        <ele>158.309416</ele>
        <time>2023-09-17T10:02:40.424Z</time>
      </trkpt>
      <trkpt lat="43.77075" lon="1.49281">
        <ele>158.324964</ele>
        <time>2023-09-17T10:02:41.424Z</time>
      </trkpt>
      <trkpt lat="43.77072" lon="1.49287">
        <ele>158.339119</ele>
        <time>2023-09-17T10:02:42.424Z</time>
      </trkpt>
      <trkpt lat="43.77068" lon="1.49292">
        <ele>158.354053</ele>
        <time>2023-09-17T10:02:43.424Z</time>
      </trkpt>
      <trkpt lat="43.77065" lon="1.49298">
        <ele>158.367358</ele>
        <time>2023-09-17T10:02:44.424Z</time>
      </trkpt>
      <trkpt lat="43.77062" lon="1.49304">
        <ele>158.382096</ele>
        <time>2023-09-17T10:02:45.424Z</time>
      </trkpt>
      <trkpt lat="43.7706" lon="1.49309">
        <ele>158.39525</ele>
        <time>2023-09-17T10:02:46.424Z</time>
      </trkpt>
      <trkpt lat="43.7706" lon="1.49309">
        <ele>158.39525</ele>
        <time>2023-09-17T10:02:46.424Z</time>
      </trkpt>
      <trkpt lat="43.77057" lon="1.49316">
        <ele>158.410313</ele>
        <time>2023-09-17T10:02:47.424Z</time>
      </trkpt>
      <trkpt lat="43.77057" lon="1.49316">
        <ele>158.410313</ele>
        <time>2023-09-17T10:02:47.424Z</time>
      </trkpt>
      <trkpt lat="43.77054" lon="1.49321">
        <ele>158.42253</ele>
        <time>2023-09-17T10:02:48.424Z</time>
      </trkpt>
      <trkpt lat="43.77054" lon="1.49321">
        <ele>158.42253</ele>
        <time>2023-09-17T10:02:48.424Z</time>
      </trkpt>
      <trkpt lat="43.77052" lon="1.49327">
        <ele>158.436302</ele>
        <time>2023-09-17T10:02:49.424Z</time>
      </trkpt>
      <trkpt lat="43.77052" lon="1.49327">
        <ele>158.436302</ele>
        <time>2023-09-17T10:02:49.424Z</time>
      </trkpt>
      <trkpt lat="43.77049" lon="1.49333">
        <ele>158.44929</ele>
        <time>2023-09-17T10:02:50.424Z</time>
      </trkpt>
      <trkpt lat="43.77049" lon="1.49333">
        <ele>158.44929</ele>
        <time>2023-09-17T10:02:50.424Z</time>
      </trkpt>
      <trkpt lat="43.77047" lon="1.49339">
        <ele>158.463062</ele>
        <time>2023-09-17T10:02:51.424Z</time>
      </trkpt>
      <trkpt lat="43.77047" lon="1.49339">
        <ele>158.463062</ele>
        <time>2023-09-17T10:02:51.424Z</time>
      </trkpt>
      <trkpt lat="43.77045" lon="1.49345">
        <ele>158.476135</ele>
        <time>2023-09-17T10:02:52.424Z</time>
      </trkpt>
      <trkpt lat="43.77045" lon="1.49345">
        <ele>158.476135</ele>
        <time>2023-09-17T10:02:52.424Z</time>
      </trkpt>
      <trkpt lat="43.77042" lon="1.49351">
        <ele>158.49061</ele>
        <time>2023-09-17T10:02:53.424Z</time>
      </trkpt>
      <trkpt lat="43.7704" lon="1.49357">
        <ele>158.504206</ele>
        <time>2023-09-17T10:02:54.424Z</time>
      </trkpt>
      <trkpt lat="43.77037" lon="1.49363">
        <ele>158.518681</ele>
        <time>2023-09-17T10:02:55.424Z</time>
      </trkpt>
      <trkpt lat="43.77037" lon="1.49363">
        <ele>158.518681</ele>
        <time>2023-09-17T10:02:55.424Z</time>
      </trkpt>
      <trkpt lat="43.77034" lon="1.4937">
        <ele>158.532847</ele>
        <time>2023-09-17T10:02:56.424Z</time>
      </trkpt>
      <trkpt lat="43.77032" lon="1.49376">
        <ele>158.547834</ele>
        <time>2023-09-17T10:02:57.424Z</time>
      </trkpt>
      <trkpt lat="43.77029" lon="1.49382">
        <ele>158.562139</ele>
        <time>2023-09-17T10:02:58.424Z</time>
      </trkpt>
      <trkpt lat="43.77029" lon="1.49382">
        <ele>158.562139</ele>
        <time>2023-09-17T10:02:58.424Z</time>
      </trkpt>
      <trkpt lat="43.77026" lon="1.49389">
        <ele>158.57682</ele>
        <time>2023-09-17T10:02:59.424Z</time>
      </trkpt>
      <trkpt lat="43.77024" lon="1.49396">
        <ele>158.593026</ele>
        <time>2023-09-17T10:03:00.424Z</time>
      </trkpt>
      <trkpt lat="43.77024" lon="1.49396">
        <ele>158.593026</ele>
        <time>2023-09-17T10:03:00.424Z</time>
      </trkpt>
      <trkpt lat="43.77022" lon="1.49403">
        <ele>158.607064</ele>
        <time>2023-09-17T10:03:01.424Z</time>
      </trkpt>
      <trkpt lat="43.7702" lon="1.4941">
        <ele>158.62147</ele>
        <time>2023-09-17T10:03:02.424Z</time>
      </trkpt>
      <trkpt lat="43.77019" lon="1.49417">
        <ele>158.637227</ele>
        <time>2023-09-17T10:03:02.424Z</time>
      </trkpt>
      <trkpt lat="43.77019" lon="1.49417">
        <ele>158.637227</ele>
        <time>2023-09-17T10:03:02.424Z</time>
      </trkpt>
      <trkpt lat="43.77018" lon="1.49425">
        <ele>158.619586</ele>
        <time>2023-09-17T10:03:04.424Z</time>
      </trkpt>
      <trkpt lat="43.77018" lon="1.49432">
        <ele>158.559198</ele>
        <time>2023-09-17T10:03:05.424Z</time>
      </trkpt>
      <trkpt lat="43.77019" lon="1.4944">
        <ele>158.500066</ele>
        <time>2023-09-17T10:03:06.424Z</time>
      </trkpt>
      <trkpt lat="43.77019" lon="1.4944">
        <ele>158.500066</ele>
        <time>2023-09-17T10:03:06.424Z</time>
      </trkpt>
      <trkpt lat="43.7702" lon="1.49447">
        <ele>158.44128</ele>
        <time>2023-09-17T10:03:07.424Z</time>
      </trkpt>
      <trkpt lat="43.7702" lon="1.49454">
        <ele>158.386677</ele>
        <time>2023-09-17T10:03:08.424Z</time>
      </trkpt>
      <trkpt lat="43.7702" lon="1.49454">
        <ele>158.386677</ele>
        <time>2023-09-17T10:03:08.424Z</time>
      </trkpt>
      <trkpt lat="43.7702" lon="1.4946">
        <ele>158.334483</ele>
        <time>2023-09-17T10:03:09.424Z</time>
      </trkpt>
      <trkpt lat="43.77019" lon="1.49466">
        <ele>158.2853</ele>
        <time>2023-09-17T10:03:10.424Z</time>
      </trkpt>
      <trkpt lat="43.77018" lon="1.49472">
        <ele>158.234813</ele>
        <time>2023-09-17T10:03:11.424Z</time>
      </trkpt>
      <trkpt lat="43.77018" lon="1.49477">
        <ele>158.194419</ele>
        <time>2023-09-17T10:03:12.424Z</time>
      </trkpt>
      <trkpt lat="43.77018" lon="1.49481">
        <ele>158.162788</ele>
        <time>2023-09-17T10:03:13.424Z</time>
      </trkpt>
      <trkpt lat="43.7702" lon="1.49484">
        <ele>158.131345</ele>
        <time>2023-09-17T10:03:14.424Z</time>
      </trkpt>
      <trkpt lat="43.77023" lon="1.49486">
        <ele>158.098364</ele>
        <time>2023-09-17T10:03:14.424Z</time>
      </trkpt>
      <trkpt lat="43.77026" lon="1.49488">
        <ele>158.061682</ele>
        <time>2023-09-17T10:03:15.424Z</time>
      </trkpt>
      <trkpt lat="43.7703" lon="1.49489">
        <ele>158.013244</ele>
        <time>2023-09-17T10:03:17.424Z</time>
      </trkpt>
      <trkpt lat="43.77033" lon="1.49491">
        <ele>157.981948</ele>
        <time>2023-09-17T10:03:17.424Z</time>
      </trkpt>
      <trkpt lat="43.77036" lon="1.49491">
        <ele>157.939419</ele>
        <time>2023-09-17T10:03:19.424Z</time>
      </trkpt>
      <trkpt lat="43.77042" lon="1.49493">
        <ele>157.878119</ele>
        <time>2023-09-17T10:03:20.424Z</time>
      </trkpt>
      <trkpt lat="43.77047" lon="1.49495">
        <ele>157.821055</ele>
        <time>2023-09-17T10:03:20.424Z</time>
      </trkpt>
      <trkpt lat="43.77051" lon="1.49496">
        <ele>157.772824</ele>
        <time>2023-09-17T10:03:22.424Z</time>
      </trkpt>
      <trkpt lat="43.77056" lon="1.49498">
        <ele>157.716019</ele>
        <time>2023-09-17T10:03:23.424Z</time>
      </trkpt>
      <trkpt lat="43.77061" lon="1.49501">
        <ele>157.653196</ele>
        <time>2023-09-17T10:03:24.424Z</time>
      </trkpt>
      <trkpt lat="43.77061" lon="1.49501">
        <ele>157.653196</ele>
        <time>2023-09-17T10:03:24.424Z</time>
      </trkpt>
      <trkpt lat="43.77066" lon="1.49502">
        <ele>157.600042</ele>
        <time>2023-09-17T10:03:25.424Z</time>
      </trkpt>
      <trkpt lat="43.77071" lon="1.49505">
        <ele>157.54251</ele>
        <time>2023-09-17T10:03:26.424Z</time>
      </trkpt>
      <trkpt lat="43.77075" lon="1.49507">
        <ele>157.492288</ele>
        <time>2023-09-17T10:03:27.424Z</time>
      </trkpt>
      <trkpt lat="43.77079" lon="1.49509">
        <ele>157.446793</ele>
        <time>2023-09-17T10:03:28.424Z</time>
      </trkpt>
      <trkpt lat="43.77084" lon="1.49511">
        <ele>157.388455</ele>
        <time>2023-09-17T10:03:29.424Z</time>
      </trkpt>
      <trkpt lat="43.77088" lon="1.49513">
        <ele>157.335077</ele>
        <time>2023-09-17T10:03:30.424Z</time>
      </trkpt>
      <trkpt lat="43.77088" lon="1.49513">
        <ele>157.335077</ele>
        <time>2023-09-17T10:03:30.424Z</time>
      </trkpt>
      <trkpt lat="43.77093" lon="1.49515">
        <ele>157.282273</ele>
        <time>2023-09-17T10:03:31.424Z</time>
      </trkpt>
      <trkpt lat="43.77093" lon="1.49515">
        <ele>157.282273</ele>
        <time>2023-09-17T10:03:31.424Z</time>
      </trkpt>
      <trkpt lat="43.77098" lon="1.49517">
        <ele>157.224173</ele>
        <time>2023-09-17T10:03:32.424Z</time>
      </trkpt>
      <trkpt lat="43.77102" lon="1.4952">
        <ele>157.174519</ele>
        <time>2023-09-17T10:03:33.424Z</time>
      </trkpt>
      <trkpt lat="43.77102" lon="1.4952">
        <ele>157.174519</ele>
        <time>2023-09-17T10:03:33.424Z</time>
      </trkpt>
      <trkpt lat="43.77106" lon="1.49521">
        <ele>157.12563</ele>
        <time>2023-09-17T10:03:34.424Z</time>
      </trkpt>
      <trkpt lat="43.77111" lon="1.49524">
        <ele>157.07097</ele>
        <time>2023-09-17T10:03:34.424Z</time>
      </trkpt>
      <trkpt lat="43.77111" lon="1.49524">
        <ele>157.07097</ele>
        <time>2023-09-17T10:03:34.424Z</time>
      </trkpt>
      <trkpt lat="43.77115" lon="1.49526">
        <ele>157.020135</ele>
        <time>2023-09-17T10:03:36.424Z</time>
      </trkpt>
      <trkpt lat="43.77115" lon="1.49526">
        <ele>157.020135</ele>
        <time>2023-09-17T10:03:36.424Z</time>
      </trkpt>
      <trkpt lat="43.77119" lon="1.49529">
        <ele>156.971888</ele>
        <time>2023-09-17T10:03:37.424Z</time>
      </trkpt>
      <trkpt lat="43.77119" lon="1.49529">
        <ele>156.971888</ele>
        <time>2023-09-17T10:03:37.424Z</time>
      </trkpt>
      <trkpt lat="43.77121" lon="1.49533">
        <ele>156.929267</ele>
        <time>2023-09-17T10:03:38.424Z</time>
      </trkpt>
      <trkpt lat="43.77121" lon="1.49533">
        <ele>156.929267</ele>
        <time>2023-09-17T10:03:38.424Z</time>
      </trkpt>
      <trkpt lat="43.77123" lon="1.49538">
        <ele>156.886959</ele>
        <time>2023-09-17T10:03:39.424Z</time>
      </trkpt>
      <trkpt lat="43.77123" lon="1.49538">
        <ele>156.886959</ele>
        <time>2023-09-17T10:03:39.424Z</time>
      </trkpt>
      <trkpt lat="43.77122" lon="1.49543">
        <ele>156.848966</ele>
        <time>2023-09-17T10:03:40.424Z</time>
      </trkpt>
      <trkpt lat="43.77122" lon="1.49543">
        <ele>156.848966</ele>
        <time>2023-09-17T10:03:40.424Z</time>
      </trkpt>
      <trkpt lat="43.7712" lon="1.49547">
        <ele>156.807801</ele>
        <time>2023-09-17T10:03:41.424Z</time>
      </trkpt>
      <trkpt lat="43.7712" lon="1.49547">
        <ele>156.807801</ele>
        <time>2023-09-17T10:03:41.424Z</time>
      </trkpt>
      <trkpt lat="43.77118" lon="1.49551">
        <ele>156.767322</ele>
        <time>2023-09-17T10:03:42.424Z</time>
      </trkpt>
      <trkpt lat="43.77118" lon="1.49551">
        <ele>156.767322</ele>
        <time>2023-09-17T10:03:42.424Z</time>
      </trkpt>
      <trkpt lat="43.77115" lon="1.49557">
        <ele>156.712584</ele>
        <time>2023-09-17T10:03:44.424Z</time>
      </trkpt>
      <trkpt lat="43.77115" lon="1.49557">
        <ele>156.712584</ele>
        <time>2023-09-17T10:03:44.424Z</time>
      </trkpt>
      <trkpt lat="43.77111" lon="1.49565">
        <ele>156.652966</ele>
        <time>2023-09-17T10:03:45.424Z</time>
      </trkpt>
      <trkpt lat="43.77111" lon="1.49565">
        <ele>156.652966</ele>
        <time>2023-09-17T10:03:45.424Z</time>
      </trkpt>
      <trkpt lat="43.77109" lon="1.49568">
        <ele>156.676406</ele>
        <time>2023-09-17T10:03:46.424Z</time>
      </trkpt>
      <trkpt lat="43.77109" lon="1.49568">
        <ele>156.676406</ele>
        <time>2023-09-17T10:03:46.424Z</time>
      </trkpt>
      <trkpt lat="43.77107" lon="1.49572">
        <ele>156.701102</ele>
        <time>2023-09-17T10:03:48.424Z</time>
      </trkpt>
      <trkpt lat="43.77107" lon="1.49572">
        <ele>156.701102</ele>
        <time>2023-09-17T10:03:48.424Z</time>
      </trkpt>
      <trkpt lat="43.77105" lon="1.49576">
        <ele>156.72762</ele>
        <time>2023-09-17T10:03:49.424Z</time>
      </trkpt>
      <trkpt lat="43.77103" lon="1.4958">
        <ele>156.759525</ele>
        <time>2023-09-17T10:03:49.424Z</time>
      </trkpt>
      <trkpt lat="43.771" lon="1.49586">
        <ele>156.794102</ele>
        <time>2023-09-17T10:03:51.424Z</time>
      </trkpt>
      <trkpt lat="43.77099" lon="1.4959">
        <ele>156.822022</ele>
        <time>2023-09-17T10:03:52.424Z</time>
      </trkpt>
      <trkpt lat="43.77096" lon="1.49595">
        <ele>156.853928</ele>
        <time>2023-09-17T10:03:53.424Z</time>
      </trkpt>
      <trkpt lat="43.77096" lon="1.49595">
        <ele>156.853928</ele>
        <time>2023-09-17T10:03:53.424Z</time>
      </trkpt>
      <trkpt lat="43.77094" lon="1.496">
        <ele>156.887701</ele>
        <time>2023-09-17T10:03:54.424Z</time>
      </trkpt>
      <trkpt lat="43.77092" lon="1.49605">
        <ele>156.923383</ele>
        <time>2023-09-17T10:03:56.424Z</time>
      </trkpt>
      <trkpt lat="43.77087" lon="1.49615">
        <ele>156.9865</ele>
        <time>2023-09-17T10:03:56.424Z</time>
      </trkpt>
      <trkpt lat="43.77086" lon="1.4962">
        <ele>157.015372</ele>
        <time>2023-09-17T10:03:58.424Z</time>
      </trkpt>
      <trkpt lat="43.77083" lon="1.49625">
        <ele>157.049619</ele>
        <time>2023-09-17T10:04:00.424Z</time>
      </trkpt>
      <trkpt lat="43.77083" lon="1.49625">
        <ele>157.049619</ele>
        <time>2023-09-17T10:04:00.424Z</time>
      </trkpt>
      <trkpt lat="43.77081" lon="1.4963">
        <ele>157.080423</ele>
        <time>2023-09-17T10:04:01.424Z</time>
      </trkpt>
      <trkpt lat="43.77079" lon="1.49636">
        <ele>157.118643</ele>
        <time>2023-09-17T10:04:02.424Z</time>
      </trkpt>
      <trkpt lat="43.77077" lon="1.49641">
        <ele>157.150427</ele>
        <time>2023-09-17T10:04:02.424Z</time>
      </trkpt>
      <trkpt lat="43.77077" lon="1.49641">
        <ele>157.150427</ele>
        <time>2023-09-17T10:04:02.424Z</time>
      </trkpt>
      <trkpt lat="43.77074" lon="1.49646">
        <ele>157.181873</ele>
        <time>2023-09-17T10:04:04.424Z</time>
      </trkpt>
      <trkpt lat="43.77072" lon="1.49652">
        <ele>157.224489</ele>
        <time>2023-09-17T10:04:05.424Z</time>
      </trkpt>
      <trkpt lat="43.77072" lon="1.49652">
        <ele>157.224489</ele>
        <time>2023-09-17T10:04:05.424Z</time>
      </trkpt>
      <trkpt lat="43.7707" lon="1.49657">
        <ele>157.254322</ele>
        <time>2023-09-17T10:04:07.424Z</time>
      </trkpt>
      <trkpt lat="43.77068" lon="1.49664">
        <ele>157.29491</ele>
        <time>2023-09-17T10:04:08.424Z</time>
      </trkpt>
      <trkpt lat="43.77066" lon="1.49669">
        <ele>157.325714</ele>
        <time>2023-09-17T10:04:08.424Z</time>
      </trkpt>
      <trkpt lat="43.77063" lon="1.49674">
        <ele>157.362363</ele>
        <time>2023-09-17T10:04:10.424Z</time>
      </trkpt>
      <trkpt lat="43.77061" lon="1.4968">
        <ele>157.39661</ele>
        <time>2023-09-17T10:04:11.424Z</time>
      </trkpt>
      <trkpt lat="43.77061" lon="1.4968">
        <ele>157.39661</ele>
        <time>2023-09-17T10:04:11.424Z</time>
      </trkpt>
      <trkpt lat="43.7706" lon="1.49685">
        <ele>157.426087</ele>
        <time>2023-09-17T10:04:12.424Z</time>
      </trkpt>
      <trkpt lat="43.77058" lon="1.4969">
        <ele>157.459208</ele>
        <time>2023-09-17T10:04:14.424Z</time>
      </trkpt>
      <trkpt lat="43.77057" lon="1.49696">
        <ele>157.495107</ele>
        <time>2023-09-17T10:04:15.424Z</time>
      </trkpt>
      <trkpt lat="43.77057" lon="1.49696">
        <ele>157.495107</ele>
        <time>2023-09-17T10:04:15.424Z</time>
      </trkpt>
      <trkpt lat="43.77056" lon="1.49701">
        <ele>157.522931</ele>
        <time>2023-09-17T10:04:16.424Z</time>
      </trkpt>
      <trkpt lat="43.77055" lon="1.49704">
        <ele>157.541566</ele>
        <time>2023-09-17T10:04:17.424Z</time>
      </trkpt>
      <trkpt lat="43.77055" lon="1.49704">
        <ele>157.541566</ele>
        <time>2023-09-17T10:04:17.424Z</time>
      </trkpt>
      <trkpt lat="43.77053" lon="1.49707">
        <ele>157.56056</ele>
        <time>2023-09-17T10:04:18.424Z</time>
      </trkpt>
      <trkpt lat="43.77052" lon="1.49711">
        <ele>157.585827</ele>
        <time>2023-09-17T10:04:20.424Z</time>
      </trkpt>
      <trkpt lat="43.77052" lon="1.49711">
        <ele>157.585827</ele>
        <time>2023-09-17T10:04:20.424Z</time>
      </trkpt>
      <trkpt lat="43.77051" lon="1.49716">
        <ele>157.612776</ele>
        <time>2023-09-17T10:04:21.424Z</time>
      </trkpt>
      <trkpt lat="43.77049" lon="1.4972">
        <ele>157.64073</ele>
        <time>2023-09-17T10:04:22.424Z</time>
      </trkpt>
      <trkpt lat="43.77049" lon="1.4972">
        <ele>157.64073</ele>
        <time>2023-09-17T10:04:22.424Z</time>
      </trkpt>
      <trkpt lat="43.77048" lon="1.49725">
        <ele>157.669009</ele>
        <time>2023-09-17T10:04:23.424Z</time>
      </trkpt>
      <trkpt lat="43.77046" lon="1.4973">
        <ele>157.701572</ele>
        <time>2023-09-17T10:04:24.424Z</time>
      </trkpt>
      <trkpt lat="43.77046" lon="1.4973">
        <ele>157.701572</ele>
        <time>2023-09-17T10:04:24.424Z</time>
      </trkpt>
      <trkpt lat="43.77045" lon="1.49734">
        <ele>157.724761</ele>
        <time>2023-09-17T10:04:25.424Z</time>
      </trkpt>
      <trkpt lat="43.77044" lon="1.49741">
        <ele>157.765427</ele>
        <time>2023-09-17T10:04:26.424Z</time>
      </trkpt>
      <trkpt lat="43.77042" lon="1.49748">
        <ele>157.801326</ele>
        <time>2023-09-17T10:04:27.424Z</time>
      </trkpt>
      <trkpt lat="43.77042" lon="1.49748">
        <ele>157.801326</ele>
        <time>2023-09-17T10:04:27.424Z</time>
      </trkpt>
      <trkpt lat="43.77041" lon="1.49753">
        <ele>157.833148</ele>
        <time>2023-09-17T10:04:29.424Z</time>
      </trkpt>
      <trkpt lat="43.7704" lon="1.4976">
        <ele>157.871744</ele>
        <time>2023-09-17T10:04:30.424Z</time>
      </trkpt>
      <trkpt lat="43.7704" lon="1.4976">
        <ele>157.871744</ele>
        <time>2023-09-17T10:04:30.424Z</time>
      </trkpt>
      <trkpt lat="43.77039" lon="1.49767">
        <ele>157.9098</ele>
        <time>2023-09-17T10:04:31.424Z</time>
      </trkpt>
      <trkpt lat="43.77039" lon="1.49767">
        <ele>157.9098</ele>
        <time>2023-09-17T10:04:31.424Z</time>
      </trkpt>
      <trkpt lat="43.77038" lon="1.49772">
        <ele>157.942153</ele>
        <time>2023-09-17T10:04:31.424Z</time>
      </trkpt>
      <trkpt lat="43.77037" lon="1.49783">
        <ele>158.00311</ele>
        <time>2023-09-17T10:04:34.424Z</time>
      </trkpt>
      <trkpt lat="43.77037" lon="1.49783">
        <ele>158.00311</ele>
        <time>2023-09-17T10:04:34.424Z</time>
      </trkpt>
      <trkpt lat="43.77036" lon="1.49788">
        <ele>158.031988</ele>
        <time>2023-09-17T10:04:36.424Z</time>
      </trkpt>
      <trkpt lat="43.77036" lon="1.49788">
        <ele>158.031988</ele>
        <time>2023-09-17T10:04:36.424Z</time>
      </trkpt>
      <trkpt lat="43.77035" lon="1.49793">
        <ele>158.08426</ele>
        <time>2023-09-17T10:04:37.424Z</time>
      </trkpt>
      <trkpt lat="43.77034" lon="1.49799">
        <ele>158.138106</ele>
        <time>2023-09-17T10:04:38.424Z</time>
      </trkpt>
      <trkpt lat="43.77034" lon="1.49803">
        <ele>158.176996</ele>
        <time>2023-09-17T10:04:39.424Z</time>
      </trkpt>
      <trkpt lat="43.77034" lon="1.49803">
        <ele>158.176996</ele>
        <time>2023-09-17T10:04:39.424Z</time>
      </trkpt>
      <trkpt lat="43.77032" lon="1.49809">
        <ele>158.234272</ele>
        <time>2023-09-17T10:04:40.424Z</time>
      </trkpt>
      <trkpt lat="43.77031" lon="1.49813">
        <ele>158.273127</ele>
        <time>2023-09-17T10:04:41.424Z</time>
      </trkpt>
      <trkpt lat="43.77028" lon="1.49817">
        <ele>158.325999</ele>
        <time>2023-09-17T10:04:41.424Z</time>
      </trkpt>
      <trkpt lat="43.77026" lon="1.4982">
        <ele>158.358663</ele>
        <time>2023-09-17T10:04:43.424Z</time>
      </trkpt>
      <trkpt lat="43.77024" lon="1.49824">
        <ele>158.40693</ele>
        <time>2023-09-17T10:04:45.424Z</time>
      </trkpt>
      <trkpt lat="43.77023" lon="1.49829">
        <ele>158.457355</ele>
        <time>2023-09-17T10:04:45.424Z</time>
      </trkpt>
      <trkpt lat="43.77022" lon="1.49834">
        <ele>158.500681</ele>
        <time>2023-09-17T10:04:47.424Z</time>
      </trkpt>
      <trkpt lat="43.77021" lon="1.49839">
        <ele>158.542198</ele>
        <time>2023-09-17T10:04:48.424Z</time>
      </trkpt>
      <trkpt lat="43.77022" lon="1.49844">
        <ele>158.593727</ele>
        <time>2023-09-17T10:04:48.424Z</time>
      </trkpt>
      <trkpt lat="43.77022" lon="1.49849">
        <ele>158.641343</ele>
        <time>2023-09-17T10:04:49.424Z</time>
      </trkpt>
      <trkpt lat="43.77021" lon="1.49854">
        <ele>158.688318</ele>
        <time>2023-09-17T10:04:51.424Z</time>
      </trkpt>
      <trkpt lat="43.77021" lon="1.49854">
        <ele>158.688318</ele>
        <time>2023-09-17T10:04:51.424Z</time>
      </trkpt>
      <trkpt lat="43.77021" lon="1.4986">
        <ele>158.738681</ele>
        <time>2023-09-17T10:04:52.424Z</time>
      </trkpt>
      <trkpt lat="43.77021" lon="1.49866">
        <ele>158.7982</ele>
        <time>2023-09-17T10:04:53.424Z</time>
      </trkpt>
      <trkpt lat="43.77021" lon="1.49871">
        <ele>158.844265</ele>
        <time>2023-09-17T10:04:55.424Z</time>
      </trkpt>
      <trkpt lat="43.77021" lon="1.49871">
        <ele>158.844265</ele>
        <time>2023-09-17T10:04:55.424Z</time>
      </trkpt>
      <trkpt lat="43.77021" lon="1.49877">
        <ele>158.893712</ele>
        <time>2023-09-17T10:04:55.424Z</time>
      </trkpt>
      <trkpt lat="43.77021" lon="1.49881">
        <ele>158.933086</ele>
        <time>2023-09-17T10:04:56.424Z</time>
      </trkpt>
      <trkpt lat="43.77021" lon="1.49881">
        <ele>158.933086</ele>
        <time>2023-09-17T10:04:56.424Z</time>
      </trkpt>
      <trkpt lat="43.77021" lon="1.49886">
        <ele>158.973695</ele>
        <time>2023-09-17T10:04:59.424Z</time>
      </trkpt>
      <trkpt lat="43.77021" lon="1.4989">
        <ele>159.014303</ele>
        <time>2023-09-17T10:04:59.424Z</time>
      </trkpt>
      <trkpt lat="43.7702" lon="1.49894">
        <ele>159.050942</ele>
        <time>2023-09-17T10:05:00.424Z</time>
      </trkpt>
      <trkpt lat="43.7702" lon="1.49898">
        <ele>159.088827</ele>
        <time>2023-09-17T10:05:02.424Z</time>
      </trkpt>
      <trkpt lat="43.7702" lon="1.49898">
        <ele>159.088827</ele>
        <time>2023-09-17T10:05:02.424Z</time>
      </trkpt>
      <trkpt lat="43.77018" lon="1.49902">
        <ele>159.13233</ele>
        <time>2023-09-17T10:05:03.424Z</time>
      </trkpt>
      <trkpt lat="43.77018" lon="1.49902">
        <ele>159.13233</ele>
        <time>2023-09-17T10:05:03.424Z</time>
      </trkpt>
      <trkpt lat="43.77018" lon="1.49906">
        <ele>159.167494</ele>
        <time>2023-09-17T10:05:03.424Z</time>
      </trkpt>
      <trkpt lat="43.77018" lon="1.49906">
        <ele>159.167494</ele>
        <time>2023-09-17T10:05:03.424Z</time>
      </trkpt>
      <trkpt lat="43.77018" lon="1.49911">
        <ele>159.209011</ele>
        <time>2023-09-17T10:05:05.424Z</time>
      </trkpt>
      <trkpt lat="43.77018" lon="1.49911">
        <ele>159.209011</ele>
        <time>2023-09-17T10:05:05.424Z</time>
      </trkpt>
      <trkpt lat="43.77018" lon="1.49915">
        <ele>159.248385</ele>
        <time>2023-09-17T10:05:06.424Z</time>
      </trkpt>
      <trkpt lat="43.77018" lon="1.49915">
        <ele>159.248385</ele>
        <time>2023-09-17T10:05:06.424Z</time>
      </trkpt>
      <trkpt lat="43.77018" lon="1.4992">
        <ele>159.293254</ele>
        <time>2023-09-17T10:05:07.424Z</time>
      </trkpt>
      <trkpt lat="43.77018" lon="1.4992">
        <ele>159.293254</ele>
        <time>2023-09-17T10:05:07.424Z</time>
      </trkpt>
      <trkpt lat="43.77018" lon="1.49924">
        <ele>159.333544</ele>
        <time>2023-09-17T10:05:09.424Z</time>
      </trkpt>
      <trkpt lat="43.77018" lon="1.49929">
        <ele>159.382076</ele>
        <time>2023-09-17T10:05:10.424Z</time>
      </trkpt>
      <trkpt lat="43.77018" lon="1.49929">
        <ele>159.382076</ele>
        <time>2023-09-17T10:05:10.424Z</time>
      </trkpt>
      <trkpt lat="43.77018" lon="1.49934">
        <ele>159.42145</ele>
        <time>2023-09-17T10:05:12.424Z</time>
      </trkpt>
      <trkpt lat="43.77017" lon="1.49939">
        <ele>159.467515</ele>
        <time>2023-09-17T10:05:13.424Z</time>
      </trkpt>
      <trkpt lat="43.77017" lon="1.49939">
        <ele>159.467515</ele>
        <time>2023-09-17T10:05:13.424Z</time>
      </trkpt>
      <trkpt lat="43.77017" lon="1.49943">
        <ele>159.505058</ele>
        <time>2023-09-17T10:05:13.424Z</time>
      </trkpt>
      <trkpt lat="43.77017" lon="1.49947">
        <ele>159.542942</ele>
        <time>2023-09-17T10:05:15.424Z</time>
      </trkpt>
      <trkpt lat="43.77018" lon="1.49952">
        <ele>159.588944</ele>
        <time>2023-09-17T10:05:16.424Z</time>
      </trkpt>
      <trkpt lat="43.77018" lon="1.49956">
        <ele>159.63015</ele>
        <time>2023-09-17T10:05:18.424Z</time>
      </trkpt>
      <trkpt lat="43.77018" lon="1.49956">
        <ele>159.63015</ele>
        <time>2023-09-17T10:05:18.424Z</time>
      </trkpt>
      <trkpt lat="43.77018" lon="1.49961">
        <ele>159.66985</ele>
        <time>2023-09-17T10:05:19.424Z</time>
      </trkpt>
      <trkpt lat="43.77018" lon="1.49961">
        <ele>159.66985</ele>
        <time>2023-09-17T10:05:19.424Z</time>
      </trkpt>
      <trkpt lat="43.77018" lon="1.49966">
        <ele>159.720467</ele>
        <time>2023-09-17T10:05:20.424Z</time>
      </trkpt>
      <trkpt lat="43.77018" lon="1.49971">
        <ele>159.760757</ele>
        <time>2023-09-17T10:05:21.424Z</time>
      </trkpt>
      <trkpt lat="43.77018" lon="1.49971">
        <ele>159.760757</ele>
        <time>2023-09-17T10:05:21.424Z</time>
      </trkpt>
      <trkpt lat="43.77017" lon="1.49976">
        <ele>159.810464</ele>
        <time>2023-09-17T10:05:22.424Z</time>
      </trkpt>
      <trkpt lat="43.77017" lon="1.4998">
        <ele>159.84526</ele>
        <time>2023-09-17T10:05:23.424Z</time>
      </trkpt>
      <trkpt lat="43.77017" lon="1.4998">
        <ele>159.84526</ele>
        <time>2023-09-17T10:05:23.424Z</time>
      </trkpt>
      <trkpt lat="43.77017" lon="1.49985">
        <ele>159.894707</ele>
        <time>2023-09-17T10:05:25.424Z</time>
      </trkpt>
      <trkpt lat="43.77017" lon="1.49985">
        <ele>159.894707</ele>
        <time>2023-09-17T10:05:25.424Z</time>
      </trkpt>
      <trkpt lat="43.77017" lon="1.49989">
        <ele>159.928966</ele>
        <time>2023-09-17T10:05:26.424Z</time>
      </trkpt>
      <trkpt lat="43.77017" lon="1.49993">
        <ele>159.969256</ele>
        <time>2023-09-17T10:05:27.424Z</time>
      </trkpt>
      <trkpt lat="43.77017" lon="1.49997">
        <ele>160.004259</ele>
        <time>2023-09-17T10:05:28.424Z</time>
      </trkpt>
      <trkpt lat="43.77016" lon="1.50002">
        <ele>160.051234</ele>
        <time>2023-09-17T10:05:29.424Z</time>
      </trkpt>
      <trkpt lat="43.77016" lon="1.50007">
        <ele>160.092751</ele>
        <time>2023-09-17T10:05:30.424Z</time>
      </trkpt>
      <trkpt lat="43.77016" lon="1.50007">
        <ele>160.092751</ele>
        <time>2023-09-17T10:05:30.424Z</time>
      </trkpt>
      <trkpt lat="43.77015" lon="1.5001">
        <ele>160.127915</ele>
        <time>2023-09-17T10:05:31.424Z</time>
      </trkpt>
      <trkpt lat="43.77014" lon="1.50015">
        <ele>160.168825</ele>
        <time>2023-09-17T10:05:33.424Z</time>
      </trkpt>
      <trkpt lat="43.77014" lon="1.50015">
        <ele>160.168825</ele>
        <time>2023-09-17T10:05:33.424Z</time>
      </trkpt>
      <trkpt lat="43.77013" lon="1.50019">
        <ele>160.214755</ele>
        <time>2023-09-17T10:05:34.424Z</time>
      </trkpt>
      <trkpt lat="43.77011" lon="1.50023">
        <ele>160.254411</ele>
        <time>2023-09-17T10:05:34.424Z</time>
      </trkpt>
      <trkpt lat="43.77009" lon="1.50027">
        <ele>160.300572</ele>
        <time>2023-09-17T10:05:36.424Z</time>
      </trkpt>
      <trkpt lat="43.77009" lon="1.50027">
        <ele>160.300572</ele>
        <time>2023-09-17T10:05:36.424Z</time>
      </trkpt>
      <trkpt lat="43.77005" lon="1.50034">
        <ele>160.388316</ele>
        <time>2023-09-17T10:05:38.424Z</time>
      </trkpt>
      <trkpt lat="43.77003" lon="1.50037">
        <ele>160.429841</ele>
        <time>2023-09-17T10:05:39.424Z</time>
      </trkpt>
      <trkpt lat="43.77003" lon="1.50037">
        <ele>160.429841</ele>
        <time>2023-09-17T10:05:39.424Z</time>
      </trkpt>
      <trkpt lat="43.77" lon="1.50041">
        <ele>160.479382</ele>
        <time>2023-09-17T10:05:40.424Z</time>
      </trkpt>
      <trkpt lat="43.76999" lon="1.50044">
        <ele>160.520907</ele>
        <time>2023-09-17T10:05:42.424Z</time>
      </trkpt>
      <trkpt lat="43.76996" lon="1.50048">
        <ele>160.576971</ele>
        <time>2023-09-17T10:05:42.424Z</time>
      </trkpt>
      <trkpt lat="43.76996" lon="1.50048">
        <ele>160.576971</ele>
        <time>2023-09-17T10:05:42.424Z</time>
      </trkpt>
      <trkpt lat="43.76993" lon="1.5005">
        <ele>160.621223</ele>
        <time>2023-09-17T10:05:44.424Z</time>
      </trkpt>
      <trkpt lat="43.76993" lon="1.5005">
        <ele>160.621223</ele>
        <time>2023-09-17T10:05:44.424Z</time>
      </trkpt>
      <trkpt lat="43.76989" lon="1.50051">
        <ele>160.673749</ele>
        <time>2023-09-17T10:05:45.424Z</time>
      </trkpt>
      <trkpt lat="43.76986" lon="1.50051">
        <ele>160.715998</ele>
        <time>2023-09-17T10:05:46.424Z</time>
      </trkpt>
      <trkpt lat="43.76986" lon="1.50051">
        <ele>160.715998</ele>
        <time>2023-09-17T10:05:46.424Z</time>
      </trkpt>
      <trkpt lat="43.76983" lon="1.5005">
        <ele>160.763803</ele>
        <time>2023-09-17T10:05:47.424Z</time>
      </trkpt>
      <trkpt lat="43.76978" lon="1.50049">
        <ele>160.821867</ele>
        <time>2023-09-17T10:05:48.424Z</time>
      </trkpt>
      <trkpt lat="43.76974" lon="1.50049">
        <ele>160.884611</ele>
        <time>2023-09-17T10:05:50.424Z</time>
      </trkpt>
      <trkpt lat="43.76971" lon="1.5005">
        <ele>160.92744</ele>
        <time>2023-09-17T10:05:50.424Z</time>
      </trkpt>
      <trkpt lat="43.76967" lon="1.50052">
        <ele>160.983944</ele>
        <time>2023-09-17T10:05:52.424Z</time>
      </trkpt>
      <trkpt lat="43.76967" lon="1.50052">
        <ele>160.983944</ele>
        <time>2023-09-17T10:05:52.424Z</time>
      </trkpt>
      <trkpt lat="43.76963" lon="1.50056">
        <ele>161.053395</ele>
        <time>2023-09-17T10:05:53.424Z</time>
      </trkpt>
      <trkpt lat="43.76959" lon="1.5006">
        <ele>161.112797</ele>
        <time>2023-09-17T10:05:54.424Z</time>
      </trkpt>
      <trkpt lat="43.76959" lon="1.5006">
        <ele>161.112797</ele>
        <time>2023-09-17T10:05:54.424Z</time>
      </trkpt>
      <trkpt lat="43.76957" lon="1.50063">
        <ele>161.162201</ele>
        <time>2023-09-17T10:05:54.424Z</time>
      </trkpt>
      <trkpt lat="43.76953" lon="1.50068">
        <ele>161.228627</ele>
        <time>2023-09-17T10:05:55.424Z</time>
      </trkpt>
      <trkpt lat="43.76953" lon="1.50068">
        <ele>161.228627</ele>
        <time>2023-09-17T10:05:55.424Z</time>
      </trkpt>
      <trkpt lat="43.7695" lon="1.50073">
        <ele>161.294082</ele>
        <time>2023-09-17T10:05:56.424Z</time>
      </trkpt>
      <trkpt lat="43.76946" lon="1.50077">
        <ele>161.357486</ele>
        <time>2023-09-17T10:05:58.424Z</time>
      </trkpt>
      <trkpt lat="43.76944" lon="1.50081">
        <ele>161.409938</ele>
        <time>2023-09-17T10:05:59.424Z</time>
      </trkpt>
      <trkpt lat="43.76944" lon="1.50081">
        <ele>161.409938</ele>
        <time>2023-09-17T10:05:59.424Z</time>
      </trkpt>
      <trkpt lat="43.76941" lon="1.50085">
        <ele>161.463809</ele>
        <time>2023-09-17T10:06:01.424Z</time>
      </trkpt>
      <trkpt lat="43.76938" lon="1.50089">
        <ele>161.51626</ele>
        <time>2023-09-17T10:06:01.424Z</time>
      </trkpt>
      <trkpt lat="43.76936" lon="1.50092">
        <ele>161.557644</ele>
        <time>2023-09-17T10:06:02.424Z</time>
      </trkpt>
      <trkpt lat="43.76934" lon="1.50095">
        <ele>161.602066</ele>
        <time>2023-09-17T10:06:03.424Z</time>
      </trkpt>
      <trkpt lat="43.76931" lon="1.50099">
        <ele>161.654517</ele>
        <time>2023-09-17T10:06:05.424Z</time>
      </trkpt>
      <trkpt lat="43.76931" lon="1.50099">
        <ele>161.654517</ele>
        <time>2023-09-17T10:06:05.424Z</time>
      </trkpt>
      <trkpt lat="43.76928" lon="1.50103">
        <ele>161.717146</ele>
        <time>2023-09-17T10:06:07.424Z</time>
      </trkpt>
      <trkpt lat="43.76925" lon="1.50108">
        <ele>161.771575</ele>
        <time>2023-09-17T10:06:08.424Z</time>
      </trkpt>
      <trkpt lat="43.76923" lon="1.50113">
        <ele>161.83459</ele>
        <time>2023-09-17T10:06:09.424Z</time>
      </trkpt>
      <trkpt lat="43.76923" lon="1.50113">
        <ele>161.83459</ele>
        <time>2023-09-17T10:06:09.424Z</time>
      </trkpt>
      <trkpt lat="43.76921" lon="1.50117">
        <ele>161.885878</ele>
        <time>2023-09-17T10:06:09.424Z</time>
      </trkpt>
      <trkpt lat="43.76921" lon="1.50117">
        <ele>161.885878</ele>
        <time>2023-09-17T10:06:09.424Z</time>
      </trkpt>
      <trkpt lat="43.76918" lon="1.50122">
        <ele>161.945038</ele>
        <time>2023-09-17T10:06:10.424Z</time>
      </trkpt>
      <trkpt lat="43.76917" lon="1.50126">
        <ele>161.987337</ele>
        <time>2023-09-17T10:06:11.424Z</time>
      </trkpt>
      <trkpt lat="43.76915" lon="1.50129">
        <ele>162.02514</ele>
        <time>2023-09-17T10:06:13.424Z</time>
      </trkpt>
      <trkpt lat="43.76912" lon="1.50132">
        <ele>162.077592</ele>
        <time>2023-09-17T10:06:14.424Z</time>
      </trkpt>
      <trkpt lat="43.76912" lon="1.50132">
        <ele>162.077592</ele>
        <time>2023-09-17T10:06:14.424Z</time>
      </trkpt>
      <trkpt lat="43.76909" lon="1.50136">
        <ele>162.124986</ele>
        <time>2023-09-17T10:06:15.424Z</time>
      </trkpt>
      <trkpt lat="43.76906" lon="1.50139">
        <ele>162.178865</ele>
        <time>2023-09-17T10:06:16.424Z</time>
      </trkpt>
      <trkpt lat="43.76906" lon="1.50139">
        <ele>162.178865</ele>
        <time>2023-09-17T10:06:16.424Z</time>
      </trkpt>
      <trkpt lat="43.76904" lon="1.50142">
        <ele>162.221246</ele>
        <time>2023-09-17T10:06:18.424Z</time>
      </trkpt>
      <trkpt lat="43.76899" lon="1.50146">
        <ele>162.294225</ele>
        <time>2023-09-17T10:06:19.424Z</time>
      </trkpt>
      <trkpt lat="43.76899" lon="1.50146">
        <ele>162.294225</ele>
        <time>2023-09-17T10:06:19.424Z</time>
      </trkpt>
      <trkpt lat="43.76896" lon="1.5015">
        <ele>162.350967</ele>
        <time>2023-09-17T10:06:21.424Z</time>
      </trkpt>
      <trkpt lat="43.76896" lon="1.5015">
        <ele>162.350967</ele>
        <time>2023-09-17T10:06:21.424Z</time>
      </trkpt>
      <trkpt lat="43.76893" lon="1.50154">
        <ele>162.412158</ele>
        <time>2023-09-17T10:06:22.424Z</time>
      </trkpt>
      <trkpt lat="43.76891" lon="1.50159">
        <ele>162.466401</ele>
        <time>2023-09-17T10:06:23.424Z</time>
      </trkpt>
      <trkpt lat="43.76891" lon="1.50159">
        <ele>162.466401</ele>
        <time>2023-09-17T10:06:23.424Z</time>
      </trkpt>
      <trkpt lat="43.76889" lon="1.50163">
        <ele>162.512502</ele>
        <time>2023-09-17T10:06:23.424Z</time>
      </trkpt>
      <trkpt lat="43.76889" lon="1.50163">
        <ele>162.512502</ele>
        <time>2023-09-17T10:06:23.424Z</time>
      </trkpt>
      <trkpt lat="43.76888" lon="1.50168">
        <ele>162.566683</ele>
        <time>2023-09-17T10:06:24.424Z</time>
      </trkpt>
      <trkpt lat="43.76886" lon="1.50174">
        <ele>162.630085</ele>
        <time>2023-09-17T10:06:26.424Z</time>
      </trkpt>
      <trkpt lat="43.76885" lon="1.50179">
        <ele>162.682861</ele>
        <time>2023-09-17T10:06:27.424Z</time>
      </trkpt>
      <trkpt lat="43.76885" lon="1.50179">
        <ele>162.682861</ele>
        <time>2023-09-17T10:06:27.424Z</time>
      </trkpt>
      <trkpt lat="43.76885" lon="1.50185">
        <ele>162.741689</ele>
        <time>2023-09-17T10:06:29.424Z</time>
      </trkpt>
      <trkpt lat="43.76884" lon="1.5019">
        <ele>163.027796</ele>
        <time>2023-09-17T10:06:30.424Z</time>
      </trkpt>
      <trkpt lat="43.76884" lon="1.5019">
        <ele>163.027796</ele>
        <time>2023-09-17T10:06:30.424Z</time>
      </trkpt>
      <trkpt lat="43.76883" lon="1.50196">
        <ele>163.460956</ele>
        <time>2023-09-17T10:06:31.424Z</time>
      </trkpt>
      <trkpt lat="43.76883" lon="1.50196">
        <ele>163.460956</ele>
        <time>2023-09-17T10:06:31.424Z</time>
      </trkpt>
      <trkpt lat="43.76883" lon="1.502">
        <ele>163.788029</ele>
        <time>2023-09-17T10:06:32.424Z</time>
      </trkpt>
      <trkpt lat="43.76883" lon="1.50206">
        <ele>164.260922</ele>
        <time>2023-09-17T10:06:33.424Z</time>
      </trkpt>
      <trkpt lat="43.76883" lon="1.50206">
        <ele>164.260922</ele>
        <time>2023-09-17T10:06:33.424Z</time>
      </trkpt>
      <trkpt lat="43.76882" lon="1.50211">
        <ele>164.679065</ele>
        <time>2023-09-17T10:06:35.424Z</time>
      </trkpt>
      <trkpt lat="43.76882" lon="1.50216">
        <ele>165.072815</ele>
        <time>2023-09-17T10:06:36.424Z</time>
      </trkpt>
      <trkpt lat="43.76882" lon="1.50216">
        <ele>165.072815</ele>
        <time>2023-09-17T10:06:36.424Z</time>
      </trkpt>
      <trkpt lat="43.76882" lon="1.50222">
        <ele>165.466564</ele>
        <time>2023-09-17T10:06:37.424Z</time>
      </trkpt>
      <trkpt lat="43.76882" lon="1.50222">
        <ele>165.466564</ele>
        <time>2023-09-17T10:06:37.424Z</time>
      </trkpt>
      <trkpt lat="43.76883" lon="1.50226">
        <ele>165.799353</ele>
        <time>2023-09-17T10:06:37.424Z</time>
      </trkpt>
      <trkpt lat="43.76883" lon="1.50226">
        <ele>165.799353</ele>
        <time>2023-09-17T10:06:37.424Z</time>
      </trkpt>
      <trkpt lat="43.76884" lon="1.50228">
        <ele>166.031116</ele>
        <time>2023-09-17T10:06:39.424Z</time>
      </trkpt>
      <trkpt lat="43.76884" lon="1.50228">
        <ele>166.031116</ele>
        <time>2023-09-17T10:06:39.424Z</time>
      </trkpt>
      <trkpt lat="43.76884" lon="1.50228">
        <ele>166.031116</ele>
        <time>2023-09-17T10:08:02.424Z</time>
      </trkpt>
      <trkpt lat="43.76884" lon="1.50228">
        <ele>166.031116</ele>
        <time>2023-09-17T10:08:15.424Z</time>
      </trkpt>
      <trkpt lat="43.76887" lon="1.50229">
        <ele>166.362909</ele>
        <time>2023-09-17T10:08:17.424Z</time>
      </trkpt>
      <trkpt lat="43.76891" lon="1.50231">
        <ele>166.835296</ele>
        <time>2023-09-17T10:08:19.424Z</time>
      </trkpt>
      <trkpt lat="43.76893" lon="1.50232">
        <ele>166.993547</ele>
        <time>2023-09-17T10:08:20.424Z</time>
      </trkpt>
      <trkpt lat="43.76893" lon="1.50232">
        <ele>166.993547</ele>
        <time>2023-09-17T10:08:20.424Z</time>
      </trkpt>
      <trkpt lat="43.76894" lon="1.50233">
        <ele>167.122975</ele>
        <time>2023-09-17T10:08:21.424Z</time>
      </trkpt>
      <trkpt lat="43.76899" lon="1.50237">
        <ele>167.725478</ele>
        <time>2023-09-17T10:08:23.424Z</time>
      </trkpt>
      <trkpt lat="43.76899" lon="1.50237">
        <ele>167.725478</ele>
        <time>2023-09-17T10:08:23.424Z</time>
      </trkpt>
      <trkpt lat="43.769" lon="1.50238">
        <ele>167.906947</ele>
        <time>2023-09-17T10:08:24.424Z</time>
      </trkpt>
      <trkpt lat="43.76902" lon="1.50239">
        <ele>168.12712</ele>
        <time>2023-09-17T10:08:25.424Z</time>
      </trkpt>
      <trkpt lat="43.76905" lon="1.50241">
        <ele>168.531678</ele>
        <time>2023-09-17T10:08:26.424Z</time>
      </trkpt>
      <trkpt lat="43.76905" lon="1.50241">
        <ele>168.531678</ele>
        <time>2023-09-17T10:08:26.424Z</time>
      </trkpt>
      <trkpt lat="43.76909" lon="1.50244">
        <ele>168.997843</ele>
        <time>2023-09-17T10:08:27.424Z</time>
      </trkpt>
      <trkpt lat="43.76915" lon="1.50248">
        <ele>169.719435</ele>
        <time>2023-09-17T10:08:29.424Z</time>
      </trkpt>
      <trkpt lat="43.76915" lon="1.50248">
        <ele>169.719435</ele>
        <time>2023-09-17T10:08:29.424Z</time>
      </trkpt>
      <trkpt lat="43.76918" lon="1.5025">
        <ele>170.075408</ele>
        <time>2023-09-17T10:08:30.424Z</time>
      </trkpt>
      <trkpt lat="43.76918" lon="1.5025">
        <ele>170.075408</ele>
        <time>2023-09-17T10:08:30.424Z</time>
      </trkpt>
      <trkpt lat="43.76924" lon="1.50254">
        <ele>170.726539</ele>
        <time>2023-09-17T10:08:32.424Z</time>
      </trkpt>
      <trkpt lat="43.76924" lon="1.50254">
        <ele>170.726539</ele>
        <time>2023-09-17T10:08:32.424Z</time>
      </trkpt>
      <trkpt lat="43.76926" lon="1.50256">
        <ele>170.995889</ele>
        <time>2023-09-17T10:08:33.424Z</time>
      </trkpt>
      <trkpt lat="43.76926" lon="1.50256">
        <ele>170.995889</ele>
        <time>2023-09-17T10:08:33.424Z</time>
      </trkpt>
      <trkpt lat="43.76928" lon="1.50257">
        <ele>171.222466</ele>
        <time>2023-09-17T10:08:34.424Z</time>
      </trkpt>
      <trkpt lat="43.76928" lon="1.50257">
        <ele>171.222466</ele>
        <time>2023-09-17T10:08:34.424Z</time>
      </trkpt>
      <trkpt lat="43.76931" lon="1.5026">
        <ele>171.654616</ele>
        <time>2023-09-17T10:08:35.424Z</time>
      </trkpt>
      <trkpt lat="43.76931" lon="1.5026">
        <ele>171.654616</ele>
        <time>2023-09-17T10:08:35.424Z</time>
      </trkpt>
      <trkpt lat="43.76934" lon="1.50261">
        <ele>171.965392</ele>
        <time>2023-09-17T10:08:36.424Z</time>
      </trkpt>
      <trkpt lat="43.76934" lon="1.50261">
        <ele>171.965392</ele>
        <time>2023-09-17T10:08:36.424Z</time>
      </trkpt>
      <trkpt lat="43.76939" lon="1.50265">
        <ele>172.56093</ele>
        <time>2023-09-17T10:08:38.424Z</time>
      </trkpt>
      <trkpt lat="43.76939" lon="1.50265">
        <ele>172.56093</ele>
        <time>2023-09-17T10:08:38.424Z</time>
      </trkpt>
      <trkpt lat="43.76941" lon="1.50266">
        <ele>172.791031</ele>
        <time>2023-09-17T10:08:39.424Z</time>
      </trkpt>
      <trkpt lat="43.76941" lon="1.50266">
        <ele>172.791031</ele>
        <time>2023-09-17T10:08:39.424Z</time>
      </trkpt>
      <trkpt lat="43.76943" lon="1.50268">
        <ele>173.066214</ele>
        <time>2023-09-17T10:08:40.424Z</time>
      </trkpt>
      <trkpt lat="43.76943" lon="1.50268">
        <ele>173.066214</ele>
        <time>2023-09-17T10:08:40.424Z</time>
      </trkpt>
      <trkpt lat="43.76946" lon="1.50269">
        <ele>173.328988</ele>
        <time>2023-09-17T10:08:41.424Z</time>
      </trkpt>
      <trkpt lat="43.76946" lon="1.50269">
        <ele>173.328988</ele>
        <time>2023-09-17T10:08:41.424Z</time>
      </trkpt>
      <trkpt lat="43.76949" lon="1.50271">
        <ele>173.675542</ele>
        <time>2023-09-17T10:08:43.424Z</time>
      </trkpt>
      <trkpt lat="43.76949" lon="1.50271">
        <ele>173.675542</ele>
        <time>2023-09-17T10:08:43.424Z</time>
      </trkpt>
      <trkpt lat="43.76951" lon="1.50273">
        <ele>173.995917</ele>
        <time>2023-09-17T10:08:44.424Z</time>
      </trkpt>
      <trkpt lat="43.76951" lon="1.50273">
        <ele>173.995917</ele>
        <time>2023-09-17T10:08:44.424Z</time>
      </trkpt>
      <trkpt lat="43.76954" lon="1.50274">
        <ele>174.301532</ele>
        <time>2023-09-17T10:08:45.424Z</time>
      </trkpt>
      <trkpt lat="43.76954" lon="1.50274">
        <ele>174.301532</ele>
        <time>2023-09-17T10:08:45.424Z</time>
      </trkpt>
      <trkpt lat="43.76957" lon="1.50276">
        <ele>174.66092</ele>
        <time>2023-09-17T10:08:46.424Z</time>
      </trkpt>
      <trkpt lat="43.76957" lon="1.50276">
        <ele>174.66092</ele>
        <time>2023-09-17T10:08:46.424Z</time>
      </trkpt>
      <trkpt lat="43.76959" lon="1.50277">
        <ele>174.929527</ele>
        <time>2023-09-17T10:08:48.424Z</time>
      </trkpt>
      <trkpt lat="43.76959" lon="1.50277">
        <ele>174.929527</ele>
        <time>2023-09-17T10:08:48.424Z</time>
      </trkpt>
      <trkpt lat="43.76962" lon="1.50279">
        <ele>175.283229</ele>
        <time>2023-09-17T10:08:49.424Z</time>
      </trkpt>
      <trkpt lat="43.76962" lon="1.50279">
        <ele>175.283229</ele>
        <time>2023-09-17T10:08:49.424Z</time>
      </trkpt>
      <trkpt lat="43.76966" lon="1.50281">
        <ele>175.681251</ele>
        <time>2023-09-17T10:08:50.424Z</time>
      </trkpt>
      <trkpt lat="43.76966" lon="1.50281">
        <ele>175.681251</ele>
        <time>2023-09-17T10:08:50.424Z</time>
      </trkpt>
      <trkpt lat="43.76968" lon="1.50282">
        <ele>175.989488</ele>
        <time>2023-09-17T10:08:51.424Z</time>
      </trkpt>
      <trkpt lat="43.76968" lon="1.50282">
        <ele>175.989488</ele>
        <time>2023-09-17T10:08:51.424Z</time>
      </trkpt>
      <trkpt lat="43.76971" lon="1.50284">
        <ele>176.333192</ele>
        <time>2023-09-17T10:08:52.424Z</time>
      </trkpt>
      <trkpt lat="43.76971" lon="1.50284">
        <ele>176.333192</ele>
        <time>2023-09-17T10:08:52.424Z</time>
      </trkpt>
      <trkpt lat="43.76974" lon="1.50285">
        <ele>176.638808</ele>
        <time>2023-09-17T10:08:53.424Z</time>
      </trkpt>
      <trkpt lat="43.76974" lon="1.50285">
        <ele>176.638808</ele>
        <time>2023-09-17T10:08:53.424Z</time>
      </trkpt>
      <trkpt lat="43.76978" lon="1.50287">
        <ele>177.027971</ele>
        <time>2023-09-17T10:08:53.424Z</time>
      </trkpt>
      <trkpt lat="43.76978" lon="1.50287">
        <ele>177.027971</ele>
        <time>2023-09-17T10:08:53.424Z</time>
      </trkpt>
      <trkpt lat="43.7698" lon="1.50289">
        <ele>177.341956</ele>
        <time>2023-09-17T10:08:55.424Z</time>
      </trkpt>
      <trkpt lat="43.7698" lon="1.50289">
        <ele>177.341956</ele>
        <time>2023-09-17T10:08:55.424Z</time>
      </trkpt>
      <trkpt lat="43.76983" lon="1.5029">
        <ele>177.610562</ele>
        <time>2023-09-17T10:08:57.424Z</time>
      </trkpt>
      <trkpt lat="43.76983" lon="1.5029">
        <ele>177.610562</ele>
        <time>2023-09-17T10:08:57.424Z</time>
      </trkpt>
      <trkpt lat="43.76985" lon="1.50292">
        <ele>177.930936</ele>
        <time>2023-09-17T10:08:58.424Z</time>
      </trkpt>
      <trkpt lat="43.76985" lon="1.50292">
        <ele>177.930936</ele>
        <time>2023-09-17T10:08:58.424Z</time>
      </trkpt>
      <trkpt lat="43.76989" lon="1.50294">
        <ele>178.371281</ele>
        <time>2023-09-17T10:08:59.424Z</time>
      </trkpt>
      <trkpt lat="43.76989" lon="1.50294">
        <ele>178.371281</ele>
        <time>2023-09-17T10:08:59.424Z</time>
      </trkpt>
      <trkpt lat="43.76992" lon="1.50296">
        <ele>178.68231</ele>
        <time>2023-09-17T10:09:00.424Z</time>
      </trkpt>
      <trkpt lat="43.76992" lon="1.50296">
        <ele>178.68231</ele>
        <time>2023-09-17T10:09:00.424Z</time>
      </trkpt>
      <trkpt lat="43.76995" lon="1.50297">
        <ele>179.028864</ele>
        <time>2023-09-17T10:09:01.424Z</time>
      </trkpt>
      <trkpt lat="43.76995" lon="1.50297">
        <ele>179.028864</ele>
        <time>2023-09-17T10:09:01.424Z</time>
      </trkpt>
      <trkpt lat="43.76998" lon="1.50299">
        <ele>179.397824</ele>
        <time>2023-09-17T10:09:03.424Z</time>
      </trkpt>
      <trkpt lat="43.76998" lon="1.50299">
        <ele>179.397824</ele>
        <time>2023-09-17T10:09:03.424Z</time>
      </trkpt>
      <trkpt lat="43.77" lon="1.50301">
        <ele>179.650621</ele>
        <time>2023-09-17T10:09:03.424Z</time>
      </trkpt>
      <trkpt lat="43.77" lon="1.50301">
        <ele>179.650621</ele>
        <time>2023-09-17T10:09:03.424Z</time>
      </trkpt>
      <trkpt lat="43.77003" lon="1.50302">
        <ele>179.964606</ele>
        <time>2023-09-17T10:09:05.424Z</time>
      </trkpt>
      <trkpt lat="43.77003" lon="1.50302">
        <ele>179.964606</ele>
        <time>2023-09-17T10:09:05.424Z</time>
      </trkpt>
      <trkpt lat="43.77005" lon="1.50304">
        <ele>180.281707</ele>
        <time>2023-09-17T10:09:06.424Z</time>
      </trkpt>
      <trkpt lat="43.77005" lon="1.50304">
        <ele>180.281707</ele>
        <time>2023-09-17T10:09:06.424Z</time>
      </trkpt>
      <trkpt lat="43.77008" lon="1.50306">
        <ele>180.605505</ele>
        <time>2023-09-17T10:09:07.424Z</time>
      </trkpt>
      <trkpt lat="43.77008" lon="1.50306">
        <ele>180.605505</ele>
        <time>2023-09-17T10:09:07.424Z</time>
      </trkpt>
      <trkpt lat="43.7701" lon="1.50307">
        <ele>180.861232</ele>
        <time>2023-09-17T10:09:08.424Z</time>
      </trkpt>
      <trkpt lat="43.7701" lon="1.50307">
        <ele>180.861232</ele>
        <time>2023-09-17T10:09:08.424Z</time>
      </trkpt>
      <trkpt lat="43.77013" lon="1.50309">
        <ele>181.17226</ele>
        <time>2023-09-17T10:09:09.424Z</time>
      </trkpt>
      <trkpt lat="43.77013" lon="1.50309">
        <ele>181.17226</ele>
        <time>2023-09-17T10:09:09.424Z</time>
      </trkpt>
      <trkpt lat="43.77016" lon="1.5031">
        <ele>181.531646</ele>
        <time>2023-09-17T10:09:11.424Z</time>
      </trkpt>
      <trkpt lat="43.77016" lon="1.5031">
        <ele>181.531646</ele>
        <time>2023-09-17T10:09:11.424Z</time>
      </trkpt>
      <trkpt lat="43.77019" lon="1.50312">
        <ele>181.87535</ele>
        <time>2023-09-17T10:09:12.424Z</time>
      </trkpt>
      <trkpt lat="43.77019" lon="1.50312">
        <ele>181.87535</ele>
        <time>2023-09-17T10:09:12.424Z</time>
      </trkpt>
      <trkpt lat="43.77021" lon="1.50313">
        <ele>182.034256</ele>
        <time>2023-09-17T10:09:13.424Z</time>
      </trkpt>
      <trkpt lat="43.77021" lon="1.50313">
        <ele>182.034256</ele>
        <time>2023-09-17T10:09:13.424Z</time>
      </trkpt>
      <trkpt lat="43.77025" lon="1.50316">
        <ele>182.156014</ele>
        <time>2023-09-17T10:09:14.424Z</time>
      </trkpt>
      <trkpt lat="43.77025" lon="1.50316">
        <ele>182.156014</ele>
        <time>2023-09-17T10:09:14.424Z</time>
      </trkpt>
      <trkpt lat="43.77027" lon="1.50319">
        <ele>182.264295</ele>
        <time>2023-09-17T10:09:15.424Z</time>
      </trkpt>
      <trkpt lat="43.77027" lon="1.50319">
        <ele>182.264295</ele>
        <time>2023-09-17T10:09:15.424Z</time>
      </trkpt>
      <trkpt lat="43.77028" lon="1.50324">
        <ele>182.369852</ele>
        <time>2023-09-17T10:09:17.424Z</time>
      </trkpt>
      <trkpt lat="43.77028" lon="1.50324">
        <ele>182.369852</ele>
        <time>2023-09-17T10:09:17.424Z</time>
      </trkpt>
      <trkpt lat="43.77026" lon="1.50331">
        <ele>182.536433</ele>
        <time>2023-09-17T10:09:18.424Z</time>
      </trkpt>
      <trkpt lat="43.77026" lon="1.50331">
        <ele>182.536433</ele>
        <time>2023-09-17T10:09:18.424Z</time>
      </trkpt>
      <trkpt lat="43.77025" lon="1.50335">
        <ele>182.64008</ele>
        <time>2023-09-17T10:09:19.424Z</time>
      </trkpt>
      <trkpt lat="43.77023" lon="1.50339">
        <ele>182.762207</ele>
        <time>2023-09-17T10:09:20.424Z</time>
      </trkpt>
      <trkpt lat="43.77021" lon="1.50343">
        <ele>182.874377</ele>
        <time>2023-09-17T10:09:21.424Z</time>
      </trkpt>
      <trkpt lat="43.77021" lon="1.50343">
        <ele>182.874377</ele>
        <time>2023-09-17T10:09:21.424Z</time>
      </trkpt>
      <trkpt lat="43.77018" lon="1.5035">
        <ele>183.05314</ele>
        <time>2023-09-17T10:09:23.424Z</time>
      </trkpt>
      <trkpt lat="43.77016" lon="1.50354">
        <ele>183.1804</ele>
        <time>2023-09-17T10:09:24.424Z</time>
      </trkpt>
      <trkpt lat="43.77013" lon="1.50359">
        <ele>183.33428</ele>
        <time>2023-09-17T10:09:25.424Z</time>
      </trkpt>
      <trkpt lat="43.77011" lon="1.50365">
        <ele>183.483184</ele>
        <time>2023-09-17T10:09:26.424Z</time>
      </trkpt>
      <trkpt lat="43.77006" lon="1.50376">
        <ele>183.796018</ele>
        <time>2023-09-17T10:09:27.424Z</time>
      </trkpt>
      <trkpt lat="43.77004" lon="1.5038">
        <ele>183.900486</ele>
        <time>2023-09-17T10:09:29.424Z</time>
      </trkpt>
      <trkpt lat="43.77004" lon="1.5038">
        <ele>183.900486</ele>
        <time>2023-09-17T10:09:29.424Z</time>
      </trkpt>
      <trkpt lat="43.76999" lon="1.50391">
        <ele>184.20105</ele>
        <time>2023-09-17T10:09:31.424Z</time>
      </trkpt>
      <trkpt lat="43.76999" lon="1.50391">
        <ele>184.20105</ele>
        <time>2023-09-17T10:09:31.424Z</time>
      </trkpt>
      <trkpt lat="43.76997" lon="1.50396">
        <ele>184.349954</ele>
        <time>2023-09-17T10:09:32.424Z</time>
      </trkpt>
      <trkpt lat="43.76995" lon="1.50401">
        <ele>184.476149</ele>
        <time>2023-09-17T10:09:33.424Z</time>
      </trkpt>
      <trkpt lat="43.7699" lon="1.50413">
        <ele>184.800736</ele>
        <time>2023-09-17T10:09:35.424Z</time>
      </trkpt>
      <trkpt lat="43.7699" lon="1.50413">
        <ele>184.800736</ele>
        <time>2023-09-17T10:09:35.424Z</time>
      </trkpt>
      <trkpt lat="43.76988" lon="1.50417">
        <ele>184.907105</ele>
        <time>2023-09-17T10:09:36.424Z</time>
      </trkpt>
      <trkpt lat="43.76986" lon="1.50421">
        <ele>185.031261</ele>
        <time>2023-09-17T10:09:37.424Z</time>
      </trkpt>
      <trkpt lat="43.76981" lon="1.50434">
        <ele>185.370869</ele>
        <time>2023-09-17T10:09:39.424Z</time>
      </trkpt>
      <trkpt lat="43.76979" lon="1.50438">
        <ele>185.479156</ele>
        <time>2023-09-17T10:09:40.424Z</time>
      </trkpt>
      <trkpt lat="43.76976" lon="1.50443">
        <ele>185.618047</ele>
        <time>2023-09-17T10:09:41.424Z</time>
      </trkpt>
      <trkpt lat="43.7697" lon="1.50456">
        <ele>185.992365</ele>
        <time>2023-09-17T10:09:43.424Z</time>
      </trkpt>
      <trkpt lat="43.76968" lon="1.50461">
        <ele>186.137234</ele>
        <time>2023-09-17T10:09:44.424Z</time>
      </trkpt>
      <trkpt lat="43.76968" lon="1.50461">
        <ele>186.137234</ele>
        <time>2023-09-17T10:09:44.424Z</time>
      </trkpt>
      <trkpt lat="43.76965" lon="1.50467">
        <ele>186.290212</ele>
        <time>2023-09-17T10:09:45.424Z</time>
      </trkpt>
      <trkpt lat="43.76963" lon="1.50472">
        <ele>186.422584</ele>
        <time>2023-09-17T10:09:46.424Z</time>
      </trkpt>
      <trkpt lat="43.76963" lon="1.50472">
        <ele>186.422584</ele>
        <time>2023-09-17T10:09:46.424Z</time>
      </trkpt>
      <trkpt lat="43.76961" lon="1.50477">
        <ele>186.580539</ele>
        <time>2023-09-17T10:09:47.424Z</time>
      </trkpt>
      <trkpt lat="43.76959" lon="1.50483">
        <ele>186.729444</ele>
        <time>2023-09-17T10:09:48.424Z</time>
      </trkpt>
      <trkpt lat="43.76956" lon="1.50489">
        <ele>186.880381</ele>
        <time>2023-09-17T10:09:49.424Z</time>
      </trkpt>
      <trkpt lat="43.76954" lon="1.50494">
        <ele>187.023247</ele>
        <time>2023-09-17T10:09:50.424Z</time>
      </trkpt>
      <trkpt lat="43.76951" lon="1.505">
        <ele>187.196904</ele>
        <time>2023-09-17T10:09:51.424Z</time>
      </trkpt>
      <trkpt lat="43.76951" lon="1.505">
        <ele>187.196904</ele>
        <time>2023-09-17T10:09:51.424Z</time>
      </trkpt>
      <trkpt lat="43.76949" lon="1.50506">
        <ele>187.343989</ele>
        <time>2023-09-17T10:09:52.424Z</time>
      </trkpt>
      <trkpt lat="43.76947" lon="1.50512">
        <ele>187.513575</ele>
        <time>2023-09-17T10:09:53.424Z</time>
      </trkpt>
      <trkpt lat="43.76945" lon="1.50518">
        <ele>187.672726</ele>
        <time>2023-09-17T10:09:54.424Z</time>
      </trkpt>
      <trkpt lat="43.76942" lon="1.50525">
        <ele>187.81863</ele>
        <time>2023-09-17T10:09:55.424Z</time>
      </trkpt>
      <trkpt lat="43.76942" lon="1.50525">
        <ele>187.81863</ele>
        <time>2023-09-17T10:09:55.424Z</time>
      </trkpt>
      <trkpt lat="43.7694" lon="1.50531">
        <ele>187.791224</ele>
        <time>2023-09-17T10:09:56.424Z</time>
      </trkpt>
      <trkpt lat="43.7694" lon="1.50531">
        <ele>187.791224</ele>
        <time>2023-09-17T10:09:56.424Z</time>
      </trkpt>
      <trkpt lat="43.76938" lon="1.50537">
        <ele>187.765674</ele>
        <time>2023-09-17T10:09:57.424Z</time>
      </trkpt>
      <trkpt lat="43.76936" lon="1.50544">
        <ele>187.735802</ele>
        <time>2023-09-17T10:09:58.424Z</time>
      </trkpt>
      <trkpt lat="43.76934" lon="1.50551">
        <ele>187.707119</ele>
        <time>2023-09-17T10:09:59.424Z</time>
      </trkpt>
      <trkpt lat="43.76931" lon="1.50558">
        <ele>187.678086</ele>
        <time>2023-09-17T10:10:00.424Z</time>
      </trkpt>
      <trkpt lat="43.7693" lon="1.50564">
        <ele>187.650615</ele>
        <time>2023-09-17T10:10:01.424Z</time>
      </trkpt>
      <trkpt lat="43.76928" lon="1.50571">
        <ele>187.624218</ele>
        <time>2023-09-17T10:10:02.424Z</time>
      </trkpt>
      <trkpt lat="43.76925" lon="1.50578">
        <ele>187.594835</ele>
        <time>2023-09-17T10:10:03.424Z</time>
      </trkpt>
      <trkpt lat="43.76925" lon="1.50578">
        <ele>187.594835</ele>
        <time>2023-09-17T10:10:03.424Z</time>
      </trkpt>
      <trkpt lat="43.76923" lon="1.50583">
        <ele>187.569251</ele>
        <time>2023-09-17T10:10:04.424Z</time>
      </trkpt>
      <trkpt lat="43.7692" lon="1.5059">
        <ele>187.539585</ele>
        <time>2023-09-17T10:10:05.424Z</time>
      </trkpt>
      <trkpt lat="43.76918" lon="1.50596">
        <ele>187.514001</ele>
        <time>2023-09-17T10:10:06.424Z</time>
      </trkpt>
      <trkpt lat="43.76916" lon="1.50602">
        <ele>187.487737</ele>
        <time>2023-09-17T10:10:07.424Z</time>
      </trkpt>
      <trkpt lat="43.76913" lon="1.50608">
        <ele>187.457911</ele>
        <time>2023-09-17T10:10:08.424Z</time>
      </trkpt>
      <trkpt lat="43.7691" lon="1.50614">
        <ele>187.432327</ele>
        <time>2023-09-17T10:10:09.424Z</time>
      </trkpt>
      <trkpt lat="43.76908" lon="1.5062">
        <ele>187.404334</ele>
        <time>2023-09-17T10:10:10.424Z</time>
      </trkpt>
      <trkpt lat="43.76905" lon="1.50626">
        <ele>187.378267</ele>
        <time>2023-09-17T10:10:11.424Z</time>
      </trkpt>
      <trkpt lat="43.76905" lon="1.50626">
        <ele>187.378267</ele>
        <time>2023-09-17T10:10:11.424Z</time>
      </trkpt>
      <trkpt lat="43.76902" lon="1.50632">
        <ele>187.348791</ele>
        <time>2023-09-17T10:10:12.424Z</time>
      </trkpt>
      <trkpt lat="43.76899" lon="1.50638">
        <ele>187.323077</ele>
        <time>2023-09-17T10:10:13.424Z</time>
      </trkpt>
      <trkpt lat="43.76896" lon="1.50644">
        <ele>187.294222</ele>
        <time>2023-09-17T10:10:14.424Z</time>
      </trkpt>
      <trkpt lat="43.76894" lon="1.5065">
        <ele>187.267865</ele>
        <time>2023-09-17T10:10:15.424Z</time>
      </trkpt>
      <trkpt lat="43.76891" lon="1.50656">
        <ele>187.239871</ele>
        <time>2023-09-17T10:10:16.424Z</time>
      </trkpt>
      <trkpt lat="43.76888" lon="1.50662">
        <ele>187.212817</ele>
        <time>2023-09-17T10:10:17.424Z</time>
      </trkpt>
      <trkpt lat="43.76886" lon="1.50668">
        <ele>187.184491</ele>
        <time>2023-09-17T10:10:18.424Z</time>
      </trkpt>
      <trkpt lat="43.76883" lon="1.50675">
        <ele>187.155833</ele>
        <time>2023-09-17T10:10:19.424Z</time>
      </trkpt>
      <trkpt lat="43.76881" lon="1.50682">
        <ele>187.127642</ele>
        <time>2023-09-17T10:10:20.424Z</time>
      </trkpt>
      <trkpt lat="43.76881" lon="1.50682">
        <ele>187.127642</ele>
        <time>2023-09-17T10:10:20.424Z</time>
      </trkpt>
      <trkpt lat="43.76879" lon="1.50689">
        <ele>187.096847</ele>
        <time>2023-09-17T10:10:21.424Z</time>
      </trkpt>
      <trkpt lat="43.76878" lon="1.50696">
        <ele>187.068015</ele>
        <time>2023-09-17T10:10:22.424Z</time>
      </trkpt>
      <trkpt lat="43.76876" lon="1.50703">
        <ele>187.040949</ele>
        <time>2023-09-17T10:10:23.424Z</time>
      </trkpt>
      <trkpt lat="43.76875" lon="1.50712">
        <ele>187.004894</ele>
        <time>2023-09-17T10:10:24.424Z</time>
      </trkpt>
      <trkpt lat="43.76875" lon="1.50712">
        <ele>187.004894</ele>
        <time>2023-09-17T10:10:24.424Z</time>
      </trkpt>
      <trkpt lat="43.76874" lon="1.5072">
        <ele>186.974924</ele>
        <time>2023-09-17T10:10:25.424Z</time>
      </trkpt>
      <trkpt lat="43.76874" lon="1.5072">
        <ele>186.974924</ele>
        <time>2023-09-17T10:10:25.424Z</time>
      </trkpt>
      <trkpt lat="43.76874" lon="1.50728">
        <ele>186.94206</ele>
        <time>2023-09-17T10:10:26.424Z</time>
      </trkpt>
      <trkpt lat="43.76874" lon="1.50737">
        <ele>186.909511</ele>
        <time>2023-09-17T10:10:27.424Z</time>
      </trkpt>
      <trkpt lat="43.76874" lon="1.50737">
        <ele>186.909511</ele>
        <time>2023-09-17T10:10:27.424Z</time>
      </trkpt>
      <trkpt lat="43.76873" lon="1.50745">
        <ele>186.876191</ele>
        <time>2023-09-17T10:10:28.424Z</time>
      </trkpt>
      <trkpt lat="43.76873" lon="1.50745">
        <ele>186.876191</ele>
        <time>2023-09-17T10:10:28.424Z</time>
      </trkpt>
      <trkpt lat="43.76873" lon="1.50754">
        <ele>186.88687</ele>
        <time>2023-09-17T10:10:28.424Z</time>
      </trkpt>
      <trkpt lat="43.76873" lon="1.50763">
        <ele>186.939726</ele>
        <time>2023-09-17T10:10:30.424Z</time>
      </trkpt>
      <trkpt lat="43.76873" lon="1.50763">
        <ele>186.939726</ele>
        <time>2023-09-17T10:10:30.424Z</time>
      </trkpt>
      <trkpt lat="43.76873" lon="1.50771">
        <ele>186.993096</ele>
        <time>2023-09-17T10:10:31.424Z</time>
      </trkpt>
      <trkpt lat="43.76873" lon="1.50771">
        <ele>186.993096</ele>
        <time>2023-09-17T10:10:31.424Z</time>
      </trkpt>
      <trkpt lat="43.76873" lon="1.5078">
        <ele>187.047832</ele>
        <time>2023-09-17T10:10:32.424Z</time>
      </trkpt>
      <trkpt lat="43.76873" lon="1.50787">
        <ele>187.091155</ele>
        <time>2023-09-17T10:10:33.424Z</time>
      </trkpt>
      <trkpt lat="43.76872" lon="1.50796">
        <ele>187.150861</ele>
        <time>2023-09-17T10:10:34.424Z</time>
      </trkpt>
      <trkpt lat="43.76872" lon="1.50803">
        <ele>187.196201</ele>
        <time>2023-09-17T10:10:35.424Z</time>
      </trkpt>
      <trkpt lat="43.76872" lon="1.5081">
        <ele>187.240916</ele>
        <time>2023-09-17T10:10:36.424Z</time>
      </trkpt>
      <trkpt lat="43.76871" lon="1.50818">
        <ele>187.289388</ele>
        <time>2023-09-17T10:10:37.424Z</time>
      </trkpt>
      <trkpt lat="43.7687" lon="1.50825">
        <ele>187.333266</ele>
        <time>2023-09-17T10:10:38.424Z</time>
      </trkpt>
      <trkpt lat="43.7687" lon="1.50825">
        <ele>187.333266</ele>
        <time>2023-09-17T10:10:38.424Z</time>
      </trkpt>
      <trkpt lat="43.7687" lon="1.50832">
        <ele>187.378259</ele>
        <time>2023-09-17T10:10:39.424Z</time>
      </trkpt>
      <trkpt lat="43.7687" lon="1.50832">
        <ele>187.378259</ele>
        <time>2023-09-17T10:10:39.424Z</time>
      </trkpt>
      <trkpt lat="43.76868" lon="1.50839">
        <ele>187.425913</ele>
        <time>2023-09-17T10:10:40.424Z</time>
      </trkpt>
      <trkpt lat="43.76868" lon="1.50839">
        <ele>187.425913</ele>
        <time>2023-09-17T10:10:40.424Z</time>
      </trkpt>
      <trkpt lat="43.76867" lon="1.50846">
        <ele>187.470222</ele>
        <time>2023-09-17T10:10:40.424Z</time>
      </trkpt>
      <trkpt lat="43.76867" lon="1.50846">
        <ele>187.470222</ele>
        <time>2023-09-17T10:10:40.424Z</time>
      </trkpt>
      <trkpt lat="43.76864" lon="1.50853">
        <ele>187.519081</ele>
        <time>2023-09-17T10:10:42.424Z</time>
      </trkpt>
      <trkpt lat="43.76864" lon="1.50853">
        <ele>187.519081</ele>
        <time>2023-09-17T10:10:42.424Z</time>
      </trkpt>
      <trkpt lat="43.76862" lon="1.5086">
        <ele>187.56302</ele>
        <time>2023-09-17T10:10:43.424Z</time>
      </trkpt>
      <trkpt lat="43.76859" lon="1.50866">
        <ele>187.609018</ele>
        <time>2023-09-17T10:10:44.424Z</time>
      </trkpt>
      <trkpt lat="43.76856" lon="1.50872">
        <ele>187.658452</ele>
        <time>2023-09-17T10:10:44.424Z</time>
      </trkpt>
      <trkpt lat="43.76853" lon="1.50878">
        <ele>187.703759</ele>
        <time>2023-09-17T10:10:46.424Z</time>
      </trkpt>
      <trkpt lat="43.76851" lon="1.50885">
        <ele>187.749757</ele>
        <time>2023-09-17T10:10:46.424Z</time>
      </trkpt>
      <trkpt lat="43.76848" lon="1.50891">
        <ele>187.797139</ele>
        <time>2023-09-17T10:10:47.424Z</time>
      </trkpt>
      <trkpt lat="43.76845" lon="1.50897">
        <ele>187.839237</ele>
        <time>2023-09-17T10:10:48.424Z</time>
      </trkpt>
      <trkpt lat="43.76843" lon="1.50904">
        <ele>187.886385</ele>
        <time>2023-09-17T10:10:49.424Z</time>
      </trkpt>
      <trkpt lat="43.76841" lon="1.5091">
        <ele>187.926946</ele>
        <time>2023-09-17T10:10:51.424Z</time>
      </trkpt>
      <trkpt lat="43.76841" lon="1.5091">
        <ele>187.926946</ele>
        <time>2023-09-17T10:10:51.424Z</time>
      </trkpt>
      <trkpt lat="43.7684" lon="1.50916">
        <ele>187.970898</ele>
        <time>2023-09-17T10:10:52.424Z</time>
      </trkpt>
      <trkpt lat="43.7684" lon="1.50916">
        <ele>187.970898</ele>
        <time>2023-09-17T10:10:52.424Z</time>
      </trkpt>
      <trkpt lat="43.76839" lon="1.50922">
        <ele>188.00844</ele>
        <time>2023-09-17T10:10:52.424Z</time>
      </trkpt>
      <trkpt lat="43.76838" lon="1.50929">
        <ele>188.051699</ele>
        <time>2023-09-17T10:10:54.424Z</time>
      </trkpt>
      <trkpt lat="43.76838" lon="1.50929">
        <ele>188.051699</ele>
        <time>2023-09-17T10:10:54.424Z</time>
      </trkpt>
      <trkpt lat="43.76838" lon="1.50935">
        <ele>188.091408</ele>
        <time>2023-09-17T10:10:54.424Z</time>
      </trkpt>
      <trkpt lat="43.76838" lon="1.50935">
        <ele>188.091408</ele>
        <time>2023-09-17T10:10:54.424Z</time>
      </trkpt>
      <trkpt lat="43.76838" lon="1.50942">
        <ele>188.131117</ele>
        <time>2023-09-17T10:10:56.424Z</time>
      </trkpt>
      <trkpt lat="43.76838" lon="1.50942">
        <ele>188.131117</ele>
        <time>2023-09-17T10:10:56.424Z</time>
      </trkpt>
      <trkpt lat="43.76837" lon="1.50948">
        <ele>188.170133</ele>
        <time>2023-09-17T10:10:57.424Z</time>
      </trkpt>
      <trkpt lat="43.76837" lon="1.50948">
        <ele>188.170133</ele>
        <time>2023-09-17T10:10:57.424Z</time>
      </trkpt>
      <trkpt lat="43.76837" lon="1.50954">
        <ele>188.210317</ele>
        <time>2023-09-17T10:10:57.424Z</time>
      </trkpt>
      <trkpt lat="43.76837" lon="1.50954">
        <ele>188.210317</ele>
        <time>2023-09-17T10:10:57.424Z</time>
      </trkpt>
      <trkpt lat="43.76838" lon="1.5096">
        <ele>188.249333</ele>
        <time>2023-09-17T10:10:59.424Z</time>
      </trkpt>
      <trkpt lat="43.76838" lon="1.50967">
        <ele>188.28889</ele>
        <time>2023-09-17T10:10:59.424Z</time>
      </trkpt>
      <trkpt lat="43.76838" lon="1.50967">
        <ele>188.28889</ele>
        <time>2023-09-17T10:10:59.424Z</time>
      </trkpt>
      <trkpt lat="43.76838" lon="1.50973">
        <ele>188.330958</ele>
        <time>2023-09-17T10:11:01.424Z</time>
      </trkpt>
      <trkpt lat="43.76838" lon="1.50973">
        <ele>188.330958</ele>
        <time>2023-09-17T10:11:01.424Z</time>
      </trkpt>
      <trkpt lat="43.76838" lon="1.5098">
        <ele>188.372398</ele>
        <time>2023-09-17T10:11:02.424Z</time>
      </trkpt>
      <trkpt lat="43.76838" lon="1.5098">
        <ele>188.372398</ele>
        <time>2023-09-17T10:11:02.424Z</time>
      </trkpt>
      <trkpt lat="43.76838" lon="1.50986">
        <ele>188.411955</ele>
        <time>2023-09-17T10:11:03.424Z</time>
      </trkpt>
      <trkpt lat="43.76838" lon="1.50992">
        <ele>188.54963</ele>
        <time>2023-09-17T10:11:04.424Z</time>
      </trkpt>
      <trkpt lat="43.76838" lon="1.50992">
        <ele>188.54963</ele>
        <time>2023-09-17T10:11:04.424Z</time>
      </trkpt>
      <trkpt lat="43.76838" lon="1.50999">
        <ele>188.759555</ele>
        <time>2023-09-17T10:11:05.424Z</time>
      </trkpt>
      <trkpt lat="43.76838" lon="1.50999">
        <ele>188.759555</ele>
        <time>2023-09-17T10:11:05.424Z</time>
      </trkpt>
      <trkpt lat="43.76838" lon="1.51005">
        <ele>188.942099</ele>
        <time>2023-09-17T10:11:06.424Z</time>
      </trkpt>
      <trkpt lat="43.76838" lon="1.51011">
        <ele>189.13377</ele>
        <time>2023-09-17T10:11:07.424Z</time>
      </trkpt>
      <trkpt lat="43.76838" lon="1.51011">
        <ele>189.13377</ele>
        <time>2023-09-17T10:11:07.424Z</time>
      </trkpt>
      <trkpt lat="43.76837" lon="1.51017">
        <ele>189.301579</ele>
        <time>2023-09-17T10:11:08.424Z</time>
      </trkpt>
      <trkpt lat="43.76836" lon="1.51024">
        <ele>189.508187</ele>
        <time>2023-09-17T10:11:09.424Z</time>
      </trkpt>
      <trkpt lat="43.76836" lon="1.51029">
        <ele>189.684849</ele>
        <time>2023-09-17T10:11:10.424Z</time>
      </trkpt>
      <trkpt lat="43.76836" lon="1.51029">
        <ele>189.684849</ele>
        <time>2023-09-17T10:11:10.424Z</time>
      </trkpt>
      <trkpt lat="43.76835" lon="1.51035">
        <ele>189.86783</ele>
        <time>2023-09-17T10:11:10.424Z</time>
      </trkpt>
      <trkpt lat="43.76835" lon="1.51041">
        <ele>190.032561</ele>
        <time>2023-09-17T10:11:12.424Z</time>
      </trkpt>
      <trkpt lat="43.76833" lon="1.51046">
        <ele>190.207364</ele>
        <time>2023-09-17T10:11:13.424Z</time>
      </trkpt>
      <trkpt lat="43.76833" lon="1.51046">
        <ele>190.207364</ele>
        <time>2023-09-17T10:11:13.424Z</time>
      </trkpt>
      <trkpt lat="43.76832" lon="1.51051">
        <ele>190.372217</ele>
        <time>2023-09-17T10:11:14.424Z</time>
      </trkpt>
      <trkpt lat="43.76831" lon="1.51054">
        <ele>190.4582</ele>
        <time>2023-09-17T10:11:15.424Z</time>
      </trkpt>
      <trkpt lat="43.76831" lon="1.51054">
        <ele>190.4582</ele>
        <time>2023-09-17T10:11:15.424Z</time>
      </trkpt>
      <trkpt lat="43.76829" lon="1.51067">
        <ele>190.859812</ele>
        <time>2023-09-17T10:11:17.424Z</time>
      </trkpt>
      <trkpt lat="43.76829" lon="1.51067">
        <ele>190.859812</ele>
        <time>2023-09-17T10:11:17.424Z</time>
      </trkpt>
      <trkpt lat="43.76828" lon="1.51071">
        <ele>190.98316</ele>
        <time>2023-09-17T10:11:18.424Z</time>
      </trkpt>
      <trkpt lat="43.76828" lon="1.51071">
        <ele>190.98316</ele>
        <time>2023-09-17T10:11:18.424Z</time>
      </trkpt>
      <trkpt lat="43.76827" lon="1.51075">
        <ele>191.127111</ele>
        <time>2023-09-17T10:11:19.424Z</time>
      </trkpt>
      <trkpt lat="43.76827" lon="1.51075">
        <ele>191.127111</ele>
        <time>2023-09-17T10:11:19.424Z</time>
      </trkpt>
      <trkpt lat="43.76825" lon="1.51087">
        <ele>191.498962</ele>
        <time>2023-09-17T10:11:21.424Z</time>
      </trkpt>
      <trkpt lat="43.76825" lon="1.51087">
        <ele>191.498962</ele>
        <time>2023-09-17T10:11:21.424Z</time>
      </trkpt>
      <trkpt lat="43.76824" lon="1.51091">
        <ele>191.62714</ele>
        <time>2023-09-17T10:11:22.424Z</time>
      </trkpt>
      <trkpt lat="43.76824" lon="1.51091">
        <ele>191.62714</ele>
        <time>2023-09-17T10:11:22.424Z</time>
      </trkpt>
      <trkpt lat="43.76824" lon="1.51098">
        <ele>191.827938</ele>
        <time>2023-09-17T10:11:23.424Z</time>
      </trkpt>
      <trkpt lat="43.76824" lon="1.51098">
        <ele>191.827938</ele>
        <time>2023-09-17T10:11:23.424Z</time>
      </trkpt>
      <trkpt lat="43.76825" lon="1.51108">
        <ele>192.156758</ele>
        <time>2023-09-17T10:11:25.424Z</time>
      </trkpt>
      <trkpt lat="43.76825" lon="1.51108">
        <ele>192.156758</ele>
        <time>2023-09-17T10:11:25.424Z</time>
      </trkpt>
      <trkpt lat="43.76827" lon="1.51113">
        <ele>192.331351</ele>
        <time>2023-09-17T10:11:26.424Z</time>
      </trkpt>
      <trkpt lat="43.76827" lon="1.51113">
        <ele>192.331351</ele>
        <time>2023-09-17T10:11:26.424Z</time>
      </trkpt>
      <trkpt lat="43.7683" lon="1.51119">
        <ele>192.531178</ele>
        <time>2023-09-17T10:11:27.424Z</time>
      </trkpt>
      <trkpt lat="43.7683" lon="1.51119">
        <ele>192.531178</ele>
        <time>2023-09-17T10:11:27.424Z</time>
      </trkpt>
      <trkpt lat="43.76833" lon="1.51123">
        <ele>192.704539</ele>
        <time>2023-09-17T10:11:28.424Z</time>
      </trkpt>
      <trkpt lat="43.76833" lon="1.51123">
        <ele>192.704539</ele>
        <time>2023-09-17T10:11:28.424Z</time>
      </trkpt>
      <trkpt lat="43.76836" lon="1.51127">
        <ele>192.879994</ele>
        <time>2023-09-17T10:11:29.424Z</time>
      </trkpt>
      <trkpt lat="43.76836" lon="1.51127">
        <ele>192.879994</ele>
        <time>2023-09-17T10:11:29.424Z</time>
      </trkpt>
      <trkpt lat="43.76839" lon="1.51132">
        <ele>193.088681</ele>
        <time>2023-09-17T10:11:31.424Z</time>
      </trkpt>
      <trkpt lat="43.76839" lon="1.51132">
        <ele>193.088681</ele>
        <time>2023-09-17T10:11:31.424Z</time>
      </trkpt>
      <trkpt lat="43.76841" lon="1.51134">
        <ele>193.198209</ele>
        <time>2023-09-17T10:11:32.424Z</time>
      </trkpt>
      <trkpt lat="43.76845" lon="1.51138">
        <ele>193.403046</ele>
        <time>2023-09-17T10:11:33.424Z</time>
      </trkpt>
      <trkpt lat="43.76845" lon="1.51138">
        <ele>193.403046</ele>
        <time>2023-09-17T10:11:33.424Z</time>
      </trkpt>
      <trkpt lat="43.76849" lon="1.51144">
        <ele>193.648682</ele>
        <time>2023-09-17T10:11:34.424Z</time>
      </trkpt>
      <trkpt lat="43.76849" lon="1.51144">
        <ele>193.648682</ele>
        <time>2023-09-17T10:11:34.424Z</time>
      </trkpt>
      <trkpt lat="43.76852" lon="1.51148">
        <ele>193.816987</ele>
        <time>2023-09-17T10:11:35.424Z</time>
      </trkpt>
      <trkpt lat="43.76852" lon="1.51148">
        <ele>193.816987</ele>
        <time>2023-09-17T10:11:35.424Z</time>
      </trkpt>
      <trkpt lat="43.76855" lon="1.51154">
        <ele>194.034083</ele>
        <time>2023-09-17T10:11:37.424Z</time>
      </trkpt>
      <trkpt lat="43.76855" lon="1.51154">
        <ele>194.034083</ele>
        <time>2023-09-17T10:11:37.424Z</time>
      </trkpt>
      <trkpt lat="43.76858" lon="1.51159">
        <ele>194.224029</ele>
        <time>2023-09-17T10:11:38.424Z</time>
      </trkpt>
      <trkpt lat="43.7686" lon="1.51164">
        <ele>194.417983</ele>
        <time>2023-09-17T10:11:39.424Z</time>
      </trkpt>
      <trkpt lat="43.7686" lon="1.51164">
        <ele>194.417983</ele>
        <time>2023-09-17T10:11:39.424Z</time>
      </trkpt>
      <trkpt lat="43.76862" lon="1.51169">
        <ele>194.570585</ele>
        <time>2023-09-17T10:11:40.424Z</time>
      </trkpt>
      <trkpt lat="43.76865" lon="1.5118">
        <ele>194.934017</ele>
        <time>2023-09-17T10:11:42.424Z</time>
      </trkpt>
      <trkpt lat="43.76865" lon="1.5118">
        <ele>194.934017</ele>
        <time>2023-09-17T10:11:42.424Z</time>
      </trkpt>
      <trkpt lat="43.76866" lon="1.51185">
        <ele>195.095936</ele>
        <time>2023-09-17T10:11:43.424Z</time>
      </trkpt>
      <trkpt lat="43.76866" lon="1.51185">
        <ele>195.095936</ele>
        <time>2023-09-17T10:11:43.424Z</time>
      </trkpt>
      <trkpt lat="43.76868" lon="1.51191">
        <ele>195.287676</ele>
        <time>2023-09-17T10:11:44.424Z</time>
      </trkpt>
      <trkpt lat="43.7687" lon="1.51202">
        <ele>195.65072</ele>
        <time>2023-09-17T10:11:46.424Z</time>
      </trkpt>
      <trkpt lat="43.7687" lon="1.51202">
        <ele>195.65072</ele>
        <time>2023-09-17T10:11:46.424Z</time>
      </trkpt>
      <trkpt lat="43.76871" lon="1.51207">
        <ele>195.812655</ele>
        <time>2023-09-17T10:11:47.424Z</time>
      </trkpt>
      <trkpt lat="43.76871" lon="1.51207">
        <ele>195.812655</ele>
        <time>2023-09-17T10:11:47.424Z</time>
      </trkpt>
      <trkpt lat="43.76872" lon="1.51212">
        <ele>195.964321</ele>
        <time>2023-09-17T10:11:48.424Z</time>
      </trkpt>
      <trkpt lat="43.76872" lon="1.51212">
        <ele>195.964321</ele>
        <time>2023-09-17T10:11:48.424Z</time>
      </trkpt>
      <trkpt lat="43.76875" lon="1.51222">
        <ele>196.1286</ele>
        <time>2023-09-17T10:11:50.424Z</time>
      </trkpt>
      <trkpt lat="43.76875" lon="1.51222">
        <ele>196.1286</ele>
        <time>2023-09-17T10:11:50.424Z</time>
      </trkpt>
      <trkpt lat="43.76876" lon="1.51227">
        <ele>196.2003</ele>
        <time>2023-09-17T10:11:51.424Z</time>
      </trkpt>
      <trkpt lat="43.76877" lon="1.51233">
        <ele>196.287679</ele>
        <time>2023-09-17T10:11:52.424Z</time>
      </trkpt>
      <trkpt lat="43.76877" lon="1.51233">
        <ele>196.287679</ele>
        <time>2023-09-17T10:11:52.424Z</time>
      </trkpt>
      <trkpt lat="43.7688" lon="1.51243">
        <ele>196.445007</ele>
        <time>2023-09-17T10:11:54.424Z</time>
      </trkpt>
      <trkpt lat="43.7688" lon="1.51243">
        <ele>196.445007</ele>
        <time>2023-09-17T10:11:54.424Z</time>
      </trkpt>
      <trkpt lat="43.76881" lon="1.51248">
        <ele>196.524205</ele>
        <time>2023-09-17T10:11:55.424Z</time>
      </trkpt>
      <trkpt lat="43.76882" lon="1.51253">
        <ele>196.59724</ele>
        <time>2023-09-17T10:11:56.424Z</time>
      </trkpt>
      <trkpt lat="43.76882" lon="1.51253">
        <ele>196.59724</ele>
        <time>2023-09-17T10:11:56.424Z</time>
      </trkpt>
      <trkpt lat="43.76883" lon="1.5126">
        <ele>196.694907</ele>
        <time>2023-09-17T10:11:58.424Z</time>
      </trkpt>
      <trkpt lat="43.76883" lon="1.5126">
        <ele>196.694907</ele>
        <time>2023-09-17T10:11:58.424Z</time>
      </trkpt>
      <trkpt lat="43.76885" lon="1.51265">
        <ele>196.76928</ele>
        <time>2023-09-17T10:11:59.424Z</time>
      </trkpt>
      <trkpt lat="43.76885" lon="1.51265">
        <ele>196.76928</ele>
        <time>2023-09-17T10:11:59.424Z</time>
      </trkpt>
      <trkpt lat="43.76886" lon="1.5127">
        <ele>196.852267</ele>
        <time>2023-09-17T10:12:00.424Z</time>
      </trkpt>
      <trkpt lat="43.76886" lon="1.5127">
        <ele>196.852267</ele>
        <time>2023-09-17T10:12:00.424Z</time>
      </trkpt>
      <trkpt lat="43.76888" lon="1.51277">
        <ele>196.947244</ele>
        <time>2023-09-17T10:12:01.424Z</time>
      </trkpt>
      <trkpt lat="43.76888" lon="1.51277">
        <ele>196.947244</ele>
        <time>2023-09-17T10:12:01.424Z</time>
      </trkpt>
      <trkpt lat="43.76889" lon="1.51284">
        <ele>197.048849</ele>
        <time>2023-09-17T10:12:02.424Z</time>
      </trkpt>
      <trkpt lat="43.76889" lon="1.51284">
        <ele>197.048849</ele>
        <time>2023-09-17T10:12:02.424Z</time>
      </trkpt>
      <trkpt lat="43.76891" lon="1.5129">
        <ele>197.142183</ele>
        <time>2023-09-17T10:12:03.424Z</time>
      </trkpt>
      <trkpt lat="43.76891" lon="1.5129">
        <ele>197.142183</ele>
        <time>2023-09-17T10:12:03.424Z</time>
      </trkpt>
      <trkpt lat="43.76891" lon="1.51296">
        <ele>197.229698</ele>
        <time>2023-09-17T10:12:04.424Z</time>
      </trkpt>
      <trkpt lat="43.76891" lon="1.51296">
        <ele>197.229698</ele>
        <time>2023-09-17T10:12:04.424Z</time>
      </trkpt>
      <trkpt lat="43.7689" lon="1.51303">
        <ele>197.324594</ele>
        <time>2023-09-17T10:12:05.424Z</time>
      </trkpt>
      <trkpt lat="43.7689" lon="1.51303">
        <ele>197.324594</ele>
        <time>2023-09-17T10:12:05.424Z</time>
      </trkpt>
      <trkpt lat="43.76888" lon="1.5131">
        <ele>197.428831</ele>
        <time>2023-09-17T10:12:07.424Z</time>
      </trkpt>
      <trkpt lat="43.76888" lon="1.5131">
        <ele>197.428831</ele>
        <time>2023-09-17T10:12:07.424Z</time>
      </trkpt>
      <trkpt lat="43.76887" lon="1.51315">
        <ele>197.504739</ele>
        <time>2023-09-17T10:12:08.424Z</time>
      </trkpt>
      <trkpt lat="43.76887" lon="1.51315">
        <ele>197.504739</ele>
        <time>2023-09-17T10:12:08.424Z</time>
      </trkpt>
      <trkpt lat="43.76884" lon="1.51321">
        <ele>197.607751</ele>
        <time>2023-09-17T10:12:09.424Z</time>
      </trkpt>
      <trkpt lat="43.76881" lon="1.51327">
        <ele>197.711888</ele>
        <time>2023-09-17T10:12:10.424Z</time>
      </trkpt>
      <trkpt lat="43.76881" lon="1.51327">
        <ele>197.711888</ele>
        <time>2023-09-17T10:12:10.424Z</time>
      </trkpt>
      <trkpt lat="43.76877" lon="1.51333">
        <ele>197.833257</ele>
        <time>2023-09-17T10:12:11.424Z</time>
      </trkpt>
      <trkpt lat="43.76874" lon="1.51338">
        <ele>197.923935</ele>
        <time>2023-09-17T10:12:12.424Z</time>
      </trkpt>
      <trkpt lat="43.7687" lon="1.51344">
        <ele>198.027413</ele>
        <time>2023-09-17T10:12:13.424Z</time>
      </trkpt>
      <trkpt lat="43.76867" lon="1.51349">
        <ele>198.117019</ele>
        <time>2023-09-17T10:12:14.424Z</time>
      </trkpt>
      <trkpt lat="43.76864" lon="1.51354">
        <ele>198.225489</ele>
        <time>2023-09-17T10:12:15.424Z</time>
      </trkpt>
      <trkpt lat="43.7686" lon="1.5136">
        <ele>198.332933</ele>
        <time>2023-09-17T10:12:16.424Z</time>
      </trkpt>
      <trkpt lat="43.76857" lon="1.51363">
        <ele>198.39567</ele>
        <time>2023-09-17T10:12:17.424Z</time>
      </trkpt>
      <trkpt lat="43.76857" lon="1.51363">
        <ele>198.39567</ele>
        <time>2023-09-17T10:12:17.424Z</time>
      </trkpt>
      <trkpt lat="43.76852" lon="1.5137">
        <ele>198.537691</ele>
        <time>2023-09-17T10:12:18.424Z</time>
      </trkpt>
      <trkpt lat="43.76849" lon="1.51375">
        <ele>198.634634</ele>
        <time>2023-09-17T10:12:19.424Z</time>
      </trkpt>
      <trkpt lat="43.76845" lon="1.51381">
        <ele>198.751577</ele>
        <time>2023-09-17T10:12:20.424Z</time>
      </trkpt>
      <trkpt lat="43.76845" lon="1.51381">
        <ele>198.751577</ele>
        <time>2023-09-17T10:12:20.424Z</time>
      </trkpt>
      <trkpt lat="43.76841" lon="1.51387">
        <ele>198.864568</ele>
        <time>2023-09-17T10:12:21.424Z</time>
      </trkpt>
      <trkpt lat="43.76836" lon="1.51392">
        <ele>198.992973</ele>
        <time>2023-09-17T10:12:22.424Z</time>
      </trkpt>
      <trkpt lat="43.76836" lon="1.51392">
        <ele>198.992973</ele>
        <time>2023-09-17T10:12:22.424Z</time>
      </trkpt>
      <trkpt lat="43.76831" lon="1.51397">
        <ele>199.099418</ele>
        <time>2023-09-17T10:12:23.424Z</time>
      </trkpt>
      <trkpt lat="43.76826" lon="1.51403">
        <ele>199.234127</ele>
        <time>2023-09-17T10:12:24.424Z</time>
      </trkpt>
      <trkpt lat="43.76822" lon="1.51408">
        <ele>199.341476</ele>
        <time>2023-09-17T10:12:25.424Z</time>
      </trkpt>
      <trkpt lat="43.76822" lon="1.51408">
        <ele>199.341476</ele>
        <time>2023-09-17T10:12:25.424Z</time>
      </trkpt>
      <trkpt lat="43.76817" lon="1.51414">
        <ele>199.472667</ele>
        <time>2023-09-17T10:12:26.424Z</time>
      </trkpt>
      <trkpt lat="43.76812" lon="1.5142">
        <ele>199.52654</ele>
        <time>2023-09-17T10:12:27.424Z</time>
      </trkpt>
      <trkpt lat="43.76808" lon="1.51426">
        <ele>199.541516</ele>
        <time>2023-09-17T10:12:28.424Z</time>
      </trkpt>
      <trkpt lat="43.76808" lon="1.51426">
        <ele>199.541516</ele>
        <time>2023-09-17T10:12:28.424Z</time>
      </trkpt>
      <trkpt lat="43.76804" lon="1.51431">
        <ele>199.557275</ele>
        <time>2023-09-17T10:12:29.424Z</time>
      </trkpt>
      <trkpt lat="43.76799" lon="1.51437">
        <ele>199.573405</ele>
        <time>2023-09-17T10:12:30.424Z</time>
      </trkpt>
      <trkpt lat="43.76799" lon="1.51437">
        <ele>199.573405</ele>
        <time>2023-09-17T10:12:30.424Z</time>
      </trkpt>
      <trkpt lat="43.76795" lon="1.51441">
        <ele>199.586718</ele>
        <time>2023-09-17T10:12:31.424Z</time>
      </trkpt>
      <trkpt lat="43.76791" lon="1.51447">
        <ele>199.602355</ele>
        <time>2023-09-17T10:12:32.424Z</time>
      </trkpt>
      <trkpt lat="43.76791" lon="1.51447">
        <ele>199.602355</ele>
        <time>2023-09-17T10:12:32.424Z</time>
      </trkpt>
      <trkpt lat="43.76786" lon="1.51451">
        <ele>199.616117</ele>
        <time>2023-09-17T10:12:33.424Z</time>
      </trkpt>
      <trkpt lat="43.76783" lon="1.51455">
        <ele>199.626615</ele>
        <time>2023-09-17T10:12:34.424Z</time>
      </trkpt>
      <trkpt lat="43.76783" lon="1.51455">
        <ele>199.626615</ele>
        <time>2023-09-17T10:12:34.424Z</time>
      </trkpt>
      <trkpt lat="43.76778" lon="1.5146">
        <ele>199.643419</ele>
        <time>2023-09-17T10:12:35.424Z</time>
      </trkpt>
      <trkpt lat="43.76775" lon="1.51465">
        <ele>199.656007</ele>
        <time>2023-09-17T10:12:35.424Z</time>
      </trkpt>
      <trkpt lat="43.7677" lon="1.51469">
        <ele>199.669656</ele>
        <time>2023-09-17T10:12:37.424Z</time>
      </trkpt>
      <trkpt lat="43.76767" lon="1.51472">
        <ele>199.68084</ele>
        <time>2023-09-17T10:12:38.424Z</time>
      </trkpt>
      <trkpt lat="43.76763" lon="1.51477">
        <ele>199.694716</ele>
        <time>2023-09-17T10:12:39.424Z</time>
      </trkpt>
      <trkpt lat="43.76763" lon="1.51477">
        <ele>199.694716</ele>
        <time>2023-09-17T10:12:39.424Z</time>
      </trkpt>
      <trkpt lat="43.76759" lon="1.5148">
        <ele>199.705998</ele>
        <time>2023-09-17T10:12:40.424Z</time>
      </trkpt>
      <trkpt lat="43.76755" lon="1.51485">
        <ele>199.719874</ele>
        <time>2023-09-17T10:12:41.424Z</time>
      </trkpt>
      <trkpt lat="43.76752" lon="1.51489">
        <ele>199.730247</ele>
        <time>2023-09-17T10:12:42.424Z</time>
      </trkpt>
      <trkpt lat="43.76748" lon="1.51493">
        <ele>199.742952</ele>
        <time>2023-09-17T10:12:43.424Z</time>
      </trkpt>
      <trkpt lat="43.76744" lon="1.51498">
        <ele>199.757182</ele>
        <time>2023-09-17T10:12:44.424Z</time>
      </trkpt>
      <trkpt lat="43.76741" lon="1.51502">
        <ele>199.769041</ele>
        <time>2023-09-17T10:12:45.424Z</time>
      </trkpt>
      <trkpt lat="43.76738" lon="1.51505">
        <ele>199.778783</ele>
        <time>2023-09-17T10:12:46.424Z</time>
      </trkpt>
      <trkpt lat="43.76733" lon="1.51511">
        <ele>199.794913</ele>
        <time>2023-09-17T10:12:47.424Z</time>
      </trkpt>
      <trkpt lat="43.7673" lon="1.51515">
        <ele>199.807978</ele>
        <time>2023-09-17T10:12:48.424Z</time>
      </trkpt>
      <trkpt lat="43.7673" lon="1.51515">
        <ele>199.807978</ele>
        <time>2023-09-17T10:12:48.424Z</time>
      </trkpt>
      <trkpt lat="43.76726" lon="1.5152">
        <ele>199.820268</ele>
        <time>2023-09-17T10:12:49.424Z</time>
      </trkpt>
      <trkpt lat="43.76724" lon="1.51523">
        <ele>199.828525</ele>
        <time>2023-09-17T10:12:50.424Z</time>
      </trkpt>
      <trkpt lat="43.76718" lon="1.5153">
        <ele>199.849006</ele>
        <time>2023-09-17T10:12:51.424Z</time>
      </trkpt>
      <trkpt lat="43.76715" lon="1.51535">
        <ele>199.861829</ele>
        <time>2023-09-17T10:12:52.424Z</time>
      </trkpt>
      <trkpt lat="43.76711" lon="1.51541">
        <ele>199.876934</ele>
        <time>2023-09-17T10:12:53.424Z</time>
      </trkpt>
      <trkpt lat="43.76711" lon="1.51541">
        <ele>199.876934</ele>
        <time>2023-09-17T10:12:53.424Z</time>
      </trkpt>
      <trkpt lat="43.76707" lon="1.51546">
        <ele>199.890032</ele>
        <time>2023-09-17T10:12:54.424Z</time>
      </trkpt>
      <trkpt lat="43.76704" lon="1.51551">
        <ele>199.904008</ele>
        <time>2023-09-17T10:12:55.424Z</time>
      </trkpt>
      <trkpt lat="43.767" lon="1.51557">
        <ele>199.918371</ele>
        <time>2023-09-17T10:12:56.424Z</time>
      </trkpt>
      <trkpt lat="43.76696" lon="1.51562">
        <ele>199.931891</ele>
        <time>2023-09-17T10:12:57.424Z</time>
      </trkpt>
      <trkpt lat="43.76693" lon="1.51568">
        <ele>199.946669</ele>
        <time>2023-09-17T10:12:58.424Z</time>
      </trkpt>
      <trkpt lat="43.76689" lon="1.51574">
        <ele>199.960644</ele>
        <time>2023-09-17T10:12:59.424Z</time>
      </trkpt>
      <trkpt lat="43.76685" lon="1.51579">
        <ele>199.974872</ele>
        <time>2023-09-17T10:13:00.424Z</time>
      </trkpt>
      <trkpt lat="43.76685" lon="1.51579">
        <ele>199.974872</ele>
        <time>2023-09-17T10:13:00.424Z</time>
      </trkpt>
      <trkpt lat="43.76682" lon="1.51585">
        <ele>199.994744</ele>
        <time>2023-09-17T10:13:01.424Z</time>
      </trkpt>
      <trkpt lat="43.76679" lon="1.5159">
        <ele>200.025355</ele>
        <time>2023-09-17T10:13:02.424Z</time>
      </trkpt>
      <trkpt lat="43.76675" lon="1.51596">
        <ele>200.064104</ele>
        <time>2023-09-17T10:13:03.424Z</time>
      </trkpt>
      <trkpt lat="43.76675" lon="1.51596">
        <ele>200.064104</ele>
        <time>2023-09-17T10:13:03.424Z</time>
      </trkpt>
      <trkpt lat="43.76672" lon="1.51601">
        <ele>200.093474</ele>
        <time>2023-09-17T10:13:04.424Z</time>
      </trkpt>
      <trkpt lat="43.76669" lon="1.51606">
        <ele>200.128336</ele>
        <time>2023-09-17T10:13:05.424Z</time>
      </trkpt>
      <trkpt lat="43.76666" lon="1.51611">
        <ele>200.158667</ele>
        <time>2023-09-17T10:13:06.424Z</time>
      </trkpt>
      <trkpt lat="43.76666" lon="1.51611">
        <ele>200.158667</ele>
        <time>2023-09-17T10:13:06.424Z</time>
      </trkpt>
      <trkpt lat="43.76663" lon="1.51616">
        <ele>200.186181</ele>
        <time>2023-09-17T10:13:07.424Z</time>
      </trkpt>
      <trkpt lat="43.76663" lon="1.51616">
        <ele>200.186181</ele>
        <time>2023-09-17T10:13:07.424Z</time>
      </trkpt>
      <trkpt lat="43.7666" lon="1.5162">
        <ele>200.21643</ele>
        <time>2023-09-17T10:13:08.424Z</time>
      </trkpt>
      <trkpt lat="43.76656" lon="1.51626">
        <ele>200.251361</ele>
        <time>2023-09-17T10:13:09.424Z</time>
      </trkpt>
      <trkpt lat="43.76656" lon="1.51626">
        <ele>200.251361</ele>
        <time>2023-09-17T10:13:09.424Z</time>
      </trkpt>
      <trkpt lat="43.76653" lon="1.51631">
        <ele>200.281972</ele>
        <time>2023-09-17T10:13:10.424Z</time>
      </trkpt>
      <trkpt lat="43.76653" lon="1.51631">
        <ele>200.281972</ele>
        <time>2023-09-17T10:13:10.424Z</time>
      </trkpt>
      <trkpt lat="43.76651" lon="1.51635">
        <ele>200.310218</ele>
        <time>2023-09-17T10:13:11.424Z</time>
      </trkpt>
      <trkpt lat="43.76648" lon="1.5164">
        <ele>200.340467</ele>
        <time>2023-09-17T10:13:12.424Z</time>
      </trkpt>
      <trkpt lat="43.76648" lon="1.5164">
        <ele>200.340467</ele>
        <time>2023-09-17T10:13:12.424Z</time>
      </trkpt>
      <trkpt lat="43.76645" lon="1.51644">
        <ele>200.367262</ele>
        <time>2023-09-17T10:13:13.424Z</time>
      </trkpt>
      <trkpt lat="43.76645" lon="1.51644">
        <ele>200.367262</ele>
        <time>2023-09-17T10:13:13.424Z</time>
      </trkpt>
      <trkpt lat="43.76642" lon="1.51649">
        <ele>200.398663</ele>
        <time>2023-09-17T10:13:14.424Z</time>
      </trkpt>
      <trkpt lat="43.76639" lon="1.51654">
        <ele>200.427638</ele>
        <time>2023-09-17T10:13:15.424Z</time>
      </trkpt>
      <trkpt lat="43.76639" lon="1.51654">
        <ele>200.427638</ele>
        <time>2023-09-17T10:13:15.424Z</time>
      </trkpt>
      <trkpt lat="43.76636" lon="1.51659">
        <ele>200.458679</ele>
        <time>2023-09-17T10:13:16.424Z</time>
      </trkpt>
      <trkpt lat="43.76633" lon="1.51664">
        <ele>200.487514</ele>
        <time>2023-09-17T10:13:17.424Z</time>
      </trkpt>
      <trkpt lat="43.76633" lon="1.51664">
        <ele>200.487514</ele>
        <time>2023-09-17T10:13:17.424Z</time>
      </trkpt>
      <trkpt lat="43.7663" lon="1.51668">
        <ele>200.515392</ele>
        <time>2023-09-17T10:13:18.424Z</time>
      </trkpt>
      <trkpt lat="43.76627" lon="1.51673">
        <ele>200.549173</ele>
        <time>2023-09-17T10:13:19.424Z</time>
      </trkpt>
      <trkpt lat="43.76627" lon="1.51673">
        <ele>200.549173</ele>
        <time>2023-09-17T10:13:19.424Z</time>
      </trkpt>
      <trkpt lat="43.76624" lon="1.51678">
        <ele>200.580215</ele>
        <time>2023-09-17T10:13:20.424Z</time>
      </trkpt>
      <trkpt lat="43.76624" lon="1.51678">
        <ele>200.580215</ele>
        <time>2023-09-17T10:13:20.424Z</time>
      </trkpt>
      <trkpt lat="43.76621" lon="1.51683">
        <ele>200.610105</ele>
        <time>2023-09-17T10:13:21.424Z</time>
      </trkpt>
      <trkpt lat="43.76618" lon="1.51688">
        <ele>200.639097</ele>
        <time>2023-09-17T10:13:22.424Z</time>
      </trkpt>
      <trkpt lat="43.76615" lon="1.51693">
        <ele>200.673596</ele>
        <time>2023-09-17T10:13:22.424Z</time>
      </trkpt>
      <trkpt lat="43.76611" lon="1.51698">
        <ele>200.707122</ele>
        <time>2023-09-17T10:13:24.424Z</time>
      </trkpt>
      <trkpt lat="43.76608" lon="1.51704">
        <ele>200.74235</ele>
        <time>2023-09-17T10:13:24.424Z</time>
      </trkpt>
      <trkpt lat="43.76605" lon="1.51709">
        <ele>200.776488</ele>
        <time>2023-09-17T10:13:26.424Z</time>
      </trkpt>
      <trkpt lat="43.76605" lon="1.51709">
        <ele>200.776488</ele>
        <time>2023-09-17T10:13:26.424Z</time>
      </trkpt>
      <trkpt lat="43.76601" lon="1.51715">
        <ele>200.810491</ele>
        <time>2023-09-17T10:13:27.424Z</time>
      </trkpt>
      <trkpt lat="43.76598" lon="1.51721">
        <ele>200.846053</ele>
        <time>2023-09-17T10:13:28.424Z</time>
      </trkpt>
      <trkpt lat="43.76595" lon="1.51728">
        <ele>200.886233</ele>
        <time>2023-09-17T10:13:29.424Z</time>
      </trkpt>
      <trkpt lat="43.76592" lon="1.51736">
        <ele>200.927087</ele>
        <time>2023-09-17T10:13:30.424Z</time>
      </trkpt>
      <trkpt lat="43.76589" lon="1.51743">
        <ele>200.96581</ele>
        <time>2023-09-17T10:13:31.424Z</time>
      </trkpt>
      <trkpt lat="43.76589" lon="1.51743">
        <ele>200.96581</ele>
        <time>2023-09-17T10:13:31.424Z</time>
      </trkpt>
      <trkpt lat="43.76586" lon="1.5175">
        <ele>201.006249</ele>
        <time>2023-09-17T10:13:32.424Z</time>
      </trkpt>
      <trkpt lat="43.76586" lon="1.5175">
        <ele>201.006249</ele>
        <time>2023-09-17T10:13:32.424Z</time>
      </trkpt>
      <trkpt lat="43.76583" lon="1.51758">
        <ele>201.049193</ele>
        <time>2023-09-17T10:13:33.424Z</time>
      </trkpt>
      <trkpt lat="43.76581" lon="1.51766">
        <ele>201.08934</ele>
        <time>2023-09-17T10:13:34.424Z</time>
      </trkpt>
      <trkpt lat="43.76581" lon="1.51766">
        <ele>201.08934</ele>
        <time>2023-09-17T10:13:34.424Z</time>
      </trkpt>
      <trkpt lat="43.76579" lon="1.51774">
        <ele>201.130815</ele>
        <time>2023-09-17T10:13:35.424Z</time>
      </trkpt>
      <trkpt lat="43.76579" lon="1.51774">
        <ele>201.130815</ele>
        <time>2023-09-17T10:13:35.424Z</time>
      </trkpt>
      <trkpt lat="43.76577" lon="1.51782">
        <ele>201.168239</ele>
        <time>2023-09-17T10:13:36.424Z</time>
      </trkpt>
      <trkpt lat="43.76577" lon="1.51782">
        <ele>201.168239</ele>
        <time>2023-09-17T10:13:36.424Z</time>
      </trkpt>
      <trkpt lat="43.76575" lon="1.5179">
        <ele>201.131836</ele>
        <time>2023-09-17T10:13:37.424Z</time>
      </trkpt>
      <trkpt lat="43.76575" lon="1.5179">
        <ele>201.131836</ele>
        <time>2023-09-17T10:13:37.424Z</time>
      </trkpt>
      <trkpt lat="43.76573" lon="1.51798">
        <ele>201.087673</ele>
        <time>2023-09-17T10:13:38.424Z</time>
      </trkpt>
      <trkpt lat="43.76572" lon="1.51805">
        <ele>201.052152</ele>
        <time>2023-09-17T10:13:39.424Z</time>
      </trkpt>
      <trkpt lat="43.76572" lon="1.51805">
        <ele>201.052152</ele>
        <time>2023-09-17T10:13:39.424Z</time>
      </trkpt>
      <trkpt lat="43.7657" lon="1.51815">
        <ele>200.997231</ele>
        <time>2023-09-17T10:13:40.424Z</time>
      </trkpt>
      <trkpt lat="43.76568" lon="1.51823">
        <ele>200.954902</ele>
        <time>2023-09-17T10:13:41.424Z</time>
      </trkpt>
      <trkpt lat="43.76567" lon="1.51831">
        <ele>200.91105</ele>
        <time>2023-09-17T10:13:42.424Z</time>
      </trkpt>
      <trkpt lat="43.76566" lon="1.51839">
        <ele>200.865766</ele>
        <time>2023-09-17T10:13:43.424Z</time>
      </trkpt>
      <trkpt lat="43.76564" lon="1.51847">
        <ele>200.823944</ele>
        <time>2023-09-17T10:13:44.424Z</time>
      </trkpt>
      <trkpt lat="43.76563" lon="1.51855">
        <ele>200.782267</ele>
        <time>2023-09-17T10:13:45.424Z</time>
      </trkpt>
      <trkpt lat="43.76563" lon="1.51863">
        <ele>200.737835</ele>
        <time>2023-09-17T10:13:46.424Z</time>
      </trkpt>
      <trkpt lat="43.76563" lon="1.51863">
        <ele>200.737835</ele>
        <time>2023-09-17T10:13:46.424Z</time>
      </trkpt>
      <trkpt lat="43.76562" lon="1.51871">
        <ele>200.696521</ele>
        <time>2023-09-17T10:13:47.424Z</time>
      </trkpt>
      <trkpt lat="43.76562" lon="1.51879">
        <ele>200.655617</ele>
        <time>2023-09-17T10:13:48.424Z</time>
      </trkpt>
      <trkpt lat="43.76562" lon="1.51887">
        <ele>200.611566</ele>
        <time>2023-09-17T10:13:49.424Z</time>
      </trkpt>
      <trkpt lat="43.76563" lon="1.51894">
        <ele>200.577505</ele>
        <time>2023-09-17T10:13:50.424Z</time>
      </trkpt>
      <trkpt lat="43.76564" lon="1.51903">
        <ele>200.525997</ele>
        <time>2023-09-17T10:13:51.424Z</time>
      </trkpt>
      <trkpt lat="43.76566" lon="1.51911">
        <ele>200.484811</ele>
        <time>2023-09-17T10:13:52.424Z</time>
      </trkpt>
      <trkpt lat="43.76566" lon="1.51911">
        <ele>200.484811</ele>
        <time>2023-09-17T10:13:52.424Z</time>
      </trkpt>
      <trkpt lat="43.76568" lon="1.51918">
        <ele>200.445103</ele>
        <time>2023-09-17T10:13:53.424Z</time>
      </trkpt>
      <trkpt lat="43.76571" lon="1.51925">
        <ele>200.401626</ele>
        <time>2023-09-17T10:13:54.424Z</time>
      </trkpt>
      <trkpt lat="43.76574" lon="1.51932">
        <ele>200.357216</ele>
        <time>2023-09-17T10:13:55.424Z</time>
      </trkpt>
      <trkpt lat="43.76574" lon="1.51932">
        <ele>200.357216</ele>
        <time>2023-09-17T10:13:55.424Z</time>
      </trkpt>
      <trkpt lat="43.76576" lon="1.5194">
        <ele>200.315001</ele>
        <time>2023-09-17T10:13:56.424Z</time>
      </trkpt>
      <trkpt lat="43.76579" lon="1.51947">
        <ele>200.271042</ele>
        <time>2023-09-17T10:13:57.424Z</time>
      </trkpt>
      <trkpt lat="43.76582" lon="1.51954">
        <ele>200.229426</ele>
        <time>2023-09-17T10:13:58.424Z</time>
      </trkpt>
      <trkpt lat="43.76585" lon="1.51961">
        <ele>200.184751</ele>
        <time>2023-09-17T10:13:59.424Z</time>
      </trkpt>
      <trkpt lat="43.76588" lon="1.51968">
        <ele>200.140248</ele>
        <time>2023-09-17T10:14:00.424Z</time>
      </trkpt>
      <trkpt lat="43.76588" lon="1.51968">
        <ele>200.140248</ele>
        <time>2023-09-17T10:14:00.424Z</time>
      </trkpt>
      <trkpt lat="43.76591" lon="1.51976">
        <ele>200.095361</ele>
        <time>2023-09-17T10:14:01.424Z</time>
      </trkpt>
      <trkpt lat="43.76594" lon="1.51984">
        <ele>200.050001</ele>
        <time>2023-09-17T10:14:02.424Z</time>
      </trkpt>
      <trkpt lat="43.76596" lon="1.51991">
        <ele>200.005425</ele>
        <time>2023-09-17T10:14:03.424Z</time>
      </trkpt>
      <trkpt lat="43.76596" lon="1.51991">
        <ele>200.005425</ele>
        <time>2023-09-17T10:14:03.424Z</time>
      </trkpt>
      <trkpt lat="43.76599" lon="1.51999">
        <ele>199.961948</ele>
        <time>2023-09-17T10:14:04.424Z</time>
      </trkpt>
      <trkpt lat="43.76602" lon="1.52006">
        <ele>199.918001</ele>
        <time>2023-09-17T10:14:05.424Z</time>
      </trkpt>
      <trkpt lat="43.76602" lon="1.52006">
        <ele>199.918001</ele>
        <time>2023-09-17T10:14:05.424Z</time>
      </trkpt>
      <trkpt lat="43.76604" lon="1.52014">
        <ele>199.876235</ele>
        <time>2023-09-17T10:14:06.424Z</time>
      </trkpt>
      <trkpt lat="43.76606" lon="1.5202">
        <ele>199.839257</ele>
        <time>2023-09-17T10:14:07.424Z</time>
      </trkpt>
      <trkpt lat="43.76606" lon="1.5202">
        <ele>199.839257</ele>
        <time>2023-09-17T10:14:07.424Z</time>
      </trkpt>
      <trkpt lat="43.76607" lon="1.52027">
        <ele>199.80238</ele>
        <time>2023-09-17T10:14:08.424Z</time>
      </trkpt>
      <trkpt lat="43.76608" lon="1.52035">
        <ele>199.763572</ele>
        <time>2023-09-17T10:14:09.424Z</time>
      </trkpt>
      <trkpt lat="43.76609" lon="1.52041">
        <ele>199.729373</ele>
        <time>2023-09-17T10:14:10.424Z</time>
      </trkpt>
      <trkpt lat="43.76609" lon="1.52041">
        <ele>199.729373</ele>
        <time>2023-09-17T10:14:10.424Z</time>
      </trkpt>
      <trkpt lat="43.7661" lon="1.52048">
        <ele>199.692218</ele>
        <time>2023-09-17T10:14:11.424Z</time>
      </trkpt>
      <trkpt lat="43.7661" lon="1.52055">
        <ele>199.655912</ele>
        <time>2023-09-17T10:14:12.424Z</time>
      </trkpt>
      <trkpt lat="43.7661" lon="1.52062">
        <ele>199.61805</ele>
        <time>2023-09-17T10:14:13.424Z</time>
      </trkpt>
      <trkpt lat="43.7661" lon="1.52062">
        <ele>199.61805</ele>
        <time>2023-09-17T10:14:13.424Z</time>
      </trkpt>
      <trkpt lat="43.76609" lon="1.5207">
        <ele>199.581114</ele>
        <time>2023-09-17T10:14:14.424Z</time>
      </trkpt>
      <trkpt lat="43.76609" lon="1.52077">
        <ele>199.543143</ele>
        <time>2023-09-17T10:14:15.424Z</time>
      </trkpt>
      <trkpt lat="43.76608" lon="1.52083">
        <ele>199.509058</ele>
        <time>2023-09-17T10:14:16.424Z</time>
      </trkpt>
      <trkpt lat="43.76607" lon="1.5209">
        <ele>199.473758</ele>
        <time>2023-09-17T10:14:17.424Z</time>
      </trkpt>
      <trkpt lat="43.76608" lon="1.52095">
        <ele>199.44669</ele>
        <time>2023-09-17T10:14:18.424Z</time>
      </trkpt>
      <trkpt lat="43.7661" lon="1.52099">
        <ele>199.421424</ele>
        <time>2023-09-17T10:14:19.424Z</time>
      </trkpt>
      <trkpt lat="43.7661" lon="1.52099">
        <ele>199.421424</ele>
        <time>2023-09-17T10:14:19.424Z</time>
      </trkpt>
      <trkpt lat="43.76613" lon="1.521">
        <ele>199.398441</ele>
        <time>2023-09-17T10:14:20.424Z</time>
      </trkpt>
      <trkpt lat="43.76617" lon="1.52099">
        <ele>199.370753</ele>
        <time>2023-09-17T10:14:21.424Z</time>
      </trkpt>
      <trkpt lat="43.76617" lon="1.52099">
        <ele>199.370753</ele>
        <time>2023-09-17T10:14:21.424Z</time>
      </trkpt>
      <trkpt lat="43.7662" lon="1.52097">
        <ele>199.344016</ele>
        <time>2023-09-17T10:14:22.424Z</time>
      </trkpt>
      <trkpt lat="43.76624" lon="1.52095">
        <ele>199.31076</ele>
        <time>2023-09-17T10:14:23.424Z</time>
      </trkpt>
      <trkpt lat="43.76629" lon="1.52092">
        <ele>199.274672</ele>
        <time>2023-09-17T10:14:24.424Z</time>
      </trkpt>
      <trkpt lat="43.76633" lon="1.52089">
        <ele>199.24049</ele>
        <time>2023-09-17T10:14:25.424Z</time>
      </trkpt>
      <trkpt lat="43.76638" lon="1.52085">
        <ele>199.20392</ele>
        <time>2023-09-17T10:14:26.424Z</time>
      </trkpt>
      <trkpt lat="43.76638" lon="1.52085">
        <ele>199.20392</ele>
        <time>2023-09-17T10:14:26.424Z</time>
      </trkpt>
      <trkpt lat="43.76642" lon="1.52082">
        <ele>199.165451</ele>
        <time>2023-09-17T10:14:27.424Z</time>
      </trkpt>
      <trkpt lat="43.76647" lon="1.52078">
        <ele>199.126714</ele>
        <time>2023-09-17T10:14:28.424Z</time>
      </trkpt>
      <trkpt lat="43.76651" lon="1.52073">
        <ele>199.085963</ele>
        <time>2023-09-17T10:14:29.424Z</time>
      </trkpt>
      <trkpt lat="43.76656" lon="1.52069">
        <ele>199.048756</ele>
        <time>2023-09-17T10:14:30.424Z</time>
      </trkpt>
      <trkpt lat="43.7666" lon="1.52064">
        <ele>199.007699</ele>
        <time>2023-09-17T10:14:31.424Z</time>
      </trkpt>
      <trkpt lat="43.76665" lon="1.52059">
        <ele>198.966263</ele>
        <time>2023-09-17T10:14:32.424Z</time>
      </trkpt>
      <trkpt lat="43.7667" lon="1.52054">
        <ele>198.920723</ele>
        <time>2023-09-17T10:14:33.424Z</time>
      </trkpt>
      <trkpt lat="43.76675" lon="1.52048">
        <ele>198.874862</ele>
        <time>2023-09-17T10:14:34.424Z</time>
      </trkpt>
      <trkpt lat="43.7668" lon="1.52043">
        <ele>198.829562</ele>
        <time>2023-09-17T10:14:35.424Z</time>
      </trkpt>
      <trkpt lat="43.76685" lon="1.52037">
        <ele>198.782717</ele>
        <time>2023-09-17T10:14:36.424Z</time>
      </trkpt>
      <trkpt lat="43.76685" lon="1.52037">
        <ele>198.782717</ele>
        <time>2023-09-17T10:14:36.424Z</time>
      </trkpt>
      <trkpt lat="43.76689" lon="1.52031">
        <ele>198.737127</ele>
        <time>2023-09-17T10:14:37.424Z</time>
      </trkpt>
      <trkpt lat="43.76695" lon="1.52024">
        <ele>198.686415</ele>
        <time>2023-09-17T10:14:38.424Z</time>
      </trkpt>
      <trkpt lat="43.76695" lon="1.52024">
        <ele>198.686415</ele>
        <time>2023-09-17T10:14:38.424Z</time>
      </trkpt>
      <trkpt lat="43.76699" lon="1.52018">
        <ele>198.637682</ele>
        <time>2023-09-17T10:14:39.424Z</time>
      </trkpt>
      <trkpt lat="43.76699" lon="1.52018">
        <ele>198.637682</ele>
        <time>2023-09-17T10:14:39.424Z</time>
      </trkpt>
      <trkpt lat="43.76704" lon="1.52012">
        <ele>198.589479</ele>
        <time>2023-09-17T10:14:40.424Z</time>
      </trkpt>
      <trkpt lat="43.76704" lon="1.52012">
        <ele>198.589479</ele>
        <time>2023-09-17T10:14:40.424Z</time>
      </trkpt>
      <trkpt lat="43.7671" lon="1.52004">
        <ele>198.463681</ele>
        <time>2023-09-17T10:14:41.424Z</time>
      </trkpt>
      <trkpt lat="43.7671" lon="1.52004">
        <ele>198.463681</ele>
        <time>2023-09-17T10:14:41.424Z</time>
      </trkpt>
      <trkpt lat="43.76716" lon="1.51997">
        <ele>198.320309</ele>
        <time>2023-09-17T10:14:42.424Z</time>
      </trkpt>
      <trkpt lat="43.76716" lon="1.51997">
        <ele>198.320309</ele>
        <time>2023-09-17T10:14:42.424Z</time>
      </trkpt>
      <trkpt lat="43.7672" lon="1.51989">
        <ele>198.178559</ele>
        <time>2023-09-17T10:14:43.424Z</time>
      </trkpt>
      <trkpt lat="43.7672" lon="1.51989">
        <ele>198.178559</ele>
        <time>2023-09-17T10:14:43.424Z</time>
      </trkpt>
      <trkpt lat="43.76726" lon="1.51981">
        <ele>198.021158</ele>
        <time>2023-09-17T10:14:44.424Z</time>
      </trkpt>
      <trkpt lat="43.76726" lon="1.51981">
        <ele>198.021158</ele>
        <time>2023-09-17T10:14:44.424Z</time>
      </trkpt>
      <trkpt lat="43.76732" lon="1.51972">
        <ele>197.861957</ele>
        <time>2023-09-17T10:14:45.424Z</time>
      </trkpt>
      <trkpt lat="43.76732" lon="1.51972">
        <ele>197.861957</ele>
        <time>2023-09-17T10:14:45.424Z</time>
      </trkpt>
      <trkpt lat="43.76737" lon="1.51964">
        <ele>197.702757</ele>
        <time>2023-09-17T10:14:46.424Z</time>
      </trkpt>
      <trkpt lat="43.76737" lon="1.51964">
        <ele>197.702757</ele>
        <time>2023-09-17T10:14:46.424Z</time>
      </trkpt>
      <trkpt lat="43.76743" lon="1.51955">
        <ele>197.531269</ele>
        <time>2023-09-17T10:14:46.424Z</time>
      </trkpt>
      <trkpt lat="43.76743" lon="1.51955">
        <ele>197.531269</ele>
        <time>2023-09-17T10:14:46.424Z</time>
      </trkpt>
      <trkpt lat="43.76749" lon="1.51946">
        <ele>197.370045</ele>
        <time>2023-09-17T10:14:48.424Z</time>
      </trkpt>
      <trkpt lat="43.76749" lon="1.51946">
        <ele>197.370045</ele>
        <time>2023-09-17T10:14:48.424Z</time>
      </trkpt>
      <trkpt lat="43.76755" lon="1.51938">
        <ele>197.205492</ele>
        <time>2023-09-17T10:14:49.424Z</time>
      </trkpt>
      <trkpt lat="43.76755" lon="1.51938">
        <ele>197.205492</ele>
        <time>2023-09-17T10:14:49.424Z</time>
      </trkpt>
      <trkpt lat="43.7676" lon="1.51929">
        <ele>197.045097</ele>
        <time>2023-09-17T10:14:50.424Z</time>
      </trkpt>
      <trkpt lat="43.7676" lon="1.51929">
        <ele>197.045097</ele>
        <time>2023-09-17T10:14:50.424Z</time>
      </trkpt>
      <trkpt lat="43.76765" lon="1.5192">
        <ele>196.889357</ele>
        <time>2023-09-17T10:14:51.424Z</time>
      </trkpt>
      <trkpt lat="43.76765" lon="1.5192">
        <ele>196.889357</ele>
        <time>2023-09-17T10:14:51.424Z</time>
      </trkpt>
      <trkpt lat="43.7677" lon="1.5191">
        <ele>196.726812</ele>
        <time>2023-09-17T10:14:52.424Z</time>
      </trkpt>
      <trkpt lat="43.7677" lon="1.5191">
        <ele>196.726812</ele>
        <time>2023-09-17T10:14:52.424Z</time>
      </trkpt>
      <trkpt lat="43.76776" lon="1.51902">
        <ele>196.568548</ele>
        <time>2023-09-17T10:14:53.424Z</time>
      </trkpt>
      <trkpt lat="43.76776" lon="1.51902">
        <ele>196.568548</ele>
        <time>2023-09-17T10:14:53.424Z</time>
      </trkpt>
      <trkpt lat="43.76782" lon="1.51893">
        <ele>196.409028</ele>
        <time>2023-09-17T10:14:54.424Z</time>
      </trkpt>
      <trkpt lat="43.76782" lon="1.51893">
        <ele>196.409028</ele>
        <time>2023-09-17T10:14:54.424Z</time>
      </trkpt>
      <trkpt lat="43.76788" lon="1.51886">
        <ele>196.241027</ele>
        <time>2023-09-17T10:14:55.424Z</time>
      </trkpt>
      <trkpt lat="43.76788" lon="1.51886">
        <ele>196.241027</ele>
        <time>2023-09-17T10:14:55.424Z</time>
      </trkpt>
      <trkpt lat="43.76795" lon="1.51879">
        <ele>196.082956</ele>
        <time>2023-09-17T10:14:56.424Z</time>
      </trkpt>
      <trkpt lat="43.76795" lon="1.51879">
        <ele>196.082956</ele>
        <time>2023-09-17T10:14:56.424Z</time>
      </trkpt>
      <trkpt lat="43.76802" lon="1.51874">
        <ele>195.926352</ele>
        <time>2023-09-17T10:14:57.424Z</time>
      </trkpt>
      <trkpt lat="43.76802" lon="1.51874">
        <ele>195.926352</ele>
        <time>2023-09-17T10:14:57.424Z</time>
      </trkpt>
      <trkpt lat="43.7681" lon="1.5187">
        <ele>195.77047</ele>
        <time>2023-09-17T10:14:58.424Z</time>
      </trkpt>
      <trkpt lat="43.7681" lon="1.5187">
        <ele>195.77047</ele>
        <time>2023-09-17T10:14:58.424Z</time>
      </trkpt>
      <trkpt lat="43.76817" lon="1.51867">
        <ele>195.631235</ele>
        <time>2023-09-17T10:14:59.424Z</time>
      </trkpt>
      <trkpt lat="43.76825" lon="1.51863">
        <ele>195.4758</ele>
        <time>2023-09-17T10:15:00.424Z</time>
      </trkpt>
      <trkpt lat="43.76825" lon="1.51863">
        <ele>195.4758</ele>
        <time>2023-09-17T10:15:00.424Z</time>
      </trkpt>
      <trkpt lat="43.76832" lon="1.5186">
        <ele>195.332389</ele>
        <time>2023-09-17T10:15:01.424Z</time>
      </trkpt>
      <trkpt lat="43.76837" lon="1.51858">
        <ele>195.226161</ele>
        <time>2023-09-17T10:15:02.424Z</time>
      </trkpt>
      <trkpt lat="43.76843" lon="1.51857">
        <ele>195.199112</ele>
        <time>2023-09-17T10:15:03.424Z</time>
      </trkpt>
      <trkpt lat="43.76847" lon="1.51856">
        <ele>195.663484</ele>
        <time>2023-09-17T10:15:04.424Z</time>
      </trkpt>
      <trkpt lat="43.76847" lon="1.51856">
        <ele>195.663484</ele>
        <time>2023-09-17T10:15:04.424Z</time>
      </trkpt>
      <trkpt lat="43.76851" lon="1.51855">
        <ele>196.086264</ele>
        <time>2023-09-17T10:15:05.424Z</time>
      </trkpt>
      <trkpt lat="43.76856" lon="1.51853">
        <ele>196.519593</ele>
        <time>2023-09-17T10:15:06.424Z</time>
      </trkpt>
      <trkpt lat="43.76856" lon="1.51853">
        <ele>196.519593</ele>
        <time>2023-09-17T10:15:06.424Z</time>
      </trkpt>
      <trkpt lat="43.76861" lon="1.51851">
        <ele>197.066051</ele>
        <time>2023-09-17T10:15:07.424Z</time>
      </trkpt>
      <trkpt lat="43.76861" lon="1.51851">
        <ele>197.066051</ele>
        <time>2023-09-17T10:15:07.424Z</time>
      </trkpt>
      <trkpt lat="43.76865" lon="1.5185">
        <ele>197.537864</ele>
        <time>2023-09-17T10:15:08.424Z</time>
      </trkpt>
      <trkpt lat="43.76865" lon="1.5185">
        <ele>197.537864</ele>
        <time>2023-09-17T10:15:08.424Z</time>
      </trkpt>
      <trkpt lat="43.7687" lon="1.51848">
        <ele>198.044055</ele>
        <time>2023-09-17T10:15:09.424Z</time>
      </trkpt>
      <trkpt lat="43.7687" lon="1.51848">
        <ele>198.044055</ele>
        <time>2023-09-17T10:15:09.424Z</time>
      </trkpt>
      <trkpt lat="43.76875" lon="1.51846">
        <ele>198.479345</ele>
        <time>2023-09-17T10:15:10.424Z</time>
      </trkpt>
      <trkpt lat="43.76875" lon="1.51846">
        <ele>198.479345</ele>
        <time>2023-09-17T10:15:10.424Z</time>
      </trkpt>
      <trkpt lat="43.76878" lon="1.51845">
        <ele>198.801556</ele>
        <time>2023-09-17T10:15:11.424Z</time>
      </trkpt>
      <trkpt lat="43.76878" lon="1.51845">
        <ele>198.801556</ele>
        <time>2023-09-17T10:15:11.424Z</time>
      </trkpt>
      <trkpt lat="43.76881" lon="1.51843">
        <ele>199.19666</ele>
        <time>2023-09-17T10:15:12.424Z</time>
      </trkpt>
      <trkpt lat="43.76881" lon="1.51843">
        <ele>199.19666</ele>
        <time>2023-09-17T10:15:12.424Z</time>
      </trkpt>
      <trkpt lat="43.76886" lon="1.51841">
        <ele>199.63402</ele>
        <time>2023-09-17T10:15:13.424Z</time>
      </trkpt>
      <trkpt lat="43.76886" lon="1.51841">
        <ele>199.63402</ele>
        <time>2023-09-17T10:15:13.424Z</time>
      </trkpt>
      <trkpt lat="43.76889" lon="1.5184">
        <ele>199.954223</ele>
        <time>2023-09-17T10:15:14.424Z</time>
      </trkpt>
      <trkpt lat="43.76889" lon="1.5184">
        <ele>199.954223</ele>
        <time>2023-09-17T10:15:14.424Z</time>
      </trkpt>
      <trkpt lat="43.76894" lon="1.51839">
        <ele>200.455033</ele>
        <time>2023-09-17T10:15:15.424Z</time>
      </trkpt>
      <trkpt lat="43.76894" lon="1.51839">
        <ele>200.455033</ele>
        <time>2023-09-17T10:15:15.424Z</time>
      </trkpt>
      <trkpt lat="43.76897" lon="1.51837">
        <ele>200.848107</ele>
        <time>2023-09-17T10:15:16.424Z</time>
      </trkpt>
      <trkpt lat="43.76897" lon="1.51837">
        <ele>200.848107</ele>
        <time>2023-09-17T10:15:16.424Z</time>
      </trkpt>
      <trkpt lat="43.76902" lon="1.51836">
        <ele>201.358605</ele>
        <time>2023-09-17T10:15:17.424Z</time>
      </trkpt>
      <trkpt lat="43.76902" lon="1.51836">
        <ele>201.358605</ele>
        <time>2023-09-17T10:15:17.424Z</time>
      </trkpt>
      <trkpt lat="43.76906" lon="1.51835">
        <ele>201.704374</ele>
        <time>2023-09-17T10:15:18.424Z</time>
      </trkpt>
      <trkpt lat="43.76906" lon="1.51835">
        <ele>201.704374</ele>
        <time>2023-09-17T10:15:18.424Z</time>
      </trkpt>
      <trkpt lat="43.76911" lon="1.51833">
        <ele>202.214871</ele>
        <time>2023-09-17T10:15:20.424Z</time>
      </trkpt>
      <trkpt lat="43.76911" lon="1.51833">
        <ele>202.214871</ele>
        <time>2023-09-17T10:15:20.424Z</time>
      </trkpt>
      <trkpt lat="43.76916" lon="1.51832">
        <ele>202.71258</ele>
        <time>2023-09-17T10:15:21.424Z</time>
      </trkpt>
      <trkpt lat="43.76916" lon="1.51832">
        <ele>202.71258</ele>
        <time>2023-09-17T10:15:21.424Z</time>
      </trkpt>
      <trkpt lat="43.7692" lon="1.5183">
        <ele>203.113368</ele>
        <time>2023-09-17T10:15:22.424Z</time>
      </trkpt>
      <trkpt lat="43.7692" lon="1.5183">
        <ele>203.113368</ele>
        <time>2023-09-17T10:15:22.424Z</time>
      </trkpt>
      <trkpt lat="43.76922" lon="1.51829">
        <ele>203.315567</ele>
        <time>2023-09-17T10:15:23.424Z</time>
      </trkpt>
      <trkpt lat="43.76922" lon="1.51829">
        <ele>203.315567</ele>
        <time>2023-09-17T10:15:23.424Z</time>
      </trkpt>
      <trkpt lat="43.76926" lon="1.51826">
        <ele>203.792438</ele>
        <time>2023-09-17T10:15:24.424Z</time>
      </trkpt>
      <trkpt lat="43.76926" lon="1.51826">
        <ele>203.792438</ele>
        <time>2023-09-17T10:15:24.424Z</time>
      </trkpt>
      <trkpt lat="43.76929" lon="1.51823">
        <ele>204.140741</ele>
        <time>2023-09-17T10:15:25.424Z</time>
      </trkpt>
      <trkpt lat="43.76929" lon="1.51823">
        <ele>204.140741</ele>
        <time>2023-09-17T10:15:25.424Z</time>
      </trkpt>
      <trkpt lat="43.76933" lon="1.5182">
        <ele>204.669932</ele>
        <time>2023-09-17T10:15:27.424Z</time>
      </trkpt>
      <trkpt lat="43.76933" lon="1.5182">
        <ele>204.669932</ele>
        <time>2023-09-17T10:15:27.424Z</time>
      </trkpt>
      <trkpt lat="43.76937" lon="1.51817">
        <ele>205.074886</ele>
        <time>2023-09-17T10:15:28.424Z</time>
      </trkpt>
      <trkpt lat="43.76937" lon="1.51817">
        <ele>205.074886</ele>
        <time>2023-09-17T10:15:28.424Z</time>
      </trkpt>
      <trkpt lat="43.7694" lon="1.51814">
        <ele>205.469992</ele>
        <time>2023-09-17T10:15:29.424Z</time>
      </trkpt>
      <trkpt lat="43.7694" lon="1.51814">
        <ele>205.469992</ele>
        <time>2023-09-17T10:15:29.424Z</time>
      </trkpt>
      <trkpt lat="43.76944" lon="1.51812">
        <ele>205.837467</ele>
        <time>2023-09-17T10:15:30.424Z</time>
      </trkpt>
      <trkpt lat="43.76944" lon="1.51812">
        <ele>205.837467</ele>
        <time>2023-09-17T10:15:30.424Z</time>
      </trkpt>
      <trkpt lat="43.76946" lon="1.51811">
        <ele>206.126866</ele>
        <time>2023-09-17T10:15:31.424Z</time>
      </trkpt>
      <trkpt lat="43.76946" lon="1.51811">
        <ele>206.126866</ele>
        <time>2023-09-17T10:15:31.424Z</time>
      </trkpt>
      <trkpt lat="43.7695" lon="1.51808">
        <ele>206.497208</ele>
        <time>2023-09-17T10:15:32.424Z</time>
      </trkpt>
      <trkpt lat="43.7695" lon="1.51808">
        <ele>206.497208</ele>
        <time>2023-09-17T10:15:32.424Z</time>
      </trkpt>
      <trkpt lat="43.76953" lon="1.51807">
        <ele>206.819662</ele>
        <time>2023-09-17T10:15:34.424Z</time>
      </trkpt>
      <trkpt lat="43.76953" lon="1.51807">
        <ele>206.819662</ele>
        <time>2023-09-17T10:15:34.424Z</time>
      </trkpt>
      <trkpt lat="43.76956" lon="1.51805">
        <ele>207.18863</ele>
        <time>2023-09-17T10:15:35.424Z</time>
      </trkpt>
      <trkpt lat="43.76956" lon="1.51805">
        <ele>207.18863</ele>
        <time>2023-09-17T10:15:35.424Z</time>
      </trkpt>
      <trkpt lat="43.7696" lon="1.51804">
        <ele>207.543605</ele>
        <time>2023-09-17T10:15:36.424Z</time>
      </trkpt>
      <trkpt lat="43.7696" lon="1.51804">
        <ele>207.543605</ele>
        <time>2023-09-17T10:15:36.424Z</time>
      </trkpt>
      <trkpt lat="43.76963" lon="1.51802">
        <ele>207.880841</ele>
        <time>2023-09-17T10:15:37.424Z</time>
      </trkpt>
      <trkpt lat="43.76963" lon="1.51802">
        <ele>207.880841</ele>
        <time>2023-09-17T10:15:37.424Z</time>
      </trkpt>
      <trkpt lat="43.76965" lon="1.518">
        <ele>208.158348</ele>
        <time>2023-09-17T10:15:38.424Z</time>
      </trkpt>
      <trkpt lat="43.76965" lon="1.518">
        <ele>208.158348</ele>
        <time>2023-09-17T10:15:38.424Z</time>
      </trkpt>
      <trkpt lat="43.76969" lon="1.51799">
        <ele>208.522814</ele>
        <time>2023-09-17T10:15:39.424Z</time>
      </trkpt>
      <trkpt lat="43.76969" lon="1.51799">
        <ele>208.522814</ele>
        <time>2023-09-17T10:15:39.424Z</time>
      </trkpt>
      <trkpt lat="43.7697" lon="1.51798">
        <ele>208.688422</ele>
        <time>2023-09-17T10:15:40.424Z</time>
      </trkpt>
      <trkpt lat="43.7697" lon="1.51798">
        <ele>208.688422</ele>
        <time>2023-09-17T10:15:40.424Z</time>
      </trkpt>
      <trkpt lat="43.76976" lon="1.51796">
        <ele>209.236812</ele>
        <time>2023-09-17T10:15:42.424Z</time>
      </trkpt>
      <trkpt lat="43.76976" lon="1.51796">
        <ele>209.236812</ele>
        <time>2023-09-17T10:15:42.424Z</time>
      </trkpt>
      <trkpt lat="43.7698" lon="1.51794">
        <ele>209.714332</ele>
        <time>2023-09-17T10:15:43.424Z</time>
      </trkpt>
      <trkpt lat="43.7698" lon="1.51794">
        <ele>209.714332</ele>
        <time>2023-09-17T10:15:43.424Z</time>
      </trkpt>
      <trkpt lat="43.76984" lon="1.51792">
        <ele>210.147661</ele>
        <time>2023-09-17T10:15:44.424Z</time>
      </trkpt>
      <trkpt lat="43.76984" lon="1.51792">
        <ele>210.147661</ele>
        <time>2023-09-17T10:15:44.424Z</time>
      </trkpt>
      <trkpt lat="43.76988" lon="1.51791">
        <ele>210.498541</ele>
        <time>2023-09-17T10:15:45.424Z</time>
      </trkpt>
      <trkpt lat="43.76988" lon="1.51791">
        <ele>210.498541</ele>
        <time>2023-09-17T10:15:45.424Z</time>
      </trkpt>
      <trkpt lat="43.7699" lon="1.5179">
        <ele>210.736299</ele>
        <time>2023-09-17T10:15:46.424Z</time>
      </trkpt>
      <trkpt lat="43.7699" lon="1.5179">
        <ele>210.736299</ele>
        <time>2023-09-17T10:15:46.424Z</time>
      </trkpt>
      <trkpt lat="43.76993" lon="1.51789">
        <ele>211.016272</ele>
        <time>2023-09-17T10:15:47.424Z</time>
      </trkpt>
      <trkpt lat="43.76993" lon="1.51789">
        <ele>211.016272</ele>
        <time>2023-09-17T10:15:47.424Z</time>
      </trkpt>
      <trkpt lat="43.76996" lon="1.51788">
        <ele>211.362042</ele>
        <time>2023-09-17T10:15:49.424Z</time>
      </trkpt>
      <trkpt lat="43.76996" lon="1.51788">
        <ele>211.362042</ele>
        <time>2023-09-17T10:15:49.424Z</time>
      </trkpt>
      <trkpt lat="43.77002" lon="1.51786">
        <ele>211.911381</ele>
        <time>2023-09-17T10:15:50.424Z</time>
      </trkpt>
      <trkpt lat="43.77002" lon="1.51786">
        <ele>211.911381</ele>
        <time>2023-09-17T10:15:50.424Z</time>
      </trkpt>
      <trkpt lat="43.77004" lon="1.51785">
        <ele>212.147287</ele>
        <time>2023-09-17T10:15:52.424Z</time>
      </trkpt>
      <trkpt lat="43.77004" lon="1.51785">
        <ele>212.147287</ele>
        <time>2023-09-17T10:15:52.424Z</time>
      </trkpt>
      <trkpt lat="43.77006" lon="1.51785">
        <ele>212.371841</ele>
        <time>2023-09-17T10:15:53.424Z</time>
      </trkpt>
      <trkpt lat="43.77006" lon="1.51785">
        <ele>212.371841</ele>
        <time>2023-09-17T10:15:53.424Z</time>
      </trkpt>
      <trkpt lat="43.7701" lon="1.51784">
        <ele>212.728868</ele>
        <time>2023-09-17T10:15:54.424Z</time>
      </trkpt>
      <trkpt lat="43.7701" lon="1.51784">
        <ele>212.728868</ele>
        <time>2023-09-17T10:15:54.424Z</time>
      </trkpt>
      <trkpt lat="43.77012" lon="1.51783">
        <ele>213.008841</ele>
        <time>2023-09-17T10:15:55.424Z</time>
      </trkpt>
      <trkpt lat="43.77012" lon="1.51783">
        <ele>213.008841</ele>
        <time>2023-09-17T10:15:55.424Z</time>
      </trkpt>
      <trkpt lat="43.77016" lon="1.51781">
        <ele>213.214997</ele>
        <time>2023-09-17T10:15:56.424Z</time>
      </trkpt>
      <trkpt lat="43.77016" lon="1.51781">
        <ele>213.214997</ele>
        <time>2023-09-17T10:15:56.424Z</time>
      </trkpt>
      <trkpt lat="43.77018" lon="1.5178">
        <ele>213.349094</ele>
        <time>2023-09-17T10:15:57.424Z</time>
      </trkpt>
      <trkpt lat="43.77018" lon="1.5178">
        <ele>213.349094</ele>
        <time>2023-09-17T10:15:57.424Z</time>
      </trkpt>
      <trkpt lat="43.7702" lon="1.51779">
        <ele>213.484349</ele>
        <time>2023-09-17T10:15:58.424Z</time>
      </trkpt>
      <trkpt lat="43.7702" lon="1.51779">
        <ele>213.484349</ele>
        <time>2023-09-17T10:15:58.424Z</time>
      </trkpt>
      <trkpt lat="43.77022" lon="1.51779">
        <ele>213.592859</ele>
        <time>2023-09-17T10:16:00.424Z</time>
      </trkpt>
      <trkpt lat="43.77022" lon="1.51779">
        <ele>213.592859</ele>
        <time>2023-09-17T10:16:00.424Z</time>
      </trkpt>
      <trkpt lat="43.77024" lon="1.51779">
        <ele>213.699538</ele>
        <time>2023-09-17T10:16:01.424Z</time>
      </trkpt>
      <trkpt lat="43.77024" lon="1.51779">
        <ele>213.699538</ele>
        <time>2023-09-17T10:16:01.424Z</time>
      </trkpt>
      <trkpt lat="43.77026" lon="1.51779">
        <ele>213.78457</ele>
        <time>2023-09-17T10:16:02.424Z</time>
      </trkpt>
      <trkpt lat="43.77026" lon="1.51779">
        <ele>213.78457</ele>
        <time>2023-09-17T10:16:02.424Z</time>
      </trkpt>
      <trkpt lat="43.77028" lon="1.51781">
        <ele>213.946328</ele>
        <time>2023-09-17T10:16:03.424Z</time>
      </trkpt>
      <trkpt lat="43.77028" lon="1.51781">
        <ele>213.946328</ele>
        <time>2023-09-17T10:16:03.424Z</time>
      </trkpt>
      <trkpt lat="43.7703" lon="1.51783">
        <ele>214.099071</ele>
        <time>2023-09-17T10:16:04.424Z</time>
      </trkpt>
      <trkpt lat="43.7703" lon="1.51783">
        <ele>214.099071</ele>
        <time>2023-09-17T10:16:04.424Z</time>
      </trkpt>
      <trkpt lat="43.77033" lon="1.51787">
        <ele>214.281995</ele>
        <time>2023-09-17T10:16:05.424Z</time>
      </trkpt>
      <trkpt lat="43.77033" lon="1.51787">
        <ele>214.281995</ele>
        <time>2023-09-17T10:16:05.424Z</time>
      </trkpt>
      <trkpt lat="43.77035" lon="1.5179">
        <ele>214.486004</ele>
        <time>2023-09-17T10:16:07.424Z</time>
      </trkpt>
      <trkpt lat="43.77035" lon="1.5179">
        <ele>214.486004</ele>
        <time>2023-09-17T10:16:07.424Z</time>
      </trkpt>
      <trkpt lat="43.77036" lon="1.51793">
        <ele>214.620835</ele>
        <time>2023-09-17T10:16:08.424Z</time>
      </trkpt>
      <trkpt lat="43.77036" lon="1.51793">
        <ele>214.620835</ele>
        <time>2023-09-17T10:16:08.424Z</time>
      </trkpt>
      <trkpt lat="43.77038" lon="1.51796">
        <ele>214.779482</ele>
        <time>2023-09-17T10:16:09.424Z</time>
      </trkpt>
      <trkpt lat="43.77038" lon="1.51796">
        <ele>214.779482</ele>
        <time>2023-09-17T10:16:09.424Z</time>
      </trkpt>
      <trkpt lat="43.7704" lon="1.51798">
        <ele>214.905046</ele>
        <time>2023-09-17T10:16:10.424Z</time>
      </trkpt>
      <trkpt lat="43.7704" lon="1.51798">
        <ele>214.905046</ele>
        <time>2023-09-17T10:16:10.424Z</time>
      </trkpt>
      <trkpt lat="43.77041" lon="1.51801">
        <ele>215.030064</ele>
        <time>2023-09-17T10:16:11.424Z</time>
      </trkpt>
      <trkpt lat="43.77041" lon="1.51801">
        <ele>215.030064</ele>
        <time>2023-09-17T10:16:11.424Z</time>
      </trkpt>
      <trkpt lat="43.77043" lon="1.51804">
        <ele>215.188711</ele>
        <time>2023-09-17T10:16:12.424Z</time>
      </trkpt>
      <trkpt lat="43.77043" lon="1.51804">
        <ele>215.188711</ele>
        <time>2023-09-17T10:16:12.424Z</time>
      </trkpt>
      <trkpt lat="43.77044" lon="1.51806">
        <ele>215.323541</ele>
        <time>2023-09-17T10:16:13.424Z</time>
      </trkpt>
      <trkpt lat="43.77044" lon="1.51806">
        <ele>215.323541</ele>
        <time>2023-09-17T10:16:13.424Z</time>
      </trkpt>
      <trkpt lat="43.77046" lon="1.5181">
        <ele>215.497723</ele>
        <time>2023-09-17T10:16:15.424Z</time>
      </trkpt>
      <trkpt lat="43.77046" lon="1.5181">
        <ele>215.497723</ele>
        <time>2023-09-17T10:16:15.424Z</time>
      </trkpt>
      <trkpt lat="43.77048" lon="1.51813">
        <ele>215.665571</ele>
        <time>2023-09-17T10:16:16.424Z</time>
      </trkpt>
      <trkpt lat="43.77048" lon="1.51813">
        <ele>215.665571</ele>
        <time>2023-09-17T10:16:16.424Z</time>
      </trkpt>
      <trkpt lat="43.77052" lon="1.51819">
        <ele>215.979876</ele>
        <time>2023-09-17T10:16:17.424Z</time>
      </trkpt>
      <trkpt lat="43.77052" lon="1.51819">
        <ele>215.979876</ele>
        <time>2023-09-17T10:16:17.424Z</time>
      </trkpt>
      <trkpt lat="43.77053" lon="1.5182">
        <ele>216.086107</ele>
        <time>2023-09-17T10:16:19.424Z</time>
      </trkpt>
      <trkpt lat="43.77053" lon="1.5182">
        <ele>216.086107</ele>
        <time>2023-09-17T10:16:19.424Z</time>
      </trkpt>
      <trkpt lat="43.77055" lon="1.51822">
        <ele>216.185361</ele>
        <time>2023-09-17T10:16:20.424Z</time>
      </trkpt>
      <trkpt lat="43.77055" lon="1.51822">
        <ele>216.185361</ele>
        <time>2023-09-17T10:16:20.424Z</time>
      </trkpt>
      <trkpt lat="43.77055" lon="1.51824">
        <ele>216.260912</ele>
        <time>2023-09-17T10:16:21.424Z</time>
      </trkpt>
      <trkpt lat="43.77055" lon="1.51824">
        <ele>216.260912</ele>
        <time>2023-09-17T10:16:21.424Z</time>
      </trkpt>
      <trkpt lat="43.77057" lon="1.51826">
        <ele>216.416582</ele>
        <time>2023-09-17T10:16:22.424Z</time>
      </trkpt>
      <trkpt lat="43.77057" lon="1.51826">
        <ele>216.416582</ele>
        <time>2023-09-17T10:16:22.424Z</time>
      </trkpt>
      <trkpt lat="43.77059" lon="1.51829">
        <ele>216.569325</ele>
        <time>2023-09-17T10:16:24.424Z</time>
      </trkpt>
      <trkpt lat="43.77059" lon="1.51829">
        <ele>216.569325</ele>
        <time>2023-09-17T10:16:24.424Z</time>
      </trkpt>
      <trkpt lat="43.77061" lon="1.51831">
        <ele>216.680686</ele>
        <time>2023-09-17T10:16:24.424Z</time>
      </trkpt>
      <trkpt lat="43.77061" lon="1.51831">
        <ele>216.680686</ele>
        <time>2023-09-17T10:16:24.424Z</time>
      </trkpt>
      <trkpt lat="43.77063" lon="1.51833">
        <ele>216.819641</ele>
        <time>2023-09-17T10:16:25.424Z</time>
      </trkpt>
      <trkpt lat="43.77063" lon="1.51833">
        <ele>216.819641</ele>
        <time>2023-09-17T10:16:25.424Z</time>
      </trkpt>
      <trkpt lat="43.77065" lon="1.51836">
        <ele>216.996914</ele>
        <time>2023-09-17T10:16:26.424Z</time>
      </trkpt>
      <trkpt lat="43.77065" lon="1.51836">
        <ele>216.996914</ele>
        <time>2023-09-17T10:16:26.424Z</time>
      </trkpt>
      <trkpt lat="43.77068" lon="1.51839">
        <ele>217.218858</ele>
        <time>2023-09-17T10:16:27.424Z</time>
      </trkpt>
      <trkpt lat="43.77068" lon="1.51839">
        <ele>217.218858</ele>
        <time>2023-09-17T10:16:27.424Z</time>
      </trkpt>
      <trkpt lat="43.77072" lon="1.5184">
        <ele>217.423258</ele>
        <time>2023-09-17T10:16:30.424Z</time>
      </trkpt>
      <trkpt lat="43.77072" lon="1.5184">
        <ele>217.423258</ele>
        <time>2023-09-17T10:16:30.424Z</time>
      </trkpt>
      <trkpt lat="43.77076" lon="1.51837">
        <ele>217.666693</ele>
        <time>2023-09-17T10:16:30.424Z</time>
      </trkpt>
      <trkpt lat="43.77076" lon="1.51837">
        <ele>217.666693</ele>
        <time>2023-09-17T10:16:30.424Z</time>
      </trkpt>
      <trkpt lat="43.77077" lon="1.51835">
        <ele>217.807944</ele>
        <time>2023-09-17T10:16:32.424Z</time>
      </trkpt>
      <trkpt lat="43.7708" lon="1.5183">
        <ele>218.062865</ele>
        <time>2023-09-17T10:16:33.424Z</time>
      </trkpt>
      <trkpt lat="43.77083" lon="1.51827">
        <ele>218.272879</ele>
        <time>2023-09-17T10:16:34.424Z</time>
      </trkpt>
      <trkpt lat="43.77088" lon="1.51823">
        <ele>218.598901</ele>
        <time>2023-09-17T10:16:36.424Z</time>
      </trkpt>
      <trkpt lat="43.77092" lon="1.5182">
        <ele>218.860432</ele>
        <time>2023-09-17T10:16:37.424Z</time>
      </trkpt>
      <trkpt lat="43.77096" lon="1.51817">
        <ele>219.101937</ele>
        <time>2023-09-17T10:16:37.424Z</time>
      </trkpt>
      <trkpt lat="43.77102" lon="1.51813">
        <ele>219.477219</ele>
        <time>2023-09-17T10:16:38.424Z</time>
      </trkpt>
      <trkpt lat="43.77108" lon="1.5181">
        <ele>219.850857</ele>
        <time>2023-09-17T10:16:40.424Z</time>
      </trkpt>
      <trkpt lat="43.77108" lon="1.5181">
        <ele>219.850857</ele>
        <time>2023-09-17T10:16:40.424Z</time>
      </trkpt>
      <trkpt lat="43.77116" lon="1.51805">
        <ele>220.313027</ele>
        <time>2023-09-17T10:16:40.424Z</time>
      </trkpt>
      <trkpt lat="43.77121" lon="1.51803">
        <ele>220.628497</ele>
        <time>2023-09-17T10:16:41.424Z</time>
      </trkpt>
      <trkpt lat="43.77121" lon="1.51803">
        <ele>220.628497</ele>
        <time>2023-09-17T10:16:41.424Z</time>
      </trkpt>
      <trkpt lat="43.77128" lon="1.518">
        <ele>220.991955</ele>
        <time>2023-09-17T10:16:42.424Z</time>
      </trkpt>
      <trkpt lat="43.77128" lon="1.518">
        <ele>220.991955</ele>
        <time>2023-09-17T10:16:42.424Z</time>
      </trkpt>
      <trkpt lat="43.77134" lon="1.51798">
        <ele>221.358365</ele>
        <time>2023-09-17T10:16:44.424Z</time>
      </trkpt>
      <trkpt lat="43.77134" lon="1.51798">
        <ele>221.358365</ele>
        <time>2023-09-17T10:16:44.424Z</time>
      </trkpt>
      <trkpt lat="43.77141" lon="1.51796">
        <ele>221.752307</ele>
        <time>2023-09-17T10:16:44.424Z</time>
      </trkpt>
      <trkpt lat="43.77141" lon="1.51796">
        <ele>221.752307</ele>
        <time>2023-09-17T10:16:44.424Z</time>
      </trkpt>
      <trkpt lat="43.77147" lon="1.51795">
        <ele>222.122714</ele>
        <time>2023-09-17T10:16:46.424Z</time>
      </trkpt>
      <trkpt lat="43.77147" lon="1.51795">
        <ele>222.122714</ele>
        <time>2023-09-17T10:16:46.424Z</time>
      </trkpt>
      <trkpt lat="43.77154" lon="1.51793">
        <ele>222.516656</ele>
        <time>2023-09-17T10:16:47.424Z</time>
      </trkpt>
      <trkpt lat="43.77154" lon="1.51793">
        <ele>222.516656</ele>
        <time>2023-09-17T10:16:47.424Z</time>
      </trkpt>
      <trkpt lat="43.77162" lon="1.51791">
        <ele>222.953126</ele>
        <time>2023-09-17T10:16:48.424Z</time>
      </trkpt>
      <trkpt lat="43.77162" lon="1.51791">
        <ele>222.953126</ele>
        <time>2023-09-17T10:16:48.424Z</time>
      </trkpt>
      <trkpt lat="43.77169" lon="1.51788">
        <ele>222.752417</ele>
        <time>2023-09-17T10:16:48.424Z</time>
      </trkpt>
      <trkpt lat="43.77169" lon="1.51788">
        <ele>222.752417</ele>
        <time>2023-09-17T10:16:48.424Z</time>
      </trkpt>
      <trkpt lat="43.77175" lon="1.51785">
        <ele>222.171957</ele>
        <time>2023-09-17T10:16:49.424Z</time>
      </trkpt>
      <trkpt lat="43.77175" lon="1.51785">
        <ele>222.171957</ele>
        <time>2023-09-17T10:16:49.424Z</time>
      </trkpt>
      <trkpt lat="43.77183" lon="1.51782">
        <ele>221.466858</ele>
        <time>2023-09-17T10:16:50.424Z</time>
      </trkpt>
      <trkpt lat="43.77183" lon="1.51782">
        <ele>221.466858</ele>
        <time>2023-09-17T10:16:50.424Z</time>
      </trkpt>
      <trkpt lat="43.7719" lon="1.51778">
        <ele>220.835246</ele>
        <time>2023-09-17T10:16:52.424Z</time>
      </trkpt>
      <trkpt lat="43.7719" lon="1.51778">
        <ele>220.835246</ele>
        <time>2023-09-17T10:16:52.424Z</time>
      </trkpt>
      <trkpt lat="43.77197" lon="1.51774">
        <ele>220.1564</ele>
        <time>2023-09-17T10:16:52.424Z</time>
      </trkpt>
      <trkpt lat="43.77197" lon="1.51774">
        <ele>220.1564</ele>
        <time>2023-09-17T10:16:52.424Z</time>
      </trkpt>
      <trkpt lat="43.77204" lon="1.5177">
        <ele>219.491999</ele>
        <time>2023-09-17T10:16:54.424Z</time>
      </trkpt>
      <trkpt lat="43.77204" lon="1.5177">
        <ele>219.491999</ele>
        <time>2023-09-17T10:16:54.424Z</time>
      </trkpt>
      <trkpt lat="43.7721" lon="1.51764">
        <ele>218.841789</ele>
        <time>2023-09-17T10:16:55.424Z</time>
      </trkpt>
      <trkpt lat="43.7721" lon="1.51764">
        <ele>218.841789</ele>
        <time>2023-09-17T10:16:55.424Z</time>
      </trkpt>
      <trkpt lat="43.77217" lon="1.51758">
        <ele>218.153449</ele>
        <time>2023-09-17T10:16:56.424Z</time>
      </trkpt>
      <trkpt lat="43.77217" lon="1.51758">
        <ele>218.153449</ele>
        <time>2023-09-17T10:16:56.424Z</time>
      </trkpt>
      <trkpt lat="43.77223" lon="1.5175">
        <ele>217.41133</ele>
        <time>2023-09-17T10:16:57.424Z</time>
      </trkpt>
      <trkpt lat="43.77223" lon="1.5175">
        <ele>217.41133</ele>
        <time>2023-09-17T10:16:57.424Z</time>
      </trkpt>
      <trkpt lat="43.7723" lon="1.51741">
        <ele>216.618283</ele>
        <time>2023-09-17T10:16:58.424Z</time>
      </trkpt>
      <trkpt lat="43.7723" lon="1.51741">
        <ele>216.618283</ele>
        <time>2023-09-17T10:16:58.424Z</time>
      </trkpt>
      <trkpt lat="43.77235" lon="1.51732">
        <ele>215.85883</ele>
        <time>2023-09-17T10:16:58.424Z</time>
      </trkpt>
      <trkpt lat="43.77235" lon="1.51732">
        <ele>215.85883</ele>
        <time>2023-09-17T10:16:58.424Z</time>
      </trkpt>
      <trkpt lat="43.77241" lon="1.51722">
        <ele>215.075338</ele>
        <time>2023-09-17T10:17:00.424Z</time>
      </trkpt>
      <trkpt lat="43.77241" lon="1.51722">
        <ele>215.075338</ele>
        <time>2023-09-17T10:17:00.424Z</time>
      </trkpt>
      <trkpt lat="43.77247" lon="1.51712">
        <ele>214.261971</ele>
        <time>2023-09-17T10:17:01.424Z</time>
      </trkpt>
      <trkpt lat="43.77247" lon="1.51712">
        <ele>214.261971</ele>
        <time>2023-09-17T10:17:01.424Z</time>
      </trkpt>
      <trkpt lat="43.77252" lon="1.51703">
        <ele>213.504896</ele>
        <time>2023-09-17T10:17:02.424Z</time>
      </trkpt>
      <trkpt lat="43.77252" lon="1.51703">
        <ele>213.504896</ele>
        <time>2023-09-17T10:17:02.424Z</time>
      </trkpt>
      <trkpt lat="43.77258" lon="1.51692">
        <ele>212.717629</ele>
        <time>2023-09-17T10:17:03.424Z</time>
      </trkpt>
      <trkpt lat="43.77258" lon="1.51692">
        <ele>212.717629</ele>
        <time>2023-09-17T10:17:03.424Z</time>
      </trkpt>
      <trkpt lat="43.77262" lon="1.51683">
        <ele>212.046289</ele>
        <time>2023-09-17T10:17:04.424Z</time>
      </trkpt>
      <trkpt lat="43.77262" lon="1.51683">
        <ele>212.046289</ele>
        <time>2023-09-17T10:17:04.424Z</time>
      </trkpt>
      <trkpt lat="43.77265" lon="1.51676">
        <ele>211.470963</ele>
        <time>2023-09-17T10:17:05.424Z</time>
      </trkpt>
      <trkpt lat="43.77265" lon="1.51676">
        <ele>211.470963</ele>
        <time>2023-09-17T10:17:05.424Z</time>
      </trkpt>
      <trkpt lat="43.77269" lon="1.51671">
        <ele>211.02473</ele>
        <time>2023-09-17T10:17:06.424Z</time>
      </trkpt>
      <trkpt lat="43.77269" lon="1.51671">
        <ele>211.02473</ele>
        <time>2023-09-17T10:17:06.424Z</time>
      </trkpt>
      <trkpt lat="43.77273" lon="1.51671">
        <ele>210.694981</ele>
        <time>2023-09-17T10:17:07.424Z</time>
      </trkpt>
      <trkpt lat="43.77273" lon="1.51671">
        <ele>210.694981</ele>
        <time>2023-09-17T10:17:07.424Z</time>
      </trkpt>
      <trkpt lat="43.77277" lon="1.51672">
        <ele>210.313537</ele>
        <time>2023-09-17T10:17:08.424Z</time>
      </trkpt>
      <trkpt lat="43.77277" lon="1.51672">
        <ele>210.313537</ele>
        <time>2023-09-17T10:17:08.424Z</time>
      </trkpt>
      <trkpt lat="43.77282" lon="1.51676">
        <ele>209.806768</ele>
        <time>2023-09-17T10:17:08.424Z</time>
      </trkpt>
      <trkpt lat="43.77282" lon="1.51676">
        <ele>209.806768</ele>
        <time>2023-09-17T10:17:08.424Z</time>
      </trkpt>
      <trkpt lat="43.77287" lon="1.51678">
        <ele>209.412573</ele>
        <time>2023-09-17T10:17:10.424Z</time>
      </trkpt>
      <trkpt lat="43.77287" lon="1.51678">
        <ele>209.412573</ele>
        <time>2023-09-17T10:17:10.424Z</time>
      </trkpt>
      <trkpt lat="43.77293" lon="1.51682">
        <ele>208.800441</ele>
        <time>2023-09-17T10:17:11.424Z</time>
      </trkpt>
      <trkpt lat="43.77293" lon="1.51682">
        <ele>208.800441</ele>
        <time>2023-09-17T10:17:11.424Z</time>
      </trkpt>
      <trkpt lat="43.773" lon="1.51686">
        <ele>208.156196</ele>
        <time>2023-09-17T10:17:12.424Z</time>
      </trkpt>
      <trkpt lat="43.773" lon="1.51686">
        <ele>208.156196</ele>
        <time>2023-09-17T10:17:12.424Z</time>
      </trkpt>
      <trkpt lat="43.77307" lon="1.5169">
        <ele>207.467692</ele>
        <time>2023-09-17T10:17:13.424Z</time>
      </trkpt>
      <trkpt lat="43.77307" lon="1.5169">
        <ele>207.467692</ele>
        <time>2023-09-17T10:17:13.424Z</time>
      </trkpt>
      <trkpt lat="43.77316" lon="1.51695">
        <ele>206.136991</ele>
        <time>2023-09-17T10:17:14.424Z</time>
      </trkpt>
      <trkpt lat="43.77316" lon="1.51695">
        <ele>206.136991</ele>
        <time>2023-09-17T10:17:14.424Z</time>
      </trkpt>
      <trkpt lat="43.77325" lon="1.517">
        <ele>204.750395</ele>
        <time>2023-09-17T10:17:15.424Z</time>
      </trkpt>
      <trkpt lat="43.77325" lon="1.517">
        <ele>204.750395</ele>
        <time>2023-09-17T10:17:15.424Z</time>
      </trkpt>
      <trkpt lat="43.77335" lon="1.51705">
        <ele>203.261254</ele>
        <time>2023-09-17T10:17:16.424Z</time>
      </trkpt>
      <trkpt lat="43.77335" lon="1.51705">
        <ele>203.261254</ele>
        <time>2023-09-17T10:17:16.424Z</time>
      </trkpt>
      <trkpt lat="43.77343" lon="1.51708">
        <ele>202.087189</ele>
        <time>2023-09-17T10:17:17.424Z</time>
      </trkpt>
      <trkpt lat="43.77343" lon="1.51708">
        <ele>202.087189</ele>
        <time>2023-09-17T10:17:17.424Z</time>
      </trkpt>
      <trkpt lat="43.77349" lon="1.5171">
        <ele>201.205311</ele>
        <time>2023-09-17T10:17:18.424Z</time>
      </trkpt>
      <trkpt lat="43.77349" lon="1.5171">
        <ele>201.205311</ele>
        <time>2023-09-17T10:17:18.424Z</time>
      </trkpt>
      <trkpt lat="43.77356" lon="1.51713">
        <ele>200.261504</ele>
        <time>2023-09-17T10:17:19.424Z</time>
      </trkpt>
      <trkpt lat="43.77356" lon="1.51713">
        <ele>200.261504</ele>
        <time>2023-09-17T10:17:19.424Z</time>
      </trkpt>
      <trkpt lat="43.77361" lon="1.51715">
        <ele>199.428539</ele>
        <time>2023-09-17T10:17:20.424Z</time>
      </trkpt>
      <trkpt lat="43.77361" lon="1.51715">
        <ele>199.428539</ele>
        <time>2023-09-17T10:17:20.424Z</time>
      </trkpt>
      <trkpt lat="43.77367" lon="1.51718">
        <ele>198.589681</ele>
        <time>2023-09-17T10:17:21.424Z</time>
      </trkpt>
      <trkpt lat="43.77367" lon="1.51718">
        <ele>198.589681</ele>
        <time>2023-09-17T10:17:21.424Z</time>
      </trkpt>
      <trkpt lat="43.77374" lon="1.51721">
        <ele>197.578011</ele>
        <time>2023-09-17T10:17:22.424Z</time>
      </trkpt>
      <trkpt lat="43.77374" lon="1.51721">
        <ele>197.578011</ele>
        <time>2023-09-17T10:17:22.424Z</time>
      </trkpt>
      <trkpt lat="43.77381" lon="1.51723">
        <ele>196.539001</ele>
        <time>2023-09-17T10:17:23.424Z</time>
      </trkpt>
      <trkpt lat="43.77381" lon="1.51723">
        <ele>196.539001</ele>
        <time>2023-09-17T10:17:23.424Z</time>
      </trkpt>
      <trkpt lat="43.77387" lon="1.51725">
        <ele>195.707235</ele>
        <time>2023-09-17T10:17:24.424Z</time>
      </trkpt>
      <trkpt lat="43.77387" lon="1.51725">
        <ele>195.707235</ele>
        <time>2023-09-17T10:17:24.424Z</time>
      </trkpt>
      <trkpt lat="43.77391" lon="1.51725">
        <ele>195.17371</ele>
        <time>2023-09-17T10:17:25.424Z</time>
      </trkpt>
      <trkpt lat="43.77391" lon="1.51725">
        <ele>195.17371</ele>
        <time>2023-09-17T10:17:25.424Z</time>
      </trkpt>
      <trkpt lat="43.77394" lon="1.51722">
        <ele>194.648556</ele>
        <time>2023-09-17T10:17:26.424Z</time>
      </trkpt>
      <trkpt lat="43.77394" lon="1.51722">
        <ele>194.648556</ele>
        <time>2023-09-17T10:17:26.424Z</time>
      </trkpt>
      <trkpt lat="43.77396" lon="1.51718">
        <ele>194.130541</ele>
        <time>2023-09-17T10:17:27.424Z</time>
      </trkpt>
      <trkpt lat="43.77396" lon="1.51718">
        <ele>194.130541</ele>
        <time>2023-09-17T10:17:27.424Z</time>
      </trkpt>
      <trkpt lat="43.77397" lon="1.51713">
        <ele>193.606362</ele>
        <time>2023-09-17T10:17:28.424Z</time>
      </trkpt>
      <trkpt lat="43.77397" lon="1.51713">
        <ele>193.606362</ele>
        <time>2023-09-17T10:17:28.424Z</time>
      </trkpt>
      <trkpt lat="43.77399" lon="1.51707">
        <ele>192.934326</ele>
        <time>2023-09-17T10:17:29.424Z</time>
      </trkpt>
      <trkpt lat="43.77399" lon="1.51703">
        <ele>192.527205</ele>
        <time>2023-09-17T10:17:30.424Z</time>
      </trkpt>
      <trkpt lat="43.77399" lon="1.51703">
        <ele>192.527205</ele>
        <time>2023-09-17T10:17:30.424Z</time>
      </trkpt>
      <trkpt lat="43.77401" lon="1.51699">
        <ele>192.025946</ele>
        <time>2023-09-17T10:17:32.424Z</time>
      </trkpt>
      <trkpt lat="43.77401" lon="1.51699">
        <ele>192.025946</ele>
        <time>2023-09-17T10:17:32.424Z</time>
      </trkpt>
      <trkpt lat="43.77405" lon="1.51696">
        <ele>191.490536</ele>
        <time>2023-09-17T10:17:33.424Z</time>
      </trkpt>
      <trkpt lat="43.77405" lon="1.51696">
        <ele>191.490536</ele>
        <time>2023-09-17T10:17:33.424Z</time>
      </trkpt>
      <trkpt lat="43.77408" lon="1.51694">
        <ele>191.056073</ele>
        <time>2023-09-17T10:17:34.424Z</time>
      </trkpt>
      <trkpt lat="43.77408" lon="1.51694">
        <ele>191.056073</ele>
        <time>2023-09-17T10:17:34.424Z</time>
      </trkpt>
      <trkpt lat="43.77417" lon="1.51693">
        <ele>189.720107</ele>
        <time>2023-09-17T10:17:35.424Z</time>
      </trkpt>
      <trkpt lat="43.77417" lon="1.51693">
        <ele>189.720107</ele>
        <time>2023-09-17T10:17:35.424Z</time>
      </trkpt>
      <trkpt lat="43.77425" lon="1.51694">
        <ele>188.646918</ele>
        <time>2023-09-17T10:17:36.424Z</time>
      </trkpt>
      <trkpt lat="43.77425" lon="1.51694">
        <ele>188.646918</ele>
        <time>2023-09-17T10:17:36.424Z</time>
      </trkpt>
      <trkpt lat="43.77432" lon="1.51696">
        <ele>187.659897</ele>
        <time>2023-09-17T10:17:37.424Z</time>
      </trkpt>
      <trkpt lat="43.77432" lon="1.51696">
        <ele>187.659897</ele>
        <time>2023-09-17T10:17:37.424Z</time>
      </trkpt>
      <trkpt lat="43.7744" lon="1.51699">
        <ele>186.445308</ele>
        <time>2023-09-17T10:17:38.424Z</time>
      </trkpt>
      <trkpt lat="43.7744" lon="1.51699">
        <ele>186.445308</ele>
        <time>2023-09-17T10:17:38.424Z</time>
      </trkpt>
      <trkpt lat="43.77448" lon="1.51703">
        <ele>185.261972</ele>
        <time>2023-09-17T10:17:39.424Z</time>
      </trkpt>
      <trkpt lat="43.77448" lon="1.51703">
        <ele>185.261972</ele>
        <time>2023-09-17T10:17:39.424Z</time>
      </trkpt>
      <trkpt lat="43.77455" lon="1.51707">
        <ele>184.21251</ele>
        <time>2023-09-17T10:17:40.424Z</time>
      </trkpt>
      <trkpt lat="43.77455" lon="1.51707">
        <ele>184.21251</ele>
        <time>2023-09-17T10:17:40.424Z</time>
      </trkpt>
      <trkpt lat="43.77461" lon="1.51712">
        <ele>183.191374</ele>
        <time>2023-09-17T10:17:41.424Z</time>
      </trkpt>
      <trkpt lat="43.77461" lon="1.51712">
        <ele>183.191374</ele>
        <time>2023-09-17T10:17:41.424Z</time>
      </trkpt>
      <trkpt lat="43.77468" lon="1.51716">
        <ele>182.211702</ele>
        <time>2023-09-17T10:17:42.424Z</time>
      </trkpt>
      <trkpt lat="43.77468" lon="1.51716">
        <ele>182.211702</ele>
        <time>2023-09-17T10:17:42.424Z</time>
      </trkpt>
      <trkpt lat="43.77474" lon="1.51719">
        <ele>181.444407</ele>
        <time>2023-09-17T10:17:43.424Z</time>
      </trkpt>
      <trkpt lat="43.77474" lon="1.51719">
        <ele>181.444407</ele>
        <time>2023-09-17T10:17:43.424Z</time>
      </trkpt>
      <trkpt lat="43.77481" lon="1.51722">
        <ele>180.679893</ele>
        <time>2023-09-17T10:17:44.424Z</time>
      </trkpt>
      <trkpt lat="43.77481" lon="1.51722">
        <ele>180.679893</ele>
        <time>2023-09-17T10:17:44.424Z</time>
      </trkpt>
      <trkpt lat="43.77487" lon="1.51725">
        <ele>179.940965</ele>
        <time>2023-09-17T10:17:45.424Z</time>
      </trkpt>
      <trkpt lat="43.77487" lon="1.51725">
        <ele>179.940965</ele>
        <time>2023-09-17T10:17:45.424Z</time>
      </trkpt>
      <trkpt lat="43.77494" lon="1.51727">
        <ele>179.159057</ele>
        <time>2023-09-17T10:17:46.424Z</time>
      </trkpt>
      <trkpt lat="43.77494" lon="1.51727">
        <ele>179.159057</ele>
        <time>2023-09-17T10:17:46.424Z</time>
      </trkpt>
      <trkpt lat="43.77501" lon="1.51729">
        <ele>178.391377</ele>
        <time>2023-09-17T10:17:47.424Z</time>
      </trkpt>
      <trkpt lat="43.77501" lon="1.51729">
        <ele>178.391377</ele>
        <time>2023-09-17T10:17:47.424Z</time>
      </trkpt>
      <trkpt lat="43.77509" lon="1.5173">
        <ele>177.541224</ele>
        <time>2023-09-17T10:17:48.424Z</time>
      </trkpt>
      <trkpt lat="43.77509" lon="1.5173">
        <ele>177.541224</ele>
        <time>2023-09-17T10:17:48.424Z</time>
      </trkpt>
      <trkpt lat="43.77515" lon="1.51731">
        <ele>176.778581</ele>
        <time>2023-09-17T10:17:49.424Z</time>
      </trkpt>
      <trkpt lat="43.77515" lon="1.51731">
        <ele>176.778581</ele>
        <time>2023-09-17T10:17:49.424Z</time>
      </trkpt>
      <trkpt lat="43.77523" lon="1.51732">
        <ele>175.968499</ele>
        <time>2023-09-17T10:17:50.424Z</time>
      </trkpt>
      <trkpt lat="43.77523" lon="1.51732">
        <ele>175.968499</ele>
        <time>2023-09-17T10:17:50.424Z</time>
      </trkpt>
      <trkpt lat="43.7753" lon="1.51733">
        <ele>175.171438</ele>
        <time>2023-09-17T10:17:51.424Z</time>
      </trkpt>
      <trkpt lat="43.7753" lon="1.51733">
        <ele>175.171438</ele>
        <time>2023-09-17T10:17:51.424Z</time>
      </trkpt>
      <trkpt lat="43.77539" lon="1.51733">
        <ele>174.155189</ele>
        <time>2023-09-17T10:17:52.424Z</time>
      </trkpt>
      <trkpt lat="43.77539" lon="1.51733">
        <ele>174.155189</ele>
        <time>2023-09-17T10:17:52.424Z</time>
      </trkpt>
      <trkpt lat="43.77548" lon="1.51734">
        <ele>173.191762</ele>
        <time>2023-09-17T10:17:53.424Z</time>
      </trkpt>
      <trkpt lat="43.77548" lon="1.51734">
        <ele>173.191762</ele>
        <time>2023-09-17T10:17:53.424Z</time>
      </trkpt>
      <trkpt lat="43.7756" lon="1.51736">
        <ele>171.860112</ele>
        <time>2023-09-17T10:17:54.424Z</time>
      </trkpt>
      <trkpt lat="43.7756" lon="1.51736">
        <ele>171.860112</ele>
        <time>2023-09-17T10:17:54.424Z</time>
      </trkpt>
      <trkpt lat="43.77571" lon="1.5174">
        <ele>170.620474</ele>
        <time>2023-09-17T10:17:55.424Z</time>
      </trkpt>
      <trkpt lat="43.77571" lon="1.5174">
        <ele>170.620474</ele>
        <time>2023-09-17T10:17:55.424Z</time>
      </trkpt>
      <trkpt lat="43.77581" lon="1.51743">
        <ele>169.454764</ele>
        <time>2023-09-17T10:17:56.424Z</time>
      </trkpt>
      <trkpt lat="43.77581" lon="1.51743">
        <ele>169.454764</ele>
        <time>2023-09-17T10:17:56.424Z</time>
      </trkpt>
      <trkpt lat="43.77592" lon="1.51746">
        <ele>168.24918</ele>
        <time>2023-09-17T10:17:57.424Z</time>
      </trkpt>
      <trkpt lat="43.77592" lon="1.51746">
        <ele>168.24918</ele>
        <time>2023-09-17T10:17:57.424Z</time>
      </trkpt>
      <trkpt lat="43.77602" lon="1.51748">
        <ele>167.054616</ele>
        <time>2023-09-17T10:17:58.424Z</time>
      </trkpt>
      <trkpt lat="43.77602" lon="1.51748">
        <ele>167.054616</ele>
        <time>2023-09-17T10:17:58.424Z</time>
      </trkpt>
      <trkpt lat="43.77612" lon="1.51749">
        <ele>165.959488</ele>
        <time>2023-09-17T10:17:59.424Z</time>
      </trkpt>
      <trkpt lat="43.77612" lon="1.51749">
        <ele>165.959488</ele>
        <time>2023-09-17T10:17:59.424Z</time>
      </trkpt>
      <trkpt lat="43.77621" lon="1.51749">
        <ele>165.031728</ele>
        <time>2023-09-17T10:18:00.424Z</time>
      </trkpt>
      <trkpt lat="43.77621" lon="1.51749">
        <ele>165.031728</ele>
        <time>2023-09-17T10:18:00.424Z</time>
      </trkpt>
      <trkpt lat="43.77627" lon="1.51749">
        <ele>164.358051</ele>
        <time>2023-09-17T10:18:01.424Z</time>
      </trkpt>
      <trkpt lat="43.77631" lon="1.51749">
        <ele>163.848505</ele>
        <time>2023-09-17T10:18:02.424Z</time>
      </trkpt>
      <trkpt lat="43.77631" lon="1.51749">
        <ele>163.848505</ele>
        <time>2023-09-17T10:18:02.424Z</time>
      </trkpt>
      <trkpt lat="43.77634" lon="1.5175">
        <ele>163.501374</ele>
        <time>2023-09-17T10:18:03.424Z</time>
      </trkpt>
      <trkpt lat="43.77634" lon="1.5175">
        <ele>163.501374</ele>
        <time>2023-09-17T10:18:03.424Z</time>
      </trkpt>
      <trkpt lat="43.77637" lon="1.51753">
        <ele>163.197153</ele>
        <time>2023-09-17T10:18:04.424Z</time>
      </trkpt>
      <trkpt lat="43.77637" lon="1.51753">
        <ele>163.197153</ele>
        <time>2023-09-17T10:18:04.424Z</time>
      </trkpt>
      <trkpt lat="43.77638" lon="1.51756">
        <ele>162.909637</ele>
        <time>2023-09-17T10:18:05.424Z</time>
      </trkpt>
      <trkpt lat="43.77638" lon="1.51756">
        <ele>162.909637</ele>
        <time>2023-09-17T10:18:05.424Z</time>
      </trkpt>
      <trkpt lat="43.77638" lon="1.5176">
        <ele>162.57311</ele>
        <time>2023-09-17T10:18:05.424Z</time>
      </trkpt>
      <trkpt lat="43.77638" lon="1.51764">
        <ele>162.389232</ele>
        <time>2023-09-17T10:18:06.424Z</time>
      </trkpt>
      <trkpt lat="43.77638" lon="1.51764">
        <ele>162.389232</ele>
        <time>2023-09-17T10:18:06.424Z</time>
      </trkpt>
      <trkpt lat="43.77637" lon="1.51768">
        <ele>162.336838</ele>
        <time>2023-09-17T10:18:08.424Z</time>
      </trkpt>
      <trkpt lat="43.77637" lon="1.51768">
        <ele>162.336838</ele>
        <time>2023-09-17T10:18:08.424Z</time>
      </trkpt>
      <trkpt lat="43.77636" lon="1.51771">
        <ele>162.306814</ele>
        <time>2023-09-17T10:18:08.424Z</time>
      </trkpt>
      <trkpt lat="43.77634" lon="1.51774">
        <ele>162.257779</ele>
        <time>2023-09-17T10:18:10.424Z</time>
      </trkpt>
      <trkpt lat="43.77634" lon="1.51774">
        <ele>162.257779</ele>
        <time>2023-09-17T10:18:10.424Z</time>
      </trkpt>
      <trkpt lat="43.77633" lon="1.51779">
        <ele>162.202385</ele>
        <time>2023-09-17T10:18:11.424Z</time>
      </trkpt>
      <trkpt lat="43.77631" lon="1.51786">
        <ele>162.11019</ele>
        <time>2023-09-17T10:18:12.424Z</time>
      </trkpt>
      <trkpt lat="43.77631" lon="1.51786">
        <ele>162.11019</ele>
        <time>2023-09-17T10:18:12.424Z</time>
      </trkpt>
      <trkpt lat="43.7763" lon="1.51789">
        <ele>162.072192</ele>
        <time>2023-09-17T10:18:14.424Z</time>
      </trkpt>
      <trkpt lat="43.77628" lon="1.51797">
        <ele>161.979452</ele>
        <time>2023-09-17T10:18:16.424Z</time>
      </trkpt>
      <trkpt lat="43.77628" lon="1.51797">
        <ele>161.979452</ele>
        <time>2023-09-17T10:18:16.424Z</time>
      </trkpt>
      <trkpt lat="43.77627" lon="1.51799">
        <ele>161.953671</ele>
        <time>2023-09-17T10:18:17.424Z</time>
      </trkpt>
      <trkpt lat="43.77626" lon="1.51803">
        <ele>161.902354</ele>
        <time>2023-09-17T10:18:19.424Z</time>
      </trkpt>
      <trkpt lat="43.77625" lon="1.51807">
        <ele>161.854613</ele>
        <time>2023-09-17T10:18:20.424Z</time>
      </trkpt>
      <trkpt lat="43.77624" lon="1.51811">
        <ele>161.801139</ele>
        <time>2023-09-17T10:18:21.424Z</time>
      </trkpt>
      <trkpt lat="43.77624" lon="1.51811">
        <ele>161.801139</ele>
        <time>2023-09-17T10:18:21.424Z</time>
      </trkpt>
      <trkpt lat="43.77623" lon="1.51817">
        <ele>161.731856</ele>
        <time>2023-09-17T10:18:22.424Z</time>
      </trkpt>
      <trkpt lat="43.77622" lon="1.51822">
        <ele>161.673584</ele>
        <time>2023-09-17T10:18:23.424Z</time>
      </trkpt>
      <trkpt lat="43.7762" lon="1.51828">
        <ele>161.594429</ele>
        <time>2023-09-17T10:18:24.424Z</time>
      </trkpt>
      <trkpt lat="43.77619" lon="1.51834">
        <ele>161.520373</ele>
        <time>2023-09-17T10:18:25.424Z</time>
      </trkpt>
      <trkpt lat="43.77617" lon="1.51852">
        <ele>161.317393</ele>
        <time>2023-09-17T10:18:27.424Z</time>
      </trkpt>
      <trkpt lat="43.77617" lon="1.51852">
        <ele>161.317393</ele>
        <time>2023-09-17T10:18:27.424Z</time>
      </trkpt>
      <trkpt lat="43.77617" lon="1.51856">
        <ele>161.261345</ele>
        <time>2023-09-17T10:18:28.424Z</time>
      </trkpt>
      <trkpt lat="43.77617" lon="1.51862">
        <ele>161.191452</ele>
        <time>2023-09-17T10:18:29.424Z</time>
      </trkpt>
      <trkpt lat="43.77617" lon="1.51862">
        <ele>161.191452</ele>
        <time>2023-09-17T10:18:29.424Z</time>
      </trkpt>
      <trkpt lat="43.77616" lon="1.5187">
        <ele>161.103061</ele>
        <time>2023-09-17T10:18:29.424Z</time>
      </trkpt>
      <trkpt lat="43.77616" lon="1.51877">
        <ele>161.022767</ele>
        <time>2023-09-17T10:18:31.424Z</time>
      </trkpt>
      <trkpt lat="43.77616" lon="1.51877">
        <ele>161.022767</ele>
        <time>2023-09-17T10:18:31.424Z</time>
      </trkpt>
      <trkpt lat="43.77616" lon="1.51883">
        <ele>160.94621</ele>
        <time>2023-09-17T10:18:32.424Z</time>
      </trkpt>
      <trkpt lat="43.77616" lon="1.51891">
        <ele>160.859213</ele>
        <time>2023-09-17T10:18:33.424Z</time>
      </trkpt>
      <trkpt lat="43.77616" lon="1.51898">
        <ele>160.778017</ele>
        <time>2023-09-17T10:18:34.424Z</time>
      </trkpt>
      <trkpt lat="43.77616" lon="1.51905">
        <ele>160.6945</ele>
        <time>2023-09-17T10:18:35.424Z</time>
      </trkpt>
      <trkpt lat="43.77616" lon="1.51914">
        <ele>160.597064</ele>
        <time>2023-09-17T10:18:36.424Z</time>
      </trkpt>
      <trkpt lat="43.77616" lon="1.51914">
        <ele>160.597064</ele>
        <time>2023-09-17T10:18:36.424Z</time>
      </trkpt>
      <trkpt lat="43.77616" lon="1.51921">
        <ele>160.512387</ele>
        <time>2023-09-17T10:18:37.424Z</time>
      </trkpt>
      <trkpt lat="43.77616" lon="1.51921">
        <ele>160.512387</ele>
        <time>2023-09-17T10:18:37.424Z</time>
      </trkpt>
      <trkpt lat="43.77616" lon="1.51928">
        <ele>160.42539</ele>
        <time>2023-09-17T10:18:38.424Z</time>
      </trkpt>
      <trkpt lat="43.77616" lon="1.51928">
        <ele>160.42539</ele>
        <time>2023-09-17T10:18:38.424Z</time>
      </trkpt>
      <trkpt lat="43.77616" lon="1.51936">
        <ele>160.332594</ele>
        <time>2023-09-17T10:18:39.424Z</time>
      </trkpt>
      <trkpt lat="43.77616" lon="1.51944">
        <ele>160.247917</ele>
        <time>2023-09-17T10:18:40.424Z</time>
      </trkpt>
      <trkpt lat="43.77616" lon="1.51952">
        <ele>160.153961</ele>
        <time>2023-09-17T10:18:41.424Z</time>
      </trkpt>
      <trkpt lat="43.77615" lon="1.51959">
        <ele>160.064514</ele>
        <time>2023-09-17T10:18:42.424Z</time>
      </trkpt>
      <trkpt lat="43.77615" lon="1.51967">
        <ele>159.971718</ele>
        <time>2023-09-17T10:18:43.424Z</time>
      </trkpt>
      <trkpt lat="43.77615" lon="1.51975">
        <ele>159.884721</ele>
        <time>2023-09-17T10:18:44.424Z</time>
      </trkpt>
      <trkpt lat="43.77615" lon="1.51975">
        <ele>159.884721</ele>
        <time>2023-09-17T10:18:44.424Z</time>
      </trkpt>
      <trkpt lat="43.77615" lon="1.51983">
        <ele>159.796565</ele>
        <time>2023-09-17T10:18:45.424Z</time>
      </trkpt>
      <trkpt lat="43.77616" lon="1.5199">
        <ele>159.709435</ele>
        <time>2023-09-17T10:18:46.424Z</time>
      </trkpt>
      <trkpt lat="43.77616" lon="1.5199">
        <ele>159.709435</ele>
        <time>2023-09-17T10:18:46.424Z</time>
      </trkpt>
      <trkpt lat="43.77616" lon="1.51998">
        <ele>159.616638</ele>
        <time>2023-09-17T10:18:47.424Z</time>
      </trkpt>
      <trkpt lat="43.77616" lon="1.52007">
        <ele>159.532639</ele>
        <time>2023-09-17T10:18:48.424Z</time>
      </trkpt>
      <trkpt lat="43.77616" lon="1.52015">
        <ele>159.581363</ele>
        <time>2023-09-17T10:18:49.424Z</time>
      </trkpt>
      <trkpt lat="43.77616" lon="1.52015">
        <ele>159.581363</ele>
        <time>2023-09-17T10:18:49.424Z</time>
      </trkpt>
      <trkpt lat="43.77616" lon="1.52024">
        <ele>159.63292</ele>
        <time>2023-09-17T10:18:49.424Z</time>
      </trkpt>
      <trkpt lat="43.77616" lon="1.52033">
        <ele>159.679944</ele>
        <time>2023-09-17T10:18:50.424Z</time>
      </trkpt>
      <trkpt lat="43.77616" lon="1.52033">
        <ele>159.679944</ele>
        <time>2023-09-17T10:18:50.424Z</time>
      </trkpt>
      <trkpt lat="43.77616" lon="1.52042">
        <ele>159.730368</ele>
        <time>2023-09-17T10:18:52.424Z</time>
      </trkpt>
      <trkpt lat="43.77616" lon="1.52051">
        <ele>159.783151</ele>
        <time>2023-09-17T10:18:52.424Z</time>
      </trkpt>
      <trkpt lat="43.77616" lon="1.5206">
        <ele>159.833008</ele>
        <time>2023-09-17T10:18:54.424Z</time>
      </trkpt>
      <trkpt lat="43.77616" lon="1.5206">
        <ele>159.833008</ele>
        <time>2023-09-17T10:18:54.424Z</time>
      </trkpt>
      <trkpt lat="43.77616" lon="1.52068">
        <ele>159.8789</ele>
        <time>2023-09-17T10:18:55.424Z</time>
      </trkpt>
      <trkpt lat="43.77616" lon="1.52076">
        <ele>159.925358</ele>
        <time>2023-09-17T10:18:55.424Z</time>
      </trkpt>
      <trkpt lat="43.77616" lon="1.52084">
        <ele>159.972487</ele>
        <time>2023-09-17T10:18:56.424Z</time>
      </trkpt>
      <trkpt lat="43.77616" lon="1.52084">
        <ele>159.972487</ele>
        <time>2023-09-17T10:18:56.424Z</time>
      </trkpt>
      <trkpt lat="43.77616" lon="1.52087">
        <ele>159.987217</ele>
        <time>2023-09-17T10:18:57.424Z</time>
      </trkpt>
      <trkpt lat="43.77615" lon="1.52101">
        <ele>160.06657</ele>
        <time>2023-09-17T10:18:58.424Z</time>
      </trkpt>
      <trkpt lat="43.77615" lon="1.5211">
        <ele>160.115861</ele>
        <time>2023-09-17T10:18:59.424Z</time>
      </trkpt>
      <trkpt lat="43.77615" lon="1.52118">
        <ele>160.160619</ele>
        <time>2023-09-17T10:19:00.424Z</time>
      </trkpt>
      <trkpt lat="43.77615" lon="1.52126">
        <ele>160.209343</ele>
        <time>2023-09-17T10:19:01.424Z</time>
      </trkpt>
      <trkpt lat="43.77615" lon="1.52126">
        <ele>160.209343</ele>
        <time>2023-09-17T10:19:01.424Z</time>
      </trkpt>
      <trkpt lat="43.77616" lon="1.52135">
        <ele>160.257558</ele>
        <time>2023-09-17T10:19:02.424Z</time>
      </trkpt>
      <trkpt lat="43.77616" lon="1.52143">
        <ele>160.305149</ele>
        <time>2023-09-17T10:19:03.424Z</time>
      </trkpt>
      <trkpt lat="43.77616" lon="1.52151">
        <ele>160.352844</ele>
        <time>2023-09-17T10:19:04.424Z</time>
      </trkpt>
      <trkpt lat="43.77616" lon="1.52151">
        <ele>160.352844</ele>
        <time>2023-09-17T10:19:04.424Z</time>
      </trkpt>
      <trkpt lat="43.77617" lon="1.5216">
        <ele>160.400246</ele>
        <time>2023-09-17T10:19:05.424Z</time>
      </trkpt>
      <trkpt lat="43.77618" lon="1.52167">
        <ele>160.444216</ele>
        <time>2023-09-17T10:19:06.424Z</time>
      </trkpt>
      <trkpt lat="43.77618" lon="1.5217">
        <ele>160.458171</ele>
        <time>2023-09-17T10:19:08.424Z</time>
      </trkpt>
      <trkpt lat="43.7762" lon="1.52183">
        <ele>160.533317</ele>
        <time>2023-09-17T10:19:08.424Z</time>
      </trkpt>
      <trkpt lat="43.77621" lon="1.5219">
        <ele>160.57684</ele>
        <time>2023-09-17T10:19:09.424Z</time>
      </trkpt>
      <trkpt lat="43.77622" lon="1.52198">
        <ele>160.61909</ele>
        <time>2023-09-17T10:19:11.424Z</time>
      </trkpt>
      <trkpt lat="43.77622" lon="1.52198">
        <ele>160.61909</ele>
        <time>2023-09-17T10:19:11.424Z</time>
      </trkpt>
      <trkpt lat="43.77623" lon="1.52205">
        <ele>160.662059</ele>
        <time>2023-09-17T10:19:11.424Z</time>
      </trkpt>
      <trkpt lat="43.77625" lon="1.52212">
        <ele>160.704309</ele>
        <time>2023-09-17T10:19:12.424Z</time>
      </trkpt>
      <trkpt lat="43.77625" lon="1.52212">
        <ele>160.704309</ele>
        <time>2023-09-17T10:19:12.424Z</time>
      </trkpt>
      <trkpt lat="43.77626" lon="1.5222">
        <ele>160.746174</ele>
        <time>2023-09-17T10:19:13.424Z</time>
      </trkpt>
      <trkpt lat="43.77626" lon="1.5222">
        <ele>160.746174</ele>
        <time>2023-09-17T10:19:13.424Z</time>
      </trkpt>
      <trkpt lat="43.77626" lon="1.52224">
        <ele>160.771147</ele>
        <time>2023-09-17T10:19:14.424Z</time>
      </trkpt>
      <trkpt lat="43.77628" lon="1.52233">
        <ele>160.821329</ele>
        <time>2023-09-17T10:19:15.424Z</time>
      </trkpt>
      <trkpt lat="43.77628" lon="1.52233">
        <ele>160.821329</ele>
        <time>2023-09-17T10:19:15.424Z</time>
      </trkpt>
      <trkpt lat="43.77628" lon="1.52238">
        <ele>160.855204</ele>
        <time>2023-09-17T10:19:16.424Z</time>
      </trkpt>
      <trkpt lat="43.77628" lon="1.52238">
        <ele>160.855204</ele>
        <time>2023-09-17T10:19:16.424Z</time>
      </trkpt>
      <trkpt lat="43.77629" lon="1.52245">
        <ele>160.89033</ele>
        <time>2023-09-17T10:19:18.424Z</time>
      </trkpt>
      <trkpt lat="43.77629" lon="1.52245">
        <ele>160.89033</ele>
        <time>2023-09-17T10:19:18.424Z</time>
      </trkpt>
      <trkpt lat="43.7763" lon="1.5225">
        <ele>160.923757</ele>
        <time>2023-09-17T10:19:19.424Z</time>
      </trkpt>
      <trkpt lat="43.77631" lon="1.52256">
        <ele>161.122324</ele>
        <time>2023-09-17T10:19:19.424Z</time>
      </trkpt>
      <trkpt lat="43.77631" lon="1.52256">
        <ele>161.122324</ele>
        <time>2023-09-17T10:19:19.424Z</time>
      </trkpt>
      <trkpt lat="43.77632" lon="1.52261">
        <ele>161.445537</ele>
        <time>2023-09-17T10:19:20.424Z</time>
      </trkpt>
      <trkpt lat="43.77632" lon="1.52261">
        <ele>161.445537</ele>
        <time>2023-09-17T10:19:20.424Z</time>
      </trkpt>
      <trkpt lat="43.77633" lon="1.52266">
        <ele>161.769112</ele>
        <time>2023-09-17T10:19:22.424Z</time>
      </trkpt>
      <trkpt lat="43.77633" lon="1.52266">
        <ele>161.769112</ele>
        <time>2023-09-17T10:19:22.424Z</time>
      </trkpt>
      <trkpt lat="43.77634" lon="1.52271">
        <ele>162.092324</ele>
        <time>2023-09-17T10:19:23.424Z</time>
      </trkpt>
      <trkpt lat="43.77634" lon="1.52271">
        <ele>162.092324</ele>
        <time>2023-09-17T10:19:23.424Z</time>
      </trkpt>
      <trkpt lat="43.77634" lon="1.52277">
        <ele>162.449807</ele>
        <time>2023-09-17T10:19:23.424Z</time>
      </trkpt>
      <trkpt lat="43.77634" lon="1.52277">
        <ele>162.449807</ele>
        <time>2023-09-17T10:19:23.424Z</time>
      </trkpt>
      <trkpt lat="43.77635" lon="1.5228">
        <ele>162.653227</ele>
        <time>2023-09-17T10:19:24.424Z</time>
      </trkpt>
      <trkpt lat="43.77635" lon="1.5228">
        <ele>162.653227</ele>
        <time>2023-09-17T10:19:24.424Z</time>
      </trkpt>
      <trkpt lat="43.77636" lon="1.52291">
        <ele>163.335535</ele>
        <time>2023-09-17T10:19:27.424Z</time>
      </trkpt>
      <trkpt lat="43.77636" lon="1.52291">
        <ele>163.335535</ele>
        <time>2023-09-17T10:19:27.424Z</time>
      </trkpt>
      <trkpt lat="43.77637" lon="1.52296">
        <ele>163.618598</ele>
        <time>2023-09-17T10:19:28.424Z</time>
      </trkpt>
      <trkpt lat="43.77637" lon="1.52296">
        <ele>163.618598</ele>
        <time>2023-09-17T10:19:28.424Z</time>
      </trkpt>
      <trkpt lat="43.77638" lon="1.52301">
        <ele>163.929929</ele>
        <time>2023-09-17T10:19:29.424Z</time>
      </trkpt>
      <trkpt lat="43.77638" lon="1.52301">
        <ele>163.929929</ele>
        <time>2023-09-17T10:19:29.424Z</time>
      </trkpt>
      <trkpt lat="43.77639" lon="1.52307">
        <ele>164.318049</ele>
        <time>2023-09-17T10:19:31.424Z</time>
      </trkpt>
      <trkpt lat="43.77639" lon="1.52307">
        <ele>164.318049</ele>
        <time>2023-09-17T10:19:31.424Z</time>
      </trkpt>
      <trkpt lat="43.7764" lon="1.52312">
        <ele>164.635318</ele>
        <time>2023-09-17T10:19:32.424Z</time>
      </trkpt>
      <trkpt lat="43.7764" lon="1.52312">
        <ele>164.635318</ele>
        <time>2023-09-17T10:19:32.424Z</time>
      </trkpt>
      <trkpt lat="43.77641" lon="1.5232">
        <ele>165.13778</ele>
        <time>2023-09-17T10:19:33.424Z</time>
      </trkpt>
      <trkpt lat="43.77641" lon="1.5232">
        <ele>165.13778</ele>
        <time>2023-09-17T10:19:33.424Z</time>
      </trkpt>
      <trkpt lat="43.77642" lon="1.52325">
        <ele>165.449111</ele>
        <time>2023-09-17T10:19:34.424Z</time>
      </trkpt>
      <trkpt lat="43.77642" lon="1.52325">
        <ele>165.449111</ele>
        <time>2023-09-17T10:19:34.424Z</time>
      </trkpt>
      <trkpt lat="43.77643" lon="1.52331">
        <ele>165.83133</ele>
        <time>2023-09-17T10:19:35.424Z</time>
      </trkpt>
      <trkpt lat="43.77643" lon="1.52331">
        <ele>165.83133</ele>
        <time>2023-09-17T10:19:35.424Z</time>
      </trkpt>
      <trkpt lat="43.77644" lon="1.52337">
        <ele>166.207653</ele>
        <time>2023-09-17T10:19:36.424Z</time>
      </trkpt>
      <trkpt lat="43.77644" lon="1.52337">
        <ele>166.207653</ele>
        <time>2023-09-17T10:19:36.424Z</time>
      </trkpt>
      <trkpt lat="43.77645" lon="1.52344">
        <ele>166.592117</ele>
        <time>2023-09-17T10:19:38.424Z</time>
      </trkpt>
      <trkpt lat="43.77645" lon="1.52344">
        <ele>166.592117</ele>
        <time>2023-09-17T10:19:38.424Z</time>
      </trkpt>
      <trkpt lat="43.77645" lon="1.52356">
        <ele>167.321616</ele>
        <time>2023-09-17T10:19:39.424Z</time>
      </trkpt>
      <trkpt lat="43.77645" lon="1.52356">
        <ele>167.321616</ele>
        <time>2023-09-17T10:19:39.424Z</time>
      </trkpt>
      <trkpt lat="43.77644" lon="1.52362">
        <ele>167.697098</ele>
        <time>2023-09-17T10:19:41.424Z</time>
      </trkpt>
      <trkpt lat="43.77644" lon="1.52362">
        <ele>167.697098</ele>
        <time>2023-09-17T10:19:41.424Z</time>
      </trkpt>
      <trkpt lat="43.77642" lon="1.52366">
        <ele>168.018491</ele>
        <time>2023-09-17T10:19:42.424Z</time>
      </trkpt>
      <trkpt lat="43.77642" lon="1.52366">
        <ele>168.018491</ele>
        <time>2023-09-17T10:19:42.424Z</time>
      </trkpt>
      <trkpt lat="43.7764" lon="1.52372">
        <ele>168.390134</ele>
        <time>2023-09-17T10:19:43.424Z</time>
      </trkpt>
      <trkpt lat="43.7764" lon="1.52372">
        <ele>168.390134</ele>
        <time>2023-09-17T10:19:43.424Z</time>
      </trkpt>
      <trkpt lat="43.77638" lon="1.52376">
        <ele>168.735293</ele>
        <time>2023-09-17T10:19:44.424Z</time>
      </trkpt>
      <trkpt lat="43.77638" lon="1.52376">
        <ele>168.735293</ele>
        <time>2023-09-17T10:19:44.424Z</time>
      </trkpt>
      <trkpt lat="43.77635" lon="1.52381">
        <ele>169.090978</ele>
        <time>2023-09-17T10:19:45.424Z</time>
      </trkpt>
      <trkpt lat="43.77635" lon="1.52381">
        <ele>169.090978</ele>
        <time>2023-09-17T10:19:45.424Z</time>
      </trkpt>
      <trkpt lat="43.77632" lon="1.52386">
        <ele>169.495429</ele>
        <time>2023-09-17T10:19:45.424Z</time>
      </trkpt>
      <trkpt lat="43.77632" lon="1.52386">
        <ele>169.495429</ele>
        <time>2023-09-17T10:19:45.424Z</time>
      </trkpt>
      <trkpt lat="43.77628" lon="1.5239">
        <ele>169.942507</ele>
        <time>2023-09-17T10:19:47.424Z</time>
      </trkpt>
      <trkpt lat="43.77628" lon="1.5239">
        <ele>169.942507</ele>
        <time>2023-09-17T10:19:47.424Z</time>
      </trkpt>
      <trkpt lat="43.77621" lon="1.52398">
        <ele>170.704056</ele>
        <time>2023-09-17T10:19:49.424Z</time>
      </trkpt>
      <trkpt lat="43.77621" lon="1.52398">
        <ele>170.704056</ele>
        <time>2023-09-17T10:19:49.424Z</time>
      </trkpt>
      <trkpt lat="43.77618" lon="1.52401">
        <ele>171.003067</ele>
        <time>2023-09-17T10:19:49.424Z</time>
      </trkpt>
      <trkpt lat="43.77618" lon="1.52401">
        <ele>171.003067</ele>
        <time>2023-09-17T10:19:49.424Z</time>
      </trkpt>
      <trkpt lat="43.77614" lon="1.52404">
        <ele>171.370911</ele>
        <time>2023-09-17T10:19:52.424Z</time>
      </trkpt>
      <trkpt lat="43.77614" lon="1.52404">
        <ele>171.370911</ele>
        <time>2023-09-17T10:19:52.424Z</time>
      </trkpt>
      <trkpt lat="43.77611" lon="1.52408">
        <ele>171.701166</ele>
        <time>2023-09-17T10:19:53.424Z</time>
      </trkpt>
      <trkpt lat="43.77611" lon="1.52408">
        <ele>171.701166</ele>
        <time>2023-09-17T10:19:53.424Z</time>
      </trkpt>
      <trkpt lat="43.77607" lon="1.52412">
        <ele>172.124681</ele>
        <time>2023-09-17T10:19:54.424Z</time>
      </trkpt>
      <trkpt lat="43.77607" lon="1.52412">
        <ele>172.124681</ele>
        <time>2023-09-17T10:19:54.424Z</time>
      </trkpt>
      <trkpt lat="43.77603" lon="1.52417">
        <ele>172.602898</ele>
        <time>2023-09-17T10:19:55.424Z</time>
      </trkpt>
      <trkpt lat="43.77603" lon="1.52417">
        <ele>172.602898</ele>
        <time>2023-09-17T10:19:55.424Z</time>
      </trkpt>
      <trkpt lat="43.77599" lon="1.52421">
        <ele>172.996811</ele>
        <time>2023-09-17T10:19:56.424Z</time>
      </trkpt>
      <trkpt lat="43.77599" lon="1.52421">
        <ele>172.996811</ele>
        <time>2023-09-17T10:19:56.424Z</time>
      </trkpt>
      <trkpt lat="43.77596" lon="1.52426">
        <ele>173.384467</ele>
        <time>2023-09-17T10:19:57.424Z</time>
      </trkpt>
      <trkpt lat="43.77596" lon="1.52426">
        <ele>173.384467</ele>
        <time>2023-09-17T10:19:57.424Z</time>
      </trkpt>
      <trkpt lat="43.77589" lon="1.52434">
        <ele>174.181012</ele>
        <time>2023-09-17T10:19:59.424Z</time>
      </trkpt>
      <trkpt lat="43.77589" lon="1.52434">
        <ele>174.181012</ele>
        <time>2023-09-17T10:19:59.424Z</time>
      </trkpt>
      <trkpt lat="43.77586" lon="1.52438">
        <ele>174.477815</ele>
        <time>2023-09-17T10:20:00.424Z</time>
      </trkpt>
      <trkpt lat="43.77586" lon="1.52438">
        <ele>174.477815</ele>
        <time>2023-09-17T10:20:00.424Z</time>
      </trkpt>
      <trkpt lat="43.77584" lon="1.52441">
        <ele>174.748026</ele>
        <time>2023-09-17T10:20:01.424Z</time>
      </trkpt>
      <trkpt lat="43.77584" lon="1.52441">
        <ele>174.748026</ele>
        <time>2023-09-17T10:20:01.424Z</time>
      </trkpt>
      <trkpt lat="43.77581" lon="1.52446">
        <ele>175.171378</ele>
        <time>2023-09-17T10:20:03.424Z</time>
      </trkpt>
      <trkpt lat="43.77581" lon="1.52446">
        <ele>175.171378</ele>
        <time>2023-09-17T10:20:03.424Z</time>
      </trkpt>
      <trkpt lat="43.77577" lon="1.52451">
        <ele>175.602372</ele>
        <time>2023-09-17T10:20:03.424Z</time>
      </trkpt>
      <trkpt lat="43.77577" lon="1.52451">
        <ele>175.602372</ele>
        <time>2023-09-17T10:20:03.424Z</time>
      </trkpt>
      <trkpt lat="43.77574" lon="1.52456">
        <ele>175.979198</ele>
        <time>2023-09-17T10:20:04.424Z</time>
      </trkpt>
      <trkpt lat="43.77574" lon="1.52456">
        <ele>175.979198</ele>
        <time>2023-09-17T10:20:04.424Z</time>
      </trkpt>
      <trkpt lat="43.77571" lon="1.5246">
        <ele>176.42318</ele>
        <time>2023-09-17T10:20:05.424Z</time>
      </trkpt>
      <trkpt lat="43.77571" lon="1.5246">
        <ele>176.42318</ele>
        <time>2023-09-17T10:20:05.424Z</time>
      </trkpt>
      <trkpt lat="43.77568" lon="1.52464">
        <ele>176.826951</ele>
        <time>2023-09-17T10:20:06.424Z</time>
      </trkpt>
      <trkpt lat="43.77568" lon="1.52464">
        <ele>176.826951</ele>
        <time>2023-09-17T10:20:06.424Z</time>
      </trkpt>
      <trkpt lat="43.77563" lon="1.52471">
        <ele>177.648858</ele>
        <time>2023-09-17T10:20:09.424Z</time>
      </trkpt>
      <trkpt lat="43.77563" lon="1.52471">
        <ele>177.648858</ele>
        <time>2023-09-17T10:20:09.424Z</time>
      </trkpt>
      <trkpt lat="43.77562" lon="1.52474">
        <ele>177.878639</ele>
        <time>2023-09-17T10:20:10.424Z</time>
      </trkpt>
      <trkpt lat="43.77562" lon="1.52474">
        <ele>177.878639</ele>
        <time>2023-09-17T10:20:10.424Z</time>
      </trkpt>
      <trkpt lat="43.7756" lon="1.52475">
        <ele>178.075</ele>
        <time>2023-09-17T10:20:11.424Z</time>
      </trkpt>
      <trkpt lat="43.7756" lon="1.52475">
        <ele>178.075</ele>
        <time>2023-09-17T10:20:11.424Z</time>
      </trkpt>
      <trkpt lat="43.77559" lon="1.52478">
        <ele>178.340003</ele>
        <time>2023-09-17T10:20:12.424Z</time>
      </trkpt>
      <trkpt lat="43.77559" lon="1.52478">
        <ele>178.340003</ele>
        <time>2023-09-17T10:20:12.424Z</time>
      </trkpt>
      <trkpt lat="43.77555" lon="1.52485">
        <ele>178.984555</ele>
        <time>2023-09-17T10:20:14.424Z</time>
      </trkpt>
      <trkpt lat="43.77555" lon="1.52485">
        <ele>178.984555</ele>
        <time>2023-09-17T10:20:14.424Z</time>
      </trkpt>
      <trkpt lat="43.77551" lon="1.5249">
        <ele>179.612645</ele>
        <time>2023-09-17T10:20:16.424Z</time>
      </trkpt>
      <trkpt lat="43.77551" lon="1.5249">
        <ele>179.612645</ele>
        <time>2023-09-17T10:20:16.424Z</time>
      </trkpt>
      <trkpt lat="43.77548" lon="1.52495">
        <ele>180.090856</ele>
        <time>2023-09-17T10:20:17.424Z</time>
      </trkpt>
      <trkpt lat="43.77548" lon="1.52495">
        <ele>180.090856</ele>
        <time>2023-09-17T10:20:17.424Z</time>
      </trkpt>
      <trkpt lat="43.77545" lon="1.52499">
        <ele>180.567293</ele>
        <time>2023-09-17T10:20:18.424Z</time>
      </trkpt>
      <trkpt lat="43.77545" lon="1.52499">
        <ele>180.567293</ele>
        <time>2023-09-17T10:20:18.424Z</time>
      </trkpt>
      <trkpt lat="43.77542" lon="1.52503">
        <ele>180.998951</ele>
        <time>2023-09-17T10:20:19.424Z</time>
      </trkpt>
      <trkpt lat="43.77542" lon="1.52503">
        <ele>180.998951</ele>
        <time>2023-09-17T10:20:19.424Z</time>
      </trkpt>
      <trkpt lat="43.77539" lon="1.52507">
        <ele>181.392094</ele>
        <time>2023-09-17T10:20:20.424Z</time>
      </trkpt>
      <trkpt lat="43.77539" lon="1.52507">
        <ele>181.392094</ele>
        <time>2023-09-17T10:20:20.424Z</time>
      </trkpt>
      <trkpt lat="43.77534" lon="1.52513">
        <ele>182.197527</ele>
        <time>2023-09-17T10:20:22.424Z</time>
      </trkpt>
      <trkpt lat="43.77534" lon="1.52513">
        <ele>182.197527</ele>
        <time>2023-09-17T10:20:22.424Z</time>
      </trkpt>
      <trkpt lat="43.77533" lon="1.52515">
        <ele>182.375098</ele>
        <time>2023-09-17T10:20:23.424Z</time>
      </trkpt>
      <trkpt lat="43.77533" lon="1.52515">
        <ele>182.375098</ele>
        <time>2023-09-17T10:20:23.424Z</time>
      </trkpt>
      <trkpt lat="43.77531" lon="1.52517">
        <ele>182.657443</ele>
        <time>2023-09-17T10:20:23.424Z</time>
      </trkpt>
      <trkpt lat="43.77531" lon="1.52517">
        <ele>182.657443</ele>
        <time>2023-09-17T10:20:23.424Z</time>
      </trkpt>
      <trkpt lat="43.77529" lon="1.5252">
        <ele>182.929305</ele>
        <time>2023-09-17T10:20:25.424Z</time>
      </trkpt>
      <trkpt lat="43.77529" lon="1.5252">
        <ele>182.929305</ele>
        <time>2023-09-17T10:20:25.424Z</time>
      </trkpt>
      <trkpt lat="43.77524" lon="1.52526">
        <ele>183.62627</ele>
        <time>2023-09-17T10:20:27.424Z</time>
      </trkpt>
      <trkpt lat="43.77524" lon="1.52526">
        <ele>183.62627</ele>
        <time>2023-09-17T10:20:27.424Z</time>
      </trkpt>
      <trkpt lat="43.77523" lon="1.52528">
        <ele>183.83508</ele>
        <time>2023-09-17T10:20:28.424Z</time>
      </trkpt>
      <trkpt lat="43.77523" lon="1.52528">
        <ele>183.83508</ele>
        <time>2023-09-17T10:20:28.424Z</time>
      </trkpt>
      <trkpt lat="43.7752" lon="1.52531">
        <ele>184.164987</ele>
        <time>2023-09-17T10:20:29.424Z</time>
      </trkpt>
      <trkpt lat="43.7752" lon="1.52531">
        <ele>184.164987</ele>
        <time>2023-09-17T10:20:29.424Z</time>
      </trkpt>
      <trkpt lat="43.77519" lon="1.52533">
        <ele>184.43685</ele>
        <time>2023-09-17T10:20:31.424Z</time>
      </trkpt>
      <trkpt lat="43.77519" lon="1.52533">
        <ele>184.43685</ele>
        <time>2023-09-17T10:20:31.424Z</time>
      </trkpt>
      <trkpt lat="43.77516" lon="1.52536">
        <ele>184.766756</ele>
        <time>2023-09-17T10:20:32.424Z</time>
      </trkpt>
      <trkpt lat="43.77516" lon="1.52536">
        <ele>184.766756</ele>
        <time>2023-09-17T10:20:32.424Z</time>
      </trkpt>
      <trkpt lat="43.77514" lon="1.52539">
        <ele>185.12354</ele>
        <time>2023-09-17T10:20:33.424Z</time>
      </trkpt>
      <trkpt lat="43.77514" lon="1.52539">
        <ele>185.12354</ele>
        <time>2023-09-17T10:20:33.424Z</time>
      </trkpt>
      <trkpt lat="43.77511" lon="1.52543">
        <ele>185.527314</ele>
        <time>2023-09-17T10:20:34.424Z</time>
      </trkpt>
      <trkpt lat="43.77511" lon="1.52543">
        <ele>185.527314</ele>
        <time>2023-09-17T10:20:34.424Z</time>
      </trkpt>
      <trkpt lat="43.77506" lon="1.52551">
        <ele>186.373402</ele>
        <time>2023-09-17T10:20:36.424Z</time>
      </trkpt>
      <trkpt lat="43.77506" lon="1.52551">
        <ele>186.373402</ele>
        <time>2023-09-17T10:20:36.424Z</time>
      </trkpt>
      <trkpt lat="43.77504" lon="1.52554">
        <ele>186.698226</ele>
        <time>2023-09-17T10:20:37.424Z</time>
      </trkpt>
      <trkpt lat="43.77504" lon="1.52554">
        <ele>186.698226</ele>
        <time>2023-09-17T10:20:37.424Z</time>
      </trkpt>
      <trkpt lat="43.77502" lon="1.52556">
        <ele>187.02305</ele>
        <time>2023-09-17T10:20:38.424Z</time>
      </trkpt>
      <trkpt lat="43.77502" lon="1.52556">
        <ele>187.02305</ele>
        <time>2023-09-17T10:20:38.424Z</time>
      </trkpt>
      <trkpt lat="43.77496" lon="1.52563">
        <ele>187.814591</ele>
        <time>2023-09-17T10:20:40.424Z</time>
      </trkpt>
      <trkpt lat="43.77496" lon="1.52563">
        <ele>187.814591</ele>
        <time>2023-09-17T10:20:40.424Z</time>
      </trkpt>
      <trkpt lat="43.77494" lon="1.52566">
        <ele>188.086454</ele>
        <time>2023-09-17T10:20:41.424Z</time>
      </trkpt>
      <trkpt lat="43.77494" lon="1.52566">
        <ele>188.086454</ele>
        <time>2023-09-17T10:20:41.424Z</time>
      </trkpt>
      <trkpt lat="43.77489" lon="1.52573">
        <ele>188.870112</ele>
        <time>2023-09-17T10:20:43.424Z</time>
      </trkpt>
      <trkpt lat="43.77489" lon="1.52573">
        <ele>188.870112</ele>
        <time>2023-09-17T10:20:43.424Z</time>
      </trkpt>
      <trkpt lat="43.77487" lon="1.52575">
        <ele>189.127218</ele>
        <time>2023-09-17T10:20:44.424Z</time>
      </trkpt>
      <trkpt lat="43.77487" lon="1.52575">
        <ele>189.127218</ele>
        <time>2023-09-17T10:20:44.424Z</time>
      </trkpt>
      <trkpt lat="43.77485" lon="1.52578">
        <ele>189.472977</ele>
        <time>2023-09-17T10:20:45.424Z</time>
      </trkpt>
      <trkpt lat="43.77485" lon="1.52578">
        <ele>189.472977</ele>
        <time>2023-09-17T10:20:45.424Z</time>
      </trkpt>
      <trkpt lat="43.7748" lon="1.52584">
        <ele>190.251328</ele>
        <time>2023-09-17T10:20:47.424Z</time>
      </trkpt>
      <trkpt lat="43.7748" lon="1.52584">
        <ele>190.251328</ele>
        <time>2023-09-17T10:20:47.424Z</time>
      </trkpt>
      <trkpt lat="43.77478" lon="1.52587">
        <ele>190.546847</ele>
        <time>2023-09-17T10:20:47.424Z</time>
      </trkpt>
      <trkpt lat="43.77478" lon="1.52587">
        <ele>190.546847</ele>
        <time>2023-09-17T10:20:47.424Z</time>
      </trkpt>
      <trkpt lat="43.77475" lon="1.5259">
        <ele>190.86353</ele>
        <time>2023-09-17T10:20:49.424Z</time>
      </trkpt>
      <trkpt lat="43.77475" lon="1.5259">
        <ele>190.86353</ele>
        <time>2023-09-17T10:20:49.424Z</time>
      </trkpt>
      <trkpt lat="43.77468" lon="1.52598">
        <ele>191.886016</ele>
        <time>2023-09-17T10:20:51.424Z</time>
      </trkpt>
      <trkpt lat="43.77468" lon="1.52598">
        <ele>191.886016</ele>
        <time>2023-09-17T10:20:51.424Z</time>
      </trkpt>
      <trkpt lat="43.77467" lon="1.526">
        <ele>192.115799</ele>
        <time>2023-09-17T10:20:52.424Z</time>
      </trkpt>
      <trkpt lat="43.77467" lon="1.526">
        <ele>192.115799</ele>
        <time>2023-09-17T10:20:52.424Z</time>
      </trkpt>
      <trkpt lat="43.77461" lon="1.52607">
        <ele>192.935582</ele>
        <time>2023-09-17T10:20:54.424Z</time>
      </trkpt>
      <trkpt lat="43.77461" lon="1.52607">
        <ele>192.935582</ele>
        <time>2023-09-17T10:20:54.424Z</time>
      </trkpt>
      <trkpt lat="43.77457" lon="1.52611">
        <ele>193.397382</ele>
        <time>2023-09-17T10:20:55.424Z</time>
      </trkpt>
      <trkpt lat="43.77457" lon="1.52611">
        <ele>193.397382</ele>
        <time>2023-09-17T10:20:55.424Z</time>
      </trkpt>
      <trkpt lat="43.77455" lon="1.52613">
        <ele>193.707628</ele>
        <time>2023-09-17T10:20:56.424Z</time>
      </trkpt>
      <trkpt lat="43.77455" lon="1.52613">
        <ele>193.707628</ele>
        <time>2023-09-17T10:20:56.424Z</time>
      </trkpt>
      <trkpt lat="43.77452" lon="1.52617">
        <ele>194.161697</ele>
        <time>2023-09-17T10:20:57.424Z</time>
      </trkpt>
      <trkpt lat="43.77452" lon="1.52617">
        <ele>194.161697</ele>
        <time>2023-09-17T10:20:57.424Z</time>
      </trkpt>
      <trkpt lat="43.77446" lon="1.52625">
        <ele>195.098526</ele>
        <time>2023-09-17T10:20:59.424Z</time>
      </trkpt>
      <trkpt lat="43.77446" lon="1.52625">
        <ele>195.098526</ele>
        <time>2023-09-17T10:20:59.424Z</time>
      </trkpt>
      <trkpt lat="43.77443" lon="1.52628">
        <ele>195.48287</ele>
        <time>2023-09-17T10:21:00.424Z</time>
      </trkpt>
      <trkpt lat="43.77443" lon="1.52628">
        <ele>195.48287</ele>
        <time>2023-09-17T10:21:00.424Z</time>
      </trkpt>
      <trkpt lat="43.7744" lon="1.52632">
        <ele>195.817402</ele>
        <time>2023-09-17T10:21:02.424Z</time>
      </trkpt>
      <trkpt lat="43.7744" lon="1.52632">
        <ele>195.817402</ele>
        <time>2023-09-17T10:21:02.424Z</time>
      </trkpt>
      <trkpt lat="43.77437" lon="1.52636">
        <ele>196.237656</ele>
        <time>2023-09-17T10:21:03.424Z</time>
      </trkpt>
      <trkpt lat="43.77437" lon="1.52636">
        <ele>196.237656</ele>
        <time>2023-09-17T10:21:03.424Z</time>
      </trkpt>
      <trkpt lat="43.77433" lon="1.52641">
        <ele>196.723389</ele>
        <time>2023-09-17T10:21:04.424Z</time>
      </trkpt>
      <trkpt lat="43.77433" lon="1.52641">
        <ele>196.723389</ele>
        <time>2023-09-17T10:21:04.424Z</time>
      </trkpt>
      <trkpt lat="43.7743" lon="1.52645">
        <ele>197.145143</ele>
        <time>2023-09-17T10:21:05.424Z</time>
      </trkpt>
      <trkpt lat="43.7743" lon="1.52645">
        <ele>197.145143</ele>
        <time>2023-09-17T10:21:05.424Z</time>
      </trkpt>
      <trkpt lat="43.77427" lon="1.52648">
        <ele>197.436128</ele>
        <time>2023-09-17T10:21:06.424Z</time>
      </trkpt>
      <trkpt lat="43.77427" lon="1.52648">
        <ele>197.436128</ele>
        <time>2023-09-17T10:21:06.424Z</time>
      </trkpt>
      <trkpt lat="43.77424" lon="1.52652">
        <ele>197.849136</ele>
        <time>2023-09-17T10:21:07.424Z</time>
      </trkpt>
      <trkpt lat="43.77424" lon="1.52652">
        <ele>197.849136</ele>
        <time>2023-09-17T10:21:07.424Z</time>
      </trkpt>
      <trkpt lat="43.77418" lon="1.52659">
        <ele>198.591488</ele>
        <time>2023-09-17T10:21:09.424Z</time>
      </trkpt>
      <trkpt lat="43.77418" lon="1.52659">
        <ele>198.591488</ele>
        <time>2023-09-17T10:21:09.424Z</time>
      </trkpt>
      <trkpt lat="43.77416" lon="1.52662">
        <ele>198.901309</ele>
        <time>2023-09-17T10:21:10.424Z</time>
      </trkpt>
      <trkpt lat="43.77416" lon="1.52662">
        <ele>198.901309</ele>
        <time>2023-09-17T10:21:10.424Z</time>
      </trkpt>
      <trkpt lat="43.77409" lon="1.52669">
        <ele>199.716596</ele>
        <time>2023-09-17T10:21:12.424Z</time>
      </trkpt>
      <trkpt lat="43.77409" lon="1.52669">
        <ele>199.716596</ele>
        <time>2023-09-17T10:21:12.424Z</time>
      </trkpt>
      <trkpt lat="43.77406" lon="1.52671">
        <ele>199.978097</ele>
        <time>2023-09-17T10:21:13.424Z</time>
      </trkpt>
      <trkpt lat="43.77406" lon="1.52671">
        <ele>199.978097</ele>
        <time>2023-09-17T10:21:13.424Z</time>
      </trkpt>
      <trkpt lat="43.77403" lon="1.52674">
        <ele>200.324268</ele>
        <time>2023-09-17T10:21:15.424Z</time>
      </trkpt>
      <trkpt lat="43.77403" lon="1.52674">
        <ele>200.324268</ele>
        <time>2023-09-17T10:21:15.424Z</time>
      </trkpt>
      <trkpt lat="43.77398" lon="1.52679">
        <ele>200.9634</ele>
        <time>2023-09-17T10:21:16.424Z</time>
      </trkpt>
      <trkpt lat="43.77398" lon="1.52679">
        <ele>200.9634</ele>
        <time>2023-09-17T10:21:16.424Z</time>
      </trkpt>
      <trkpt lat="43.77395" lon="1.52682">
        <ele>201.298111</ele>
        <time>2023-09-17T10:21:18.424Z</time>
      </trkpt>
      <trkpt lat="43.77395" lon="1.52682">
        <ele>201.298111</ele>
        <time>2023-09-17T10:21:18.424Z</time>
      </trkpt>
      <trkpt lat="43.77389" lon="1.52686">
        <ele>201.877505</ele>
        <time>2023-09-17T10:21:19.424Z</time>
      </trkpt>
      <trkpt lat="43.77389" lon="1.52686">
        <ele>201.877505</ele>
        <time>2023-09-17T10:21:19.424Z</time>
      </trkpt>
      <trkpt lat="43.77386" lon="1.52688">
        <ele>202.188984</ele>
        <time>2023-09-17T10:21:20.424Z</time>
      </trkpt>
      <trkpt lat="43.77386" lon="1.52688">
        <ele>202.188984</ele>
        <time>2023-09-17T10:21:20.424Z</time>
      </trkpt>
      <trkpt lat="43.77383" lon="1.5269">
        <ele>202.469315</ele>
        <time>2023-09-17T10:21:21.424Z</time>
      </trkpt>
      <trkpt lat="43.77383" lon="1.5269">
        <ele>202.469315</ele>
        <time>2023-09-17T10:21:21.424Z</time>
      </trkpt>
      <trkpt lat="43.77378" lon="1.52694">
        <ele>203.021562</ele>
        <time>2023-09-17T10:21:23.424Z</time>
      </trkpt>
      <trkpt lat="43.77378" lon="1.52694">
        <ele>203.021562</ele>
        <time>2023-09-17T10:21:23.424Z</time>
      </trkpt>
      <trkpt lat="43.77372" lon="1.52698">
        <ele>203.652962</ele>
        <time>2023-09-17T10:21:25.424Z</time>
      </trkpt>
      <trkpt lat="43.77372" lon="1.52698">
        <ele>203.652962</ele>
        <time>2023-09-17T10:21:25.424Z</time>
      </trkpt>
      <trkpt lat="43.7737" lon="1.52699">
        <ele>203.854303</ele>
        <time>2023-09-17T10:21:26.424Z</time>
      </trkpt>
      <trkpt lat="43.7737" lon="1.52699">
        <ele>203.854303</ele>
        <time>2023-09-17T10:21:26.424Z</time>
      </trkpt>
      <trkpt lat="43.77367" lon="1.52701">
        <ele>204.177147</ele>
        <time>2023-09-17T10:21:27.424Z</time>
      </trkpt>
      <trkpt lat="43.77367" lon="1.52701">
        <ele>204.177147</ele>
        <time>2023-09-17T10:21:27.424Z</time>
      </trkpt>
      <trkpt lat="43.77361" lon="1.52706">
        <ele>204.869481</ele>
        <time>2023-09-17T10:21:29.424Z</time>
      </trkpt>
      <trkpt lat="43.77361" lon="1.52706">
        <ele>204.869481</ele>
        <time>2023-09-17T10:21:29.424Z</time>
      </trkpt>
      <trkpt lat="43.77358" lon="1.52708">
        <ele>205.17809</ele>
        <time>2023-09-17T10:21:30.424Z</time>
      </trkpt>
      <trkpt lat="43.77358" lon="1.52708">
        <ele>205.17809</ele>
        <time>2023-09-17T10:21:30.424Z</time>
      </trkpt>
      <trkpt lat="43.77354" lon="1.52711">
        <ele>205.577643</ele>
        <time>2023-09-17T10:21:31.424Z</time>
      </trkpt>
      <trkpt lat="43.77354" lon="1.52711">
        <ele>205.577643</ele>
        <time>2023-09-17T10:21:31.424Z</time>
      </trkpt>
      <trkpt lat="43.77347" lon="1.52716">
        <ele>206.273232</ele>
        <time>2023-09-17T10:21:33.424Z</time>
      </trkpt>
      <trkpt lat="43.77347" lon="1.52716">
        <ele>206.273232</ele>
        <time>2023-09-17T10:21:33.424Z</time>
      </trkpt>
      <trkpt lat="43.77345" lon="1.52717">
        <ele>206.52038</ele>
        <time>2023-09-17T10:21:34.424Z</time>
      </trkpt>
      <trkpt lat="43.77345" lon="1.52717">
        <ele>206.52038</ele>
        <time>2023-09-17T10:21:34.424Z</time>
      </trkpt>
      <trkpt lat="43.77342" lon="1.5272">
        <ele>206.897527</ele>
        <time>2023-09-17T10:21:36.424Z</time>
      </trkpt>
      <trkpt lat="43.77342" lon="1.5272">
        <ele>206.897527</ele>
        <time>2023-09-17T10:21:36.424Z</time>
      </trkpt>
      <trkpt lat="43.77338" lon="1.52723">
        <ele>207.279085</ele>
        <time>2023-09-17T10:21:37.424Z</time>
      </trkpt>
      <trkpt lat="43.77338" lon="1.52723">
        <ele>207.279085</ele>
        <time>2023-09-17T10:21:37.424Z</time>
      </trkpt>
      <trkpt lat="43.77334" lon="1.52727">
        <ele>207.698692</ele>
        <time>2023-09-17T10:21:38.424Z</time>
      </trkpt>
      <trkpt lat="43.77334" lon="1.52727">
        <ele>207.698692</ele>
        <time>2023-09-17T10:21:38.424Z</time>
      </trkpt>
      <trkpt lat="43.7733" lon="1.5273">
        <ele>208.168027</ele>
        <time>2023-09-17T10:21:39.424Z</time>
      </trkpt>
      <trkpt lat="43.7733" lon="1.5273">
        <ele>208.168027</ele>
        <time>2023-09-17T10:21:39.424Z</time>
      </trkpt>
      <trkpt lat="43.77323" lon="1.52736">
        <ele>208.915149</ele>
        <time>2023-09-17T10:21:41.424Z</time>
      </trkpt>
      <trkpt lat="43.77323" lon="1.52736">
        <ele>208.915149</ele>
        <time>2023-09-17T10:21:41.424Z</time>
      </trkpt>
      <trkpt lat="43.77321" lon="1.52739">
        <ele>209.218993</ele>
        <time>2023-09-17T10:21:42.424Z</time>
      </trkpt>
      <trkpt lat="43.77321" lon="1.52739">
        <ele>209.218993</ele>
        <time>2023-09-17T10:21:42.424Z</time>
      </trkpt>
      <trkpt lat="43.77317" lon="1.52742">
        <ele>209.649709</ele>
        <time>2023-09-17T10:21:43.424Z</time>
      </trkpt>
      <trkpt lat="43.77317" lon="1.52742">
        <ele>209.649709</ele>
        <time>2023-09-17T10:21:43.424Z</time>
      </trkpt>
      <trkpt lat="43.77313" lon="1.52746">
        <ele>210.076647</ele>
        <time>2023-09-17T10:21:45.424Z</time>
      </trkpt>
      <trkpt lat="43.77313" lon="1.52746">
        <ele>210.076647</ele>
        <time>2023-09-17T10:21:45.424Z</time>
      </trkpt>
      <trkpt lat="43.77308" lon="1.5275">
        <ele>210.588406</ele>
        <time>2023-09-17T10:21:46.424Z</time>
      </trkpt>
      <trkpt lat="43.77308" lon="1.5275">
        <ele>210.588406</ele>
        <time>2023-09-17T10:21:46.424Z</time>
      </trkpt>
      <trkpt lat="43.77304" lon="1.52754">
        <ele>211.054081</ele>
        <time>2023-09-17T10:21:47.424Z</time>
      </trkpt>
      <trkpt lat="43.77304" lon="1.52754">
        <ele>211.054081</ele>
        <time>2023-09-17T10:21:47.424Z</time>
      </trkpt>
      <trkpt lat="43.773" lon="1.52757">
        <ele>211.484797</ele>
        <time>2023-09-17T10:21:48.424Z</time>
      </trkpt>
      <trkpt lat="43.773" lon="1.52757">
        <ele>211.484797</ele>
        <time>2023-09-17T10:21:48.424Z</time>
      </trkpt>
      <trkpt lat="43.77296" lon="1.52761">
        <ele>211.996557</ele>
        <time>2023-09-17T10:21:49.424Z</time>
      </trkpt>
      <trkpt lat="43.77296" lon="1.52761">
        <ele>211.996557</ele>
        <time>2023-09-17T10:21:49.424Z</time>
      </trkpt>
      <trkpt lat="43.77292" lon="1.52765">
        <ele>212.392988</ele>
        <time>2023-09-17T10:21:50.424Z</time>
      </trkpt>
      <trkpt lat="43.77292" lon="1.52765">
        <ele>212.392988</ele>
        <time>2023-09-17T10:21:50.424Z</time>
      </trkpt>
      <trkpt lat="43.77285" lon="1.52773">
        <ele>212.972867</ele>
        <time>2023-09-17T10:21:52.424Z</time>
      </trkpt>
      <trkpt lat="43.77285" lon="1.52773">
        <ele>212.972867</ele>
        <time>2023-09-17T10:21:52.424Z</time>
      </trkpt>
      <trkpt lat="43.77282" lon="1.52775">
        <ele>213.164887</ele>
        <time>2023-09-17T10:21:53.424Z</time>
      </trkpt>
      <trkpt lat="43.77282" lon="1.52775">
        <ele>213.164887</ele>
        <time>2023-09-17T10:21:53.424Z</time>
      </trkpt>
      <trkpt lat="43.77278" lon="1.52779">
        <ele>213.474498</ele>
        <time>2023-09-17T10:21:54.424Z</time>
      </trkpt>
      <trkpt lat="43.77278" lon="1.52779">
        <ele>213.474498</ele>
        <time>2023-09-17T10:21:54.424Z</time>
      </trkpt>
      <trkpt lat="43.77274" lon="1.52784">
        <ele>213.824852</ele>
        <time>2023-09-17T10:21:56.424Z</time>
      </trkpt>
      <trkpt lat="43.77274" lon="1.52784">
        <ele>213.824852</ele>
        <time>2023-09-17T10:21:56.424Z</time>
      </trkpt>
      <trkpt lat="43.77271" lon="1.52787">
        <ele>214.089728</ele>
        <time>2023-09-17T10:21:56.424Z</time>
      </trkpt>
      <trkpt lat="43.77271" lon="1.52787">
        <ele>214.089728</ele>
        <time>2023-09-17T10:21:56.424Z</time>
      </trkpt>
      <trkpt lat="43.77266" lon="1.52792">
        <ele>214.486378</ele>
        <time>2023-09-17T10:21:58.424Z</time>
      </trkpt>
      <trkpt lat="43.77266" lon="1.52792">
        <ele>214.486378</ele>
        <time>2023-09-17T10:21:58.424Z</time>
      </trkpt>
      <trkpt lat="43.77261" lon="1.52797">
        <ele>214.836732</ele>
        <time>2023-09-17T10:21:59.424Z</time>
      </trkpt>
      <trkpt lat="43.77261" lon="1.52797">
        <ele>214.836732</ele>
        <time>2023-09-17T10:21:59.424Z</time>
      </trkpt>
      <trkpt lat="43.77258" lon="1.52802">
        <ele>215.160581</ele>
        <time>2023-09-17T10:21:59.424Z</time>
      </trkpt>
      <trkpt lat="43.77258" lon="1.52802">
        <ele>215.160581</ele>
        <time>2023-09-17T10:21:59.424Z</time>
      </trkpt>
      <trkpt lat="43.77254" lon="1.52807">
        <ele>215.488705</ele>
        <time>2023-09-17T10:22:01.424Z</time>
      </trkpt>
      <trkpt lat="43.77254" lon="1.52807">
        <ele>215.488705</ele>
        <time>2023-09-17T10:22:01.424Z</time>
      </trkpt>
      <trkpt lat="43.77251" lon="1.5281">
        <ele>215.716839</ele>
        <time>2023-09-17T10:22:02.424Z</time>
      </trkpt>
      <trkpt lat="43.77251" lon="1.5281">
        <ele>215.716839</ele>
        <time>2023-09-17T10:22:02.424Z</time>
      </trkpt>
      <trkpt lat="43.77248" lon="1.52814">
        <ele>215.969079</ele>
        <time>2023-09-17T10:22:03.424Z</time>
      </trkpt>
      <trkpt lat="43.77248" lon="1.52814">
        <ele>215.969079</ele>
        <time>2023-09-17T10:22:03.424Z</time>
      </trkpt>
      <trkpt lat="43.7724" lon="1.52824">
        <ele>216.672764</ele>
        <time>2023-09-17T10:22:05.424Z</time>
      </trkpt>
      <trkpt lat="43.7724" lon="1.52824">
        <ele>216.672764</ele>
        <time>2023-09-17T10:22:05.424Z</time>
      </trkpt>
      <trkpt lat="43.77238" lon="1.52827">
        <ele>216.86512</ele>
        <time>2023-09-17T10:22:06.424Z</time>
      </trkpt>
      <trkpt lat="43.77238" lon="1.52827">
        <ele>216.86512</ele>
        <time>2023-09-17T10:22:06.424Z</time>
      </trkpt>
      <trkpt lat="43.77234" lon="1.5283">
        <ele>217.138163</ele>
        <time>2023-09-17T10:22:07.424Z</time>
      </trkpt>
      <trkpt lat="43.77234" lon="1.5283">
        <ele>217.138163</ele>
        <time>2023-09-17T10:22:07.424Z</time>
      </trkpt>
      <trkpt lat="43.77226" lon="1.5284">
        <ele>217.822615</ele>
        <time>2023-09-17T10:22:09.424Z</time>
      </trkpt>
      <trkpt lat="43.77226" lon="1.5284">
        <ele>217.822615</ele>
        <time>2023-09-17T10:22:09.424Z</time>
      </trkpt>
      <trkpt lat="43.77223" lon="1.52843">
        <ele>218.06928</ele>
        <time>2023-09-17T10:22:10.424Z</time>
      </trkpt>
      <trkpt lat="43.77223" lon="1.52843">
        <ele>218.06928</ele>
        <time>2023-09-17T10:22:10.424Z</time>
      </trkpt>
      <trkpt lat="43.77219" lon="1.52848">
        <ele>218.379451</ele>
        <time>2023-09-17T10:22:11.424Z</time>
      </trkpt>
      <trkpt lat="43.77219" lon="1.52848">
        <ele>218.379451</ele>
        <time>2023-09-17T10:22:11.424Z</time>
      </trkpt>
      <trkpt lat="43.77212" lon="1.52857">
        <ele>219.006052</ele>
        <time>2023-09-17T10:22:13.424Z</time>
      </trkpt>
      <trkpt lat="43.77212" lon="1.52857">
        <ele>219.006052</ele>
        <time>2023-09-17T10:22:13.424Z</time>
      </trkpt>
      <trkpt lat="43.7721" lon="1.5286">
        <ele>219.203025</ele>
        <time>2023-09-17T10:22:14.424Z</time>
      </trkpt>
      <trkpt lat="43.7721" lon="1.5286">
        <ele>219.203025</ele>
        <time>2023-09-17T10:22:14.424Z</time>
      </trkpt>
      <trkpt lat="43.77203" lon="1.52869">
        <ele>219.838955</ele>
        <time>2023-09-17T10:22:16.424Z</time>
      </trkpt>
      <trkpt lat="43.77203" lon="1.52869">
        <ele>219.838955</ele>
        <time>2023-09-17T10:22:16.424Z</time>
      </trkpt>
      <trkpt lat="43.772" lon="1.52872">
        <ele>220.062706</ele>
        <time>2023-09-17T10:22:17.424Z</time>
      </trkpt>
      <trkpt lat="43.772" lon="1.52872">
        <ele>220.062706</ele>
        <time>2023-09-17T10:22:17.424Z</time>
      </trkpt>
      <trkpt lat="43.77197" lon="1.52876">
        <ele>220.30723</ele>
        <time>2023-09-17T10:22:18.424Z</time>
      </trkpt>
      <trkpt lat="43.77197" lon="1.52876">
        <ele>220.30723</ele>
        <time>2023-09-17T10:22:18.424Z</time>
      </trkpt>
      <trkpt lat="43.77194" lon="1.5288">
        <ele>220.577541</ele>
        <time>2023-09-17T10:22:19.424Z</time>
      </trkpt>
      <trkpt lat="43.77194" lon="1.5288">
        <ele>220.577541</ele>
        <time>2023-09-17T10:22:19.424Z</time>
      </trkpt>
      <trkpt lat="43.77191" lon="1.52885">
        <ele>220.88729</ele>
        <time>2023-09-17T10:22:20.424Z</time>
      </trkpt>
      <trkpt lat="43.77187" lon="1.5289">
        <ele>221.234644</ele>
        <time>2023-09-17T10:22:21.424Z</time>
      </trkpt>
      <trkpt lat="43.77187" lon="1.5289">
        <ele>221.234644</ele>
        <time>2023-09-17T10:22:21.424Z</time>
      </trkpt>
      <trkpt lat="43.77182" lon="1.52897">
        <ele>221.669012</ele>
        <time>2023-09-17T10:22:22.424Z</time>
      </trkpt>
      <trkpt lat="43.77179" lon="1.52902">
        <ele>221.995603</ele>
        <time>2023-09-17T10:22:23.424Z</time>
      </trkpt>
      <trkpt lat="43.77179" lon="1.52902">
        <ele>221.995603</ele>
        <time>2023-09-17T10:22:23.424Z</time>
      </trkpt>
      <trkpt lat="43.77175" lon="1.52907">
        <ele>222.319727</ele>
        <time>2023-09-17T10:22:24.424Z</time>
      </trkpt>
      <trkpt lat="43.77171" lon="1.52913">
        <ele>222.670395</ele>
        <time>2023-09-17T10:22:25.424Z</time>
      </trkpt>
      <trkpt lat="43.77168" lon="1.52918">
        <ele>222.990157</ele>
        <time>2023-09-17T10:22:26.424Z</time>
      </trkpt>
      <trkpt lat="43.77168" lon="1.52918">
        <ele>222.990157</ele>
        <time>2023-09-17T10:22:26.424Z</time>
      </trkpt>
      <trkpt lat="43.77165" lon="1.52923">
        <ele>223.304364</ele>
        <time>2023-09-17T10:22:27.424Z</time>
      </trkpt>
      <trkpt lat="43.77165" lon="1.52923">
        <ele>223.304364</ele>
        <time>2023-09-17T10:22:27.424Z</time>
      </trkpt>
      <trkpt lat="43.77162" lon="1.52928">
        <ele>223.614595</ele>
        <time>2023-09-17T10:22:28.424Z</time>
      </trkpt>
      <trkpt lat="43.77162" lon="1.52928">
        <ele>223.614595</ele>
        <time>2023-09-17T10:22:28.424Z</time>
      </trkpt>
      <trkpt lat="43.77158" lon="1.52934">
        <ele>223.867897</ele>
        <time>2023-09-17T10:22:29.424Z</time>
      </trkpt>
      <trkpt lat="43.77158" lon="1.52934">
        <ele>223.867897</ele>
        <time>2023-09-17T10:22:29.424Z</time>
      </trkpt>
      <trkpt lat="43.77155" lon="1.5294">
        <ele>224.045933</ele>
        <time>2023-09-17T10:22:30.424Z</time>
      </trkpt>
      <trkpt lat="43.77155" lon="1.5294">
        <ele>224.045933</ele>
        <time>2023-09-17T10:22:30.424Z</time>
      </trkpt>
      <trkpt lat="43.77152" lon="1.52945">
        <ele>224.2131</ele>
        <time>2023-09-17T10:22:31.424Z</time>
      </trkpt>
      <trkpt lat="43.77152" lon="1.52945">
        <ele>224.2131</ele>
        <time>2023-09-17T10:22:31.424Z</time>
      </trkpt>
      <trkpt lat="43.77148" lon="1.52951">
        <ele>224.400445</ele>
        <time>2023-09-17T10:22:32.424Z</time>
      </trkpt>
      <trkpt lat="43.77148" lon="1.52951">
        <ele>224.400445</ele>
        <time>2023-09-17T10:22:32.424Z</time>
      </trkpt>
      <trkpt lat="43.77145" lon="1.52956">
        <ele>224.565675</ele>
        <time>2023-09-17T10:22:33.424Z</time>
      </trkpt>
      <trkpt lat="43.77145" lon="1.52956">
        <ele>224.565675</ele>
        <time>2023-09-17T10:22:33.424Z</time>
      </trkpt>
      <trkpt lat="43.77143" lon="1.52962">
        <ele>224.737057</ele>
        <time>2023-09-17T10:22:34.424Z</time>
      </trkpt>
      <trkpt lat="43.77143" lon="1.52962">
        <ele>224.737057</ele>
        <time>2023-09-17T10:22:34.424Z</time>
      </trkpt>
      <trkpt lat="43.7714" lon="1.52968">
        <ele>224.914105</ele>
        <time>2023-09-17T10:22:35.424Z</time>
      </trkpt>
      <trkpt lat="43.7714" lon="1.52968">
        <ele>224.914105</ele>
        <time>2023-09-17T10:22:35.424Z</time>
      </trkpt>
      <trkpt lat="43.77137" lon="1.52974">
        <ele>225.105232</ele>
        <time>2023-09-17T10:22:36.424Z</time>
      </trkpt>
      <trkpt lat="43.77137" lon="1.52974">
        <ele>225.105232</ele>
        <time>2023-09-17T10:22:36.424Z</time>
      </trkpt>
      <trkpt lat="43.77134" lon="1.52981">
        <ele>225.278439</ele>
        <time>2023-09-17T10:22:37.424Z</time>
      </trkpt>
      <trkpt lat="43.77134" lon="1.52981">
        <ele>225.278439</ele>
        <time>2023-09-17T10:22:37.424Z</time>
      </trkpt>
      <trkpt lat="43.77132" lon="1.52987">
        <ele>225.451646</ele>
        <time>2023-09-17T10:22:38.424Z</time>
      </trkpt>
      <trkpt lat="43.77132" lon="1.52987">
        <ele>225.451646</ele>
        <time>2023-09-17T10:22:38.424Z</time>
      </trkpt>
      <trkpt lat="43.7713" lon="1.52994">
        <ele>225.642576</ele>
        <time>2023-09-17T10:22:39.424Z</time>
      </trkpt>
      <trkpt lat="43.7713" lon="1.52994">
        <ele>225.642576</ele>
        <time>2023-09-17T10:22:39.424Z</time>
      </trkpt>
      <trkpt lat="43.77128" lon="1.53001">
        <ele>225.820933</ele>
        <time>2023-09-17T10:22:40.424Z</time>
      </trkpt>
      <trkpt lat="43.77128" lon="1.53001">
        <ele>225.820933</ele>
        <time>2023-09-17T10:22:40.424Z</time>
      </trkpt>
      <trkpt lat="43.77125" lon="1.53008">
        <ele>226.011863</ele>
        <time>2023-09-17T10:22:41.424Z</time>
      </trkpt>
      <trkpt lat="43.77125" lon="1.53008">
        <ele>226.011863</ele>
        <time>2023-09-17T10:22:41.424Z</time>
      </trkpt>
      <trkpt lat="43.77123" lon="1.53015">
        <ele>226.197644</ele>
        <time>2023-09-17T10:22:42.424Z</time>
      </trkpt>
      <trkpt lat="43.77123" lon="1.53015">
        <ele>226.197644</ele>
        <time>2023-09-17T10:22:42.424Z</time>
      </trkpt>
      <trkpt lat="43.77122" lon="1.53022">
        <ele>226.373121</ele>
        <time>2023-09-17T10:22:43.424Z</time>
      </trkpt>
      <trkpt lat="43.7712" lon="1.53029">
        <ele>226.570452</ele>
        <time>2023-09-17T10:22:44.424Z</time>
      </trkpt>
      <trkpt lat="43.7712" lon="1.53029">
        <ele>226.570452</ele>
        <time>2023-09-17T10:22:44.424Z</time>
      </trkpt>
      <trkpt lat="43.77118" lon="1.53037">
        <ele>226.765466</ele>
        <time>2023-09-17T10:22:45.424Z</time>
      </trkpt>
      <trkpt lat="43.77118" lon="1.53037">
        <ele>226.765466</ele>
        <time>2023-09-17T10:22:45.424Z</time>
      </trkpt>
      <trkpt lat="43.77116" lon="1.53044">
        <ele>226.956412</ele>
        <time>2023-09-17T10:22:46.424Z</time>
      </trkpt>
      <trkpt lat="43.77116" lon="1.53044">
        <ele>226.956412</ele>
        <time>2023-09-17T10:22:46.424Z</time>
      </trkpt>
      <trkpt lat="43.77115" lon="1.53052">
        <ele>227.152092</ele>
        <time>2023-09-17T10:22:47.424Z</time>
      </trkpt>
      <trkpt lat="43.77115" lon="1.53052">
        <ele>227.152092</ele>
        <time>2023-09-17T10:22:47.424Z</time>
      </trkpt>
      <trkpt lat="43.77113" lon="1.5306">
        <ele>227.349423</ele>
        <time>2023-09-17T10:22:48.424Z</time>
      </trkpt>
      <trkpt lat="43.77113" lon="1.5306">
        <ele>227.349423</ele>
        <time>2023-09-17T10:22:48.424Z</time>
      </trkpt>
      <trkpt lat="43.77111" lon="1.53067">
        <ele>227.543658</ele>
        <time>2023-09-17T10:22:49.424Z</time>
      </trkpt>
      <trkpt lat="43.77111" lon="1.53067">
        <ele>227.543658</ele>
        <time>2023-09-17T10:22:49.424Z</time>
      </trkpt>
      <trkpt lat="43.7711" lon="1.53075">
        <ele>227.746454</ele>
        <time>2023-09-17T10:22:50.424Z</time>
      </trkpt>
      <trkpt lat="43.77108" lon="1.53083">
        <ele>227.955417</ele>
        <time>2023-09-17T10:22:51.424Z</time>
      </trkpt>
      <trkpt lat="43.77108" lon="1.53083">
        <ele>227.955417</ele>
        <time>2023-09-17T10:22:51.424Z</time>
      </trkpt>
      <trkpt lat="43.77107" lon="1.53091">
        <ele>228.153466</ele>
        <time>2023-09-17T10:22:52.424Z</time>
      </trkpt>
      <trkpt lat="43.77107" lon="1.53091">
        <ele>228.153466</ele>
        <time>2023-09-17T10:22:52.424Z</time>
      </trkpt>
      <trkpt lat="43.77105" lon="1.53099">
        <ele>228.357142</ele>
        <time>2023-09-17T10:22:53.424Z</time>
      </trkpt>
      <trkpt lat="43.77103" lon="1.53108">
        <ele>228.571834</ele>
        <time>2023-09-17T10:22:54.424Z</time>
      </trkpt>
      <trkpt lat="43.77102" lon="1.53115">
        <ele>228.769884</ele>
        <time>2023-09-17T10:22:55.424Z</time>
      </trkpt>
      <trkpt lat="43.77102" lon="1.53115">
        <ele>228.769884</ele>
        <time>2023-09-17T10:22:55.424Z</time>
      </trkpt>
      <trkpt lat="43.771" lon="1.53123">
        <ele>228.965564</ele>
        <time>2023-09-17T10:22:56.424Z</time>
      </trkpt>
      <trkpt lat="43.77099" lon="1.53131">
        <ele>229.173974</ele>
        <time>2023-09-17T10:22:57.424Z</time>
      </trkpt>
      <trkpt lat="43.77098" lon="1.5314">
        <ele>229.37861</ele>
        <time>2023-09-17T10:22:58.424Z</time>
      </trkpt>
      <trkpt lat="43.77098" lon="1.5314">
        <ele>229.37861</ele>
        <time>2023-09-17T10:22:58.424Z</time>
      </trkpt>
      <trkpt lat="43.77096" lon="1.53148">
        <ele>229.588539</ele>
        <time>2023-09-17T10:22:59.424Z</time>
      </trkpt>
      <trkpt lat="43.77095" lon="1.53156">
        <ele>229.791335</ele>
        <time>2023-09-17T10:23:00.424Z</time>
      </trkpt>
      <trkpt lat="43.77095" lon="1.53156">
        <ele>229.791335</ele>
        <time>2023-09-17T10:23:00.424Z</time>
      </trkpt>
      <trkpt lat="43.77093" lon="1.53164">
        <ele>229.985512</ele>
        <time>2023-09-17T10:23:01.424Z</time>
      </trkpt>
      <trkpt lat="43.77092" lon="1.5317">
        <ele>230.143063</ele>
        <time>2023-09-17T10:23:02.424Z</time>
      </trkpt>
      <trkpt lat="43.77089" lon="1.5318">
        <ele>230.374401</ele>
        <time>2023-09-17T10:23:03.424Z</time>
      </trkpt>
      <trkpt lat="43.77089" lon="1.5318">
        <ele>230.374401</ele>
        <time>2023-09-17T10:23:03.424Z</time>
      </trkpt>
      <trkpt lat="43.77087" lon="1.53187">
        <ele>230.553559</ele>
        <time>2023-09-17T10:23:04.424Z</time>
      </trkpt>
      <trkpt lat="43.77086" lon="1.53194">
        <ele>230.73489</ele>
        <time>2023-09-17T10:23:05.424Z</time>
      </trkpt>
      <trkpt lat="43.77086" lon="1.53194">
        <ele>230.73489</ele>
        <time>2023-09-17T10:23:05.424Z</time>
      </trkpt>
      <trkpt lat="43.77084" lon="1.53202">
        <ele>230.918399</ele>
        <time>2023-09-17T10:23:06.424Z</time>
      </trkpt>
      <trkpt lat="43.77084" lon="1.53202">
        <ele>230.918399</ele>
        <time>2023-09-17T10:23:06.424Z</time>
      </trkpt>
      <trkpt lat="43.77082" lon="1.53209">
        <ele>231.082445</ele>
        <time>2023-09-17T10:23:07.424Z</time>
      </trkpt>
      <trkpt lat="43.77079" lon="1.53215">
        <ele>231.253726</ele>
        <time>2023-09-17T10:23:08.424Z</time>
      </trkpt>
      <trkpt lat="43.77079" lon="1.53215">
        <ele>231.253726</ele>
        <time>2023-09-17T10:23:08.424Z</time>
      </trkpt>
      <trkpt lat="43.77078" lon="1.53221">
        <ele>231.40499</ele>
        <time>2023-09-17T10:23:09.424Z</time>
      </trkpt>
      <trkpt lat="43.77075" lon="1.53228">
        <ele>231.576125</ele>
        <time>2023-09-17T10:23:10.424Z</time>
      </trkpt>
      <trkpt lat="43.77075" lon="1.53228">
        <ele>231.576125</ele>
        <time>2023-09-17T10:23:10.424Z</time>
      </trkpt>
      <trkpt lat="43.77073" lon="1.53234">
        <ele>231.747406</ele>
        <time>2023-09-17T10:23:11.424Z</time>
      </trkpt>
      <trkpt lat="43.77073" lon="1.53234">
        <ele>231.747406</ele>
        <time>2023-09-17T10:23:11.424Z</time>
      </trkpt>
      <trkpt lat="43.7707" lon="1.53241">
        <ele>231.910395</ele>
        <time>2023-09-17T10:23:12.424Z</time>
      </trkpt>
      <trkpt lat="43.7707" lon="1.53241">
        <ele>231.910395</ele>
        <time>2023-09-17T10:23:12.424Z</time>
      </trkpt>
      <trkpt lat="43.77068" lon="1.53247">
        <ele>232.071327</ele>
        <time>2023-09-17T10:23:13.424Z</time>
      </trkpt>
      <trkpt lat="43.77068" lon="1.53247">
        <ele>232.071327</ele>
        <time>2023-09-17T10:23:13.424Z</time>
      </trkpt>
      <trkpt lat="43.77066" lon="1.53254">
        <ele>232.245475</ele>
        <time>2023-09-17T10:23:14.424Z</time>
      </trkpt>
      <trkpt lat="43.77063" lon="1.5326">
        <ele>232.408464</ele>
        <time>2023-09-17T10:23:15.424Z</time>
      </trkpt>
      <trkpt lat="43.77063" lon="1.5326">
        <ele>232.408464</ele>
        <time>2023-09-17T10:23:15.424Z</time>
      </trkpt>
      <trkpt lat="43.77061" lon="1.53266">
        <ele>232.569396</ele>
        <time>2023-09-17T10:23:16.424Z</time>
      </trkpt>
      <trkpt lat="43.77061" lon="1.53266">
        <ele>232.569396</ele>
        <time>2023-09-17T10:23:16.424Z</time>
      </trkpt>
      <trkpt lat="43.77058" lon="1.53273">
        <ele>232.750592</ele>
        <time>2023-09-17T10:23:17.424Z</time>
      </trkpt>
      <trkpt lat="43.77056" lon="1.53279">
        <ele>232.907431</ele>
        <time>2023-09-17T10:23:18.424Z</time>
      </trkpt>
      <trkpt lat="43.77056" lon="1.53279">
        <ele>232.907431</ele>
        <time>2023-09-17T10:23:18.424Z</time>
      </trkpt>
      <trkpt lat="43.77055" lon="1.53287">
        <ele>233.089339</ele>
        <time>2023-09-17T10:23:19.424Z</time>
      </trkpt>
      <trkpt lat="43.77055" lon="1.53287">
        <ele>233.089339</ele>
        <time>2023-09-17T10:23:19.424Z</time>
      </trkpt>
      <trkpt lat="43.77055" lon="1.53294">
        <ele>233.267119</ele>
        <time>2023-09-17T10:23:20.424Z</time>
      </trkpt>
      <trkpt lat="43.77055" lon="1.53294">
        <ele>233.267119</ele>
        <time>2023-09-17T10:23:20.424Z</time>
      </trkpt>
      <trkpt lat="43.77055" lon="1.53302">
        <ele>233.4449</ele>
        <time>2023-09-17T10:23:21.424Z</time>
      </trkpt>
      <trkpt lat="43.77055" lon="1.5331">
        <ele>233.615754</ele>
        <time>2023-09-17T10:23:22.424Z</time>
      </trkpt>
      <trkpt lat="43.77055" lon="1.5331">
        <ele>233.615754</ele>
        <time>2023-09-17T10:23:22.424Z</time>
      </trkpt>
      <trkpt lat="43.77054" lon="1.53317">
        <ele>233.790795</ele>
        <time>2023-09-17T10:23:23.424Z</time>
      </trkpt>
      <trkpt lat="43.77054" lon="1.53317">
        <ele>233.790795</ele>
        <time>2023-09-17T10:23:23.424Z</time>
      </trkpt>
      <trkpt lat="43.77053" lon="1.53324">
        <ele>233.965232</ele>
        <time>2023-09-17T10:23:24.424Z</time>
      </trkpt>
      <trkpt lat="43.77053" lon="1.53324">
        <ele>233.965232</ele>
        <time>2023-09-17T10:23:24.424Z</time>
      </trkpt>
      <trkpt lat="43.77052" lon="1.53331">
        <ele>234.120133</ele>
        <time>2023-09-17T10:23:25.424Z</time>
      </trkpt>
      <trkpt lat="43.77052" lon="1.53331">
        <ele>234.120133</ele>
        <time>2023-09-17T10:23:25.424Z</time>
      </trkpt>
      <trkpt lat="43.7705" lon="1.53338">
        <ele>234.285534</ele>
        <time>2023-09-17T10:23:26.424Z</time>
      </trkpt>
      <trkpt lat="43.7705" lon="1.53338">
        <ele>234.285534</ele>
        <time>2023-09-17T10:23:26.424Z</time>
      </trkpt>
      <trkpt lat="43.77049" lon="1.53345">
        <ele>234.447491</ele>
        <time>2023-09-17T10:23:27.424Z</time>
      </trkpt>
      <trkpt lat="43.77049" lon="1.53345">
        <ele>234.447491</ele>
        <time>2023-09-17T10:23:27.424Z</time>
      </trkpt>
      <trkpt lat="43.77047" lon="1.53351">
        <ele>234.610422</ele>
        <time>2023-09-17T10:23:28.424Z</time>
      </trkpt>
      <trkpt lat="43.77047" lon="1.53351">
        <ele>234.610422</ele>
        <time>2023-09-17T10:23:28.424Z</time>
      </trkpt>
      <trkpt lat="43.77046" lon="1.53358">
        <ele>234.763582</ele>
        <time>2023-09-17T10:23:29.424Z</time>
      </trkpt>
      <trkpt lat="43.77046" lon="1.53358">
        <ele>234.763582</ele>
        <time>2023-09-17T10:23:29.424Z</time>
      </trkpt>
      <trkpt lat="43.77044" lon="1.53364">
        <ele>234.912363</ele>
        <time>2023-09-17T10:23:30.424Z</time>
      </trkpt>
      <trkpt lat="43.77044" lon="1.53364">
        <ele>234.912363</ele>
        <time>2023-09-17T10:23:30.424Z</time>
      </trkpt>
      <trkpt lat="43.77043" lon="1.5337">
        <ele>235.063332</ele>
        <time>2023-09-17T10:23:31.424Z</time>
      </trkpt>
      <trkpt lat="43.77043" lon="1.5337">
        <ele>235.063332</ele>
        <time>2023-09-17T10:23:31.424Z</time>
      </trkpt>
      <trkpt lat="43.77042" lon="1.53376">
        <ele>235.199666</ele>
        <time>2023-09-17T10:23:32.424Z</time>
      </trkpt>
      <trkpt lat="43.77042" lon="1.53376">
        <ele>235.199666</ele>
        <time>2023-09-17T10:23:32.424Z</time>
      </trkpt>
      <trkpt lat="43.77042" lon="1.53381">
        <ele>235.327294</ele>
        <time>2023-09-17T10:23:33.424Z</time>
      </trkpt>
      <trkpt lat="43.77042" lon="1.53381">
        <ele>235.327294</ele>
        <time>2023-09-17T10:23:33.424Z</time>
      </trkpt>
      <trkpt lat="43.77043" lon="1.53386">
        <ele>235.448945</ele>
        <time>2023-09-17T10:23:34.424Z</time>
      </trkpt>
      <trkpt lat="43.77043" lon="1.53386">
        <ele>235.448945</ele>
        <time>2023-09-17T10:23:34.424Z</time>
      </trkpt>
      <trkpt lat="43.77045" lon="1.5339">
        <ele>235.565203</ele>
        <time>2023-09-17T10:23:35.424Z</time>
      </trkpt>
      <trkpt lat="43.77045" lon="1.5339">
        <ele>235.565203</ele>
        <time>2023-09-17T10:23:35.424Z</time>
      </trkpt>
      <trkpt lat="43.77049" lon="1.53393">
        <ele>235.599482</ele>
        <time>2023-09-17T10:23:36.424Z</time>
      </trkpt>
      <trkpt lat="43.77049" lon="1.53393">
        <ele>235.599482</ele>
        <time>2023-09-17T10:23:36.424Z</time>
      </trkpt>
      <trkpt lat="43.77052" lon="1.53397">
        <ele>235.562134</ele>
        <time>2023-09-17T10:23:37.424Z</time>
      </trkpt>
      <trkpt lat="43.77052" lon="1.53397">
        <ele>235.562134</ele>
        <time>2023-09-17T10:23:37.424Z</time>
      </trkpt>
      <trkpt lat="43.77051" lon="1.53395">
        <ele>235.549386</ele>
        <time>2023-09-17T10:23:38.424Z</time>
      </trkpt>
      <trkpt lat="43.77051" lon="1.53395">
        <ele>235.549386</ele>
        <time>2023-09-17T10:23:38.424Z</time>
      </trkpt>
      <trkpt lat="43.77052" lon="1.53398">
        <ele>235.529094</ele>
        <time>2023-09-17T10:23:39.424Z</time>
      </trkpt>
      <trkpt lat="43.77052" lon="1.53398">
        <ele>235.529094</ele>
        <time>2023-09-17T10:23:39.424Z</time>
      </trkpt>
      <trkpt lat="43.77056" lon="1.53401">
        <ele>235.492274</ele>
        <time>2023-09-17T10:23:40.424Z</time>
      </trkpt>
      <trkpt lat="43.77056" lon="1.53401">
        <ele>235.492274</ele>
        <time>2023-09-17T10:23:40.424Z</time>
      </trkpt>
      <trkpt lat="43.7706" lon="1.53404">
        <ele>235.453393</ele>
        <time>2023-09-17T10:23:42.424Z</time>
      </trkpt>
      <trkpt lat="43.7706" lon="1.53404">
        <ele>235.453393</ele>
        <time>2023-09-17T10:23:42.424Z</time>
      </trkpt>
      <trkpt lat="43.77068" lon="1.5341">
        <ele>235.373224</ele>
        <time>2023-09-17T10:23:43.424Z</time>
      </trkpt>
      <trkpt lat="43.77068" lon="1.5341">
        <ele>235.373224</ele>
        <time>2023-09-17T10:23:43.424Z</time>
      </trkpt>
      <trkpt lat="43.77072" lon="1.53415">
        <ele>235.325737</ele>
        <time>2023-09-17T10:23:44.424Z</time>
      </trkpt>
      <trkpt lat="43.7708" lon="1.53423">
        <ele>235.238529</ele>
        <time>2023-09-17T10:23:46.424Z</time>
      </trkpt>
      <trkpt lat="43.7708" lon="1.53423">
        <ele>235.238529</ele>
        <time>2023-09-17T10:23:46.424Z</time>
      </trkpt>
      <trkpt lat="43.77086" lon="1.53427">
        <ele>235.181904</ele>
        <time>2023-09-17T10:23:47.424Z</time>
      </trkpt>
      <trkpt lat="43.77086" lon="1.53427">
        <ele>235.181904</ele>
        <time>2023-09-17T10:23:47.424Z</time>
      </trkpt>
      <trkpt lat="43.77091" lon="1.5343">
        <ele>235.134115</ele>
        <time>2023-09-17T10:23:48.424Z</time>
      </trkpt>
      <trkpt lat="43.77097" lon="1.53431">
        <ele>235.079706</ele>
        <time>2023-09-17T10:23:49.424Z</time>
      </trkpt>
      <trkpt lat="43.77097" lon="1.53431">
        <ele>235.079706</ele>
        <time>2023-09-17T10:23:49.424Z</time>
      </trkpt>
      <trkpt lat="43.77104" lon="1.53433">
        <ele>235.015316</ele>
        <time>2023-09-17T10:23:50.424Z</time>
      </trkpt>
      <trkpt lat="43.7711" lon="1.53434">
        <ele>234.957587</ele>
        <time>2023-09-17T10:23:51.424Z</time>
      </trkpt>
      <trkpt lat="43.77116" lon="1.53435">
        <ele>234.907012</ele>
        <time>2023-09-17T10:23:52.424Z</time>
      </trkpt>
      <trkpt lat="43.77116" lon="1.53435">
        <ele>234.907012</ele>
        <time>2023-09-17T10:23:52.424Z</time>
      </trkpt>
      <trkpt lat="43.77121" lon="1.53436">
        <ele>234.859938</ele>
        <time>2023-09-17T10:23:53.424Z</time>
      </trkpt>
      <trkpt lat="43.77121" lon="1.53436">
        <ele>234.859938</ele>
        <time>2023-09-17T10:23:53.424Z</time>
      </trkpt>
      <trkpt lat="43.77126" lon="1.53437">
        <ele>234.815634</ele>
        <time>2023-09-17T10:23:54.424Z</time>
      </trkpt>
      <trkpt lat="43.77131" lon="1.53437">
        <ele>234.775062</ele>
        <time>2023-09-17T10:23:55.424Z</time>
      </trkpt>
      <trkpt lat="43.77134" lon="1.53438">
        <ele>234.747703</ele>
        <time>2023-09-17T10:23:56.424Z</time>
      </trkpt>
      <trkpt lat="43.77137" lon="1.53438">
        <ele>234.720255</ele>
        <time>2023-09-17T10:23:57.424Z</time>
      </trkpt>
      <trkpt lat="43.7714" lon="1.5344">
        <ele>234.692727</ele>
        <time>2023-09-17T10:23:59.424Z</time>
      </trkpt>
      <trkpt lat="43.7714" lon="1.5344">
        <ele>234.692727</ele>
        <time>2023-09-17T10:24:27.424Z</time>
      </trkpt>
      <trkpt lat="43.77142" lon="1.53439">
        <ele>234.678394</ele>
        <time>2023-09-17T10:24:29.424Z</time>
      </trkpt>
      <trkpt lat="43.77145" lon="1.53438">
        <ele>234.643189</ele>
        <time>2023-09-17T10:24:31.424Z</time>
      </trkpt>
      <trkpt lat="43.77146" lon="1.53436">
        <ele>234.6308</ele>
        <time>2023-09-17T10:24:32.424Z</time>
      </trkpt>
      <trkpt lat="43.77148" lon="1.53434">
        <ele>234.611071</ele>
        <time>2023-09-17T10:24:33.424Z</time>
      </trkpt>
      <trkpt lat="43.77148" lon="1.53434">
        <ele>234.611071</ele>
        <time>2023-09-17T10:24:33.424Z</time>
      </trkpt>
      <trkpt lat="43.77148" lon="1.53431">
        <ele>234.594593</ele>
        <time>2023-09-17T10:24:34.424Z</time>
      </trkpt>
      <trkpt lat="43.77149" lon="1.53429">
        <ele>234.576602</ele>
        <time>2023-09-17T10:24:35.424Z</time>
      </trkpt>
      <trkpt lat="43.77151" lon="1.53426">
        <ele>234.556396</ele>
        <time>2023-09-17T10:24:36.424Z</time>
      </trkpt>
      <trkpt lat="43.77151" lon="1.53426">
        <ele>234.556396</ele>
        <time>2023-09-17T10:24:36.424Z</time>
      </trkpt>
      <trkpt lat="43.77152" lon="1.53424">
        <ele>234.536962</ele>
        <time>2023-09-17T10:24:37.424Z</time>
      </trkpt>
      <trkpt lat="43.77154" lon="1.53421">
        <ele>234.512962</ele>
        <time>2023-09-17T10:24:39.424Z</time>
      </trkpt>
      <trkpt lat="43.77154" lon="1.53421">
        <ele>234.512962</ele>
        <time>2023-09-17T10:24:39.424Z</time>
      </trkpt>
      <trkpt lat="43.77156" lon="1.53418">
        <ele>234.485087</ele>
        <time>2023-09-17T10:24:40.424Z</time>
      </trkpt>
      <trkpt lat="43.77156" lon="1.53418">
        <ele>234.485087</ele>
        <time>2023-09-17T10:24:40.424Z</time>
      </trkpt>
      <trkpt lat="43.7716" lon="1.53412">
        <ele>234.438997</ele>
        <time>2023-09-17T10:24:41.424Z</time>
      </trkpt>
      <trkpt lat="43.77161" lon="1.53408">
        <ele>234.403592</ele>
        <time>2023-09-17T10:24:42.424Z</time>
      </trkpt>
      <trkpt lat="43.77161" lon="1.53408">
        <ele>234.403592</ele>
        <time>2023-09-17T10:24:42.424Z</time>
      </trkpt>
      <trkpt lat="43.77164" lon="1.534">
        <ele>234.349957</ele>
        <time>2023-09-17T10:24:43.424Z</time>
      </trkpt>
      <trkpt lat="43.77164" lon="1.534">
        <ele>234.349957</ele>
        <time>2023-09-17T10:24:43.424Z</time>
      </trkpt>
      <trkpt lat="43.77165" lon="1.53394">
        <ele>234.313719</ele>
        <time>2023-09-17T10:24:44.424Z</time>
      </trkpt>
      <trkpt lat="43.77165" lon="1.53394">
        <ele>234.313719</ele>
        <time>2023-09-17T10:24:44.424Z</time>
      </trkpt>
      <trkpt lat="43.77166" lon="1.53389">
        <ele>234.277143</ele>
        <time>2023-09-17T10:24:45.424Z</time>
      </trkpt>
      <trkpt lat="43.77167" lon="1.53383">
        <ele>234.237195</ele>
        <time>2023-09-17T10:24:45.424Z</time>
      </trkpt>
      <trkpt lat="43.77169" lon="1.53372">
        <ele>234.169503</ele>
        <time>2023-09-17T10:24:48.424Z</time>
      </trkpt>
      <trkpt lat="43.77169" lon="1.53372">
        <ele>234.169503</ele>
        <time>2023-09-17T10:24:48.424Z</time>
      </trkpt>
      <trkpt lat="43.77169" lon="1.53367">
        <ele>234.13831</ele>
        <time>2023-09-17T10:24:49.424Z</time>
      </trkpt>
      <trkpt lat="43.77169" lon="1.53364">
        <ele>234.115241</ele>
        <time>2023-09-17T10:24:49.424Z</time>
      </trkpt>
      <trkpt lat="43.77171" lon="1.5336">
        <ele>234.085012</ele>
        <time>2023-09-17T10:24:52.424Z</time>
      </trkpt>
      <trkpt lat="43.77171" lon="1.5336">
        <ele>234.085012</ele>
        <time>2023-09-17T10:24:53.424Z</time>
      </trkpt>
      <trkpt lat="43.77173" lon="1.53357">
        <ele>234.055581</ele>
        <time>2023-09-17T10:25:00.424Z</time>
      </trkpt>
      <trkpt lat="43.77175" lon="1.53355">
        <ele>233.992392</ele>
        <time>2023-09-17T10:25:02.424Z</time>
      </trkpt>
      <trkpt lat="43.77178" lon="1.53355">
        <ele>233.543153</ele>
        <time>2023-09-17T10:25:03.424Z</time>
      </trkpt>
      <trkpt lat="43.77178" lon="1.53355">
        <ele>233.543153</ele>
        <time>2023-09-17T10:25:03.424Z</time>
      </trkpt>
      <trkpt lat="43.7719" lon="1.53348">
        <ele>231.437615</ele>
        <time>2023-09-17T10:25:05.424Z</time>
      </trkpt>
      <trkpt lat="43.7719" lon="1.53348">
        <ele>231.437615</ele>
        <time>2023-09-17T10:25:05.424Z</time>
      </trkpt>
      <trkpt lat="43.77194" lon="1.53346">
        <ele>230.758299</ele>
        <time>2023-09-17T10:25:06.424Z</time>
      </trkpt>
      <trkpt lat="43.77194" lon="1.53346">
        <ele>230.758299</ele>
        <time>2023-09-17T10:25:06.424Z</time>
      </trkpt>
      <trkpt lat="43.77198" lon="1.53344">
        <ele>229.957107</ele>
        <time>2023-09-17T10:25:07.424Z</time>
      </trkpt>
      <trkpt lat="43.77198" lon="1.53344">
        <ele>229.957107</ele>
        <time>2023-09-17T10:25:07.424Z</time>
      </trkpt>
      <trkpt lat="43.77207" lon="1.5334">
        <ele>228.398517</ele>
        <time>2023-09-17T10:25:08.424Z</time>
      </trkpt>
      <trkpt lat="43.77207" lon="1.5334">
        <ele>228.398517</ele>
        <time>2023-09-17T10:25:08.424Z</time>
      </trkpt>
      <trkpt lat="43.77214" lon="1.53336">
        <ele>227.060042</ele>
        <time>2023-09-17T10:25:09.424Z</time>
      </trkpt>
      <trkpt lat="43.77214" lon="1.53336">
        <ele>227.060042</ele>
        <time>2023-09-17T10:25:09.424Z</time>
      </trkpt>
      <trkpt lat="43.77223" lon="1.53333">
        <ele>225.624545</ele>
        <time>2023-09-17T10:25:10.424Z</time>
      </trkpt>
      <trkpt lat="43.77223" lon="1.53333">
        <ele>225.624545</ele>
        <time>2023-09-17T10:25:10.424Z</time>
      </trkpt>
      <trkpt lat="43.77225" lon="1.53332">
        <ele>225.297885</ele>
        <time>2023-09-17T10:25:11.424Z</time>
      </trkpt>
      <trkpt lat="43.77243" lon="1.53326">
        <ele>222.207232</ele>
        <time>2023-09-17T10:25:12.424Z</time>
      </trkpt>
      <trkpt lat="43.77243" lon="1.53326">
        <ele>222.207232</ele>
        <time>2023-09-17T10:25:12.424Z</time>
      </trkpt>
      <trkpt lat="43.77251" lon="1.53323">
        <ele>220.717614</ele>
        <time>2023-09-17T10:25:13.424Z</time>
      </trkpt>
      <trkpt lat="43.77251" lon="1.53323">
        <ele>220.717614</ele>
        <time>2023-09-17T10:25:13.424Z</time>
      </trkpt>
      <trkpt lat="43.77261" lon="1.5332">
        <ele>219.012362</ele>
        <time>2023-09-17T10:25:14.424Z</time>
      </trkpt>
      <trkpt lat="43.77261" lon="1.5332">
        <ele>219.012362</ele>
        <time>2023-09-17T10:25:14.424Z</time>
      </trkpt>
      <trkpt lat="43.77272" lon="1.53317">
        <ele>217.261097</ele>
        <time>2023-09-17T10:25:15.424Z</time>
      </trkpt>
      <trkpt lat="43.77272" lon="1.53317">
        <ele>217.261097</ele>
        <time>2023-09-17T10:25:15.424Z</time>
      </trkpt>
      <trkpt lat="43.77281" lon="1.53314">
        <ele>215.642181</ele>
        <time>2023-09-17T10:25:16.424Z</time>
      </trkpt>
      <trkpt lat="43.77281" lon="1.53314">
        <ele>215.642181</ele>
        <time>2023-09-17T10:25:16.424Z</time>
      </trkpt>
      <trkpt lat="43.77292" lon="1.53311">
        <ele>213.835135</ele>
        <time>2023-09-17T10:25:17.424Z</time>
      </trkpt>
      <trkpt lat="43.77292" lon="1.53311">
        <ele>213.835135</ele>
        <time>2023-09-17T10:25:17.424Z</time>
      </trkpt>
      <trkpt lat="43.77301" lon="1.53309">
        <ele>212.24036</ele>
        <time>2023-09-17T10:25:18.424Z</time>
      </trkpt>
      <trkpt lat="43.77301" lon="1.53309">
        <ele>212.24036</ele>
        <time>2023-09-17T10:25:18.424Z</time>
      </trkpt>
      <trkpt lat="43.77311" lon="1.53307">
        <ele>210.578092</ele>
        <time>2023-09-17T10:25:19.424Z</time>
      </trkpt>
      <trkpt lat="43.77311" lon="1.53307">
        <ele>210.578092</ele>
        <time>2023-09-17T10:25:19.424Z</time>
      </trkpt>
      <trkpt lat="43.77322" lon="1.53305">
        <ele>208.85166</ele>
        <time>2023-09-17T10:25:20.424Z</time>
      </trkpt>
      <trkpt lat="43.77322" lon="1.53305">
        <ele>208.85166</ele>
        <time>2023-09-17T10:25:20.424Z</time>
      </trkpt>
      <trkpt lat="43.77331" lon="1.53302">
        <ele>207.272665</ele>
        <time>2023-09-17T10:25:21.424Z</time>
      </trkpt>
      <trkpt lat="43.77331" lon="1.53302">
        <ele>207.272665</ele>
        <time>2023-09-17T10:25:21.424Z</time>
      </trkpt>
      <trkpt lat="43.7734" lon="1.53298">
        <ele>205.700246</ele>
        <time>2023-09-17T10:25:22.424Z</time>
      </trkpt>
      <trkpt lat="43.7734" lon="1.53298">
        <ele>205.700246</ele>
        <time>2023-09-17T10:25:22.424Z</time>
      </trkpt>
      <trkpt lat="43.7735" lon="1.53295">
        <ele>203.975077</ele>
        <time>2023-09-17T10:25:23.424Z</time>
      </trkpt>
      <trkpt lat="43.7735" lon="1.53295">
        <ele>203.975077</ele>
        <time>2023-09-17T10:25:23.424Z</time>
      </trkpt>
      <trkpt lat="43.77359" lon="1.53293">
        <ele>202.551954</ele>
        <time>2023-09-17T10:25:24.424Z</time>
      </trkpt>
      <trkpt lat="43.77359" lon="1.53293">
        <ele>202.551954</ele>
        <time>2023-09-17T10:25:24.424Z</time>
      </trkpt>
      <trkpt lat="43.77368" lon="1.5329">
        <ele>201.238569</ele>
        <time>2023-09-17T10:25:25.424Z</time>
      </trkpt>
      <trkpt lat="43.77368" lon="1.5329">
        <ele>201.238569</ele>
        <time>2023-09-17T10:25:25.424Z</time>
      </trkpt>
      <trkpt lat="43.77367" lon="1.5329">
        <ele>201.114993</ele>
        <time>2023-09-17T10:25:26.424Z</time>
      </trkpt>
      <trkpt lat="43.77385" lon="1.53284">
        <ele>198.251103</ele>
        <time>2023-09-17T10:25:27.424Z</time>
      </trkpt>
      <trkpt lat="43.77385" lon="1.53284">
        <ele>198.251103</ele>
        <time>2023-09-17T10:25:27.424Z</time>
      </trkpt>
      <trkpt lat="43.77389" lon="1.53283">
        <ele>197.644059</ele>
        <time>2023-09-17T10:25:28.424Z</time>
      </trkpt>
      <trkpt lat="43.77397" lon="1.53279">
        <ele>196.340453</ele>
        <time>2023-09-17T10:25:29.424Z</time>
      </trkpt>
      <trkpt lat="43.77397" lon="1.53279">
        <ele>196.340453</ele>
        <time>2023-09-17T10:25:29.424Z</time>
      </trkpt>
      <trkpt lat="43.77418" lon="1.53268">
        <ele>192.945548</ele>
        <time>2023-09-17T10:25:30.424Z</time>
      </trkpt>
      <trkpt lat="43.77418" lon="1.53268">
        <ele>192.945548</ele>
        <time>2023-09-17T10:25:30.424Z</time>
      </trkpt>
      <trkpt lat="43.77428" lon="1.53263">
        <ele>191.336692</ele>
        <time>2023-09-17T10:25:31.424Z</time>
      </trkpt>
      <trkpt lat="43.77428" lon="1.53263">
        <ele>191.336692</ele>
        <time>2023-09-17T10:25:31.424Z</time>
      </trkpt>
      <trkpt lat="43.77436" lon="1.5326">
        <ele>190.122604</ele>
        <time>2023-09-17T10:25:32.424Z</time>
      </trkpt>
      <trkpt lat="43.77436" lon="1.5326">
        <ele>190.122604</ele>
        <time>2023-09-17T10:25:32.424Z</time>
      </trkpt>
      <trkpt lat="43.77443" lon="1.53261">
        <ele>189.012311</ele>
        <time>2023-09-17T10:25:33.424Z</time>
      </trkpt>
      <trkpt lat="43.77443" lon="1.53261">
        <ele>189.012311</ele>
        <time>2023-09-17T10:25:33.424Z</time>
      </trkpt>
      <trkpt lat="43.77453" lon="1.53266">
        <ele>187.468098</ele>
        <time>2023-09-17T10:25:34.424Z</time>
      </trkpt>
      <trkpt lat="43.77453" lon="1.53266">
        <ele>187.468098</ele>
        <time>2023-09-17T10:25:34.424Z</time>
      </trkpt>
      <trkpt lat="43.77456" lon="1.5327">
        <ele>186.742526</ele>
        <time>2023-09-17T10:25:35.424Z</time>
      </trkpt>
      <trkpt lat="43.77456" lon="1.5327">
        <ele>186.742526</ele>
        <time>2023-09-17T10:25:35.424Z</time>
      </trkpt>
      <trkpt lat="43.77458" lon="1.53269">
        <ele>186.484511</ele>
        <time>2023-09-17T10:25:36.424Z</time>
      </trkpt>
      <trkpt lat="43.77475" lon="1.53282">
        <ele>183.537405</ele>
        <time>2023-09-17T10:25:37.424Z</time>
      </trkpt>
      <trkpt lat="43.77475" lon="1.53282">
        <ele>183.537405</ele>
        <time>2023-09-17T10:25:37.424Z</time>
      </trkpt>
      <trkpt lat="43.77475" lon="1.53284">
        <ele>183.314675</ele>
        <time>2023-09-17T10:25:38.424Z</time>
      </trkpt>
      <trkpt lat="43.77488" lon="1.53295">
        <ele>181.033442</ele>
        <time>2023-09-17T10:25:39.424Z</time>
      </trkpt>
      <trkpt lat="43.77488" lon="1.53295">
        <ele>181.033442</ele>
        <time>2023-09-17T10:25:39.424Z</time>
      </trkpt>
      <trkpt lat="43.77498" lon="1.53303">
        <ele>179.25415</ele>
        <time>2023-09-17T10:25:40.424Z</time>
      </trkpt>
      <trkpt lat="43.77498" lon="1.53303">
        <ele>179.25415</ele>
        <time>2023-09-17T10:25:40.424Z</time>
      </trkpt>
      <trkpt lat="43.77507" lon="1.53312">
        <ele>177.626188</ele>
        <time>2023-09-17T10:25:41.424Z</time>
      </trkpt>
      <trkpt lat="43.77507" lon="1.53312">
        <ele>177.626188</ele>
        <time>2023-09-17T10:25:41.424Z</time>
      </trkpt>
      <trkpt lat="43.77513" lon="1.5332">
        <ele>176.534244</ele>
        <time>2023-09-17T10:25:42.424Z</time>
      </trkpt>
      <trkpt lat="43.77513" lon="1.5332">
        <ele>176.534244</ele>
        <time>2023-09-17T10:25:42.424Z</time>
      </trkpt>
      <trkpt lat="43.77521" lon="1.5333">
        <ele>175.636167</ele>
        <time>2023-09-17T10:25:43.424Z</time>
      </trkpt>
      <trkpt lat="43.77521" lon="1.5333">
        <ele>175.636167</ele>
        <time>2023-09-17T10:25:43.424Z</time>
      </trkpt>
      <trkpt lat="43.77528" lon="1.5334">
        <ele>174.77479</ele>
        <time>2023-09-17T10:25:44.424Z</time>
      </trkpt>
      <trkpt lat="43.77528" lon="1.5334">
        <ele>174.77479</ele>
        <time>2023-09-17T10:25:44.424Z</time>
      </trkpt>
      <trkpt lat="43.77534" lon="1.53351">
        <ele>173.897513</ele>
        <time>2023-09-17T10:25:45.424Z</time>
      </trkpt>
      <trkpt lat="43.77534" lon="1.53351">
        <ele>173.897513</ele>
        <time>2023-09-17T10:25:45.424Z</time>
      </trkpt>
      <trkpt lat="43.7754" lon="1.53362">
        <ele>173.051237</ele>
        <time>2023-09-17T10:25:46.424Z</time>
      </trkpt>
      <trkpt lat="43.7754" lon="1.53362">
        <ele>173.051237</ele>
        <time>2023-09-17T10:25:46.424Z</time>
      </trkpt>
      <trkpt lat="43.7754" lon="1.53362">
        <ele>173.032722</ele>
        <time>2023-09-17T10:25:47.424Z</time>
      </trkpt>
      <trkpt lat="43.77552" lon="1.53385">
        <ele>171.281243</ele>
        <time>2023-09-17T10:25:48.424Z</time>
      </trkpt>
      <trkpt lat="43.77552" lon="1.53385">
        <ele>171.281243</ele>
        <time>2023-09-17T10:25:48.424Z</time>
      </trkpt>
      <trkpt lat="43.7756" lon="1.53397">
        <ele>170.312798</ele>
        <time>2023-09-17T10:25:49.424Z</time>
      </trkpt>
      <trkpt lat="43.7756" lon="1.53397">
        <ele>170.312798</ele>
        <time>2023-09-17T10:25:49.424Z</time>
      </trkpt>
      <trkpt lat="43.77557" lon="1.53393">
        <ele>170.009038</ele>
        <time>2023-09-17T10:25:50.424Z</time>
      </trkpt>
      <trkpt lat="43.77557" lon="1.53393">
        <ele>170.009038</ele>
        <time>2023-09-17T10:25:50.424Z</time>
      </trkpt>
      <trkpt lat="43.77573" lon="1.53417">
        <ele>167.96962</ele>
        <time>2023-09-17T10:25:51.424Z</time>
      </trkpt>
      <trkpt lat="43.77573" lon="1.53417">
        <ele>167.96962</ele>
        <time>2023-09-17T10:25:51.424Z</time>
      </trkpt>
      <trkpt lat="43.77582" lon="1.5343">
        <ele>166.883254</ele>
        <time>2023-09-17T10:25:52.424Z</time>
      </trkpt>
      <trkpt lat="43.77582" lon="1.5343">
        <ele>166.883254</ele>
        <time>2023-09-17T10:25:52.424Z</time>
      </trkpt>
      <trkpt lat="43.7758" lon="1.53426">
        <ele>166.572467</ele>
        <time>2023-09-17T10:25:53.424Z</time>
      </trkpt>
      <trkpt lat="43.7758" lon="1.53426">
        <ele>166.572467</ele>
        <time>2023-09-17T10:25:53.424Z</time>
      </trkpt>
      <trkpt lat="43.77601" lon="1.53452">
        <ele>164.152369</ele>
        <time>2023-09-17T10:25:54.424Z</time>
      </trkpt>
      <trkpt lat="43.77601" lon="1.53452">
        <ele>164.152369</ele>
        <time>2023-09-17T10:25:54.424Z</time>
      </trkpt>
      <trkpt lat="43.77612" lon="1.53464">
        <ele>162.986026</ele>
        <time>2023-09-17T10:25:55.424Z</time>
      </trkpt>
      <trkpt lat="43.77612" lon="1.53464">
        <ele>162.986026</ele>
        <time>2023-09-17T10:25:55.424Z</time>
      </trkpt>
      <trkpt lat="43.77621" lon="1.53473">
        <ele>162.023243</ele>
        <time>2023-09-17T10:25:56.424Z</time>
      </trkpt>
      <trkpt lat="43.77621" lon="1.53473">
        <ele>162.023243</ele>
        <time>2023-09-17T10:25:56.424Z</time>
      </trkpt>
      <trkpt lat="43.7763" lon="1.53482">
        <ele>161.093035</ele>
        <time>2023-09-17T10:25:57.424Z</time>
      </trkpt>
      <trkpt lat="43.7763" lon="1.53482">
        <ele>161.093035</ele>
        <time>2023-09-17T10:25:57.424Z</time>
      </trkpt>
      <trkpt lat="43.77639" lon="1.53491">
        <ele>160.282433</ele>
        <time>2023-09-17T10:25:58.424Z</time>
      </trkpt>
      <trkpt lat="43.77639" lon="1.53491">
        <ele>160.282433</ele>
        <time>2023-09-17T10:25:58.424Z</time>
      </trkpt>
      <trkpt lat="43.77648" lon="1.53498">
        <ele>159.527843</ele>
        <time>2023-09-17T10:25:59.424Z</time>
      </trkpt>
      <trkpt lat="43.77648" lon="1.53498">
        <ele>159.527843</ele>
        <time>2023-09-17T10:25:59.424Z</time>
      </trkpt>
      <trkpt lat="43.77656" lon="1.53504">
        <ele>158.884007</ele>
        <time>2023-09-17T10:26:00.424Z</time>
      </trkpt>
      <trkpt lat="43.77656" lon="1.53504">
        <ele>158.884007</ele>
        <time>2023-09-17T10:26:00.424Z</time>
      </trkpt>
      <trkpt lat="43.77662" lon="1.5351">
        <ele>158.325702</ele>
        <time>2023-09-17T10:26:01.424Z</time>
      </trkpt>
      <trkpt lat="43.77662" lon="1.5351">
        <ele>158.325702</ele>
        <time>2023-09-17T10:26:01.424Z</time>
      </trkpt>
      <trkpt lat="43.77672" lon="1.53518">
        <ele>157.488241</ele>
        <time>2023-09-17T10:26:02.424Z</time>
      </trkpt>
      <trkpt lat="43.77672" lon="1.53518">
        <ele>157.488241</ele>
        <time>2023-09-17T10:26:02.424Z</time>
      </trkpt>
      <trkpt lat="43.77683" lon="1.53526">
        <ele>156.609431</ele>
        <time>2023-09-17T10:26:03.424Z</time>
      </trkpt>
      <trkpt lat="43.77683" lon="1.53526">
        <ele>156.609431</ele>
        <time>2023-09-17T10:26:03.424Z</time>
      </trkpt>
      <trkpt lat="43.77693" lon="1.53533">
        <ele>155.766141</ele>
        <time>2023-09-17T10:26:04.424Z</time>
      </trkpt>
      <trkpt lat="43.77693" lon="1.53533">
        <ele>155.766141</ele>
        <time>2023-09-17T10:26:04.424Z</time>
      </trkpt>
      <trkpt lat="43.77705" lon="1.53541">
        <ele>154.805496</ele>
        <time>2023-09-17T10:26:05.424Z</time>
      </trkpt>
      <trkpt lat="43.77705" lon="1.53541">
        <ele>154.805496</ele>
        <time>2023-09-17T10:26:05.424Z</time>
      </trkpt>
      <trkpt lat="43.77716" lon="1.53548">
        <ele>153.882633</ele>
        <time>2023-09-17T10:26:06.424Z</time>
      </trkpt>
      <trkpt lat="43.77716" lon="1.53548">
        <ele>153.882633</ele>
        <time>2023-09-17T10:26:06.424Z</time>
      </trkpt>
      <trkpt lat="43.77729" lon="1.53556">
        <ele>152.846652</ele>
        <time>2023-09-17T10:26:07.424Z</time>
      </trkpt>
      <trkpt lat="43.77729" lon="1.53556">
        <ele>152.846652</ele>
        <time>2023-09-17T10:26:07.424Z</time>
      </trkpt>
      <trkpt lat="43.7774" lon="1.53563">
        <ele>151.985953</ele>
        <time>2023-09-17T10:26:08.424Z</time>
      </trkpt>
      <trkpt lat="43.7774" lon="1.53563">
        <ele>151.985953</ele>
        <time>2023-09-17T10:26:08.424Z</time>
      </trkpt>
      <trkpt lat="43.77748" lon="1.53568">
        <ele>151.340449</ele>
        <time>2023-09-17T10:26:09.424Z</time>
      </trkpt>
      <trkpt lat="43.77748" lon="1.53568">
        <ele>151.340449</ele>
        <time>2023-09-17T10:26:09.424Z</time>
      </trkpt>
      <trkpt lat="43.77754" lon="1.53572">
        <ele>150.850197</ele>
        <time>2023-09-17T10:26:10.424Z</time>
      </trkpt>
      <trkpt lat="43.77754" lon="1.53572">
        <ele>150.850197</ele>
        <time>2023-09-17T10:26:10.424Z</time>
      </trkpt>
      <trkpt lat="43.77758" lon="1.53574">
        <ele>150.550318</ele>
        <time>2023-09-17T10:26:11.424Z</time>
      </trkpt>
      <trkpt lat="43.77758" lon="1.53574">
        <ele>150.550318</ele>
        <time>2023-09-17T10:26:11.424Z</time>
      </trkpt>
      <trkpt lat="43.77761" lon="1.53575">
        <ele>150.318162</ele>
        <time>2023-09-17T10:26:12.424Z</time>
      </trkpt>
      <trkpt lat="43.77761" lon="1.53575">
        <ele>150.318162</ele>
        <time>2023-09-17T10:26:12.424Z</time>
      </trkpt>
      <trkpt lat="43.77765" lon="1.53575">
        <ele>150.038834</ele>
        <time>2023-09-17T10:26:13.424Z</time>
      </trkpt>
      <trkpt lat="43.77765" lon="1.53575">
        <ele>150.038834</ele>
        <time>2023-09-17T10:26:13.424Z</time>
      </trkpt>
      <trkpt lat="43.77768" lon="1.53575">
        <ele>149.757856</ele>
        <time>2023-09-17T10:26:14.424Z</time>
      </trkpt>
      <trkpt lat="43.77768" lon="1.53575">
        <ele>149.757856</ele>
        <time>2023-09-17T10:26:14.424Z</time>
      </trkpt>
      <trkpt lat="43.77772" lon="1.53573">
        <ele>149.490835</ele>
        <time>2023-09-17T10:26:15.424Z</time>
      </trkpt>
      <trkpt lat="43.77772" lon="1.53573">
        <ele>149.490835</ele>
        <time>2023-09-17T10:26:15.424Z</time>
      </trkpt>
      <trkpt lat="43.77775" lon="1.5357">
        <ele>149.198161</ele>
        <time>2023-09-17T10:26:16.424Z</time>
      </trkpt>
      <trkpt lat="43.77775" lon="1.5357">
        <ele>149.198161</ele>
        <time>2023-09-17T10:26:16.424Z</time>
      </trkpt>
      <trkpt lat="43.77778" lon="1.53567">
        <ele>148.914035</ele>
        <time>2023-09-17T10:26:17.424Z</time>
      </trkpt>
      <trkpt lat="43.77778" lon="1.53567">
        <ele>148.914035</ele>
        <time>2023-09-17T10:26:17.424Z</time>
      </trkpt>
      <trkpt lat="43.77781" lon="1.53564">
        <ele>148.675082</ele>
        <time>2023-09-17T10:26:18.424Z</time>
      </trkpt>
      <trkpt lat="43.77781" lon="1.53564">
        <ele>148.675082</ele>
        <time>2023-09-17T10:26:18.424Z</time>
      </trkpt>
      <trkpt lat="43.77785" lon="1.5356">
        <ele>148.298455</ele>
        <time>2023-09-17T10:26:19.424Z</time>
      </trkpt>
      <trkpt lat="43.77785" lon="1.5356">
        <ele>148.298455</ele>
        <time>2023-09-17T10:26:19.424Z</time>
      </trkpt>
      <trkpt lat="43.77788" lon="1.53555">
        <ele>148.140177</ele>
        <time>2023-09-17T10:26:20.424Z</time>
      </trkpt>
      <trkpt lat="43.77788" lon="1.53555">
        <ele>148.140177</ele>
        <time>2023-09-17T10:26:20.424Z</time>
      </trkpt>
      <trkpt lat="43.77794" lon="1.53546">
        <ele>147.91389</ele>
        <time>2023-09-17T10:26:21.424Z</time>
      </trkpt>
      <trkpt lat="43.77794" lon="1.53546">
        <ele>147.91389</ele>
        <time>2023-09-17T10:26:21.424Z</time>
      </trkpt>
      <trkpt lat="43.77798" lon="1.5354">
        <ele>147.754646</ele>
        <time>2023-09-17T10:26:22.424Z</time>
      </trkpt>
      <trkpt lat="43.77798" lon="1.5354">
        <ele>147.754646</ele>
        <time>2023-09-17T10:26:22.424Z</time>
      </trkpt>
      <trkpt lat="43.77803" lon="1.53535">
        <ele>147.591617</ele>
        <time>2023-09-17T10:26:23.424Z</time>
      </trkpt>
      <trkpt lat="43.77803" lon="1.53535">
        <ele>147.591617</ele>
        <time>2023-09-17T10:26:23.424Z</time>
      </trkpt>
      <trkpt lat="43.77808" lon="1.53529">
        <ele>147.408178</ele>
        <time>2023-09-17T10:26:24.424Z</time>
      </trkpt>
      <trkpt lat="43.77808" lon="1.53529">
        <ele>147.408178</ele>
        <time>2023-09-17T10:26:24.424Z</time>
      </trkpt>
      <trkpt lat="43.77813" lon="1.53523">
        <ele>147.234164</ele>
        <time>2023-09-17T10:26:25.424Z</time>
      </trkpt>
      <trkpt lat="43.77813" lon="1.53523">
        <ele>147.234164</ele>
        <time>2023-09-17T10:26:25.424Z</time>
      </trkpt>
      <trkpt lat="43.77819" lon="1.53519">
        <ele>147.066405</ele>
        <time>2023-09-17T10:26:26.424Z</time>
      </trkpt>
      <trkpt lat="43.77819" lon="1.53519">
        <ele>147.066405</ele>
        <time>2023-09-17T10:26:26.424Z</time>
      </trkpt>
      <trkpt lat="43.77824" lon="1.53516">
        <ele>146.920516</ele>
        <time>2023-09-17T10:26:27.424Z</time>
      </trkpt>
      <trkpt lat="43.77824" lon="1.53516">
        <ele>146.920516</ele>
        <time>2023-09-17T10:26:27.424Z</time>
      </trkpt>
      <trkpt lat="43.7783" lon="1.53512">
        <ele>146.737519</ele>
        <time>2023-09-17T10:26:28.424Z</time>
      </trkpt>
      <trkpt lat="43.7783" lon="1.53512">
        <ele>146.737519</ele>
        <time>2023-09-17T10:26:28.424Z</time>
      </trkpt>
      <trkpt lat="43.77837" lon="1.53511">
        <ele>146.560681</ele>
        <time>2023-09-17T10:26:29.424Z</time>
      </trkpt>
      <trkpt lat="43.77837" lon="1.53511">
        <ele>146.560681</ele>
        <time>2023-09-17T10:26:29.424Z</time>
      </trkpt>
      <trkpt lat="43.77843" lon="1.53509">
        <ele>146.386368</ele>
        <time>2023-09-17T10:26:30.424Z</time>
      </trkpt>
      <trkpt lat="43.77843" lon="1.53509">
        <ele>146.386368</ele>
        <time>2023-09-17T10:26:30.424Z</time>
      </trkpt>
      <trkpt lat="43.7785" lon="1.53509">
        <ele>146.213171</ele>
        <time>2023-09-17T10:26:31.424Z</time>
      </trkpt>
      <trkpt lat="43.77875" lon="1.53527">
        <ele>141.672389</ele>
        <time>2023-09-17T10:29:25.424Z</time>
      </trkpt>
      <trkpt lat="43.77876" lon="1.53535">
        <ele>141.728022</ele>
        <time>2023-09-17T10:29:26.424Z</time>
      </trkpt>
      <trkpt lat="43.77876" lon="1.53535">
        <ele>141.728022</ele>
        <time>2023-09-17T10:29:26.424Z</time>
      </trkpt>
      <trkpt lat="43.77877" lon="1.53541">
        <ele>141.772951</ele>
        <time>2023-09-17T10:29:27.424Z</time>
      </trkpt>
      <trkpt lat="43.77882" lon="1.53546">
        <ele>141.832089</ele>
        <time>2023-09-17T10:29:28.424Z</time>
      </trkpt>
      <trkpt lat="43.7789" lon="1.53554">
        <ele>141.935443</ele>
        <time>2023-09-17T10:29:29.424Z</time>
      </trkpt>
      <trkpt lat="43.77895" lon="1.53559">
        <ele>142.000368</ele>
        <time>2023-09-17T10:29:30.424Z</time>
      </trkpt>
      <trkpt lat="43.77895" lon="1.53559">
        <ele>142.000368</ele>
        <time>2023-09-17T10:29:30.424Z</time>
      </trkpt>
      <trkpt lat="43.77906" lon="1.53568">
        <ele>142.129226</ele>
        <time>2023-09-17T10:29:33.424Z</time>
      </trkpt>
      <trkpt lat="43.77911" lon="1.53573">
        <ele>142.189195</ele>
        <time>2023-09-17T10:29:34.424Z</time>
      </trkpt>
      <trkpt lat="43.77916" lon="1.53577">
        <ele>142.247534</ele>
        <time>2023-09-17T10:29:35.424Z</time>
      </trkpt>
      <trkpt lat="43.77922" lon="1.53582">
        <ele>142.312459</ele>
        <time>2023-09-17T10:29:36.424Z</time>
      </trkpt>
      <trkpt lat="43.77927" lon="1.53587">
        <ele>142.379173</ele>
        <time>2023-09-17T10:29:37.424Z</time>
      </trkpt>
      <trkpt lat="43.77927" lon="1.53587">
        <ele>142.379173</ele>
        <time>2023-09-17T10:29:37.424Z</time>
      </trkpt>
      <trkpt lat="43.77933" lon="1.53591">
        <ele>142.442076</ele>
        <time>2023-09-17T10:29:38.424Z</time>
      </trkpt>
      <trkpt lat="43.77944" lon="1.53601">
        <ele>142.302295</ele>
        <time>2023-09-17T10:29:40.424Z</time>
      </trkpt>
      <trkpt lat="43.7795" lon="1.53605">
        <ele>142.195026</ele>
        <time>2023-09-17T10:29:40.424Z</time>
      </trkpt>
      <trkpt lat="43.77955" lon="1.5361">
        <ele>142.088811</ele>
        <time>2023-09-17T10:29:42.424Z</time>
      </trkpt>
      <trkpt lat="43.77961" lon="1.53614">
        <ele>141.975043</ele>
        <time>2023-09-17T10:29:43.424Z</time>
      </trkpt>
      <trkpt lat="43.77961" lon="1.53614">
        <ele>141.975043</ele>
        <time>2023-09-17T10:29:43.424Z</time>
      </trkpt>
      <trkpt lat="43.77971" lon="1.53623">
        <ele>141.763493</ele>
        <time>2023-09-17T10:29:45.424Z</time>
      </trkpt>
      <trkpt lat="43.77971" lon="1.53623">
        <ele>141.763493</ele>
        <time>2023-09-17T10:29:45.424Z</time>
      </trkpt>
      <trkpt lat="43.77976" lon="1.53627">
        <ele>141.665312</ele>
        <time>2023-09-17T10:29:45.424Z</time>
      </trkpt>
      <trkpt lat="43.77976" lon="1.53627">
        <ele>141.665312</ele>
        <time>2023-09-17T10:29:45.424Z</time>
      </trkpt>
      <trkpt lat="43.77987" lon="1.53635">
        <ele>141.461562</ele>
        <time>2023-09-17T10:29:48.424Z</time>
      </trkpt>
      <trkpt lat="43.77987" lon="1.53635">
        <ele>141.461562</ele>
        <time>2023-09-17T10:29:48.424Z</time>
      </trkpt>
      <trkpt lat="43.77997" lon="1.53643">
        <ele>141.257192</ele>
        <time>2023-09-17T10:29:50.424Z</time>
      </trkpt>
      <trkpt lat="43.77997" lon="1.53643">
        <ele>141.257192</ele>
        <time>2023-09-17T10:29:50.424Z</time>
      </trkpt>
      <trkpt lat="43.78003" lon="1.53648">
        <ele>141.145876</ele>
        <time>2023-09-17T10:29:50.424Z</time>
      </trkpt>
      <trkpt lat="43.78003" lon="1.53648">
        <ele>141.145876</ele>
        <time>2023-09-17T10:29:50.424Z</time>
      </trkpt>
      <trkpt lat="43.78008" lon="1.53652">
        <ele>141.03063</ele>
        <time>2023-09-17T10:29:51.424Z</time>
      </trkpt>
      <trkpt lat="43.78008" lon="1.53652">
        <ele>141.03063</ele>
        <time>2023-09-17T10:29:51.424Z</time>
      </trkpt>
      <trkpt lat="43.78014" lon="1.53657">
        <ele>140.926517</ele>
        <time>2023-09-17T10:29:52.424Z</time>
      </trkpt>
      <trkpt lat="43.7802" lon="1.53661">
        <ele>140.806803</ele>
        <time>2023-09-17T10:29:53.424Z</time>
      </trkpt>
      <trkpt lat="43.7802" lon="1.53661">
        <ele>140.806803</ele>
        <time>2023-09-17T10:29:53.424Z</time>
      </trkpt>
      <trkpt lat="43.78025" lon="1.53665">
        <ele>140.696073</ele>
        <time>2023-09-17T10:29:54.424Z</time>
      </trkpt>
      <trkpt lat="43.78025" lon="1.53665">
        <ele>140.696073</ele>
        <time>2023-09-17T10:29:54.424Z</time>
      </trkpt>
      <trkpt lat="43.78031" lon="1.5367">
        <ele>140.583248</ele>
        <time>2023-09-17T10:29:55.424Z</time>
      </trkpt>
      <trkpt lat="43.78031" lon="1.5367">
        <ele>140.583248</ele>
        <time>2023-09-17T10:29:55.424Z</time>
      </trkpt>
      <trkpt lat="43.78037" lon="1.53674">
        <ele>140.464131</ele>
        <time>2023-09-17T10:29:56.424Z</time>
      </trkpt>
      <trkpt lat="43.78043" lon="1.53679">
        <ele>140.346177</ele>
        <time>2023-09-17T10:29:57.424Z</time>
      </trkpt>
      <trkpt lat="43.78043" lon="1.53679">
        <ele>140.346177</ele>
        <time>2023-09-17T10:29:57.424Z</time>
      </trkpt>
      <trkpt lat="43.78049" lon="1.53683">
        <ele>140.235448</ele>
        <time>2023-09-17T10:29:58.424Z</time>
      </trkpt>
      <trkpt lat="43.78049" lon="1.53683">
        <ele>140.235448</ele>
        <time>2023-09-17T10:29:58.424Z</time>
      </trkpt>
      <trkpt lat="43.78055" lon="1.53688">
        <ele>140.122308</ele>
        <time>2023-09-17T10:29:59.424Z</time>
      </trkpt>
      <trkpt lat="43.78066" lon="1.53697">
        <ele>139.895162</ele>
        <time>2023-09-17T10:30:02.424Z</time>
      </trkpt>
      <trkpt lat="43.78066" lon="1.53697">
        <ele>139.895162</ele>
        <time>2023-09-17T10:30:02.424Z</time>
      </trkpt>
      <trkpt lat="43.78073" lon="1.53702">
        <ele>139.761343</ele>
        <time>2023-09-17T10:30:03.424Z</time>
      </trkpt>
      <trkpt lat="43.78073" lon="1.53702">
        <ele>139.761343</ele>
        <time>2023-09-17T10:30:03.424Z</time>
      </trkpt>
      <trkpt lat="43.78085" lon="1.53711">
        <ele>139.523108</ele>
        <time>2023-09-17T10:30:05.424Z</time>
      </trkpt>
      <trkpt lat="43.78085" lon="1.53711">
        <ele>139.523108</ele>
        <time>2023-09-17T10:30:05.424Z</time>
      </trkpt>
      <trkpt lat="43.78091" lon="1.53716">
        <ele>139.403394</ele>
        <time>2023-09-17T10:30:05.424Z</time>
      </trkpt>
      <trkpt lat="43.78091" lon="1.53716">
        <ele>139.403394</ele>
        <time>2023-09-17T10:30:05.424Z</time>
      </trkpt>
      <trkpt lat="43.78098" lon="1.5372">
        <ele>139.278616</ele>
        <time>2023-09-17T10:30:07.424Z</time>
      </trkpt>
      <trkpt lat="43.78104" lon="1.53726">
        <ele>139.149896</ele>
        <time>2023-09-17T10:30:07.424Z</time>
      </trkpt>
      <trkpt lat="43.78104" lon="1.53726">
        <ele>139.149896</ele>
        <time>2023-09-17T10:30:07.424Z</time>
      </trkpt>
      <trkpt lat="43.7811" lon="1.5373">
        <ele>139.018029</ele>
        <time>2023-09-17T10:30:08.424Z</time>
      </trkpt>
      <trkpt lat="43.78122" lon="1.5374">
        <ele>138.762588</ele>
        <time>2023-09-17T10:30:11.424Z</time>
      </trkpt>
      <trkpt lat="43.78122" lon="1.5374">
        <ele>138.762588</ele>
        <time>2023-09-17T10:30:11.424Z</time>
      </trkpt>
      <trkpt lat="43.78128" lon="1.53745">
        <ele>138.633868</ele>
        <time>2023-09-17T10:30:11.424Z</time>
      </trkpt>
      <trkpt lat="43.78128" lon="1.53745">
        <ele>138.633868</ele>
        <time>2023-09-17T10:30:11.424Z</time>
      </trkpt>
      <trkpt lat="43.78135" lon="1.5375">
        <ele>138.50378</ele>
        <time>2023-09-17T10:30:12.424Z</time>
      </trkpt>
      <trkpt lat="43.78135" lon="1.5375">
        <ele>138.50378</ele>
        <time>2023-09-17T10:30:12.424Z</time>
      </trkpt>
      <trkpt lat="43.7814" lon="1.53756">
        <ele>138.382689</ele>
        <time>2023-09-17T10:30:13.424Z</time>
      </trkpt>
      <trkpt lat="43.78146" lon="1.53762">
        <ele>138.240847</ele>
        <time>2023-09-17T10:30:14.424Z</time>
      </trkpt>
      <trkpt lat="43.78146" lon="1.53762">
        <ele>138.240847</ele>
        <time>2023-09-17T10:30:14.424Z</time>
      </trkpt>
      <trkpt lat="43.78152" lon="1.53768">
        <ele>138.120421</ele>
        <time>2023-09-17T10:30:15.424Z</time>
      </trkpt>
      <trkpt lat="43.78152" lon="1.53768">
        <ele>138.120421</ele>
        <time>2023-09-17T10:30:15.424Z</time>
      </trkpt>
      <trkpt lat="43.78157" lon="1.53774">
        <ele>137.991084</ele>
        <time>2023-09-17T10:30:16.424Z</time>
      </trkpt>
      <trkpt lat="43.78163" lon="1.53779">
        <ele>137.86843</ele>
        <time>2023-09-17T10:30:17.424Z</time>
      </trkpt>
      <trkpt lat="43.78163" lon="1.53779">
        <ele>137.86843</ele>
        <time>2023-09-17T10:30:17.424Z</time>
      </trkpt>
      <trkpt lat="43.78169" lon="1.53786">
        <ele>137.730183</ele>
        <time>2023-09-17T10:30:18.424Z</time>
      </trkpt>
      <trkpt lat="43.78174" lon="1.53791">
        <ele>137.61132</ele>
        <time>2023-09-17T10:30:19.424Z</time>
      </trkpt>
      <trkpt lat="43.78174" lon="1.53791">
        <ele>137.61132</ele>
        <time>2023-09-17T10:30:19.424Z</time>
      </trkpt>
      <trkpt lat="43.7818" lon="1.53797">
        <ele>137.484313</ele>
        <time>2023-09-17T10:30:20.424Z</time>
      </trkpt>
      <trkpt lat="43.78186" lon="1.53802">
        <ele>137.358061</ele>
        <time>2023-09-17T10:30:21.424Z</time>
      </trkpt>
      <trkpt lat="43.78186" lon="1.53802">
        <ele>137.358061</ele>
        <time>2023-09-17T10:30:21.424Z</time>
      </trkpt>
      <trkpt lat="43.78192" lon="1.53807">
        <ele>137.23441</ele>
        <time>2023-09-17T10:30:22.424Z</time>
      </trkpt>
      <trkpt lat="43.78192" lon="1.53807">
        <ele>137.23441</ele>
        <time>2023-09-17T10:30:22.424Z</time>
      </trkpt>
      <trkpt lat="43.78199" lon="1.5381">
        <ele>137.102896</ele>
        <time>2023-09-17T10:30:23.424Z</time>
      </trkpt>
      <trkpt lat="43.78199" lon="1.5381">
        <ele>137.102896</ele>
        <time>2023-09-17T10:30:23.424Z</time>
      </trkpt>
      <trkpt lat="43.78205" lon="1.53813">
        <ele>136.987597</ele>
        <time>2023-09-17T10:30:24.424Z</time>
      </trkpt>
      <trkpt lat="43.78252" lon="1.53894">
        <ele>126.9</ele>
      </trkpt>
      <trkpt lat="43.78291" lon="1.53975">
        <ele>126.5</ele>
      </trkpt>
      <trkpt lat="43.78382" lon="1.5417">
        <ele>125.2</ele>
      </trkpt>
      <trkpt lat="43.78464" lon="1.54319">
        <ele>124</ele>
      </trkpt>
      <trkpt lat="43.78579" lon="1.54518">
        <ele>124.4</ele>
      </trkpt>
      <trkpt lat="43.78625" lon="1.54629">
        <ele>124.5</ele>
      </trkpt>
      <trkpt lat="43.78661" lon="1.54671">
        <ele>124.7</ele>
      </trkpt>
      <trkpt lat="43.78791" lon="1.54758">
        <ele>124.5</ele>
      </trkpt>
      <trkpt lat="43.78819" lon="1.54807">
        <ele>123.5</ele>
      </trkpt>
      <trkpt lat="43.78841" lon="1.54867">
        <ele>122.9</ele>
      </trkpt>
      <trkpt lat="43.78855" lon="1.54937">
        <ele>122</ele>
      </trkpt>
      <trkpt lat="43.78898" lon="1.55033">
        <ele>120.6</ele>
      </trkpt>
      <trkpt lat="43.78963" lon="1.55147">
        <ele>120.188286</ele>
        <time>2023-09-17T10:37:17.424Z</time>
      </trkpt>
      <trkpt lat="43.78964" lon="1.55153">
        <ele>120.188079</ele>
        <time>2023-09-17T10:37:18.424Z</time>
      </trkpt>
      <trkpt lat="43.78967" lon="1.55159">
        <ele>120.187829</ele>
        <time>2023-09-17T10:37:19.424Z</time>
      </trkpt>
      <trkpt lat="43.78967" lon="1.55159">
        <ele>120.187829</ele>
        <time>2023-09-17T10:37:19.424Z</time>
      </trkpt>
      <trkpt lat="43.7897" lon="1.55163">
        <ele>120.187609</ele>
        <time>2023-09-17T10:37:20.424Z</time>
      </trkpt>
      <trkpt lat="43.78975" lon="1.55168">
        <ele>120.187339</ele>
        <time>2023-09-17T10:37:21.424Z</time>
      </trkpt>
      <trkpt lat="43.78979" lon="1.55173">
        <ele>120.187085</ele>
        <time>2023-09-17T10:37:22.424Z</time>
      </trkpt>
      <trkpt lat="43.78983" lon="1.55177">
        <ele>120.186807</ele>
        <time>2023-09-17T10:37:23.424Z</time>
      </trkpt>
      <trkpt lat="43.78988" lon="1.55182">
        <ele>120.186534</ele>
        <time>2023-09-17T10:37:24.424Z</time>
      </trkpt>
      <trkpt lat="43.78993" lon="1.55187">
        <ele>120.186244</ele>
        <time>2023-09-17T10:37:25.424Z</time>
      </trkpt>
      <trkpt lat="43.78997" lon="1.55191">
        <ele>120.185978</ele>
        <time>2023-09-17T10:37:26.424Z</time>
      </trkpt>
      <trkpt lat="43.79002" lon="1.55195">
        <ele>120.185706</ele>
        <time>2023-09-17T10:37:27.424Z</time>
      </trkpt>
      <trkpt lat="43.79007" lon="1.55199">
        <ele>120.185422</ele>
        <time>2023-09-17T10:37:28.424Z</time>
      </trkpt>
      <trkpt lat="43.79012" lon="1.55203">
        <ele>120.185147</ele>
        <time>2023-09-17T10:37:29.424Z</time>
      </trkpt>
      <trkpt lat="43.79018" lon="1.55207">
        <ele>120.184833</ele>
        <time>2023-09-17T10:37:30.424Z</time>
      </trkpt>
      <trkpt lat="43.79023" lon="1.55211">
        <ele>120.184561</ele>
        <time>2023-09-17T10:37:31.424Z</time>
      </trkpt>
      <trkpt lat="43.79028" lon="1.55214">
        <ele>120.184278</ele>
        <time>2023-09-17T10:37:32.424Z</time>
      </trkpt>
      <trkpt lat="43.79033" lon="1.55218">
        <ele>120.183988</ele>
        <time>2023-09-17T10:37:33.424Z</time>
      </trkpt>
      <trkpt lat="43.79033" lon="1.55218">
        <ele>120.183988</ele>
        <time>2023-09-17T10:37:33.424Z</time>
      </trkpt>
      <trkpt lat="43.79039" lon="1.55221">
        <ele>120.183707</ele>
        <time>2023-09-17T10:37:34.424Z</time>
      </trkpt>
      <trkpt lat="43.79045" lon="1.55224">
        <ele>120.183389</ele>
        <time>2023-09-17T10:37:35.424Z</time>
      </trkpt>
      <trkpt lat="43.79045" lon="1.55224">
        <ele>120.183389</ele>
        <time>2023-09-17T10:37:35.424Z</time>
      </trkpt>
      <trkpt lat="43.79049" lon="1.55227">
        <ele>120.183146</ele>
        <time>2023-09-17T10:37:35.424Z</time>
      </trkpt>
      <trkpt lat="43.79049" lon="1.55227">
        <ele>120.183146</ele>
        <time>2023-09-17T10:37:35.424Z</time>
      </trkpt>
      <trkpt lat="43.79055" lon="1.5523">
        <ele>120.18287</ele>
        <time>2023-09-17T10:37:37.424Z</time>
      </trkpt>
      <trkpt lat="43.7906" lon="1.55233">
        <ele>120.182588</ele>
        <time>2023-09-17T10:37:38.424Z</time>
      </trkpt>
      <trkpt lat="43.79065" lon="1.55235">
        <ele>120.182335</ele>
        <time>2023-09-17T10:37:39.424Z</time>
      </trkpt>
      <trkpt lat="43.79069" lon="1.55237">
        <ele>120.182116</ele>
        <time>2023-09-17T10:37:40.424Z</time>
      </trkpt>
      <trkpt lat="43.79073" lon="1.55239">
        <ele>120.1819</ele>
        <time>2023-09-17T10:37:41.424Z</time>
      </trkpt>
      <trkpt lat="43.79078" lon="1.55242">
        <ele>120.181681</ele>
        <time>2023-09-17T10:37:42.424Z</time>
      </trkpt>
      <trkpt lat="43.79082" lon="1.55244">
        <ele>120.181458</ele>
        <time>2023-09-17T10:37:43.424Z</time>
      </trkpt>
      <trkpt lat="43.79085" lon="1.55247">
        <ele>120.181267</ele>
        <time>2023-09-17T10:37:44.424Z</time>
      </trkpt>
      <trkpt lat="43.79088" lon="1.55249">
        <ele>120.181105</ele>
        <time>2023-09-17T10:37:45.424Z</time>
      </trkpt>
      <trkpt lat="43.79089" lon="1.55252">
        <ele>120.18099</ele>
        <time>2023-09-17T10:37:46.424Z</time>
      </trkpt>
      <trkpt lat="43.79089" lon="1.55252">
        <ele>120.18099</ele>
        <time>2023-09-17T10:38:42.424Z</time>
      </trkpt>
      <trkpt lat="43.7909" lon="1.55255">
        <ele>120.18089</ele>
        <time>2023-09-17T10:38:44.424Z</time>
      </trkpt>
      <trkpt lat="43.7909" lon="1.55258">
        <ele>120.180789</ele>
        <time>2023-09-17T10:38:46.424Z</time>
      </trkpt>
      <trkpt lat="43.7909" lon="1.55261">
        <ele>120.180686</ele>
        <time>2023-09-17T10:38:48.424Z</time>
      </trkpt>
      <trkpt lat="43.7909" lon="1.55261">
        <ele>120.180686</ele>
        <time>2023-09-17T10:38:48.424Z</time>
      </trkpt>
      <trkpt lat="43.79091" lon="1.55262">
        <ele>120.180633</ele>
        <time>2023-09-17T10:38:49.424Z</time>
      </trkpt>
      <trkpt lat="43.79092" lon="1.55262">
        <ele>120.180559</ele>
        <time>2023-09-17T10:38:50.424Z</time>
      </trkpt>
      <trkpt lat="43.79095" lon="1.55262">
        <ele>120.179159</ele>
        <time>2023-09-17T10:38:51.424Z</time>
      </trkpt>
      <trkpt lat="43.79098" lon="1.55261">
        <ele>120.161962</ele>
        <time>2023-09-17T10:38:52.424Z</time>
      </trkpt>
      <trkpt lat="43.79101" lon="1.5526">
        <ele>120.146116</ele>
        <time>2023-09-17T10:38:53.424Z</time>
      </trkpt>
      <trkpt lat="43.79105" lon="1.55259">
        <ele>120.126348</ele>
        <time>2023-09-17T10:38:54.424Z</time>
      </trkpt>
      <trkpt lat="43.79116" lon="1.55255">
        <ele>120.07061</ele>
        <time>2023-09-17T10:38:56.424Z</time>
      </trkpt>
      <trkpt lat="43.79119" lon="1.55253">
        <ele>120.052964</ele>
        <time>2023-09-17T10:38:57.424Z</time>
      </trkpt>
      <trkpt lat="43.79124" lon="1.55252">
        <ele>120.029321</ele>
        <time>2023-09-17T10:38:58.424Z</time>
      </trkpt>
      <trkpt lat="43.79129" lon="1.5525">
        <ele>120.000073</ele>
        <time>2023-09-17T10:38:59.424Z</time>
      </trkpt>
      <trkpt lat="43.79135" lon="1.55248">
        <ele>119.972856</ele>
        <time>2023-09-17T10:39:00.424Z</time>
      </trkpt>
      <trkpt lat="43.79141" lon="1.55246">
        <ele>119.942954</ele>
        <time>2023-09-17T10:39:01.424Z</time>
      </trkpt>
      <trkpt lat="43.79147" lon="1.55244">
        <ele>119.911508</ele>
        <time>2023-09-17T10:39:02.424Z</time>
      </trkpt>
      <trkpt lat="43.79153" lon="1.55242">
        <ele>119.877944</ele>
        <time>2023-09-17T10:39:03.424Z</time>
      </trkpt>
      <trkpt lat="43.79153" lon="1.55242">
        <ele>119.877944</ele>
        <time>2023-09-17T10:39:03.424Z</time>
      </trkpt>
      <trkpt lat="43.79159" lon="1.5524">
        <ele>119.846409</ele>
        <time>2023-09-17T10:39:04.424Z</time>
      </trkpt>
      <trkpt lat="43.79165" lon="1.55238">
        <ele>119.814874</ele>
        <time>2023-09-17T10:39:05.424Z</time>
      </trkpt>
      <trkpt lat="43.79172" lon="1.55235">
        <ele>119.78122</ele>
        <time>2023-09-17T10:39:06.424Z</time>
      </trkpt>
      <trkpt lat="43.79178" lon="1.55233">
        <ele>119.749592</ele>
        <time>2023-09-17T10:39:07.424Z</time>
      </trkpt>
      <trkpt lat="43.79178" lon="1.55233">
        <ele>119.749592</ele>
        <time>2023-09-17T10:39:07.424Z</time>
      </trkpt>
      <trkpt lat="43.79184" lon="1.55231">
        <ele>119.717964</ele>
        <time>2023-09-17T10:39:08.424Z</time>
      </trkpt>
      <trkpt lat="43.7919" lon="1.55228">
        <ele>119.686239</ele>
        <time>2023-09-17T10:39:09.424Z</time>
      </trkpt>
      <trkpt lat="43.79196" lon="1.55226">
        <ele>119.654611</ele>
        <time>2023-09-17T10:39:10.424Z</time>
      </trkpt>
      <trkpt lat="43.79202" lon="1.55224">
        <ele>119.623076</ele>
        <time>2023-09-17T10:39:11.424Z</time>
      </trkpt>
      <trkpt lat="43.79209" lon="1.55221">
        <ele>119.589512</ele>
        <time>2023-09-17T10:39:12.424Z</time>
      </trkpt>
      <trkpt lat="43.79209" lon="1.55221">
        <ele>119.589512</ele>
        <time>2023-09-17T10:39:12.424Z</time>
      </trkpt>
      <trkpt lat="43.79215" lon="1.55219">
        <ele>119.556245</ele>
        <time>2023-09-17T10:39:13.424Z</time>
      </trkpt>
      <trkpt lat="43.79221" lon="1.55216">
        <ele>119.52452</ele>
        <time>2023-09-17T10:39:14.424Z</time>
      </trkpt>
      <trkpt lat="43.79227" lon="1.55214">
        <ele>119.492795</ele>
        <time>2023-09-17T10:39:15.424Z</time>
      </trkpt>
      <trkpt lat="43.79234" lon="1.55212">
        <ele>119.461071</ele>
        <time>2023-09-17T10:39:16.424Z</time>
      </trkpt>
      <trkpt lat="43.7924" lon="1.55209">
        <ele>119.42896</ele>
        <time>2023-09-17T10:39:17.424Z</time>
      </trkpt>
      <trkpt lat="43.7924" lon="1.55209">
        <ele>119.42896</ele>
        <time>2023-09-17T10:39:17.424Z</time>
      </trkpt>
      <trkpt lat="43.79246" lon="1.55207">
        <ele>119.397513</ele>
        <time>2023-09-17T10:39:17.424Z</time>
      </trkpt>
      <trkpt lat="43.79252" lon="1.55205">
        <ele>119.366067</ele>
        <time>2023-09-17T10:39:19.424Z</time>
      </trkpt>
      <trkpt lat="43.79258" lon="1.55203">
        <ele>119.332896</ele>
        <time>2023-09-17T10:39:19.424Z</time>
      </trkpt>
      <trkpt lat="43.79265" lon="1.552">
        <ele>119.300591</ele>
        <time>2023-09-17T10:39:21.424Z</time>
      </trkpt>
      <trkpt lat="43.79265" lon="1.552">
        <ele>119.300591</ele>
        <time>2023-09-17T10:39:21.424Z</time>
      </trkpt>
      <trkpt lat="43.79271" lon="1.55198">
        <ele>119.256138</ele>
        <time>2023-09-17T10:39:21.424Z</time>
      </trkpt>
      <trkpt lat="43.79277" lon="1.55195">
        <ele>119.185972</ele>
        <time>2023-09-17T10:39:23.424Z</time>
      </trkpt>
      <trkpt lat="43.79284" lon="1.55193">
        <ele>119.115202</ele>
        <time>2023-09-17T10:39:23.424Z</time>
      </trkpt>
      <trkpt lat="43.7929" lon="1.55191">
        <ele>119.048889</ele>
        <time>2023-09-17T10:39:25.424Z</time>
      </trkpt>
      <trkpt lat="43.79296" lon="1.55188">
        <ele>118.978119</ele>
        <time>2023-09-17T10:39:25.424Z</time>
      </trkpt>
      <trkpt lat="43.79303" lon="1.55186">
        <ele>118.903086</ele>
        <time>2023-09-17T10:39:27.424Z</time>
      </trkpt>
      <trkpt lat="43.79303" lon="1.55186">
        <ele>118.903086</ele>
        <time>2023-09-17T10:39:27.424Z</time>
      </trkpt>
      <trkpt lat="43.79309" lon="1.55183">
        <ele>118.836162</ele>
        <time>2023-09-17T10:39:28.424Z</time>
      </trkpt>
      <trkpt lat="43.79316" lon="1.55181">
        <ele>118.764772</ele>
        <time>2023-09-17T10:39:29.424Z</time>
      </trkpt>
      <trkpt lat="43.79322" lon="1.55178">
        <ele>118.69316</ele>
        <time>2023-09-17T10:39:30.424Z</time>
      </trkpt>
      <trkpt lat="43.79322" lon="1.55178">
        <ele>118.69316</ele>
        <time>2023-09-17T10:39:30.424Z</time>
      </trkpt>
      <trkpt lat="43.79329" lon="1.55175">
        <ele>118.617606</ele>
        <time>2023-09-17T10:39:31.424Z</time>
      </trkpt>
      <trkpt lat="43.79335" lon="1.55172">
        <ele>118.553184</ele>
        <time>2023-09-17T10:39:32.424Z</time>
      </trkpt>
      <trkpt lat="43.79342" lon="1.55168">
        <ele>118.475345</ele>
        <time>2023-09-17T10:39:33.424Z</time>
      </trkpt>
      <trkpt lat="43.79342" lon="1.55168">
        <ele>118.475345</ele>
        <time>2023-09-17T10:39:33.424Z</time>
      </trkpt>
      <trkpt lat="43.79348" lon="1.55164">
        <ele>118.404981</ele>
        <time>2023-09-17T10:39:34.424Z</time>
      </trkpt>
      <trkpt lat="43.79353" lon="1.5516">
        <ele>118.338432</ele>
        <time>2023-09-17T10:39:35.424Z</time>
      </trkpt>
      <trkpt lat="43.79353" lon="1.5516">
        <ele>118.338432</ele>
        <time>2023-09-17T10:39:35.424Z</time>
      </trkpt>
      <trkpt lat="43.7936" lon="1.55156">
        <ele>118.261295</ele>
        <time>2023-09-17T10:39:36.424Z</time>
      </trkpt>
      <trkpt lat="43.79366" lon="1.55151">
        <ele>118.193014</ele>
        <time>2023-09-17T10:39:37.424Z</time>
      </trkpt>
      <trkpt lat="43.79366" lon="1.55151">
        <ele>118.193014</ele>
        <time>2023-09-17T10:39:37.424Z</time>
      </trkpt>
      <trkpt lat="43.79371" lon="1.55147">
        <ele>118.122324</ele>
        <time>2023-09-17T10:39:38.424Z</time>
      </trkpt>
      <trkpt lat="43.79371" lon="1.55147">
        <ele>118.122324</ele>
        <time>2023-09-17T10:39:38.424Z</time>
      </trkpt>
      <trkpt lat="43.79377" lon="1.55142">
        <ele>118.051347</ele>
        <time>2023-09-17T10:39:39.424Z</time>
      </trkpt>
      <trkpt lat="43.79377" lon="1.55142">
        <ele>118.051347</ele>
        <time>2023-09-17T10:39:39.424Z</time>
      </trkpt>
      <trkpt lat="43.79382" lon="1.55136">
        <ele>117.986869</ele>
        <time>2023-09-17T10:39:40.424Z</time>
      </trkpt>
      <trkpt lat="43.79387" lon="1.55131">
        <ele>117.918538</ele>
        <time>2023-09-17T10:39:41.424Z</time>
      </trkpt>
      <trkpt lat="43.79393" lon="1.55126">
        <ele>117.850213</ele>
        <time>2023-09-17T10:39:42.424Z</time>
      </trkpt>
      <trkpt lat="43.79393" lon="1.55126">
        <ele>117.850213</ele>
        <time>2023-09-17T10:39:42.424Z</time>
      </trkpt>
      <trkpt lat="43.79398" lon="1.55121">
        <ele>117.78578</ele>
        <time>2023-09-17T10:39:43.424Z</time>
      </trkpt>
      <trkpt lat="43.79403" lon="1.55116">
        <ele>117.713133</ele>
        <time>2023-09-17T10:39:44.424Z</time>
      </trkpt>
      <trkpt lat="43.79403" lon="1.55116">
        <ele>117.713133</ele>
        <time>2023-09-17T10:39:44.424Z</time>
      </trkpt>
      <trkpt lat="43.79409" lon="1.5511">
        <ele>117.643009</ele>
        <time>2023-09-17T10:39:45.424Z</time>
      </trkpt>
      <trkpt lat="43.79414" lon="1.55105">
        <ele>117.576775</ele>
        <time>2023-09-17T10:39:46.424Z</time>
      </trkpt>
      <trkpt lat="43.79419" lon="1.551">
        <ele>117.507561</ele>
        <time>2023-09-17T10:39:47.424Z</time>
      </trkpt>
      <trkpt lat="43.79419" lon="1.551">
        <ele>117.507561</ele>
        <time>2023-09-17T10:39:47.424Z</time>
      </trkpt>
      <trkpt lat="43.79424" lon="1.55095">
        <ele>117.442687</ele>
        <time>2023-09-17T10:39:48.424Z</time>
      </trkpt>
      <trkpt lat="43.7943" lon="1.55089">
        <ele>117.390218</ele>
        <time>2023-09-17T10:39:49.424Z</time>
      </trkpt>
      <trkpt lat="43.79435" lon="1.55084">
        <ele>117.397486</ele>
        <time>2023-09-17T10:39:50.424Z</time>
      </trkpt>
      <trkpt lat="43.7944" lon="1.55078">
        <ele>117.404621</ele>
        <time>2023-09-17T10:39:51.424Z</time>
      </trkpt>
      <trkpt lat="43.7944" lon="1.55078">
        <ele>117.404621</ele>
        <time>2023-09-17T10:39:51.424Z</time>
      </trkpt>
      <trkpt lat="43.79446" lon="1.55073">
        <ele>117.411663</ele>
        <time>2023-09-17T10:39:52.424Z</time>
      </trkpt>
      <trkpt lat="43.79451" lon="1.55068">
        <ele>117.41866</ele>
        <time>2023-09-17T10:39:53.424Z</time>
      </trkpt>
      <trkpt lat="43.79456" lon="1.55062">
        <ele>117.425889</ele>
        <time>2023-09-17T10:39:54.424Z</time>
      </trkpt>
      <trkpt lat="43.79462" lon="1.55057">
        <ele>117.43302</ele>
        <time>2023-09-17T10:39:55.424Z</time>
      </trkpt>
      <trkpt lat="43.79467" lon="1.55052">
        <ele>117.439928</ele>
        <time>2023-09-17T10:39:56.424Z</time>
      </trkpt>
      <trkpt lat="43.79472" lon="1.55047">
        <ele>117.446926</ele>
        <time>2023-09-17T10:39:57.424Z</time>
      </trkpt>
      <trkpt lat="43.79477" lon="1.55042">
        <ele>117.45357</ele>
        <time>2023-09-17T10:39:58.424Z</time>
      </trkpt>
      <trkpt lat="43.79483" lon="1.55036">
        <ele>117.460752</ele>
        <time>2023-09-17T10:39:59.424Z</time>
      </trkpt>
      <trkpt lat="43.79488" lon="1.55031">
        <ele>117.467351</ele>
        <time>2023-09-17T10:40:00.424Z</time>
      </trkpt>
      <trkpt lat="43.79493" lon="1.55026">
        <ele>117.474087</ele>
        <time>2023-09-17T10:40:01.424Z</time>
      </trkpt>
      <trkpt lat="43.79498" lon="1.55021">
        <ele>117.48113</ele>
        <time>2023-09-17T10:40:02.424Z</time>
      </trkpt>
      <trkpt lat="43.79503" lon="1.55016">
        <ele>117.487774</ele>
        <time>2023-09-17T10:40:03.424Z</time>
      </trkpt>
      <trkpt lat="43.79503" lon="1.55016">
        <ele>117.487774</ele>
        <time>2023-09-17T10:40:03.424Z</time>
      </trkpt>
      <trkpt lat="43.79508" lon="1.55011">
        <ele>117.494285</ele>
        <time>2023-09-17T10:40:04.424Z</time>
      </trkpt>
      <trkpt lat="43.79513" lon="1.55005">
        <ele>117.501461</ele>
        <time>2023-09-17T10:40:05.424Z</time>
      </trkpt>
      <trkpt lat="43.79518" lon="1.55">
        <ele>117.508064</ele>
        <time>2023-09-17T10:40:06.424Z</time>
      </trkpt>
      <trkpt lat="43.79523" lon="1.54995">
        <ele>117.514663</ele>
        <time>2023-09-17T10:40:07.424Z</time>
      </trkpt>
      <trkpt lat="43.79528" lon="1.5499">
        <ele>117.52166</ele>
        <time>2023-09-17T10:40:08.424Z</time>
      </trkpt>
      <trkpt lat="43.79534" lon="1.54985">
        <ele>117.528702</ele>
        <time>2023-09-17T10:40:09.424Z</time>
      </trkpt>
      <trkpt lat="43.79539" lon="1.5498">
        <ele>117.535745</ele>
        <time>2023-09-17T10:40:10.424Z</time>
      </trkpt>
      <trkpt lat="43.79544" lon="1.54975">
        <ele>117.542742</ele>
        <time>2023-09-17T10:40:11.424Z</time>
      </trkpt>
      <trkpt lat="43.7955" lon="1.54969">
        <ele>117.549828</ele>
        <time>2023-09-17T10:40:12.424Z</time>
      </trkpt>
      <trkpt lat="43.7955" lon="1.54969">
        <ele>117.549828</ele>
        <time>2023-09-17T10:40:12.424Z</time>
      </trkpt>
      <trkpt lat="43.79555" lon="1.54964">
        <ele>117.556472</ele>
        <time>2023-09-17T10:40:13.424Z</time>
      </trkpt>
      <trkpt lat="43.79561" lon="1.54959">
        <ele>117.564001</ele>
        <time>2023-09-17T10:40:14.424Z</time>
      </trkpt>
      <trkpt lat="43.79565" lon="1.54954">
        <ele>117.570558</ele>
        <time>2023-09-17T10:40:15.424Z</time>
      </trkpt>
      <trkpt lat="43.79571" lon="1.54948">
        <ele>117.578175</ele>
        <time>2023-09-17T10:40:16.424Z</time>
      </trkpt>
      <trkpt lat="43.79571" lon="1.54948">
        <ele>117.578175</ele>
        <time>2023-09-17T10:40:16.424Z</time>
      </trkpt>
      <trkpt lat="43.79576" lon="1.54943">
        <ele>117.595824</ele>
        <time>2023-09-17T10:40:17.424Z</time>
      </trkpt>
      <trkpt lat="43.79582" lon="1.54938">
        <ele>117.634623</ele>
        <time>2023-09-17T10:40:18.424Z</time>
      </trkpt>
      <trkpt lat="43.79587" lon="1.54932">
        <ele>117.671587</ele>
        <time>2023-09-17T10:40:19.424Z</time>
      </trkpt>
      <trkpt lat="43.79593" lon="1.54927">
        <ele>117.706955</ele>
        <time>2023-09-17T10:40:20.424Z</time>
      </trkpt>
      <trkpt lat="43.79593" lon="1.54927">
        <ele>117.706955</ele>
        <time>2023-09-17T10:40:20.424Z</time>
      </trkpt>
      <trkpt lat="43.79598" lon="1.54923">
        <ele>117.744005</ele>
        <time>2023-09-17T10:40:21.424Z</time>
      </trkpt>
      <trkpt lat="43.79603" lon="1.54918">
        <ele>117.77709</ele>
        <time>2023-09-17T10:40:22.424Z</time>
      </trkpt>
      <trkpt lat="43.79603" lon="1.54918">
        <ele>117.77709</ele>
        <time>2023-09-17T10:40:22.424Z</time>
      </trkpt>
      <trkpt lat="43.79609" lon="1.54914">
        <ele>117.812963</ele>
        <time>2023-09-17T10:40:23.424Z</time>
      </trkpt>
      <trkpt lat="43.79615" lon="1.5491">
        <ele>117.851376</ele>
        <time>2023-09-17T10:40:24.424Z</time>
      </trkpt>
      <trkpt lat="43.79621" lon="1.54906">
        <ele>117.888734</ele>
        <time>2023-09-17T10:40:25.424Z</time>
      </trkpt>
      <trkpt lat="43.79627" lon="1.54903">
        <ele>117.925311</ele>
        <time>2023-09-17T10:40:26.424Z</time>
      </trkpt>
      <trkpt lat="43.79633" lon="1.549">
        <ele>117.961603</ele>
        <time>2023-09-17T10:40:27.424Z</time>
      </trkpt>
      <trkpt lat="43.79639" lon="1.54897">
        <ele>117.995779</ele>
        <time>2023-09-17T10:40:28.424Z</time>
      </trkpt>
      <trkpt lat="43.79645" lon="1.54894">
        <ele>118.029298</ele>
        <time>2023-09-17T10:40:29.424Z</time>
      </trkpt>
      <trkpt lat="43.79645" lon="1.54894">
        <ele>118.029298</ele>
        <time>2023-09-17T10:40:29.424Z</time>
      </trkpt>
      <trkpt lat="43.79651" lon="1.54892">
        <ele>118.066872</ele>
        <time>2023-09-17T10:40:30.424Z</time>
      </trkpt>
      <trkpt lat="43.79657" lon="1.5489">
        <ele>118.102183</ele>
        <time>2023-09-17T10:40:31.424Z</time>
      </trkpt>
      <trkpt lat="43.79664" lon="1.54887">
        <ele>118.13739</ele>
        <time>2023-09-17T10:40:32.424Z</time>
      </trkpt>
      <trkpt lat="43.7967" lon="1.54885">
        <ele>118.174764</ele>
        <time>2023-09-17T10:40:33.424Z</time>
      </trkpt>
      <trkpt lat="43.79676" lon="1.54883">
        <ele>118.209686</ele>
        <time>2023-09-17T10:40:34.424Z</time>
      </trkpt>
      <trkpt lat="43.79676" lon="1.54883">
        <ele>118.209686</ele>
        <time>2023-09-17T10:40:34.424Z</time>
      </trkpt>
      <trkpt lat="43.79682" lon="1.54882">
        <ele>118.242253</ele>
        <time>2023-09-17T10:40:35.424Z</time>
      </trkpt>
      <trkpt lat="43.79706" lon="1.54885">
        <ele>118</ele>
      </trkpt>
      <trkpt lat="43.79753" lon="1.54988">
        <ele>117</ele>
      </trkpt>
      <trkpt lat="43.79868" lon="1.55152">
        <ele>115</ele>
      </trkpt>
      <trkpt lat="43.79903" lon="1.552">
        <ele>117.810593</ele>
        <time>2023-09-17T10:46:23.424Z</time>
      </trkpt>
      <trkpt lat="43.79903" lon="1.552">
        <ele>117.810593</ele>
        <time>2023-09-17T10:46:23.424Z</time>
      </trkpt>
      <trkpt lat="43.79905" lon="1.55201">
        <ele>117.797147</ele>
        <time>2023-09-17T10:46:23.424Z</time>
      </trkpt>
      <trkpt lat="43.79712" lon="1.55424">
        <ele>113</ele>
      </trkpt>
      <trkpt lat="43.79701" lon="1.55444">
        <ele>113</ele>
      </trkpt>
      <trkpt lat="43.79698" lon="1.55467">
        <ele>112.3</ele>
      </trkpt>
      <trkpt lat="43.79724" lon="1.55677">
        <ele>111.1</ele>
      </trkpt>
      <trkpt lat="43.79729" lon="1.55758">
        <ele>111.2</ele>
      </trkpt>
      <trkpt lat="43.79702" lon="1.55844">
        <ele>110.3</ele>
      </trkpt>
      <trkpt lat="43.79683" lon="1.55905">
        <ele>110.9</ele>
      </trkpt>
      <trkpt lat="43.79682" lon="1.55929">
        <ele>111.1</ele>
      </trkpt>
      <trkpt lat="43.79663" lon="1.55909">
        <ele>111.8</ele>
      </trkpt>
      <trkpt lat="43.79606" lon="1.5582">
        <ele>112.6</ele>
      </trkpt>
      <trkpt lat="43.79427" lon="1.55897">
        <ele>117.6</ele>
      </trkpt>
      <trkpt lat="43.79245" lon="1.55976">
        <ele>119</ele>
      </trkpt>
      <trkpt lat="43.79209" lon="1.55989">
        <ele>119</ele>
      </trkpt>
      <trkpt lat="43.79018" lon="1.56087">
        <ele>119</ele>
      </trkpt>
      <trkpt lat="43.78955" lon="1.56162">
        <ele>119</ele>
      </trkpt>
      <trkpt lat="43.79079" lon="1.56317">
        <ele>120</ele>
      </trkpt>
      <trkpt lat="43.79255" lon="1.56492">
        <ele>116.4</ele>
      </trkpt>
      <trkpt lat="43.79202" lon="1.56572">
        <ele>116.2</ele>
      </trkpt>
      <trkpt lat="43.79177" lon="1.56628">
        <ele>115.8</ele>
      </trkpt>
      <trkpt lat="43.7903" lon="1.5685">
        <ele>110.726854</ele>
        <time>2023-09-17T11:04:38.424Z</time>
      </trkpt>
      <trkpt lat="43.7903" lon="1.5685">
        <ele>110.726854</ele>
        <time>2023-09-17T11:04:38.424Z</time>
      </trkpt>
      <trkpt lat="43.79029" lon="1.56849">
        <ele>110.787282</ele>
        <time>2023-09-17T11:04:39.424Z</time>
      </trkpt>
      <trkpt lat="43.79029" lon="1.56849">
        <ele>110.787282</ele>
        <time>2023-09-17T11:04:39.424Z</time>
      </trkpt>
      <trkpt lat="43.79029" lon="1.56848">
        <ele>110.818549</ele>
        <time>2023-09-17T11:04:40.424Z</time>
      </trkpt>
      <trkpt lat="43.79029" lon="1.56848">
        <ele>110.818549</ele>
        <time>2023-09-17T11:04:40.424Z</time>
      </trkpt>
      <trkpt lat="43.79029" lon="1.56848">
        <ele>110.818549</ele>
        <time>2023-09-17T11:04:41.424Z</time>
      </trkpt>
      <trkpt lat="43.79027" lon="1.56848">
        <ele>110.89074</ele>
        <time>2023-09-17T11:04:42.424Z</time>
      </trkpt>
      <trkpt lat="43.79027" lon="1.56848">
        <ele>110.89074</ele>
        <time>2023-09-17T11:04:42.424Z</time>
      </trkpt>
      <trkpt lat="43.79027" lon="1.56848">
        <ele>110.89074</ele>
        <time>2023-09-17T11:04:43.424Z</time>
      </trkpt>
      <trkpt lat="43.79026" lon="1.56851">
        <ele>110.982255</ele>
        <time>2023-09-17T11:04:45.424Z</time>
      </trkpt>
      <trkpt lat="43.79028" lon="1.56851">
        <ele>111.027801</ele>
        <time>2023-09-17T11:04:47.424Z</time>
      </trkpt>
      <trkpt lat="43.79028" lon="1.56851">
        <ele>111.027801</ele>
        <time>2023-09-17T11:04:47.424Z</time>
      </trkpt>
      <trkpt lat="43.79028" lon="1.56851">
        <ele>111.054462</ele>
        <time>2023-09-17T11:04:48.424Z</time>
      </trkpt>
      <trkpt lat="43.7903" lon="1.5685">
        <ele>111.108977</ele>
        <time>2023-09-17T11:04:49.424Z</time>
      </trkpt>
      <trkpt lat="43.7903" lon="1.5685">
        <ele>111.108977</ele>
        <time>2023-09-17T11:04:49.424Z</time>
      </trkpt>
      <trkpt lat="43.79028" lon="1.5685">
        <ele>111.578758</ele>
        <time>2023-09-17T11:05:14.424Z</time>
      </trkpt>
      <trkpt lat="43.79026" lon="1.56855">
        <ele>111.728474</ele>
        <time>2023-09-17T11:05:16.424Z</time>
      </trkpt>
      <trkpt lat="43.79023" lon="1.56861">
        <ele>111.945798</ele>
        <time>2023-09-17T11:05:18.424Z</time>
      </trkpt>
      <trkpt lat="43.79021" lon="1.56866">
        <ele>112.09437</ele>
        <time>2023-09-17T11:05:19.424Z</time>
      </trkpt>
      <trkpt lat="43.79019" lon="1.56869">
        <ele>112.209813</ele>
        <time>2023-09-17T11:05:20.424Z</time>
      </trkpt>
      <trkpt lat="43.79017" lon="1.56873">
        <ele>112.356179</ele>
        <time>2023-09-17T11:05:22.424Z</time>
      </trkpt>
      <trkpt lat="43.79017" lon="1.56873">
        <ele>112.356179</ele>
        <time>2023-09-17T11:05:22.424Z</time>
      </trkpt>
      <trkpt lat="43.79015" lon="1.56878">
        <ele>112.496402</ele>
        <time>2023-09-17T11:05:22.424Z</time>
      </trkpt>
      <trkpt lat="43.79012" lon="1.56883">
        <ele>112.667877</ele>
        <time>2023-09-17T11:05:24.424Z</time>
      </trkpt>
      <trkpt lat="43.79012" lon="1.56883">
        <ele>112.667877</ele>
        <time>2023-09-17T11:05:24.424Z</time>
      </trkpt>
      <trkpt lat="43.79011" lon="1.56886">
        <ele>112.772227</ele>
        <time>2023-09-17T11:05:25.424Z</time>
      </trkpt>
      <trkpt lat="43.79008" lon="1.56891">
        <ele>112.934372</ele>
        <time>2023-09-17T11:05:26.424Z</time>
      </trkpt>
      <trkpt lat="43.79008" lon="1.56891">
        <ele>112.934372</ele>
        <time>2023-09-17T11:05:26.424Z</time>
      </trkpt>
      <trkpt lat="43.79004" lon="1.569">
        <ele>113.235964</ele>
        <time>2023-09-17T11:05:28.424Z</time>
      </trkpt>
      <trkpt lat="43.79004" lon="1.569">
        <ele>113.235964</ele>
        <time>2023-09-17T11:05:28.424Z</time>
      </trkpt>
      <trkpt lat="43.79001" lon="1.56904">
        <ele>113.373695</ele>
        <time>2023-09-17T11:05:28.424Z</time>
      </trkpt>
      <trkpt lat="43.79001" lon="1.56904">
        <ele>113.373695</ele>
        <time>2023-09-17T11:05:28.424Z</time>
      </trkpt>
      <trkpt lat="43.78999" lon="1.56907">
        <ele>113.49566</ele>
        <time>2023-09-17T11:05:30.424Z</time>
      </trkpt>
      <trkpt lat="43.78999" lon="1.56907">
        <ele>113.49566</ele>
        <time>2023-09-17T11:05:30.424Z</time>
      </trkpt>
      <trkpt lat="43.78994" lon="1.56916">
        <ele>113.79745</ele>
        <time>2023-09-17T11:05:32.424Z</time>
      </trkpt>
      <trkpt lat="43.78994" lon="1.56916">
        <ele>113.79745</ele>
        <time>2023-09-17T11:05:32.424Z</time>
      </trkpt>
      <trkpt lat="43.78992" lon="1.56921">
        <ele>113.946023</ele>
        <time>2023-09-17T11:05:33.424Z</time>
      </trkpt>
      <trkpt lat="43.78992" lon="1.56921">
        <ele>113.946023</ele>
        <time>2023-09-17T11:05:33.424Z</time>
      </trkpt>
      <trkpt lat="43.7899" lon="1.56924">
        <ele>114.063617</ele>
        <time>2023-09-17T11:05:34.424Z</time>
      </trkpt>
      <trkpt lat="43.7899" lon="1.56924">
        <ele>114.063617</ele>
        <time>2023-09-17T11:05:34.424Z</time>
      </trkpt>
      <trkpt lat="43.78987" lon="1.5693">
        <ele>114.272471</ele>
        <time>2023-09-17T11:05:35.424Z</time>
      </trkpt>
      <trkpt lat="43.78987" lon="1.5693">
        <ele>114.272471</ele>
        <time>2023-09-17T11:05:35.424Z</time>
      </trkpt>
      <trkpt lat="43.78984" lon="1.56935">
        <ele>114.452397</ele>
        <time>2023-09-17T11:05:36.424Z</time>
      </trkpt>
      <trkpt lat="43.78984" lon="1.56935">
        <ele>114.452397</ele>
        <time>2023-09-17T11:05:36.424Z</time>
      </trkpt>
      <trkpt lat="43.78981" lon="1.56941">
        <ele>114.636572</ele>
        <time>2023-09-17T11:05:37.424Z</time>
      </trkpt>
      <trkpt lat="43.78981" lon="1.56941">
        <ele>114.636572</ele>
        <time>2023-09-17T11:05:37.424Z</time>
      </trkpt>
      <trkpt lat="43.78979" lon="1.56944">
        <ele>114.75634</ele>
        <time>2023-09-17T11:05:39.424Z</time>
      </trkpt>
      <trkpt lat="43.78979" lon="1.56944">
        <ele>114.75634</ele>
        <time>2023-09-17T11:05:39.424Z</time>
      </trkpt>
      <trkpt lat="43.78977" lon="1.56948">
        <ele>114.880523</ele>
        <time>2023-09-17T11:05:40.424Z</time>
      </trkpt>
      <trkpt lat="43.78977" lon="1.56948">
        <ele>114.880523</ele>
        <time>2023-09-17T11:05:40.424Z</time>
      </trkpt>
      <trkpt lat="43.78974" lon="1.56954">
        <ele>115.086994</ele>
        <time>2023-09-17T11:05:41.424Z</time>
      </trkpt>
      <trkpt lat="43.78974" lon="1.56954">
        <ele>115.086994</ele>
        <time>2023-09-17T11:05:41.424Z</time>
      </trkpt>
      <trkpt lat="43.78969" lon="1.56961">
        <ele>115.349953</ele>
        <time>2023-09-17T11:05:42.424Z</time>
      </trkpt>
      <trkpt lat="43.78969" lon="1.56961">
        <ele>115.349953</ele>
        <time>2023-09-17T11:05:42.424Z</time>
      </trkpt>
      <trkpt lat="43.78965" lon="1.56967">
        <ele>115.582487</ele>
        <time>2023-09-17T11:05:43.424Z</time>
      </trkpt>
      <trkpt lat="43.78961" lon="1.56973">
        <ele>115.800785</ele>
        <time>2023-09-17T11:05:45.424Z</time>
      </trkpt>
      <trkpt lat="43.78961" lon="1.56973">
        <ele>115.800785</ele>
        <time>2023-09-17T11:05:45.424Z</time>
      </trkpt>
      <trkpt lat="43.78958" lon="1.56978">
        <ele>115.99523</ele>
        <time>2023-09-17T11:05:46.424Z</time>
      </trkpt>
      <trkpt lat="43.78954" lon="1.56984">
        <ele>116.215591</ele>
        <time>2023-09-17T11:05:47.424Z</time>
      </trkpt>
      <trkpt lat="43.78954" lon="1.56984">
        <ele>116.215591</ele>
        <time>2023-09-17T11:05:47.424Z</time>
      </trkpt>
      <trkpt lat="43.78949" lon="1.56991">
        <ele>116.478365</ele>
        <time>2023-09-17T11:05:47.424Z</time>
      </trkpt>
      <trkpt lat="43.78949" lon="1.56991">
        <ele>116.478365</ele>
        <time>2023-09-17T11:05:47.424Z</time>
      </trkpt>
      <trkpt lat="43.78946" lon="1.56996">
        <ele>116.650473</ele>
        <time>2023-09-17T11:05:49.424Z</time>
      </trkpt>
      <trkpt lat="43.78942" lon="1.57002">
        <ele>116.870834</ele>
        <time>2023-09-17T11:05:50.424Z</time>
      </trkpt>
      <trkpt lat="43.78938" lon="1.57009">
        <ele>117.037301</ele>
        <time>2023-09-17T11:05:51.424Z</time>
      </trkpt>
      <trkpt lat="43.78938" lon="1.57009">
        <ele>117.037301</ele>
        <time>2023-09-17T11:05:51.424Z</time>
      </trkpt>
      <trkpt lat="43.78935" lon="1.57015">
        <ele>117.106201</ele>
        <time>2023-09-17T11:05:51.424Z</time>
      </trkpt>
      <trkpt lat="43.78931" lon="1.57021">
        <ele>117.175194</ele>
        <time>2023-09-17T11:05:53.424Z</time>
      </trkpt>
      <trkpt lat="43.78928" lon="1.57027">
        <ele>117.242558</ele>
        <time>2023-09-17T11:05:54.424Z</time>
      </trkpt>
      <trkpt lat="43.78926" lon="1.57033">
        <ele>117.307806</ele>
        <time>2023-09-17T11:05:55.424Z</time>
      </trkpt>
      <trkpt lat="43.78923" lon="1.5704">
        <ele>117.376249</ele>
        <time>2023-09-17T11:05:56.424Z</time>
      </trkpt>
      <trkpt lat="43.7892" lon="1.57047">
        <ele>117.448205</ele>
        <time>2023-09-17T11:05:57.424Z</time>
      </trkpt>
      <trkpt lat="43.78917" lon="1.57053">
        <ele>117.517821</ele>
        <time>2023-09-17T11:05:58.424Z</time>
      </trkpt>
      <trkpt lat="43.78917" lon="1.57053">
        <ele>117.517821</ele>
        <time>2023-09-17T11:05:58.424Z</time>
      </trkpt>
      <trkpt lat="43.78914" lon="1.57058">
        <ele>117.57937</ele>
        <time>2023-09-17T11:05:59.424Z</time>
      </trkpt>
      <trkpt lat="43.7891" lon="1.57064">
        <ele>117.649706</ele>
        <time>2023-09-17T11:06:00.424Z</time>
      </trkpt>
      <trkpt lat="43.78907" lon="1.5707">
        <ele>117.719402</ele>
        <time>2023-09-17T11:06:01.424Z</time>
      </trkpt>
      <trkpt lat="43.78904" lon="1.57076">
        <ele>117.786014</ele>
        <time>2023-09-17T11:06:02.424Z</time>
      </trkpt>
      <trkpt lat="43.78904" lon="1.57076">
        <ele>117.786014</ele>
        <time>2023-09-17T11:06:02.424Z</time>
      </trkpt>
      <trkpt lat="43.78901" lon="1.57082">
        <ele>117.852614</ele>
        <time>2023-09-17T11:06:03.424Z</time>
      </trkpt>
      <trkpt lat="43.78898" lon="1.57087">
        <ele>117.913382</ele>
        <time>2023-09-17T11:06:04.424Z</time>
      </trkpt>
      <trkpt lat="43.78898" lon="1.57087">
        <ele>117.913382</ele>
        <time>2023-09-17T11:06:04.424Z</time>
      </trkpt>
      <trkpt lat="43.78895" lon="1.57093">
        <ele>117.975603</ele>
        <time>2023-09-17T11:06:05.424Z</time>
      </trkpt>
      <trkpt lat="43.78893" lon="1.57099">
        <ele>118.037824</ele>
        <time>2023-09-17T11:06:06.424Z</time>
      </trkpt>
      <trkpt lat="43.7889" lon="1.57104">
        <ele>118.091167</ele>
        <time>2023-09-17T11:06:07.424Z</time>
      </trkpt>
      <trkpt lat="43.7889" lon="1.57104">
        <ele>118.091167</ele>
        <time>2023-09-17T11:06:07.424Z</time>
      </trkpt>
      <trkpt lat="43.78888" lon="1.57109">
        <ele>118.14997</ele>
        <time>2023-09-17T11:06:08.424Z</time>
      </trkpt>
      <trkpt lat="43.78885" lon="1.57115">
        <ele>118.212884</ele>
        <time>2023-09-17T11:06:09.424Z</time>
      </trkpt>
      <trkpt lat="43.78885" lon="1.57115">
        <ele>118.212884</ele>
        <time>2023-09-17T11:06:09.424Z</time>
      </trkpt>
      <trkpt lat="43.78883" lon="1.5712">
        <ele>118.266227</ele>
        <time>2023-09-17T11:06:10.424Z</time>
      </trkpt>
      <trkpt lat="43.78881" lon="1.57124">
        <ele>118.313021</ele>
        <time>2023-09-17T11:06:11.424Z</time>
      </trkpt>
      <trkpt lat="43.78877" lon="1.57132">
        <ele>118.400422</ele>
        <time>2023-09-17T11:06:12.424Z</time>
      </trkpt>
      <trkpt lat="43.78877" lon="1.57132">
        <ele>118.400422</ele>
        <time>2023-09-17T11:06:12.424Z</time>
      </trkpt>
      <trkpt lat="43.78874" lon="1.57138">
        <ele>118.461126</ele>
        <time>2023-09-17T11:06:13.424Z</time>
      </trkpt>
      <trkpt lat="43.78872" lon="1.57144">
        <ele>118.52643</ele>
        <time>2023-09-17T11:06:14.424Z</time>
      </trkpt>
      <trkpt lat="43.78872" lon="1.57144">
        <ele>118.52643</ele>
        <time>2023-09-17T11:06:14.424Z</time>
      </trkpt>
      <trkpt lat="43.78869" lon="1.57149">
        <ele>118.59155</ele>
        <time>2023-09-17T11:06:14.424Z</time>
      </trkpt>
      <trkpt lat="43.78867" lon="1.57153">
        <ele>118.632991</ele>
        <time>2023-09-17T11:06:16.424Z</time>
      </trkpt>
      <trkpt lat="43.78862" lon="1.57162">
        <ele>118.729218</ele>
        <time>2023-09-17T11:06:17.424Z</time>
      </trkpt>
      <trkpt lat="43.7886" lon="1.57167">
        <ele>118.785657</ele>
        <time>2023-09-17T11:06:18.424Z</time>
      </trkpt>
      <trkpt lat="43.7886" lon="1.57167">
        <ele>118.785657</ele>
        <time>2023-09-17T11:06:18.424Z</time>
      </trkpt>
      <trkpt lat="43.78857" lon="1.57171">
        <ele>118.835979</ele>
        <time>2023-09-17T11:06:19.424Z</time>
      </trkpt>
      <trkpt lat="43.78855" lon="1.57176">
        <ele>118.887801</ele>
        <time>2023-09-17T11:06:20.424Z</time>
      </trkpt>
      <trkpt lat="43.78855" lon="1.57176">
        <ele>118.887801</ele>
        <time>2023-09-17T11:06:20.424Z</time>
      </trkpt>
      <trkpt lat="43.78853" lon="1.57182">
        <ele>118.947399</ele>
        <time>2023-09-17T11:06:21.424Z</time>
      </trkpt>
      <trkpt lat="43.7885" lon="1.57187">
        <ele>119.006639</ele>
        <time>2023-09-17T11:06:22.424Z</time>
      </trkpt>
      <trkpt lat="43.78848" lon="1.57193">
        <ele>119.072724</ele>
        <time>2023-09-17T11:06:23.424Z</time>
      </trkpt>
      <trkpt lat="43.78845" lon="1.572">
        <ele>119.14196</ele>
        <time>2023-09-17T11:06:24.424Z</time>
      </trkpt>
      <trkpt lat="43.78842" lon="1.57206">
        <ele>119.2074</ele>
        <time>2023-09-17T11:06:25.424Z</time>
      </trkpt>
      <trkpt lat="43.7884" lon="1.57213">
        <ele>119.259983</ele>
        <time>2023-09-17T11:06:26.424Z</time>
      </trkpt>
      <trkpt lat="43.78836" lon="1.57219">
        <ele>119.216536</ele>
        <time>2023-09-17T11:06:27.424Z</time>
      </trkpt>
      <trkpt lat="43.78834" lon="1.57226">
        <ele>119.173621</ele>
        <time>2023-09-17T11:06:28.424Z</time>
      </trkpt>
      <trkpt lat="43.78834" lon="1.57226">
        <ele>119.173621</ele>
        <time>2023-09-17T11:06:28.424Z</time>
      </trkpt>
      <trkpt lat="43.78831" lon="1.57232">
        <ele>119.133716</ele>
        <time>2023-09-17T11:06:29.424Z</time>
      </trkpt>
      <trkpt lat="43.78828" lon="1.57238">
        <ele>119.093334</ele>
        <time>2023-09-17T11:06:30.424Z</time>
      </trkpt>
      <trkpt lat="43.78827" lon="1.57241">
        <ele>119.076527</ele>
        <time>2023-09-17T11:06:31.424Z</time>
      </trkpt>
      <trkpt lat="43.78822" lon="1.57254">
        <ele>118.992397</ele>
        <time>2023-09-17T11:06:32.424Z</time>
      </trkpt>
      <trkpt lat="43.78819" lon="1.57261">
        <ele>118.945997</ele>
        <time>2023-09-17T11:06:33.424Z</time>
      </trkpt>
      <trkpt lat="43.78818" lon="1.57264">
        <ele>118.928314</ele>
        <time>2023-09-17T11:06:34.424Z</time>
      </trkpt>
      <trkpt lat="43.78814" lon="1.57276">
        <ele>118.850912</ele>
        <time>2023-09-17T11:06:35.424Z</time>
      </trkpt>
      <trkpt lat="43.78811" lon="1.57284">
        <ele>118.805467</ele>
        <time>2023-09-17T11:06:36.424Z</time>
      </trkpt>
      <trkpt lat="43.78809" lon="1.57291">
        <ele>118.760218</ele>
        <time>2023-09-17T11:06:37.424Z</time>
      </trkpt>
      <trkpt lat="43.78807" lon="1.57298">
        <ele>118.719032</ele>
        <time>2023-09-17T11:06:38.424Z</time>
      </trkpt>
      <trkpt lat="43.78807" lon="1.57298">
        <ele>118.719032</ele>
        <time>2023-09-17T11:06:38.424Z</time>
      </trkpt>
      <trkpt lat="43.78804" lon="1.57305">
        <ele>118.675122</ele>
        <time>2023-09-17T11:06:39.424Z</time>
      </trkpt>
      <trkpt lat="43.78803" lon="1.57313">
        <ele>118.632793</ele>
        <time>2023-09-17T11:06:40.424Z</time>
      </trkpt>
      <trkpt lat="43.78803" lon="1.57313">
        <ele>118.632793</ele>
        <time>2023-09-17T11:06:40.424Z</time>
      </trkpt>
      <trkpt lat="43.78802" lon="1.57319">
        <ele>118.594835</ele>
        <time>2023-09-17T11:06:41.424Z</time>
      </trkpt>
      <trkpt lat="43.78801" lon="1.57327">
        <ele>118.549892</ele>
        <time>2023-09-17T11:06:42.424Z</time>
      </trkpt>
      <trkpt lat="43.78801" lon="1.57335">
        <ele>118.504612</ele>
        <time>2023-09-17T11:06:43.424Z</time>
      </trkpt>
      <trkpt lat="43.78801" lon="1.57335">
        <ele>118.504612</ele>
        <time>2023-09-17T11:06:43.424Z</time>
      </trkpt>
      <trkpt lat="43.788" lon="1.57343">
        <ele>118.459889</ele>
        <time>2023-09-17T11:06:44.424Z</time>
      </trkpt>
      <trkpt lat="43.788" lon="1.57343">
        <ele>118.459889</ele>
        <time>2023-09-17T11:06:44.424Z</time>
      </trkpt>
      <trkpt lat="43.78799" lon="1.57348">
        <ele>118.432958</ele>
        <time>2023-09-17T11:06:45.424Z</time>
      </trkpt>
      <trkpt lat="43.78799" lon="1.57348">
        <ele>118.432958</ele>
        <time>2023-09-17T11:06:45.424Z</time>
      </trkpt>
      <trkpt lat="43.78798" lon="1.57361">
        <ele>118.358986</ele>
        <time>2023-09-17T11:06:46.424Z</time>
      </trkpt>
      <trkpt lat="43.78798" lon="1.57361">
        <ele>118.358986</ele>
        <time>2023-09-17T11:06:46.424Z</time>
      </trkpt>
      <trkpt lat="43.78797" lon="1.57368">
        <ele>118.318469</ele>
        <time>2023-09-17T11:06:47.424Z</time>
      </trkpt>
      <trkpt lat="43.78797" lon="1.57368">
        <ele>118.318469</ele>
        <time>2023-09-17T11:06:47.424Z</time>
      </trkpt>
      <trkpt lat="43.78796" lon="1.57373">
        <ele>118.288817</ele>
        <time>2023-09-17T11:06:47.424Z</time>
      </trkpt>
      <trkpt lat="43.78796" lon="1.57373">
        <ele>118.288817</ele>
        <time>2023-09-17T11:06:47.424Z</time>
      </trkpt>
      <trkpt lat="43.78796" lon="1.57378">
        <ele>118.264052</ele>
        <time>2023-09-17T11:06:48.424Z</time>
      </trkpt>
      <trkpt lat="43.78796" lon="1.57378">
        <ele>118.264052</ele>
        <time>2023-09-17T11:06:48.424Z</time>
      </trkpt>
      <trkpt lat="43.78796" lon="1.57378">
        <ele>118.264052</ele>
        <time>2023-09-17T11:06:50.424Z</time>
      </trkpt>
      <trkpt lat="43.78794" lon="1.57382">
        <ele>118.239407</ele>
        <time>2023-09-17T11:06:50.424Z</time>
      </trkpt>
      <trkpt lat="43.78794" lon="1.57382">
        <ele>118.239407</ele>
        <time>2023-09-17T11:06:50.424Z</time>
      </trkpt>
      <trkpt lat="43.78794" lon="1.57383">
        <ele>118.232715</ele>
        <time>2023-09-17T11:06:52.424Z</time>
      </trkpt>
      <trkpt lat="43.78793" lon="1.57385">
        <ele>118.217328</ele>
        <time>2023-09-17T11:06:53.424Z</time>
      </trkpt>
      <trkpt lat="43.78793" lon="1.57385">
        <ele>118.217328</ele>
        <time>2023-09-17T11:06:53.424Z</time>
      </trkpt>
      <trkpt lat="43.78791" lon="1.57388">
        <ele>118.194649</ele>
        <time>2023-09-17T11:06:54.424Z</time>
      </trkpt>
      <trkpt lat="43.78791" lon="1.57388">
        <ele>118.194649</ele>
        <time>2023-09-17T11:06:54.424Z</time>
      </trkpt>
      <trkpt lat="43.7879" lon="1.5739">
        <ele>118.183331</ele>
        <time>2023-09-17T11:06:54.424Z</time>
      </trkpt>
      <trkpt lat="43.78787" lon="1.57399">
        <ele>118.124695</ele>
        <time>2023-09-17T11:06:57.424Z</time>
      </trkpt>
      <trkpt lat="43.78787" lon="1.57399">
        <ele>118.124695</ele>
        <time>2023-09-17T11:06:57.424Z</time>
      </trkpt>
      <trkpt lat="43.78785" lon="1.57403">
        <ele>118.098709</ele>
        <time>2023-09-17T11:06:58.424Z</time>
      </trkpt>
      <trkpt lat="43.78785" lon="1.57403">
        <ele>118.098709</ele>
        <time>2023-09-17T11:06:58.424Z</time>
      </trkpt>
      <trkpt lat="43.78782" lon="1.57408">
        <ele>118.064331</ele>
        <time>2023-09-17T11:06:59.424Z</time>
      </trkpt>
      <trkpt lat="43.7878" lon="1.57413">
        <ele>118.031265</ele>
        <time>2023-09-17T11:07:00.424Z</time>
      </trkpt>
      <trkpt lat="43.78775" lon="1.57423">
        <ele>117.96229</ele>
        <time>2023-09-17T11:07:02.424Z</time>
      </trkpt>
      <trkpt lat="43.78775" lon="1.57423">
        <ele>117.96229</ele>
        <time>2023-09-17T11:07:02.424Z</time>
      </trkpt>
      <trkpt lat="43.78772" lon="1.57429">
        <ele>117.922782</ele>
        <time>2023-09-17T11:07:03.424Z</time>
      </trkpt>
      <trkpt lat="43.78772" lon="1.57429">
        <ele>117.922782</ele>
        <time>2023-09-17T11:07:03.424Z</time>
      </trkpt>
      <trkpt lat="43.7877" lon="1.57434">
        <ele>117.888404</ele>
        <time>2023-09-17T11:07:05.424Z</time>
      </trkpt>
      <trkpt lat="43.78765" lon="1.57444">
        <ele>117.950464</ele>
        <time>2023-09-17T11:07:07.424Z</time>
      </trkpt>
      <trkpt lat="43.78764" lon="1.57448">
        <ele>117.978908</ele>
        <time>2023-09-17T11:07:08.424Z</time>
      </trkpt>
      <trkpt lat="43.78764" lon="1.57448">
        <ele>117.978908</ele>
        <time>2023-09-17T11:07:08.424Z</time>
      </trkpt>
      <trkpt lat="43.78761" lon="1.57451">
        <ele>118.015105</ele>
        <time>2023-09-17T11:07:09.424Z</time>
      </trkpt>
      <trkpt lat="43.78758" lon="1.57453">
        <ele>118.046033</ele>
        <time>2023-09-17T11:07:10.424Z</time>
      </trkpt>
      <trkpt lat="43.78756" lon="1.57455">
        <ele>118.07673</ele>
        <time>2023-09-17T11:07:11.424Z</time>
      </trkpt>
      <trkpt lat="43.78753" lon="1.57456">
        <ele>118.102098</ele>
        <time>2023-09-17T11:07:13.424Z</time>
      </trkpt>
      <trkpt lat="43.78753" lon="1.57456">
        <ele>118.102098</ele>
        <time>2023-09-17T11:07:13.424Z</time>
      </trkpt>
      <trkpt lat="43.7875" lon="1.57458">
        <ele>118.136512</ele>
        <time>2023-09-17T11:07:14.424Z</time>
      </trkpt>
      <trkpt lat="43.7875" lon="1.57458">
        <ele>118.136512</ele>
        <time>2023-09-17T11:07:14.424Z</time>
      </trkpt>
      <trkpt lat="43.78747" lon="1.57459">
        <ele>118.169693</ele>
        <time>2023-09-17T11:07:15.424Z</time>
      </trkpt>
      <trkpt lat="43.78744" lon="1.5746">
        <ele>118.206436</ele>
        <time>2023-09-17T11:07:16.424Z</time>
      </trkpt>
      <trkpt lat="43.78744" lon="1.5746">
        <ele>118.206436</ele>
        <time>2023-09-17T11:07:16.424Z</time>
      </trkpt>
      <trkpt lat="43.7874" lon="1.57461">
        <ele>118.241915</ele>
        <time>2023-09-17T11:07:17.424Z</time>
      </trkpt>
      <trkpt lat="43.7874" lon="1.57461">
        <ele>118.241915</ele>
        <time>2023-09-17T11:07:17.424Z</time>
      </trkpt>
      <trkpt lat="43.78738" lon="1.57461">
        <ele>118.270268</ele>
        <time>2023-09-17T11:07:18.424Z</time>
      </trkpt>
      <trkpt lat="43.78738" lon="1.57461">
        <ele>118.270268</ele>
        <time>2023-09-17T11:07:18.424Z</time>
      </trkpt>
      <trkpt lat="43.78734" lon="1.57462">
        <ele>118.305488</ele>
        <time>2023-09-17T11:07:20.424Z</time>
      </trkpt>
      <trkpt lat="43.78734" lon="1.57462">
        <ele>118.305488</ele>
        <time>2023-09-17T11:07:20.424Z</time>
      </trkpt>
      <trkpt lat="43.78732" lon="1.57462">
        <ele>118.333356</ele>
        <time>2023-09-17T11:07:21.424Z</time>
      </trkpt>
      <trkpt lat="43.78732" lon="1.57462">
        <ele>118.333356</ele>
        <time>2023-09-17T11:07:21.424Z</time>
      </trkpt>
      <trkpt lat="43.78729" lon="1.57462">
        <ele>118.36433</ele>
        <time>2023-09-17T11:07:22.424Z</time>
      </trkpt>
      <trkpt lat="43.78725" lon="1.57462">
        <ele>118.396336</ele>
        <time>2023-09-17T11:07:23.424Z</time>
      </trkpt>
      <trkpt lat="43.78725" lon="1.57462">
        <ele>118.396336</ele>
        <time>2023-09-17T11:07:23.424Z</time>
      </trkpt>
      <trkpt lat="43.78721" lon="1.57463">
        <ele>118.444682</ele>
        <time>2023-09-17T11:07:25.424Z</time>
      </trkpt>
      <trkpt lat="43.78721" lon="1.57463">
        <ele>118.444682</ele>
        <time>2023-09-17T11:07:25.424Z</time>
      </trkpt>
      <trkpt lat="43.78719" lon="1.57465">
        <ele>118.470921</ele>
        <time>2023-09-17T11:07:26.424Z</time>
      </trkpt>
      <trkpt lat="43.78719" lon="1.57465">
        <ele>118.470921</ele>
        <time>2023-09-17T11:07:26.424Z</time>
      </trkpt>
      <trkpt lat="43.78717" lon="1.57467">
        <ele>118.491735</ele>
        <time>2023-09-17T11:07:27.424Z</time>
      </trkpt>
      <trkpt lat="43.78717" lon="1.57467">
        <ele>118.491735</ele>
        <time>2023-09-17T11:07:27.424Z</time>
      </trkpt>
      <trkpt lat="43.78714" lon="1.57472">
        <ele>118.539609</ele>
        <time>2023-09-17T11:07:29.424Z</time>
      </trkpt>
      <trkpt lat="43.78713" lon="1.57476">
        <ele>118.574525</ele>
        <time>2023-09-17T11:07:30.424Z</time>
      </trkpt>
      <trkpt lat="43.78713" lon="1.57476">
        <ele>118.574525</ele>
        <time>2023-09-17T11:07:30.424Z</time>
      </trkpt>
      <trkpt lat="43.78711" lon="1.5748">
        <ele>118.606802</ele>
        <time>2023-09-17T11:07:31.424Z</time>
      </trkpt>
      <trkpt lat="43.78709" lon="1.57485">
        <ele>118.653584</ele>
        <time>2023-09-17T11:07:32.424Z</time>
      </trkpt>
      <trkpt lat="43.78709" lon="1.57485">
        <ele>118.653584</ele>
        <time>2023-09-17T11:07:32.424Z</time>
      </trkpt>
      <trkpt lat="43.78703" lon="1.57505">
        <ele>118.812276</ele>
        <time>2023-09-17T11:07:34.424Z</time>
      </trkpt>
      <trkpt lat="43.78703" lon="1.57505">
        <ele>118.812276</ele>
        <time>2023-09-17T11:07:34.424Z</time>
      </trkpt>
      <trkpt lat="43.78701" lon="1.5751">
        <ele>118.85438</ele>
        <time>2023-09-17T11:07:35.424Z</time>
      </trkpt>
      <trkpt lat="43.78701" lon="1.5751">
        <ele>118.85438</ele>
        <time>2023-09-17T11:07:35.424Z</time>
      </trkpt>
      <trkpt lat="43.787" lon="1.57514">
        <ele>118.886652</ele>
        <time>2023-09-17T11:07:36.424Z</time>
      </trkpt>
      <trkpt lat="43.787" lon="1.57514">
        <ele>118.886652</ele>
        <time>2023-09-17T11:07:36.424Z</time>
      </trkpt>
      <trkpt lat="43.78694" lon="1.5753">
        <ele>119.023267</ele>
        <time>2023-09-17T11:07:38.424Z</time>
      </trkpt>
      <trkpt lat="43.78694" lon="1.5753">
        <ele>119.023267</ele>
        <time>2023-09-17T11:07:38.424Z</time>
      </trkpt>
      <trkpt lat="43.78692" lon="1.57536">
        <ele>119.068491</ele>
        <time>2023-09-17T11:07:39.424Z</time>
      </trkpt>
      <trkpt lat="43.78692" lon="1.57536">
        <ele>119.068491</ele>
        <time>2023-09-17T11:07:39.424Z</time>
      </trkpt>
      <trkpt lat="43.78692" lon="1.57536">
        <ele>119.071471</ele>
        <time>2023-09-17T11:07:40.424Z</time>
      </trkpt>
      <trkpt lat="43.78689" lon="1.57547">
        <ele>119.161319</ele>
        <time>2023-09-17T11:07:41.424Z</time>
      </trkpt>
      <trkpt lat="43.78689" lon="1.57547">
        <ele>119.161319</ele>
        <time>2023-09-17T11:07:41.424Z</time>
      </trkpt>
      <trkpt lat="43.78682" lon="1.57562">
        <ele>119.289769</ele>
        <time>2023-09-17T11:07:42.424Z</time>
      </trkpt>
      <trkpt lat="43.7868" lon="1.57568">
        <ele>119.340011</ele>
        <time>2023-09-17T11:07:44.424Z</time>
      </trkpt>
      <trkpt lat="43.78678" lon="1.57571">
        <ele>119.372641</ele>
        <time>2023-09-17T11:07:45.424Z</time>
      </trkpt>
      <trkpt lat="43.78678" lon="1.57571">
        <ele>119.372641</ele>
        <time>2023-09-17T11:07:45.424Z</time>
      </trkpt>
      <trkpt lat="43.78676" lon="1.57575">
        <ele>119.409592</ele>
        <time>2023-09-17T11:07:46.424Z</time>
      </trkpt>
      <trkpt lat="43.78676" lon="1.57575">
        <ele>119.409592</ele>
        <time>2023-09-17T11:07:46.424Z</time>
      </trkpt>
      <trkpt lat="43.78674" lon="1.57579">
        <ele>119.447159</ele>
        <time>2023-09-17T11:07:47.424Z</time>
      </trkpt>
      <trkpt lat="43.78674" lon="1.57579">
        <ele>119.447159</ele>
        <time>2023-09-17T11:07:47.424Z</time>
      </trkpt>
      <trkpt lat="43.78671" lon="1.57585">
        <ele>119.495167</ele>
        <time>2023-09-17T11:07:48.424Z</time>
      </trkpt>
      <trkpt lat="43.78671" lon="1.57585">
        <ele>119.495167</ele>
        <time>2023-09-17T11:07:48.424Z</time>
      </trkpt>
      <trkpt lat="43.78669" lon="1.57591">
        <ele>119.543988</ele>
        <time>2023-09-17T11:07:50.424Z</time>
      </trkpt>
      <trkpt lat="43.78669" lon="1.57591">
        <ele>119.543988</ele>
        <time>2023-09-17T11:07:50.424Z</time>
      </trkpt>
      <trkpt lat="43.78669" lon="1.57597">
        <ele>119.587257</ele>
        <time>2023-09-17T11:07:51.424Z</time>
      </trkpt>
      <trkpt lat="43.78669" lon="1.57597">
        <ele>119.587257</ele>
        <time>2023-09-17T11:07:51.424Z</time>
      </trkpt>
      <trkpt lat="43.78668" lon="1.57603">
        <ele>119.635867</ele>
        <time>2023-09-17T11:07:52.424Z</time>
      </trkpt>
      <trkpt lat="43.78668" lon="1.57603">
        <ele>119.635867</ele>
        <time>2023-09-17T11:07:52.424Z</time>
      </trkpt>
      <trkpt lat="43.78668" lon="1.57609">
        <ele>119.683734</ele>
        <time>2023-09-17T11:07:53.424Z</time>
      </trkpt>
      <trkpt lat="43.78668" lon="1.57609">
        <ele>119.683734</ele>
        <time>2023-09-17T11:07:53.424Z</time>
      </trkpt>
      <trkpt lat="43.78668" lon="1.57613">
        <ele>119.713701</ele>
        <time>2023-09-17T11:07:54.424Z</time>
      </trkpt>
      <trkpt lat="43.78668" lon="1.57613">
        <ele>119.713701</ele>
        <time>2023-09-17T11:07:54.424Z</time>
      </trkpt>
      <trkpt lat="43.78667" lon="1.57618">
        <ele>119.754414</ele>
        <time>2023-09-17T11:07:55.424Z</time>
      </trkpt>
      <trkpt lat="43.78665" lon="1.57628">
        <ele>119.870691</ele>
        <time>2023-09-17T11:07:57.424Z</time>
      </trkpt>
      <trkpt lat="43.78665" lon="1.57628">
        <ele>119.870691</ele>
        <time>2023-09-17T11:07:57.424Z</time>
      </trkpt>
      <trkpt lat="43.78663" lon="1.57639">
        <ele>119.995464</ele>
        <time>2023-09-17T11:07:58.424Z</time>
      </trkpt>
      <trkpt lat="43.78663" lon="1.57639">
        <ele>119.995464</ele>
        <time>2023-09-17T11:07:58.424Z</time>
      </trkpt>
      <trkpt lat="43.78661" lon="1.57647">
        <ele>120.084969</ele>
        <time>2023-09-17T11:07:59.424Z</time>
      </trkpt>
      <trkpt lat="43.78659" lon="1.57654">
        <ele>120.16779</ele>
        <time>2023-09-17T11:08:00.424Z</time>
      </trkpt>
      <trkpt lat="43.78659" lon="1.57654">
        <ele>120.16779</ele>
        <time>2023-09-17T11:08:00.424Z</time>
      </trkpt>
      <trkpt lat="43.78658" lon="1.57659">
        <ele>120.222872</ele>
        <time>2023-09-17T11:08:01.424Z</time>
      </trkpt>
      <trkpt lat="43.78655" lon="1.57671">
        <ele>120.360217</ele>
        <time>2023-09-17T11:08:02.424Z</time>
      </trkpt>
      <trkpt lat="43.78653" lon="1.5768">
        <ele>120.466244</ele>
        <time>2023-09-17T11:08:03.424Z</time>
      </trkpt>
      <trkpt lat="43.78653" lon="1.5768">
        <ele>120.466244</ele>
        <time>2023-09-17T11:08:03.424Z</time>
      </trkpt>
      <trkpt lat="43.7865" lon="1.57688">
        <ele>120.567816</ele>
        <time>2023-09-17T11:08:04.424Z</time>
      </trkpt>
      <trkpt lat="43.78648" lon="1.57695">
        <ele>120.644517</ele>
        <time>2023-09-17T11:08:05.424Z</time>
      </trkpt>
      <trkpt lat="43.78648" lon="1.57695">
        <ele>120.644517</ele>
        <time>2023-09-17T11:08:05.424Z</time>
      </trkpt>
      <trkpt lat="43.78645" lon="1.5771">
        <ele>120.811483</ele>
        <time>2023-09-17T11:08:06.424Z</time>
      </trkpt>
      <trkpt lat="43.78645" lon="1.57718">
        <ele>120.899625</ele>
        <time>2023-09-17T11:08:06.424Z</time>
      </trkpt>
      <trkpt lat="43.78643" lon="1.57725">
        <ele>120.983069</ele>
        <time>2023-09-17T11:08:08.424Z</time>
      </trkpt>
      <trkpt lat="43.78642" lon="1.57732">
        <ele>121.068191</ele>
        <time>2023-09-17T11:08:09.424Z</time>
      </trkpt>
      <trkpt lat="43.78642" lon="1.57732">
        <ele>121.068191</ele>
        <time>2023-09-17T11:08:09.424Z</time>
      </trkpt>
      <trkpt lat="43.7864" lon="1.57739">
        <ele>121.147008</ele>
        <time>2023-09-17T11:08:10.424Z</time>
      </trkpt>
      <trkpt lat="43.78638" lon="1.57747">
        <ele>121.234978</ele>
        <time>2023-09-17T11:08:11.424Z</time>
      </trkpt>
      <trkpt lat="43.78638" lon="1.57747">
        <ele>121.234978</ele>
        <time>2023-09-17T11:08:11.424Z</time>
      </trkpt>
      <trkpt lat="43.78636" lon="1.57754">
        <ele>121.321914</ele>
        <time>2023-09-17T11:08:11.424Z</time>
      </trkpt>
      <trkpt lat="43.78634" lon="1.57761">
        <ele>121.402688</ele>
        <time>2023-09-17T11:08:13.424Z</time>
      </trkpt>
      <trkpt lat="43.78632" lon="1.57768">
        <ele>121.478377</ele>
        <time>2023-09-17T11:08:13.424Z</time>
      </trkpt>
      <trkpt lat="43.7863" lon="1.57774">
        <ele>121.558536</ele>
        <time>2023-09-17T11:08:15.424Z</time>
      </trkpt>
      <trkpt lat="43.7863" lon="1.57774">
        <ele>121.558536</ele>
        <time>2023-09-17T11:08:15.424Z</time>
      </trkpt>
      <trkpt lat="43.78629" lon="1.57781">
        <ele>121.632616</ele>
        <time>2023-09-17T11:08:16.424Z</time>
      </trkpt>
      <trkpt lat="43.78626" lon="1.57787">
        <ele>121.708178</ele>
        <time>2023-09-17T11:08:17.424Z</time>
      </trkpt>
      <trkpt lat="43.78626" lon="1.57787">
        <ele>121.708178</ele>
        <time>2023-09-17T11:08:17.424Z</time>
      </trkpt>
      <trkpt lat="43.78623" lon="1.57794">
        <ele>121.803119</ele>
        <time>2023-09-17T11:08:18.424Z</time>
      </trkpt>
      <trkpt lat="43.78623" lon="1.57794">
        <ele>121.803119</ele>
        <time>2023-09-17T11:08:18.424Z</time>
      </trkpt>
      <trkpt lat="43.78619" lon="1.578">
        <ele>121.88741</ele>
        <time>2023-09-17T11:08:19.424Z</time>
      </trkpt>
      <trkpt lat="43.78616" lon="1.57806">
        <ele>121.966609</ele>
        <time>2023-09-17T11:08:20.424Z</time>
      </trkpt>
      <trkpt lat="43.78616" lon="1.57806">
        <ele>121.966609</ele>
        <time>2023-09-17T11:08:20.424Z</time>
      </trkpt>
      <trkpt lat="43.78612" lon="1.57811">
        <ele>122.052506</ele>
        <time>2023-09-17T11:08:21.424Z</time>
      </trkpt>
      <trkpt lat="43.78608" lon="1.57818">
        <ele>122.151008</ele>
        <time>2023-09-17T11:08:22.424Z</time>
      </trkpt>
      <trkpt lat="43.78608" lon="1.57818">
        <ele>122.151008</ele>
        <time>2023-09-17T11:08:22.424Z</time>
      </trkpt>
      <trkpt lat="43.78604" lon="1.57825">
        <ele>122.246858</ele>
        <time>2023-09-17T11:08:23.424Z</time>
      </trkpt>
      <trkpt lat="43.78602" lon="1.57831">
        <ele>122.31852</ele>
        <time>2023-09-17T11:08:24.424Z</time>
      </trkpt>
      <trkpt lat="43.78602" lon="1.57831">
        <ele>122.31852</ele>
        <time>2023-09-17T11:08:24.424Z</time>
      </trkpt>
      <trkpt lat="43.78599" lon="1.57836">
        <ele>122.38899</ele>
        <time>2023-09-17T11:08:25.424Z</time>
      </trkpt>
      <trkpt lat="43.78596" lon="1.57842">
        <ele>122.464872</ele>
        <time>2023-09-17T11:08:26.424Z</time>
      </trkpt>
      <trkpt lat="43.78592" lon="1.57847">
        <ele>122.508436</ele>
        <time>2023-09-17T11:08:27.424Z</time>
      </trkpt>
      <trkpt lat="43.7859" lon="1.57852">
        <ele>122.54561</ele>
        <time>2023-09-17T11:08:28.424Z</time>
      </trkpt>
      <trkpt lat="43.7859" lon="1.57852">
        <ele>122.54561</ele>
        <time>2023-09-17T11:08:28.424Z</time>
      </trkpt>
      <trkpt lat="43.78587" lon="1.57858">
        <ele>122.58524</ele>
        <time>2023-09-17T11:08:29.424Z</time>
      </trkpt>
      <trkpt lat="43.78583" lon="1.57863">
        <ele>122.62979</ele>
        <time>2023-09-17T11:08:30.424Z</time>
      </trkpt>
      <trkpt lat="43.78583" lon="1.57863">
        <ele>122.62979</ele>
        <time>2023-09-17T11:08:30.424Z</time>
      </trkpt>
      <trkpt lat="43.7858" lon="1.57869">
        <ele>122.674271</ele>
        <time>2023-09-17T11:08:31.424Z</time>
      </trkpt>
      <trkpt lat="43.78576" lon="1.57875">
        <ele>122.723147</ele>
        <time>2023-09-17T11:08:31.424Z</time>
      </trkpt>
      <trkpt lat="43.78571" lon="1.57882">
        <ele>122.779064</ele>
        <time>2023-09-17T11:08:33.424Z</time>
      </trkpt>
      <trkpt lat="43.78567" lon="1.57889">
        <ele>122.830118</ele>
        <time>2023-09-17T11:08:34.424Z</time>
      </trkpt>
      <trkpt lat="43.78567" lon="1.57889">
        <ele>122.830118</ele>
        <time>2023-09-17T11:08:34.424Z</time>
      </trkpt>
      <trkpt lat="43.78563" lon="1.57894">
        <ele>122.879026</ele>
        <time>2023-09-17T11:08:35.424Z</time>
      </trkpt>
      <trkpt lat="43.78558" lon="1.579">
        <ele>122.930125</ele>
        <time>2023-09-17T11:08:36.424Z</time>
      </trkpt>
      <trkpt lat="43.78554" lon="1.57906">
        <ele>122.979456</ele>
        <time>2023-09-17T11:08:37.424Z</time>
      </trkpt>
      <trkpt lat="43.7855" lon="1.57912">
        <ele>123.025354</ele>
        <time>2023-09-17T11:08:38.424Z</time>
      </trkpt>
      <trkpt lat="43.78545" lon="1.57919">
        <ele>123.084931</ele>
        <time>2023-09-17T11:08:39.424Z</time>
      </trkpt>
      <trkpt lat="43.78545" lon="1.57919">
        <ele>123.084931</ele>
        <time>2023-09-17T11:08:39.424Z</time>
      </trkpt>
      <trkpt lat="43.7854" lon="1.57925">
        <ele>123.14148</ele>
        <time>2023-09-17T11:08:40.424Z</time>
      </trkpt>
      <trkpt lat="43.78535" lon="1.5793">
        <ele>123.19167</ele>
        <time>2023-09-17T11:08:41.424Z</time>
      </trkpt>
      <trkpt lat="43.78532" lon="1.57934">
        <ele>123.230252</ele>
        <time>2023-09-17T11:08:42.424Z</time>
      </trkpt>
      <trkpt lat="43.78529" lon="1.57939">
        <ele>123.266284</ele>
        <time>2023-09-17T11:08:43.424Z</time>
      </trkpt>
      <trkpt lat="43.78529" lon="1.57939">
        <ele>123.266284</ele>
        <time>2023-09-17T11:08:43.424Z</time>
      </trkpt>
      <trkpt lat="43.78525" lon="1.57943">
        <ele>123.305478</ele>
        <time>2023-09-17T11:08:44.424Z</time>
      </trkpt>
      <trkpt lat="43.78521" lon="1.57949">
        <ele>123.352668</ele>
        <time>2023-09-17T11:08:45.424Z</time>
      </trkpt>
      <trkpt lat="43.78518" lon="1.57954">
        <ele>123.39468</ele>
        <time>2023-09-17T11:08:46.424Z</time>
      </trkpt>
      <trkpt lat="43.78514" lon="1.57958">
        <ele>123.435146</ele>
        <time>2023-09-17T11:08:47.424Z</time>
      </trkpt>
      <trkpt lat="43.78509" lon="1.57963">
        <ele>123.483736</ele>
        <time>2023-09-17T11:08:48.424Z</time>
      </trkpt>
      <trkpt lat="43.78505" lon="1.57968">
        <ele>123.530575</ele>
        <time>2023-09-17T11:08:49.424Z</time>
      </trkpt>
      <trkpt lat="43.785" lon="1.57972">
        <ele>123.573294</ele>
        <time>2023-09-17T11:08:50.424Z</time>
      </trkpt>
      <trkpt lat="43.78496" lon="1.57977">
        <ele>123.620789</ele>
        <time>2023-09-17T11:08:51.424Z</time>
      </trkpt>
      <trkpt lat="43.78496" lon="1.57977">
        <ele>123.620789</ele>
        <time>2023-09-17T11:08:51.424Z</time>
      </trkpt>
      <trkpt lat="43.78492" lon="1.57982">
        <ele>123.666075</ele>
        <time>2023-09-17T11:08:52.424Z</time>
      </trkpt>
      <trkpt lat="43.78487" lon="1.57987">
        <ele>123.710979</ele>
        <time>2023-09-17T11:08:52.424Z</time>
      </trkpt>
      <trkpt lat="43.78482" lon="1.57993">
        <ele>123.770018</ele>
        <time>2023-09-17T11:08:53.424Z</time>
      </trkpt>
      <trkpt lat="43.78482" lon="1.57993">
        <ele>123.770018</ele>
        <time>2023-09-17T11:08:53.424Z</time>
      </trkpt>
      <trkpt lat="43.78476" lon="1.57999">
        <ele>123.831172</ele>
        <time>2023-09-17T11:08:55.424Z</time>
      </trkpt>
      <trkpt lat="43.7847" lon="1.58006">
        <ele>123.891682</ele>
        <time>2023-09-17T11:08:56.424Z</time>
      </trkpt>
      <trkpt lat="43.78465" lon="1.58011">
        <ele>123.94205</ele>
        <time>2023-09-17T11:08:57.424Z</time>
      </trkpt>
      <trkpt lat="43.7846" lon="1.58017">
        <ele>123.968543</ele>
        <time>2023-09-17T11:08:58.424Z</time>
      </trkpt>
      <trkpt lat="43.78454" lon="1.58023">
        <ele>123.99395</ele>
        <time>2023-09-17T11:08:59.424Z</time>
      </trkpt>
      <trkpt lat="43.78454" lon="1.58023">
        <ele>123.99395</ele>
        <time>2023-09-17T11:08:59.424Z</time>
      </trkpt>
      <trkpt lat="43.7845" lon="1.58029">
        <ele>124.015341</ele>
        <time>2023-09-17T11:09:00.424Z</time>
      </trkpt>
      <trkpt lat="43.78445" lon="1.58035">
        <ele>124.038327</ele>
        <time>2023-09-17T11:09:01.424Z</time>
      </trkpt>
      <trkpt lat="43.78441" lon="1.58041">
        <ele>124.060159</ele>
        <time>2023-09-17T11:09:02.424Z</time>
      </trkpt>
      <trkpt lat="43.78436" lon="1.58046">
        <ele>124.083064</ele>
        <time>2023-09-17T11:09:03.424Z</time>
      </trkpt>
      <trkpt lat="43.7843" lon="1.58051">
        <ele>124.107196</ele>
        <time>2023-09-17T11:09:04.424Z</time>
      </trkpt>
      <trkpt lat="43.78425" lon="1.58055">
        <ele>124.128334</ele>
        <time>2023-09-17T11:09:05.424Z</time>
      </trkpt>
      <trkpt lat="43.78421" lon="1.58057">
        <ele>124.146508</ele>
        <time>2023-09-17T11:09:06.424Z</time>
      </trkpt>
      <trkpt lat="43.78416" lon="1.5806">
        <ele>124.164564</ele>
        <time>2023-09-17T11:09:06.424Z</time>
      </trkpt>
      <trkpt lat="43.78412" lon="1.58064">
        <ele>124.184323</ele>
        <time>2023-09-17T11:09:08.424Z</time>
      </trkpt>
      <trkpt lat="43.78407" lon="1.58067">
        <ele>124.204145</ele>
        <time>2023-09-17T11:09:09.424Z</time>
      </trkpt>
      <trkpt lat="43.78401" lon="1.5807">
        <ele>124.225075</ele>
        <time>2023-09-17T11:09:09.424Z</time>
      </trkpt>
      <trkpt lat="43.78396" lon="1.58073">
        <ele>124.244794</ele>
        <time>2023-09-17T11:09:11.424Z</time>
      </trkpt>
      <trkpt lat="43.78392" lon="1.58077">
        <ele>124.26364</ele>
        <time>2023-09-17T11:09:12.424Z</time>
      </trkpt>
      <trkpt lat="43.78387" lon="1.5808">
        <ele>124.283942</ele>
        <time>2023-09-17T11:09:13.424Z</time>
      </trkpt>
      <trkpt lat="43.78382" lon="1.58084">
        <ele>124.304442</ele>
        <time>2023-09-17T11:09:13.424Z</time>
      </trkpt>
      <trkpt lat="43.78376" lon="1.58087">
        <ele>124.325271</ele>
        <time>2023-09-17T11:09:15.424Z</time>
      </trkpt>
      <trkpt lat="43.78376" lon="1.58087">
        <ele>124.325271</ele>
        <time>2023-09-17T11:09:15.424Z</time>
      </trkpt>
      <trkpt lat="43.7837" lon="1.58091">
        <ele>124.349603</ele>
        <time>2023-09-17T11:09:16.424Z</time>
      </trkpt>
      <trkpt lat="43.78364" lon="1.58095">
        <ele>124.374269</ele>
        <time>2023-09-17T11:09:16.424Z</time>
      </trkpt>
      <trkpt lat="43.78358" lon="1.58099">
        <ele>124.400038</ele>
        <time>2023-09-17T11:09:17.424Z</time>
      </trkpt>
      <trkpt lat="43.78352" lon="1.58102">
        <ele>124.422938</ele>
        <time>2023-09-17T11:09:19.424Z</time>
      </trkpt>
      <trkpt lat="43.78352" lon="1.58102">
        <ele>124.422938</ele>
        <time>2023-09-17T11:09:19.424Z</time>
      </trkpt>
      <trkpt lat="43.78346" lon="1.58106">
        <ele>124.446184</ele>
        <time>2023-09-17T11:09:20.424Z</time>
      </trkpt>
      <trkpt lat="43.78341" lon="1.5811">
        <ele>124.469525</ele>
        <time>2023-09-17T11:09:20.424Z</time>
      </trkpt>
      <trkpt lat="43.78334" lon="1.58114">
        <ele>124.493857</ele>
        <time>2023-09-17T11:09:21.424Z</time>
      </trkpt>
      <trkpt lat="43.78329" lon="1.58117">
        <ele>124.515105</ele>
        <time>2023-09-17T11:09:23.424Z</time>
      </trkpt>
      <trkpt lat="43.78324" lon="1.58121">
        <ele>124.536472</ele>
        <time>2023-09-17T11:09:24.424Z</time>
      </trkpt>
      <trkpt lat="43.78317" lon="1.58124">
        <ele>124.561316</ele>
        <time>2023-09-17T11:09:25.424Z</time>
      </trkpt>
      <trkpt lat="43.78311" lon="1.58127">
        <ele>124.586686</ele>
        <time>2023-09-17T11:09:26.424Z</time>
      </trkpt>
      <trkpt lat="43.78305" lon="1.58131">
        <ele>124.615473</ele>
        <time>2023-09-17T11:09:27.424Z</time>
      </trkpt>
      <trkpt lat="43.78299" lon="1.58134">
        <ele>124.64658</ele>
        <time>2023-09-17T11:09:28.424Z</time>
      </trkpt>
      <trkpt lat="43.78291" lon="1.58137">
        <ele>124.683309</ele>
        <time>2023-09-17T11:09:29.424Z</time>
      </trkpt>
      <trkpt lat="43.78284" lon="1.58141">
        <ele>124.71937</ele>
        <time>2023-09-17T11:09:30.424Z</time>
      </trkpt>
      <trkpt lat="43.78278" lon="1.58143">
        <ele>124.748212</ele>
        <time>2023-09-17T11:09:30.424Z</time>
      </trkpt>
      <trkpt lat="43.78271" lon="1.58147">
        <ele>124.78686</ele>
        <time>2023-09-17T11:09:32.424Z</time>
      </trkpt>
      <trkpt lat="43.78271" lon="1.58147">
        <ele>124.78686</ele>
        <time>2023-09-17T11:09:32.424Z</time>
      </trkpt>
      <trkpt lat="43.78265" lon="1.5815">
        <ele>124.815703</ele>
        <time>2023-09-17T11:09:32.424Z</time>
      </trkpt>
      <trkpt lat="43.7826" lon="1.58152">
        <ele>124.842089</ele>
        <time>2023-09-17T11:09:34.424Z</time>
      </trkpt>
      <trkpt lat="43.78254" lon="1.58154">
        <ele>124.87086</ele>
        <time>2023-09-17T11:09:35.424Z</time>
      </trkpt>
      <trkpt lat="43.78248" lon="1.58157">
        <ele>124.902974</ele>
        <time>2023-09-17T11:09:35.424Z</time>
      </trkpt>
      <trkpt lat="43.78242" lon="1.5816">
        <ele>124.932381</ele>
        <time>2023-09-17T11:09:36.424Z</time>
      </trkpt>
      <trkpt lat="43.78237" lon="1.58163">
        <ele>124.95753</ele>
        <time>2023-09-17T11:09:37.424Z</time>
      </trkpt>
      <trkpt lat="43.78233" lon="1.58165">
        <ele>124.976683</ele>
        <time>2023-09-17T11:09:38.424Z</time>
      </trkpt>
      <trkpt lat="43.78228" lon="1.58167">
        <ele>125.003836</ele>
        <time>2023-09-17T11:09:39.424Z</time>
      </trkpt>
      <trkpt lat="43.78228" lon="1.58167">
        <ele>125.003836</ele>
        <time>2023-09-17T11:09:39.424Z</time>
      </trkpt>
      <trkpt lat="43.78222" lon="1.58169">
        <ele>125.030428</ele>
        <time>2023-09-17T11:09:41.424Z</time>
      </trkpt>
      <trkpt lat="43.78216" lon="1.58172">
        <ele>125.06067</ele>
        <time>2023-09-17T11:09:42.424Z</time>
      </trkpt>
      <trkpt lat="43.7821" lon="1.58174">
        <ele>125.092841</ele>
        <time>2023-09-17T11:09:42.424Z</time>
      </trkpt>
      <trkpt lat="43.78202" lon="1.58177">
        <ele>125.130346</ele>
        <time>2023-09-17T11:09:44.424Z</time>
      </trkpt>
      <trkpt lat="43.78195" lon="1.58179">
        <ele>125.164037</ele>
        <time>2023-09-17T11:09:44.424Z</time>
      </trkpt>
      <trkpt lat="43.78195" lon="1.58179">
        <ele>125.164037</ele>
        <time>2023-09-17T11:09:44.424Z</time>
      </trkpt>
      <trkpt lat="43.78188" lon="1.58181">
        <ele>125.199525</ele>
        <time>2023-09-17T11:09:46.424Z</time>
      </trkpt>
      <trkpt lat="43.78181" lon="1.58183">
        <ele>125.234416</ele>
        <time>2023-09-17T11:09:46.424Z</time>
      </trkpt>
      <trkpt lat="43.78173" lon="1.58185">
        <ele>125.269663</ele>
        <time>2023-09-17T11:09:48.424Z</time>
      </trkpt>
      <trkpt lat="43.78167" lon="1.58186">
        <ele>125.299096</ele>
        <time>2023-09-17T11:09:48.424Z</time>
      </trkpt>
      <trkpt lat="43.78161" lon="1.58187">
        <ele>125.331708</ele>
        <time>2023-09-17T11:09:50.424Z</time>
      </trkpt>
      <trkpt lat="43.78161" lon="1.58187">
        <ele>125.331708</ele>
        <time>2023-09-17T11:09:50.424Z</time>
      </trkpt>
      <trkpt lat="43.78154" lon="1.58188">
        <ele>125.364679</ele>
        <time>2023-09-17T11:09:51.424Z</time>
      </trkpt>
      <trkpt lat="43.78148" lon="1.58189">
        <ele>125.394015</ele>
        <time>2023-09-17T11:09:51.424Z</time>
      </trkpt>
      <trkpt lat="43.78141" lon="1.5819">
        <ele>125.423448</ele>
        <time>2023-09-17T11:09:53.424Z</time>
      </trkpt>
      <trkpt lat="43.78136" lon="1.58191">
        <ele>125.450807</ele>
        <time>2023-09-17T11:09:54.424Z</time>
      </trkpt>
      <trkpt lat="43.78129" lon="1.58192">
        <ele>125.480642</ele>
        <time>2023-09-17T11:09:55.424Z</time>
      </trkpt>
      <trkpt lat="43.78123" lon="1.58192">
        <ele>125.50845</ele>
        <time>2023-09-17T11:09:56.424Z</time>
      </trkpt>
      <trkpt lat="43.78123" lon="1.58192">
        <ele>125.50845</ele>
        <time>2023-09-17T11:09:56.424Z</time>
      </trkpt>
      <trkpt lat="43.78117" lon="1.58193">
        <ele>125.536279</ele>
        <time>2023-09-17T11:09:56.424Z</time>
      </trkpt>
      <trkpt lat="43.78111" lon="1.58193">
        <ele>125.564087</ele>
        <time>2023-09-17T11:09:58.424Z</time>
      </trkpt>
      <trkpt lat="43.78106" lon="1.58194">
        <ele>125.58867</ele>
        <time>2023-09-17T11:09:59.424Z</time>
      </trkpt>
      <trkpt lat="43.781" lon="1.58194">
        <ele>125.614642</ele>
        <time>2023-09-17T11:10:00.424Z</time>
      </trkpt>
      <trkpt lat="43.78095" lon="1.58194">
        <ele>125.638763</ele>
        <time>2023-09-17T11:10:01.424Z</time>
      </trkpt>
      <trkpt lat="43.78095" lon="1.58194">
        <ele>125.638763</ele>
        <time>2023-09-17T11:10:01.424Z</time>
      </trkpt>
      <trkpt lat="43.7809" lon="1.58193">
        <ele>125.661633</ele>
        <time>2023-09-17T11:10:02.424Z</time>
      </trkpt>
      <trkpt lat="43.78085" lon="1.58193">
        <ele>125.683992</ele>
        <time>2023-09-17T11:10:03.424Z</time>
      </trkpt>
      <trkpt lat="43.7808" lon="1.58192">
        <ele>125.704948</ele>
        <time>2023-09-17T11:10:04.424Z</time>
      </trkpt>
      <trkpt lat="43.78074" lon="1.58192">
        <ele>125.730921</ele>
        <time>2023-09-17T11:10:05.424Z</time>
      </trkpt>
      <trkpt lat="43.78068" lon="1.58191">
        <ele>125.760546</ele>
        <time>2023-09-17T11:10:06.424Z</time>
      </trkpt>
      <trkpt lat="43.7806" lon="1.58191">
        <ele>125.795711</ele>
        <time>2023-09-17T11:10:07.424Z</time>
      </trkpt>
      <trkpt lat="43.7806" lon="1.58191">
        <ele>125.795711</ele>
        <time>2023-09-17T11:10:07.424Z</time>
      </trkpt>
      <trkpt lat="43.78052" lon="1.5819">
        <ele>125.833598</ele>
        <time>2023-09-17T11:10:08.424Z</time>
      </trkpt>
      <trkpt lat="43.78044" lon="1.58189">
        <ele>125.868694</ele>
        <time>2023-09-17T11:10:09.424Z</time>
      </trkpt>
      <trkpt lat="43.78037" lon="1.58189">
        <ele>125.901459</ele>
        <time>2023-09-17T11:10:10.424Z</time>
      </trkpt>
      <trkpt lat="43.7803" lon="1.58189">
        <ele>125.934694</ele>
        <time>2023-09-17T11:10:11.424Z</time>
      </trkpt>
      <trkpt lat="43.78023" lon="1.5819">
        <ele>125.963849</ele>
        <time>2023-09-17T11:10:12.424Z</time>
      </trkpt>
      <trkpt lat="43.78018" lon="1.5819">
        <ele>125.988423</ele>
        <time>2023-09-17T11:10:13.424Z</time>
      </trkpt>
      <trkpt lat="43.78013" lon="1.5819">
        <ele>126.011186</ele>
        <time>2023-09-17T11:10:14.424Z</time>
      </trkpt>
      <trkpt lat="43.78008" lon="1.58191">
        <ele>126.035574</ele>
        <time>2023-09-17T11:10:15.424Z</time>
      </trkpt>
      <trkpt lat="43.78003" lon="1.58193">
        <ele>126.058927</ele>
        <time>2023-09-17T11:10:16.424Z</time>
      </trkpt>
      <trkpt lat="43.77998" lon="1.58196">
        <ele>126.082576</ele>
        <time>2023-09-17T11:10:17.424Z</time>
      </trkpt>
      <trkpt lat="43.77992" lon="1.58201">
        <ele>126.11384</ele>
        <time>2023-09-17T11:10:18.424Z</time>
      </trkpt>
      <trkpt lat="43.77986" lon="1.58207">
        <ele>126.147887</ele>
        <time>2023-09-17T11:10:19.424Z</time>
      </trkpt>
      <trkpt lat="43.77981" lon="1.58213">
        <ele>126.178831</ele>
        <time>2023-09-17T11:10:20.424Z</time>
      </trkpt>
      <trkpt lat="43.77976" lon="1.58219">
        <ele>126.207484</ele>
        <time>2023-09-17T11:10:21.424Z</time>
      </trkpt>
      <trkpt lat="43.77971" lon="1.58223">
        <ele>126.234607</ele>
        <time>2023-09-17T11:10:22.424Z</time>
      </trkpt>
      <trkpt lat="43.77967" lon="1.58228">
        <ele>126.257147</ele>
        <time>2023-09-17T11:10:23.424Z</time>
      </trkpt>
      <trkpt lat="43.77967" lon="1.58228">
        <ele>126.257147</ele>
        <time>2023-09-17T11:10:23.424Z</time>
      </trkpt>
      <trkpt lat="43.77963" lon="1.58233">
        <ele>126.274333</ele>
        <time>2023-09-17T11:10:24.424Z</time>
      </trkpt>
      <trkpt lat="43.77959" lon="1.58239">
        <ele>126.281699</ele>
        <time>2023-09-17T11:10:25.424Z</time>
      </trkpt>
      <trkpt lat="43.77955" lon="1.58244">
        <ele>126.288611</ele>
        <time>2023-09-17T11:10:26.424Z</time>
      </trkpt>
      <trkpt lat="43.77953" lon="1.58249">
        <ele>126.293938</ele>
        <time>2023-09-17T11:10:27.424Z</time>
      </trkpt>
      <trkpt lat="43.7795" lon="1.58257">
        <ele>126.301532</ele>
        <time>2023-09-17T11:10:28.424Z</time>
      </trkpt>
      <trkpt lat="43.77947" lon="1.58262">
        <ele>126.308074</ele>
        <time>2023-09-17T11:10:29.424Z</time>
      </trkpt>
      <trkpt lat="43.77947" lon="1.58262">
        <ele>126.308074</ele>
        <time>2023-09-17T11:10:29.424Z</time>
      </trkpt>
      <trkpt lat="43.77943" lon="1.58269">
        <ele>126.315613</ele>
        <time>2023-09-17T11:10:30.424Z</time>
      </trkpt>
      <trkpt lat="43.77937" lon="1.58275">
        <ele>126.324557</ele>
        <time>2023-09-17T11:10:31.424Z</time>
      </trkpt>
      <trkpt lat="43.77937" lon="1.58275">
        <ele>126.324557</ele>
        <time>2023-09-17T11:10:31.424Z</time>
      </trkpt>
      <trkpt lat="43.77932" lon="1.5828">
        <ele>126.332223</ele>
        <time>2023-09-17T11:10:31.424Z</time>
      </trkpt>
      <trkpt lat="43.77929" lon="1.58286">
        <ele>126.339395</ele>
        <time>2023-09-17T11:10:33.424Z</time>
      </trkpt>
      <trkpt lat="43.77924" lon="1.58296">
        <ele>126.35001</ele>
        <time>2023-09-17T11:10:34.424Z</time>
      </trkpt>
      <trkpt lat="43.77924" lon="1.58296">
        <ele>126.35001</ele>
        <time>2023-09-17T11:10:34.424Z</time>
      </trkpt>
      <trkpt lat="43.77921" lon="1.58302">
        <ele>126.356273</ele>
        <time>2023-09-17T11:10:35.424Z</time>
      </trkpt>
      <trkpt lat="43.77918" lon="1.58308">
        <ele>126.362972</ele>
        <time>2023-09-17T11:10:36.424Z</time>
      </trkpt>
      <trkpt lat="43.77918" lon="1.58308">
        <ele>126.362972</ele>
        <time>2023-09-17T11:10:36.424Z</time>
      </trkpt>
      <trkpt lat="43.77914" lon="1.58313">
        <ele>126.369019</ele>
        <time>2023-09-17T11:10:37.424Z</time>
      </trkpt>
      <trkpt lat="43.7791" lon="1.58319">
        <ele>126.377029</ele>
        <time>2023-09-17T11:10:38.424Z</time>
      </trkpt>
      <trkpt lat="43.77906" lon="1.58326">
        <ele>126.384985</ele>
        <time>2023-09-17T11:10:39.424Z</time>
      </trkpt>
      <trkpt lat="43.77902" lon="1.58333">
        <ele>126.393354</ele>
        <time>2023-09-17T11:10:40.424Z</time>
      </trkpt>
      <trkpt lat="43.77897" lon="1.58342">
        <ele>126.402807</ele>
        <time>2023-09-17T11:10:41.424Z</time>
      </trkpt>
      <trkpt lat="43.77893" lon="1.58349">
        <ele>126.41089</ele>
        <time>2023-09-17T11:10:42.424Z</time>
      </trkpt>
      <trkpt lat="43.77891" lon="1.58357">
        <ele>126.418512</ele>
        <time>2023-09-17T11:10:43.424Z</time>
      </trkpt>
      <trkpt lat="43.77889" lon="1.58365">
        <ele>126.426233</ele>
        <time>2023-09-17T11:10:43.424Z</time>
      </trkpt>
      <trkpt lat="43.77886" lon="1.58373">
        <ele>126.433539</ele>
        <time>2023-09-17T11:10:45.424Z</time>
      </trkpt>
      <trkpt lat="43.77884" lon="1.5838">
        <ele>126.440517</ele>
        <time>2023-09-17T11:10:46.424Z</time>
      </trkpt>
      <trkpt lat="43.77881" lon="1.58385">
        <ele>126.446705</ele>
        <time>2023-09-17T11:10:47.424Z</time>
      </trkpt>
      <trkpt lat="43.77879" lon="1.58391">
        <ele>126.452096</ele>
        <time>2023-09-17T11:10:48.424Z</time>
      </trkpt>
      <trkpt lat="43.77879" lon="1.58391">
        <ele>126.452096</ele>
        <time>2023-09-17T11:10:48.424Z</time>
      </trkpt>
      <trkpt lat="43.77875" lon="1.58397">
        <ele>126.460109</ele>
        <time>2023-09-17T11:10:49.424Z</time>
      </trkpt>
      <trkpt lat="43.77871" lon="1.58404">
        <ele>126.46755</ele>
        <time>2023-09-17T11:10:50.424Z</time>
      </trkpt>
      <trkpt lat="43.77868" lon="1.58409">
        <ele>126.473907</ele>
        <time>2023-09-17T11:10:51.424Z</time>
      </trkpt>
      <trkpt lat="43.77863" lon="1.58415">
        <ele>126.482241</ele>
        <time>2023-09-17T11:10:52.424Z</time>
      </trkpt>
      <trkpt lat="43.77863" lon="1.58415">
        <ele>126.482241</ele>
        <time>2023-09-17T11:10:52.424Z</time>
      </trkpt>
      <trkpt lat="43.77858" lon="1.58422">
        <ele>126.490512</ele>
        <time>2023-09-17T11:10:53.424Z</time>
      </trkpt>
      <trkpt lat="43.77853" lon="1.58429">
        <ele>126.479128</ele>
        <time>2023-09-17T11:10:54.424Z</time>
      </trkpt>
      <trkpt lat="43.77853" lon="1.58429">
        <ele>126.479128</ele>
        <time>2023-09-17T11:10:54.424Z</time>
      </trkpt>
      <trkpt lat="43.77848" lon="1.58435">
        <ele>126.450677</ele>
        <time>2023-09-17T11:10:55.424Z</time>
      </trkpt>
      <trkpt lat="43.77843" lon="1.5844">
        <ele>126.422877</ele>
        <time>2023-09-17T11:10:56.424Z</time>
      </trkpt>
      <trkpt lat="43.77839" lon="1.58445">
        <ele>126.397075</ele>
        <time>2023-09-17T11:10:57.424Z</time>
      </trkpt>
      <trkpt lat="43.77839" lon="1.58445">
        <ele>126.397075</ele>
        <time>2023-09-17T11:10:57.424Z</time>
      </trkpt>
      <trkpt lat="43.77834" lon="1.5845">
        <ele>126.370471</ele>
        <time>2023-09-17T11:10:58.424Z</time>
      </trkpt>
      <trkpt lat="43.77829" lon="1.58455">
        <ele>126.342998</ele>
        <time>2023-09-17T11:10:59.424Z</time>
      </trkpt>
      <trkpt lat="43.77823" lon="1.5846">
        <ele>126.312474</ele>
        <time>2023-09-17T11:11:00.424Z</time>
      </trkpt>
      <trkpt lat="43.77823" lon="1.5846">
        <ele>126.312474</ele>
        <time>2023-09-17T11:11:00.424Z</time>
      </trkpt>
      <trkpt lat="43.77817" lon="1.58465">
        <ele>126.283143</ele>
        <time>2023-09-17T11:11:01.424Z</time>
      </trkpt>
      <trkpt lat="43.7781" lon="1.58469">
        <ele>126.249233</ele>
        <time>2023-09-17T11:11:02.424Z</time>
      </trkpt>
      <trkpt lat="43.77803" lon="1.58474">
        <ele>126.211961</ele>
        <time>2023-09-17T11:11:03.424Z</time>
      </trkpt>
      <trkpt lat="43.77803" lon="1.58474">
        <ele>126.211961</ele>
        <time>2023-09-17T11:11:03.424Z</time>
      </trkpt>
      <trkpt lat="43.77795" lon="1.5848">
        <ele>126.175013</ele>
        <time>2023-09-17T11:11:04.424Z</time>
      </trkpt>
      <trkpt lat="43.77789" lon="1.58485">
        <ele>126.141313</ele>
        <time>2023-09-17T11:11:05.424Z</time>
      </trkpt>
      <trkpt lat="43.77784" lon="1.5849">
        <ele>126.115115</ele>
        <time>2023-09-17T11:11:06.424Z</time>
      </trkpt>
      <trkpt lat="43.77779" lon="1.58496">
        <ele>126.086247</ele>
        <time>2023-09-17T11:11:07.424Z</time>
      </trkpt>
      <trkpt lat="43.77779" lon="1.58496">
        <ele>126.086247</ele>
        <time>2023-09-17T11:11:07.424Z</time>
      </trkpt>
      <trkpt lat="43.77775" lon="1.58499">
        <ele>126.062912</ele>
        <time>2023-09-17T11:11:08.424Z</time>
      </trkpt>
      <trkpt lat="43.77771" lon="1.58502">
        <ele>126.042832</ele>
        <time>2023-09-17T11:11:09.424Z</time>
      </trkpt>
      <trkpt lat="43.77766" lon="1.58503">
        <ele>126.022219</ele>
        <time>2023-09-17T11:11:10.424Z</time>
      </trkpt>
      <trkpt lat="43.7776" lon="1.58502">
        <ele>125.995005</ele>
        <time>2023-09-17T11:11:11.424Z</time>
      </trkpt>
      <trkpt lat="43.77754" lon="1.58498">
        <ele>125.965266</ele>
        <time>2023-09-17T11:11:12.424Z</time>
      </trkpt>
      <trkpt lat="43.77747" lon="1.58493">
        <ele>125.931619</ele>
        <time>2023-09-17T11:11:13.424Z</time>
      </trkpt>
      <trkpt lat="43.77742" lon="1.58489">
        <ele>125.905619</ele>
        <time>2023-09-17T11:11:14.424Z</time>
      </trkpt>
      <trkpt lat="43.77736" lon="1.58484">
        <ele>125.871414</ele>
        <time>2023-09-17T11:11:15.424Z</time>
      </trkpt>
      <trkpt lat="43.77731" lon="1.5848">
        <ele>125.846287</ele>
        <time>2023-09-17T11:11:16.424Z</time>
      </trkpt>
      <trkpt lat="43.77726" lon="1.58478">
        <ele>125.826739</ele>
        <time>2023-09-17T11:11:17.424Z</time>
      </trkpt>
      <trkpt lat="43.77722" lon="1.58478">
        <ele>125.808063</ele>
        <time>2023-09-17T11:11:18.424Z</time>
      </trkpt>
      <trkpt lat="43.77718" lon="1.5848">
        <ele>125.787862</ele>
        <time>2023-09-17T11:11:19.424Z</time>
      </trkpt>
      <trkpt lat="43.77713" lon="1.58484">
        <ele>125.762028</ele>
        <time>2023-09-17T11:11:20.424Z</time>
      </trkpt>
      <trkpt lat="43.77708" lon="1.58489">
        <ele>125.736226</ele>
        <time>2023-09-17T11:11:21.424Z</time>
      </trkpt>
      <trkpt lat="43.77708" lon="1.58489">
        <ele>125.736226</ele>
        <time>2023-09-17T11:11:21.424Z</time>
      </trkpt>
      <trkpt lat="43.77704" lon="1.58496">
        <ele>125.708224</ele>
        <time>2023-09-17T11:11:22.424Z</time>
      </trkpt>
      <trkpt lat="43.777" lon="1.58502">
        <ele>125.702233</ele>
        <time>2023-09-17T11:11:23.424Z</time>
      </trkpt>
      <trkpt lat="43.77696" lon="1.58508">
        <ele>125.714665</ele>
        <time>2023-09-17T11:11:24.424Z</time>
      </trkpt>
      <trkpt lat="43.77692" lon="1.58514">
        <ele>125.726949</ele>
        <time>2023-09-17T11:11:25.424Z</time>
      </trkpt>
      <trkpt lat="43.77688" lon="1.58519">
        <ele>125.739274</ele>
        <time>2023-09-17T11:11:26.424Z</time>
      </trkpt>
      <trkpt lat="43.77683" lon="1.58525">
        <ele>125.752728</ele>
        <time>2023-09-17T11:11:27.424Z</time>
      </trkpt>
      <trkpt lat="43.77678" lon="1.58532">
        <ele>125.766695</ele>
        <time>2023-09-17T11:11:28.424Z</time>
      </trkpt>
      <trkpt lat="43.77673" lon="1.58538">
        <ele>125.780709</ele>
        <time>2023-09-17T11:11:29.424Z</time>
      </trkpt>
      <trkpt lat="43.77668" lon="1.58544">
        <ele>125.794575</ele>
        <time>2023-09-17T11:11:30.424Z</time>
      </trkpt>
      <trkpt lat="43.77663" lon="1.5855">
        <ele>125.808149</ele>
        <time>2023-09-17T11:11:31.424Z</time>
      </trkpt>
      <trkpt lat="43.77659" lon="1.58554">
        <ele>125.820147</ele>
        <time>2023-09-17T11:11:32.424Z</time>
      </trkpt>
      <trkpt lat="43.77653" lon="1.58561">
        <ele>125.834753</ele>
        <time>2023-09-17T11:11:33.424Z</time>
      </trkpt>
      <trkpt lat="43.77647" lon="1.58567">
        <ele>125.851558</ele>
        <time>2023-09-17T11:11:34.424Z</time>
      </trkpt>
      <trkpt lat="43.77647" lon="1.58567">
        <ele>125.851558</ele>
        <time>2023-09-17T11:11:34.424Z</time>
      </trkpt>
      <trkpt lat="43.77639" lon="1.58573">
        <ele>125.869894</ele>
        <time>2023-09-17T11:11:35.424Z</time>
      </trkpt>
      <trkpt lat="43.77633" lon="1.58576">
        <ele>125.883412</ele>
        <time>2023-09-17T11:11:36.424Z</time>
      </trkpt>
      <trkpt lat="43.77626" lon="1.58575">
        <ele>125.897988</ele>
        <time>2023-09-17T11:11:37.424Z</time>
      </trkpt>
      <trkpt lat="43.77621" lon="1.58572">
        <ele>125.909933</ele>
        <time>2023-09-17T11:11:38.424Z</time>
      </trkpt>
      <trkpt lat="43.77621" lon="1.58572">
        <ele>125.909933</ele>
        <time>2023-09-17T11:11:38.424Z</time>
      </trkpt>
      <trkpt lat="43.77616" lon="1.5857">
        <ele>125.920724</ele>
        <time>2023-09-17T11:11:39.424Z</time>
      </trkpt>
      <trkpt lat="43.7761" lon="1.58568">
        <ele>125.932978</ele>
        <time>2023-09-17T11:11:40.424Z</time>
      </trkpt>
      <trkpt lat="43.77605" lon="1.58566">
        <ele>125.943335</ele>
        <time>2023-09-17T11:11:41.424Z</time>
      </trkpt>
      <trkpt lat="43.776" lon="1.58564">
        <ele>125.95566</ele>
        <time>2023-09-17T11:11:42.424Z</time>
      </trkpt>
      <trkpt lat="43.776" lon="1.58564">
        <ele>125.95566</ele>
        <time>2023-09-17T11:11:42.424Z</time>
      </trkpt>
      <trkpt lat="43.77596" lon="1.58564">
        <ele>125.964464</ele>
        <time>2023-09-17T11:11:43.424Z</time>
      </trkpt>
      <trkpt lat="43.77591" lon="1.58563">
        <ele>125.974135</ele>
        <time>2023-09-17T11:11:44.424Z</time>
      </trkpt>
      <trkpt lat="43.77587" lon="1.58563">
        <ele>125.982943</ele>
        <time>2023-09-17T11:11:45.424Z</time>
      </trkpt>
      <trkpt lat="43.77587" lon="1.58563">
        <ele>125.982943</ele>
        <time>2023-09-17T11:11:45.424Z</time>
      </trkpt>
      <trkpt lat="43.77581" lon="1.58563">
        <ele>125.994062</ele>
        <time>2023-09-17T11:11:46.424Z</time>
      </trkpt>
      <trkpt lat="43.77575" lon="1.58564">
        <ele>126.00688</ele>
        <time>2023-09-17T11:11:47.424Z</time>
      </trkpt>
      <trkpt lat="43.7757" lon="1.58564">
        <ele>126.017993</ele>
        <time>2023-09-17T11:11:48.424Z</time>
      </trkpt>
      <trkpt lat="43.77565" lon="1.58565">
        <ele>126.0285</ele>
        <time>2023-09-17T11:11:49.424Z</time>
      </trkpt>
      <trkpt lat="43.77559" lon="1.58565">
        <ele>126.040494</ele>
        <time>2023-09-17T11:11:50.424Z</time>
      </trkpt>
      <trkpt lat="43.77553" lon="1.58567">
        <ele>126.05422</ele>
        <time>2023-09-17T11:11:51.424Z</time>
      </trkpt>
      <trkpt lat="43.77547" lon="1.58568">
        <ele>126.066381</ele>
        <time>2023-09-17T11:11:52.424Z</time>
      </trkpt>
      <trkpt lat="43.77541" lon="1.5857">
        <ele>126.075668</ele>
        <time>2023-09-17T11:11:53.424Z</time>
      </trkpt>
      <trkpt lat="43.77535" lon="1.58573">
        <ele>126.081597</ele>
        <time>2023-09-17T11:11:54.424Z</time>
      </trkpt>
      <trkpt lat="43.77529" lon="1.58576">
        <ele>126.088316</ele>
        <time>2023-09-17T11:11:55.424Z</time>
      </trkpt>
      <trkpt lat="43.77522" lon="1.5858">
        <ele>126.095263</ele>
        <time>2023-09-17T11:11:56.424Z</time>
      </trkpt>
      <trkpt lat="43.77516" lon="1.58584">
        <ele>126.101858</ele>
        <time>2023-09-17T11:11:57.424Z</time>
      </trkpt>
      <trkpt lat="43.7751" lon="1.58588">
        <ele>126.108422</ele>
        <time>2023-09-17T11:11:58.424Z</time>
      </trkpt>
      <trkpt lat="43.77504" lon="1.58593">
        <ele>126.114736</ele>
        <time>2023-09-17T11:11:59.424Z</time>
      </trkpt>
      <trkpt lat="43.77499" lon="1.58597">
        <ele>126.120865</ele>
        <time>2023-09-17T11:12:00.424Z</time>
      </trkpt>
      <trkpt lat="43.77493" lon="1.58602">
        <ele>126.127282</ele>
        <time>2023-09-17T11:12:01.424Z</time>
      </trkpt>
      <trkpt lat="43.77488" lon="1.58606">
        <ele>126.133082</ele>
        <time>2023-09-17T11:12:02.424Z</time>
      </trkpt>
      <trkpt lat="43.77483" lon="1.58611">
        <ele>126.13957</ele>
        <time>2023-09-17T11:12:03.424Z</time>
      </trkpt>
      <trkpt lat="43.77483" lon="1.58611">
        <ele>126.13957</ele>
        <time>2023-09-17T11:12:03.424Z</time>
      </trkpt>
      <trkpt lat="43.77477" lon="1.58615">
        <ele>126.145545</ele>
        <time>2023-09-17T11:12:04.424Z</time>
      </trkpt>
      <trkpt lat="43.77473" lon="1.5862">
        <ele>126.150753</ele>
        <time>2023-09-17T11:12:05.424Z</time>
      </trkpt>
      <trkpt lat="43.77468" lon="1.58625">
        <ele>126.15663</ele>
        <time>2023-09-17T11:12:06.424Z</time>
      </trkpt>
      <trkpt lat="43.77464" lon="1.58629">
        <ele>126.161669</ele>
        <time>2023-09-17T11:12:07.424Z</time>
      </trkpt>
      <trkpt lat="43.77459" lon="1.58632">
        <ele>126.167031</ele>
        <time>2023-09-17T11:12:08.424Z</time>
      </trkpt>
      <trkpt lat="43.77454" lon="1.58637">
        <ele>126.173125</ele>
        <time>2023-09-17T11:12:09.424Z</time>
      </trkpt>
      <trkpt lat="43.77448" lon="1.58641">
        <ele>126.179172</ele>
        <time>2023-09-17T11:12:10.424Z</time>
      </trkpt>
      <trkpt lat="43.77443" lon="1.58646">
        <ele>126.185485</ele>
        <time>2023-09-17T11:12:11.424Z</time>
      </trkpt>
      <trkpt lat="43.77437" lon="1.5865">
        <ele>126.192175</ele>
        <time>2023-09-17T11:12:12.424Z</time>
      </trkpt>
      <trkpt lat="43.77431" lon="1.58655">
        <ele>126.198341</ele>
        <time>2023-09-17T11:12:13.424Z</time>
      </trkpt>
      <trkpt lat="43.77431" lon="1.58655">
        <ele>126.198341</ele>
        <time>2023-09-17T11:12:13.424Z</time>
      </trkpt>
      <trkpt lat="43.77427" lon="1.5866">
        <ele>126.204028</ele>
        <time>2023-09-17T11:12:14.424Z</time>
      </trkpt>
      <trkpt lat="43.77422" lon="1.58664">
        <ele>126.209588</ele>
        <time>2023-09-17T11:12:15.424Z</time>
      </trkpt>
      <trkpt lat="43.77417" lon="1.58669">
        <ele>126.2152</ele>
        <time>2023-09-17T11:12:15.424Z</time>
      </trkpt>
      <trkpt lat="43.77414" lon="1.58674">
        <ele>126.220155</ele>
        <time>2023-09-17T11:12:17.424Z</time>
      </trkpt>
      <trkpt lat="43.77409" lon="1.58678">
        <ele>126.225593</ele>
        <time>2023-09-17T11:12:18.424Z</time>
      </trkpt>
      <trkpt lat="43.77404" lon="1.58683">
        <ele>126.231195</ele>
        <time>2023-09-17T11:12:19.424Z</time>
      </trkpt>
      <trkpt lat="43.774" lon="1.58688">
        <ele>126.23697</ele>
        <time>2023-09-17T11:12:20.424Z</time>
      </trkpt>
      <trkpt lat="43.77395" lon="1.58694">
        <ele>126.243454</ele>
        <time>2023-09-17T11:12:21.424Z</time>
      </trkpt>
      <trkpt lat="43.7739" lon="1.58699">
        <ele>126.252703</ele>
        <time>2023-09-17T11:12:21.424Z</time>
      </trkpt>
      <trkpt lat="43.77385" lon="1.58704">
        <ele>126.270923</ele>
        <time>2023-09-17T11:12:22.424Z</time>
      </trkpt>
      <trkpt lat="43.77385" lon="1.58704">
        <ele>126.270923</ele>
        <time>2023-09-17T11:12:22.424Z</time>
      </trkpt>
      <trkpt lat="43.7738" lon="1.58709">
        <ele>126.290037</ele>
        <time>2023-09-17T11:12:24.424Z</time>
      </trkpt>
      <trkpt lat="43.77375" lon="1.58713">
        <ele>126.309025</ele>
        <time>2023-09-17T11:12:25.424Z</time>
      </trkpt>
      <trkpt lat="43.77369" lon="1.58718">
        <ele>126.328623</ele>
        <time>2023-09-17T11:12:26.424Z</time>
      </trkpt>
      <trkpt lat="43.77364" lon="1.58723">
        <ele>126.347496</ele>
        <time>2023-09-17T11:12:27.424Z</time>
      </trkpt>
      <trkpt lat="43.77358" lon="1.58727">
        <ele>126.367571</ele>
        <time>2023-09-17T11:12:28.424Z</time>
      </trkpt>
      <trkpt lat="43.77353" lon="1.58731">
        <ele>126.385065</ele>
        <time>2023-09-17T11:12:29.424Z</time>
      </trkpt>
      <trkpt lat="43.77348" lon="1.58736">
        <ele>126.405203</ele>
        <time>2023-09-17T11:12:30.424Z</time>
      </trkpt>
      <trkpt lat="43.77342" lon="1.58741">
        <ele>126.426178</ele>
        <time>2023-09-17T11:12:31.424Z</time>
      </trkpt>
      <trkpt lat="43.77338" lon="1.58745">
        <ele>126.441652</ele>
        <time>2023-09-17T11:12:32.424Z</time>
      </trkpt>
      <trkpt lat="43.77333" lon="1.5875">
        <ele>126.458125</ele>
        <time>2023-09-17T11:12:33.424Z</time>
      </trkpt>
      <trkpt lat="43.77328" lon="1.58754">
        <ele>126.475765</ele>
        <time>2023-09-17T11:12:34.424Z</time>
      </trkpt>
      <trkpt lat="43.77324" lon="1.58758">
        <ele>126.492254</ele>
        <time>2023-09-17T11:12:35.424Z</time>
      </trkpt>
      <trkpt lat="43.77319" lon="1.58761">
        <ele>126.509196</ele>
        <time>2023-09-17T11:12:36.424Z</time>
      </trkpt>
      <trkpt lat="43.77314" lon="1.58765">
        <ele>126.526406</ele>
        <time>2023-09-17T11:12:37.424Z</time>
      </trkpt>
      <trkpt lat="43.77314" lon="1.58765">
        <ele>126.526406</ele>
        <time>2023-09-17T11:12:37.424Z</time>
      </trkpt>
      <trkpt lat="43.77309" lon="1.5877">
        <ele>126.54389</ele>
        <time>2023-09-17T11:12:38.424Z</time>
      </trkpt>
      <trkpt lat="43.77309" lon="1.5877">
        <ele>126.54389</ele>
        <time>2023-09-17T11:12:38.424Z</time>
      </trkpt>
      <trkpt lat="43.77305" lon="1.58774">
        <ele>126.560869</ele>
        <time>2023-09-17T11:12:39.424Z</time>
      </trkpt>
      <trkpt lat="43.773" lon="1.58778">
        <ele>126.57622</ele>
        <time>2023-09-17T11:12:40.424Z</time>
      </trkpt>
      <trkpt lat="43.773" lon="1.58778">
        <ele>126.57622</ele>
        <time>2023-09-17T11:12:40.424Z</time>
      </trkpt>
      <trkpt lat="43.77296" lon="1.58782">
        <ele>126.59248</ele>
        <time>2023-09-17T11:12:41.424Z</time>
      </trkpt>
      <trkpt lat="43.77291" lon="1.58786">
        <ele>126.610009</ele>
        <time>2023-09-17T11:12:42.424Z</time>
      </trkpt>
      <trkpt lat="43.77285" lon="1.5879">
        <ele>126.628027</ele>
        <time>2023-09-17T11:12:43.424Z</time>
      </trkpt>
      <trkpt lat="43.7728" lon="1.58793">
        <ele>126.645134</ele>
        <time>2023-09-17T11:12:44.424Z</time>
      </trkpt>
      <trkpt lat="43.77275" lon="1.58797">
        <ele>126.663252</ele>
        <time>2023-09-17T11:12:45.424Z</time>
      </trkpt>
      <trkpt lat="43.7727" lon="1.58802">
        <ele>126.681596</ele>
        <time>2023-09-17T11:12:46.424Z</time>
      </trkpt>
      <trkpt lat="43.77266" lon="1.58807">
        <ele>126.698839</ele>
        <time>2023-09-17T11:12:47.424Z</time>
      </trkpt>
      <trkpt lat="43.77256" lon="1.58816">
        <ele>126.734915</ele>
        <time>2023-09-17T11:12:48.424Z</time>
      </trkpt>
      <trkpt lat="43.77251" lon="1.58821">
        <ele>126.752763</ele>
        <time>2023-09-17T11:12:50.424Z</time>
      </trkpt>
      <trkpt lat="43.77241" lon="1.5883">
        <ele>126.788497</ele>
        <time>2023-09-17T11:12:52.424Z</time>
      </trkpt>
      <trkpt lat="43.77241" lon="1.5883">
        <ele>126.788497</ele>
        <time>2023-09-17T11:12:52.424Z</time>
      </trkpt>
      <trkpt lat="43.77237" lon="1.58834">
        <ele>126.807808</ele>
        <time>2023-09-17T11:12:52.424Z</time>
      </trkpt>
      <trkpt lat="43.77232" lon="1.58838">
        <ele>126.832118</ele>
        <time>2023-09-17T11:12:54.424Z</time>
      </trkpt>
      <trkpt lat="43.77227" lon="1.58843">
        <ele>126.856764</ele>
        <time>2023-09-17T11:12:56.424Z</time>
      </trkpt>
      <trkpt lat="43.77227" lon="1.58843">
        <ele>126.856764</ele>
        <time>2023-09-17T11:12:56.424Z</time>
      </trkpt>
      <trkpt lat="43.77218" lon="1.58851">
        <ele>126.899375</ele>
        <time>2023-09-17T11:12:57.424Z</time>
      </trkpt>
      <trkpt lat="43.77213" lon="1.58855">
        <ele>126.923193</ele>
        <time>2023-09-17T11:12:57.424Z</time>
      </trkpt>
      <trkpt lat="43.77208" lon="1.5886">
        <ele>126.949049</ele>
        <time>2023-09-17T11:12:58.424Z</time>
      </trkpt>
      <trkpt lat="43.77203" lon="1.58864">
        <ele>126.973192</ele>
        <time>2023-09-17T11:12:59.424Z</time>
      </trkpt>
      <trkpt lat="43.77197" lon="1.5887">
        <ele>127.001358</ele>
        <time>2023-09-17T11:13:00.424Z</time>
      </trkpt>
      <trkpt lat="43.77192" lon="1.58874">
        <ele>127.027061</ele>
        <time>2023-09-17T11:13:01.424Z</time>
      </trkpt>
      <trkpt lat="43.77182" lon="1.58883">
        <ele>127.075962</ele>
        <time>2023-09-17T11:13:03.424Z</time>
      </trkpt>
      <trkpt lat="43.77182" lon="1.58883">
        <ele>127.075962</ele>
        <time>2023-09-17T11:13:03.424Z</time>
      </trkpt>
      <trkpt lat="43.77177" lon="1.58887">
        <ele>127.099102</ele>
        <time>2023-09-17T11:13:04.424Z</time>
      </trkpt>
      <trkpt lat="43.77171" lon="1.58894">
        <ele>127.129788</ele>
        <time>2023-09-17T11:13:05.424Z</time>
      </trkpt>
      <trkpt lat="43.77165" lon="1.589">
        <ele>127.161911</ele>
        <time>2023-09-17T11:13:06.424Z</time>
      </trkpt>
      <trkpt lat="43.7716" lon="1.58907">
        <ele>127.188783</ele>
        <time>2023-09-17T11:13:07.424Z</time>
      </trkpt>
      <trkpt lat="43.77155" lon="1.58913">
        <ele>127.217204</ele>
        <time>2023-09-17T11:13:08.424Z</time>
      </trkpt>
      <trkpt lat="43.7715" lon="1.58917">
        <ele>127.238682</ele>
        <time>2023-09-17T11:13:09.424Z</time>
      </trkpt>
      <trkpt lat="43.77142" lon="1.58925">
        <ele>127.278755</ele>
        <time>2023-09-17T11:13:12.424Z</time>
      </trkpt>
      <trkpt lat="43.77142" lon="1.58925">
        <ele>127.278755</ele>
        <time>2023-09-17T11:13:12.424Z</time>
      </trkpt>
      <trkpt lat="43.77139" lon="1.58929">
        <ele>127.296576</ele>
        <time>2023-09-17T11:13:12.424Z</time>
      </trkpt>
      <trkpt lat="43.77132" lon="1.58938">
        <ele>127.336242</ele>
        <time>2023-09-17T11:13:15.424Z</time>
      </trkpt>
      <trkpt lat="43.77128" lon="1.58943">
        <ele>127.356444</ele>
        <time>2023-09-17T11:13:16.424Z</time>
      </trkpt>
      <trkpt lat="43.77121" lon="1.58953">
        <ele>127.400436</ele>
        <time>2023-09-17T11:13:18.424Z</time>
      </trkpt>
      <trkpt lat="43.77116" lon="1.58959">
        <ele>127.426116</ele>
        <time>2023-09-17T11:13:18.424Z</time>
      </trkpt>
      <trkpt lat="43.77111" lon="1.58963">
        <ele>127.448582</ele>
        <time>2023-09-17T11:13:19.424Z</time>
      </trkpt>
      <trkpt lat="43.77111" lon="1.58963">
        <ele>127.448582</ele>
        <time>2023-09-17T11:13:19.424Z</time>
      </trkpt>
      <trkpt lat="43.77107" lon="1.58968">
        <ele>127.472251</ele>
        <time>2023-09-17T11:13:20.424Z</time>
      </trkpt>
      <trkpt lat="43.77101" lon="1.58973">
        <ele>127.500417</ele>
        <time>2023-09-17T11:13:21.424Z</time>
      </trkpt>
      <trkpt lat="43.77096" lon="1.58978">
        <ele>127.523731</ele>
        <time>2023-09-17T11:13:22.424Z</time>
      </trkpt>
      <trkpt lat="43.77092" lon="1.58982">
        <ele>127.552599</ele>
        <time>2023-09-17T11:13:23.424Z</time>
      </trkpt>
      <trkpt lat="43.77087" lon="1.58986">
        <ele>127.582245</ele>
        <time>2023-09-17T11:13:24.424Z</time>
      </trkpt>
      <trkpt lat="43.77082" lon="1.5899">
        <ele>127.611472</ele>
        <time>2023-09-17T11:13:25.424Z</time>
      </trkpt>
      <trkpt lat="43.77077" lon="1.58995">
        <ele>127.646213</ele>
        <time>2023-09-17T11:13:26.424Z</time>
      </trkpt>
      <trkpt lat="43.77072" lon="1.58998">
        <ele>127.676059</ele>
        <time>2023-09-17T11:13:27.424Z</time>
      </trkpt>
      <trkpt lat="43.77066" lon="1.59002">
        <ele>127.708307</ele>
        <time>2023-09-17T11:13:28.424Z</time>
      </trkpt>
      <trkpt lat="43.7706" lon="1.59005">
        <ele>127.743835</ele>
        <time>2023-09-17T11:13:29.424Z</time>
      </trkpt>
      <trkpt lat="43.77053" lon="1.59009">
        <ele>127.78351</ele>
        <time>2023-09-17T11:13:30.424Z</time>
      </trkpt>
      <trkpt lat="43.77047" lon="1.59012">
        <ele>127.819743</ele>
        <time>2023-09-17T11:13:31.424Z</time>
      </trkpt>
      <trkpt lat="43.77041" lon="1.59014">
        <ele>127.85376</ele>
        <time>2023-09-17T11:13:32.424Z</time>
      </trkpt>
      <trkpt lat="43.77041" lon="1.59014">
        <ele>127.85376</ele>
        <time>2023-09-17T11:13:32.424Z</time>
      </trkpt>
      <trkpt lat="43.77036" lon="1.59016">
        <ele>127.883646</ele>
        <time>2023-09-17T11:13:33.424Z</time>
      </trkpt>
      <trkpt lat="43.7703" lon="1.59018">
        <ele>127.915591</ele>
        <time>2023-09-17T11:13:34.424Z</time>
      </trkpt>
      <trkpt lat="43.77026" lon="1.5902">
        <ele>127.93893</ele>
        <time>2023-09-17T11:13:35.424Z</time>
      </trkpt>
      <trkpt lat="43.77022" lon="1.59021">
        <ele>127.960301</ele>
        <time>2023-09-17T11:13:36.424Z</time>
      </trkpt>
      <trkpt lat="43.77018" lon="1.59024">
        <ele>127.984462</ele>
        <time>2023-09-17T11:13:37.424Z</time>
      </trkpt>
      <trkpt lat="43.77018" lon="1.59024">
        <ele>127.984462</ele>
        <time>2023-09-17T11:13:37.424Z</time>
      </trkpt>
      <trkpt lat="43.77013" lon="1.59026">
        <ele>128.010778</ele>
        <time>2023-09-17T11:13:38.424Z</time>
      </trkpt>
      <trkpt lat="43.77008" lon="1.59028">
        <ele>128.036606</ele>
        <time>2023-09-17T11:13:39.424Z</time>
      </trkpt>
      <trkpt lat="43.77004" lon="1.5903">
        <ele>128.064093</ele>
        <time>2023-09-17T11:13:40.424Z</time>
      </trkpt>
      <trkpt lat="43.76999" lon="1.59031">
        <ele>128.091796</ele>
        <time>2023-09-17T11:13:42.424Z</time>
      </trkpt>
      <trkpt lat="43.76993" lon="1.59033">
        <ele>128.120984</ele>
        <time>2023-09-17T11:13:43.424Z</time>
      </trkpt>
      <trkpt lat="43.76988" lon="1.59035">
        <ele>128.152277</ele>
        <time>2023-09-17T11:13:44.424Z</time>
      </trkpt>
      <trkpt lat="43.76983" lon="1.59036">
        <ele>128.17989</ele>
        <time>2023-09-17T11:13:44.424Z</time>
      </trkpt>
      <trkpt lat="43.76977" lon="1.59038">
        <ele>128.209448</ele>
        <time>2023-09-17T11:13:46.424Z</time>
      </trkpt>
      <trkpt lat="43.76972" lon="1.59041">
        <ele>128.240474</ele>
        <time>2023-09-17T11:13:47.424Z</time>
      </trkpt>
      <trkpt lat="43.76972" lon="1.59041">
        <ele>128.240474</ele>
        <time>2023-09-17T11:13:47.424Z</time>
      </trkpt>
      <trkpt lat="43.76966" lon="1.59044">
        <ele>128.273284</ele>
        <time>2023-09-17T11:13:48.424Z</time>
      </trkpt>
      <trkpt lat="43.76961" lon="1.59047">
        <ele>128.304092</ele>
        <time>2023-09-17T11:13:49.424Z</time>
      </trkpt>
      <trkpt lat="43.76949" lon="1.59053">
        <ele>128.372103</ele>
        <time>2023-09-17T11:13:51.424Z</time>
      </trkpt>
      <trkpt lat="43.76945" lon="1.59055">
        <ele>128.394265</ele>
        <time>2023-09-17T11:13:53.424Z</time>
      </trkpt>
      <trkpt lat="43.76945" lon="1.59055">
        <ele>128.394265</ele>
        <time>2023-09-17T11:13:53.424Z</time>
      </trkpt>
      <trkpt lat="43.76942" lon="1.59057">
        <ele>128.411857</ele>
        <time>2023-09-17T11:13:54.424Z</time>
      </trkpt>
      <trkpt lat="43.76929" lon="1.59064">
        <ele>128.486908</ele>
        <time>2023-09-17T11:13:55.424Z</time>
      </trkpt>
      <trkpt lat="43.76925" lon="1.59066">
        <ele>128.54464</ele>
        <time>2023-09-17T11:13:55.424Z</time>
      </trkpt>
      <trkpt lat="43.76922" lon="1.59068">
        <ele>128.620942</ele>
        <time>2023-09-17T11:13:57.424Z</time>
      </trkpt>
      <trkpt lat="43.76922" lon="1.59068">
        <ele>128.620942</ele>
        <time>2023-09-17T11:13:57.424Z</time>
      </trkpt>
      <trkpt lat="43.76917" lon="1.59071">
        <ele>128.714117</ele>
        <time>2023-09-17T11:13:59.424Z</time>
      </trkpt>
      <trkpt lat="43.76912" lon="1.59074">
        <ele>128.807826</ele>
        <time>2023-09-17T11:14:00.424Z</time>
      </trkpt>
      <trkpt lat="43.76907" lon="1.59077">
        <ele>128.906682</ele>
        <time>2023-09-17T11:14:01.424Z</time>
      </trkpt>
      <trkpt lat="43.76901" lon="1.5908">
        <ele>129.033127</ele>
        <time>2023-09-17T11:14:02.424Z</time>
      </trkpt>
      <trkpt lat="43.76901" lon="1.5908">
        <ele>129.033127</ele>
        <time>2023-09-17T11:14:02.424Z</time>
      </trkpt>
      <trkpt lat="43.76897" lon="1.59083">
        <ele>129.116674</ele>
        <time>2023-09-17T11:14:03.424Z</time>
      </trkpt>
      <trkpt lat="43.76891" lon="1.59086">
        <ele>129.241036</ele>
        <time>2023-09-17T11:14:04.424Z</time>
      </trkpt>
      <trkpt lat="43.76886" lon="1.59089">
        <ele>129.33197</ele>
        <time>2023-09-17T11:14:05.424Z</time>
      </trkpt>
      <trkpt lat="43.76881" lon="1.59091">
        <ele>129.445662</ele>
        <time>2023-09-17T11:14:07.424Z</time>
      </trkpt>
      <trkpt lat="43.76881" lon="1.59091">
        <ele>129.445662</ele>
        <time>2023-09-17T11:14:07.424Z</time>
      </trkpt>
      <trkpt lat="43.76874" lon="1.59095">
        <ele>129.581916</ele>
        <time>2023-09-17T11:14:08.424Z</time>
      </trkpt>
      <trkpt lat="43.76859" lon="1.59102">
        <ele>129.87667</ele>
        <time>2023-09-17T11:14:09.424Z</time>
      </trkpt>
      <trkpt lat="43.76859" lon="1.59102">
        <ele>129.87667</ele>
        <time>2023-09-17T11:14:09.424Z</time>
      </trkpt>
      <trkpt lat="43.76854" lon="1.59105">
        <ele>129.975809</ele>
        <time>2023-09-17T11:14:10.424Z</time>
      </trkpt>
      <trkpt lat="43.7685" lon="1.59107">
        <ele>130.058638</ele>
        <time>2023-09-17T11:14:11.424Z</time>
      </trkpt>
      <trkpt lat="43.76844" lon="1.59109">
        <ele>130.169744</ele>
        <time>2023-09-17T11:14:13.424Z</time>
      </trkpt>
      <trkpt lat="43.76844" lon="1.59109">
        <ele>130.169744</ele>
        <time>2023-09-17T11:14:13.424Z</time>
      </trkpt>
      <trkpt lat="43.76839" lon="1.59111">
        <ele>130.271203</ele>
        <time>2023-09-17T11:14:13.424Z</time>
      </trkpt>
      <trkpt lat="43.76835" lon="1.59112">
        <ele>130.349946</ele>
        <time>2023-09-17T11:14:14.424Z</time>
      </trkpt>
      <trkpt lat="43.76835" lon="1.59112">
        <ele>130.349946</ele>
        <time>2023-09-17T11:14:14.424Z</time>
      </trkpt>
      <trkpt lat="43.76823" lon="1.59111">
        <ele>130.557234</ele>
        <time>2023-09-17T11:14:16.424Z</time>
      </trkpt>
      <trkpt lat="43.76817" lon="1.5911">
        <ele>130.684911</ele>
        <time>2023-09-17T11:14:17.424Z</time>
      </trkpt>
      <trkpt lat="43.7681" lon="1.59108">
        <ele>130.815855</ele>
        <time>2023-09-17T11:14:17.424Z</time>
      </trkpt>
      <trkpt lat="43.7681" lon="1.59108">
        <ele>130.815855</ele>
        <time>2023-09-17T11:14:17.424Z</time>
      </trkpt>
      <trkpt lat="43.76803" lon="1.59105">
        <ele>130.942412</ele>
        <time>2023-09-17T11:14:19.424Z</time>
      </trkpt>
      <trkpt lat="43.76803" lon="1.59105">
        <ele>130.942412</ele>
        <time>2023-09-17T11:14:19.424Z</time>
      </trkpt>
      <trkpt lat="43.76799" lon="1.59103">
        <ele>131.03457</ele>
        <time>2023-09-17T11:14:20.424Z</time>
      </trkpt>
      <trkpt lat="43.76799" lon="1.59103">
        <ele>131.03457</ele>
        <time>2023-09-17T11:14:20.424Z</time>
      </trkpt>
      <trkpt lat="43.76796" lon="1.59098">
        <ele>131.115378</ele>
        <time>2023-09-17T11:14:22.424Z</time>
      </trkpt>
      <trkpt lat="43.76796" lon="1.59098">
        <ele>131.115378</ele>
        <time>2023-09-17T11:14:22.424Z</time>
      </trkpt>
      <trkpt lat="43.76793" lon="1.59093">
        <ele>131.197319</ele>
        <time>2023-09-17T11:14:23.424Z</time>
      </trkpt>
      <trkpt lat="43.76793" lon="1.59093">
        <ele>131.197319</ele>
        <time>2023-09-17T11:14:23.424Z</time>
      </trkpt>
      <trkpt lat="43.76791" lon="1.59088">
        <ele>131.276025</ele>
        <time>2023-09-17T11:14:24.424Z</time>
      </trkpt>
      <trkpt lat="43.76791" lon="1.59088">
        <ele>131.276025</ele>
        <time>2023-09-17T11:14:24.424Z</time>
      </trkpt>
      <trkpt lat="43.76789" lon="1.59083">
        <ele>131.353606</ele>
        <time>2023-09-17T11:14:25.424Z</time>
      </trkpt>
      <trkpt lat="43.76789" lon="1.59083">
        <ele>131.353606</ele>
        <time>2023-09-17T11:14:25.424Z</time>
      </trkpt>
      <trkpt lat="43.76786" lon="1.59077">
        <ele>131.44509</ele>
        <time>2023-09-17T11:14:26.424Z</time>
      </trkpt>
      <trkpt lat="43.76786" lon="1.59077">
        <ele>131.44509</ele>
        <time>2023-09-17T11:14:26.424Z</time>
      </trkpt>
      <trkpt lat="43.76785" lon="1.59072">
        <ele>131.52933</ele>
        <time>2023-09-17T11:14:28.424Z</time>
      </trkpt>
      <trkpt lat="43.76785" lon="1.59072">
        <ele>131.52933</ele>
        <time>2023-09-17T11:14:28.424Z</time>
      </trkpt>
      <trkpt lat="43.76783" lon="1.59063">
        <ele>131.651576</ele>
        <time>2023-09-17T11:14:29.424Z</time>
      </trkpt>
      <trkpt lat="43.7678" lon="1.59053">
        <ele>131.792838</ele>
        <time>2023-09-17T11:14:30.424Z</time>
      </trkpt>
      <trkpt lat="43.7678" lon="1.59053">
        <ele>131.792838</ele>
        <time>2023-09-17T11:14:30.424Z</time>
      </trkpt>
      <trkpt lat="43.76777" lon="1.5904">
        <ele>132.04648</ele>
        <time>2023-09-17T11:14:31.424Z</time>
      </trkpt>
      <trkpt lat="43.76777" lon="1.5904">
        <ele>132.04648</ele>
        <time>2023-09-17T11:14:31.424Z</time>
      </trkpt>
      <trkpt lat="43.76775" lon="1.59031">
        <ele>132.256793</ele>
        <time>2023-09-17T11:14:32.424Z</time>
      </trkpt>
      <trkpt lat="43.76775" lon="1.59031">
        <ele>132.256793</ele>
        <time>2023-09-17T11:14:32.424Z</time>
      </trkpt>
      <trkpt lat="43.76774" lon="1.59024">
        <ele>132.401014</ele>
        <time>2023-09-17T11:14:34.424Z</time>
      </trkpt>
      <trkpt lat="43.76774" lon="1.59024">
        <ele>132.401014</ele>
        <time>2023-09-17T11:14:34.424Z</time>
      </trkpt>
      <trkpt lat="43.76772" lon="1.59018">
        <ele>132.531562</ele>
        <time>2023-09-17T11:14:35.424Z</time>
      </trkpt>
      <trkpt lat="43.76772" lon="1.59018">
        <ele>132.531562</ele>
        <time>2023-09-17T11:14:35.424Z</time>
      </trkpt>
      <trkpt lat="43.76771" lon="1.59012">
        <ele>132.676162</ele>
        <time>2023-09-17T11:14:36.424Z</time>
      </trkpt>
      <trkpt lat="43.76771" lon="1.59012">
        <ele>132.676162</ele>
        <time>2023-09-17T11:14:36.424Z</time>
      </trkpt>
      <trkpt lat="43.76769" lon="1.59004">
        <ele>132.866527</ele>
        <time>2023-09-17T11:14:36.424Z</time>
      </trkpt>
      <trkpt lat="43.76769" lon="1.59004">
        <ele>132.866527</ele>
        <time>2023-09-17T11:14:36.424Z</time>
      </trkpt>
      <trkpt lat="43.76766" lon="1.58997">
        <ele>133.014229</ele>
        <time>2023-09-17T11:14:38.424Z</time>
      </trkpt>
      <trkpt lat="43.76766" lon="1.58997">
        <ele>133.014229</ele>
        <time>2023-09-17T11:14:38.424Z</time>
      </trkpt>
      <trkpt lat="43.76764" lon="1.58991">
        <ele>133.169519</ele>
        <time>2023-09-17T11:14:39.424Z</time>
      </trkpt>
      <trkpt lat="43.76764" lon="1.58991">
        <ele>133.169519</ele>
        <time>2023-09-17T11:14:39.424Z</time>
      </trkpt>
      <trkpt lat="43.76763" lon="1.58988">
        <ele>133.233373</ele>
        <time>2023-09-17T11:14:40.424Z</time>
      </trkpt>
      <trkpt lat="43.76763" lon="1.58988">
        <ele>133.233373</ele>
        <time>2023-09-17T11:14:40.424Z</time>
      </trkpt>
      <trkpt lat="43.76757" lon="1.58977">
        <ele>133.532351</ele>
        <time>2023-09-17T11:14:41.424Z</time>
      </trkpt>
      <trkpt lat="43.76757" lon="1.58977">
        <ele>133.532351</ele>
        <time>2023-09-17T11:14:41.424Z</time>
      </trkpt>
      <trkpt lat="43.76754" lon="1.5897">
        <ele>133.704146</ele>
        <time>2023-09-17T11:14:42.424Z</time>
      </trkpt>
      <trkpt lat="43.7675" lon="1.58964">
        <ele>133.876467</ele>
        <time>2023-09-17T11:14:43.424Z</time>
      </trkpt>
      <trkpt lat="43.7675" lon="1.58964">
        <ele>133.876467</ele>
        <time>2023-09-17T11:14:43.424Z</time>
      </trkpt>
      <trkpt lat="43.76746" lon="1.58957">
        <ele>134.066078</ele>
        <time>2023-09-17T11:14:44.424Z</time>
      </trkpt>
      <trkpt lat="43.76746" lon="1.58957">
        <ele>134.066078</ele>
        <time>2023-09-17T11:14:44.424Z</time>
      </trkpt>
      <trkpt lat="43.76741" lon="1.5895">
        <ele>134.261979</ele>
        <time>2023-09-17T11:14:45.424Z</time>
      </trkpt>
      <trkpt lat="43.76741" lon="1.5895">
        <ele>134.261979</ele>
        <time>2023-09-17T11:14:45.424Z</time>
      </trkpt>
      <trkpt lat="43.76737" lon="1.58944">
        <ele>134.431091</ele>
        <time>2023-09-17T11:14:46.424Z</time>
      </trkpt>
      <trkpt lat="43.76737" lon="1.58944">
        <ele>134.431091</ele>
        <time>2023-09-17T11:14:46.424Z</time>
      </trkpt>
      <trkpt lat="43.76733" lon="1.58938">
        <ele>134.615917</ele>
        <time>2023-09-17T11:14:47.424Z</time>
      </trkpt>
      <trkpt lat="43.76733" lon="1.58938">
        <ele>134.615917</ele>
        <time>2023-09-17T11:14:47.424Z</time>
      </trkpt>
      <trkpt lat="43.76728" lon="1.5893">
        <ele>134.845972</ele>
        <time>2023-09-17T11:14:48.424Z</time>
      </trkpt>
      <trkpt lat="43.76725" lon="1.58926">
        <ele>134.971761</ele>
        <time>2023-09-17T11:14:49.424Z</time>
      </trkpt>
      <trkpt lat="43.76725" lon="1.58926">
        <ele>134.971761</ele>
        <time>2023-09-17T11:14:49.424Z</time>
      </trkpt>
      <trkpt lat="43.76721" lon="1.58922">
        <ele>135.099971</ele>
        <time>2023-09-17T11:14:49.424Z</time>
      </trkpt>
      <trkpt lat="43.76719" lon="1.58919">
        <ele>135.195643</ele>
        <time>2023-09-17T11:14:51.424Z</time>
      </trkpt>
      <trkpt lat="43.76719" lon="1.58919">
        <ele>135.195643</ele>
        <time>2023-09-17T11:14:51.424Z</time>
      </trkpt>
      <trkpt lat="43.76716" lon="1.58915">
        <ele>135.316388</ele>
        <time>2023-09-17T11:14:52.424Z</time>
      </trkpt>
      <trkpt lat="43.76716" lon="1.58915">
        <ele>135.316388</ele>
        <time>2023-09-17T11:14:52.424Z</time>
      </trkpt>
      <trkpt lat="43.76706" lon="1.58901">
        <ele>135.719388</ele>
        <time>2023-09-17T11:14:54.424Z</time>
      </trkpt>
      <trkpt lat="43.76706" lon="1.58901">
        <ele>135.719388</ele>
        <time>2023-09-17T11:14:54.424Z</time>
      </trkpt>
      <trkpt lat="43.76703" lon="1.58896">
        <ele>135.863761</ele>
        <time>2023-09-17T11:14:55.424Z</time>
      </trkpt>
      <trkpt lat="43.76703" lon="1.58896">
        <ele>135.863761</ele>
        <time>2023-09-17T11:14:55.424Z</time>
      </trkpt>
      <trkpt lat="43.767" lon="1.58889">
        <ele>136.03388</ele>
        <time>2023-09-17T11:14:55.424Z</time>
      </trkpt>
      <trkpt lat="43.767" lon="1.58889">
        <ele>136.03388</ele>
        <time>2023-09-17T11:14:55.424Z</time>
      </trkpt>
      <trkpt lat="43.76696" lon="1.58883">
        <ele>136.203956</ele>
        <time>2023-09-17T11:14:56.424Z</time>
      </trkpt>
      <trkpt lat="43.76692" lon="1.58875">
        <ele>136.403402</ele>
        <time>2023-09-17T11:14:58.424Z</time>
      </trkpt>
      <trkpt lat="43.76692" lon="1.58875">
        <ele>136.403402</ele>
        <time>2023-09-17T11:14:58.424Z</time>
      </trkpt>
      <trkpt lat="43.76688" lon="1.58868">
        <ele>136.596254</ele>
        <time>2023-09-17T11:14:58.424Z</time>
      </trkpt>
      <trkpt lat="43.76688" lon="1.58868">
        <ele>136.596254</ele>
        <time>2023-09-17T11:14:58.424Z</time>
      </trkpt>
      <trkpt lat="43.76684" lon="1.58863">
        <ele>136.760641</ele>
        <time>2023-09-17T11:14:59.424Z</time>
      </trkpt>
      <trkpt lat="43.7668" lon="1.58857">
        <ele>136.92194</ele>
        <time>2023-09-17T11:15:01.424Z</time>
      </trkpt>
      <trkpt lat="43.7668" lon="1.58857">
        <ele>136.92194</ele>
        <time>2023-09-17T11:15:01.424Z</time>
      </trkpt>
      <trkpt lat="43.76676" lon="1.5885">
        <ele>137.125651</ele>
        <time>2023-09-17T11:15:02.424Z</time>
      </trkpt>
      <trkpt lat="43.76676" lon="1.5885">
        <ele>137.125651</ele>
        <time>2023-09-17T11:15:02.424Z</time>
      </trkpt>
      <trkpt lat="43.76672" lon="1.58844">
        <ele>137.326439</ele>
        <time>2023-09-17T11:15:02.424Z</time>
      </trkpt>
      <trkpt lat="43.76672" lon="1.58844">
        <ele>137.326439</ele>
        <time>2023-09-17T11:15:02.424Z</time>
      </trkpt>
      <trkpt lat="43.76667" lon="1.58837">
        <ele>137.570876</ele>
        <time>2023-09-17T11:15:03.424Z</time>
      </trkpt>
      <trkpt lat="43.76662" lon="1.58833">
        <ele>137.778779</ele>
        <time>2023-09-17T11:15:05.424Z</time>
      </trkpt>
      <trkpt lat="43.76662" lon="1.58833">
        <ele>137.778779</ele>
        <time>2023-09-17T11:15:05.424Z</time>
      </trkpt>
      <trkpt lat="43.76656" lon="1.5883">
        <ele>137.994728</ele>
        <time>2023-09-17T11:15:06.424Z</time>
      </trkpt>
      <trkpt lat="43.7665" lon="1.58827">
        <ele>138.230395</ele>
        <time>2023-09-17T11:15:06.424Z</time>
      </trkpt>
      <trkpt lat="43.7665" lon="1.58827">
        <ele>138.230395</ele>
        <time>2023-09-17T11:15:06.424Z</time>
      </trkpt>
      <trkpt lat="43.76644" lon="1.58824">
        <ele>138.459466</ele>
        <time>2023-09-17T11:15:08.424Z</time>
      </trkpt>
      <trkpt lat="43.76644" lon="1.58824">
        <ele>138.459466</ele>
        <time>2023-09-17T11:15:08.424Z</time>
      </trkpt>
      <trkpt lat="43.7664" lon="1.58819">
        <ele>138.632236</ele>
        <time>2023-09-17T11:15:09.424Z</time>
      </trkpt>
      <trkpt lat="43.76636" lon="1.58813">
        <ele>138.839124</ele>
        <time>2023-09-17T11:15:10.424Z</time>
      </trkpt>
      <trkpt lat="43.76636" lon="1.58813">
        <ele>138.839124</ele>
        <time>2023-09-17T11:15:10.424Z</time>
      </trkpt>
      <trkpt lat="43.76633" lon="1.58809">
        <ele>138.995245</ele>
        <time>2023-09-17T11:15:10.424Z</time>
      </trkpt>
      <trkpt lat="43.76633" lon="1.58809">
        <ele>138.995245</ele>
        <time>2023-09-17T11:15:10.424Z</time>
      </trkpt>
      <trkpt lat="43.7663" lon="1.58804">
        <ele>139.142608</ele>
        <time>2023-09-17T11:15:12.424Z</time>
      </trkpt>
      <trkpt lat="43.7663" lon="1.58804">
        <ele>139.142608</ele>
        <time>2023-09-17T11:15:12.424Z</time>
      </trkpt>
      <trkpt lat="43.76627" lon="1.588">
        <ele>139.276301</ele>
        <time>2023-09-17T11:15:13.424Z</time>
      </trkpt>
      <trkpt lat="43.76627" lon="1.588">
        <ele>139.276301</ele>
        <time>2023-09-17T11:15:13.424Z</time>
      </trkpt>
      <trkpt lat="43.76625" lon="1.58796">
        <ele>139.423665</ele>
        <time>2023-09-17T11:15:13.424Z</time>
      </trkpt>
      <trkpt lat="43.76625" lon="1.58796">
        <ele>139.423665</ele>
        <time>2023-09-17T11:15:13.424Z</time>
      </trkpt>
      <trkpt lat="43.76622" lon="1.58791">
        <ele>139.58775</ele>
        <time>2023-09-17T11:15:14.424Z</time>
      </trkpt>
      <trkpt lat="43.76622" lon="1.58791">
        <ele>139.58775</ele>
        <time>2023-09-17T11:15:14.424Z</time>
      </trkpt>
      <trkpt lat="43.76619" lon="1.58787">
        <ele>139.74017</ele>
        <time>2023-09-17T11:15:15.424Z</time>
      </trkpt>
      <trkpt lat="43.76619" lon="1.58787">
        <ele>139.74017</ele>
        <time>2023-09-17T11:15:15.424Z</time>
      </trkpt>
      <trkpt lat="43.76615" lon="1.58782">
        <ele>139.917883</ele>
        <time>2023-09-17T11:15:17.424Z</time>
      </trkpt>
      <trkpt lat="43.76615" lon="1.58782">
        <ele>139.917883</ele>
        <time>2023-09-17T11:15:17.424Z</time>
      </trkpt>
      <trkpt lat="43.7661" lon="1.58777">
        <ele>140.126601</ele>
        <time>2023-09-17T11:15:17.424Z</time>
      </trkpt>
      <trkpt lat="43.7661" lon="1.58777">
        <ele>140.126601</ele>
        <time>2023-09-17T11:15:17.424Z</time>
      </trkpt>
      <trkpt lat="43.76606" lon="1.58771">
        <ele>140.338578</ele>
        <time>2023-09-17T11:15:18.424Z</time>
      </trkpt>
      <trkpt lat="43.76606" lon="1.58771">
        <ele>140.338578</ele>
        <time>2023-09-17T11:15:18.424Z</time>
      </trkpt>
      <trkpt lat="43.76601" lon="1.58766">
        <ele>140.536773</ele>
        <time>2023-09-17T11:15:20.424Z</time>
      </trkpt>
      <trkpt lat="43.76601" lon="1.58766">
        <ele>140.536773</ele>
        <time>2023-09-17T11:15:20.424Z</time>
      </trkpt>
      <trkpt lat="43.76598" lon="1.58761">
        <ele>140.721351</ele>
        <time>2023-09-17T11:15:20.424Z</time>
      </trkpt>
      <trkpt lat="43.76593" lon="1.58756">
        <ele>140.912905</ele>
        <time>2023-09-17T11:15:21.424Z</time>
      </trkpt>
      <trkpt lat="43.76593" lon="1.58756">
        <ele>140.912905</ele>
        <time>2023-09-17T11:15:21.424Z</time>
      </trkpt>
      <trkpt lat="43.76589" lon="1.58751">
        <ele>141.096596</ele>
        <time>2023-09-17T11:15:23.424Z</time>
      </trkpt>
      <trkpt lat="43.76589" lon="1.58751">
        <ele>141.096596</ele>
        <time>2023-09-17T11:15:23.424Z</time>
      </trkpt>
      <trkpt lat="43.76585" lon="1.58746">
        <ele>141.300565</ele>
        <time>2023-09-17T11:15:24.424Z</time>
      </trkpt>
      <trkpt lat="43.76585" lon="1.58746">
        <ele>141.300565</ele>
        <time>2023-09-17T11:15:24.424Z</time>
      </trkpt>
      <trkpt lat="43.76581" lon="1.58742">
        <ele>141.457817</ele>
        <time>2023-09-17T11:15:24.424Z</time>
      </trkpt>
      <trkpt lat="43.76581" lon="1.58742">
        <ele>141.457817</ele>
        <time>2023-09-17T11:15:24.424Z</time>
      </trkpt>
      <trkpt lat="43.76577" lon="1.58738">
        <ele>141.641509</ele>
        <time>2023-09-17T11:15:26.424Z</time>
      </trkpt>
      <trkpt lat="43.76577" lon="1.58738">
        <ele>141.641509</ele>
        <time>2023-09-17T11:15:26.424Z</time>
      </trkpt>
      <trkpt lat="43.76573" lon="1.58733">
        <ele>141.829628</ele>
        <time>2023-09-17T11:15:27.424Z</time>
      </trkpt>
      <trkpt lat="43.76573" lon="1.58733">
        <ele>141.829628</ele>
        <time>2023-09-17T11:15:27.424Z</time>
      </trkpt>
      <trkpt lat="43.76569" lon="1.58727">
        <ele>142.015968</ele>
        <time>2023-09-17T11:15:28.424Z</time>
      </trkpt>
      <trkpt lat="43.76569" lon="1.58727">
        <ele>142.015968</ele>
        <time>2023-09-17T11:15:28.424Z</time>
      </trkpt>
      <trkpt lat="43.76566" lon="1.58723">
        <ele>142.187783</ele>
        <time>2023-09-17T11:15:29.424Z</time>
      </trkpt>
      <trkpt lat="43.76566" lon="1.58723">
        <ele>142.187783</ele>
        <time>2023-09-17T11:15:29.424Z</time>
      </trkpt>
      <trkpt lat="43.76563" lon="1.58719">
        <ele>142.329595</ele>
        <time>2023-09-17T11:15:29.424Z</time>
      </trkpt>
      <trkpt lat="43.76563" lon="1.58719">
        <ele>142.329595</ele>
        <time>2023-09-17T11:15:29.424Z</time>
      </trkpt>
      <trkpt lat="43.76561" lon="1.58716">
        <ele>142.43641</ele>
        <time>2023-09-17T11:15:31.424Z</time>
      </trkpt>
      <trkpt lat="43.76561" lon="1.58716">
        <ele>142.43641</ele>
        <time>2023-09-17T11:15:31.424Z</time>
      </trkpt>
      <trkpt lat="43.76558" lon="1.58711">
        <ele>142.597731</ele>
        <time>2023-09-17T11:15:31.424Z</time>
      </trkpt>
      <trkpt lat="43.76558" lon="1.58711">
        <ele>142.597731</ele>
        <time>2023-09-17T11:15:31.424Z</time>
      </trkpt>
      <trkpt lat="43.76554" lon="1.58707">
        <ele>142.764219</ele>
        <time>2023-09-17T11:15:33.424Z</time>
      </trkpt>
      <trkpt lat="43.76554" lon="1.58707">
        <ele>142.764219</ele>
        <time>2023-09-17T11:15:33.424Z</time>
      </trkpt>
      <trkpt lat="43.76545" lon="1.58696">
        <ele>143.174356</ele>
        <time>2023-09-17T11:15:35.424Z</time>
      </trkpt>
      <trkpt lat="43.76545" lon="1.58696">
        <ele>143.174356</ele>
        <time>2023-09-17T11:15:35.424Z</time>
      </trkpt>
      <trkpt lat="43.76542" lon="1.58691">
        <ele>143.347344</ele>
        <time>2023-09-17T11:15:36.424Z</time>
      </trkpt>
      <trkpt lat="43.76542" lon="1.58691">
        <ele>143.347344</ele>
        <time>2023-09-17T11:15:36.424Z</time>
      </trkpt>
      <trkpt lat="43.76538" lon="1.58686">
        <ele>143.554238</ele>
        <time>2023-09-17T11:15:37.424Z</time>
      </trkpt>
      <trkpt lat="43.76538" lon="1.58686">
        <ele>143.554238</ele>
        <time>2023-09-17T11:15:37.424Z</time>
      </trkpt>
      <trkpt lat="43.76534" lon="1.5868">
        <ele>143.822575</ele>
        <time>2023-09-17T11:15:39.424Z</time>
      </trkpt>
      <trkpt lat="43.76534" lon="1.5868">
        <ele>143.822575</ele>
        <time>2023-09-17T11:15:39.424Z</time>
      </trkpt>
      <trkpt lat="43.76529" lon="1.58674">
        <ele>144.103847</ele>
        <time>2023-09-17T11:15:39.424Z</time>
      </trkpt>
      <trkpt lat="43.76529" lon="1.58674">
        <ele>144.103847</ele>
        <time>2023-09-17T11:15:39.424Z</time>
      </trkpt>
      <trkpt lat="43.76526" lon="1.58668">
        <ele>144.323537</ele>
        <time>2023-09-17T11:15:40.424Z</time>
      </trkpt>
      <trkpt lat="43.76526" lon="1.58668">
        <ele>144.323537</ele>
        <time>2023-09-17T11:15:40.424Z</time>
      </trkpt>
      <trkpt lat="43.76521" lon="1.5866">
        <ele>144.654984</ele>
        <time>2023-09-17T11:15:42.424Z</time>
      </trkpt>
      <trkpt lat="43.76521" lon="1.5866">
        <ele>144.654984</ele>
        <time>2023-09-17T11:15:42.424Z</time>
      </trkpt>
      <trkpt lat="43.76516" lon="1.58652">
        <ele>144.956359</ele>
        <time>2023-09-17T11:15:42.424Z</time>
      </trkpt>
      <trkpt lat="43.76516" lon="1.58652">
        <ele>144.956359</ele>
        <time>2023-09-17T11:15:42.424Z</time>
      </trkpt>
      <trkpt lat="43.76512" lon="1.58647">
        <ele>145.190549</ele>
        <time>2023-09-17T11:15:43.424Z</time>
      </trkpt>
      <trkpt lat="43.76512" lon="1.58647">
        <ele>145.190549</ele>
        <time>2023-09-17T11:15:43.424Z</time>
      </trkpt>
      <trkpt lat="43.76508" lon="1.5864">
        <ele>145.464462</ele>
        <time>2023-09-17T11:15:45.424Z</time>
      </trkpt>
      <trkpt lat="43.76508" lon="1.5864">
        <ele>145.464462</ele>
        <time>2023-09-17T11:15:45.424Z</time>
      </trkpt>
      <trkpt lat="43.76506" lon="1.58637">
        <ele>145.606194</ele>
        <time>2023-09-17T11:15:46.424Z</time>
      </trkpt>
      <trkpt lat="43.76506" lon="1.58637">
        <ele>145.606194</ele>
        <time>2023-09-17T11:15:46.424Z</time>
      </trkpt>
      <trkpt lat="43.76498" lon="1.58625">
        <ele>146.08266</ele>
        <time>2023-09-17T11:15:46.424Z</time>
      </trkpt>
      <trkpt lat="43.76496" lon="1.5862">
        <ele>146.281554</ele>
        <time>2023-09-17T11:15:47.424Z</time>
      </trkpt>
      <trkpt lat="43.76496" lon="1.5862">
        <ele>146.281554</ele>
        <time>2023-09-17T11:15:47.424Z</time>
      </trkpt>
      <trkpt lat="43.76495" lon="1.58617">
        <ele>146.379299</ele>
        <time>2023-09-17T11:15:49.424Z</time>
      </trkpt>
      <trkpt lat="43.76495" lon="1.58617">
        <ele>146.379299</ele>
        <time>2023-09-17T11:15:49.424Z</time>
      </trkpt>
      <trkpt lat="43.76493" lon="1.5861">
        <ele>146.602887</ele>
        <time>2023-09-17T11:15:49.424Z</time>
      </trkpt>
      <trkpt lat="43.76493" lon="1.5861">
        <ele>146.602887</ele>
        <time>2023-09-17T11:15:49.424Z</time>
      </trkpt>
      <trkpt lat="43.76494" lon="1.58613">
        <ele>146.698084</ele>
        <time>2023-09-17T11:15:50.424Z</time>
      </trkpt>
      <trkpt lat="43.76494" lon="1.58613">
        <ele>146.698084</ele>
        <time>2023-09-17T11:15:50.424Z</time>
      </trkpt>
      <trkpt lat="43.7649" lon="1.58599">
        <ele>147.132491</ele>
        <time>2023-09-17T11:15:52.424Z</time>
      </trkpt>
      <trkpt lat="43.7649" lon="1.58599">
        <ele>147.132491</ele>
        <time>2023-09-17T11:15:52.424Z</time>
      </trkpt>
      <trkpt lat="43.76488" lon="1.58583">
        <ele>147.654288</ele>
        <time>2023-09-17T11:15:54.424Z</time>
      </trkpt>
      <trkpt lat="43.76488" lon="1.58583">
        <ele>147.654288</ele>
        <time>2023-09-17T11:15:54.424Z</time>
      </trkpt>
      <trkpt lat="43.76486" lon="1.58575">
        <ele>147.892241</ele>
        <time>2023-09-17T11:15:55.424Z</time>
      </trkpt>
      <trkpt lat="43.76486" lon="1.58575">
        <ele>147.892241</ele>
        <time>2023-09-17T11:15:55.424Z</time>
      </trkpt>
      <trkpt lat="43.76484" lon="1.58567">
        <ele>148.156323</ele>
        <time>2023-09-17T11:15:56.424Z</time>
      </trkpt>
      <trkpt lat="43.76484" lon="1.58567">
        <ele>148.156323</ele>
        <time>2023-09-17T11:15:56.424Z</time>
      </trkpt>
      <trkpt lat="43.76482" lon="1.58561">
        <ele>148.348133</ele>
        <time>2023-09-17T11:15:56.424Z</time>
      </trkpt>
      <trkpt lat="43.76482" lon="1.58561">
        <ele>148.348133</ele>
        <time>2023-09-17T11:15:56.424Z</time>
      </trkpt>
      <trkpt lat="43.7648" lon="1.58552">
        <ele>148.658351</ele>
        <time>2023-09-17T11:15:59.424Z</time>
      </trkpt>
      <trkpt lat="43.7648" lon="1.58552">
        <ele>148.658351</ele>
        <time>2023-09-17T11:15:59.424Z</time>
      </trkpt>
      <trkpt lat="43.76478" lon="1.58546">
        <ele>148.864887</ele>
        <time>2023-09-17T11:15:59.424Z</time>
      </trkpt>
      <trkpt lat="43.76478" lon="1.58546">
        <ele>148.864887</ele>
        <time>2023-09-17T11:15:59.424Z</time>
      </trkpt>
      <trkpt lat="43.76475" lon="1.58538">
        <ele>149.135884</ele>
        <time>2023-09-17T11:16:00.424Z</time>
      </trkpt>
      <trkpt lat="43.76475" lon="1.58538">
        <ele>149.135884</ele>
        <time>2023-09-17T11:16:00.424Z</time>
      </trkpt>
      <trkpt lat="43.76473" lon="1.58532">
        <ele>149.338793</ele>
        <time>2023-09-17T11:16:02.424Z</time>
      </trkpt>
      <trkpt lat="43.76473" lon="1.58532">
        <ele>149.338793</ele>
        <time>2023-09-17T11:16:02.424Z</time>
      </trkpt>
      <trkpt lat="43.76469" lon="1.58525">
        <ele>149.601133</ele>
        <time>2023-09-17T11:16:02.424Z</time>
      </trkpt>
      <trkpt lat="43.76469" lon="1.58525">
        <ele>149.601133</ele>
        <time>2023-09-17T11:16:02.424Z</time>
      </trkpt>
      <trkpt lat="43.76468" lon="1.58518">
        <ele>149.827584</ele>
        <time>2023-09-17T11:16:03.424Z</time>
      </trkpt>
      <trkpt lat="43.76468" lon="1.58518">
        <ele>149.827584</ele>
        <time>2023-09-17T11:16:03.424Z</time>
      </trkpt>
      <trkpt lat="43.76466" lon="1.58512">
        <ele>150.017319</ele>
        <time>2023-09-17T11:16:06.424Z</time>
      </trkpt>
      <trkpt lat="43.76466" lon="1.58512">
        <ele>150.017319</ele>
        <time>2023-09-17T11:16:06.424Z</time>
      </trkpt>
      <trkpt lat="43.76464" lon="1.58505">
        <ele>150.258159</ele>
        <time>2023-09-17T11:16:07.424Z</time>
      </trkpt>
      <trkpt lat="43.76464" lon="1.58505">
        <ele>150.258159</ele>
        <time>2023-09-17T11:16:07.424Z</time>
      </trkpt>
      <trkpt lat="43.76463" lon="1.58498">
        <ele>150.469434</ele>
        <time>2023-09-17T11:16:07.424Z</time>
      </trkpt>
      <trkpt lat="43.76463" lon="1.58498">
        <ele>150.469434</ele>
        <time>2023-09-17T11:16:07.424Z</time>
      </trkpt>
      <trkpt lat="43.76462" lon="1.58489">
        <ele>150.737262</ele>
        <time>2023-09-17T11:16:09.424Z</time>
      </trkpt>
      <trkpt lat="43.76462" lon="1.58489">
        <ele>150.737262</ele>
        <time>2023-09-17T11:16:09.424Z</time>
      </trkpt>
      <trkpt lat="43.76461" lon="1.58474">
        <ele>151.212428</ele>
        <time>2023-09-17T11:16:10.424Z</time>
      </trkpt>
      <trkpt lat="43.76461" lon="1.58474">
        <ele>151.212428</ele>
        <time>2023-09-17T11:16:10.424Z</time>
      </trkpt>
      <trkpt lat="43.7646" lon="1.58468">
        <ele>151.39106</ele>
        <time>2023-09-17T11:16:12.424Z</time>
      </trkpt>
      <trkpt lat="43.7646" lon="1.58468">
        <ele>151.39106</ele>
        <time>2023-09-17T11:16:12.424Z</time>
      </trkpt>
      <trkpt lat="43.7646" lon="1.58461">
        <ele>151.584609</ele>
        <time>2023-09-17T11:16:13.424Z</time>
      </trkpt>
      <trkpt lat="43.7646" lon="1.58461">
        <ele>151.584609</ele>
        <time>2023-09-17T11:16:13.424Z</time>
      </trkpt>
      <trkpt lat="43.76458" lon="1.58454">
        <ele>151.786145</ele>
        <time>2023-09-17T11:16:14.424Z</time>
      </trkpt>
      <trkpt lat="43.76458" lon="1.58454">
        <ele>151.786145</ele>
        <time>2023-09-17T11:16:14.424Z</time>
      </trkpt>
      <trkpt lat="43.76457" lon="1.58447">
        <ele>151.990235</ele>
        <time>2023-09-17T11:16:16.424Z</time>
      </trkpt>
      <trkpt lat="43.76457" lon="1.58447">
        <ele>151.990235</ele>
        <time>2023-09-17T11:16:16.424Z</time>
      </trkpt>
      <trkpt lat="43.76455" lon="1.58441">
        <ele>152.187586</ele>
        <time>2023-09-17T11:16:17.424Z</time>
      </trkpt>
      <trkpt lat="43.76455" lon="1.58441">
        <ele>152.187586</ele>
        <time>2023-09-17T11:16:17.424Z</time>
      </trkpt>
      <trkpt lat="43.76452" lon="1.58431">
        <ele>152.51147</ele>
        <time>2023-09-17T11:16:18.424Z</time>
      </trkpt>
      <trkpt lat="43.76452" lon="1.58431">
        <ele>152.51147</ele>
        <time>2023-09-17T11:16:18.424Z</time>
      </trkpt>
      <trkpt lat="43.76449" lon="1.58419">
        <ele>152.875057</ele>
        <time>2023-09-17T11:16:18.424Z</time>
      </trkpt>
      <trkpt lat="43.76449" lon="1.58419">
        <ele>152.875057</ele>
        <time>2023-09-17T11:16:18.424Z</time>
      </trkpt>
      <trkpt lat="43.76446" lon="1.5841">
        <ele>153.160778</ele>
        <time>2023-09-17T11:16:20.424Z</time>
      </trkpt>
      <trkpt lat="43.76446" lon="1.5841">
        <ele>153.160778</ele>
        <time>2023-09-17T11:16:20.424Z</time>
      </trkpt>
      <trkpt lat="43.76444" lon="1.58403">
        <ele>153.392846</ele>
        <time>2023-09-17T11:16:21.424Z</time>
      </trkpt>
      <trkpt lat="43.76444" lon="1.58403">
        <ele>153.392846</ele>
        <time>2023-09-17T11:16:21.424Z</time>
      </trkpt>
      <trkpt lat="43.76441" lon="1.58396">
        <ele>153.602234</ele>
        <time>2023-09-17T11:16:22.424Z</time>
      </trkpt>
      <trkpt lat="43.76441" lon="1.58396">
        <ele>153.602234</ele>
        <time>2023-09-17T11:16:22.424Z</time>
      </trkpt>
      <trkpt lat="43.7644" lon="1.58394">
        <ele>153.69697</ele>
        <time>2023-09-17T11:16:23.424Z</time>
      </trkpt>
      <trkpt lat="43.76437" lon="1.58387">
        <ele>153.911333</ele>
        <time>2023-09-17T11:16:24.424Z</time>
      </trkpt>
      <trkpt lat="43.76437" lon="1.58387">
        <ele>153.911333</ele>
        <time>2023-09-17T11:16:24.424Z</time>
      </trkpt>
      <trkpt lat="43.76434" lon="1.58382">
        <ele>154.089585</ele>
        <time>2023-09-17T11:16:25.424Z</time>
      </trkpt>
      <trkpt lat="43.76434" lon="1.58382">
        <ele>154.089585</ele>
        <time>2023-09-17T11:16:25.424Z</time>
      </trkpt>
      <trkpt lat="43.76428" lon="1.58369">
        <ele>154.542131</ele>
        <time>2023-09-17T11:16:27.424Z</time>
      </trkpt>
      <trkpt lat="43.76428" lon="1.58369">
        <ele>154.542131</ele>
        <time>2023-09-17T11:16:27.424Z</time>
      </trkpt>
      <trkpt lat="43.76425" lon="1.58362">
        <ele>154.800269</ele>
        <time>2023-09-17T11:16:27.424Z</time>
      </trkpt>
      <trkpt lat="43.76425" lon="1.58362">
        <ele>154.800269</ele>
        <time>2023-09-17T11:16:27.424Z</time>
      </trkpt>
      <trkpt lat="43.76419" lon="1.58351">
        <ele>155.192259</ele>
        <time>2023-09-17T11:16:29.424Z</time>
      </trkpt>
      <trkpt lat="43.76419" lon="1.58351">
        <ele>155.192259</ele>
        <time>2023-09-17T11:16:29.424Z</time>
      </trkpt>
      <trkpt lat="43.76416" lon="1.58345">
        <ele>155.405622</ele>
        <time>2023-09-17T11:16:30.424Z</time>
      </trkpt>
      <trkpt lat="43.76416" lon="1.58345">
        <ele>155.405622</ele>
        <time>2023-09-17T11:16:30.424Z</time>
      </trkpt>
      <trkpt lat="43.76411" lon="1.58338">
        <ele>155.685405</ele>
        <time>2023-09-17T11:16:31.424Z</time>
      </trkpt>
      <trkpt lat="43.76411" lon="1.58338">
        <ele>155.685405</ele>
        <time>2023-09-17T11:16:31.424Z</time>
      </trkpt>
      <trkpt lat="43.76407" lon="1.58331">
        <ele>155.95487</ele>
        <time>2023-09-17T11:16:32.424Z</time>
      </trkpt>
      <trkpt lat="43.76407" lon="1.58331">
        <ele>155.95487</ele>
        <time>2023-09-17T11:16:32.424Z</time>
      </trkpt>
      <trkpt lat="43.76401" lon="1.58323">
        <ele>156.267366</ele>
        <time>2023-09-17T11:16:33.424Z</time>
      </trkpt>
      <trkpt lat="43.76401" lon="1.58323">
        <ele>156.267366</ele>
        <time>2023-09-17T11:16:33.424Z</time>
      </trkpt>
      <trkpt lat="43.76395" lon="1.58314">
        <ele>156.615988</ele>
        <time>2023-09-17T11:16:35.424Z</time>
      </trkpt>
      <trkpt lat="43.76395" lon="1.58314">
        <ele>156.615988</ele>
        <time>2023-09-17T11:16:35.424Z</time>
      </trkpt>
      <trkpt lat="43.7639" lon="1.58308">
        <ele>156.897607</ele>
        <time>2023-09-17T11:16:36.424Z</time>
      </trkpt>
      <trkpt lat="43.7639" lon="1.58308">
        <ele>156.897607</ele>
        <time>2023-09-17T11:16:36.424Z</time>
      </trkpt>
      <trkpt lat="43.76386" lon="1.58303">
        <ele>157.121315</ele>
        <time>2023-09-17T11:16:36.424Z</time>
      </trkpt>
      <trkpt lat="43.76386" lon="1.58303">
        <ele>157.121315</ele>
        <time>2023-09-17T11:16:36.424Z</time>
      </trkpt>
      <trkpt lat="43.76376" lon="1.58289">
        <ele>157.666612</ele>
        <time>2023-09-17T11:16:39.424Z</time>
      </trkpt>
      <trkpt lat="43.76376" lon="1.58289">
        <ele>157.666612</ele>
        <time>2023-09-17T11:16:39.424Z</time>
      </trkpt>
      <trkpt lat="43.76375" lon="1.58288">
        <ele>157.730983</ele>
        <time>2023-09-17T11:16:41.424Z</time>
      </trkpt>
      <trkpt lat="43.76375" lon="1.58288">
        <ele>157.730983</ele>
        <time>2023-09-17T11:16:41.424Z</time>
      </trkpt>
      <trkpt lat="43.76372" lon="1.58283">
        <ele>157.92347</ele>
        <time>2023-09-17T11:16:42.424Z</time>
      </trkpt>
      <trkpt lat="43.76372" lon="1.58283">
        <ele>157.92347</ele>
        <time>2023-09-17T11:16:42.424Z</time>
      </trkpt>
      <trkpt lat="43.76369" lon="1.58278">
        <ele>158.092672</ele>
        <time>2023-09-17T11:16:43.424Z</time>
      </trkpt>
      <trkpt lat="43.76369" lon="1.58278">
        <ele>158.092672</ele>
        <time>2023-09-17T11:16:43.424Z</time>
      </trkpt>
      <trkpt lat="43.76365" lon="1.58273">
        <ele>158.326524</ele>
        <time>2023-09-17T11:16:44.424Z</time>
      </trkpt>
      <trkpt lat="43.76365" lon="1.58273">
        <ele>158.326524</ele>
        <time>2023-09-17T11:16:44.424Z</time>
      </trkpt>
      <trkpt lat="43.76362" lon="1.58266">
        <ele>158.588626</ele>
        <time>2023-09-17T11:16:45.424Z</time>
      </trkpt>
      <trkpt lat="43.76362" lon="1.58266">
        <ele>158.588626</ele>
        <time>2023-09-17T11:16:45.424Z</time>
      </trkpt>
      <trkpt lat="43.76357" lon="1.5826">
        <ele>158.862191</ele>
        <time>2023-09-17T11:16:46.424Z</time>
      </trkpt>
      <trkpt lat="43.76357" lon="1.5826">
        <ele>158.862191</ele>
        <time>2023-09-17T11:16:46.424Z</time>
      </trkpt>
      <trkpt lat="43.76354" lon="1.58254">
        <ele>159.114646</ele>
        <time>2023-09-17T11:16:48.424Z</time>
      </trkpt>
      <trkpt lat="43.76354" lon="1.58254">
        <ele>159.114646</ele>
        <time>2023-09-17T11:16:48.424Z</time>
      </trkpt>
      <trkpt lat="43.7635" lon="1.58246">
        <ele>159.399069</ele>
        <time>2023-09-17T11:16:49.424Z</time>
      </trkpt>
      <trkpt lat="43.7635" lon="1.58246">
        <ele>159.399069</ele>
        <time>2023-09-17T11:16:49.424Z</time>
      </trkpt>
      <trkpt lat="43.76344" lon="1.58232">
        <ele>159.928245</ele>
        <time>2023-09-17T11:16:50.424Z</time>
      </trkpt>
      <trkpt lat="43.76344" lon="1.58232">
        <ele>159.928245</ele>
        <time>2023-09-17T11:16:50.424Z</time>
      </trkpt>
      <trkpt lat="43.76341" lon="1.58225">
        <ele>160.197743</ele>
        <time>2023-09-17T11:16:51.424Z</time>
      </trkpt>
      <trkpt lat="43.76337" lon="1.58217">
        <ele>160.488669</ele>
        <time>2023-09-17T11:16:52.424Z</time>
      </trkpt>
      <trkpt lat="43.76337" lon="1.58217">
        <ele>160.488669</ele>
        <time>2023-09-17T11:16:52.424Z</time>
      </trkpt>
      <trkpt lat="43.76334" lon="1.5821">
        <ele>160.737732</ele>
        <time>2023-09-17T11:16:53.424Z</time>
      </trkpt>
      <trkpt lat="43.76334" lon="1.5821">
        <ele>160.737732</ele>
        <time>2023-09-17T11:16:53.424Z</time>
      </trkpt>
      <trkpt lat="43.76329" lon="1.58203">
        <ele>161.053859</ele>
        <time>2023-09-17T11:16:55.424Z</time>
      </trkpt>
      <trkpt lat="43.76329" lon="1.58203">
        <ele>161.053859</ele>
        <time>2023-09-17T11:16:55.424Z</time>
      </trkpt>
      <trkpt lat="43.76327" lon="1.58196">
        <ele>161.283404</ele>
        <time>2023-09-17T11:16:56.424Z</time>
      </trkpt>
      <trkpt lat="43.76327" lon="1.58196">
        <ele>161.283404</ele>
        <time>2023-09-17T11:16:56.424Z</time>
      </trkpt>
      <trkpt lat="43.76324" lon="1.58191">
        <ele>161.504112</ele>
        <time>2023-09-17T11:16:57.424Z</time>
      </trkpt>
      <trkpt lat="43.76324" lon="1.58191">
        <ele>161.504112</ele>
        <time>2023-09-17T11:16:57.424Z</time>
      </trkpt>
      <trkpt lat="43.7632" lon="1.58186">
        <ele>161.723681</ele>
        <time>2023-09-17T11:16:58.424Z</time>
      </trkpt>
      <trkpt lat="43.7632" lon="1.58186">
        <ele>161.723681</ele>
        <time>2023-09-17T11:16:58.424Z</time>
      </trkpt>
      <trkpt lat="43.76317" lon="1.5818">
        <ele>161.970143</ele>
        <time>2023-09-17T11:16:59.424Z</time>
      </trkpt>
      <trkpt lat="43.76317" lon="1.5818">
        <ele>161.970143</ele>
        <time>2023-09-17T11:16:59.424Z</time>
      </trkpt>
      <trkpt lat="43.76314" lon="1.58174">
        <ele>162.178226</ele>
        <time>2023-09-17T11:17:00.424Z</time>
      </trkpt>
      <trkpt lat="43.76314" lon="1.58174">
        <ele>162.178226</ele>
        <time>2023-09-17T11:17:00.424Z</time>
      </trkpt>
      <trkpt lat="43.7631" lon="1.58168">
        <ele>162.449458</ele>
        <time>2023-09-17T11:17:01.424Z</time>
      </trkpt>
      <trkpt lat="43.7631" lon="1.58168">
        <ele>162.449458</ele>
        <time>2023-09-17T11:17:01.424Z</time>
      </trkpt>
      <trkpt lat="43.76306" lon="1.58163">
        <ele>162.678487</ele>
        <time>2023-09-17T11:17:02.424Z</time>
      </trkpt>
      <trkpt lat="43.76306" lon="1.58163">
        <ele>162.678487</ele>
        <time>2023-09-17T11:17:02.424Z</time>
      </trkpt>
      <trkpt lat="43.76303" lon="1.58156">
        <ele>162.934977</ele>
        <time>2023-09-17T11:17:03.424Z</time>
      </trkpt>
      <trkpt lat="43.76303" lon="1.58156">
        <ele>162.934977</ele>
        <time>2023-09-17T11:17:03.424Z</time>
      </trkpt>
      <trkpt lat="43.763" lon="1.58149">
        <ele>163.195658</ele>
        <time>2023-09-17T11:17:05.424Z</time>
      </trkpt>
      <trkpt lat="43.763" lon="1.58149">
        <ele>163.195658</ele>
        <time>2023-09-17T11:17:05.424Z</time>
      </trkpt>
      <trkpt lat="43.763" lon="1.58142">
        <ele>163.417104</ele>
        <time>2023-09-17T11:17:06.424Z</time>
      </trkpt>
      <trkpt lat="43.763" lon="1.58142">
        <ele>163.417104</ele>
        <time>2023-09-17T11:17:06.424Z</time>
      </trkpt>
      <trkpt lat="43.76302" lon="1.58131">
        <ele>163.768753</ele>
        <time>2023-09-17T11:17:07.424Z</time>
      </trkpt>
      <trkpt lat="43.76302" lon="1.58131">
        <ele>163.768753</ele>
        <time>2023-09-17T11:17:07.424Z</time>
      </trkpt>
      <trkpt lat="43.76304" lon="1.58125">
        <ele>163.959269</ele>
        <time>2023-09-17T11:17:08.424Z</time>
      </trkpt>
      <trkpt lat="43.76304" lon="1.58125">
        <ele>163.959269</ele>
        <time>2023-09-17T11:17:08.424Z</time>
      </trkpt>
      <trkpt lat="43.76307" lon="1.58118">
        <ele>164.219601</ele>
        <time>2023-09-17T11:17:10.424Z</time>
      </trkpt>
      <trkpt lat="43.76307" lon="1.58118">
        <ele>164.219601</ele>
        <time>2023-09-17T11:17:10.424Z</time>
      </trkpt>
      <trkpt lat="43.76308" lon="1.58106">
        <ele>164.61442</ele>
        <time>2023-09-17T11:17:11.424Z</time>
      </trkpt>
      <trkpt lat="43.76308" lon="1.58106">
        <ele>164.61442</ele>
        <time>2023-09-17T11:17:11.424Z</time>
      </trkpt>
      <trkpt lat="43.76308" lon="1.58102">
        <ele>164.732362</ele>
        <time>2023-09-17T11:17:12.424Z</time>
      </trkpt>
      <trkpt lat="43.76308" lon="1.58102">
        <ele>164.732362</ele>
        <time>2023-09-17T11:17:12.424Z</time>
      </trkpt>
      <trkpt lat="43.76305" lon="1.58099">
        <ele>164.877443</ele>
        <time>2023-09-17T11:17:13.424Z</time>
      </trkpt>
      <trkpt lat="43.76305" lon="1.58099">
        <ele>164.877443</ele>
        <time>2023-09-17T11:17:13.424Z</time>
      </trkpt>
      <trkpt lat="43.76303" lon="1.58098">
        <ele>164.999091</ele>
        <time>2023-09-17T11:17:15.424Z</time>
      </trkpt>
      <trkpt lat="43.76303" lon="1.58098">
        <ele>164.999091</ele>
        <time>2023-09-17T11:17:15.424Z</time>
      </trkpt>
      <trkpt lat="43.763" lon="1.58098">
        <ele>165.11774</ele>
        <time>2023-09-17T11:17:16.424Z</time>
      </trkpt>
      <trkpt lat="43.763" lon="1.58098">
        <ele>165.11774</ele>
        <time>2023-09-17T11:17:16.424Z</time>
      </trkpt>
      <trkpt lat="43.76297" lon="1.58099">
        <ele>165.267876</ele>
        <time>2023-09-17T11:17:17.424Z</time>
      </trkpt>
      <trkpt lat="43.76297" lon="1.58099">
        <ele>165.267876</ele>
        <time>2023-09-17T11:17:17.424Z</time>
      </trkpt>
      <trkpt lat="43.76294" lon="1.581">
        <ele>165.406548</ele>
        <time>2023-09-17T11:17:18.424Z</time>
      </trkpt>
      <trkpt lat="43.76291" lon="1.58102">
        <ele>165.535193</ele>
        <time>2023-09-17T11:17:19.424Z</time>
      </trkpt>
      <trkpt lat="43.76291" lon="1.58102">
        <ele>165.535193</ele>
        <time>2023-09-17T11:17:19.424Z</time>
      </trkpt>
      <trkpt lat="43.76286" lon="1.58106">
        <ele>165.789735</ele>
        <time>2023-09-17T11:17:21.424Z</time>
      </trkpt>
      <trkpt lat="43.76286" lon="1.58106">
        <ele>165.789735</ele>
        <time>2023-09-17T11:17:21.424Z</time>
      </trkpt>
      <trkpt lat="43.76284" lon="1.58106">
        <ele>165.874451</ele>
        <time>2023-09-17T11:17:22.424Z</time>
      </trkpt>
      <trkpt lat="43.76284" lon="1.58106">
        <ele>165.874451</ele>
        <time>2023-09-17T11:17:22.424Z</time>
      </trkpt>
      <trkpt lat="43.76282" lon="1.58106">
        <ele>165.957917</ele>
        <time>2023-09-17T11:17:23.424Z</time>
      </trkpt>
      <trkpt lat="43.76282" lon="1.58106">
        <ele>165.957917</ele>
        <time>2023-09-17T11:17:23.424Z</time>
      </trkpt>
      <trkpt lat="43.76279" lon="1.58106">
        <ele>166.0777</ele>
        <time>2023-09-17T11:17:25.424Z</time>
      </trkpt>
      <trkpt lat="43.76279" lon="1.58106">
        <ele>166.0777</ele>
        <time>2023-09-17T11:17:25.424Z</time>
      </trkpt>
      <trkpt lat="43.76279" lon="1.58106">
        <ele>166.108525</ele>
        <time>2023-09-17T11:17:26.424Z</time>
      </trkpt>
      <trkpt lat="43.76279" lon="1.58106">
        <ele>166.108525</ele>
        <time>2023-09-17T11:17:26.424Z</time>
      </trkpt>
      <trkpt lat="43.76276" lon="1.58102">
        <ele>166.205318</ele>
        <time>2023-09-17T11:17:27.424Z</time>
      </trkpt>
      <trkpt lat="43.76276" lon="1.58097">
        <ele>166.326956</ele>
        <time>2023-09-17T11:17:28.424Z</time>
      </trkpt>
      <trkpt lat="43.76276" lon="1.58097">
        <ele>166.326956</ele>
        <time>2023-09-17T11:17:28.424Z</time>
      </trkpt>
      <trkpt lat="43.76275" lon="1.5809">
        <ele>166.469044</ele>
        <time>2023-09-17T11:17:29.424Z</time>
      </trkpt>
      <trkpt lat="43.76275" lon="1.58081">
        <ele>166.650773</ele>
        <time>2023-09-17T11:17:30.424Z</time>
      </trkpt>
      <trkpt lat="43.76275" lon="1.58081">
        <ele>166.650773</ele>
        <time>2023-09-17T11:17:30.424Z</time>
      </trkpt>
      <trkpt lat="43.76273" lon="1.58074">
        <ele>166.798525</ele>
        <time>2023-09-17T11:17:31.424Z</time>
      </trkpt>
      <trkpt lat="43.76272" lon="1.58066">
        <ele>166.955584</ele>
        <time>2023-09-17T11:17:32.424Z</time>
      </trkpt>
      <trkpt lat="43.76272" lon="1.58066">
        <ele>166.955584</ele>
        <time>2023-09-17T11:17:32.424Z</time>
      </trkpt>
      <trkpt lat="43.7627" lon="1.58056">
        <ele>167.158607</ele>
        <time>2023-09-17T11:17:33.424Z</time>
      </trkpt>
      <trkpt lat="43.76267" lon="1.58046">
        <ele>167.395475</ele>
        <time>2023-09-17T11:17:33.424Z</time>
      </trkpt>
      <trkpt lat="43.76267" lon="1.58046">
        <ele>167.395475</ele>
        <time>2023-09-17T11:17:33.424Z</time>
      </trkpt>
      <trkpt lat="43.76265" lon="1.5804">
        <ele>167.528225</ele>
        <time>2023-09-17T11:17:35.424Z</time>
      </trkpt>
      <trkpt lat="43.76262" lon="1.58034">
        <ele>167.658762</ele>
        <time>2023-09-17T11:17:36.424Z</time>
      </trkpt>
      <trkpt lat="43.76262" lon="1.58034">
        <ele>167.658762</ele>
        <time>2023-09-17T11:17:36.424Z</time>
      </trkpt>
      <trkpt lat="43.76259" lon="1.58027">
        <ele>167.819993</ele>
        <time>2023-09-17T11:17:37.424Z</time>
      </trkpt>
      <trkpt lat="43.76255" lon="1.58021">
        <ele>167.981695</ele>
        <time>2023-09-17T11:17:37.424Z</time>
      </trkpt>
      <trkpt lat="43.76255" lon="1.58021">
        <ele>167.981695</ele>
        <time>2023-09-17T11:17:37.424Z</time>
      </trkpt>
      <trkpt lat="43.76252" lon="1.58015">
        <ele>168.134601</ele>
        <time>2023-09-17T11:17:38.424Z</time>
      </trkpt>
      <trkpt lat="43.7625" lon="1.58008">
        <ele>168.304405</ele>
        <time>2023-09-17T11:17:40.424Z</time>
      </trkpt>
      <trkpt lat="43.7625" lon="1.58008">
        <ele>168.304405</ele>
        <time>2023-09-17T11:17:40.424Z</time>
      </trkpt>
      <trkpt lat="43.76246" lon="1.57999">
        <ele>168.504846</ele>
        <time>2023-09-17T11:17:40.424Z</time>
      </trkpt>
      <trkpt lat="43.76243" lon="1.57992">
        <ele>168.684083</ele>
        <time>2023-09-17T11:17:41.424Z</time>
      </trkpt>
      <trkpt lat="43.76243" lon="1.57992">
        <ele>168.684083</ele>
        <time>2023-09-17T11:17:41.424Z</time>
      </trkpt>
      <trkpt lat="43.7624" lon="1.57985">
        <ele>168.83699</ele>
        <time>2023-09-17T11:17:43.424Z</time>
      </trkpt>
      <trkpt lat="43.7624" lon="1.57985">
        <ele>168.83699</ele>
        <time>2023-09-17T11:17:43.424Z</time>
      </trkpt>
      <trkpt lat="43.76238" lon="1.57979">
        <ele>168.983657</ele>
        <time>2023-09-17T11:17:43.424Z</time>
      </trkpt>
      <trkpt lat="43.76238" lon="1.57979">
        <ele>168.983657</ele>
        <time>2023-09-17T11:17:43.424Z</time>
      </trkpt>
      <trkpt lat="43.76236" lon="1.57972">
        <ele>169.125791</ele>
        <time>2023-09-17T11:17:44.424Z</time>
      </trkpt>
      <trkpt lat="43.76236" lon="1.57972">
        <ele>169.125791</ele>
        <time>2023-09-17T11:17:44.424Z</time>
      </trkpt>
      <trkpt lat="43.76234" lon="1.57964">
        <ele>169.286197</ele>
        <time>2023-09-17T11:17:45.424Z</time>
      </trkpt>
      <trkpt lat="43.76234" lon="1.57964">
        <ele>169.286197</ele>
        <time>2023-09-17T11:17:45.424Z</time>
      </trkpt>
      <trkpt lat="43.76234" lon="1.57956">
        <ele>169.453509</ele>
        <time>2023-09-17T11:17:46.424Z</time>
      </trkpt>
      <trkpt lat="43.76234" lon="1.57956">
        <ele>169.453509</ele>
        <time>2023-09-17T11:17:46.424Z</time>
      </trkpt>
      <trkpt lat="43.76233" lon="1.57948">
        <ele>169.62519</ele>
        <time>2023-09-17T11:17:48.424Z</time>
      </trkpt>
      <trkpt lat="43.76233" lon="1.57948">
        <ele>169.62519</ele>
        <time>2023-09-17T11:17:48.424Z</time>
      </trkpt>
      <trkpt lat="43.76231" lon="1.5794">
        <ele>169.795906</ele>
        <time>2023-09-17T11:17:48.424Z</time>
      </trkpt>
      <trkpt lat="43.76231" lon="1.5794">
        <ele>169.795906</ele>
        <time>2023-09-17T11:17:48.424Z</time>
      </trkpt>
      <trkpt lat="43.76228" lon="1.57931">
        <ele>169.989351</ele>
        <time>2023-09-17T11:17:49.424Z</time>
      </trkpt>
      <trkpt lat="43.76228" lon="1.57931">
        <ele>169.989351</ele>
        <time>2023-09-17T11:17:49.424Z</time>
      </trkpt>
      <trkpt lat="43.76225" lon="1.57922">
        <ele>170.186531</ele>
        <time>2023-09-17T11:17:50.424Z</time>
      </trkpt>
      <trkpt lat="43.76225" lon="1.57922">
        <ele>170.186531</ele>
        <time>2023-09-17T11:17:50.424Z</time>
      </trkpt>
      <trkpt lat="43.76222" lon="1.57914">
        <ele>170.374074</ele>
        <time>2023-09-17T11:17:51.424Z</time>
      </trkpt>
      <trkpt lat="43.76222" lon="1.57914">
        <ele>170.374074</ele>
        <time>2023-09-17T11:17:51.424Z</time>
      </trkpt>
      <trkpt lat="43.7622" lon="1.57907">
        <ele>170.533573</ele>
        <time>2023-09-17T11:17:53.424Z</time>
      </trkpt>
      <trkpt lat="43.7622" lon="1.57907">
        <ele>170.533573</ele>
        <time>2023-09-17T11:17:53.424Z</time>
      </trkpt>
      <trkpt lat="43.76218" lon="1.57903">
        <ele>170.626981</ele>
        <time>2023-09-17T11:17:53.424Z</time>
      </trkpt>
      <trkpt lat="43.76218" lon="1.57903">
        <ele>170.626981</ele>
        <time>2023-09-17T11:17:53.424Z</time>
      </trkpt>
      <trkpt lat="43.76215" lon="1.57889">
        <ele>170.926244</ele>
        <time>2023-09-17T11:17:54.424Z</time>
      </trkpt>
      <trkpt lat="43.76212" lon="1.57879">
        <ele>171.144469</ele>
        <time>2023-09-17T11:17:55.424Z</time>
      </trkpt>
      <trkpt lat="43.76212" lon="1.57879">
        <ele>171.144469</ele>
        <time>2023-09-17T11:17:55.424Z</time>
      </trkpt>
      <trkpt lat="43.76211" lon="1.5787">
        <ele>171.261979</ele>
        <time>2023-09-17T11:17:56.424Z</time>
      </trkpt>
      <trkpt lat="43.76211" lon="1.5786">
        <ele>171.395876</ele>
        <time>2023-09-17T11:17:57.424Z</time>
      </trkpt>
      <trkpt lat="43.76211" lon="1.5786">
        <ele>171.395876</ele>
        <time>2023-09-17T11:17:57.424Z</time>
      </trkpt>
      <trkpt lat="43.76212" lon="1.57851">
        <ele>171.518192</ele>
        <time>2023-09-17T11:17:58.424Z</time>
      </trkpt>
      <trkpt lat="43.76213" lon="1.57843">
        <ele>171.6236</ele>
        <time>2023-09-17T11:17:59.424Z</time>
      </trkpt>
      <trkpt lat="43.76213" lon="1.57843">
        <ele>171.6236</ele>
        <time>2023-09-17T11:17:59.424Z</time>
      </trkpt>
      <trkpt lat="43.76215" lon="1.57836">
        <ele>171.724757</ele>
        <time>2023-09-17T11:18:00.424Z</time>
      </trkpt>
      <trkpt lat="43.76219" lon="1.57831">
        <ele>171.816471</ele>
        <time>2023-09-17T11:18:01.424Z</time>
      </trkpt>
      <trkpt lat="43.76223" lon="1.57828">
        <ele>171.899347</ele>
        <time>2023-09-17T11:18:02.424Z</time>
      </trkpt>
      <trkpt lat="43.76228" lon="1.57825">
        <ele>171.987829</ele>
        <time>2023-09-17T11:18:04.424Z</time>
      </trkpt>
      <trkpt lat="43.76232" lon="1.57823">
        <ele>172.06736</ele>
        <time>2023-09-17T11:18:04.424Z</time>
      </trkpt>
      <trkpt lat="43.76238" lon="1.57821">
        <ele>172.175382</ele>
        <time>2023-09-17T11:18:06.424Z</time>
      </trkpt>
      <trkpt lat="43.76238" lon="1.57821">
        <ele>172.175382</ele>
        <time>2023-09-17T11:18:06.424Z</time>
      </trkpt>
      <trkpt lat="43.76243" lon="1.57818">
        <ele>172.277959</ele>
        <time>2023-09-17T11:18:06.424Z</time>
      </trkpt>
      <trkpt lat="43.76249" lon="1.57814">
        <ele>172.397314</ele>
        <time>2023-09-17T11:18:07.424Z</time>
      </trkpt>
      <trkpt lat="43.76254" lon="1.5781">
        <ele>172.504653</ele>
        <time>2023-09-17T11:18:08.424Z</time>
      </trkpt>
      <trkpt lat="43.76258" lon="1.57804">
        <ele>172.613276</ele>
        <time>2023-09-17T11:18:09.424Z</time>
      </trkpt>
      <trkpt lat="43.76262" lon="1.57798">
        <ele>172.713442</ele>
        <time>2023-09-17T11:18:10.424Z</time>
      </trkpt>
      <trkpt lat="43.76262" lon="1.57798">
        <ele>172.713442</ele>
        <time>2023-09-17T11:18:10.424Z</time>
      </trkpt>
      <trkpt lat="43.76264" lon="1.5779">
        <ele>172.82238</ele>
        <time>2023-09-17T11:18:11.424Z</time>
      </trkpt>
      <trkpt lat="43.76266" lon="1.57784">
        <ele>172.901244</ele>
        <time>2023-09-17T11:18:12.424Z</time>
      </trkpt>
      <trkpt lat="43.76268" lon="1.57778">
        <ele>172.996026</ele>
        <time>2023-09-17T11:18:13.424Z</time>
      </trkpt>
      <trkpt lat="43.76268" lon="1.57778">
        <ele>172.996026</ele>
        <time>2023-09-17T11:18:13.424Z</time>
      </trkpt>
      <trkpt lat="43.76269" lon="1.57771">
        <ele>173.088996</ele>
        <time>2023-09-17T11:18:15.424Z</time>
      </trkpt>
      <trkpt lat="43.76271" lon="1.57764">
        <ele>173.188645</ele>
        <time>2023-09-17T11:18:15.424Z</time>
      </trkpt>
      <trkpt lat="43.76271" lon="1.57764">
        <ele>173.188645</ele>
        <time>2023-09-17T11:18:15.424Z</time>
      </trkpt>
      <trkpt lat="43.76273" lon="1.57756">
        <ele>173.292673</ele>
        <time>2023-09-17T11:18:16.424Z</time>
      </trkpt>
      <trkpt lat="43.76273" lon="1.57756">
        <ele>173.292673</ele>
        <time>2023-09-17T11:18:16.424Z</time>
      </trkpt>
      <trkpt lat="43.76275" lon="1.57751">
        <ele>173.368114</ele>
        <time>2023-09-17T11:18:17.424Z</time>
      </trkpt>
      <trkpt lat="43.76275" lon="1.57751">
        <ele>173.368114</ele>
        <time>2023-09-17T11:18:17.424Z</time>
      </trkpt>
      <trkpt lat="43.76279" lon="1.57744">
        <ele>173.473501</ele>
        <time>2023-09-17T11:18:20.424Z</time>
      </trkpt>
      <trkpt lat="43.76279" lon="1.57744">
        <ele>173.473501</ele>
        <time>2023-09-17T11:18:20.424Z</time>
      </trkpt>
      <trkpt lat="43.76278" lon="1.57738">
        <ele>173.559216</ele>
        <time>2023-09-17T11:18:20.424Z</time>
      </trkpt>
      <trkpt lat="43.76278" lon="1.57738">
        <ele>173.559216</ele>
        <time>2023-09-17T11:18:20.424Z</time>
      </trkpt>
      <trkpt lat="43.76281" lon="1.57731">
        <ele>173.658954</ele>
        <time>2023-09-17T11:18:22.424Z</time>
      </trkpt>
      <trkpt lat="43.76281" lon="1.57731">
        <ele>173.658954</ele>
        <time>2023-09-17T11:18:22.424Z</time>
      </trkpt>
      <trkpt lat="43.76281" lon="1.57728">
        <ele>173.705439</ele>
        <time>2023-09-17T11:18:23.424Z</time>
      </trkpt>
      <trkpt lat="43.76285" lon="1.5771">
        <ele>173.941746</ele>
        <time>2023-09-17T11:18:24.424Z</time>
      </trkpt>
      <trkpt lat="43.76285" lon="1.5771">
        <ele>173.941746</ele>
        <time>2023-09-17T11:18:24.424Z</time>
      </trkpt>
      <trkpt lat="43.76288" lon="1.57699">
        <ele>174.093113</ele>
        <time>2023-09-17T11:18:25.424Z</time>
      </trkpt>
      <trkpt lat="43.76288" lon="1.57699">
        <ele>174.093113</ele>
        <time>2023-09-17T11:18:25.424Z</time>
      </trkpt>
      <trkpt lat="43.76289" lon="1.57691">
        <ele>174.210022</ele>
        <time>2023-09-17T11:18:26.424Z</time>
      </trkpt>
      <trkpt lat="43.76289" lon="1.57691">
        <ele>174.210022</ele>
        <time>2023-09-17T11:18:26.424Z</time>
      </trkpt>
      <trkpt lat="43.76291" lon="1.57683">
        <ele>174.316208</ele>
        <time>2023-09-17T11:18:27.424Z</time>
      </trkpt>
      <trkpt lat="43.76291" lon="1.57683">
        <ele>174.316208</ele>
        <time>2023-09-17T11:18:27.424Z</time>
      </trkpt>
      <trkpt lat="43.76292" lon="1.57677">
        <ele>174.398746</ele>
        <time>2023-09-17T11:18:28.424Z</time>
      </trkpt>
      <trkpt lat="43.76295" lon="1.57665">
        <ele>174.483748</ele>
        <time>2023-09-17T11:18:29.424Z</time>
      </trkpt>
      <trkpt lat="43.76295" lon="1.57665">
        <ele>174.483748</ele>
        <time>2023-09-17T11:18:29.424Z</time>
      </trkpt>
      <trkpt lat="43.76297" lon="1.57655">
        <ele>174.558617</ele>
        <time>2023-09-17T11:18:31.424Z</time>
      </trkpt>
      <trkpt lat="43.76297" lon="1.57655">
        <ele>174.558617</ele>
        <time>2023-09-17T11:18:31.424Z</time>
      </trkpt>
      <trkpt lat="43.76298" lon="1.57645">
        <ele>174.633625</ele>
        <time>2023-09-17T11:18:33.424Z</time>
      </trkpt>
      <trkpt lat="43.76298" lon="1.57645">
        <ele>174.633625</ele>
        <time>2023-09-17T11:18:33.424Z</time>
      </trkpt>
      <trkpt lat="43.76297" lon="1.57636">
        <ele>174.697619</ele>
        <time>2023-09-17T11:18:33.424Z</time>
      </trkpt>
      <trkpt lat="43.76295" lon="1.57624">
        <ele>174.785802</ele>
        <time>2023-09-17T11:18:35.424Z</time>
      </trkpt>
      <trkpt lat="43.76295" lon="1.57624">
        <ele>174.785802</ele>
        <time>2023-09-17T11:18:35.424Z</time>
      </trkpt>
      <trkpt lat="43.76292" lon="1.57616">
        <ele>174.846315</ele>
        <time>2023-09-17T11:18:36.424Z</time>
      </trkpt>
      <trkpt lat="43.76292" lon="1.57616">
        <ele>174.846315</ele>
        <time>2023-09-17T11:18:36.424Z</time>
      </trkpt>
      <trkpt lat="43.76289" lon="1.57608">
        <ele>174.911939</ele>
        <time>2023-09-17T11:18:36.424Z</time>
      </trkpt>
      <trkpt lat="43.76286" lon="1.57601">
        <ele>174.970093</ele>
        <time>2023-09-17T11:18:37.424Z</time>
      </trkpt>
      <trkpt lat="43.76283" lon="1.57595">
        <ele>175.021883</ele>
        <time>2023-09-17T11:18:39.424Z</time>
      </trkpt>
      <trkpt lat="43.76283" lon="1.57595">
        <ele>175.021883</ele>
        <time>2023-09-17T11:18:39.424Z</time>
      </trkpt>
      <trkpt lat="43.76279" lon="1.57587">
        <ele>175.084419</ele>
        <time>2023-09-17T11:18:40.424Z</time>
      </trkpt>
      <trkpt lat="43.76276" lon="1.57581">
        <ele>175.138954</ele>
        <time>2023-09-17T11:18:40.424Z</time>
      </trkpt>
      <trkpt lat="43.76274" lon="1.57575">
        <ele>175.187146</ele>
        <time>2023-09-17T11:18:41.424Z</time>
      </trkpt>
      <trkpt lat="43.76271" lon="1.57569">
        <ele>175.237221</ele>
        <time>2023-09-17T11:18:43.424Z</time>
      </trkpt>
      <trkpt lat="43.76271" lon="1.57569">
        <ele>175.237221</ele>
        <time>2023-09-17T11:18:43.424Z</time>
      </trkpt>
      <trkpt lat="43.76268" lon="1.57562">
        <ele>175.297994</ele>
        <time>2023-09-17T11:18:44.424Z</time>
      </trkpt>
      <trkpt lat="43.76264" lon="1.57555">
        <ele>175.357047</ele>
        <time>2023-09-17T11:18:45.424Z</time>
      </trkpt>
      <trkpt lat="43.76261" lon="1.57548">
        <ele>175.418457</ele>
        <time>2023-09-17T11:18:46.424Z</time>
      </trkpt>
      <trkpt lat="43.76261" lon="1.57548">
        <ele>175.418457</ele>
        <time>2023-09-17T11:18:46.424Z</time>
      </trkpt>
      <trkpt lat="43.76258" lon="1.57541">
        <ele>175.477717</ele>
        <time>2023-09-17T11:18:47.424Z</time>
      </trkpt>
      <trkpt lat="43.76254" lon="1.57533">
        <ele>175.545411</ele>
        <time>2023-09-17T11:18:48.424Z</time>
      </trkpt>
      <trkpt lat="43.76251" lon="1.57525">
        <ele>175.609216</ele>
        <time>2023-09-17T11:18:49.424Z</time>
      </trkpt>
      <trkpt lat="43.76251" lon="1.57525">
        <ele>175.609216</ele>
        <time>2023-09-17T11:18:49.424Z</time>
      </trkpt>
      <trkpt lat="43.76247" lon="1.57516">
        <ele>175.682209</ele>
        <time>2023-09-17T11:18:50.424Z</time>
      </trkpt>
      <trkpt lat="43.76243" lon="1.57508">
        <ele>175.751685</ele>
        <time>2023-09-17T11:18:50.424Z</time>
      </trkpt>
      <trkpt lat="43.76239" lon="1.575">
        <ele>175.814887</ele>
        <time>2023-09-17T11:18:52.424Z</time>
      </trkpt>
      <trkpt lat="43.76235" lon="1.57492">
        <ele>175.887698</ele>
        <time>2023-09-17T11:18:52.424Z</time>
      </trkpt>
      <trkpt lat="43.76232" lon="1.57484">
        <ele>175.951503</ele>
        <time>2023-09-17T11:18:54.424Z</time>
      </trkpt>
      <trkpt lat="43.76228" lon="1.57476">
        <ele>176.018573</ele>
        <time>2023-09-17T11:18:55.424Z</time>
      </trkpt>
      <trkpt lat="43.76224" lon="1.57468">
        <ele>176.086267</ele>
        <time>2023-09-17T11:18:56.424Z</time>
      </trkpt>
      <trkpt lat="43.76221" lon="1.57461">
        <ele>176.150072</ele>
        <time>2023-09-17T11:18:56.424Z</time>
      </trkpt>
      <trkpt lat="43.76221" lon="1.57461">
        <ele>176.150072</ele>
        <time>2023-09-17T11:18:56.424Z</time>
      </trkpt>
      <trkpt lat="43.76217" lon="1.57453">
        <ele>176.145027</ele>
        <time>2023-09-17T11:18:58.424Z</time>
      </trkpt>
      <trkpt lat="43.76216" lon="1.57449">
        <ele>176.135796</ele>
        <time>2023-09-17T11:18:59.424Z</time>
      </trkpt>
      <trkpt lat="43.7621" lon="1.57436">
        <ele>176.095759</ele>
        <time>2023-09-17T11:19:00.424Z</time>
      </trkpt>
      <trkpt lat="43.76207" lon="1.57428">
        <ele>176.073304</ele>
        <time>2023-09-17T11:19:00.424Z</time>
      </trkpt>
      <trkpt lat="43.76203" lon="1.5742">
        <ele>176.048574</ele>
        <time>2023-09-17T11:19:02.424Z</time>
      </trkpt>
      <trkpt lat="43.76199" lon="1.57412">
        <ele>176.022358</ele>
        <time>2023-09-17T11:19:03.424Z</time>
      </trkpt>
      <trkpt lat="43.76199" lon="1.57412">
        <ele>176.022358</ele>
        <time>2023-09-17T11:19:03.424Z</time>
      </trkpt>
      <trkpt lat="43.76197" lon="1.57403">
        <ele>175.998015</ele>
        <time>2023-09-17T11:19:04.424Z</time>
      </trkpt>
      <trkpt lat="43.76193" lon="1.57395">
        <ele>175.975153</ele>
        <time>2023-09-17T11:19:04.424Z</time>
      </trkpt>
      <trkpt lat="43.7619" lon="1.57388">
        <ele>175.952913</ele>
        <time>2023-09-17T11:19:06.424Z</time>
      </trkpt>
      <trkpt lat="43.76185" lon="1.57382">
        <ele>175.929977</ele>
        <time>2023-09-17T11:19:07.424Z</time>
      </trkpt>
      <trkpt lat="43.76185" lon="1.57382">
        <ele>175.929977</ele>
        <time>2023-09-17T11:19:07.424Z</time>
      </trkpt>
      <trkpt lat="43.76182" lon="1.57375">
        <ele>175.909635</ele>
        <time>2023-09-17T11:19:07.424Z</time>
      </trkpt>
      <trkpt lat="43.76178" lon="1.57368">
        <ele>175.886804</ele>
        <time>2023-09-17T11:19:08.424Z</time>
      </trkpt>
      <trkpt lat="43.76175" lon="1.57361">
        <ele>175.865998</ele>
        <time>2023-09-17T11:19:10.424Z</time>
      </trkpt>
      <trkpt lat="43.76172" lon="1.57354">
        <ele>175.843543</ele>
        <time>2023-09-17T11:19:10.424Z</time>
      </trkpt>
      <trkpt lat="43.76169" lon="1.57347">
        <ele>175.823899</ele>
        <time>2023-09-17T11:19:11.424Z</time>
      </trkpt>
      <trkpt lat="43.76166" lon="1.57339">
        <ele>175.801499</ele>
        <time>2023-09-17T11:19:13.424Z</time>
      </trkpt>
      <trkpt lat="43.76163" lon="1.57332">
        <ele>175.779818</ele>
        <time>2023-09-17T11:19:14.424Z</time>
      </trkpt>
      <trkpt lat="43.7616" lon="1.57326">
        <ele>175.761062</ele>
        <time>2023-09-17T11:19:15.424Z</time>
      </trkpt>
      <trkpt lat="43.76157" lon="1.57319">
        <ele>175.739676</ele>
        <time>2023-09-17T11:19:16.424Z</time>
      </trkpt>
      <trkpt lat="43.76157" lon="1.57319">
        <ele>175.739676</ele>
        <time>2023-09-17T11:19:16.424Z</time>
      </trkpt>
      <trkpt lat="43.76154" lon="1.57312">
        <ele>175.719274</ele>
        <time>2023-09-17T11:19:17.424Z</time>
      </trkpt>
      <trkpt lat="43.76151" lon="1.57305">
        <ele>175.698032</ele>
        <time>2023-09-17T11:19:18.424Z</time>
      </trkpt>
      <trkpt lat="43.76148" lon="1.57296">
        <ele>175.673118</ele>
        <time>2023-09-17T11:19:18.424Z</time>
      </trkpt>
      <trkpt lat="43.76148" lon="1.57296">
        <ele>175.673118</ele>
        <time>2023-09-17T11:19:18.424Z</time>
      </trkpt>
      <trkpt lat="43.76144" lon="1.57288">
        <ele>175.649647</ele>
        <time>2023-09-17T11:19:19.424Z</time>
      </trkpt>
      <trkpt lat="43.76141" lon="1.57281">
        <ele>175.628587</ele>
        <time>2023-09-17T11:19:20.424Z</time>
      </trkpt>
      <trkpt lat="43.76138" lon="1.57275">
        <ele>175.607536</ele>
        <time>2023-09-17T11:19:22.424Z</time>
      </trkpt>
      <trkpt lat="43.76133" lon="1.57269">
        <ele>175.58485</ele>
        <time>2023-09-17T11:19:22.424Z</time>
      </trkpt>
      <trkpt lat="43.76128" lon="1.57262">
        <ele>175.560619</ele>
        <time>2023-09-17T11:19:23.424Z</time>
      </trkpt>
      <trkpt lat="43.76128" lon="1.57262">
        <ele>175.560619</ele>
        <time>2023-09-17T11:19:23.424Z</time>
      </trkpt>
      <trkpt lat="43.76124" lon="1.57254">
        <ele>175.536118</ele>
        <time>2023-09-17T11:19:25.424Z</time>
      </trkpt>
      <trkpt lat="43.76123" lon="1.57252">
        <ele>175.528853</ele>
        <time>2023-09-17T11:19:26.424Z</time>
      </trkpt>
      <trkpt lat="43.76123" lon="1.57252">
        <ele>175.528853</ele>
        <time>2023-09-17T11:19:26.424Z</time>
      </trkpt>
      <trkpt lat="43.76116" lon="1.57236">
        <ele>175.491756</ele>
        <time>2023-09-17T11:19:26.424Z</time>
      </trkpt>
      <trkpt lat="43.76116" lon="1.57236">
        <ele>175.491756</ele>
        <time>2023-09-17T11:19:26.424Z</time>
      </trkpt>
      <trkpt lat="43.76111" lon="1.57227">
        <ele>175.469978</ele>
        <time>2023-09-17T11:19:27.424Z</time>
      </trkpt>
      <trkpt lat="43.76111" lon="1.57227">
        <ele>175.469978</ele>
        <time>2023-09-17T11:19:27.424Z</time>
      </trkpt>
      <trkpt lat="43.76111" lon="1.57226">
        <ele>175.466424</ele>
        <time>2023-09-17T11:19:29.424Z</time>
      </trkpt>
      <trkpt lat="43.76111" lon="1.57226">
        <ele>175.466424</ele>
        <time>2023-09-17T11:19:29.424Z</time>
      </trkpt>
      <trkpt lat="43.76103" lon="1.5721">
        <ele>175.428496</ele>
        <time>2023-09-17T11:19:30.424Z</time>
      </trkpt>
      <trkpt lat="43.76103" lon="1.5721">
        <ele>175.428496</ele>
        <time>2023-09-17T11:19:30.424Z</time>
      </trkpt>
      <trkpt lat="43.761" lon="1.57203">
        <ele>175.412809</ele>
        <time>2023-09-17T11:19:31.424Z</time>
      </trkpt>
      <trkpt lat="43.76096" lon="1.57196">
        <ele>175.395868</ele>
        <time>2023-09-17T11:19:31.424Z</time>
      </trkpt>
      <trkpt lat="43.76096" lon="1.57196">
        <ele>175.395868</ele>
        <time>2023-09-17T11:19:31.424Z</time>
      </trkpt>
      <trkpt lat="43.76092" lon="1.57187">
        <ele>175.374042</ele>
        <time>2023-09-17T11:19:33.424Z</time>
      </trkpt>
      <trkpt lat="43.76089" lon="1.57179">
        <ele>175.355571</ele>
        <time>2023-09-17T11:19:33.424Z</time>
      </trkpt>
      <trkpt lat="43.76089" lon="1.57179">
        <ele>175.355571</ele>
        <time>2023-09-17T11:19:33.424Z</time>
      </trkpt>
      <trkpt lat="43.76085" lon="1.57172">
        <ele>175.33795</ele>
        <time>2023-09-17T11:19:35.424Z</time>
      </trkpt>
      <trkpt lat="43.76082" lon="1.57165">
        <ele>175.321949</ele>
        <time>2023-09-17T11:19:36.424Z</time>
      </trkpt>
      <trkpt lat="43.76082" lon="1.57163">
        <ele>175.319233</ele>
        <time>2023-09-17T11:19:37.424Z</time>
      </trkpt>
      <trkpt lat="43.76075" lon="1.5715">
        <ele>175.286323</ele>
        <time>2023-09-17T11:19:37.424Z</time>
      </trkpt>
      <trkpt lat="43.76075" lon="1.5715">
        <ele>175.286323</ele>
        <time>2023-09-17T11:19:37.424Z</time>
      </trkpt>
      <trkpt lat="43.76072" lon="1.57143">
        <ele>175.270322</ele>
        <time>2023-09-17T11:19:39.424Z</time>
      </trkpt>
      <trkpt lat="43.76068" lon="1.57134">
        <ele>175.249498</ele>
        <time>2023-09-17T11:19:40.424Z</time>
      </trkpt>
      <trkpt lat="43.76066" lon="1.5713">
        <ele>175.238954</ele>
        <time>2023-09-17T11:19:41.424Z</time>
      </trkpt>
      <trkpt lat="43.76066" lon="1.5713">
        <ele>175.238954</ele>
        <time>2023-09-17T11:19:41.424Z</time>
      </trkpt>
      <trkpt lat="43.76062" lon="1.57121">
        <ele>175.219269</ele>
        <time>2023-09-17T11:19:41.424Z</time>
      </trkpt>
      <trkpt lat="43.7606" lon="1.57115">
        <ele>175.205202</ele>
        <time>2023-09-17T11:19:43.424Z</time>
      </trkpt>
      <trkpt lat="43.76057" lon="1.57109">
        <ele>175.190796</ele>
        <time>2023-09-17T11:19:44.424Z</time>
      </trkpt>
      <trkpt lat="43.76054" lon="1.57102">
        <ele>175.175446</ele>
        <time>2023-09-17T11:19:45.424Z</time>
      </trkpt>
      <trkpt lat="43.76051" lon="1.57096">
        <ele>175.160352</ele>
        <time>2023-09-17T11:19:46.424Z</time>
      </trkpt>
      <trkpt lat="43.7605" lon="1.57093">
        <ele>175.154527</ele>
        <time>2023-09-17T11:19:47.424Z</time>
      </trkpt>
      <trkpt lat="43.7605" lon="1.57093">
        <ele>175.154527</ele>
        <time>2023-09-17T11:19:47.424Z</time>
      </trkpt>
      <trkpt lat="43.76045" lon="1.57083">
        <ele>175.130488</ele>
        <time>2023-09-17T11:19:48.424Z</time>
      </trkpt>
      <trkpt lat="43.76044" lon="1.57081">
        <ele>175.124145</ele>
        <time>2023-09-17T11:19:49.424Z</time>
      </trkpt>
      <trkpt lat="43.7604" lon="1.57071">
        <ele>175.100553</ele>
        <time>2023-09-17T11:19:50.424Z</time>
      </trkpt>
      <trkpt lat="43.76037" lon="1.57065">
        <ele>175.086821</ele>
        <time>2023-09-17T11:19:51.424Z</time>
      </trkpt>
      <trkpt lat="43.76035" lon="1.5706">
        <ele>175.074857</ele>
        <time>2023-09-17T11:19:52.424Z</time>
      </trkpt>
      <trkpt lat="43.76031" lon="1.57052">
        <ele>175.056463</ele>
        <time>2023-09-17T11:19:53.424Z</time>
      </trkpt>
      <trkpt lat="43.76028" lon="1.57045">
        <ele>175.040776</ele>
        <time>2023-09-17T11:19:54.424Z</time>
      </trkpt>
      <trkpt lat="43.76024" lon="1.57038">
        <ele>175.042804</ele>
        <time>2023-09-17T11:19:55.424Z</time>
      </trkpt>
      <trkpt lat="43.76024" lon="1.57038">
        <ele>175.042804</ele>
        <time>2023-09-17T11:19:55.424Z</time>
      </trkpt>
      <trkpt lat="43.7602" lon="1.5703">
        <ele>175.071575</ele>
        <time>2023-09-17T11:19:56.424Z</time>
      </trkpt>
      <trkpt lat="43.76017" lon="1.57022">
        <ele>175.100439</ele>
        <time>2023-09-17T11:19:57.424Z</time>
      </trkpt>
      <trkpt lat="43.76017" lon="1.57022">
        <ele>175.100439</ele>
        <time>2023-09-17T11:19:57.424Z</time>
      </trkpt>
      <trkpt lat="43.76013" lon="1.57015">
        <ele>175.126745</ele>
        <time>2023-09-17T11:19:58.424Z</time>
      </trkpt>
      <trkpt lat="43.7601" lon="1.57008">
        <ele>175.152035</ele>
        <time>2023-09-17T11:19:59.424Z</time>
      </trkpt>
      <trkpt lat="43.76007" lon="1.57002">
        <ele>175.175854</ele>
        <time>2023-09-17T11:20:00.424Z</time>
      </trkpt>
      <trkpt lat="43.76004" lon="1.56995">
        <ele>175.198256</ele>
        <time>2023-09-17T11:20:01.424Z</time>
      </trkpt>
      <trkpt lat="43.76001" lon="1.56989">
        <ele>175.222622</ele>
        <time>2023-09-17T11:20:01.424Z</time>
      </trkpt>
      <trkpt lat="43.76001" lon="1.56989">
        <ele>175.222622</ele>
        <time>2023-09-17T11:20:01.424Z</time>
      </trkpt>
      <trkpt lat="43.75998" lon="1.56982">
        <ele>175.245552</ele>
        <time>2023-09-17T11:20:03.424Z</time>
      </trkpt>
      <trkpt lat="43.75996" lon="1.56976">
        <ele>175.267953</ele>
        <time>2023-09-17T11:20:04.424Z</time>
      </trkpt>
      <trkpt lat="43.75993" lon="1.56968">
        <ele>175.293903</ele>
        <time>2023-09-17T11:20:05.424Z</time>
      </trkpt>
      <trkpt lat="43.7599" lon="1.56963">
        <ele>175.314493</ele>
        <time>2023-09-17T11:20:06.424Z</time>
      </trkpt>
      <trkpt lat="43.7599" lon="1.56963">
        <ele>175.314493</ele>
        <time>2023-09-17T11:20:06.424Z</time>
      </trkpt>
      <trkpt lat="43.75987" lon="1.56955">
        <ele>175.342878</ele>
        <time>2023-09-17T11:20:07.424Z</time>
      </trkpt>
      <trkpt lat="43.75984" lon="1.5695">
        <ele>175.361264</ele>
        <time>2023-09-17T11:20:08.424Z</time>
      </trkpt>
      <trkpt lat="43.75981" lon="1.56943">
        <ele>175.384323</ele>
        <time>2023-09-17T11:20:09.424Z</time>
      </trkpt>
      <trkpt lat="43.75979" lon="1.56937">
        <ele>175.407044</ele>
        <time>2023-09-17T11:20:10.424Z</time>
      </trkpt>
      <trkpt lat="43.75976" lon="1.56931">
        <ele>175.429446</ele>
        <time>2023-09-17T11:20:11.424Z</time>
      </trkpt>
      <trkpt lat="43.75974" lon="1.56927">
        <ele>175.443228</ele>
        <time>2023-09-17T11:20:12.424Z</time>
      </trkpt>
      <trkpt lat="43.75974" lon="1.56927">
        <ele>175.443228</ele>
        <time>2023-09-17T11:20:12.424Z</time>
      </trkpt>
      <trkpt lat="43.75971" lon="1.56918">
        <ele>175.474581</ele>
        <time>2023-09-17T11:20:13.424Z</time>
      </trkpt>
      <trkpt lat="43.75967" lon="1.56911">
        <ele>175.498656</ele>
        <time>2023-09-17T11:20:14.424Z</time>
      </trkpt>
      <trkpt lat="43.75966" lon="1.56908">
        <ele>175.508403</ele>
        <time>2023-09-17T11:20:15.424Z</time>
      </trkpt>
      <trkpt lat="43.75966" lon="1.56908">
        <ele>175.508403</ele>
        <time>2023-09-17T11:20:15.424Z</time>
      </trkpt>
      <trkpt lat="43.75962" lon="1.569">
        <ele>175.540913</ele>
        <time>2023-09-17T11:20:16.424Z</time>
      </trkpt>
      <trkpt lat="43.75959" lon="1.56893">
        <ele>175.564225</ele>
        <time>2023-09-17T11:20:17.424Z</time>
      </trkpt>
      <trkpt lat="43.75956" lon="1.56885">
        <ele>175.592347</ele>
        <time>2023-09-17T11:20:18.424Z</time>
      </trkpt>
      <trkpt lat="43.75953" lon="1.56878">
        <ele>175.617196</ele>
        <time>2023-09-17T11:20:19.424Z</time>
      </trkpt>
      <trkpt lat="43.75953" lon="1.56878">
        <ele>175.617196</ele>
        <time>2023-09-17T11:20:19.424Z</time>
      </trkpt>
      <trkpt lat="43.75949" lon="1.56871">
        <ele>175.643501</ele>
        <time>2023-09-17T11:20:20.424Z</time>
      </trkpt>
      <trkpt lat="43.75946" lon="1.56865">
        <ele>175.667833</ele>
        <time>2023-09-17T11:20:21.424Z</time>
      </trkpt>
      <trkpt lat="43.75942" lon="1.56855">
        <ele>175.701895</ele>
        <time>2023-09-17T11:20:22.424Z</time>
      </trkpt>
      <trkpt lat="43.75939" lon="1.56848">
        <ele>175.727313</ele>
        <time>2023-09-17T11:20:23.424Z</time>
      </trkpt>
      <trkpt lat="43.75937" lon="1.56843">
        <ele>175.744171</ele>
        <time>2023-09-17T11:20:24.424Z</time>
      </trkpt>
      <trkpt lat="43.75933" lon="1.56836">
        <ele>175.771769</ele>
        <time>2023-09-17T11:20:25.424Z</time>
      </trkpt>
      <trkpt lat="43.7593" lon="1.56829">
        <ele>175.791241</ele>
        <time>2023-09-17T11:20:26.424Z</time>
      </trkpt>
      <trkpt lat="43.75927" lon="1.56822">
        <ele>175.7834</ele>
        <time>2023-09-17T11:20:27.424Z</time>
      </trkpt>
      <trkpt lat="43.75924" lon="1.56816">
        <ele>175.777003</ele>
        <time>2023-09-17T11:20:28.424Z</time>
      </trkpt>
      <trkpt lat="43.75922" lon="1.56809">
        <ele>175.769964</ele>
        <time>2023-09-17T11:20:29.424Z</time>
      </trkpt>
      <trkpt lat="43.75922" lon="1.56809">
        <ele>175.769964</ele>
        <time>2023-09-17T11:20:29.424Z</time>
      </trkpt>
      <trkpt lat="43.75921" lon="1.56801">
        <ele>175.763385</ele>
        <time>2023-09-17T11:20:29.424Z</time>
      </trkpt>
      <trkpt lat="43.75921" lon="1.56794">
        <ele>175.75659</ele>
        <time>2023-09-17T11:20:31.424Z</time>
      </trkpt>
      <trkpt lat="43.75923" lon="1.56785">
        <ele>175.747794</ele>
        <time>2023-09-17T11:20:32.424Z</time>
      </trkpt>
      <trkpt lat="43.75927" lon="1.56776">
        <ele>175.738932</ele>
        <time>2023-09-17T11:20:33.424Z</time>
      </trkpt>
      <trkpt lat="43.75932" lon="1.5677">
        <ele>175.730952</ele>
        <time>2023-09-17T11:20:33.424Z</time>
      </trkpt>
      <trkpt lat="43.75939" lon="1.56766">
        <ele>175.721393</ele>
        <time>2023-09-17T11:20:35.424Z</time>
      </trkpt>
      <trkpt lat="43.75945" lon="1.56763">
        <ele>175.71335</ele>
        <time>2023-09-17T11:20:35.424Z</time>
      </trkpt>
      <trkpt lat="43.7595" lon="1.5676">
        <ele>175.706262</ele>
        <time>2023-09-17T11:20:37.424Z</time>
      </trkpt>
      <trkpt lat="43.75956" lon="1.56757">
        <ele>175.699185</ele>
        <time>2023-09-17T11:20:37.424Z</time>
      </trkpt>
      <trkpt lat="43.75961" lon="1.56755">
        <ele>175.692808</ele>
        <time>2023-09-17T11:20:39.424Z</time>
      </trkpt>
      <trkpt lat="43.75966" lon="1.56752">
        <ele>175.686257</ele>
        <time>2023-09-17T11:20:39.424Z</time>
      </trkpt>
      <trkpt lat="43.75971" lon="1.5675">
        <ele>175.678828</ele>
        <time>2023-09-17T11:20:41.424Z</time>
      </trkpt>
      <trkpt lat="43.75977" lon="1.56747">
        <ele>175.671371</ele>
        <time>2023-09-17T11:20:41.424Z</time>
      </trkpt>
      <trkpt lat="43.75983" lon="1.56743">
        <ele>175.66335</ele>
        <time>2023-09-17T11:20:43.424Z</time>
      </trkpt>
      <trkpt lat="43.75989" lon="1.56739">
        <ele>175.654504</ele>
        <time>2023-09-17T11:20:44.424Z</time>
      </trkpt>
      <trkpt lat="43.75996" lon="1.56734">
        <ele>175.645063</ele>
        <time>2023-09-17T11:20:45.424Z</time>
      </trkpt>
      <trkpt lat="43.76002" lon="1.5673">
        <ele>175.637231</ele>
        <time>2023-09-17T11:20:46.424Z</time>
      </trkpt>
      <trkpt lat="43.76002" lon="1.5673">
        <ele>175.637231</ele>
        <time>2023-09-17T11:20:46.424Z</time>
      </trkpt>
      <trkpt lat="43.76008" lon="1.56726">
        <ele>175.62925</ele>
        <time>2023-09-17T11:20:47.424Z</time>
      </trkpt>
      <trkpt lat="43.76014" lon="1.56722">
        <ele>175.620444</ele>
        <time>2023-09-17T11:20:48.424Z</time>
      </trkpt>
      <trkpt lat="43.7602" lon="1.56718">
        <ele>175.612051</ele>
        <time>2023-09-17T11:20:49.424Z</time>
      </trkpt>
      <trkpt lat="43.76026" lon="1.56715">
        <ele>175.604502</ele>
        <time>2023-09-17T11:20:50.424Z</time>
      </trkpt>
      <trkpt lat="43.76031" lon="1.56714">
        <ele>175.598249</ele>
        <time>2023-09-17T11:20:51.424Z</time>
      </trkpt>
      <trkpt lat="43.76036" lon="1.56711">
        <ele>175.591281</ele>
        <time>2023-09-17T11:20:52.424Z</time>
      </trkpt>
      <trkpt lat="43.76036" lon="1.56711">
        <ele>175.591281</ele>
        <time>2023-09-17T11:20:52.424Z</time>
      </trkpt>
      <trkpt lat="43.76042" lon="1.5671">
        <ele>175.583541</ele>
        <time>2023-09-17T11:20:53.424Z</time>
      </trkpt>
      <trkpt lat="43.76048" lon="1.56707">
        <ele>175.575715</ele>
        <time>2023-09-17T11:20:54.424Z</time>
      </trkpt>
      <trkpt lat="43.76054" lon="1.56705">
        <ele>175.566887</ele>
        <time>2023-09-17T11:20:55.424Z</time>
      </trkpt>
      <trkpt lat="43.7606" lon="1.56702">
        <ele>175.534013</ele>
        <time>2023-09-17T11:20:56.424Z</time>
      </trkpt>
      <trkpt lat="43.76066" lon="1.56699">
        <ele>175.505014</ele>
        <time>2023-09-17T11:20:57.424Z</time>
      </trkpt>
      <trkpt lat="43.76066" lon="1.56699">
        <ele>175.505014</ele>
        <time>2023-09-17T11:20:57.424Z</time>
      </trkpt>
      <trkpt lat="43.76071" lon="1.56697">
        <ele>175.477493</ele>
        <time>2023-09-17T11:20:58.424Z</time>
      </trkpt>
      <trkpt lat="43.76077" lon="1.56694">
        <ele>175.448014</ele>
        <time>2023-09-17T11:20:59.424Z</time>
      </trkpt>
      <trkpt lat="43.76083" lon="1.5669">
        <ele>175.417999</ele>
        <time>2023-09-17T11:21:00.424Z</time>
      </trkpt>
      <trkpt lat="43.76083" lon="1.5669">
        <ele>175.417999</ele>
        <time>2023-09-17T11:21:00.424Z</time>
      </trkpt>
      <trkpt lat="43.76088" lon="1.56687">
        <ele>175.390118</ele>
        <time>2023-09-17T11:21:01.424Z</time>
      </trkpt>
      <trkpt lat="43.76094" lon="1.56684">
        <ele>175.357244</ele>
        <time>2023-09-17T11:21:02.424Z</time>
      </trkpt>
      <trkpt lat="43.76101" lon="1.56681">
        <ele>175.325965</ele>
        <time>2023-09-17T11:21:03.424Z</time>
      </trkpt>
      <trkpt lat="43.76106" lon="1.56677">
        <ele>175.297115</ele>
        <time>2023-09-17T11:21:04.424Z</time>
      </trkpt>
      <trkpt lat="43.76112" lon="1.56674">
        <ele>175.267507</ele>
        <time>2023-09-17T11:21:05.424Z</time>
      </trkpt>
      <trkpt lat="43.76117" lon="1.56671">
        <ele>175.238508</ele>
        <time>2023-09-17T11:21:06.424Z</time>
      </trkpt>
      <trkpt lat="43.76122" lon="1.56669">
        <ele>175.2154</ele>
        <time>2023-09-17T11:21:07.424Z</time>
      </trkpt>
      <trkpt lat="43.76127" lon="1.56668">
        <ele>175.190442</ele>
        <time>2023-09-17T11:21:08.424Z</time>
      </trkpt>
      <trkpt lat="43.76133" lon="1.56666">
        <ele>175.160419</ele>
        <time>2023-09-17T11:21:09.424Z</time>
      </trkpt>
      <trkpt lat="43.76138" lon="1.56664">
        <ele>175.136016</ele>
        <time>2023-09-17T11:21:10.424Z</time>
      </trkpt>
      <trkpt lat="43.76144" lon="1.5666">
        <ele>175.105858</ele>
        <time>2023-09-17T11:21:11.424Z</time>
      </trkpt>
      <trkpt lat="43.7615" lon="1.56656">
        <ele>175.072632</ele>
        <time>2023-09-17T11:21:12.424Z</time>
      </trkpt>
      <trkpt lat="43.76155" lon="1.56652">
        <ele>175.043902</ele>
        <time>2023-09-17T11:21:13.424Z</time>
      </trkpt>
      <trkpt lat="43.7616" lon="1.56648">
        <ele>175.014332</ele>
        <time>2023-09-17T11:21:14.424Z</time>
      </trkpt>
      <trkpt lat="43.7616" lon="1.56648">
        <ele>175.014332</ele>
        <time>2023-09-17T11:21:14.424Z</time>
      </trkpt>
      <trkpt lat="43.76166" lon="1.56643">
        <ele>174.982157</ele>
        <time>2023-09-17T11:21:15.424Z</time>
      </trkpt>
      <trkpt lat="43.76172" lon="1.5664">
        <ele>174.954039</ele>
        <time>2023-09-17T11:21:16.424Z</time>
      </trkpt>
      <trkpt lat="43.76172" lon="1.5664">
        <ele>174.954039</ele>
        <time>2023-09-17T11:21:16.424Z</time>
      </trkpt>
      <trkpt lat="43.76178" lon="1.56637">
        <ele>174.921166</ele>
        <time>2023-09-17T11:21:17.424Z</time>
      </trkpt>
      <trkpt lat="43.76184" lon="1.56635">
        <ele>174.89064</ele>
        <time>2023-09-17T11:21:18.424Z</time>
      </trkpt>
      <trkpt lat="43.7619" lon="1.56633">
        <ele>174.862497</ele>
        <time>2023-09-17T11:21:19.424Z</time>
      </trkpt>
      <trkpt lat="43.76196" lon="1.56631">
        <ele>174.833918</ele>
        <time>2023-09-17T11:21:20.424Z</time>
      </trkpt>
      <trkpt lat="43.76196" lon="1.56631">
        <ele>174.833918</ele>
        <time>2023-09-17T11:21:20.424Z</time>
      </trkpt>
      <trkpt lat="43.762" lon="1.56628">
        <ele>174.80973</ele>
        <time>2023-09-17T11:21:21.424Z</time>
      </trkpt>
      <trkpt lat="43.76204" lon="1.56625">
        <ele>174.788843</ele>
        <time>2023-09-17T11:21:22.424Z</time>
      </trkpt>
      <trkpt lat="43.76207" lon="1.56623">
        <ele>174.770989</ele>
        <time>2023-09-17T11:21:23.424Z</time>
      </trkpt>
      <trkpt lat="43.76213" lon="1.56623">
        <ele>168.086579</ele>
        <time>2023-05-05T15:29:45.000Z</time>
      </trkpt>
      <trkpt lat="43.76213" lon="1.56627">
        <ele>168.067626</ele>
        <time>2023-05-05T15:29:46.000Z</time>
      </trkpt>
      <trkpt lat="43.76213" lon="1.56632">
        <ele>168.042526</ele>
        <time>2023-05-05T15:29:48.000Z</time>
      </trkpt>
      <trkpt lat="43.76213" lon="1.56632">
        <ele>168.042526</ele>
        <time>2023-05-05T15:29:48.000Z</time>
      </trkpt>
      <trkpt lat="43.76212" lon="1.56637">
        <ele>168.017266</ele>
        <time>2023-05-05T15:29:49.000Z</time>
      </trkpt>
      <trkpt lat="43.76212" lon="1.56643">
        <ele>167.986401</ele>
        <time>2023-05-05T15:29:50.000Z</time>
      </trkpt>
      <trkpt lat="43.76211" lon="1.56649">
        <ele>167.951216</ele>
        <time>2023-05-05T15:29:51.000Z</time>
      </trkpt>
      <trkpt lat="43.7621" lon="1.56655">
        <ele>167.921472</ele>
        <time>2023-05-05T15:29:52.000Z</time>
      </trkpt>
      <trkpt lat="43.7621" lon="1.5666">
        <ele>167.896884</ele>
        <time>2023-05-05T15:29:54.000Z</time>
      </trkpt>
      <trkpt lat="43.7621" lon="1.56664">
        <ele>167.874635</ele>
        <time>2023-05-05T15:29:55.000Z</time>
      </trkpt>
      <trkpt lat="43.7621" lon="1.56664">
        <ele>167.874635</ele>
        <time>2023-05-05T15:29:55.000Z</time>
      </trkpt>
      <trkpt lat="43.76209" lon="1.56668">
        <ele>167.853015</ele>
        <time>2023-05-05T15:29:56.000Z</time>
      </trkpt>
      <trkpt lat="43.76209" lon="1.56672">
        <ele>167.834864</ele>
        <time>2023-05-05T15:29:57.000Z</time>
      </trkpt>
      <trkpt lat="43.76209" lon="1.56677">
        <ele>167.807715</ele>
        <time>2023-05-05T15:29:58.000Z</time>
      </trkpt>
      <trkpt lat="43.76209" lon="1.5668">
        <ele>167.791323</ele>
        <time>2023-05-05T15:29:59.000Z</time>
      </trkpt>
      <trkpt lat="43.76209" lon="1.56683">
        <ele>167.775956</ele>
        <time>2023-05-05T15:30:00.000Z</time>
      </trkpt>
      <trkpt lat="43.76209" lon="1.56688">
        <ele>167.749678</ele>
        <time>2023-05-05T15:30:02.000Z</time>
      </trkpt>
      <trkpt lat="43.76208" lon="1.56692">
        <ele>167.728485</ele>
        <time>2023-05-05T15:30:03.000Z</time>
      </trkpt>
      <trkpt lat="43.76208" lon="1.56692">
        <ele>167.728485</ele>
        <time>2023-05-05T15:30:03.000Z</time>
      </trkpt>
      <trkpt lat="43.76207" lon="1.567">
        <ele>167.689747</ele>
        <time>2023-05-05T15:30:04.000Z</time>
      </trkpt>
      <trkpt lat="43.76206" lon="1.56707">
        <ele>167.651896</ele>
        <time>2023-05-05T15:30:05.000Z</time>
      </trkpt>
      <trkpt lat="43.76205" lon="1.56715">
        <ele>167.611689</ele>
        <time>2023-05-05T15:30:07.000Z</time>
      </trkpt>
      <trkpt lat="43.76204" lon="1.56721">
        <ele>167.577408</ele>
        <time>2023-05-05T15:30:08.000Z</time>
      </trkpt>
      <trkpt lat="43.76204" lon="1.56721">
        <ele>167.577408</ele>
        <time>2023-05-05T15:30:08.000Z</time>
      </trkpt>
      <trkpt lat="43.76203" lon="1.56731">
        <ele>167.526093</ele>
        <time>2023-05-05T15:30:10.000Z</time>
      </trkpt>
      <trkpt lat="43.76201" lon="1.56739">
        <ele>167.484251</ele>
        <time>2023-05-05T15:30:11.000Z</time>
      </trkpt>
      <trkpt lat="43.762" lon="1.56748">
        <ele>167.431841</ele>
        <time>2023-05-05T15:30:12.000Z</time>
      </trkpt>
      <trkpt lat="43.762" lon="1.56748">
        <ele>167.431841</ele>
        <time>2023-05-05T15:30:12.000Z</time>
      </trkpt>
      <trkpt lat="43.76198" lon="1.56756">
        <ele>167.375337</ele>
        <time>2023-05-05T15:30:13.000Z</time>
      </trkpt>
      <trkpt lat="43.76196" lon="1.56766">
        <ele>167.30896</ele>
        <time>2023-05-05T15:30:14.000Z</time>
      </trkpt>
      <trkpt lat="43.76194" lon="1.56775">
        <ele>167.253414</ele>
        <time>2023-05-05T15:30:15.000Z</time>
      </trkpt>
      <trkpt lat="43.76194" lon="1.56775">
        <ele>167.253414</ele>
        <time>2023-05-05T15:30:15.000Z</time>
      </trkpt>
      <trkpt lat="43.76193" lon="1.56784">
        <ele>167.191989</ele>
        <time>2023-05-05T15:30:17.000Z</time>
      </trkpt>
      <trkpt lat="43.76191" lon="1.56791">
        <ele>167.14393</ele>
        <time>2023-05-05T15:30:18.000Z</time>
      </trkpt>
      <trkpt lat="43.76191" lon="1.56791">
        <ele>167.14393</ele>
        <time>2023-05-05T15:30:18.000Z</time>
      </trkpt>
      <trkpt lat="43.76191" lon="1.56792">
        <ele>167.136869</ele>
        <time>2023-05-05T15:30:19.000Z</time>
      </trkpt>
      <trkpt lat="43.76188" lon="1.56808">
        <ele>167.031997</ele>
        <time>2023-05-05T15:30:21.000Z</time>
      </trkpt>
      <trkpt lat="43.76188" lon="1.56808">
        <ele>167.031997</ele>
        <time>2023-05-05T15:30:21.000Z</time>
      </trkpt>
      <trkpt lat="43.76186" lon="1.56817">
        <ele>166.973037</ele>
        <time>2023-05-05T15:30:22.000Z</time>
      </trkpt>
      <trkpt lat="43.76185" lon="1.56825">
        <ele>166.9187</ele>
        <time>2023-05-05T15:30:23.000Z</time>
      </trkpt>
      <trkpt lat="43.76185" lon="1.56831">
        <ele>166.877783</ele>
        <time>2023-05-05T15:30:24.000Z</time>
      </trkpt>
      <trkpt lat="43.76185" lon="1.56831">
        <ele>166.877783</ele>
        <time>2023-05-05T15:30:24.000Z</time>
      </trkpt>
      <trkpt lat="43.76183" lon="1.56838">
        <ele>166.835337</ele>
        <time>2023-05-05T15:30:25.000Z</time>
      </trkpt>
      <trkpt lat="43.76183" lon="1.56844">
        <ele>166.797589</ele>
        <time>2023-05-05T15:30:27.000Z</time>
      </trkpt>
      <trkpt lat="43.76183" lon="1.56844">
        <ele>166.797589</ele>
        <time>2023-05-05T15:30:27.000Z</time>
      </trkpt>
      <trkpt lat="43.76181" lon="1.56849">
        <ele>166.760121</ele>
        <time>2023-05-05T15:30:28.000Z</time>
      </trkpt>
      <trkpt lat="43.7618" lon="1.56853">
        <ele>166.731199</ele>
        <time>2023-05-05T15:30:29.000Z</time>
      </trkpt>
      <trkpt lat="43.76178" lon="1.56858">
        <ele>166.69581</ele>
        <time>2023-05-05T15:30:30.000Z</time>
      </trkpt>
      <trkpt lat="43.76178" lon="1.56858">
        <ele>166.69581</ele>
        <time>2023-05-05T15:30:30.000Z</time>
      </trkpt>
      <trkpt lat="43.76176" lon="1.56861">
        <ele>166.67289</ele>
        <time>2023-05-05T15:30:31.000Z</time>
      </trkpt>
      <trkpt lat="43.76173" lon="1.56864">
        <ele>166.6316</ele>
        <time>2023-05-05T15:30:32.000Z</time>
      </trkpt>
      <trkpt lat="43.7617" lon="1.56867">
        <ele>166.598328</ele>
        <time>2023-05-05T15:30:34.000Z</time>
      </trkpt>
      <trkpt lat="43.76167" lon="1.5687">
        <ele>166.570482</ele>
        <time>2023-05-05T15:30:35.000Z</time>
      </trkpt>
      <trkpt lat="43.76167" lon="1.5687">
        <ele>166.570482</ele>
        <time>2023-05-05T15:30:35.000Z</time>
      </trkpt>
      <trkpt lat="43.76164" lon="1.56872">
        <ele>166.542637</ele>
        <time>2023-05-05T15:30:36.000Z</time>
      </trkpt>
      <trkpt lat="43.76162" lon="1.56874">
        <ele>166.518135</ele>
        <time>2023-05-05T15:30:37.000Z</time>
      </trkpt>
      <trkpt lat="43.76159" lon="1.56876">
        <ele>166.489153</ele>
        <time>2023-05-05T15:30:38.000Z</time>
      </trkpt>
      <trkpt lat="43.76156" lon="1.56877">
        <ele>166.457436</ele>
        <time>2023-05-05T15:30:40.000Z</time>
      </trkpt>
      <trkpt lat="43.76152" lon="1.56879">
        <ele>166.4278</ele>
        <time>2023-05-05T15:30:41.000Z</time>
      </trkpt>
      <trkpt lat="43.76152" lon="1.56879">
        <ele>166.4278</ele>
        <time>2023-05-05T15:30:41.000Z</time>
      </trkpt>
      <trkpt lat="43.76148" lon="1.5688">
        <ele>166.388906</ele>
        <time>2023-05-05T15:30:42.000Z</time>
      </trkpt>
      <trkpt lat="43.76144" lon="1.56882">
        <ele>166.353956</ele>
        <time>2023-05-05T15:30:43.000Z</time>
      </trkpt>
      <trkpt lat="43.76141" lon="1.56884">
        <ele>166.325144</ele>
        <time>2023-05-05T15:30:44.000Z</time>
      </trkpt>
      <trkpt lat="43.76138" lon="1.56885">
        <ele>166.296534</ele>
        <time>2023-05-05T15:30:45.000Z</time>
      </trkpt>
      <trkpt lat="43.76135" lon="1.56887">
        <ele>166.263945</ele>
        <time>2023-05-05T15:30:46.000Z</time>
      </trkpt>
      <trkpt lat="43.76131" lon="1.56889">
        <ele>166.229511</ele>
        <time>2023-05-05T15:30:48.000Z</time>
      </trkpt>
      <trkpt lat="43.76128" lon="1.56892">
        <ele>166.190944</ele>
        <time>2023-05-05T15:30:49.000Z</time>
      </trkpt>
      <trkpt lat="43.76128" lon="1.56892">
        <ele>166.190944</ele>
        <time>2023-05-05T15:30:49.000Z</time>
      </trkpt>
      <trkpt lat="43.76125" lon="1.56895">
        <ele>166.158424</ele>
        <time>2023-05-05T15:30:50.000Z</time>
      </trkpt>
      <trkpt lat="43.76122" lon="1.56898">
        <ele>166.127248</ele>
        <time>2023-05-05T15:30:51.000Z</time>
      </trkpt>
      <trkpt lat="43.76119" lon="1.569">
        <ele>166.09685</ele>
        <time>2023-05-05T15:30:52.000Z</time>
      </trkpt>
      <trkpt lat="43.76116" lon="1.56903">
        <ele>166.064619</ele>
        <time>2023-05-05T15:30:53.000Z</time>
      </trkpt>
      <trkpt lat="43.76114" lon="1.56906">
        <ele>166.037398</ele>
        <time>2023-05-05T15:30:54.000Z</time>
      </trkpt>
      <trkpt lat="43.76112" lon="1.56909">
        <ele>166.010596</ele>
        <time>2023-05-05T15:30:56.000Z</time>
      </trkpt>
      <trkpt lat="43.7611" lon="1.56911">
        <ele>165.990703</ele>
        <time>2023-05-05T15:30:57.000Z</time>
      </trkpt>
      <trkpt lat="43.76107" lon="1.56915">
        <ele>165.954741</ele>
        <time>2023-05-05T15:30:59.000Z</time>
      </trkpt>
      <trkpt lat="43.76103" lon="1.56919">
        <ele>165.912699</ele>
        <time>2023-05-05T15:31:00.000Z</time>
      </trkpt>
      <trkpt lat="43.76099" lon="1.56922">
        <ele>165.872829</ele>
        <time>2023-05-05T15:31:01.000Z</time>
      </trkpt>
      <trkpt lat="43.76095" lon="1.56926">
        <ele>165.912257</ele>
        <time>2023-05-05T15:31:02.000Z</time>
      </trkpt>
      <trkpt lat="43.76091" lon="1.56931">
        <ele>165.971865</ele>
        <time>2023-05-05T15:31:04.000Z</time>
      </trkpt>
      <trkpt lat="43.76087" lon="1.56934">
        <ele>166.020445</ele>
        <time>2023-05-05T15:31:05.000Z</time>
      </trkpt>
      <trkpt lat="43.76087" lon="1.56934">
        <ele>166.020445</ele>
        <time>2023-05-05T15:31:05.000Z</time>
      </trkpt>
      <trkpt lat="43.76082" lon="1.56939">
        <ele>166.079603</ele>
        <time>2023-05-05T15:31:06.000Z</time>
      </trkpt>
      <trkpt lat="43.76077" lon="1.56946">
        <ele>166.148786</ele>
        <time>2023-05-05T15:31:08.000Z</time>
      </trkpt>
      <trkpt lat="43.76073" lon="1.56951">
        <ele>166.208394</ele>
        <time>2023-05-05T15:31:09.000Z</time>
      </trkpt>
      <trkpt lat="43.76068" lon="1.56957">
        <ele>166.276837</ele>
        <time>2023-05-05T15:31:10.000Z</time>
      </trkpt>
      <trkpt lat="43.76064" lon="1.56962">
        <ele>166.330168</ele>
        <time>2023-05-05T15:31:11.000Z</time>
      </trkpt>
      <trkpt lat="43.76064" lon="1.56962">
        <ele>166.330168</ele>
        <time>2023-05-05T15:31:11.000Z</time>
      </trkpt>
      <trkpt lat="43.76054" lon="1.56973">
        <ele>166.460259</ele>
        <time>2023-05-05T15:31:13.000Z</time>
      </trkpt>
      <trkpt lat="43.76049" lon="1.5698">
        <ele>166.533263</ele>
        <time>2023-05-05T15:31:15.000Z</time>
      </trkpt>
      <trkpt lat="43.76049" lon="1.5698">
        <ele>166.533263</ele>
        <time>2023-05-05T15:31:15.000Z</time>
      </trkpt>
      <trkpt lat="43.76045" lon="1.56983">
        <ele>166.580974</ele>
        <time>2023-05-05T15:31:17.000Z</time>
      </trkpt>
      <trkpt lat="43.76041" lon="1.56988">
        <ele>166.641965</ele>
        <time>2023-05-05T15:31:18.000Z</time>
      </trkpt>
      <trkpt lat="43.76036" lon="1.56994">
        <ele>166.703612</ele>
        <time>2023-05-05T15:31:19.000Z</time>
      </trkpt>
      <trkpt lat="43.76033" lon="1.56998">
        <ele>166.747642</ele>
        <time>2023-05-05T15:31:20.000Z</time>
      </trkpt>
      <trkpt lat="43.76033" lon="1.56998">
        <ele>166.747642</ele>
        <time>2023-05-05T15:31:20.000Z</time>
      </trkpt>
      <trkpt lat="43.76031" lon="1.57001">
        <ele>166.778947</ele>
        <time>2023-05-05T15:31:21.000Z</time>
      </trkpt>
      <trkpt lat="43.7603" lon="1.57006">
        <ele>166.815038</ele>
        <time>2023-05-05T15:31:22.000Z</time>
      </trkpt>
      <trkpt lat="43.76029" lon="1.57011">
        <ele>166.856042</ele>
        <time>2023-05-05T15:31:23.000Z</time>
      </trkpt>
      <trkpt lat="43.76029" lon="1.57011">
        <ele>166.856042</ele>
        <time>2023-05-05T15:31:23.000Z</time>
      </trkpt>
      <trkpt lat="43.7603" lon="1.57017">
        <ele>166.899114</ele>
        <time>2023-05-05T15:31:25.000Z</time>
      </trkpt>
      <trkpt lat="43.76032" lon="1.57023">
        <ele>166.943418</ele>
        <time>2023-05-05T15:31:26.000Z</time>
      </trkpt>
      <trkpt lat="43.76032" lon="1.57023">
        <ele>166.943418</ele>
        <time>2023-05-05T15:31:26.000Z</time>
      </trkpt>
      <trkpt lat="43.76032" lon="1.57024">
        <ele>166.959731</ele>
        <time>2023-05-05T15:31:27.000Z</time>
      </trkpt>
      <trkpt lat="43.76036" lon="1.57036">
        <ele>167.056924</ele>
        <time>2023-05-05T15:31:28.000Z</time>
      </trkpt>
      <trkpt lat="43.76036" lon="1.57036">
        <ele>167.056924</ele>
        <time>2023-05-05T15:31:28.000Z</time>
      </trkpt>
      <trkpt lat="43.76039" lon="1.57045">
        <ele>167.122674</ele>
        <time>2023-05-05T15:31:29.000Z</time>
      </trkpt>
      <trkpt lat="43.76039" lon="1.57045">
        <ele>167.122674</ele>
        <time>2023-05-05T15:31:29.000Z</time>
      </trkpt>
      <trkpt lat="43.76041" lon="1.57053">
        <ele>167.190875</ele>
        <time>2023-05-05T15:31:30.000Z</time>
      </trkpt>
      <trkpt lat="43.76045" lon="1.57062">
        <ele>167.267526</ele>
        <time>2023-05-05T15:31:32.000Z</time>
      </trkpt>
      <trkpt lat="43.76045" lon="1.57062">
        <ele>167.267526</ele>
        <time>2023-05-05T15:31:32.000Z</time>
      </trkpt>
      <trkpt lat="43.76046" lon="1.57067">
        <ele>167.302282</ele>
        <time>2023-05-05T15:31:33.000Z</time>
      </trkpt>
      <trkpt lat="43.76049" lon="1.57075">
        <ele>167.373794</ele>
        <time>2023-05-05T15:31:34.000Z</time>
      </trkpt>
      <trkpt lat="43.76049" lon="1.57075">
        <ele>167.373794</ele>
        <time>2023-05-05T15:31:34.000Z</time>
      </trkpt>
      <trkpt lat="43.76051" lon="1.57081">
        <ele>167.421035</ele>
        <time>2023-05-05T15:31:35.000Z</time>
      </trkpt>
      <trkpt lat="43.76053" lon="1.57086">
        <ele>167.462784</ele>
        <time>2023-05-05T15:31:36.000Z</time>
      </trkpt>
      <trkpt lat="43.76053" lon="1.57086">
        <ele>167.462784</ele>
        <time>2023-05-05T15:31:36.000Z</time>
      </trkpt>
      <trkpt lat="43.76056" lon="1.57093">
        <ele>167.525732</ele>
        <time>2023-05-05T15:31:37.000Z</time>
      </trkpt>
      <trkpt lat="43.7606" lon="1.57104">
        <ele>167.617372</ele>
        <time>2023-05-05T15:31:39.000Z</time>
      </trkpt>
      <trkpt lat="43.76064" lon="1.57113">
        <ele>167.692055</ele>
        <time>2023-05-05T15:31:40.000Z</time>
      </trkpt>
      <trkpt lat="43.76067" lon="1.57123">
        <ele>167.706158</ele>
        <time>2023-05-05T15:31:41.000Z</time>
      </trkpt>
      <trkpt lat="43.76067" lon="1.57123">
        <ele>167.706158</ele>
        <time>2023-05-05T15:31:41.000Z</time>
      </trkpt>
      <trkpt lat="43.76074" lon="1.57137">
        <ele>167.689642</ele>
        <time>2023-05-05T15:31:43.000Z</time>
      </trkpt>
      <trkpt lat="43.76076" lon="1.57142">
        <ele>167.683458</ele>
        <time>2023-05-05T15:31:44.000Z</time>
      </trkpt>
      <trkpt lat="43.76077" lon="1.57145">
        <ele>167.680292</ele>
        <time>2023-05-05T15:31:45.000Z</time>
      </trkpt>
      <trkpt lat="43.76079" lon="1.57149">
        <ele>167.675379</ele>
        <time>2023-05-05T15:31:47.000Z</time>
      </trkpt>
      <trkpt lat="43.7608" lon="1.57152">
        <ele>167.671203</ele>
        <time>2023-05-05T15:31:48.000Z</time>
      </trkpt>
      <trkpt lat="43.76084" lon="1.57158">
        <ele>167.663318</ele>
        <time>2023-05-05T15:31:50.000Z</time>
      </trkpt>
      <trkpt lat="43.76084" lon="1.57157">
        <ele>167.662087</ele>
        <time>2023-05-05T15:31:53.000Z</time>
      </trkpt>
      <trkpt lat="43.76084" lon="1.57157">
        <ele>167.662087</ele>
        <time>2023-05-05T15:31:53.000Z</time>
      </trkpt>
      <trkpt lat="43.76083" lon="1.57155">
        <ele>167.660159</ele>
        <time>2023-05-05T15:31:54.000Z</time>
      </trkpt>
      <trkpt lat="43.7608" lon="1.57153">
        <ele>167.655759</ele>
        <time>2023-05-05T15:31:55.000Z</time>
      </trkpt>
      <trkpt lat="43.76078" lon="1.57151">
        <ele>167.652035</ele>
        <time>2023-05-05T15:31:57.000Z</time>
      </trkpt>
      <trkpt lat="43.76077" lon="1.57148">
        <ele>167.649031</ele>
        <time>2023-05-05T15:31:58.000Z</time>
      </trkpt>
      <trkpt lat="43.76077" lon="1.57145">
        <ele>167.645749</ele>
        <time>2023-05-05T15:31:59.000Z</time>
      </trkpt>
      <trkpt lat="43.76077" lon="1.57142">
        <ele>167.642671</ele>
        <time>2023-05-05T15:32:00.000Z</time>
      </trkpt>
      <trkpt lat="43.76077" lon="1.57139">
        <ele>167.638805</ele>
        <time>2023-05-05T15:32:01.000Z</time>
      </trkpt>
      <trkpt lat="43.76079" lon="1.57133">
        <ele>167.632456</ele>
        <time>2023-05-05T15:32:03.000Z</time>
      </trkpt>
      <trkpt lat="43.76081" lon="1.57129">
        <ele>167.627371</ele>
        <time>2023-05-05T15:32:04.000Z</time>
      </trkpt>
      <trkpt lat="43.76084" lon="1.57124">
        <ele>167.621128</ele>
        <time>2023-05-05T15:32:05.000Z</time>
      </trkpt>
      <trkpt lat="43.76084" lon="1.57124">
        <ele>167.621128</ele>
        <time>2023-05-05T15:32:05.000Z</time>
      </trkpt>
      <trkpt lat="43.76086" lon="1.5712">
        <ele>167.616469</ele>
        <time>2023-05-05T15:32:06.000Z</time>
      </trkpt>
      <trkpt lat="43.76088" lon="1.57117">
        <ele>167.612375</ele>
        <time>2023-05-05T15:32:08.000Z</time>
      </trkpt>
      <trkpt lat="43.7609" lon="1.57115">
        <ele>167.608984</ele>
        <time>2023-05-05T15:32:09.000Z</time>
      </trkpt>
      <trkpt lat="43.76092" lon="1.57113">
        <ele>167.604632</ele>
        <time>2023-05-05T15:32:10.000Z</time>
      </trkpt>
      <trkpt lat="43.76093" lon="1.5711">
        <ele>167.601452</ele>
        <time>2023-05-05T15:32:11.000Z</time>
      </trkpt>
      <trkpt lat="43.76093" lon="1.5711">
        <ele>167.601452</ele>
        <time>2023-05-05T15:32:11.000Z</time>
      </trkpt>
      <trkpt lat="43.76096" lon="1.57107">
        <ele>167.596072</ele>
        <time>2023-05-05T15:32:13.000Z</time>
      </trkpt>
      <trkpt lat="43.76099" lon="1.57104">
        <ele>167.590388</ele>
        <time>2023-05-05T15:32:14.000Z</time>
      </trkpt>
      <trkpt lat="43.76102" lon="1.57101">
        <ele>167.586296</ele>
        <time>2023-05-05T15:32:15.000Z</time>
      </trkpt>
      <trkpt lat="43.76104" lon="1.57099">
        <ele>167.582711</ele>
        <time>2023-05-05T15:32:16.000Z</time>
      </trkpt>
      <trkpt lat="43.76107" lon="1.57096">
        <ele>167.576927</ele>
        <time>2023-05-05T15:32:17.000Z</time>
      </trkpt>
      <trkpt lat="43.76109" lon="1.57093">
        <ele>167.572708</ele>
        <time>2023-05-05T15:32:18.000Z</time>
      </trkpt>
      <trkpt lat="43.76112" lon="1.5709">
        <ele>167.567275</ele>
        <time>2023-05-05T15:32:20.000Z</time>
      </trkpt>
      <trkpt lat="43.76115" lon="1.57087">
        <ele>167.561894</ele>
        <time>2023-05-05T15:32:21.000Z</time>
      </trkpt>
      <trkpt lat="43.7612" lon="1.57083">
        <ele>167.554593</ele>
        <time>2023-05-05T15:32:22.000Z</time>
      </trkpt>
      <trkpt lat="43.76124" lon="1.57078">
        <ele>167.54659</ele>
        <time>2023-05-05T15:32:24.000Z</time>
      </trkpt>
      <trkpt lat="43.76128" lon="1.57074">
        <ele>167.538853</ele>
        <time>2023-05-05T15:32:25.000Z</time>
      </trkpt>
      <trkpt lat="43.76133" lon="1.57069">
        <ele>167.53118</ele>
        <time>2023-05-05T15:32:26.000Z</time>
      </trkpt>
      <trkpt lat="43.76137" lon="1.57064">
        <ele>167.523507</ele>
        <time>2023-05-05T15:32:27.000Z</time>
      </trkpt>
      <trkpt lat="43.7614" lon="1.57061">
        <ele>167.517867</ele>
        <time>2023-05-05T15:32:28.000Z</time>
      </trkpt>
      <trkpt lat="43.7614" lon="1.57061">
        <ele>167.517867</ele>
        <time>2023-05-05T15:32:28.000Z</time>
      </trkpt>
      <trkpt lat="43.76145" lon="1.57056">
        <ele>167.509222</ele>
        <time>2023-05-05T15:32:29.000Z</time>
      </trkpt>
      <trkpt lat="43.76148" lon="1.57052">
        <ele>167.503141</ele>
        <time>2023-05-05T15:32:30.000Z</time>
      </trkpt>
      <trkpt lat="43.76153" lon="1.57048">
        <ele>167.495368</ele>
        <time>2023-05-05T15:32:31.000Z</time>
      </trkpt>
      <trkpt lat="43.76156" lon="1.57045">
        <ele>167.489469</ele>
        <time>2023-05-05T15:32:33.000Z</time>
      </trkpt>
      <trkpt lat="43.76156" lon="1.57045">
        <ele>167.489469</ele>
        <time>2023-05-05T15:32:33.000Z</time>
      </trkpt>
      <trkpt lat="43.7616" lon="1.57042">
        <ele>167.483254</ele>
        <time>2023-05-05T15:32:34.000Z</time>
      </trkpt>
      <trkpt lat="43.76165" lon="1.57039">
        <ele>167.476155</ele>
        <time>2023-05-05T15:32:35.000Z</time>
      </trkpt>
      <trkpt lat="43.76168" lon="1.57037">
        <ele>167.470481</ele>
        <time>2023-05-05T15:32:36.000Z</time>
      </trkpt>
      <trkpt lat="43.76168" lon="1.57037">
        <ele>167.470481</ele>
        <time>2023-05-05T15:32:36.000Z</time>
      </trkpt>
      <trkpt lat="43.76173" lon="1.57037">
        <ele>167.464482</ele>
        <time>2023-05-05T15:32:37.000Z</time>
      </trkpt>
      <trkpt lat="43.76176" lon="1.57038">
        <ele>167.459089</ele>
        <time>2023-05-05T15:32:38.000Z</time>
      </trkpt>
      <trkpt lat="43.76176" lon="1.57038">
        <ele>167.459089</ele>
        <time>2023-05-05T15:32:38.000Z</time>
      </trkpt>
      <trkpt lat="43.7618" lon="1.57041">
        <ele>167.457345</ele>
        <time>2023-05-05T15:32:40.000Z</time>
      </trkpt>
      <trkpt lat="43.7618" lon="1.57041">
        <ele>167.457345</ele>
        <time>2023-05-05T15:32:40.000Z</time>
      </trkpt>
      <trkpt lat="43.76184" lon="1.57045">
        <ele>167.455479</ele>
        <time>2023-05-05T15:32:41.000Z</time>
      </trkpt>
      <trkpt lat="43.76184" lon="1.57045">
        <ele>167.455479</ele>
        <time>2023-05-05T15:32:41.000Z</time>
      </trkpt>
      <trkpt lat="43.76189" lon="1.5705">
        <ele>167.453116</ele>
        <time>2023-05-05T15:32:41.000Z</time>
      </trkpt>
      <trkpt lat="43.76194" lon="1.57055">
        <ele>167.450847</ele>
        <time>2023-05-05T15:32:44.000Z</time>
      </trkpt>
      <trkpt lat="43.76194" lon="1.57055">
        <ele>167.450847</ele>
        <time>2023-05-05T15:32:44.000Z</time>
      </trkpt>
      <trkpt lat="43.76194" lon="1.57055">
        <ele>167.450847</ele>
        <time>2023-05-05T15:32:45.000Z</time>
      </trkpt>
      <trkpt lat="43.76203" lon="1.57063">
        <ele>167.446481</ele>
        <time>2023-05-05T15:32:46.000Z</time>
      </trkpt>
      <trkpt lat="43.76203" lon="1.57063">
        <ele>167.446481</ele>
        <time>2023-05-05T15:32:46.000Z</time>
      </trkpt>
      <trkpt lat="43.76205" lon="1.57064">
        <ele>167.445789</ele>
        <time>2023-05-05T15:32:46.000Z</time>
      </trkpt>
      <trkpt lat="43.76207" lon="1.57066">
        <ele>167.44468</ele>
        <time>2023-05-05T15:32:49.000Z</time>
      </trkpt>
      <trkpt lat="43.76207" lon="1.57066">
        <ele>167.44468</ele>
        <time>2023-05-05T15:32:49.000Z</time>
      </trkpt>
      <trkpt lat="43.76207" lon="1.57066">
        <ele>167.44468</ele>
        <time>2023-05-05T15:32:54.000Z</time>
      </trkpt>
      <trkpt lat="43.7621" lon="1.57068">
        <ele>167.443213</ele>
        <time>2023-05-05T15:32:56.000Z</time>
      </trkpt>
      <trkpt lat="43.7621" lon="1.57068">
        <ele>167.443213</ele>
        <time>2023-05-05T15:32:56.000Z</time>
      </trkpt>
      <trkpt lat="43.7621" lon="1.57069">
        <ele>167.44302</ele>
        <time>2023-05-05T15:32:58.000Z</time>
      </trkpt>
      <trkpt lat="43.7621" lon="1.57069">
        <ele>167.44302</ele>
        <time>2023-05-05T15:32:58.000Z</time>
      </trkpt>
      <trkpt lat="43.7621" lon="1.57069">
        <ele>167.442861</ele>
        <time>2023-05-05T15:33:00.000Z</time>
      </trkpt>
      <trkpt lat="43.76212" lon="1.57071">
        <ele>167.442151</ele>
        <time>2023-05-05T15:33:02.000Z</time>
      </trkpt>
      <trkpt lat="43.7621" lon="1.57069">
        <ele>167.441547</ele>
        <time>2023-05-05T15:33:03.000Z</time>
      </trkpt>
      <trkpt lat="43.76217" lon="1.5708">
        <ele>167.437601</ele>
        <time>2023-05-05T15:33:04.000Z</time>
      </trkpt>
      <trkpt lat="43.76219" lon="1.57082">
        <ele>167.436768</ele>
        <time>2023-05-05T15:33:05.000Z</time>
      </trkpt>
      <trkpt lat="43.76225" lon="1.57091">
        <ele>167.433194</ele>
        <time>2023-05-05T15:33:06.000Z</time>
      </trkpt>
      <trkpt lat="43.7623" lon="1.57098">
        <ele>167.4304</ele>
        <time>2023-05-05T15:33:08.000Z</time>
      </trkpt>
      <trkpt lat="43.7623" lon="1.57098">
        <ele>167.4304</ele>
        <time>2023-05-05T15:33:08.000Z</time>
      </trkpt>
      <trkpt lat="43.76233" lon="1.57102">
        <ele>167.428685</ele>
        <time>2023-05-05T15:33:09.000Z</time>
      </trkpt>
      <trkpt lat="43.76238" lon="1.57108">
        <ele>167.426156</ele>
        <time>2023-05-05T15:33:10.000Z</time>
      </trkpt>
      <trkpt lat="43.76238" lon="1.57108">
        <ele>167.426156</ele>
        <time>2023-05-05T15:33:10.000Z</time>
      </trkpt>
      <trkpt lat="43.76242" lon="1.57115">
        <ele>167.42386</ele>
        <time>2023-05-05T15:33:11.000Z</time>
      </trkpt>
      <trkpt lat="43.76242" lon="1.57115">
        <ele>167.423486</ele>
        <time>2023-05-05T15:33:12.000Z</time>
      </trkpt>
      <trkpt lat="43.76242" lon="1.57115">
        <ele>167.423486</ele>
        <time>2023-05-05T15:33:12.000Z</time>
      </trkpt>
      <trkpt lat="43.76248" lon="1.57129">
        <ele>167.419104</ele>
        <time>2023-05-05T15:33:13.000Z</time>
      </trkpt>
      <trkpt lat="43.76251" lon="1.57137">
        <ele>167.416534</ele>
        <time>2023-05-05T15:33:14.000Z</time>
      </trkpt>
      <trkpt lat="43.76251" lon="1.57137">
        <ele>167.416534</ele>
        <time>2023-05-05T15:33:14.000Z</time>
      </trkpt>
      <trkpt lat="43.76252" lon="1.57146">
        <ele>167.414102</ele>
        <time>2023-05-05T15:33:16.000Z</time>
      </trkpt>
      <trkpt lat="43.76254" lon="1.57153">
        <ele>167.411823</ele>
        <time>2023-05-05T15:33:17.000Z</time>
      </trkpt>
      <trkpt lat="43.76254" lon="1.57153">
        <ele>167.411823</ele>
        <time>2023-05-05T15:33:17.000Z</time>
      </trkpt>
      <trkpt lat="43.76255" lon="1.5716">
        <ele>167.409794</ele>
        <time>2023-05-05T15:33:18.000Z</time>
      </trkpt>
      <trkpt lat="43.76256" lon="1.57167">
        <ele>167.407964</ele>
        <time>2023-05-05T15:33:19.000Z</time>
      </trkpt>
      <trkpt lat="43.76256" lon="1.57167">
        <ele>167.407964</ele>
        <time>2023-05-05T15:33:19.000Z</time>
      </trkpt>
      <trkpt lat="43.76257" lon="1.57173">
        <ele>167.406079</ele>
        <time>2023-05-05T15:33:20.000Z</time>
      </trkpt>
      <trkpt lat="43.76259" lon="1.57179">
        <ele>167.404341</ele>
        <time>2023-05-05T15:33:21.000Z</time>
      </trkpt>
      <trkpt lat="43.76259" lon="1.57179">
        <ele>167.404341</ele>
        <time>2023-05-05T15:33:21.000Z</time>
      </trkpt>
      <trkpt lat="43.76261" lon="1.57182">
        <ele>167.403059</ele>
        <time>2023-05-05T15:33:22.000Z</time>
      </trkpt>
      <trkpt lat="43.76264" lon="1.57186">
        <ele>167.401452</ele>
        <time>2023-05-05T15:33:24.000Z</time>
      </trkpt>
      <trkpt lat="43.76264" lon="1.57186">
        <ele>167.401452</ele>
        <time>2023-05-05T15:33:24.000Z</time>
      </trkpt>
      <trkpt lat="43.76267" lon="1.57188">
        <ele>167.400255</ele>
        <time>2023-05-05T15:33:25.000Z</time>
      </trkpt>
      <trkpt lat="43.76271" lon="1.57188">
        <ele>167.39861</ele>
        <time>2023-05-05T15:33:26.000Z</time>
      </trkpt>
      <trkpt lat="43.76281" lon="1.57187">
        <ele>167.394567</ele>
        <time>2023-05-05T15:33:28.000Z</time>
      </trkpt>
      <trkpt lat="43.76281" lon="1.57187">
        <ele>167.394567</ele>
        <time>2023-05-05T15:33:28.000Z</time>
      </trkpt>
      <trkpt lat="43.76287" lon="1.57186">
        <ele>167.392472</ele>
        <time>2023-05-05T15:33:30.000Z</time>
      </trkpt>
      <trkpt lat="43.76294" lon="1.57184">
        <ele>167.389753</ele>
        <time>2023-05-05T15:33:31.000Z</time>
      </trkpt>
      <trkpt lat="43.763" lon="1.57183">
        <ele>167.375111</ele>
        <time>2023-05-05T15:33:32.000Z</time>
      </trkpt>
      <trkpt lat="43.763" lon="1.57183">
        <ele>167.375111</ele>
        <time>2023-05-05T15:33:33.000Z</time>
      </trkpt>
      <trkpt lat="43.76308" lon="1.57182">
        <ele>167.351251</ele>
        <time>2023-05-05T15:33:34.000Z</time>
      </trkpt>
      <trkpt lat="43.76329" lon="1.5718">
        <ele>167.28543</ele>
        <time>2023-05-05T15:33:36.000Z</time>
      </trkpt>
      <trkpt lat="43.76341" lon="1.5718">
        <ele>167.251204</ele>
        <time>2023-05-05T15:33:38.000Z</time>
      </trkpt>
      <trkpt lat="43.76362" lon="1.57178">
        <ele>167.186375</ele>
        <time>2023-05-05T15:33:40.000Z</time>
      </trkpt>
      <trkpt lat="43.76372" lon="1.57177">
        <ele>167.154549</ele>
        <time>2023-05-05T15:33:42.000Z</time>
      </trkpt>
      <trkpt lat="43.7639" lon="1.57175">
        <ele>167.097909</ele>
        <time>2023-05-05T15:33:44.000Z</time>
      </trkpt>
      <trkpt lat="43.76394" lon="1.57174">
        <ele>167.084915</ele>
        <time>2023-05-05T15:33:45.000Z</time>
      </trkpt>
      <trkpt lat="43.76396" lon="1.57175">
        <ele>167.08027</ele>
        <time>2023-05-05T15:33:46.000Z</time>
      </trkpt>
      <trkpt lat="43.76396" lon="1.57175">
        <ele>167.08027</ele>
        <time>2023-05-05T15:33:46.000Z</time>
      </trkpt>
      <trkpt lat="43.76407" lon="1.57179">
        <ele>167.043543</ele>
        <time>2023-05-05T15:33:48.000Z</time>
      </trkpt>
      <trkpt lat="43.76407" lon="1.5718">
        <ele>167.041208</ele>
        <time>2023-05-05T15:33:50.000Z</time>
      </trkpt>
      <trkpt lat="43.76425" lon="1.57206">
        <ele>166.958572</ele>
        <time>2023-05-05T15:33:52.000Z</time>
      </trkpt>
      <trkpt lat="43.76425" lon="1.57206">
        <ele>166.958572</ele>
        <time>2023-05-05T15:33:52.000Z</time>
      </trkpt>
      <trkpt lat="43.76428" lon="1.57212">
        <ele>166.944125</ele>
        <time>2023-05-05T15:33:53.000Z</time>
      </trkpt>
      <trkpt lat="43.76432" lon="1.5722">
        <ele>166.921011</ele>
        <time>2023-05-05T15:33:55.000Z</time>
      </trkpt>
      <trkpt lat="43.76432" lon="1.5722">
        <ele>166.921011</ele>
        <time>2023-05-05T15:33:55.000Z</time>
      </trkpt>
      <trkpt lat="43.76437" lon="1.57229">
        <ele>166.897009</ele>
        <time>2023-05-05T15:33:56.000Z</time>
      </trkpt>
      <trkpt lat="43.76437" lon="1.57229">
        <ele>166.897009</ele>
        <time>2023-05-05T15:33:57.000Z</time>
      </trkpt>
      <trkpt lat="43.7645" lon="1.57251">
        <ele>166.832774</ele>
        <time>2023-05-05T15:33:58.000Z</time>
      </trkpt>
      <trkpt lat="43.7645" lon="1.57251">
        <ele>166.832774</ele>
        <time>2023-05-05T15:33:59.000Z</time>
      </trkpt>
      <trkpt lat="43.76462" lon="1.57272">
        <ele>166.750606</ele>
        <time>2023-05-05T15:34:00.000Z</time>
      </trkpt>
      <trkpt lat="43.76462" lon="1.57272">
        <ele>166.750606</ele>
        <time>2023-05-05T15:34:00.000Z</time>
      </trkpt>
      <trkpt lat="43.76461" lon="1.57272">
        <ele>166.748689</ele>
        <time>2023-05-05T15:34:02.000Z</time>
      </trkpt>
      <trkpt lat="43.76461" lon="1.57272">
        <ele>166.748689</ele>
        <time>2023-05-05T15:34:02.000Z</time>
      </trkpt>
      <trkpt lat="43.76471" lon="1.57292">
        <ele>166.676159</ele>
        <time>2023-05-05T15:34:04.000Z</time>
      </trkpt>
      <trkpt lat="43.76471" lon="1.57292">
        <ele>166.676159</ele>
        <time>2023-05-05T15:34:04.000Z</time>
      </trkpt>
      <trkpt lat="43.76479" lon="1.57311">
        <ele>166.608183</ele>
        <time>2023-05-05T15:34:06.000Z</time>
      </trkpt>
      <trkpt lat="43.76479" lon="1.57311">
        <ele>166.608183</ele>
        <time>2023-05-05T15:34:06.000Z</time>
      </trkpt>
      <trkpt lat="43.76479" lon="1.57316">
        <ele>166.593581</ele>
        <time>2023-05-05T15:34:07.000Z</time>
      </trkpt>
      <trkpt lat="43.76474" lon="1.57324">
        <ele>166.561618</ele>
        <time>2023-05-05T15:34:09.000Z</time>
      </trkpt>
      <trkpt lat="43.76472" lon="1.57326">
        <ele>166.549927</ele>
        <time>2023-05-05T15:34:10.000Z</time>
      </trkpt>
      <trkpt lat="43.76472" lon="1.57326">
        <ele>166.549927</ele>
        <time>2023-05-05T15:34:10.000Z</time>
      </trkpt>
      <trkpt lat="43.7647" lon="1.57328">
        <ele>166.540052</ele>
        <time>2023-05-05T15:34:11.000Z</time>
      </trkpt>
      <trkpt lat="43.76468" lon="1.57332">
        <ele>166.52721</ele>
        <time>2023-05-05T15:34:13.000Z</time>
      </trkpt>
      <trkpt lat="43.76465" lon="1.57336">
        <ele>166.509563</ele>
        <time>2023-05-05T15:34:14.000Z</time>
      </trkpt>
      <trkpt lat="43.76466" lon="1.57333">
        <ele>166.500929</ele>
        <time>2023-05-05T15:34:15.000Z</time>
      </trkpt>
      <trkpt lat="43.76462" lon="1.57342">
        <ele>166.469992</ele>
        <time>2023-05-05T15:34:17.000Z</time>
      </trkpt>
      <trkpt lat="43.7645" lon="1.57388">
        <ele>166.319738</ele>
        <time>2023-05-05T15:34:19.000Z</time>
      </trkpt>
      <trkpt lat="43.76448" lon="1.57394">
        <ele>166.300562</ele>
        <time>2023-05-05T15:34:20.000Z</time>
      </trkpt>
      <trkpt lat="43.76448" lon="1.57394">
        <ele>166.300562</ele>
        <time>2023-05-05T15:34:20.000Z</time>
      </trkpt>
      <trkpt lat="43.76447" lon="1.57401">
        <ele>166.278344</ele>
        <time>2023-05-05T15:34:21.000Z</time>
      </trkpt>
      <trkpt lat="43.76447" lon="1.57401">
        <ele>166.278344</ele>
        <time>2023-05-05T15:34:22.000Z</time>
      </trkpt>
      <trkpt lat="43.76447" lon="1.57404">
        <ele>166.269824</ele>
        <time>2023-05-05T15:34:23.000Z</time>
      </trkpt>
      <trkpt lat="43.76443" lon="1.57422">
        <ele>166.212761</ele>
        <time>2023-05-05T15:34:24.000Z</time>
      </trkpt>
      <trkpt lat="43.76442" lon="1.57427">
        <ele>166.19544</ele>
        <time>2023-05-05T15:34:26.000Z</time>
      </trkpt>
      <trkpt lat="43.76438" lon="1.57443">
        <ele>166.145344</ele>
        <time>2023-05-05T15:34:27.000Z</time>
      </trkpt>
      <trkpt lat="43.76438" lon="1.57443">
        <ele>166.145344</ele>
        <time>2023-05-05T15:34:28.000Z</time>
      </trkpt>
      <trkpt lat="43.76436" lon="1.57454">
        <ele>166.111201</ele>
        <time>2023-05-05T15:34:29.000Z</time>
      </trkpt>
      <trkpt lat="43.76436" lon="1.57463">
        <ele>166.083786</ele>
        <time>2023-05-05T15:34:31.000Z</time>
      </trkpt>
      <trkpt lat="43.76436" lon="1.57487">
        <ele>166.188394</ele>
        <time>2023-05-05T15:34:33.000Z</time>
      </trkpt>
      <trkpt lat="43.76432" lon="1.57506">
        <ele>166.291797</ele>
        <time>2023-05-05T15:34:35.000Z</time>
      </trkpt>
      <trkpt lat="43.76432" lon="1.57506">
        <ele>166.291797</ele>
        <time>2023-05-05T15:34:35.000Z</time>
      </trkpt>
      <trkpt lat="43.76426" lon="1.5752">
        <ele>166.372604</ele>
        <time>2023-05-05T15:34:37.000Z</time>
      </trkpt>
      <trkpt lat="43.76425" lon="1.57526">
        <ele>166.402955</ele>
        <time>2023-05-05T15:34:39.000Z</time>
      </trkpt>
      <trkpt lat="43.76425" lon="1.57526">
        <ele>166.402955</ele>
        <time>2023-05-05T15:34:39.000Z</time>
      </trkpt>
      <trkpt lat="43.76424" lon="1.57528">
        <ele>166.415626</ele>
        <time>2023-05-05T15:34:40.000Z</time>
      </trkpt>
      <trkpt lat="43.76423" lon="1.57532">
        <ele>166.435302</ele>
        <time>2023-05-05T15:34:42.000Z</time>
      </trkpt>
      <trkpt lat="43.76422" lon="1.57536">
        <ele>166.462497</ele>
        <time>2023-05-05T15:34:43.000Z</time>
      </trkpt>
      <trkpt lat="43.7642" lon="1.57544">
        <ele>166.505819</ele>
        <time>2023-05-05T15:34:44.000Z</time>
      </trkpt>
      <trkpt lat="43.7642" lon="1.57544">
        <ele>166.505819</ele>
        <time>2023-05-05T15:34:44.000Z</time>
      </trkpt>
      <trkpt lat="43.7642" lon="1.57546">
        <ele>166.512507</ele>
        <time>2023-05-05T15:34:45.000Z</time>
      </trkpt>
      <trkpt lat="43.76418" lon="1.57557">
        <ele>166.572692</ele>
        <time>2023-05-05T15:34:46.000Z</time>
      </trkpt>
      <trkpt lat="43.76416" lon="1.57565">
        <ele>166.615709</ele>
        <time>2023-05-05T15:34:47.000Z</time>
      </trkpt>
      <trkpt lat="43.76416" lon="1.57565">
        <ele>166.615709</ele>
        <time>2023-05-05T15:34:47.000Z</time>
      </trkpt>
      <trkpt lat="43.76415" lon="1.57572">
        <ele>166.651793</ele>
        <time>2023-05-05T15:34:48.000Z</time>
      </trkpt>
      <trkpt lat="43.76415" lon="1.57572">
        <ele>166.652307</ele>
        <time>2023-05-05T15:34:50.000Z</time>
      </trkpt>
      <trkpt lat="43.76413" lon="1.5759">
        <ele>166.746342</ele>
        <time>2023-05-05T15:34:51.000Z</time>
      </trkpt>
      <trkpt lat="43.76411" lon="1.57601">
        <ele>166.804434</ele>
        <time>2023-05-05T15:34:52.000Z</time>
      </trkpt>
      <trkpt lat="43.76411" lon="1.57601">
        <ele>166.804434</ele>
        <time>2023-05-05T15:34:52.000Z</time>
      </trkpt>
      <trkpt lat="43.76409" lon="1.57611">
        <ele>166.856326</ele>
        <time>2023-05-05T15:34:53.000Z</time>
      </trkpt>
      <trkpt lat="43.76409" lon="1.57613">
        <ele>166.869871</ele>
        <time>2023-05-05T15:34:55.000Z</time>
      </trkpt>
      <trkpt lat="43.76407" lon="1.57622">
        <ele>166.918551</ele>
        <time>2023-05-05T15:34:56.000Z</time>
      </trkpt>
      <trkpt lat="43.76404" lon="1.57639">
        <ele>167.008799</ele>
        <time>2023-05-05T15:34:57.000Z</time>
      </trkpt>
      <trkpt lat="43.76404" lon="1.57639">
        <ele>167.008799</ele>
        <time>2023-05-05T15:34:57.000Z</time>
      </trkpt>
      <trkpt lat="43.764" lon="1.57664">
        <ele>167.139719</ele>
        <time>2023-05-05T15:34:58.000Z</time>
      </trkpt>
      <trkpt lat="43.764" lon="1.57663">
        <ele>167.14332</ele>
        <time>2023-05-05T15:35:01.000Z</time>
      </trkpt>
      <trkpt lat="43.76399" lon="1.57681">
        <ele>167.236531</ele>
        <time>2023-05-05T15:35:02.000Z</time>
      </trkpt>
      <trkpt lat="43.76399" lon="1.57681">
        <ele>167.236531</ele>
        <time>2023-05-05T15:35:03.000Z</time>
      </trkpt>
      <trkpt lat="43.76398" lon="1.57689">
        <ele>167.273166</ele>
        <time>2023-05-05T15:35:04.000Z</time>
      </trkpt>
      <trkpt lat="43.76396" lon="1.57708">
        <ele>167.386938</ele>
        <time>2023-05-05T15:35:05.000Z</time>
      </trkpt>
      <trkpt lat="43.76395" lon="1.57714">
        <ele>167.434877</ele>
        <time>2023-05-05T15:35:07.000Z</time>
      </trkpt>
      <trkpt lat="43.76392" lon="1.57731">
        <ele>167.569513</ele>
        <time>2023-05-05T15:35:08.000Z</time>
      </trkpt>
      <trkpt lat="43.76391" lon="1.5774">
        <ele>167.639292</ele>
        <time>2023-05-05T15:35:09.000Z</time>
      </trkpt>
      <trkpt lat="43.76389" lon="1.57749">
        <ele>167.717374</ele>
        <time>2023-05-05T15:35:10.000Z</time>
      </trkpt>
      <trkpt lat="43.76388" lon="1.57755">
        <ele>167.764551</ele>
        <time>2023-05-05T15:35:12.000Z</time>
      </trkpt>
      <trkpt lat="43.76388" lon="1.57755">
        <ele>167.764551</ele>
        <time>2023-05-05T15:35:12.000Z</time>
      </trkpt>
      <trkpt lat="43.76386" lon="1.57764">
        <ele>167.836812</ele>
        <time>2023-05-05T15:35:13.000Z</time>
      </trkpt>
      <trkpt lat="43.76384" lon="1.5777">
        <ele>167.886764</ele>
        <time>2023-05-05T15:35:14.000Z</time>
      </trkpt>
      <trkpt lat="43.76384" lon="1.57775">
        <ele>167.927054</ele>
        <time>2023-05-05T15:35:15.000Z</time>
      </trkpt>
      <trkpt lat="43.76383" lon="1.5778">
        <ele>167.965044</ele>
        <time>2023-05-05T15:35:16.000Z</time>
      </trkpt>
      <trkpt lat="43.76383" lon="1.57786">
        <ele>168.012448</ele>
        <time>2023-05-05T15:35:18.000Z</time>
      </trkpt>
      <trkpt lat="43.76383" lon="1.57786">
        <ele>168.012448</ele>
        <time>2023-05-05T15:35:18.000Z</time>
      </trkpt>
      <trkpt lat="43.76385" lon="1.57792">
        <ele>168.069139</ele>
        <time>2023-05-05T15:35:18.000Z</time>
      </trkpt>
      <trkpt lat="43.76388" lon="1.57802">
        <ele>168.149009</ele>
        <time>2023-05-05T15:35:20.000Z</time>
      </trkpt>
      <trkpt lat="43.76391" lon="1.57809">
        <ele>168.21075</ele>
        <time>2023-05-05T15:35:21.000Z</time>
      </trkpt>
      <trkpt lat="43.76394" lon="1.57816">
        <ele>168.275465</ele>
        <time>2023-05-05T15:35:22.000Z</time>
      </trkpt>
      <trkpt lat="43.76394" lon="1.57816">
        <ele>168.275465</ele>
        <time>2023-05-05T15:35:22.000Z</time>
      </trkpt>
      <trkpt lat="43.76396" lon="1.57822">
        <ele>168.333828</ele>
        <time>2023-05-05T15:35:24.000Z</time>
      </trkpt>
      <trkpt lat="43.76398" lon="1.57828">
        <ele>168.382474</ele>
        <time>2023-05-05T15:35:25.000Z</time>
      </trkpt>
      <trkpt lat="43.76401" lon="1.57832">
        <ele>168.43034</ele>
        <time>2023-05-05T15:35:26.000Z</time>
      </trkpt>
      <trkpt lat="43.76403" lon="1.57838">
        <ele>168.480746</ele>
        <time>2023-05-05T15:35:27.000Z</time>
      </trkpt>
      <trkpt lat="43.76403" lon="1.57838">
        <ele>168.480746</ele>
        <time>2023-05-05T15:35:27.000Z</time>
      </trkpt>
      <trkpt lat="43.76409" lon="1.57847">
        <ele>168.576111</ele>
        <time>2023-05-05T15:35:29.000Z</time>
      </trkpt>
      <trkpt lat="43.76417" lon="1.57862">
        <ele>168.718341</ele>
        <time>2023-05-05T15:35:31.000Z</time>
      </trkpt>
      <trkpt lat="43.76417" lon="1.57862">
        <ele>168.718341</ele>
        <time>2023-05-05T15:35:31.000Z</time>
      </trkpt>
      <trkpt lat="43.76419" lon="1.57867">
        <ele>168.769024</ele>
        <time>2023-05-05T15:35:32.000Z</time>
      </trkpt>
      <trkpt lat="43.76419" lon="1.57867">
        <ele>168.772651</ele>
        <time>2023-05-05T15:35:33.000Z</time>
      </trkpt>
      <trkpt lat="43.76419" lon="1.57867">
        <ele>168.772651</ele>
        <time>2023-05-05T15:35:33.000Z</time>
      </trkpt>
      <trkpt lat="43.76426" lon="1.57883">
        <ele>168.915502</ele>
        <time>2023-05-05T15:35:35.000Z</time>
      </trkpt>
      <trkpt lat="43.76426" lon="1.57883">
        <ele>168.915502</ele>
        <time>2023-05-05T15:35:35.000Z</time>
      </trkpt>
      <trkpt lat="43.76433" lon="1.57901">
        <ele>169.07683</ele>
        <time>2023-05-05T15:35:37.000Z</time>
      </trkpt>
      <trkpt lat="43.76433" lon="1.57901">
        <ele>169.07683</ele>
        <time>2023-05-05T15:35:37.000Z</time>
      </trkpt>
      <trkpt lat="43.76435" lon="1.57905">
        <ele>169.117839</ele>
        <time>2023-05-05T15:35:38.000Z</time>
      </trkpt>
      <trkpt lat="43.76437" lon="1.57909">
        <ele>169.152286</ele>
        <time>2023-05-05T15:35:40.000Z</time>
      </trkpt>
      <trkpt lat="43.76437" lon="1.57909">
        <ele>169.152286</ele>
        <time>2023-05-05T15:35:40.000Z</time>
      </trkpt>
      <trkpt lat="43.76439" lon="1.57912">
        <ele>169.184305</ele>
        <time>2023-05-05T15:35:41.000Z</time>
      </trkpt>
      <trkpt lat="43.76441" lon="1.57917">
        <ele>169.230943</ele>
        <time>2023-05-05T15:35:42.000Z</time>
      </trkpt>
      <trkpt lat="43.76441" lon="1.57917">
        <ele>169.230943</ele>
        <time>2023-05-05T15:35:42.000Z</time>
      </trkpt>
      <trkpt lat="43.76443" lon="1.5792">
        <ele>169.262335</ele>
        <time>2023-05-05T15:35:43.000Z</time>
      </trkpt>
      <trkpt lat="43.76445" lon="1.57926">
        <ele>169.316623</ele>
        <time>2023-05-05T15:35:45.000Z</time>
      </trkpt>
      <trkpt lat="43.76445" lon="1.57926">
        <ele>169.316623</ele>
        <time>2023-05-05T15:35:45.000Z</time>
      </trkpt>
      <trkpt lat="43.76448" lon="1.57931">
        <ele>169.337474</ele>
        <time>2023-05-05T15:35:46.000Z</time>
      </trkpt>
      <trkpt lat="43.76451" lon="1.57937">
        <ele>169.360245</ele>
        <time>2023-05-05T15:35:47.000Z</time>
      </trkpt>
      <trkpt lat="43.76451" lon="1.57937">
        <ele>169.360245</ele>
        <time>2023-05-05T15:35:47.000Z</time>
      </trkpt>
      <trkpt lat="43.76454" lon="1.57942">
        <ele>169.383517</ele>
        <time>2023-05-05T15:35:48.000Z</time>
      </trkpt>
      <trkpt lat="43.76457" lon="1.57948">
        <ele>169.405458</ele>
        <time>2023-05-05T15:35:49.000Z</time>
      </trkpt>
      <trkpt lat="43.76457" lon="1.57948">
        <ele>169.405458</ele>
        <time>2023-05-05T15:35:49.000Z</time>
      </trkpt>
      <trkpt lat="43.76459" lon="1.57953">
        <ele>169.424304</ele>
        <time>2023-05-05T15:35:51.000Z</time>
      </trkpt>
      <trkpt lat="43.76461" lon="1.57957">
        <ele>169.441119</ele>
        <time>2023-05-05T15:35:52.000Z</time>
      </trkpt>
      <trkpt lat="43.76465" lon="1.57967">
        <ele>169.479322</ele>
        <time>2023-05-05T15:35:53.000Z</time>
      </trkpt>
      <trkpt lat="43.76467" lon="1.57974">
        <ele>169.505578</ele>
        <time>2023-05-05T15:35:54.000Z</time>
      </trkpt>
      <trkpt lat="43.76467" lon="1.57974">
        <ele>169.505578</ele>
        <time>2023-05-05T15:35:54.000Z</time>
      </trkpt>
      <trkpt lat="43.7647" lon="1.57981">
        <ele>169.531171</ele>
        <time>2023-05-05T15:35:55.000Z</time>
      </trkpt>
      <trkpt lat="43.76473" lon="1.57986">
        <ele>169.553631</ele>
        <time>2023-05-05T15:35:57.000Z</time>
      </trkpt>
      <trkpt lat="43.76472" lon="1.57986">
        <ele>169.557833</ele>
        <time>2023-05-05T15:35:58.000Z</time>
      </trkpt>
      <trkpt lat="43.76489" lon="1.58013">
        <ele>169.67798</ele>
        <time>2023-05-05T15:36:00.000Z</time>
      </trkpt>
      <trkpt lat="43.76497" lon="1.58022">
        <ele>169.728909</ele>
        <time>2023-05-05T15:36:02.000Z</time>
      </trkpt>
      <trkpt lat="43.76497" lon="1.58022">
        <ele>169.728909</ele>
        <time>2023-05-05T15:36:02.000Z</time>
      </trkpt>
      <trkpt lat="43.76499" lon="1.58023">
        <ele>169.737842</ele>
        <time>2023-05-05T15:36:04.000Z</time>
      </trkpt>
      <trkpt lat="43.76502" lon="1.58024">
        <ele>169.748795</ele>
        <time>2023-05-05T15:36:05.000Z</time>
      </trkpt>
      <trkpt lat="43.76505" lon="1.58024">
        <ele>169.764672</ele>
        <time>2023-05-05T15:36:06.000Z</time>
      </trkpt>
      <trkpt lat="43.76509" lon="1.58025">
        <ele>169.784142</ele>
        <time>2023-05-05T15:36:07.000Z</time>
      </trkpt>
      <trkpt lat="43.76509" lon="1.58025">
        <ele>169.784142</ele>
        <time>2023-05-05T15:36:07.000Z</time>
      </trkpt>
      <trkpt lat="43.76512" lon="1.58025">
        <ele>169.796653</ele>
        <time>2023-05-05T15:36:08.000Z</time>
      </trkpt>
      <trkpt lat="43.76514" lon="1.58026">
        <ele>169.808735</ele>
        <time>2023-05-05T15:36:09.000Z</time>
      </trkpt>
      <trkpt lat="43.76518" lon="1.58026">
        <ele>169.8233</ele>
        <time>2023-05-05T15:36:10.000Z</time>
      </trkpt>
      <trkpt lat="43.7652" lon="1.58027">
        <ele>169.836127</ele>
        <time>2023-05-05T15:36:12.000Z</time>
      </trkpt>
      <trkpt lat="43.76524" lon="1.58031">
        <ele>169.856845</ele>
        <time>2023-05-05T15:36:13.000Z</time>
      </trkpt>
      <trkpt lat="43.76524" lon="1.58031">
        <ele>169.856845</ele>
        <time>2023-05-05T15:36:13.000Z</time>
      </trkpt>
      <trkpt lat="43.76527" lon="1.58034">
        <ele>169.877237</ele>
        <time>2023-05-05T15:36:14.000Z</time>
      </trkpt>
      <trkpt lat="43.76531" lon="1.58039">
        <ele>169.900145</ele>
        <time>2023-05-05T15:36:15.000Z</time>
      </trkpt>
      <trkpt lat="43.76534" lon="1.58046">
        <ele>169.925573</ele>
        <time>2023-05-05T15:36:16.000Z</time>
      </trkpt>
      <trkpt lat="43.76536" lon="1.58051">
        <ele>169.945066</ele>
        <time>2023-05-05T15:36:17.000Z</time>
      </trkpt>
      <trkpt lat="43.7654" lon="1.58057">
        <ele>169.970769</ele>
        <time>2023-05-05T15:36:18.000Z</time>
      </trkpt>
      <trkpt lat="43.76543" lon="1.58062">
        <ele>169.995172</ele>
        <time>2023-05-05T15:36:19.000Z</time>
      </trkpt>
      <trkpt lat="43.76546" lon="1.58067">
        <ele>170.017153</ele>
        <time>2023-05-05T15:36:21.000Z</time>
      </trkpt>
      <trkpt lat="43.76549" lon="1.58071">
        <ele>170.033568</ele>
        <time>2023-05-05T15:36:22.000Z</time>
      </trkpt>
      <trkpt lat="43.76552" lon="1.58074">
        <ele>170.050857</ele>
        <time>2023-05-05T15:36:23.000Z</time>
      </trkpt>
      <trkpt lat="43.76555" lon="1.58077">
        <ele>170.068137</ele>
        <time>2023-05-05T15:36:24.000Z</time>
      </trkpt>
      <trkpt lat="43.76559" lon="1.58079">
        <ele>170.087568</ele>
        <time>2023-05-05T15:36:25.000Z</time>
      </trkpt>
      <trkpt lat="43.76563" lon="1.58081">
        <ele>170.109838</ele>
        <time>2023-05-05T15:36:27.000Z</time>
      </trkpt>
      <trkpt lat="43.76563" lon="1.58081">
        <ele>170.109838</ele>
        <time>2023-05-05T15:36:27.000Z</time>
      </trkpt>
      <trkpt lat="43.76569" lon="1.58085">
        <ele>170.139352</ele>
        <time>2023-05-05T15:36:28.000Z</time>
      </trkpt>
      <trkpt lat="43.76574" lon="1.58089">
        <ele>170.067189</ele>
        <time>2023-05-05T15:36:30.000Z</time>
      </trkpt>
      <trkpt lat="43.76574" lon="1.58089">
        <ele>170.067189</ele>
        <time>2023-05-05T15:36:30.000Z</time>
      </trkpt>
      <trkpt lat="43.7658" lon="1.58093">
        <ele>169.940406</ele>
        <time>2023-05-05T15:36:31.000Z</time>
      </trkpt>
      <trkpt lat="43.76579" lon="1.58092">
        <ele>169.922491</ele>
        <time>2023-05-05T15:36:32.000Z</time>
      </trkpt>
      <trkpt lat="43.76579" lon="1.58092">
        <ele>169.922491</ele>
        <time>2023-05-05T15:36:32.000Z</time>
      </trkpt>
      <trkpt lat="43.76595" lon="1.58101">
        <ele>169.590537</ele>
        <time>2023-05-05T15:36:33.000Z</time>
      </trkpt>
      <trkpt lat="43.76595" lon="1.58101">
        <ele>169.590537</ele>
        <time>2023-05-05T15:36:33.000Z</time>
      </trkpt>
      <trkpt lat="43.76605" lon="1.58106">
        <ele>169.376026</ele>
        <time>2023-05-05T15:36:34.000Z</time>
      </trkpt>
      <trkpt lat="43.76605" lon="1.58106">
        <ele>169.376026</ele>
        <time>2023-05-05T15:36:34.000Z</time>
      </trkpt>
      <trkpt lat="43.76613" lon="1.58108">
        <ele>169.213497</ele>
        <time>2023-05-05T15:36:35.000Z</time>
      </trkpt>
      <trkpt lat="43.76613" lon="1.58108">
        <ele>169.213497</ele>
        <time>2023-05-05T15:36:35.000Z</time>
      </trkpt>
      <trkpt lat="43.76613" lon="1.58108">
        <ele>169.213497</ele>
        <time>2023-05-05T15:36:36.000Z</time>
      </trkpt>
      <trkpt lat="43.76625" lon="1.5811">
        <ele>168.97788</ele>
        <time>2023-05-05T15:36:37.000Z</time>
      </trkpt>
      <trkpt lat="43.76625" lon="1.5811">
        <ele>168.97788</ele>
        <time>2023-05-05T15:36:37.000Z</time>
      </trkpt>
      <trkpt lat="43.76625" lon="1.5811">
        <ele>168.97788</ele>
        <time>2023-05-05T15:36:38.000Z</time>
      </trkpt>
      <trkpt lat="43.76644" lon="1.58111">
        <ele>168.609748</ele>
        <time>2023-05-05T15:36:39.000Z</time>
      </trkpt>
      <trkpt lat="43.76644" lon="1.58111">
        <ele>168.609748</ele>
        <time>2023-05-05T15:36:39.000Z</time>
      </trkpt>
      <trkpt lat="43.76644" lon="1.58111">
        <ele>168.609748</ele>
        <time>2023-05-05T15:36:40.000Z</time>
      </trkpt>
      <trkpt lat="43.76653" lon="1.58111">
        <ele>168.428149</ele>
        <time>2023-05-05T15:36:41.000Z</time>
      </trkpt>
      <trkpt lat="43.76653" lon="1.58111">
        <ele>168.428149</ele>
        <time>2023-05-05T15:36:41.000Z</time>
      </trkpt>
      <trkpt lat="43.76658" lon="1.58109">
        <ele>168.320087</ele>
        <time>2023-05-05T15:36:42.000Z</time>
      </trkpt>
      <trkpt lat="43.76658" lon="1.58109">
        <ele>168.320087</ele>
        <time>2023-05-05T15:36:42.000Z</time>
      </trkpt>
      <trkpt lat="43.76658" lon="1.58109">
        <ele>168.320087</ele>
        <time>2023-05-05T15:36:43.000Z</time>
      </trkpt>
      <trkpt lat="43.76667" lon="1.58104">
        <ele>168.130671</ele>
        <time>2023-05-05T15:36:44.000Z</time>
      </trkpt>
      <trkpt lat="43.76667" lon="1.58104">
        <ele>168.130671</ele>
        <time>2023-05-05T15:36:44.000Z</time>
      </trkpt>
      <trkpt lat="43.76673" lon="1.58101">
        <ele>168.007012</ele>
        <time>2023-05-05T15:36:45.000Z</time>
      </trkpt>
      <trkpt lat="43.76673" lon="1.58101">
        <ele>168.007012</ele>
        <time>2023-05-05T15:36:45.000Z</time>
      </trkpt>
      <trkpt lat="43.76673" lon="1.58101">
        <ele>168.007012</ele>
        <time>2023-05-05T15:36:46.000Z</time>
      </trkpt>
      <trkpt lat="43.76686" lon="1.58087">
        <ele>167.687975</ele>
        <time>2023-05-05T15:36:47.000Z</time>
      </trkpt>
      <trkpt lat="43.76689" lon="1.58083">
        <ele>167.606255</ele>
        <time>2023-05-05T15:36:48.000Z</time>
      </trkpt>
      <trkpt lat="43.76689" lon="1.58083">
        <ele>167.606255</ele>
        <time>2023-05-05T15:36:48.000Z</time>
      </trkpt>
      <trkpt lat="43.76689" lon="1.58083">
        <ele>167.606255</ele>
        <time>2023-05-05T15:36:49.000Z</time>
      </trkpt>
      <trkpt lat="43.76693" lon="1.58078">
        <ele>167.48491</ele>
        <time>2023-05-05T15:36:50.000Z</time>
      </trkpt>
      <trkpt lat="43.76695" lon="1.58073">
        <ele>167.414689</ele>
        <time>2023-05-05T15:36:51.000Z</time>
      </trkpt>
      <trkpt lat="43.76695" lon="1.58073">
        <ele>167.414689</ele>
        <time>2023-05-05T15:36:51.000Z</time>
      </trkpt>
      <trkpt lat="43.76699" lon="1.58069">
        <ele>167.305955</ele>
        <time>2023-05-05T15:36:53.000Z</time>
      </trkpt>
      <trkpt lat="43.76704" lon="1.58061">
        <ele>167.161503</ele>
        <time>2023-05-05T15:36:54.000Z</time>
      </trkpt>
      <trkpt lat="43.76704" lon="1.58061">
        <ele>167.161503</ele>
        <time>2023-05-05T15:36:54.000Z</time>
      </trkpt>
      <trkpt lat="43.76708" lon="1.58056">
        <ele>167.062565</ele>
        <time>2023-05-05T15:36:55.000Z</time>
      </trkpt>
      <trkpt lat="43.76711" lon="1.58052">
        <ele>166.97021</ele>
        <time>2023-05-05T15:36:56.000Z</time>
      </trkpt>
      <trkpt lat="43.76717" lon="1.58045">
        <ele>166.829517</ele>
        <time>2023-05-05T15:36:58.000Z</time>
      </trkpt>
      <trkpt lat="43.76717" lon="1.58045">
        <ele>166.829517</ele>
        <time>2023-05-05T15:36:58.000Z</time>
      </trkpt>
      <trkpt lat="43.76725" lon="1.58035">
        <ele>166.616789</ele>
        <time>2023-05-05T15:36:59.000Z</time>
      </trkpt>
      <trkpt lat="43.7673" lon="1.58029">
        <ele>166.541972</ele>
        <time>2023-05-05T15:37:00.000Z</time>
      </trkpt>
      <trkpt lat="43.76734" lon="1.58023">
        <ele>166.488167</ele>
        <time>2023-05-05T15:37:01.000Z</time>
      </trkpt>
      <trkpt lat="43.76734" lon="1.58023">
        <ele>166.488167</ele>
        <time>2023-05-05T15:37:01.000Z</time>
      </trkpt>
      <trkpt lat="43.76739" lon="1.58018">
        <ele>166.435419</ele>
        <time>2023-05-05T15:37:03.000Z</time>
      </trkpt>
      <trkpt lat="43.76742" lon="1.58014">
        <ele>166.395617</ele>
        <time>2023-05-05T15:37:04.000Z</time>
      </trkpt>
      <trkpt lat="43.76747" lon="1.58006">
        <ele>166.32304</ele>
        <time>2023-05-05T15:37:05.000Z</time>
      </trkpt>
      <trkpt lat="43.76752" lon="1.57996">
        <ele>166.248658</ele>
        <time>2023-05-05T15:37:07.000Z</time>
      </trkpt>
      <trkpt lat="43.76754" lon="1.57994">
        <ele>166.225766</ele>
        <time>2023-05-05T15:37:08.000Z</time>
      </trkpt>
      <trkpt lat="43.76754" lon="1.57994">
        <ele>166.225766</ele>
        <time>2023-05-05T15:37:08.000Z</time>
      </trkpt>
      <trkpt lat="43.76757" lon="1.57983">
        <ele>166.144112</ele>
        <time>2023-05-05T15:37:09.000Z</time>
      </trkpt>
      <trkpt lat="43.7676" lon="1.57975">
        <ele>166.088922</ele>
        <time>2023-05-05T15:37:10.000Z</time>
      </trkpt>
      <trkpt lat="43.76764" lon="1.57959">
        <ele>165.981088</ele>
        <time>2023-05-05T15:37:12.000Z</time>
      </trkpt>
      <trkpt lat="43.76766" lon="1.57952">
        <ele>165.925898</ele>
        <time>2023-05-05T15:37:14.000Z</time>
      </trkpt>
      <trkpt lat="43.76766" lon="1.57952">
        <ele>165.925898</ele>
        <time>2023-05-05T15:37:14.000Z</time>
      </trkpt>
      <trkpt lat="43.76769" lon="1.57945">
        <ele>165.879031</ele>
        <time>2023-05-05T15:37:15.000Z</time>
      </trkpt>
      <trkpt lat="43.76772" lon="1.57938">
        <ele>165.826884</ele>
        <time>2023-05-05T15:37:16.000Z</time>
      </trkpt>
      <trkpt lat="43.76776" lon="1.57931">
        <ele>165.761925</ele>
        <time>2023-05-05T15:37:17.000Z</time>
      </trkpt>
      <trkpt lat="43.76779" lon="1.57926">
        <ele>165.719252</ele>
        <time>2023-05-05T15:37:18.000Z</time>
      </trkpt>
      <trkpt lat="43.76784" lon="1.57919">
        <ele>165.660102</ele>
        <time>2023-05-05T15:37:21.000Z</time>
      </trkpt>
      <trkpt lat="43.76784" lon="1.57919">
        <ele>165.660102</ele>
        <time>2023-05-05T15:37:21.000Z</time>
      </trkpt>
      <trkpt lat="43.76787" lon="1.57916">
        <ele>165.620054</ele>
        <time>2023-05-05T15:37:21.000Z</time>
      </trkpt>
      <trkpt lat="43.76791" lon="1.57911">
        <ele>165.57148</ele>
        <time>2023-05-05T15:37:23.000Z</time>
      </trkpt>
      <trkpt lat="43.76795" lon="1.57907">
        <ele>165.53015</ele>
        <time>2023-05-05T15:37:23.000Z</time>
      </trkpt>
      <trkpt lat="43.76798" lon="1.57903">
        <ele>165.496602</ele>
        <time>2023-05-05T15:37:24.000Z</time>
      </trkpt>
      <trkpt lat="43.76803" lon="1.57897">
        <ele>165.430447</ele>
        <time>2023-05-05T15:37:26.000Z</time>
      </trkpt>
      <trkpt lat="43.76803" lon="1.57897">
        <ele>165.430447</ele>
        <time>2023-05-05T15:37:26.000Z</time>
      </trkpt>
      <trkpt lat="43.76806" lon="1.57894">
        <ele>165.397343</ele>
        <time>2023-05-05T15:37:28.000Z</time>
      </trkpt>
      <trkpt lat="43.76809" lon="1.5789">
        <ele>165.362993</ele>
        <time>2023-05-05T15:37:30.000Z</time>
      </trkpt>
      <trkpt lat="43.76812" lon="1.57886">
        <ele>165.327603</ele>
        <time>2023-05-05T15:37:30.000Z</time>
      </trkpt>
      <trkpt lat="43.76814" lon="1.57883">
        <ele>165.29756</ele>
        <time>2023-05-05T15:37:31.000Z</time>
      </trkpt>
      <trkpt lat="43.76814" lon="1.57883">
        <ele>165.29756</ele>
        <time>2023-05-05T15:37:31.000Z</time>
      </trkpt>
      <trkpt lat="43.76817" lon="1.57879">
        <ele>165.254897</ele>
        <time>2023-05-05T15:37:33.000Z</time>
      </trkpt>
      <trkpt lat="43.76822" lon="1.57874">
        <ele>165.207125</ele>
        <time>2023-05-05T15:37:35.000Z</time>
      </trkpt>
      <trkpt lat="43.76825" lon="1.57871">
        <ele>165.171656</ele>
        <time>2023-05-05T15:37:35.000Z</time>
      </trkpt>
      <trkpt lat="43.7683" lon="1.57866">
        <ele>165.116053</ele>
        <time>2023-05-05T15:37:36.000Z</time>
      </trkpt>
      <trkpt lat="43.7683" lon="1.57866">
        <ele>165.116053</ele>
        <time>2023-05-05T15:37:36.000Z</time>
      </trkpt>
      <trkpt lat="43.76834" lon="1.57861">
        <ele>165.06341</ele>
        <time>2023-05-05T15:37:37.000Z</time>
      </trkpt>
      <trkpt lat="43.76839" lon="1.57856">
        <ele>165.009129</ele>
        <time>2023-05-05T15:37:39.000Z</time>
      </trkpt>
      <trkpt lat="43.76843" lon="1.5785">
        <ele>164.95624</ele>
        <time>2023-05-05T15:37:41.000Z</time>
      </trkpt>
      <trkpt lat="43.76843" lon="1.5785">
        <ele>164.95624</ele>
        <time>2023-05-05T15:37:41.000Z</time>
      </trkpt>
      <trkpt lat="43.76848" lon="1.57844">
        <ele>164.910426</ele>
        <time>2023-05-05T15:37:42.000Z</time>
      </trkpt>
      <trkpt lat="43.76853" lon="1.57837">
        <ele>164.855932</ele>
        <time>2023-05-05T15:37:42.000Z</time>
      </trkpt>
      <trkpt lat="43.76856" lon="1.57832">
        <ele>164.821528</ele>
        <time>2023-05-05T15:37:43.000Z</time>
      </trkpt>
      <trkpt lat="43.76859" lon="1.57828">
        <ele>164.789089</ele>
        <time>2023-05-05T15:37:45.000Z</time>
      </trkpt>
      <trkpt lat="43.76859" lon="1.57828">
        <ele>164.789089</ele>
        <time>2023-05-05T15:37:45.000Z</time>
      </trkpt>
      <trkpt lat="43.76863" lon="1.57824">
        <ele>164.755405</ele>
        <time>2023-05-05T15:37:47.000Z</time>
      </trkpt>
      <trkpt lat="43.76865" lon="1.5782">
        <ele>164.727323</ele>
        <time>2023-05-05T15:37:48.000Z</time>
      </trkpt>
      <trkpt lat="43.76869" lon="1.57817">
        <ele>164.693284</ele>
        <time>2023-05-05T15:37:49.000Z</time>
      </trkpt>
      <trkpt lat="43.76874" lon="1.57812">
        <ele>164.651022</ele>
        <time>2023-05-05T15:37:50.000Z</time>
      </trkpt>
      <trkpt lat="43.76874" lon="1.57812">
        <ele>164.651022</ele>
        <time>2023-05-05T15:37:50.000Z</time>
      </trkpt>
      <trkpt lat="43.76879" lon="1.57807">
        <ele>164.605705</ele>
        <time>2023-05-05T15:37:51.000Z</time>
      </trkpt>
      <trkpt lat="43.76882" lon="1.57803">
        <ele>164.573788</ele>
        <time>2023-05-05T15:37:51.000Z</time>
      </trkpt>
      <trkpt lat="43.76888" lon="1.57798">
        <ele>164.526675</ele>
        <time>2023-05-05T15:37:54.000Z</time>
      </trkpt>
      <trkpt lat="43.76891" lon="1.57794">
        <ele>164.491387</ele>
        <time>2023-05-05T15:37:55.000Z</time>
      </trkpt>
      <trkpt lat="43.76895" lon="1.5779">
        <ele>164.456099</ele>
        <time>2023-05-05T15:37:56.000Z</time>
      </trkpt>
      <trkpt lat="43.76899" lon="1.57787">
        <ele>164.425383</ele>
        <time>2023-05-05T15:37:57.000Z</time>
      </trkpt>
      <trkpt lat="43.76901" lon="1.57785">
        <ele>164.402282</ele>
        <time>2023-05-05T15:37:59.000Z</time>
      </trkpt>
      <trkpt lat="43.76903" lon="1.57783">
        <ele>164.383063</ele>
        <time>2023-05-05T15:37:59.000Z</time>
      </trkpt>
      <trkpt lat="43.76905" lon="1.57778">
        <ele>164.357054</ele>
        <time>2023-05-05T15:38:01.000Z</time>
      </trkpt>
      <trkpt lat="43.76905" lon="1.57778">
        <ele>164.357054</ele>
        <time>2023-05-05T15:38:01.000Z</time>
      </trkpt>
      <trkpt lat="43.76907" lon="1.57775">
        <ele>164.330584</ele>
        <time>2023-05-05T15:38:02.000Z</time>
      </trkpt>
      <trkpt lat="43.7691" lon="1.5777">
        <ele>164.30245</ele>
        <time>2023-05-05T15:38:03.000Z</time>
      </trkpt>
      <trkpt lat="43.76912" lon="1.57766">
        <ele>164.277333</ele>
        <time>2023-05-05T15:38:04.000Z</time>
      </trkpt>
      <trkpt lat="43.76914" lon="1.57761">
        <ele>164.24294</ele>
        <time>2023-05-05T15:38:05.000Z</time>
      </trkpt>
      <trkpt lat="43.76917" lon="1.57755">
        <ele>164.201345</ele>
        <time>2023-05-05T15:38:07.000Z</time>
      </trkpt>
      <trkpt lat="43.7692" lon="1.57749">
        <ele>164.1649</ele>
        <time>2023-05-05T15:38:08.000Z</time>
      </trkpt>
      <trkpt lat="43.7692" lon="1.57749">
        <ele>164.1649</ele>
        <time>2023-05-05T15:38:08.000Z</time>
      </trkpt>
      <trkpt lat="43.76923" lon="1.57743">
        <ele>164.12204</ele>
        <time>2023-05-05T15:38:09.000Z</time>
      </trkpt>
      <trkpt lat="43.76928" lon="1.57735">
        <ele>164.072211</ele>
        <time>2023-05-05T15:38:10.000Z</time>
      </trkpt>
      <trkpt lat="43.76932" lon="1.57728">
        <ele>164.020562</ele>
        <time>2023-05-05T15:38:11.000Z</time>
      </trkpt>
      <trkpt lat="43.76936" lon="1.57723">
        <ele>163.982612</ele>
        <time>2023-05-05T15:38:11.000Z</time>
      </trkpt>
      <trkpt lat="43.76936" lon="1.57723">
        <ele>163.982612</ele>
        <time>2023-05-05T15:38:11.000Z</time>
      </trkpt>
      <trkpt lat="43.76939" lon="1.57717">
        <ele>163.941975</ele>
        <time>2023-05-05T15:38:13.000Z</time>
      </trkpt>
      <trkpt lat="43.76944" lon="1.57712">
        <ele>163.895006</ele>
        <time>2023-05-05T15:38:15.000Z</time>
      </trkpt>
      <trkpt lat="43.7695" lon="1.57706">
        <ele>163.84513</ele>
        <time>2023-05-05T15:38:16.000Z</time>
      </trkpt>
      <trkpt lat="43.76955" lon="1.57701">
        <ele>163.798018</ele>
        <time>2023-05-05T15:38:17.000Z</time>
      </trkpt>
      <trkpt lat="43.76955" lon="1.57701">
        <ele>163.798018</ele>
        <time>2023-05-05T15:38:17.000Z</time>
      </trkpt>
      <trkpt lat="43.76961" lon="1.57696">
        <ele>163.747224</ele>
        <time>2023-05-05T15:38:19.000Z</time>
      </trkpt>
      <trkpt lat="43.76965" lon="1.57693">
        <ele>163.709826</ele>
        <time>2023-05-05T15:38:20.000Z</time>
      </trkpt>
      <trkpt lat="43.7697" lon="1.57689">
        <ele>163.668407</ele>
        <time>2023-05-05T15:38:21.000Z</time>
      </trkpt>
      <trkpt lat="43.76975" lon="1.57686">
        <ele>163.624134</ele>
        <time>2023-05-05T15:38:22.000Z</time>
      </trkpt>
      <trkpt lat="43.76975" lon="1.57686">
        <ele>163.624134</ele>
        <time>2023-05-05T15:38:22.000Z</time>
      </trkpt>
      <trkpt lat="43.76982" lon="1.57682">
        <ele>163.551623</ele>
        <time>2023-05-05T15:38:23.000Z</time>
      </trkpt>
      <trkpt lat="43.76988" lon="1.57678">
        <ele>163.484808</ele>
        <time>2023-05-05T15:38:24.000Z</time>
      </trkpt>
      <trkpt lat="43.76993" lon="1.57675">
        <ele>163.423002</ele>
        <time>2023-05-05T15:38:26.000Z</time>
      </trkpt>
      <trkpt lat="43.76998" lon="1.5767">
        <ele>163.35878</ele>
        <time>2023-05-05T15:38:27.000Z</time>
      </trkpt>
      <trkpt lat="43.77002" lon="1.57666">
        <ele>163.306555</ele>
        <time>2023-05-05T15:38:28.000Z</time>
      </trkpt>
      <trkpt lat="43.77007" lon="1.57661">
        <ele>163.248339</ele>
        <time>2023-05-05T15:38:29.000Z</time>
      </trkpt>
      <trkpt lat="43.7701" lon="1.57658">
        <ele>163.208521</ele>
        <time>2023-05-05T15:38:30.000Z</time>
      </trkpt>
      <trkpt lat="43.77013" lon="1.57655">
        <ele>163.160578</ele>
        <time>2023-05-05T15:38:31.000Z</time>
      </trkpt>
      <trkpt lat="43.77017" lon="1.57651">
        <ele>163.115081</ele>
        <time>2023-05-05T15:38:33.000Z</time>
      </trkpt>
      <trkpt lat="43.77017" lon="1.57651">
        <ele>163.115081</ele>
        <time>2023-05-05T15:38:33.000Z</time>
      </trkpt>
      <trkpt lat="43.7702" lon="1.57646">
        <ele>163.06992</ele>
        <time>2023-05-05T15:38:34.000Z</time>
      </trkpt>
      <trkpt lat="43.77022" lon="1.57642">
        <ele>163.030283</ele>
        <time>2023-05-05T15:38:36.000Z</time>
      </trkpt>
      <trkpt lat="43.77022" lon="1.57642">
        <ele>163.030283</ele>
        <time>2023-05-05T15:38:36.000Z</time>
      </trkpt>
      <trkpt lat="43.77024" lon="1.57632">
        <ele>162.952797</ele>
        <time>2023-05-05T15:38:37.000Z</time>
      </trkpt>
      <trkpt lat="43.77025" lon="1.57629">
        <ele>162.927636</ele>
        <time>2023-05-05T15:38:39.000Z</time>
      </trkpt>
      <trkpt lat="43.77026" lon="1.57624">
        <ele>162.88553</ele>
        <time>2023-05-05T15:38:41.000Z</time>
      </trkpt>
      <trkpt lat="43.77026" lon="1.57623">
        <ele>162.876934</ele>
        <time>2023-05-05T15:38:43.000Z</time>
      </trkpt>
      <trkpt lat="43.77026" lon="1.57622">
        <ele>162.874678</ele>
        <time>2023-05-05T15:38:44.000Z</time>
      </trkpt>
      <trkpt lat="43.77026" lon="1.57622">
        <ele>162.866213</ele>
        <time>2023-05-05T15:38:46.000Z</time>
      </trkpt>
      <trkpt lat="43.77026" lon="1.57621">
        <ele>162.8595</ele>
        <time>2023-05-05T15:38:47.000Z</time>
      </trkpt>
      <trkpt lat="43.77026" lon="1.57623">
        <ele>162.847477</ele>
        <time>2023-05-05T15:38:48.000Z</time>
      </trkpt>
      <trkpt lat="43.77027" lon="1.57625">
        <ele>162.829687</ele>
        <time>2023-05-05T15:38:49.000Z</time>
      </trkpt>
      <trkpt lat="43.77028" lon="1.57631">
        <ele>162.788433</ele>
        <time>2023-05-05T15:38:50.000Z</time>
      </trkpt>
      <trkpt lat="43.77028" lon="1.57636">
        <ele>162.751352</ele>
        <time>2023-05-05T15:38:52.000Z</time>
      </trkpt>
      <trkpt lat="43.77028" lon="1.57639">
        <ele>162.721732</ele>
        <time>2023-05-05T15:38:53.000Z</time>
      </trkpt>
      <trkpt lat="43.77033" lon="1.57643">
        <ele>162.669897</ele>
        <time>2023-05-05T15:38:55.000Z</time>
      </trkpt>
      <trkpt lat="43.77033" lon="1.57644">
        <ele>162.661695</ele>
        <time>2023-05-05T15:38:56.000Z</time>
      </trkpt>
      <trkpt lat="43.77034" lon="1.57644">
        <ele>162.65323</ele>
        <time>2023-05-05T15:38:57.000Z</time>
      </trkpt>
      <trkpt lat="43.77036" lon="1.57643">
        <ele>162.633218</ele>
        <time>2023-05-05T15:38:58.000Z</time>
      </trkpt>
      <trkpt lat="43.77039" lon="1.57643">
        <ele>162.600381</ele>
        <time>2023-05-05T15:38:59.000Z</time>
      </trkpt>
      <trkpt lat="43.77039" lon="1.57643">
        <ele>162.600381</ele>
        <time>2023-05-05T15:38:59.000Z</time>
      </trkpt>
      <trkpt lat="43.77042" lon="1.57642">
        <ele>162.568065</ele>
        <time>2023-05-05T15:39:01.000Z</time>
      </trkpt>
      <trkpt lat="43.77045" lon="1.5764">
        <ele>162.530907</ele>
        <time>2023-05-05T15:39:02.000Z</time>
      </trkpt>
      <trkpt lat="43.77045" lon="1.5764">
        <ele>162.530907</ele>
        <time>2023-05-05T15:39:02.000Z</time>
      </trkpt>
      <trkpt lat="43.77052" lon="1.57638">
        <ele>162.465268</ele>
        <time>2023-05-05T15:39:03.000Z</time>
      </trkpt>
      <trkpt lat="43.77057" lon="1.57635">
        <ele>162.404957</ele>
        <time>2023-05-05T15:39:04.000Z</time>
      </trkpt>
      <trkpt lat="43.77057" lon="1.57635">
        <ele>162.404957</ele>
        <time>2023-05-05T15:39:04.000Z</time>
      </trkpt>
      <trkpt lat="43.77063" lon="1.57631">
        <ele>162.332059</ele>
        <time>2023-05-05T15:39:05.000Z</time>
      </trkpt>
      <trkpt lat="43.77065" lon="1.5763">
        <ele>162.31793</ele>
        <time>2023-05-05T15:39:07.000Z</time>
      </trkpt>
      <trkpt lat="43.77065" lon="1.5763">
        <ele>162.31793</ele>
        <time>2023-05-05T15:39:07.000Z</time>
      </trkpt>
      <trkpt lat="43.77065" lon="1.5763">
        <ele>162.31793</ele>
        <time>2023-05-05T15:39:08.000Z</time>
      </trkpt>
      <trkpt lat="43.77078" lon="1.57618">
        <ele>162.151351</ele>
        <time>2023-05-05T15:39:09.000Z</time>
      </trkpt>
      <trkpt lat="43.77078" lon="1.57618">
        <ele>162.151351</ele>
        <time>2023-05-05T15:39:10.000Z</time>
      </trkpt>
      <trkpt lat="43.77101" lon="1.57596">
        <ele>161.858129</ele>
        <time>2023-05-05T15:39:11.000Z</time>
      </trkpt>
      <trkpt lat="43.77101" lon="1.57596">
        <ele>161.858129</ele>
        <time>2023-05-05T15:39:12.000Z</time>
      </trkpt>
      <trkpt lat="43.77106" lon="1.57591">
        <ele>161.796769</ele>
        <time>2023-05-05T15:39:13.000Z</time>
      </trkpt>
      <trkpt lat="43.77106" lon="1.57591">
        <ele>161.796769</ele>
        <time>2023-05-05T15:39:15.000Z</time>
      </trkpt>
      <trkpt lat="43.77108" lon="1.57589">
        <ele>161.764148</ele>
        <time>2023-05-05T15:39:15.000Z</time>
      </trkpt>
      <trkpt lat="43.77108" lon="1.57589">
        <ele>161.764148</ele>
        <time>2023-05-05T15:39:15.000Z</time>
      </trkpt>
      <trkpt lat="43.77111" lon="1.57586">
        <ele>161.760404</ele>
        <time>2023-05-05T15:39:16.000Z</time>
      </trkpt>
      <trkpt lat="43.77119" lon="1.57578">
        <ele>161.752272</ele>
        <time>2023-05-05T15:39:18.000Z</time>
      </trkpt>
      <trkpt lat="43.77119" lon="1.57578">
        <ele>161.752272</ele>
        <time>2023-05-05T15:39:18.000Z</time>
      </trkpt>
      <trkpt lat="43.77134" lon="1.57556">
        <ele>161.734245</ele>
        <time>2023-05-05T15:39:21.000Z</time>
      </trkpt>
      <trkpt lat="43.77134" lon="1.57556">
        <ele>161.734245</ele>
        <time>2023-05-05T15:39:21.000Z</time>
      </trkpt>
      <trkpt lat="43.77139" lon="1.5755">
        <ele>161.728779</ele>
        <time>2023-05-05T15:39:22.000Z</time>
      </trkpt>
      <trkpt lat="43.77141" lon="1.57547">
        <ele>161.726077</ele>
        <time>2023-05-05T15:39:23.000Z</time>
      </trkpt>
      <trkpt lat="43.77141" lon="1.57547">
        <ele>161.726077</ele>
        <time>2023-05-05T15:39:23.000Z</time>
      </trkpt>
      <trkpt lat="43.77143" lon="1.57543">
        <ele>161.722921</ele>
        <time>2023-05-05T15:39:24.000Z</time>
      </trkpt>
      <trkpt lat="43.77147" lon="1.57538">
        <ele>161.718381</ele>
        <time>2023-05-05T15:39:26.000Z</time>
      </trkpt>
      <trkpt lat="43.77147" lon="1.57538">
        <ele>161.718381</ele>
        <time>2023-05-05T15:39:26.000Z</time>
      </trkpt>
      <trkpt lat="43.77151" lon="1.57533">
        <ele>161.714093</ele>
        <time>2023-05-05T15:39:27.000Z</time>
      </trkpt>
      <trkpt lat="43.77155" lon="1.57528">
        <ele>161.70943</ele>
        <time>2023-05-05T15:39:27.000Z</time>
      </trkpt>
      <trkpt lat="43.7716" lon="1.57523">
        <ele>161.70447</ele>
        <time>2023-05-05T15:39:29.000Z</time>
      </trkpt>
      <trkpt lat="43.77164" lon="1.57519">
        <ele>161.700073</ele>
        <time>2023-05-05T15:39:30.000Z</time>
      </trkpt>
      <trkpt lat="43.77168" lon="1.57514">
        <ele>161.695603</ele>
        <time>2023-05-05T15:39:32.000Z</time>
      </trkpt>
      <trkpt lat="43.77171" lon="1.57511">
        <ele>161.692073</ele>
        <time>2023-05-05T15:39:33.000Z</time>
      </trkpt>
      <trkpt lat="43.77176" lon="1.57505">
        <ele>161.686622</ele>
        <time>2023-05-05T15:39:33.000Z</time>
      </trkpt>
      <trkpt lat="43.77181" lon="1.575">
        <ele>161.681498</ele>
        <time>2023-05-05T15:39:34.000Z</time>
      </trkpt>
      <trkpt lat="43.77186" lon="1.57494">
        <ele>161.676047</ele>
        <time>2023-05-05T15:39:36.000Z</time>
      </trkpt>
      <trkpt lat="43.77186" lon="1.57494">
        <ele>161.676047</ele>
        <time>2023-05-05T15:39:36.000Z</time>
      </trkpt>
      <trkpt lat="43.7719" lon="1.5749">
        <ele>161.672291</ele>
        <time>2023-05-05T15:39:38.000Z</time>
      </trkpt>
      <trkpt lat="43.77193" lon="1.57486">
        <ele>161.66851</ele>
        <time>2023-05-05T15:39:38.000Z</time>
      </trkpt>
      <trkpt lat="43.77198" lon="1.57481">
        <ele>161.663044</ele>
        <time>2023-05-05T15:39:40.000Z</time>
      </trkpt>
      <trkpt lat="43.77198" lon="1.57481">
        <ele>161.663044</ele>
        <time>2023-05-05T15:39:40.000Z</time>
      </trkpt>
      <trkpt lat="43.77202" lon="1.57476">
        <ele>161.658499</ele>
        <time>2023-05-05T15:39:41.000Z</time>
      </trkpt>
      <trkpt lat="43.77206" lon="1.57471">
        <ele>161.654352</ele>
        <time>2023-05-05T15:39:43.000Z</time>
      </trkpt>
      <trkpt lat="43.77211" lon="1.57466">
        <ele>161.648539</ele>
        <time>2023-05-05T15:39:44.000Z</time>
      </trkpt>
      <trkpt lat="43.77211" lon="1.57466">
        <ele>161.648539</ele>
        <time>2023-05-05T15:39:44.000Z</time>
      </trkpt>
      <trkpt lat="43.77217" lon="1.57461">
        <ele>161.642955</ele>
        <time>2023-05-05T15:39:45.000Z</time>
      </trkpt>
      <trkpt lat="43.77223" lon="1.57456">
        <ele>161.637137</ele>
        <time>2023-05-05T15:39:46.000Z</time>
      </trkpt>
      <trkpt lat="43.77223" lon="1.57456">
        <ele>161.637137</ele>
        <time>2023-05-05T15:39:46.000Z</time>
      </trkpt>
      <trkpt lat="43.77229" lon="1.57452">
        <ele>161.632026</ele>
        <time>2023-05-05T15:39:47.000Z</time>
      </trkpt>
      <trkpt lat="43.77235" lon="1.57448">
        <ele>161.625882</ele>
        <time>2023-05-05T15:39:48.000Z</time>
      </trkpt>
      <trkpt lat="43.77242" lon="1.57443">
        <ele>161.619382</ele>
        <time>2023-05-05T15:39:50.000Z</time>
      </trkpt>
      <trkpt lat="43.77242" lon="1.57443">
        <ele>161.619382</ele>
        <time>2023-05-05T15:39:50.000Z</time>
      </trkpt>
      <trkpt lat="43.77247" lon="1.57439">
        <ele>161.614386</ele>
        <time>2023-05-05T15:39:50.000Z</time>
      </trkpt>
      <trkpt lat="43.77253" lon="1.57435">
        <ele>161.626311</ele>
        <time>2023-05-05T15:39:52.000Z</time>
      </trkpt>
      <trkpt lat="43.77261" lon="1.57431">
        <ele>161.65441</ele>
        <time>2023-05-05T15:39:53.000Z</time>
      </trkpt>
      <trkpt lat="43.77261" lon="1.57431">
        <ele>161.65441</ele>
        <time>2023-05-05T15:39:53.000Z</time>
      </trkpt>
      <trkpt lat="43.77266" lon="1.57427">
        <ele>161.675099</ele>
        <time>2023-05-05T15:39:55.000Z</time>
      </trkpt>
      <trkpt lat="43.77272" lon="1.57423">
        <ele>161.70009</ele>
        <time>2023-05-05T15:39:55.000Z</time>
      </trkpt>
      <trkpt lat="43.77272" lon="1.57423">
        <ele>161.70009</ele>
        <time>2023-05-05T15:39:55.000Z</time>
      </trkpt>
      <trkpt lat="43.77279" lon="1.5742">
        <ele>161.724793</ele>
        <time>2023-05-05T15:39:57.000Z</time>
      </trkpt>
      <trkpt lat="43.77285" lon="1.57417">
        <ele>161.748084</ele>
        <time>2023-05-05T15:39:58.000Z</time>
      </trkpt>
      <trkpt lat="43.77285" lon="1.57417">
        <ele>161.748084</ele>
        <time>2023-05-05T15:39:58.000Z</time>
      </trkpt>
      <trkpt lat="43.77292" lon="1.57413">
        <ele>161.772434</ele>
        <time>2023-05-05T15:40:00.000Z</time>
      </trkpt>
      <trkpt lat="43.77296" lon="1.57411">
        <ele>161.788166</ele>
        <time>2023-05-05T15:40:00.000Z</time>
      </trkpt>
      <trkpt lat="43.77301" lon="1.57409">
        <ele>161.809423</ele>
        <time>2023-05-05T15:40:01.000Z</time>
      </trkpt>
      <trkpt lat="43.77301" lon="1.57409">
        <ele>161.809423</ele>
        <time>2023-05-05T15:40:01.000Z</time>
      </trkpt>
      <trkpt lat="43.77308" lon="1.57406">
        <ele>161.832267</ele>
        <time>2023-05-05T15:40:02.000Z</time>
      </trkpt>
      <trkpt lat="43.77313" lon="1.57403">
        <ele>161.852973</ele>
        <time>2023-05-05T15:40:03.000Z</time>
      </trkpt>
      <trkpt lat="43.77321" lon="1.57398">
        <ele>161.884276</ele>
        <time>2023-05-05T15:40:05.000Z</time>
      </trkpt>
      <trkpt lat="43.77321" lon="1.57398">
        <ele>161.884276</ele>
        <time>2023-05-05T15:40:05.000Z</time>
      </trkpt>
      <trkpt lat="43.77329" lon="1.57392">
        <ele>161.91465</ele>
        <time>2023-05-05T15:40:06.000Z</time>
      </trkpt>
      <trkpt lat="43.77348" lon="1.57377">
        <ele>161.993102</ele>
        <time>2023-05-05T15:40:09.000Z</time>
      </trkpt>
      <trkpt lat="43.77348" lon="1.57377">
        <ele>161.993102</ele>
        <time>2023-05-05T15:40:09.000Z</time>
      </trkpt>
      <trkpt lat="43.77353" lon="1.57375">
        <ele>162.010606</ele>
        <time>2023-05-05T15:40:09.000Z</time>
      </trkpt>
      <trkpt lat="43.77356" lon="1.57373">
        <ele>162.024117</ele>
        <time>2023-05-05T15:40:10.000Z</time>
      </trkpt>
      <trkpt lat="43.77358" lon="1.57371">
        <ele>162.032802</ele>
        <time>2023-05-05T15:40:11.000Z</time>
      </trkpt>
      <trkpt lat="43.77363" lon="1.57369">
        <ele>162.051102</ele>
        <time>2023-05-05T15:40:13.000Z</time>
      </trkpt>
      <trkpt lat="43.77368" lon="1.57369">
        <ele>162.067523</ele>
        <time>2023-05-05T15:40:14.000Z</time>
      </trkpt>
      <trkpt lat="43.77375" lon="1.57368">
        <ele>162.091997</ele>
        <time>2023-05-05T15:40:15.000Z</time>
      </trkpt>
      <trkpt lat="43.77381" lon="1.57366">
        <ele>162.114089</ele>
        <time>2023-05-05T15:40:16.000Z</time>
      </trkpt>
      <trkpt lat="43.77386" lon="1.57367">
        <ele>162.132905</ele>
        <time>2023-05-05T15:40:17.000Z</time>
      </trkpt>
      <trkpt lat="43.77393" lon="1.57365">
        <ele>162.157645</ele>
        <time>2023-05-05T15:40:19.000Z</time>
      </trkpt>
      <trkpt lat="43.77398" lon="1.57364">
        <ele>162.175477</ele>
        <time>2023-05-05T15:40:21.000Z</time>
      </trkpt>
      <trkpt lat="43.77398" lon="1.57364">
        <ele>162.175477</ele>
        <time>2023-05-05T15:40:21.000Z</time>
      </trkpt>
      <trkpt lat="43.77406" lon="1.57361">
        <ele>162.204834</ele>
        <time>2023-05-05T15:40:22.000Z</time>
      </trkpt>
      <trkpt lat="43.7741" lon="1.57359">
        <ele>162.21906</ele>
        <time>2023-05-05T15:40:23.000Z</time>
      </trkpt>
      <trkpt lat="43.77421" lon="1.57356">
        <ele>162.221863</ele>
        <time>2023-05-05T15:40:25.000Z</time>
      </trkpt>
      <trkpt lat="43.77421" lon="1.57356">
        <ele>162.221863</ele>
        <time>2023-05-05T15:40:25.000Z</time>
      </trkpt>
      <trkpt lat="43.77441" lon="1.5735">
        <ele>162.015078</ele>
        <time>2023-05-05T15:40:27.000Z</time>
      </trkpt>
      <trkpt lat="43.77448" lon="1.5735">
        <ele>161.951363</ele>
        <time>2023-05-05T15:40:28.000Z</time>
      </trkpt>
      <trkpt lat="43.77448" lon="1.5735">
        <ele>161.951363</ele>
        <time>2023-05-05T15:40:28.000Z</time>
      </trkpt>
      <trkpt lat="43.77451" lon="1.57351">
        <ele>161.918019</ele>
        <time>2023-05-05T15:40:29.000Z</time>
      </trkpt>
      <trkpt lat="43.77456" lon="1.57351">
        <ele>161.868833</ele>
        <time>2023-05-05T15:40:31.000Z</time>
      </trkpt>
      <trkpt lat="43.77456" lon="1.57351">
        <ele>161.868833</ele>
        <time>2023-05-05T15:40:31.000Z</time>
      </trkpt>
      <trkpt lat="43.77461" lon="1.57352">
        <ele>161.820456</ele>
        <time>2023-05-05T15:40:32.000Z</time>
      </trkpt>
      <trkpt lat="43.77461" lon="1.57352">
        <ele>161.820456</ele>
        <time>2023-05-05T15:40:32.000Z</time>
      </trkpt>
      <trkpt lat="43.77469" lon="1.57353">
        <ele>161.744882</ele>
        <time>2023-05-05T15:40:33.000Z</time>
      </trkpt>
      <trkpt lat="43.77469" lon="1.57353">
        <ele>161.744882</ele>
        <time>2023-05-05T15:40:33.000Z</time>
      </trkpt>
      <trkpt lat="43.77469" lon="1.57353">
        <ele>161.744882</ele>
        <time>2023-05-05T15:40:35.000Z</time>
      </trkpt>
      <trkpt lat="43.77491" lon="1.57348">
        <ele>161.522282</ele>
        <time>2023-05-05T15:40:36.000Z</time>
      </trkpt>
      <trkpt lat="43.77491" lon="1.57348">
        <ele>161.522282</ele>
        <time>2023-05-05T15:40:36.000Z</time>
      </trkpt>
      <trkpt lat="43.77491" lon="1.57348">
        <ele>161.522282</ele>
        <time>2023-05-05T15:40:36.000Z</time>
      </trkpt>
      <trkpt lat="43.77499" lon="1.57342">
        <ele>161.430781</ele>
        <time>2023-05-05T15:40:37.000Z</time>
      </trkpt>
      <trkpt lat="43.77499" lon="1.57342">
        <ele>161.430781</ele>
        <time>2023-05-05T15:40:37.000Z</time>
      </trkpt>
      <trkpt lat="43.77501" lon="1.57335">
        <ele>161.380568</ele>
        <time>2023-05-05T15:40:39.000Z</time>
      </trkpt>
      <trkpt lat="43.77501" lon="1.57335">
        <ele>161.380568</ele>
        <time>2023-05-05T15:40:39.000Z</time>
      </trkpt>
      <trkpt lat="43.77502" lon="1.57334">
        <ele>161.366863</ele>
        <time>2023-05-05T15:40:40.000Z</time>
      </trkpt>
      <trkpt lat="43.77502" lon="1.57334">
        <ele>161.366863</ele>
        <time>2023-05-05T15:40:40.000Z</time>
      </trkpt>
      <trkpt lat="43.77505" lon="1.57327">
        <ele>161.310577</ele>
        <time>2023-05-05T15:40:41.000Z</time>
      </trkpt>
      <trkpt lat="43.77507" lon="1.57321">
        <ele>161.263193</ele>
        <time>2023-05-05T15:40:42.000Z</time>
      </trkpt>
      <trkpt lat="43.77507" lon="1.57321">
        <ele>161.263193</ele>
        <time>2023-05-05T15:40:42.000Z</time>
      </trkpt>
      <trkpt lat="43.77509" lon="1.57313">
        <ele>161.207553</ele>
        <time>2023-05-05T15:40:44.000Z</time>
      </trkpt>
      <trkpt lat="43.77512" lon="1.57306">
        <ele>161.150844</ele>
        <time>2023-05-05T15:40:44.000Z</time>
      </trkpt>
      <trkpt lat="43.77516" lon="1.57299">
        <ele>161.087247</ele>
        <time>2023-05-05T15:40:47.000Z</time>
      </trkpt>
      <trkpt lat="43.7752" lon="1.57291">
        <ele>161.019574</ele>
        <time>2023-05-05T15:40:47.000Z</time>
      </trkpt>
      <trkpt lat="43.77523" lon="1.57284">
        <ele>160.958248</ele>
        <time>2023-05-05T15:40:48.000Z</time>
      </trkpt>
      <trkpt lat="43.77523" lon="1.57284">
        <ele>160.958248</ele>
        <time>2023-05-05T15:40:48.000Z</time>
      </trkpt>
      <trkpt lat="43.77527" lon="1.57279">
        <ele>160.903939</ele>
        <time>2023-05-05T15:40:49.000Z</time>
      </trkpt>
      <trkpt lat="43.77531" lon="1.57274">
        <ele>160.857198</ele>
        <time>2023-05-05T15:40:50.000Z</time>
      </trkpt>
      <trkpt lat="43.77535" lon="1.5727">
        <ele>160.811734</ele>
        <time>2023-05-05T15:40:51.000Z</time>
      </trkpt>
      <trkpt lat="43.77535" lon="1.5727">
        <ele>160.811734</ele>
        <time>2023-05-05T15:40:51.000Z</time>
      </trkpt>
      <trkpt lat="43.77537" lon="1.57268">
        <ele>160.780334</ele>
        <time>2023-05-05T15:40:52.000Z</time>
      </trkpt>
      <trkpt lat="43.77541" lon="1.57266">
        <ele>160.739458</ele>
        <time>2023-05-05T15:40:54.000Z</time>
      </trkpt>
      <trkpt lat="43.77541" lon="1.57266">
        <ele>160.739458</ele>
        <time>2023-05-05T15:40:54.000Z</time>
      </trkpt>
      <trkpt lat="43.77543" lon="1.57264">
        <ele>160.714576</ele>
        <time>2023-05-05T15:40:55.000Z</time>
      </trkpt>
      <trkpt lat="43.77548" lon="1.57264">
        <ele>160.670533</ele>
        <time>2023-05-05T15:40:56.000Z</time>
      </trkpt>
      <trkpt lat="43.77549" lon="1.57265">
        <ele>160.65448</ele>
        <time>2023-05-05T15:40:57.000Z</time>
      </trkpt>
      <trkpt lat="43.77549" lon="1.57265">
        <ele>160.65448</ele>
        <time>2023-05-05T15:40:57.000Z</time>
      </trkpt>
      <trkpt lat="43.77558" lon="1.57269">
        <ele>160.562823</ele>
        <time>2023-05-05T15:40:58.000Z</time>
      </trkpt>
      <trkpt lat="43.77564" lon="1.57273">
        <ele>160.496461</ele>
        <time>2023-05-05T15:41:00.000Z</time>
      </trkpt>
      <trkpt lat="43.77569" lon="1.57278">
        <ele>160.482773</ele>
        <time>2023-05-05T15:41:02.000Z</time>
      </trkpt>
      <trkpt lat="43.77575" lon="1.57284">
        <ele>160.474132</ele>
        <time>2023-05-05T15:41:03.000Z</time>
      </trkpt>
      <trkpt lat="43.77575" lon="1.57284">
        <ele>160.474132</ele>
        <time>2023-05-05T15:41:03.000Z</time>
      </trkpt>
      <trkpt lat="43.77578" lon="1.57287">
        <ele>160.470164</ele>
        <time>2023-05-05T15:41:03.000Z</time>
      </trkpt>
      <trkpt lat="43.77585" lon="1.57295">
        <ele>160.459413</ele>
        <time>2023-05-05T15:41:04.000Z</time>
      </trkpt>
      <trkpt lat="43.77588" lon="1.573">
        <ele>160.454035</ele>
        <time>2023-05-05T15:41:07.000Z</time>
      </trkpt>
      <trkpt lat="43.77593" lon="1.57306">
        <ele>160.446844</ele>
        <time>2023-05-05T15:41:08.000Z</time>
      </trkpt>
      <trkpt lat="43.77596" lon="1.57312">
        <ele>160.439766</ele>
        <time>2023-05-05T15:41:09.000Z</time>
      </trkpt>
      <trkpt lat="43.77596" lon="1.57312">
        <ele>160.439766</ele>
        <time>2023-05-05T15:41:09.000Z</time>
      </trkpt>
      <trkpt lat="43.77601" lon="1.5732">
        <ele>160.431385</ele>
        <time>2023-05-05T15:41:10.000Z</time>
      </trkpt>
      <trkpt lat="43.77605" lon="1.57327">
        <ele>160.424175</ele>
        <time>2023-05-05T15:41:10.000Z</time>
      </trkpt>
      <trkpt lat="43.77612" lon="1.57342">
        <ele>160.408877</ele>
        <time>2023-05-05T15:41:13.000Z</time>
      </trkpt>
      <trkpt lat="43.77617" lon="1.57352">
        <ele>160.398815</ele>
        <time>2023-05-05T15:41:15.000Z</time>
      </trkpt>
      <trkpt lat="43.77622" lon="1.5736">
        <ele>160.390044</ele>
        <time>2023-05-05T15:41:16.000Z</time>
      </trkpt>
      <trkpt lat="43.77626" lon="1.57368">
        <ele>160.381818</ele>
        <time>2023-05-05T15:41:18.000Z</time>
      </trkpt>
      <trkpt lat="43.77632" lon="1.5738">
        <ele>160.369499</ele>
        <time>2023-05-05T15:41:19.000Z</time>
      </trkpt>
      <trkpt lat="43.77634" lon="1.57387">
        <ele>160.363414</ele>
        <time>2023-05-05T15:41:21.000Z</time>
      </trkpt>
      <trkpt lat="43.77643" lon="1.57407">
        <ele>160.343721</ele>
        <time>2023-05-05T15:41:22.000Z</time>
      </trkpt>
      <trkpt lat="43.77647" lon="1.57415">
        <ele>160.335831</ele>
        <time>2023-05-05T15:41:23.000Z</time>
      </trkpt>
      <trkpt lat="43.77653" lon="1.57422">
        <ele>160.326577</ele>
        <time>2023-05-05T15:41:24.000Z</time>
      </trkpt>
      <trkpt lat="43.77657" lon="1.57424">
        <ele>160.32155</ele>
        <time>2023-05-05T15:41:25.000Z</time>
      </trkpt>
      <trkpt lat="43.77665" lon="1.57428">
        <ele>160.31188</ele>
        <time>2023-05-05T15:41:28.000Z</time>
      </trkpt>
      <trkpt lat="43.77673" lon="1.57429">
        <ele>160.302081</ele>
        <time>2023-05-05T15:41:29.000Z</time>
      </trkpt>
      <trkpt lat="43.77673" lon="1.57429">
        <ele>160.302081</ele>
        <time>2023-05-05T15:41:30.000Z</time>
      </trkpt>
      <trkpt lat="43.77691" lon="1.57432">
        <ele>160.281534</ele>
        <time>2023-05-05T15:41:31.000Z</time>
      </trkpt>
      <trkpt lat="43.77696" lon="1.57434">
        <ele>160.052978</ele>
        <time>2023-05-05T15:41:34.000Z</time>
      </trkpt>
      <trkpt lat="43.77699" lon="1.57434">
        <ele>159.913097</ele>
        <time>2023-05-05T15:41:35.000Z</time>
      </trkpt>
      <trkpt lat="43.77702" lon="1.57435">
        <ele>159.770101</ele>
        <time>2023-05-05T15:41:36.000Z</time>
      </trkpt>
      <trkpt lat="43.77702" lon="1.57435">
        <ele>159.770101</ele>
        <time>2023-05-05T15:41:36.000Z</time>
      </trkpt>
      <trkpt lat="43.77705" lon="1.57435">
        <ele>159.573159</ele>
        <time>2023-05-05T15:41:36.000Z</time>
      </trkpt>
      <trkpt lat="43.77705" lon="1.57435">
        <ele>159.573159</ele>
        <time>2023-05-05T15:41:36.000Z</time>
      </trkpt>
      <trkpt lat="43.77708" lon="1.57436">
        <ele>159.412438</ele>
        <time>2023-05-05T15:41:38.000Z</time>
      </trkpt>
      <trkpt lat="43.77713" lon="1.57436">
        <ele>159.174089</ele>
        <time>2023-05-05T15:41:39.000Z</time>
      </trkpt>
      <trkpt lat="43.77713" lon="1.57436">
        <ele>159.174089</ele>
        <time>2023-05-05T15:41:39.000Z</time>
      </trkpt>
      <trkpt lat="43.77718" lon="1.57436">
        <ele>158.935828</ele>
        <time>2023-05-05T15:41:40.000Z</time>
      </trkpt>
      <trkpt lat="43.77724" lon="1.57437">
        <ele>158.596693</ele>
        <time>2023-05-05T15:41:42.000Z</time>
      </trkpt>
      <trkpt lat="43.77724" lon="1.57437">
        <ele>158.596693</ele>
        <time>2023-05-05T15:41:42.000Z</time>
      </trkpt>
      <trkpt lat="43.77729" lon="1.57438">
        <ele>158.337581</ele>
        <time>2023-05-05T15:41:43.000Z</time>
      </trkpt>
      <trkpt lat="43.77729" lon="1.57438">
        <ele>158.337581</ele>
        <time>2023-05-05T15:41:43.000Z</time>
      </trkpt>
      <trkpt lat="43.77736" lon="1.5744">
        <ele>157.950671</ele>
        <time>2023-05-05T15:41:44.000Z</time>
      </trkpt>
      <trkpt lat="43.77743" lon="1.57444">
        <ele>157.585278</ele>
        <time>2023-05-05T15:41:46.000Z</time>
      </trkpt>
      <trkpt lat="43.77743" lon="1.57444">
        <ele>157.585278</ele>
        <time>2023-05-05T15:41:46.000Z</time>
      </trkpt>
      <trkpt lat="43.77749" lon="1.57447">
        <ele>157.233832</ele>
        <time>2023-05-05T15:41:47.000Z</time>
      </trkpt>
      <trkpt lat="43.77749" lon="1.57447">
        <ele>157.233832</ele>
        <time>2023-05-05T15:41:47.000Z</time>
      </trkpt>
      <trkpt lat="43.77752" lon="1.57449">
        <ele>157.086452</ele>
        <time>2023-05-05T15:41:48.000Z</time>
      </trkpt>
      <trkpt lat="43.77752" lon="1.57449">
        <ele>157.086452</ele>
        <time>2023-05-05T15:41:48.000Z</time>
      </trkpt>
      <trkpt lat="43.7776" lon="1.57456">
        <ele>156.609844</ele>
        <time>2023-05-05T15:41:50.000Z</time>
      </trkpt>
      <trkpt lat="43.7776" lon="1.57456">
        <ele>156.609844</ele>
        <time>2023-05-05T15:41:50.000Z</time>
      </trkpt>
      <trkpt lat="43.77768" lon="1.57463">
        <ele>156.100197</ele>
        <time>2023-05-05T15:41:51.000Z</time>
      </trkpt>
      <trkpt lat="43.77768" lon="1.57463">
        <ele>156.100197</ele>
        <time>2023-05-05T15:41:51.000Z</time>
      </trkpt>
      <trkpt lat="43.77773" lon="1.57468">
        <ele>155.765856</ele>
        <time>2023-05-05T15:41:52.000Z</time>
      </trkpt>
      <trkpt lat="43.77773" lon="1.57468">
        <ele>155.765856</ele>
        <time>2023-05-05T15:41:52.000Z</time>
      </trkpt>
      <trkpt lat="43.77779" lon="1.57472">
        <ele>155.429706</ele>
        <time>2023-05-05T15:41:53.000Z</time>
      </trkpt>
      <trkpt lat="43.77779" lon="1.57472">
        <ele>155.429706</ele>
        <time>2023-05-05T15:41:53.000Z</time>
      </trkpt>
      <trkpt lat="43.77784" lon="1.57475">
        <ele>155.142859</ele>
        <time>2023-05-05T15:41:54.000Z</time>
      </trkpt>
      <trkpt lat="43.77784" lon="1.57475">
        <ele>155.142859</ele>
        <time>2023-05-05T15:41:54.000Z</time>
      </trkpt>
      <trkpt lat="43.77791" lon="1.57479">
        <ele>154.743818</ele>
        <time>2023-05-05T15:41:56.000Z</time>
      </trkpt>
      <trkpt lat="43.77791" lon="1.57479">
        <ele>154.743818</ele>
        <time>2023-05-05T15:41:56.000Z</time>
      </trkpt>
      <trkpt lat="43.77797" lon="1.57482">
        <ele>154.448945</ele>
        <time>2023-05-05T15:41:57.000Z</time>
      </trkpt>
      <trkpt lat="43.77797" lon="1.57482">
        <ele>154.448945</ele>
        <time>2023-05-05T15:41:57.000Z</time>
      </trkpt>
      <trkpt lat="43.77801" lon="1.57484">
        <ele>154.204186</ele>
        <time>2023-05-05T15:41:58.000Z</time>
      </trkpt>
      <trkpt lat="43.77801" lon="1.57484">
        <ele>154.204186</ele>
        <time>2023-05-05T15:41:58.000Z</time>
      </trkpt>
      <trkpt lat="43.77808" lon="1.57486">
        <ele>153.858517</ele>
        <time>2023-05-05T15:42:00.000Z</time>
      </trkpt>
      <trkpt lat="43.77808" lon="1.57486">
        <ele>153.858517</ele>
        <time>2023-05-05T15:42:00.000Z</time>
      </trkpt>
      <trkpt lat="43.77813" lon="1.57487">
        <ele>153.571721</ele>
        <time>2023-05-05T15:42:01.000Z</time>
      </trkpt>
      <trkpt lat="43.77813" lon="1.57487">
        <ele>153.571721</ele>
        <time>2023-05-05T15:42:01.000Z</time>
      </trkpt>
      <trkpt lat="43.77817" lon="1.57489">
        <ele>153.364909</ele>
        <time>2023-05-05T15:42:03.000Z</time>
      </trkpt>
      <trkpt lat="43.77817" lon="1.57489">
        <ele>153.364909</ele>
        <time>2023-05-05T15:42:03.000Z</time>
      </trkpt>
      <trkpt lat="43.77821" lon="1.57493">
        <ele>153.100929</ele>
        <time>2023-05-05T15:42:04.000Z</time>
      </trkpt>
      <trkpt lat="43.77821" lon="1.57493">
        <ele>153.100929</ele>
        <time>2023-05-05T15:42:04.000Z</time>
      </trkpt>
      <trkpt lat="43.77822" lon="1.57494">
        <ele>153.061712</ele>
        <time>2023-05-05T15:42:05.000Z</time>
      </trkpt>
      <trkpt lat="43.77829" lon="1.57505">
        <ele>152.491008</ele>
        <time>2023-05-05T15:42:06.000Z</time>
      </trkpt>
      <trkpt lat="43.77829" lon="1.57505">
        <ele>152.491008</ele>
        <time>2023-05-05T15:42:06.000Z</time>
      </trkpt>
      <trkpt lat="43.77831" lon="1.5751">
        <ele>152.283031</ele>
        <time>2023-05-05T15:42:07.000Z</time>
      </trkpt>
      <trkpt lat="43.77831" lon="1.5751">
        <ele>152.283031</ele>
        <time>2023-05-05T15:42:07.000Z</time>
      </trkpt>
      <trkpt lat="43.77831" lon="1.57515">
        <ele>152.106103</ele>
        <time>2023-05-05T15:42:08.000Z</time>
      </trkpt>
      <trkpt lat="43.77831" lon="1.57515">
        <ele>152.106103</ele>
        <time>2023-05-05T15:42:08.000Z</time>
      </trkpt>
      <trkpt lat="43.77831" lon="1.57521">
        <ele>151.889223</ele>
        <time>2023-05-05T15:42:10.000Z</time>
      </trkpt>
      <trkpt lat="43.77831" lon="1.57521">
        <ele>151.889223</ele>
        <time>2023-05-05T15:42:10.000Z</time>
      </trkpt>
      <trkpt lat="43.77824" lon="1.5754">
        <ele>151.084425</ele>
        <time>2023-05-05T15:42:12.000Z</time>
      </trkpt>
      <trkpt lat="43.77824" lon="1.5754">
        <ele>151.084425</ele>
        <time>2023-05-05T15:42:12.000Z</time>
      </trkpt>
      <trkpt lat="43.77821" lon="1.57544">
        <ele>151.019844</ele>
        <time>2023-05-05T15:42:13.000Z</time>
      </trkpt>
      <trkpt lat="43.77821" lon="1.57544">
        <ele>151.019844</ele>
        <time>2023-05-05T15:42:13.000Z</time>
      </trkpt>
      <trkpt lat="43.77817" lon="1.57552">
        <ele>151.19416</ele>
        <time>2023-05-05T15:42:15.000Z</time>
      </trkpt>
      <trkpt lat="43.77817" lon="1.57552">
        <ele>151.19416</ele>
        <time>2023-05-05T15:42:15.000Z</time>
      </trkpt>
      <trkpt lat="43.77812" lon="1.57561">
        <ele>151.398353</ele>
        <time>2023-05-05T15:42:17.000Z</time>
      </trkpt>
      <trkpt lat="43.77812" lon="1.57561">
        <ele>151.398353</ele>
        <time>2023-05-05T15:42:17.000Z</time>
      </trkpt>
      <trkpt lat="43.77812" lon="1.57561">
        <ele>151.398353</ele>
        <time>2023-05-05T15:42:18.000Z</time>
      </trkpt>
      <trkpt lat="43.77795" lon="1.57587">
        <ele>152.044567</ele>
        <time>2023-05-05T15:42:19.000Z</time>
      </trkpt>
      <trkpt lat="43.77795" lon="1.57587">
        <ele>152.044567</ele>
        <time>2023-05-05T15:42:19.000Z</time>
      </trkpt>
      <trkpt lat="43.77792" lon="1.57592">
        <ele>152.174142</ele>
        <time>2023-05-05T15:42:20.000Z</time>
      </trkpt>
      <trkpt lat="43.77792" lon="1.57592">
        <ele>152.174142</ele>
        <time>2023-05-05T15:42:20.000Z</time>
      </trkpt>
      <trkpt lat="43.77788" lon="1.57595">
        <ele>152.278692</ele>
        <time>2023-05-05T15:42:21.000Z</time>
      </trkpt>
      <trkpt lat="43.77788" lon="1.57595">
        <ele>152.278692</ele>
        <time>2023-05-05T15:42:21.000Z</time>
      </trkpt>
      <trkpt lat="43.77787" lon="1.57597">
        <ele>152.332295</ele>
        <time>2023-05-05T15:42:23.000Z</time>
      </trkpt>
      <trkpt lat="43.77787" lon="1.57597">
        <ele>152.332295</ele>
        <time>2023-05-05T15:42:23.000Z</time>
      </trkpt>
      <trkpt lat="43.77785" lon="1.576">
        <ele>152.390585</ele>
        <time>2023-05-05T15:42:24.000Z</time>
      </trkpt>
      <trkpt lat="43.77785" lon="1.576">
        <ele>152.390585</ele>
        <time>2023-05-05T15:42:24.000Z</time>
      </trkpt>
      <trkpt lat="43.77783" lon="1.57603">
        <ele>152.470997</ele>
        <time>2023-05-05T15:42:26.000Z</time>
      </trkpt>
      <trkpt lat="43.77783" lon="1.57603">
        <ele>152.470997</ele>
        <time>2023-05-05T15:42:26.000Z</time>
      </trkpt>
      <trkpt lat="43.77781" lon="1.57607">
        <ele>152.555876</ele>
        <time>2023-05-05T15:42:27.000Z</time>
      </trkpt>
      <trkpt lat="43.77781" lon="1.57607">
        <ele>152.555876</ele>
        <time>2023-05-05T15:42:27.000Z</time>
      </trkpt>
      <trkpt lat="43.7778" lon="1.57611">
        <ele>152.636197</ele>
        <time>2023-05-05T15:42:28.000Z</time>
      </trkpt>
      <trkpt lat="43.7778" lon="1.57611">
        <ele>152.636197</ele>
        <time>2023-05-05T15:42:28.000Z</time>
      </trkpt>
      <trkpt lat="43.77779" lon="1.57615">
        <ele>152.708884</ele>
        <time>2023-05-05T15:42:29.000Z</time>
      </trkpt>
      <trkpt lat="43.77779" lon="1.57615">
        <ele>152.708884</ele>
        <time>2023-05-05T15:42:29.000Z</time>
      </trkpt>
      <trkpt lat="43.7778" lon="1.57618">
        <ele>152.764906</ele>
        <time>2023-05-05T15:42:30.000Z</time>
      </trkpt>
      <trkpt lat="43.7778" lon="1.57618">
        <ele>152.764906</ele>
        <time>2023-05-05T15:42:30.000Z</time>
      </trkpt>
      <trkpt lat="43.7778" lon="1.5762">
        <ele>152.811928</ele>
        <time>2023-05-05T15:42:31.000Z</time>
      </trkpt>
      <trkpt lat="43.77781" lon="1.57623">
        <ele>152.867266</ele>
        <time>2023-05-05T15:42:33.000Z</time>
      </trkpt>
      <trkpt lat="43.77782" lon="1.57625">
        <ele>152.910868</ele>
        <time>2023-05-05T15:42:34.000Z</time>
      </trkpt>
      <trkpt lat="43.77782" lon="1.57625">
        <ele>152.910868</ele>
        <time>2023-05-05T15:42:34.000Z</time>
      </trkpt>
      <trkpt lat="43.77782" lon="1.57627">
        <ele>152.946583</ele>
        <time>2023-05-05T15:42:35.000Z</time>
      </trkpt>
      <trkpt lat="43.77783" lon="1.5763">
        <ele>153.009842</ele>
        <time>2023-05-05T15:42:36.000Z</time>
      </trkpt>
      <trkpt lat="43.77783" lon="1.5763">
        <ele>153.009842</ele>
        <time>2023-05-05T15:42:36.000Z</time>
      </trkpt>
      <trkpt lat="43.77784" lon="1.57634">
        <ele>153.073766</ele>
        <time>2023-05-05T15:42:37.000Z</time>
      </trkpt>
      <trkpt lat="43.77784" lon="1.57634">
        <ele>153.073766</ele>
        <time>2023-05-05T15:42:37.000Z</time>
      </trkpt>
      <trkpt lat="43.77784" lon="1.57636">
        <ele>153.119601</ele>
        <time>2023-05-05T15:42:38.000Z</time>
      </trkpt>
      <trkpt lat="43.77784" lon="1.57636">
        <ele>153.119601</ele>
        <time>2023-05-05T15:42:38.000Z</time>
      </trkpt>
      <trkpt lat="43.77785" lon="1.57639">
        <ele>153.187017</ele>
        <time>2023-05-05T15:42:39.000Z</time>
      </trkpt>
      <trkpt lat="43.77785" lon="1.57639">
        <ele>153.187017</ele>
        <time>2023-05-05T15:42:39.000Z</time>
      </trkpt>
      <trkpt lat="43.77787" lon="1.57644">
        <ele>153.278034</ele>
        <time>2023-05-05T15:42:41.000Z</time>
      </trkpt>
      <trkpt lat="43.77787" lon="1.57644">
        <ele>153.278034</ele>
        <time>2023-05-05T15:42:41.000Z</time>
      </trkpt>
      <trkpt lat="43.77787" lon="1.57648">
        <ele>153.354253</ele>
        <time>2023-05-05T15:42:42.000Z</time>
      </trkpt>
      <trkpt lat="43.77787" lon="1.57648">
        <ele>153.354253</ele>
        <time>2023-05-05T15:42:42.000Z</time>
      </trkpt>
      <trkpt lat="43.77789" lon="1.57652">
        <ele>153.434573</ele>
        <time>2023-05-05T15:42:43.000Z</time>
      </trkpt>
      <trkpt lat="43.77789" lon="1.57652">
        <ele>153.434573</ele>
        <time>2023-05-05T15:42:43.000Z</time>
      </trkpt>
      <trkpt lat="43.7779" lon="1.57656">
        <ele>153.519229</ele>
        <time>2023-05-05T15:42:44.000Z</time>
      </trkpt>
      <trkpt lat="43.7779" lon="1.57656">
        <ele>153.519229</ele>
        <time>2023-05-05T15:42:44.000Z</time>
      </trkpt>
      <trkpt lat="43.77791" lon="1.57661">
        <ele>153.611917</ele>
        <time>2023-05-05T15:42:45.000Z</time>
      </trkpt>
      <trkpt lat="43.77791" lon="1.57661">
        <ele>153.611917</ele>
        <time>2023-05-05T15:42:45.000Z</time>
      </trkpt>
      <trkpt lat="43.77792" lon="1.57665">
        <ele>153.701733</ele>
        <time>2023-05-05T15:42:46.000Z</time>
      </trkpt>
      <trkpt lat="43.77792" lon="1.57665">
        <ele>153.701733</ele>
        <time>2023-05-05T15:42:46.000Z</time>
      </trkpt>
      <trkpt lat="43.77794" lon="1.5767">
        <ele>153.79275</ele>
        <time>2023-05-05T15:42:48.000Z</time>
      </trkpt>
      <trkpt lat="43.77794" lon="1.5767">
        <ele>153.79275</ele>
        <time>2023-05-05T15:42:48.000Z</time>
      </trkpt>
      <trkpt lat="43.77795" lon="1.57676">
        <ele>153.901096</ele>
        <time>2023-05-05T15:42:49.000Z</time>
      </trkpt>
      <trkpt lat="43.77795" lon="1.57676">
        <ele>153.901096</ele>
        <time>2023-05-05T15:42:49.000Z</time>
      </trkpt>
      <trkpt lat="43.77797" lon="1.57682">
        <ele>154.01683</ele>
        <time>2023-05-05T15:42:50.000Z</time>
      </trkpt>
      <trkpt lat="43.77797" lon="1.57682">
        <ele>154.01683</ele>
        <time>2023-05-05T15:42:50.000Z</time>
      </trkpt>
      <trkpt lat="43.77799" lon="1.57687">
        <ele>154.120587</ele>
        <time>2023-05-05T15:42:51.000Z</time>
      </trkpt>
      <trkpt lat="43.77799" lon="1.57687">
        <ele>154.120587</ele>
        <time>2023-05-05T15:42:51.000Z</time>
      </trkpt>
      <trkpt lat="43.778" lon="1.57691">
        <ele>154.211601</ele>
        <time>2023-05-05T15:42:52.000Z</time>
      </trkpt>
      <trkpt lat="43.778" lon="1.57691">
        <ele>154.211601</ele>
        <time>2023-05-05T15:42:52.000Z</time>
      </trkpt>
      <trkpt lat="43.77802" lon="1.57694">
        <ele>154.294977</ele>
        <time>2023-05-05T15:42:53.000Z</time>
      </trkpt>
      <trkpt lat="43.77802" lon="1.57694">
        <ele>154.294977</ele>
        <time>2023-05-05T15:42:53.000Z</time>
      </trkpt>
      <trkpt lat="43.77804" lon="1.57697">
        <ele>154.364212</ele>
        <time>2023-05-05T15:42:55.000Z</time>
      </trkpt>
      <trkpt lat="43.77804" lon="1.57697">
        <ele>154.364212</ele>
        <time>2023-05-05T15:42:55.000Z</time>
      </trkpt>
      <trkpt lat="43.77807" lon="1.577">
        <ele>154.446814</ele>
        <time>2023-05-05T15:42:56.000Z</time>
      </trkpt>
      <trkpt lat="43.77807" lon="1.577">
        <ele>154.446814</ele>
        <time>2023-05-05T15:42:56.000Z</time>
      </trkpt>
      <trkpt lat="43.7781" lon="1.57703">
        <ele>154.535278</ele>
        <time>2023-05-05T15:42:57.000Z</time>
      </trkpt>
      <trkpt lat="43.7781" lon="1.57703">
        <ele>154.535278</ele>
        <time>2023-05-05T15:42:57.000Z</time>
      </trkpt>
      <trkpt lat="43.77811" lon="1.57705">
        <ele>154.599457</ele>
        <time>2023-05-05T15:42:58.000Z</time>
      </trkpt>
      <trkpt lat="43.77811" lon="1.57705">
        <ele>154.599457</ele>
        <time>2023-05-05T15:42:58.000Z</time>
      </trkpt>
      <trkpt lat="43.77813" lon="1.57708">
        <ele>154.672738</ele>
        <time>2023-05-05T15:42:59.000Z</time>
      </trkpt>
      <trkpt lat="43.77813" lon="1.57708">
        <ele>154.672738</ele>
        <time>2023-05-05T15:42:59.000Z</time>
      </trkpt>
      <trkpt lat="43.77815" lon="1.57711">
        <ele>154.748818</ele>
        <time>2023-05-05T15:43:00.000Z</time>
      </trkpt>
      <trkpt lat="43.77815" lon="1.57711">
        <ele>154.748818</ele>
        <time>2023-05-05T15:43:00.000Z</time>
      </trkpt>
      <trkpt lat="43.77816" lon="1.57716">
        <ele>154.845574</ele>
        <time>2023-05-05T15:43:01.000Z</time>
      </trkpt>
      <trkpt lat="43.77816" lon="1.57716">
        <ele>154.845574</ele>
        <time>2023-05-05T15:43:01.000Z</time>
      </trkpt>
      <trkpt lat="43.77816" lon="1.5772">
        <ele>154.917191</ele>
        <time>2023-05-05T15:43:02.000Z</time>
      </trkpt>
      <trkpt lat="43.77816" lon="1.5772">
        <ele>154.917191</ele>
        <time>2023-05-05T15:43:02.000Z</time>
      </trkpt>
      <trkpt lat="43.77815" lon="1.57725">
        <ele>155.008208</ele>
        <time>2023-05-05T15:43:04.000Z</time>
      </trkpt>
      <trkpt lat="43.77815" lon="1.57725">
        <ele>155.008208</ele>
        <time>2023-05-05T15:43:04.000Z</time>
      </trkpt>
      <trkpt lat="43.77813" lon="1.57729">
        <ele>155.110957</ele>
        <time>2023-05-05T15:43:05.000Z</time>
      </trkpt>
      <trkpt lat="43.77813" lon="1.57729">
        <ele>155.110957</ele>
        <time>2023-05-05T15:43:05.000Z</time>
      </trkpt>
      <trkpt lat="43.77809" lon="1.57735">
        <ele>155.252079</ele>
        <time>2023-05-05T15:43:07.000Z</time>
      </trkpt>
      <trkpt lat="43.77809" lon="1.57735">
        <ele>155.252079</ele>
        <time>2023-05-05T15:43:07.000Z</time>
      </trkpt>
      <trkpt lat="43.77804" lon="1.57741">
        <ele>155.417956</ele>
        <time>2023-05-05T15:43:08.000Z</time>
      </trkpt>
      <trkpt lat="43.77804" lon="1.57741">
        <ele>155.417956</ele>
        <time>2023-05-05T15:43:08.000Z</time>
      </trkpt>
      <trkpt lat="43.77799" lon="1.57745">
        <ele>155.502533</ele>
        <time>2023-05-05T15:43:09.000Z</time>
      </trkpt>
      <trkpt lat="43.77799" lon="1.57745">
        <ele>155.502533</ele>
        <time>2023-05-05T15:43:09.000Z</time>
      </trkpt>
      <trkpt lat="43.77795" lon="1.57749">
        <ele>155.376049</ele>
        <time>2023-05-05T15:43:10.000Z</time>
      </trkpt>
      <trkpt lat="43.77795" lon="1.57749">
        <ele>155.376049</ele>
        <time>2023-05-05T15:43:10.000Z</time>
      </trkpt>
      <trkpt lat="43.77793" lon="1.57751">
        <ele>155.280259</ele>
        <time>2023-05-05T15:43:11.000Z</time>
      </trkpt>
      <trkpt lat="43.77793" lon="1.57751">
        <ele>155.280259</ele>
        <time>2023-05-05T15:43:11.000Z</time>
      </trkpt>
      <trkpt lat="43.77791" lon="1.57753">
        <ele>155.20797</ele>
        <time>2023-05-05T15:43:12.000Z</time>
      </trkpt>
      <trkpt lat="43.77791" lon="1.57753">
        <ele>155.20797</ele>
        <time>2023-05-05T15:43:12.000Z</time>
      </trkpt>
      <trkpt lat="43.77788" lon="1.57753">
        <ele>155.126324</ele>
        <time>2023-05-05T15:43:14.000Z</time>
      </trkpt>
      <trkpt lat="43.77788" lon="1.57753">
        <ele>155.126324</ele>
        <time>2023-05-05T15:43:14.000Z</time>
      </trkpt>
      <trkpt lat="43.77786" lon="1.57754">
        <ele>155.078332</ele>
        <time>2023-05-05T15:43:15.000Z</time>
      </trkpt>
      <trkpt lat="43.77782" lon="1.5775">
        <ele>154.915005</ele>
        <time>2023-05-05T15:43:16.000Z</time>
      </trkpt>
      <trkpt lat="43.77782" lon="1.5775">
        <ele>154.915005</ele>
        <time>2023-05-05T15:43:16.000Z</time>
      </trkpt>
      <trkpt lat="43.77778" lon="1.57746">
        <ele>154.771182</ele>
        <time>2023-05-05T15:43:17.000Z</time>
      </trkpt>
      <trkpt lat="43.77778" lon="1.57746">
        <ele>154.771182</ele>
        <time>2023-05-05T15:43:17.000Z</time>
      </trkpt>
      <trkpt lat="43.77773" lon="1.57741">
        <ele>154.597913</ele>
        <time>2023-05-05T15:43:18.000Z</time>
      </trkpt>
      <trkpt lat="43.77773" lon="1.57741">
        <ele>154.597913</ele>
        <time>2023-05-05T15:43:18.000Z</time>
      </trkpt>
      <trkpt lat="43.7777" lon="1.57736">
        <ele>154.450848</ele>
        <time>2023-05-05T15:43:19.000Z</time>
      </trkpt>
      <trkpt lat="43.7777" lon="1.57736">
        <ele>154.450848</ele>
        <time>2023-05-05T15:43:19.000Z</time>
      </trkpt>
      <trkpt lat="43.7777" lon="1.57734">
        <ele>154.409888</ele>
        <time>2023-05-05T15:43:20.000Z</time>
      </trkpt>
      <trkpt lat="43.7777" lon="1.57734">
        <ele>154.409888</ele>
        <time>2023-05-05T15:43:20.000Z</time>
      </trkpt>
      <trkpt lat="43.7777" lon="1.57734">
        <ele>154.409888</ele>
        <time>2023-05-05T15:43:21.000Z</time>
      </trkpt>
      <trkpt lat="43.77763" lon="1.57717">
        <ele>153.986989</ele>
        <time>2023-05-05T15:43:22.000Z</time>
      </trkpt>
      <trkpt lat="43.77763" lon="1.57717">
        <ele>153.986989</ele>
        <time>2023-05-05T15:43:22.000Z</time>
      </trkpt>
      <trkpt lat="43.77758" lon="1.57706">
        <ele>153.69509</ele>
        <time>2023-05-05T15:43:23.000Z</time>
      </trkpt>
      <trkpt lat="43.77758" lon="1.57706">
        <ele>153.69509</ele>
        <time>2023-05-05T15:43:23.000Z</time>
      </trkpt>
      <trkpt lat="43.77752" lon="1.57694">
        <ele>153.389197</ele>
        <time>2023-05-05T15:43:24.000Z</time>
      </trkpt>
      <trkpt lat="43.77752" lon="1.57694">
        <ele>153.389197</ele>
        <time>2023-05-05T15:43:24.000Z</time>
      </trkpt>
      <trkpt lat="43.77752" lon="1.57694">
        <ele>153.389197</ele>
        <time>2023-05-05T15:43:25.000Z</time>
      </trkpt>
      <trkpt lat="43.77739" lon="1.57685">
        <ele>152.966553</ele>
        <time>2023-05-05T15:43:27.000Z</time>
      </trkpt>
      <trkpt lat="43.77739" lon="1.57685">
        <ele>152.966553</ele>
        <time>2023-05-05T15:43:27.000Z</time>
      </trkpt>
      <trkpt lat="43.77736" lon="1.57684">
        <ele>152.881889</ele>
        <time>2023-05-05T15:43:28.000Z</time>
      </trkpt>
      <trkpt lat="43.77736" lon="1.57684">
        <ele>152.881889</ele>
        <time>2023-05-05T15:43:28.000Z</time>
      </trkpt>
      <trkpt lat="43.77732" lon="1.57682">
        <ele>152.736586</ele>
        <time>2023-05-05T15:43:29.000Z</time>
      </trkpt>
      <trkpt lat="43.77732" lon="1.57682">
        <ele>152.736586</ele>
        <time>2023-05-05T15:43:29.000Z</time>
      </trkpt>
      <trkpt lat="43.77728" lon="1.57681">
        <ele>152.608091</ele>
        <time>2023-05-05T15:43:30.000Z</time>
      </trkpt>
      <trkpt lat="43.77728" lon="1.57681">
        <ele>152.608091</ele>
        <time>2023-05-05T15:43:30.000Z</time>
      </trkpt>
      <trkpt lat="43.77721" lon="1.57679">
        <ele>152.398452</ele>
        <time>2023-05-05T15:43:31.000Z</time>
      </trkpt>
      <trkpt lat="43.77721" lon="1.57679">
        <ele>152.398452</ele>
        <time>2023-05-05T15:43:31.000Z</time>
      </trkpt>
      <trkpt lat="43.77721" lon="1.57679">
        <ele>152.398452</ele>
        <time>2023-05-05T15:43:32.000Z</time>
      </trkpt>
      <trkpt lat="43.77697" lon="1.57669">
        <ele>151.661576</ele>
        <time>2023-05-05T15:43:33.000Z</time>
      </trkpt>
      <trkpt lat="43.77697" lon="1.57669">
        <ele>151.661576</ele>
        <time>2023-05-05T15:43:33.000Z</time>
      </trkpt>
      <trkpt lat="43.77692" lon="1.57667">
        <ele>151.500869</ele>
        <time>2023-05-05T15:43:34.000Z</time>
      </trkpt>
      <trkpt lat="43.77692" lon="1.57667">
        <ele>151.500869</ele>
        <time>2023-05-05T15:43:34.000Z</time>
      </trkpt>
      <trkpt lat="43.77692" lon="1.57667">
        <ele>151.500869</ele>
        <time>2023-05-05T15:43:35.000Z</time>
      </trkpt>
      <trkpt lat="43.77684" lon="1.57666">
        <ele>151.257864</ele>
        <time>2023-05-05T15:43:36.000Z</time>
      </trkpt>
      <trkpt lat="43.77684" lon="1.57666">
        <ele>151.257864</ele>
        <time>2023-05-05T15:43:36.000Z</time>
      </trkpt>
      <trkpt lat="43.77678" lon="1.57665">
        <ele>151.095431</ele>
        <time>2023-05-05T15:43:37.000Z</time>
      </trkpt>
      <trkpt lat="43.77678" lon="1.57665">
        <ele>151.095431</ele>
        <time>2023-05-05T15:43:37.000Z</time>
      </trkpt>
      <trkpt lat="43.77671" lon="1.57663">
        <ele>150.86679</ele>
        <time>2023-05-05T15:43:38.000Z</time>
      </trkpt>
      <trkpt lat="43.77671" lon="1.57663">
        <ele>150.86679</ele>
        <time>2023-05-05T15:43:38.000Z</time>
      </trkpt>
      <trkpt lat="43.77664" lon="1.57663">
        <ele>150.672525</ele>
        <time>2023-05-05T15:43:39.000Z</time>
      </trkpt>
      <trkpt lat="43.77664" lon="1.57663">
        <ele>150.672525</ele>
        <time>2023-05-05T15:43:39.000Z</time>
      </trkpt>
      <trkpt lat="43.77659" lon="1.57663">
        <ele>150.502338</ele>
        <time>2023-05-05T15:43:39.000Z</time>
      </trkpt>
      <trkpt lat="43.77659" lon="1.57663">
        <ele>150.502338</ele>
        <time>2023-05-05T15:43:39.000Z</time>
      </trkpt>
      <trkpt lat="43.77659" lon="1.57663">
        <ele>150.502338</ele>
        <time>2023-05-05T15:43:41.000Z</time>
      </trkpt>
      <trkpt lat="43.77642" lon="1.57663">
        <ele>150.147841</ele>
        <time>2023-05-05T15:43:42.000Z</time>
      </trkpt>
      <trkpt lat="43.77642" lon="1.57663">
        <ele>150.147841</ele>
        <time>2023-05-05T15:43:42.000Z</time>
      </trkpt>
      <trkpt lat="43.77642" lon="1.57663">
        <ele>150.147841</ele>
        <time>2023-05-05T15:43:43.000Z</time>
      </trkpt>
      <trkpt lat="43.77635" lon="1.57662">
        <ele>150.119887</ele>
        <time>2023-05-05T15:43:44.000Z</time>
      </trkpt>
      <trkpt lat="43.77635" lon="1.57662">
        <ele>150.119887</ele>
        <time>2023-05-05T15:43:44.000Z</time>
      </trkpt>
      <trkpt lat="43.77635" lon="1.57662">
        <ele>150.119887</ele>
        <time>2023-05-05T15:43:45.000Z</time>
      </trkpt>
      <trkpt lat="43.77618" lon="1.57665">
        <ele>150.051535</ele>
        <time>2023-05-05T15:43:46.000Z</time>
      </trkpt>
      <trkpt lat="43.77618" lon="1.57665">
        <ele>150.051535</ele>
        <time>2023-05-05T15:43:47.000Z</time>
      </trkpt>
      <trkpt lat="43.77606" lon="1.57667">
        <ele>150.001862</ele>
        <time>2023-05-05T15:43:47.000Z</time>
      </trkpt>
      <trkpt lat="43.77606" lon="1.57667">
        <ele>150.001862</ele>
        <time>2023-05-05T15:43:47.000Z</time>
      </trkpt>
      <trkpt lat="43.77599" lon="1.57668">
        <ele>149.973706</ele>
        <time>2023-05-05T15:43:49.000Z</time>
      </trkpt>
      <trkpt lat="43.77595" lon="1.5767">
        <ele>149.954684</ele>
        <time>2023-05-05T15:43:51.000Z</time>
      </trkpt>
      <trkpt lat="43.77595" lon="1.5767">
        <ele>149.954684</ele>
        <time>2023-05-05T15:43:51.000Z</time>
      </trkpt>
      <trkpt lat="43.77575" lon="1.57679">
        <ele>149.869948</ele>
        <time>2023-05-05T15:43:53.000Z</time>
      </trkpt>
      <trkpt lat="43.77567" lon="1.57684">
        <ele>149.836528</ele>
        <time>2023-05-05T15:43:55.000Z</time>
      </trkpt>
      <trkpt lat="43.77562" lon="1.57686">
        <ele>149.814933</ele>
        <time>2023-05-05T15:43:56.000Z</time>
      </trkpt>
      <trkpt lat="43.77555" lon="1.57691">
        <ele>149.783229</ele>
        <time>2023-05-05T15:43:57.000Z</time>
      </trkpt>
      <trkpt lat="43.77539" lon="1.57698">
        <ele>149.716358</ele>
        <time>2023-05-05T15:43:59.000Z</time>
      </trkpt>
      <trkpt lat="43.77538" lon="1.57699">
        <ele>149.70814</ele>
        <time>2023-05-05T15:44:00.000Z</time>
      </trkpt>
      <trkpt lat="43.77533" lon="1.57702">
        <ele>149.689032</ele>
        <time>2023-05-05T15:44:02.000Z</time>
      </trkpt>
      <trkpt lat="43.77533" lon="1.57701">
        <ele>149.685048</ele>
        <time>2023-05-05T15:44:04.000Z</time>
      </trkpt>
      <trkpt lat="43.77529" lon="1.57704">
        <ele>149.666568</ele>
        <time>2023-05-05T15:44:05.000Z</time>
      </trkpt>
      <trkpt lat="43.77528" lon="1.57704">
        <ele>149.660255</ele>
        <time>2023-05-05T15:44:06.000Z</time>
      </trkpt>
      <trkpt lat="43.77528" lon="1.57704">
        <ele>149.660255</ele>
        <time>2023-05-05T15:44:06.000Z</time>
      </trkpt>
      <trkpt lat="43.77512" lon="1.57713">
        <ele>149.594403</ele>
        <time>2023-05-05T15:44:08.000Z</time>
      </trkpt>
      <trkpt lat="43.77503" lon="1.57719">
        <ele>149.552643</ele>
        <time>2023-05-05T15:44:09.000Z</time>
      </trkpt>
      <trkpt lat="43.77494" lon="1.57726">
        <ele>149.512179</ele>
        <time>2023-05-05T15:44:10.000Z</time>
      </trkpt>
      <trkpt lat="43.77494" lon="1.57726">
        <ele>149.512179</ele>
        <time>2023-05-05T15:44:10.000Z</time>
      </trkpt>
      <trkpt lat="43.77488" lon="1.57731">
        <ele>149.483518</ele>
        <time>2023-05-05T15:44:11.000Z</time>
      </trkpt>
      <trkpt lat="43.77479" lon="1.57738">
        <ele>149.474596</ele>
        <time>2023-05-05T15:44:13.000Z</time>
      </trkpt>
      <trkpt lat="43.77479" lon="1.57738">
        <ele>149.474596</ele>
        <time>2023-05-05T15:44:13.000Z</time>
      </trkpt>
      <trkpt lat="43.77477" lon="1.57739">
        <ele>149.585547</ele>
        <time>2023-05-05T15:44:15.000Z</time>
      </trkpt>
      <trkpt lat="43.77476" lon="1.5774">
        <ele>149.689888</ele>
        <time>2023-05-05T15:44:16.000Z</time>
      </trkpt>
      <trkpt lat="43.77476" lon="1.5774">
        <ele>149.689888</ele>
        <time>2023-05-05T15:44:16.000Z</time>
      </trkpt>
      <trkpt lat="43.77472" lon="1.57743">
        <ele>149.930291</ele>
        <time>2023-05-05T15:44:17.000Z</time>
      </trkpt>
      <trkpt lat="43.77472" lon="1.57743">
        <ele>149.930291</ele>
        <time>2023-05-05T15:44:17.000Z</time>
      </trkpt>
      <trkpt lat="43.77469" lon="1.57746">
        <ele>150.184958</ele>
        <time>2023-05-05T15:44:18.000Z</time>
      </trkpt>
      <trkpt lat="43.77469" lon="1.57746">
        <ele>150.184958</ele>
        <time>2023-05-05T15:44:18.000Z</time>
      </trkpt>
      <trkpt lat="43.77466" lon="1.57749">
        <ele>150.394541</ele>
        <time>2023-05-05T15:44:19.000Z</time>
      </trkpt>
      <trkpt lat="43.77466" lon="1.57749">
        <ele>150.394541</ele>
        <time>2023-05-05T15:44:19.000Z</time>
      </trkpt>
      <trkpt lat="43.77464" lon="1.57753">
        <ele>150.640311</ele>
        <time>2023-05-05T15:44:20.000Z</time>
      </trkpt>
      <trkpt lat="43.77464" lon="1.57753">
        <ele>150.640311</ele>
        <time>2023-05-05T15:44:20.000Z</time>
      </trkpt>
      <trkpt lat="43.77462" lon="1.57758">
        <ele>150.867902</ele>
        <time>2023-05-05T15:44:21.000Z</time>
      </trkpt>
      <trkpt lat="43.77462" lon="1.57758">
        <ele>150.867902</ele>
        <time>2023-05-05T15:44:21.000Z</time>
      </trkpt>
      <trkpt lat="43.77462" lon="1.57765">
        <ele>151.178903</ele>
        <time>2023-05-05T15:44:22.000Z</time>
      </trkpt>
      <trkpt lat="43.77462" lon="1.57765">
        <ele>151.178903</ele>
        <time>2023-05-05T15:44:22.000Z</time>
      </trkpt>
      <trkpt lat="43.77462" lon="1.57773">
        <ele>151.536608</ele>
        <time>2023-05-05T15:44:24.000Z</time>
      </trkpt>
      <trkpt lat="43.77462" lon="1.57773">
        <ele>151.536608</ele>
        <time>2023-05-05T15:44:24.000Z</time>
      </trkpt>
      <trkpt lat="43.77464" lon="1.5778">
        <ele>151.845247</ele>
        <time>2023-05-05T15:44:24.000Z</time>
      </trkpt>
      <trkpt lat="43.77464" lon="1.5778">
        <ele>151.845247</ele>
        <time>2023-05-05T15:44:24.000Z</time>
      </trkpt>
      <trkpt lat="43.77465" lon="1.57785">
        <ele>152.095595</ele>
        <time>2023-05-05T15:44:25.000Z</time>
      </trkpt>
      <trkpt lat="43.77465" lon="1.57785">
        <ele>152.095595</ele>
        <time>2023-05-05T15:44:25.000Z</time>
      </trkpt>
      <trkpt lat="43.77467" lon="1.57789">
        <ele>152.307652</ele>
        <time>2023-05-05T15:44:26.000Z</time>
      </trkpt>
      <trkpt lat="43.77467" lon="1.57789">
        <ele>152.307652</ele>
        <time>2023-05-05T15:44:26.000Z</time>
      </trkpt>
      <trkpt lat="43.77469" lon="1.57792">
        <ele>152.510791</ele>
        <time>2023-05-05T15:44:28.000Z</time>
      </trkpt>
      <trkpt lat="43.77469" lon="1.57792">
        <ele>152.510791</ele>
        <time>2023-05-05T15:44:28.000Z</time>
      </trkpt>
      <trkpt lat="43.77471" lon="1.57795">
        <ele>152.684225</ele>
        <time>2023-05-05T15:44:29.000Z</time>
      </trkpt>
      <trkpt lat="43.77471" lon="1.57795">
        <ele>152.684225</ele>
        <time>2023-05-05T15:44:29.000Z</time>
      </trkpt>
      <trkpt lat="43.77474" lon="1.57799">
        <ele>152.945882</ele>
        <time>2023-05-05T15:44:30.000Z</time>
      </trkpt>
      <trkpt lat="43.77474" lon="1.57799">
        <ele>152.945882</ele>
        <time>2023-05-05T15:44:30.000Z</time>
      </trkpt>
      <trkpt lat="43.77478" lon="1.57803">
        <ele>153.213873</ele>
        <time>2023-05-05T15:44:32.000Z</time>
      </trkpt>
      <trkpt lat="43.77478" lon="1.57803">
        <ele>153.213873</ele>
        <time>2023-05-05T15:44:32.000Z</time>
      </trkpt>
      <trkpt lat="43.7748" lon="1.57807">
        <ele>153.456388</ele>
        <time>2023-05-05T15:44:33.000Z</time>
      </trkpt>
      <trkpt lat="43.7748" lon="1.57807">
        <ele>153.456388</ele>
        <time>2023-05-05T15:44:33.000Z</time>
      </trkpt>
      <trkpt lat="43.77483" lon="1.57811">
        <ele>153.675998</ele>
        <time>2023-05-05T15:44:33.000Z</time>
      </trkpt>
      <trkpt lat="43.77483" lon="1.57811">
        <ele>153.675998</ele>
        <time>2023-05-05T15:44:33.000Z</time>
      </trkpt>
      <trkpt lat="43.77485" lon="1.57815">
        <ele>153.888055</ele>
        <time>2023-05-05T15:44:35.000Z</time>
      </trkpt>
      <trkpt lat="43.77485" lon="1.57815">
        <ele>153.888055</ele>
        <time>2023-05-05T15:44:35.000Z</time>
      </trkpt>
      <trkpt lat="43.77487" lon="1.57821">
        <ele>154.181128</ele>
        <time>2023-05-05T15:44:36.000Z</time>
      </trkpt>
      <trkpt lat="43.77487" lon="1.57821">
        <ele>154.181128</ele>
        <time>2023-05-05T15:44:36.000Z</time>
      </trkpt>
      <trkpt lat="43.77488" lon="1.57826">
        <ele>154.42537</ele>
        <time>2023-05-05T15:44:37.000Z</time>
      </trkpt>
      <trkpt lat="43.77488" lon="1.57826">
        <ele>154.42537</ele>
        <time>2023-05-05T15:44:37.000Z</time>
      </trkpt>
      <trkpt lat="43.77489" lon="1.57832">
        <ele>154.713043</ele>
        <time>2023-05-05T15:44:39.000Z</time>
      </trkpt>
      <trkpt lat="43.77489" lon="1.57832">
        <ele>154.713043</ele>
        <time>2023-05-05T15:44:39.000Z</time>
      </trkpt>
      <trkpt lat="43.77489" lon="1.57838">
        <ele>154.971095</ele>
        <time>2023-05-05T15:44:40.000Z</time>
      </trkpt>
      <trkpt lat="43.77489" lon="1.57838">
        <ele>154.971095</ele>
        <time>2023-05-05T15:44:40.000Z</time>
      </trkpt>
      <trkpt lat="43.77489" lon="1.57846">
        <ele>155.317428</ele>
        <time>2023-05-05T15:44:41.000Z</time>
      </trkpt>
      <trkpt lat="43.77489" lon="1.57846">
        <ele>155.317428</ele>
        <time>2023-05-05T15:44:41.000Z</time>
      </trkpt>
      <trkpt lat="43.77488" lon="1.57855">
        <ele>155.736637</ele>
        <time>2023-05-05T15:44:42.000Z</time>
      </trkpt>
      <trkpt lat="43.77488" lon="1.57855">
        <ele>155.736637</ele>
        <time>2023-05-05T15:44:42.000Z</time>
      </trkpt>
      <trkpt lat="43.77488" lon="1.57859">
        <ele>155.887223</ele>
        <time>2023-05-05T15:44:43.000Z</time>
      </trkpt>
      <trkpt lat="43.77488" lon="1.57859">
        <ele>155.887223</ele>
        <time>2023-05-05T15:44:43.000Z</time>
      </trkpt>
      <trkpt lat="43.77489" lon="1.57871">
        <ele>156.425375</ele>
        <time>2023-05-05T15:44:45.000Z</time>
      </trkpt>
      <trkpt lat="43.77489" lon="1.57871">
        <ele>156.425375</ele>
        <time>2023-05-05T15:44:45.000Z</time>
      </trkpt>
      <trkpt lat="43.7749" lon="1.57877">
        <ele>156.701122</ele>
        <time>2023-05-05T15:44:46.000Z</time>
      </trkpt>
      <trkpt lat="43.7749" lon="1.57877">
        <ele>156.701122</ele>
        <time>2023-05-05T15:44:46.000Z</time>
      </trkpt>
      <trkpt lat="43.77491" lon="1.57883">
        <ele>156.988191</ele>
        <time>2023-05-05T15:44:46.000Z</time>
      </trkpt>
      <trkpt lat="43.77491" lon="1.57883">
        <ele>156.988191</ele>
        <time>2023-05-05T15:44:46.000Z</time>
      </trkpt>
      <trkpt lat="43.77493" lon="1.5789">
        <ele>157.331872</ele>
        <time>2023-05-05T15:44:48.000Z</time>
      </trkpt>
      <trkpt lat="43.77493" lon="1.5789">
        <ele>157.331872</ele>
        <time>2023-05-05T15:44:48.000Z</time>
      </trkpt>
      <trkpt lat="43.77493" lon="1.5789">
        <ele>157.331872</ele>
        <time>2023-05-05T15:44:49.000Z</time>
      </trkpt>
      <trkpt lat="43.77494" lon="1.57909">
        <ele>158.174813</ele>
        <time>2023-05-05T15:44:49.000Z</time>
      </trkpt>
      <trkpt lat="43.77494" lon="1.57909">
        <ele>158.174813</ele>
        <time>2023-05-05T15:44:49.000Z</time>
      </trkpt>
      <trkpt lat="43.77494" lon="1.57908">
        <ele>158.236819</ele>
        <time>2023-05-05T15:44:51.000Z</time>
      </trkpt>
      <trkpt lat="43.77494" lon="1.57908">
        <ele>158.236819</ele>
        <time>2023-05-05T15:44:51.000Z</time>
      </trkpt>
      <trkpt lat="43.77494" lon="1.57908">
        <ele>158.236819</ele>
        <time>2023-05-05T15:44:53.000Z</time>
      </trkpt>
      <trkpt lat="43.77483" lon="1.57929">
        <ele>159.346585</ele>
        <time>2023-05-05T15:44:54.000Z</time>
      </trkpt>
      <trkpt lat="43.77483" lon="1.57929">
        <ele>159.346585</ele>
        <time>2023-05-05T15:44:54.000Z</time>
      </trkpt>
      <trkpt lat="43.77481" lon="1.57936">
        <ele>159.687206</ele>
        <time>2023-05-05T15:44:54.000Z</time>
      </trkpt>
      <trkpt lat="43.77481" lon="1.57936">
        <ele>159.687206</ele>
        <time>2023-05-05T15:44:54.000Z</time>
      </trkpt>
      <trkpt lat="43.77478" lon="1.57944">
        <ele>160.093233</ele>
        <time>2023-05-05T15:44:56.000Z</time>
      </trkpt>
      <trkpt lat="43.77478" lon="1.57944">
        <ele>160.093233</ele>
        <time>2023-05-05T15:44:56.000Z</time>
      </trkpt>
      <trkpt lat="43.77478" lon="1.57947">
        <ele>160.258934</ele>
        <time>2023-05-05T15:44:57.000Z</time>
      </trkpt>
      <trkpt lat="43.77478" lon="1.57947">
        <ele>160.258934</ele>
        <time>2023-05-05T15:44:57.000Z</time>
      </trkpt>
      <trkpt lat="43.77478" lon="1.57953">
        <ele>160.479997</ele>
        <time>2023-05-05T15:44:59.000Z</time>
      </trkpt>
      <trkpt lat="43.77478" lon="1.57953">
        <ele>160.479997</ele>
        <time>2023-05-05T15:44:59.000Z</time>
      </trkpt>
      <trkpt lat="43.77478" lon="1.57959">
        <ele>160.535967</ele>
        <time>2023-05-05T15:44:59.000Z</time>
      </trkpt>
      <trkpt lat="43.77478" lon="1.57959">
        <ele>160.535967</ele>
        <time>2023-05-05T15:44:59.000Z</time>
      </trkpt>
      <trkpt lat="43.77477" lon="1.57966">
        <ele>160.598164</ele>
        <time>2023-05-05T15:45:01.000Z</time>
      </trkpt>
      <trkpt lat="43.77477" lon="1.57966">
        <ele>160.598164</ele>
        <time>2023-05-05T15:45:01.000Z</time>
      </trkpt>
      <trkpt lat="43.77478" lon="1.57973">
        <ele>160.652506</ele>
        <time>2023-05-05T15:45:03.000Z</time>
      </trkpt>
      <trkpt lat="43.77478" lon="1.5798">
        <ele>160.72072</ele>
        <time>2023-05-05T15:45:04.000Z</time>
      </trkpt>
      <trkpt lat="43.77478" lon="1.5798">
        <ele>160.72072</ele>
        <time>2023-05-05T15:45:04.000Z</time>
      </trkpt>
      <trkpt lat="43.77477" lon="1.57988">
        <ele>160.78641</ele>
        <time>2023-05-05T15:45:04.000Z</time>
      </trkpt>
      <trkpt lat="43.77477" lon="1.57988">
        <ele>160.78641</ele>
        <time>2023-05-05T15:45:04.000Z</time>
      </trkpt>
      <trkpt lat="43.77476" lon="1.57996">
        <ele>160.857866</ele>
        <time>2023-05-05T15:45:07.000Z</time>
      </trkpt>
      <trkpt lat="43.77475" lon="1.58001">
        <ele>160.902406</ele>
        <time>2023-05-05T15:45:08.000Z</time>
      </trkpt>
      <trkpt lat="43.77475" lon="1.58001">
        <ele>160.902406</ele>
        <time>2023-05-05T15:45:08.000Z</time>
      </trkpt>
      <trkpt lat="43.77473" lon="1.58007">
        <ele>160.961814</ele>
        <time>2023-05-05T15:45:09.000Z</time>
      </trkpt>
      <trkpt lat="43.77472" lon="1.58009">
        <ele>160.991029</ele>
        <time>2023-05-05T15:45:10.000Z</time>
      </trkpt>
      <trkpt lat="43.77472" lon="1.58009">
        <ele>160.991029</ele>
        <time>2023-05-05T15:45:10.000Z</time>
      </trkpt>
      <trkpt lat="43.7746" lon="1.58019">
        <ele>161.159036</ele>
        <time>2023-05-05T15:45:11.000Z</time>
      </trkpt>
      <trkpt lat="43.7746" lon="1.58019">
        <ele>161.159036</ele>
        <time>2023-05-05T15:45:13.000Z</time>
      </trkpt>
      <trkpt lat="43.77447" lon="1.58031">
        <ele>161.340844</ele>
        <time>2023-05-05T15:45:14.000Z</time>
      </trkpt>
      <trkpt lat="43.77434" lon="1.58043">
        <ele>161.535027</ele>
        <time>2023-05-05T15:45:16.000Z</time>
      </trkpt>
      <trkpt lat="43.77434" lon="1.58043">
        <ele>161.535027</ele>
        <time>2023-05-05T15:45:16.000Z</time>
      </trkpt>
      <trkpt lat="43.77428" lon="1.58048">
        <ele>161.614686</ele>
        <time>2023-05-05T15:45:17.000Z</time>
      </trkpt>
      <trkpt lat="43.77428" lon="1.58048">
        <ele>161.619933</ele>
        <time>2023-05-05T15:45:20.000Z</time>
      </trkpt>
      <trkpt lat="43.77424" lon="1.58054">
        <ele>161.699318</ele>
        <time>2023-05-05T15:45:21.000Z</time>
      </trkpt>
      <trkpt lat="43.77424" lon="1.58054">
        <ele>161.699318</ele>
        <time>2023-05-05T15:45:21.000Z</time>
      </trkpt>
      <trkpt lat="43.77421" lon="1.58057">
        <ele>161.743212</ele>
        <time>2023-05-05T15:45:22.000Z</time>
      </trkpt>
      <trkpt lat="43.77412" lon="1.58064">
        <ele>161.86569</ele>
        <time>2023-05-05T15:45:24.000Z</time>
      </trkpt>
      <trkpt lat="43.77412" lon="1.58064">
        <ele>161.86569</ele>
        <time>2023-05-05T15:45:24.000Z</time>
      </trkpt>
      <trkpt lat="43.77406" lon="1.58067">
        <ele>161.940514</ele>
        <time>2023-05-05T15:45:25.000Z</time>
      </trkpt>
      <trkpt lat="43.77401" lon="1.58069">
        <ele>162.002143</ele>
        <time>2023-05-05T15:45:26.000Z</time>
      </trkpt>
      <trkpt lat="43.77396" lon="1.58071">
        <ele>162.064499</ele>
        <time>2023-05-05T15:45:27.000Z</time>
      </trkpt>
      <trkpt lat="43.77392" lon="1.58069">
        <ele>162.121942</ele>
        <time>2023-05-05T15:45:28.000Z</time>
      </trkpt>
      <trkpt lat="43.77392" lon="1.58069">
        <ele>162.121942</ele>
        <time>2023-05-05T15:45:28.000Z</time>
      </trkpt>
      <trkpt lat="43.77387" lon="1.58066">
        <ele>162.191623</ele>
        <time>2023-05-05T15:45:29.000Z</time>
      </trkpt>
      <trkpt lat="43.77377" lon="1.58061">
        <ele>162.311005</ele>
        <time>2023-05-05T15:45:31.000Z</time>
      </trkpt>
      <trkpt lat="43.7736" lon="1.58052">
        <ele>162.531948</ele>
        <time>2023-05-05T15:45:34.000Z</time>
      </trkpt>
      <trkpt lat="43.77356" lon="1.58048">
        <ele>162.595207</ele>
        <time>2023-05-05T15:45:35.000Z</time>
      </trkpt>
      <trkpt lat="43.77353" lon="1.58045">
        <ele>162.642563</ele>
        <time>2023-05-05T15:45:36.000Z</time>
      </trkpt>
      <trkpt lat="43.7735" lon="1.58041">
        <ele>162.631192</ele>
        <time>2023-05-05T15:45:37.000Z</time>
      </trkpt>
      <trkpt lat="43.77348" lon="1.58038">
        <ele>162.610096</ele>
        <time>2023-05-05T15:45:38.000Z</time>
      </trkpt>
      <trkpt lat="43.77348" lon="1.58038">
        <ele>162.610096</ele>
        <time>2023-05-05T15:45:38.000Z</time>
      </trkpt>
      <trkpt lat="43.77345" lon="1.58034">
        <ele>162.582189</ele>
        <time>2023-05-05T15:45:39.000Z</time>
      </trkpt>
      <trkpt lat="43.77345" lon="1.58034">
        <ele>162.582189</ele>
        <time>2023-05-05T15:45:40.000Z</time>
      </trkpt>
      <trkpt lat="43.77344" lon="1.58032">
        <ele>162.573445</ele>
        <time>2023-05-05T15:45:40.000Z</time>
      </trkpt>
      <trkpt lat="43.77344" lon="1.58032">
        <ele>162.573445</ele>
        <time>2023-05-05T15:45:42.000Z</time>
      </trkpt>
      <trkpt lat="43.77328" lon="1.58019">
        <ele>162.444548</ele>
        <time>2023-05-05T15:45:43.000Z</time>
      </trkpt>
      <trkpt lat="43.77321" lon="1.58014">
        <ele>162.392099</ele>
        <time>2023-05-05T15:45:44.000Z</time>
      </trkpt>
      <trkpt lat="43.77321" lon="1.58014">
        <ele>162.392099</ele>
        <time>2023-05-05T15:45:44.000Z</time>
      </trkpt>
      <trkpt lat="43.77321" lon="1.58014">
        <ele>162.392099</ele>
        <time>2023-05-05T15:45:45.000Z</time>
      </trkpt>
      <trkpt lat="43.77304" lon="1.58022">
        <ele>162.272079</ele>
        <time>2023-05-05T15:45:46.000Z</time>
      </trkpt>
      <trkpt lat="43.77304" lon="1.58022">
        <ele>162.272079</ele>
        <time>2023-05-05T15:45:47.000Z</time>
      </trkpt>
      <trkpt lat="43.773" lon="1.58029">
        <ele>162.224259</ele>
        <time>2023-05-05T15:45:48.000Z</time>
      </trkpt>
      <trkpt lat="43.77296" lon="1.58033">
        <ele>162.190976</ele>
        <time>2023-05-05T15:45:49.000Z</time>
      </trkpt>
      <trkpt lat="43.77296" lon="1.58033">
        <ele>162.190976</ele>
        <time>2023-05-05T15:45:49.000Z</time>
      </trkpt>
      <trkpt lat="43.77292" lon="1.5804">
        <ele>162.150018</ele>
        <time>2023-05-05T15:45:50.000Z</time>
      </trkpt>
      <trkpt lat="43.77288" lon="1.58046">
        <ele>162.109439</ele>
        <time>2023-05-05T15:45:52.000Z</time>
      </trkpt>
      <trkpt lat="43.77288" lon="1.58046">
        <ele>162.109439</ele>
        <time>2023-05-05T15:45:52.000Z</time>
      </trkpt>
      <trkpt lat="43.77286" lon="1.58051">
        <ele>162.083624</ele>
        <time>2023-05-05T15:45:53.000Z</time>
      </trkpt>
      <trkpt lat="43.77276" lon="1.58064">
        <ele>161.990831</ele>
        <time>2023-05-05T15:45:55.000Z</time>
      </trkpt>
      <trkpt lat="43.77276" lon="1.58064">
        <ele>161.990831</ele>
        <time>2023-05-05T15:45:55.000Z</time>
      </trkpt>
      <trkpt lat="43.77275" lon="1.58065">
        <ele>161.980367</ele>
        <time>2023-05-05T15:45:56.000Z</time>
      </trkpt>
      <trkpt lat="43.77272" lon="1.58067">
        <ele>161.961409</ele>
        <time>2023-05-05T15:45:57.000Z</time>
      </trkpt>
      <trkpt lat="43.7727" lon="1.58068">
        <ele>161.944905</ele>
        <time>2023-05-05T15:45:59.000Z</time>
      </trkpt>
      <trkpt lat="43.7727" lon="1.58068">
        <ele>161.944905</ele>
        <time>2023-05-05T15:45:59.000Z</time>
      </trkpt>
      <trkpt lat="43.77268" lon="1.58068">
        <ele>161.927102</ele>
        <time>2023-05-05T15:46:00.000Z</time>
      </trkpt>
      <trkpt lat="43.77264" lon="1.5807">
        <ele>161.902104</ele>
        <time>2023-05-05T15:46:01.000Z</time>
      </trkpt>
      <trkpt lat="43.77258" lon="1.5807">
        <ele>161.860706</ele>
        <time>2023-05-05T15:46:02.000Z</time>
      </trkpt>
      <trkpt lat="43.77251" lon="1.5807">
        <ele>161.816578</ele>
        <time>2023-05-05T15:46:03.000Z</time>
      </trkpt>
      <trkpt lat="43.77245" lon="1.58068">
        <ele>161.769797</ele>
        <time>2023-05-05T15:46:05.000Z</time>
      </trkpt>
      <trkpt lat="43.77239" lon="1.58066">
        <ele>161.727392</ele>
        <time>2023-05-05T15:46:06.000Z</time>
      </trkpt>
      <trkpt lat="43.7723" lon="1.58063">
        <ele>161.668556</ele>
        <time>2023-05-05T15:46:07.000Z</time>
      </trkpt>
      <trkpt lat="43.77223" lon="1.5806">
        <ele>161.61632</ele>
        <time>2023-05-05T15:46:08.000Z</time>
      </trkpt>
      <trkpt lat="43.77217" lon="1.58057">
        <ele>161.575462</ele>
        <time>2023-05-05T15:46:09.000Z</time>
      </trkpt>
      <trkpt lat="43.77214" lon="1.58058">
        <ele>161.552072</ele>
        <time>2023-05-05T15:46:11.000Z</time>
      </trkpt>
      <trkpt lat="43.77201" lon="1.58056">
        <ele>161.463186</ele>
        <time>2023-05-05T15:46:12.000Z</time>
      </trkpt>
      <trkpt lat="43.77201" lon="1.58056">
        <ele>161.463186</ele>
        <time>2023-05-05T15:46:12.000Z</time>
      </trkpt>
      <trkpt lat="43.77193" lon="1.58055">
        <ele>161.4534</ele>
        <time>2023-05-05T15:46:13.000Z</time>
      </trkpt>
      <trkpt lat="43.77187" lon="1.58055">
        <ele>161.486555</ele>
        <time>2023-05-05T15:46:14.000Z</time>
      </trkpt>
      <trkpt lat="43.7718" lon="1.58055">
        <ele>161.526697</ele>
        <time>2023-05-05T15:46:16.000Z</time>
      </trkpt>
      <trkpt lat="43.77172" lon="1.58055">
        <ele>161.573245</ele>
        <time>2023-05-05T15:46:17.000Z</time>
      </trkpt>
      <trkpt lat="43.77172" lon="1.58055">
        <ele>161.573245</ele>
        <time>2023-05-05T15:46:17.000Z</time>
      </trkpt>
      <trkpt lat="43.77165" lon="1.58054">
        <ele>161.613422</ele>
        <time>2023-05-05T15:46:18.000Z</time>
      </trkpt>
      <trkpt lat="43.77152" lon="1.58057">
        <ele>161.689348</ele>
        <time>2023-05-05T15:46:20.000Z</time>
      </trkpt>
      <trkpt lat="43.77134" lon="1.58063">
        <ele>161.799266</ele>
        <time>2023-05-05T15:46:21.000Z</time>
      </trkpt>
      <trkpt lat="43.7713" lon="1.58066">
        <ele>161.827554</ele>
        <time>2023-05-05T15:46:24.000Z</time>
      </trkpt>
      <trkpt lat="43.7713" lon="1.58066">
        <ele>161.827554</ele>
        <time>2023-05-05T15:46:24.000Z</time>
      </trkpt>
      <trkpt lat="43.7713" lon="1.58065">
        <ele>161.835062</ele>
        <time>2023-05-05T15:46:25.000Z</time>
      </trkpt>
      <trkpt lat="43.77124" lon="1.58072">
        <ele>161.879084</ele>
        <time>2023-05-05T15:46:27.000Z</time>
      </trkpt>
      <trkpt lat="43.77117" lon="1.58076">
        <ele>161.92636</ele>
        <time>2023-05-05T15:46:27.000Z</time>
      </trkpt>
      <trkpt lat="43.77117" lon="1.58076">
        <ele>161.92636</ele>
        <time>2023-05-05T15:46:27.000Z</time>
      </trkpt>
      <trkpt lat="43.77105" lon="1.58087">
        <ele>162.00763</ele>
        <time>2023-05-05T15:46:29.000Z</time>
      </trkpt>
      <trkpt lat="43.77087" lon="1.58108">
        <ele>162.144316</ele>
        <time>2023-05-05T15:46:31.000Z</time>
      </trkpt>
      <trkpt lat="43.77084" lon="1.58112">
        <ele>162.169988</ele>
        <time>2023-05-05T15:46:33.000Z</time>
      </trkpt>
      <trkpt lat="43.77084" lon="1.58112">
        <ele>162.169988</ele>
        <time>2023-05-05T15:46:33.000Z</time>
      </trkpt>
      <trkpt lat="43.77076" lon="1.58118">
        <ele>162.222207</ele>
        <time>2023-05-05T15:46:35.000Z</time>
      </trkpt>
      <trkpt lat="43.77068" lon="1.58124">
        <ele>162.278721</ele>
        <time>2023-05-05T15:46:37.000Z</time>
      </trkpt>
      <trkpt lat="43.77061" lon="1.58129">
        <ele>162.323434</ele>
        <time>2023-05-05T15:46:38.000Z</time>
      </trkpt>
      <trkpt lat="43.77061" lon="1.58129">
        <ele>162.323434</ele>
        <time>2023-05-05T15:46:39.000Z</time>
      </trkpt>
      <trkpt lat="43.7705" lon="1.58136">
        <ele>162.391891</ele>
        <time>2023-05-05T15:46:40.000Z</time>
      </trkpt>
      <trkpt lat="43.7703" lon="1.58146">
        <ele>162.515807</ele>
        <time>2023-05-05T15:46:42.000Z</time>
      </trkpt>
      <trkpt lat="43.77025" lon="1.5815">
        <ele>162.553296</ele>
        <time>2023-05-05T15:46:44.000Z</time>
      </trkpt>
      <trkpt lat="43.77025" lon="1.5815">
        <ele>162.553296</ele>
        <time>2023-05-05T15:46:44.000Z</time>
      </trkpt>
      <trkpt lat="43.77019" lon="1.58154">
        <ele>162.589025</ele>
        <time>2023-05-05T15:46:46.000Z</time>
      </trkpt>
      <trkpt lat="43.77014" lon="1.58158">
        <ele>162.622181</ele>
        <time>2023-05-05T15:46:47.000Z</time>
      </trkpt>
      <trkpt lat="43.77007" lon="1.58166">
        <ele>162.67576</ele>
        <time>2023-05-05T15:46:49.000Z</time>
      </trkpt>
      <trkpt lat="43.77007" lon="1.58166">
        <ele>162.67576</ele>
        <time>2023-05-05T15:46:50.000Z</time>
      </trkpt>
      <trkpt lat="43.76992" lon="1.58185">
        <ele>162.796033</ele>
        <time>2023-05-05T15:46:51.000Z</time>
      </trkpt>
      <trkpt lat="43.76981" lon="1.58194">
        <ele>162.872192</ele>
        <time>2023-05-05T15:46:53.000Z</time>
      </trkpt>
      <trkpt lat="43.76981" lon="1.58194">
        <ele>162.872192</ele>
        <time>2023-05-05T15:46:53.000Z</time>
      </trkpt>
      <trkpt lat="43.76978" lon="1.58195">
        <ele>162.890866</ele>
        <time>2023-05-05T15:46:54.000Z</time>
      </trkpt>
      <trkpt lat="43.76981" lon="1.58194">
        <ele>162.909175</ele>
        <time>2023-05-05T15:46:56.000Z</time>
      </trkpt>
      <trkpt lat="43.76979" lon="1.58196">
        <ele>162.921689</ele>
        <time>2023-05-05T15:46:57.000Z</time>
      </trkpt>
      <trkpt lat="43.76979" lon="1.58196">
        <ele>162.921689</ele>
        <time>2023-05-05T15:46:57.000Z</time>
      </trkpt>
      <trkpt lat="43.7697" lon="1.582">
        <ele>162.979617</ele>
        <time>2023-05-05T15:46:58.000Z</time>
      </trkpt>
      <trkpt lat="43.76963" lon="1.58202">
        <ele>163.016393</ele>
        <time>2023-05-05T15:46:59.000Z</time>
      </trkpt>
      <trkpt lat="43.76942" lon="1.58213">
        <ele>163.150208</ele>
        <time>2023-05-05T15:47:01.000Z</time>
      </trkpt>
      <trkpt lat="43.76942" lon="1.58213">
        <ele>163.150208</ele>
        <time>2023-05-05T15:47:02.000Z</time>
      </trkpt>
      <trkpt lat="43.76932" lon="1.5822">
        <ele>163.21633</ele>
        <time>2023-05-05T15:47:03.000Z</time>
      </trkpt>
      <trkpt lat="43.76918" lon="1.5823">
        <ele>163.309656</ele>
        <time>2023-05-05T15:47:05.000Z</time>
      </trkpt>
      <trkpt lat="43.76915" lon="1.58232">
        <ele>163.331166</ele>
        <time>2023-05-05T15:47:06.000Z</time>
      </trkpt>
      <trkpt lat="43.76911" lon="1.58234">
        <ele>163.355495</ele>
        <time>2023-05-05T15:47:07.000Z</time>
      </trkpt>
      <trkpt lat="43.76903" lon="1.58239">
        <ele>163.4045</ele>
        <time>2023-05-05T15:47:09.000Z</time>
      </trkpt>
      <trkpt lat="43.76888" lon="1.58252">
        <ele>163.509368</ele>
        <time>2023-05-05T15:47:11.000Z</time>
      </trkpt>
      <trkpt lat="43.76888" lon="1.58252">
        <ele>163.509368</ele>
        <time>2023-05-05T15:47:11.000Z</time>
      </trkpt>
      <trkpt lat="43.76885" lon="1.58256">
        <ele>163.532565</ele>
        <time>2023-05-05T15:47:12.000Z</time>
      </trkpt>
      <trkpt lat="43.7688" lon="1.58263">
        <ele>163.550157</ele>
        <time>2023-05-05T15:47:14.000Z</time>
      </trkpt>
      <trkpt lat="43.76874" lon="1.58267">
        <ele>163.567411</ele>
        <time>2023-05-05T15:47:16.000Z</time>
      </trkpt>
      <trkpt lat="43.76868" lon="1.58272">
        <ele>163.584119</ele>
        <time>2023-05-05T15:47:17.000Z</time>
      </trkpt>
      <trkpt lat="43.76861" lon="1.58277">
        <ele>163.604309</ele>
        <time>2023-05-05T15:47:18.000Z</time>
      </trkpt>
      <trkpt lat="43.76851" lon="1.58279">
        <ele>163.630056</ele>
        <time>2023-05-05T15:47:19.000Z</time>
      </trkpt>
      <trkpt lat="43.76851" lon="1.58279">
        <ele>163.630056</ele>
        <time>2023-05-05T15:47:19.000Z</time>
      </trkpt>
      <trkpt lat="43.76844" lon="1.58281">
        <ele>163.646393</ele>
        <time>2023-05-05T15:47:21.000Z</time>
      </trkpt>
      <trkpt lat="43.76828" lon="1.58291">
        <ele>163.688447</ele>
        <time>2023-05-05T15:47:23.000Z</time>
      </trkpt>
      <trkpt lat="43.76823" lon="1.58298">
        <ele>163.707182</ele>
        <time>2023-05-05T15:47:25.000Z</time>
      </trkpt>
      <trkpt lat="43.7682" lon="1.58302">
        <ele>163.717972</ele>
        <time>2023-05-05T15:47:26.000Z</time>
      </trkpt>
      <trkpt lat="43.76815" lon="1.58308">
        <ele>163.732685</ele>
        <time>2023-05-05T15:47:27.000Z</time>
      </trkpt>
      <trkpt lat="43.76807" lon="1.58314">
        <ele>163.757129</ele>
        <time>2023-05-05T15:47:29.000Z</time>
      </trkpt>
      <trkpt lat="43.76807" lon="1.58314">
        <ele>163.757129</ele>
        <time>2023-05-05T15:47:29.000Z</time>
      </trkpt>
      <trkpt lat="43.76802" lon="1.58319">
        <ele>163.771491</ele>
        <time>2023-05-05T15:47:30.000Z</time>
      </trkpt>
      <trkpt lat="43.76793" lon="1.58324">
        <ele>163.795861</ele>
        <time>2023-05-05T15:47:32.000Z</time>
      </trkpt>
      <trkpt lat="43.76787" lon="1.58325">
        <ele>163.80995</ele>
        <time>2023-05-05T15:47:33.000Z</time>
      </trkpt>
      <trkpt lat="43.76779" lon="1.58327">
        <ele>163.829044</ele>
        <time>2023-05-05T15:47:34.000Z</time>
      </trkpt>
      <trkpt lat="43.7677" lon="1.58331">
        <ele>163.853803</ele>
        <time>2023-05-05T15:47:36.000Z</time>
      </trkpt>
      <trkpt lat="43.76764" lon="1.58334">
        <ele>163.868862</ele>
        <time>2023-05-05T15:47:37.000Z</time>
      </trkpt>
      <trkpt lat="43.76756" lon="1.58342">
        <ele>163.893538</ele>
        <time>2023-05-05T15:47:39.000Z</time>
      </trkpt>
      <trkpt lat="43.76751" lon="1.58347">
        <ele>163.909162</ele>
        <time>2023-05-05T15:47:40.000Z</time>
      </trkpt>
      <trkpt lat="43.76746" lon="1.58353">
        <ele>163.924581</ele>
        <time>2023-05-05T15:47:41.000Z</time>
      </trkpt>
      <trkpt lat="43.76739" lon="1.58361">
        <ele>163.946935</ele>
        <time>2023-05-05T15:47:43.000Z</time>
      </trkpt>
      <trkpt lat="43.76734" lon="1.58366">
        <ele>163.961463</ele>
        <time>2023-05-05T15:47:44.000Z</time>
      </trkpt>
      <trkpt lat="43.76734" lon="1.58366">
        <ele>163.961463</ele>
        <time>2023-05-05T15:47:44.000Z</time>
      </trkpt>
      <trkpt lat="43.76728" lon="1.58372">
        <ele>163.97322</ele>
        <time>2023-05-05T15:47:45.000Z</time>
      </trkpt>
      <trkpt lat="43.76725" lon="1.58376">
        <ele>163.964058</ele>
        <time>2023-05-05T15:47:46.000Z</time>
      </trkpt>
      <trkpt lat="43.76723" lon="1.5838">
        <ele>163.955892</ele>
        <time>2023-05-05T15:47:48.000Z</time>
      </trkpt>
      <trkpt lat="43.76722" lon="1.58382">
        <ele>163.951687</ele>
        <time>2023-05-05T15:47:49.000Z</time>
      </trkpt>
      <trkpt lat="43.76721" lon="1.58387">
        <ele>163.943079</ele>
        <time>2023-05-05T15:47:50.000Z</time>
      </trkpt>
      <trkpt lat="43.76721" lon="1.58387">
        <ele>163.943079</ele>
        <time>2023-05-05T15:47:50.000Z</time>
      </trkpt>
      <trkpt lat="43.76722" lon="1.58393">
        <ele>163.933155</ele>
        <time>2023-05-05T15:47:52.000Z</time>
      </trkpt>
      <trkpt lat="43.76723" lon="1.58399">
        <ele>163.923318</ele>
        <time>2023-05-05T15:47:53.000Z</time>
      </trkpt>
      <trkpt lat="43.76726" lon="1.58405">
        <ele>163.911813</ele>
        <time>2023-05-05T15:47:54.000Z</time>
      </trkpt>
      <trkpt lat="43.76727" lon="1.5841">
        <ele>163.902744</ele>
        <time>2023-05-05T15:47:55.000Z</time>
      </trkpt>
      <trkpt lat="43.76727" lon="1.58408">
        <ele>163.899402</ele>
        <time>2023-05-05T15:47:57.000Z</time>
      </trkpt>
      <trkpt lat="43.76734" lon="1.58426">
        <ele>163.864825</ele>
        <time>2023-05-05T15:47:58.000Z</time>
      </trkpt>
      <trkpt lat="43.76739" lon="1.58439">
        <ele>163.841833</ele>
        <time>2023-05-05T15:47:59.000Z</time>
      </trkpt>
      <trkpt lat="43.76746" lon="1.58457">
        <ele>163.807976</ele>
        <time>2023-05-05T15:48:01.000Z</time>
      </trkpt>
      <trkpt lat="43.76749" lon="1.58466">
        <ele>163.791772</ele>
        <time>2023-05-05T15:48:02.000Z</time>
      </trkpt>
      <trkpt lat="43.76752" lon="1.58475">
        <ele>163.773866</ele>
        <time>2023-05-05T15:48:03.000Z</time>
      </trkpt>
      <trkpt lat="43.76756" lon="1.58484">
        <ele>163.75712</ele>
        <time>2023-05-05T15:48:04.000Z</time>
      </trkpt>
      <trkpt lat="43.76758" lon="1.58489">
        <ele>163.746936</ele>
        <time>2023-05-05T15:48:05.000Z</time>
      </trkpt>
      <trkpt lat="43.7676" lon="1.58494">
        <ele>163.738623</ele>
        <time>2023-05-05T15:48:07.000Z</time>
      </trkpt>
      <trkpt lat="43.76758" lon="1.58492">
        <ele>163.73327</ele>
        <time>2023-05-05T15:48:08.000Z</time>
      </trkpt>
      <trkpt lat="43.76765" lon="1.58508">
        <ele>163.701236</ele>
        <time>2023-05-05T15:48:09.000Z</time>
      </trkpt>
      <trkpt lat="43.76765" lon="1.58508">
        <ele>163.701236</ele>
        <time>2023-05-05T15:48:10.000Z</time>
      </trkpt>
      <trkpt lat="43.76774" lon="1.58525">
        <ele>163.667175</ele>
        <time>2023-05-05T15:48:11.000Z</time>
      </trkpt>
      <trkpt lat="43.76779" lon="1.58536">
        <ele>163.645132</ele>
        <time>2023-05-05T15:48:12.000Z</time>
      </trkpt>
      <trkpt lat="43.76779" lon="1.58536">
        <ele>163.645132</ele>
        <time>2023-05-05T15:48:12.000Z</time>
      </trkpt>
      <trkpt lat="43.76785" lon="1.58545">
        <ele>163.624803</ele>
        <time>2023-05-05T15:48:13.000Z</time>
      </trkpt>
      <trkpt lat="43.76794" lon="1.58561">
        <ele>163.591679</ele>
        <time>2023-05-05T15:48:15.000Z</time>
      </trkpt>
      <trkpt lat="43.76796" lon="1.58565">
        <ele>163.584201</ele>
        <time>2023-05-05T15:48:16.000Z</time>
      </trkpt>
      <trkpt lat="43.76799" lon="1.58569">
        <ele>163.57558</ele>
        <time>2023-05-05T15:48:17.000Z</time>
      </trkpt>
      <trkpt lat="43.76799" lon="1.58569">
        <ele>163.57558</ele>
        <time>2023-05-05T15:48:17.000Z</time>
      </trkpt>
      <trkpt lat="43.76801" lon="1.58573">
        <ele>163.56607</ele>
        <time>2023-05-05T15:48:19.000Z</time>
      </trkpt>
      <trkpt lat="43.768" lon="1.58573">
        <ele>163.552698</ele>
        <time>2023-05-05T15:48:20.000Z</time>
      </trkpt>
      <trkpt lat="43.76808" lon="1.58588">
        <ele>163.406403</ele>
        <time>2023-05-05T15:48:21.000Z</time>
      </trkpt>
      <trkpt lat="43.7682" lon="1.58618">
        <ele>163.134478</ele>
        <time>2023-05-05T15:48:23.000Z</time>
      </trkpt>
      <trkpt lat="43.76828" lon="1.58633">
        <ele>162.992052</ele>
        <time>2023-05-05T15:48:25.000Z</time>
      </trkpt>
      <trkpt lat="43.76828" lon="1.58633">
        <ele>162.992052</ele>
        <time>2023-05-05T15:48:26.000Z</time>
      </trkpt>
      <trkpt lat="43.76833" lon="1.58645">
        <ele>162.878099</ele>
        <time>2023-05-05T15:48:27.000Z</time>
      </trkpt>
      <trkpt lat="43.76835" lon="1.58651">
        <ele>162.827346</ele>
        <time>2023-05-05T15:48:29.000Z</time>
      </trkpt>
      <trkpt lat="43.76835" lon="1.58652">
        <ele>162.816317</ele>
        <time>2023-05-05T15:48:30.000Z</time>
      </trkpt>
      <trkpt lat="43.76838" lon="1.58658">
        <ele>162.763869</ele>
        <time>2023-05-05T15:48:32.000Z</time>
      </trkpt>
      <trkpt lat="43.76837" lon="1.58656">
        <ele>162.748453</ele>
        <time>2023-05-05T15:48:33.000Z</time>
      </trkpt>
      <trkpt lat="43.76837" lon="1.58656">
        <ele>162.748453</ele>
        <time>2023-05-05T15:48:33.000Z</time>
      </trkpt>
      <trkpt lat="43.76848" lon="1.58692">
        <ele>162.441954</ele>
        <time>2023-05-05T15:48:35.000Z</time>
      </trkpt>
      <trkpt lat="43.76851" lon="1.58702">
        <ele>162.359827</ele>
        <time>2023-05-05T15:48:37.000Z</time>
      </trkpt>
      <trkpt lat="43.76857" lon="1.58722">
        <ele>162.186772</ele>
        <time>2023-05-05T15:48:39.000Z</time>
      </trkpt>
      <trkpt lat="43.76857" lon="1.58722">
        <ele>162.186772</ele>
        <time>2023-05-05T15:48:39.000Z</time>
      </trkpt>
      <trkpt lat="43.76859" lon="1.58727">
        <ele>162.13945</ele>
        <time>2023-05-05T15:48:40.000Z</time>
      </trkpt>
      <trkpt lat="43.76859" lon="1.58729">
        <ele>162.128318</ele>
        <time>2023-05-05T15:48:42.000Z</time>
      </trkpt>
      <trkpt lat="43.76861" lon="1.58735">
        <ele>162.072001</ele>
        <time>2023-05-05T15:48:44.000Z</time>
      </trkpt>
      <trkpt lat="43.7687" lon="1.58756">
        <ele>161.886316</ele>
        <time>2023-05-05T15:48:45.000Z</time>
      </trkpt>
      <trkpt lat="43.7687" lon="1.58756">
        <ele>161.886316</ele>
        <time>2023-05-05T15:48:45.000Z</time>
      </trkpt>
      <trkpt lat="43.76873" lon="1.58764">
        <ele>161.80956</ele>
        <time>2023-05-05T15:48:46.000Z</time>
      </trkpt>
      <trkpt lat="43.76873" lon="1.58766">
        <ele>161.789077</ele>
        <time>2023-05-05T15:48:48.000Z</time>
      </trkpt>
      <trkpt lat="43.76873" lon="1.58766">
        <ele>161.789077</ele>
        <time>2023-05-05T15:48:49.000Z</time>
      </trkpt>
      <trkpt lat="43.76889" lon="1.58793">
        <ele>160.910941</ele>
        <time>2023-05-05T15:48:50.000Z</time>
      </trkpt>
      <trkpt lat="43.76889" lon="1.58793">
        <ele>160.910941</ele>
        <time>2023-05-05T15:48:50.000Z</time>
      </trkpt>
      <trkpt lat="43.76891" lon="1.588">
        <ele>160.433515</ele>
        <time>2023-05-05T15:48:51.000Z</time>
      </trkpt>
      <trkpt lat="43.76892" lon="1.58801">
        <ele>160.284565</ele>
        <time>2023-05-05T15:48:53.000Z</time>
      </trkpt>
      <trkpt lat="43.76892" lon="1.58801">
        <ele>160.284565</ele>
        <time>2023-05-05T15:48:53.000Z</time>
      </trkpt>
      <trkpt lat="43.76893" lon="1.5881">
        <ele>159.695519</ele>
        <time>2023-05-05T15:48:54.000Z</time>
      </trkpt>
      <trkpt lat="43.76893" lon="1.5881">
        <ele>159.695519</ele>
        <time>2023-05-05T15:48:54.000Z</time>
      </trkpt>
      <trkpt lat="43.76893" lon="1.58816">
        <ele>159.286902</ele>
        <time>2023-05-05T15:48:55.000Z</time>
      </trkpt>
      <trkpt lat="43.76893" lon="1.58816">
        <ele>159.286902</ele>
        <time>2023-05-05T15:48:55.000Z</time>
      </trkpt>
      <trkpt lat="43.76893" lon="1.58821">
        <ele>158.988483</ele>
        <time>2023-05-05T15:48:56.000Z</time>
      </trkpt>
      <trkpt lat="43.76893" lon="1.58821">
        <ele>158.988483</ele>
        <time>2023-05-05T15:48:56.000Z</time>
      </trkpt>
      <trkpt lat="43.76893" lon="1.58824">
        <ele>158.781729</ele>
        <time>2023-05-05T15:48:57.000Z</time>
      </trkpt>
      <trkpt lat="43.76893" lon="1.58824">
        <ele>158.781729</ele>
        <time>2023-05-05T15:48:57.000Z</time>
      </trkpt>
      <trkpt lat="43.76895" lon="1.58827">
        <ele>158.523912</ele>
        <time>2023-05-05T15:48:58.000Z</time>
      </trkpt>
      <trkpt lat="43.76895" lon="1.58827">
        <ele>158.523912</ele>
        <time>2023-05-05T15:48:58.000Z</time>
      </trkpt>
      <trkpt lat="43.769" lon="1.58829">
        <ele>158.094424</ele>
        <time>2023-05-05T15:49:00.000Z</time>
      </trkpt>
      <trkpt lat="43.769" lon="1.58829">
        <ele>158.094424</ele>
        <time>2023-05-05T15:49:00.000Z</time>
      </trkpt>
      <trkpt lat="43.76902" lon="1.5883">
        <ele>157.895463</ele>
        <time>2023-05-05T15:49:01.000Z</time>
      </trkpt>
      <trkpt lat="43.76902" lon="1.5883">
        <ele>157.895463</ele>
        <time>2023-05-05T15:49:01.000Z</time>
      </trkpt>
      <trkpt lat="43.76905" lon="1.58832">
        <ele>157.60914</ele>
        <time>2023-05-05T15:49:02.000Z</time>
      </trkpt>
      <trkpt lat="43.76905" lon="1.58832">
        <ele>157.60914</ele>
        <time>2023-05-05T15:49:02.000Z</time>
      </trkpt>
      <trkpt lat="43.76906" lon="1.5883">
        <ele>157.447295</ele>
        <time>2023-05-05T15:49:03.000Z</time>
      </trkpt>
      <trkpt lat="43.76901" lon="1.5885">
        <ele>156.11641</ele>
        <time>2023-05-05T15:49:05.000Z</time>
      </trkpt>
      <trkpt lat="43.76901" lon="1.5885">
        <ele>156.11641</ele>
        <time>2023-05-05T15:49:05.000Z</time>
      </trkpt>
      <trkpt lat="43.76901" lon="1.5885">
        <ele>156.11641</ele>
        <time>2023-05-05T15:49:06.000Z</time>
      </trkpt>
      <trkpt lat="43.76893" lon="1.58866">
        <ele>154.780696</ele>
        <time>2023-05-05T15:49:07.000Z</time>
      </trkpt>
      <trkpt lat="43.76893" lon="1.58866">
        <ele>154.780696</ele>
        <time>2023-05-05T15:49:07.000Z</time>
      </trkpt>
      <trkpt lat="43.76887" lon="1.58875">
        <ele>154.058882</ele>
        <time>2023-05-05T15:49:08.000Z</time>
      </trkpt>
      <trkpt lat="43.76887" lon="1.58875">
        <ele>154.058882</ele>
        <time>2023-05-05T15:49:08.000Z</time>
      </trkpt>
      <trkpt lat="43.7688" lon="1.58882">
        <ele>153.285087</ele>
        <time>2023-05-05T15:49:09.000Z</time>
      </trkpt>
      <trkpt lat="43.7688" lon="1.58882">
        <ele>153.285087</ele>
        <time>2023-05-05T15:49:09.000Z</time>
      </trkpt>
      <trkpt lat="43.7688" lon="1.58882">
        <ele>153.285087</ele>
        <time>2023-05-05T15:49:10.000Z</time>
      </trkpt>
      <trkpt lat="43.76868" lon="1.58891">
        <ele>152.060243</ele>
        <time>2023-05-05T15:49:11.000Z</time>
      </trkpt>
      <trkpt lat="43.76868" lon="1.58891">
        <ele>152.060243</ele>
        <time>2023-05-05T15:49:11.000Z</time>
      </trkpt>
      <trkpt lat="43.76868" lon="1.58891">
        <ele>152.060243</ele>
        <time>2023-05-05T15:49:12.000Z</time>
      </trkpt>
      <trkpt lat="43.76872" lon="1.58891">
        <ele>151.754944</ele>
        <time>2023-05-05T15:49:13.000Z</time>
      </trkpt>
      <trkpt lat="43.76872" lon="1.58891">
        <ele>151.754944</ele>
        <time>2023-05-05T15:49:13.000Z</time>
      </trkpt>
      <trkpt lat="43.76862" lon="1.58903">
        <ele>150.58202</ele>
        <time>2023-05-05T15:49:14.000Z</time>
      </trkpt>
      <trkpt lat="43.76862" lon="1.58903">
        <ele>150.58202</ele>
        <time>2023-05-05T15:49:14.000Z</time>
      </trkpt>
      <trkpt lat="43.76862" lon="1.58903">
        <ele>150.58202</ele>
        <time>2023-05-05T15:49:15.000Z</time>
      </trkpt>
      <trkpt lat="43.76852" lon="1.58917">
        <ele>149.343971</ele>
        <time>2023-05-05T15:49:16.000Z</time>
      </trkpt>
      <trkpt lat="43.76852" lon="1.58917">
        <ele>149.343971</ele>
        <time>2023-05-05T15:49:16.000Z</time>
      </trkpt>
      <trkpt lat="43.76852" lon="1.58917">
        <ele>149.343971</ele>
        <time>2023-05-05T15:49:17.000Z</time>
      </trkpt>
      <trkpt lat="43.76842" lon="1.58929">
        <ele>148.13964</ele>
        <time>2023-05-05T15:49:18.000Z</time>
      </trkpt>
      <trkpt lat="43.76842" lon="1.58929">
        <ele>148.13964</ele>
        <time>2023-05-05T15:49:18.000Z</time>
      </trkpt>
      <trkpt lat="43.76842" lon="1.58929">
        <ele>148.13964</ele>
        <time>2023-05-05T15:49:19.000Z</time>
      </trkpt>
      <trkpt lat="43.76827" lon="1.58952">
        <ele>146.162088</ele>
        <time>2023-05-05T15:49:20.000Z</time>
      </trkpt>
      <trkpt lat="43.76827" lon="1.58952">
        <ele>146.162088</ele>
        <time>2023-05-05T15:49:20.000Z</time>
      </trkpt>
      <trkpt lat="43.76826" lon="1.58956">
        <ele>145.887931</ele>
        <time>2023-05-05T15:49:21.000Z</time>
      </trkpt>
      <trkpt lat="43.76826" lon="1.58956">
        <ele>145.887931</ele>
        <time>2023-05-05T15:49:21.000Z</time>
      </trkpt>
      <trkpt lat="43.76825" lon="1.58959">
        <ele>145.647213</ele>
        <time>2023-05-05T15:49:22.000Z</time>
      </trkpt>
      <trkpt lat="43.76825" lon="1.58959">
        <ele>145.647213</ele>
        <time>2023-05-05T15:49:22.000Z</time>
      </trkpt>
      <trkpt lat="43.76826" lon="1.58961">
        <ele>145.479632</ele>
        <time>2023-05-05T15:49:24.000Z</time>
      </trkpt>
      <trkpt lat="43.76827" lon="1.58965">
        <ele>145.338015</ele>
        <time>2023-05-05T15:49:25.000Z</time>
      </trkpt>
      <trkpt lat="43.76827" lon="1.58965">
        <ele>145.338015</ele>
        <time>2023-05-05T15:49:25.000Z</time>
      </trkpt>
      <trkpt lat="43.76827" lon="1.58965">
        <ele>145.338015</ele>
        <time>2023-05-05T15:49:26.000Z</time>
      </trkpt>
      <trkpt lat="43.7684" lon="1.58972">
        <ele>144.605394</ele>
        <time>2023-05-05T15:49:27.000Z</time>
      </trkpt>
      <trkpt lat="43.7684" lon="1.58972">
        <ele>144.605394</ele>
        <time>2023-05-05T15:49:27.000Z</time>
      </trkpt>
      <trkpt lat="43.76844" lon="1.58973">
        <ele>144.373143</ele>
        <time>2023-05-05T15:49:28.000Z</time>
      </trkpt>
      <trkpt lat="43.76844" lon="1.58973">
        <ele>144.373143</ele>
        <time>2023-05-05T15:49:28.000Z</time>
      </trkpt>
      <trkpt lat="43.76844" lon="1.58973">
        <ele>144.373143</ele>
        <time>2023-05-05T15:49:29.000Z</time>
      </trkpt>
      <trkpt lat="43.76849" lon="1.58974">
        <ele>144.107317</ele>
        <time>2023-05-05T15:49:30.000Z</time>
      </trkpt>
      <trkpt lat="43.76849" lon="1.58974">
        <ele>144.107317</ele>
        <time>2023-05-05T15:49:30.000Z</time>
      </trkpt>
      <trkpt lat="43.76852" lon="1.58974">
        <ele>143.963958</ele>
        <time>2023-05-05T15:49:31.000Z</time>
      </trkpt>
      <trkpt lat="43.76852" lon="1.58974">
        <ele>143.963958</ele>
        <time>2023-05-05T15:49:31.000Z</time>
      </trkpt>
      <trkpt lat="43.76858" lon="1.58974">
        <ele>143.640189</ele>
        <time>2023-05-05T15:49:32.000Z</time>
      </trkpt>
      <trkpt lat="43.76858" lon="1.58974">
        <ele>143.640189</ele>
        <time>2023-05-05T15:49:32.000Z</time>
      </trkpt>
      <trkpt lat="43.76864" lon="1.58974">
        <ele>143.300476</ele>
        <time>2023-05-05T15:49:33.000Z</time>
      </trkpt>
      <trkpt lat="43.76864" lon="1.58974">
        <ele>143.300476</ele>
        <time>2023-05-05T15:49:33.000Z</time>
      </trkpt>
      <trkpt lat="43.76864" lon="1.58974">
        <ele>143.300476</ele>
        <time>2023-05-05T15:49:34.000Z</time>
      </trkpt>
      <trkpt lat="43.76873" lon="1.58973">
        <ele>142.833148</ele>
        <time>2023-05-05T15:49:35.000Z</time>
      </trkpt>
      <trkpt lat="43.76873" lon="1.58973">
        <ele>142.833148</ele>
        <time>2023-05-05T15:49:35.000Z</time>
      </trkpt>
      <trkpt lat="43.76873" lon="1.58973">
        <ele>142.833148</ele>
        <time>2023-05-05T15:49:36.000Z</time>
      </trkpt>
      <trkpt lat="43.76883" lon="1.58972">
        <ele>142.306291</ele>
        <time>2023-05-05T15:49:37.000Z</time>
      </trkpt>
      <trkpt lat="43.76883" lon="1.58972">
        <ele>142.306291</ele>
        <time>2023-05-05T15:49:37.000Z</time>
      </trkpt>
      <trkpt lat="43.76891" lon="1.58971">
        <ele>141.895806</ele>
        <time>2023-05-05T15:49:38.000Z</time>
      </trkpt>
      <trkpt lat="43.76891" lon="1.58971">
        <ele>141.895806</ele>
        <time>2023-05-05T15:49:38.000Z</time>
      </trkpt>
      <trkpt lat="43.76891" lon="1.58971">
        <ele>141.895806</ele>
        <time>2023-05-05T15:49:39.000Z</time>
      </trkpt>
      <trkpt lat="43.76903" lon="1.58968">
        <ele>141.238139</ele>
        <time>2023-05-05T15:49:40.000Z</time>
      </trkpt>
      <trkpt lat="43.76903" lon="1.58968">
        <ele>141.238139</ele>
        <time>2023-05-05T15:49:40.000Z</time>
      </trkpt>
      <trkpt lat="43.7691" lon="1.58967">
        <ele>140.872043</ele>
        <time>2023-05-05T15:49:41.000Z</time>
      </trkpt>
      <trkpt lat="43.7691" lon="1.58967">
        <ele>140.872043</ele>
        <time>2023-05-05T15:49:41.000Z</time>
      </trkpt>
      <trkpt lat="43.7691" lon="1.58967">
        <ele>140.872043</ele>
        <time>2023-05-05T15:49:42.000Z</time>
      </trkpt>
      <trkpt lat="43.76933" lon="1.58962">
        <ele>139.620592</ele>
        <time>2023-05-05T15:49:43.000Z</time>
      </trkpt>
      <trkpt lat="43.76933" lon="1.58962">
        <ele>139.620592</ele>
        <time>2023-05-05T15:49:43.000Z</time>
      </trkpt>
      <trkpt lat="43.76933" lon="1.58962">
        <ele>139.620592</ele>
        <time>2023-05-05T15:49:44.000Z</time>
      </trkpt>
      <trkpt lat="43.76941" lon="1.58962">
        <ele>139.217208</ele>
        <time>2023-05-05T15:49:45.000Z</time>
      </trkpt>
      <trkpt lat="43.76941" lon="1.58962">
        <ele>139.217208</ele>
        <time>2023-05-05T15:49:45.000Z</time>
      </trkpt>
      <trkpt lat="43.76941" lon="1.58962">
        <ele>139.217208</ele>
        <time>2023-05-05T15:49:46.000Z</time>
      </trkpt>
      <trkpt lat="43.76947" lon="1.58963">
        <ele>138.868629</ele>
        <time>2023-05-05T15:49:47.000Z</time>
      </trkpt>
      <trkpt lat="43.76947" lon="1.58963">
        <ele>138.868629</ele>
        <time>2023-05-05T15:49:47.000Z</time>
      </trkpt>
      <trkpt lat="43.76954" lon="1.58965">
        <ele>138.518221</ele>
        <time>2023-05-05T15:49:47.000Z</time>
      </trkpt>
      <trkpt lat="43.76954" lon="1.58965">
        <ele>138.518221</ele>
        <time>2023-05-05T15:49:47.000Z</time>
      </trkpt>
      <trkpt lat="43.76962" lon="1.58967">
        <ele>138.038974</ele>
        <time>2023-05-05T15:49:49.000Z</time>
      </trkpt>
      <trkpt lat="43.76962" lon="1.58967">
        <ele>138.038974</ele>
        <time>2023-05-05T15:49:49.000Z</time>
      </trkpt>
      <trkpt lat="43.76971" lon="1.5897">
        <ele>137.582948</ele>
        <time>2023-05-05T15:49:49.000Z</time>
      </trkpt>
      <trkpt lat="43.76971" lon="1.5897">
        <ele>137.582948</ele>
        <time>2023-05-05T15:49:49.000Z</time>
      </trkpt>
      <trkpt lat="43.76971" lon="1.5897">
        <ele>137.582948</ele>
        <time>2023-05-05T15:49:51.000Z</time>
      </trkpt>
      <trkpt lat="43.76982" lon="1.58973">
        <ele>136.98389</ele>
        <time>2023-05-05T15:49:51.000Z</time>
      </trkpt>
      <trkpt lat="43.76982" lon="1.58973">
        <ele>136.98389</ele>
        <time>2023-05-05T15:49:51.000Z</time>
      </trkpt>
      <trkpt lat="43.76989" lon="1.58976">
        <ele>136.604343</ele>
        <time>2023-05-05T15:49:53.000Z</time>
      </trkpt>
      <trkpt lat="43.76989" lon="1.58976">
        <ele>136.604343</ele>
        <time>2023-05-05T15:49:53.000Z</time>
      </trkpt>
      <trkpt lat="43.76989" lon="1.58976">
        <ele>136.604343</ele>
        <time>2023-05-05T15:49:54.000Z</time>
      </trkpt>
      <trkpt lat="43.77" lon="1.58979">
        <ele>135.986962</ele>
        <time>2023-05-05T15:49:55.000Z</time>
      </trkpt>
      <trkpt lat="43.77" lon="1.58979">
        <ele>135.986962</ele>
        <time>2023-05-05T15:49:55.000Z</time>
      </trkpt>
      <trkpt lat="43.77008" lon="1.58981">
        <ele>135.914148</ele>
        <time>2023-05-05T15:49:56.000Z</time>
      </trkpt>
      <trkpt lat="43.77008" lon="1.58981">
        <ele>135.914148</ele>
        <time>2023-05-05T15:49:56.000Z</time>
      </trkpt>
      <trkpt lat="43.77008" lon="1.58981">
        <ele>135.914148</ele>
        <time>2023-05-05T15:49:57.000Z</time>
      </trkpt>
      <trkpt lat="43.7702" lon="1.58984">
        <ele>135.829369</ele>
        <time>2023-05-05T15:49:58.000Z</time>
      </trkpt>
      <trkpt lat="43.77029" lon="1.58987">
        <ele>135.766352</ele>
        <time>2023-05-05T15:49:59.000Z</time>
      </trkpt>
      <trkpt lat="43.77039" lon="1.58989">
        <ele>135.697294</ele>
        <time>2023-05-05T15:50:00.000Z</time>
      </trkpt>
      <trkpt lat="43.77039" lon="1.58989">
        <ele>135.697294</ele>
        <time>2023-05-05T15:50:00.000Z</time>
      </trkpt>
      <trkpt lat="43.77051" lon="1.58991">
        <ele>135.616522</ele>
        <time>2023-05-05T15:50:02.000Z</time>
      </trkpt>
      <trkpt lat="43.77051" lon="1.58991">
        <ele>135.616522</ele>
        <time>2023-05-05T15:50:03.000Z</time>
      </trkpt>
      <trkpt lat="43.77057" lon="1.58987">
        <ele>135.573843</ele>
        <time>2023-05-05T15:50:04.000Z</time>
      </trkpt>
      <trkpt lat="43.77061" lon="1.58979">
        <ele>135.524682</ele>
        <time>2023-05-05T15:50:06.000Z</time>
      </trkpt>
      <trkpt lat="43.77061" lon="1.58979">
        <ele>135.524682</ele>
        <time>2023-05-05T15:50:06.000Z</time>
      </trkpt>
      <trkpt lat="43.77065" lon="1.58961">
        <ele>135.432561</ele>
        <time>2023-05-05T15:50:08.000Z</time>
      </trkpt>
      <trkpt lat="43.77066" lon="1.58958">
        <ele>135.413182</ele>
        <time>2023-05-05T15:50:09.000Z</time>
      </trkpt>
      <trkpt lat="43.77066" lon="1.5895">
        <ele>135.373539</ele>
        <time>2023-05-05T15:50:11.000Z</time>
      </trkpt>
      <trkpt lat="43.77066" lon="1.5895">
        <ele>135.373539</ele>
        <time>2023-05-05T15:50:11.000Z</time>
      </trkpt>
      <trkpt lat="43.77066" lon="1.58948">
        <ele>135.364685</ele>
        <time>2023-05-05T15:50:12.000Z</time>
      </trkpt>
      <trkpt lat="43.77069" lon="1.58935">
        <ele>135.30218</ele>
        <time>2023-05-05T15:50:14.000Z</time>
      </trkpt>
      <trkpt lat="43.77068" lon="1.58936">
        <ele>135.299081</ele>
        <time>2023-05-05T15:50:15.000Z</time>
      </trkpt>
      <trkpt lat="43.7707" lon="1.5893">
        <ele>135.270345</ele>
        <time>2023-05-05T15:50:17.000Z</time>
      </trkpt>
      <trkpt lat="43.77075" lon="1.58904">
        <ele>135.137148</ele>
        <time>2023-05-05T15:50:18.000Z</time>
      </trkpt>
      <trkpt lat="43.77078" lon="1.58894">
        <ele>135.08278</ele>
        <time>2023-05-05T15:50:19.000Z</time>
      </trkpt>
      <trkpt lat="43.77079" lon="1.58888">
        <ele>135.053397</ele>
        <time>2023-05-05T15:50:20.000Z</time>
      </trkpt>
      <trkpt lat="43.77078" lon="1.58891">
        <ele>135.038151</ele>
        <time>2023-05-05T15:50:22.000Z</time>
      </trkpt>
      <trkpt lat="43.77078" lon="1.58891">
        <ele>135.038151</ele>
        <time>2023-05-05T15:50:22.000Z</time>
      </trkpt>
      <trkpt lat="43.77082" lon="1.58876">
        <ele>134.959924</ele>
        <time>2023-05-05T15:50:23.000Z</time>
      </trkpt>
      <trkpt lat="43.77083" lon="1.58873">
        <ele>134.9451</ele>
        <time>2023-05-05T15:50:23.000Z</time>
      </trkpt>
      <trkpt lat="43.77088" lon="1.58858">
        <ele>134.865384</ele>
        <time>2023-05-05T15:50:25.000Z</time>
      </trkpt>
      <trkpt lat="43.7709" lon="1.5885">
        <ele>134.82119</ele>
        <time>2023-05-05T15:50:26.000Z</time>
      </trkpt>
      <trkpt lat="43.77092" lon="1.58842">
        <ele>134.780198</ele>
        <time>2023-05-05T15:50:27.000Z</time>
      </trkpt>
      <trkpt lat="43.77095" lon="1.58834">
        <ele>134.770365</ele>
        <time>2023-05-05T15:50:28.000Z</time>
      </trkpt>
      <trkpt lat="43.77095" lon="1.58834">
        <ele>134.770365</ele>
        <time>2023-05-05T15:50:28.000Z</time>
      </trkpt>
      <trkpt lat="43.77097" lon="1.58827">
        <ele>135.057758</ele>
        <time>2023-05-05T15:50:29.000Z</time>
      </trkpt>
      <trkpt lat="43.771" lon="1.58819">
        <ele>135.416573</ele>
        <time>2023-05-05T15:50:31.000Z</time>
      </trkpt>
      <trkpt lat="43.77102" lon="1.58811">
        <ele>135.741377</ele>
        <time>2023-05-05T15:50:32.000Z</time>
      </trkpt>
      <trkpt lat="43.77102" lon="1.58811">
        <ele>135.741377</ele>
        <time>2023-05-05T15:50:32.000Z</time>
      </trkpt>
      <trkpt lat="43.77104" lon="1.58804">
        <ele>136.043527</ele>
        <time>2023-05-05T15:50:33.000Z</time>
      </trkpt>
      <trkpt lat="43.77105" lon="1.58798">
        <ele>136.271577</ele>
        <time>2023-05-05T15:50:34.000Z</time>
      </trkpt>
      <trkpt lat="43.77108" lon="1.58791">
        <ele>136.598373</ele>
        <time>2023-05-05T15:50:35.000Z</time>
      </trkpt>
      <trkpt lat="43.77108" lon="1.58791">
        <ele>136.598373</ele>
        <time>2023-05-05T15:50:35.000Z</time>
      </trkpt>
      <trkpt lat="43.7711" lon="1.58785">
        <ele>136.883681</ele>
        <time>2023-05-05T15:50:37.000Z</time>
      </trkpt>
      <trkpt lat="43.7711" lon="1.58785">
        <ele>136.883681</ele>
        <time>2023-05-05T15:50:37.000Z</time>
      </trkpt>
      <trkpt lat="43.77113" lon="1.58779">
        <ele>137.159001</ele>
        <time>2023-05-05T15:50:38.000Z</time>
      </trkpt>
      <trkpt lat="43.77116" lon="1.58771">
        <ele>137.514747</ele>
        <time>2023-05-05T15:50:39.000Z</time>
      </trkpt>
      <trkpt lat="43.77119" lon="1.58765">
        <ele>137.815496</ele>
        <time>2023-05-05T15:50:41.000Z</time>
      </trkpt>
      <trkpt lat="43.77119" lon="1.58765">
        <ele>137.815496</ele>
        <time>2023-05-05T15:50:41.000Z</time>
      </trkpt>
      <trkpt lat="43.77122" lon="1.58758">
        <ele>138.117922</ele>
        <time>2023-05-05T15:50:42.000Z</time>
      </trkpt>
      <trkpt lat="43.77122" lon="1.58758">
        <ele>138.117922</ele>
        <time>2023-05-05T15:50:42.000Z</time>
      </trkpt>
      <trkpt lat="43.77125" lon="1.5875">
        <ele>138.47578</ele>
        <time>2023-05-05T15:50:43.000Z</time>
      </trkpt>
      <trkpt lat="43.77127" lon="1.58744">
        <ele>138.741253</ele>
        <time>2023-05-05T15:50:44.000Z</time>
      </trkpt>
      <trkpt lat="43.77127" lon="1.58744">
        <ele>138.741253</ele>
        <time>2023-05-05T15:50:44.000Z</time>
      </trkpt>
      <trkpt lat="43.7713" lon="1.58735">
        <ele>139.094246</ele>
        <time>2023-05-05T15:50:45.000Z</time>
      </trkpt>
      <trkpt lat="43.77132" lon="1.5873">
        <ele>139.355061</ele>
        <time>2023-05-05T15:50:46.000Z</time>
      </trkpt>
      <trkpt lat="43.77132" lon="1.5873">
        <ele>139.355061</ele>
        <time>2023-05-05T15:50:46.000Z</time>
      </trkpt>
      <trkpt lat="43.77135" lon="1.58722">
        <ele>139.70945</ele>
        <time>2023-05-05T15:50:48.000Z</time>
      </trkpt>
      <trkpt lat="43.77135" lon="1.58722">
        <ele>139.70945</ele>
        <time>2023-05-05T15:50:48.000Z</time>
      </trkpt>
      <trkpt lat="43.77137" lon="1.58715">
        <ele>139.9877</ele>
        <time>2023-05-05T15:50:49.000Z</time>
      </trkpt>
      <trkpt lat="43.77137" lon="1.58715">
        <ele>139.9877</ele>
        <time>2023-05-05T15:50:49.000Z</time>
      </trkpt>
      <trkpt lat="43.7714" lon="1.58708">
        <ele>140.315348</ele>
        <time>2023-05-05T15:50:50.000Z</time>
      </trkpt>
      <trkpt lat="43.7714" lon="1.58708">
        <ele>140.315348</ele>
        <time>2023-05-05T15:50:50.000Z</time>
      </trkpt>
      <trkpt lat="43.77144" lon="1.58701">
        <ele>140.66402</ele>
        <time>2023-05-05T15:50:51.000Z</time>
      </trkpt>
      <trkpt lat="43.77144" lon="1.58701">
        <ele>140.66402</ele>
        <time>2023-05-05T15:50:51.000Z</time>
      </trkpt>
      <trkpt lat="43.77147" lon="1.58695">
        <ele>140.929759</ele>
        <time>2023-05-05T15:50:52.000Z</time>
      </trkpt>
      <trkpt lat="43.77147" lon="1.58695">
        <ele>140.929759</ele>
        <time>2023-05-05T15:50:52.000Z</time>
      </trkpt>
      <trkpt lat="43.77149" lon="1.58689">
        <ele>141.211767</ele>
        <time>2023-05-05T15:50:54.000Z</time>
      </trkpt>
      <trkpt lat="43.77149" lon="1.58689">
        <ele>141.211767</ele>
        <time>2023-05-05T15:50:54.000Z</time>
      </trkpt>
      <trkpt lat="43.77152" lon="1.58684">
        <ele>141.452121</ele>
        <time>2023-05-05T15:50:55.000Z</time>
      </trkpt>
      <trkpt lat="43.77152" lon="1.58684">
        <ele>141.452121</ele>
        <time>2023-05-05T15:50:55.000Z</time>
      </trkpt>
      <trkpt lat="43.77155" lon="1.58677">
        <ele>141.762854</ele>
        <time>2023-05-05T15:50:56.000Z</time>
      </trkpt>
      <trkpt lat="43.77155" lon="1.58677">
        <ele>141.762854</ele>
        <time>2023-05-05T15:50:56.000Z</time>
      </trkpt>
      <trkpt lat="43.77157" lon="1.58672">
        <ele>142.008943</ele>
        <time>2023-05-05T15:50:58.000Z</time>
      </trkpt>
      <trkpt lat="43.77157" lon="1.58672">
        <ele>142.008943</ele>
        <time>2023-05-05T15:50:58.000Z</time>
      </trkpt>
      <trkpt lat="43.77159" lon="1.58667">
        <ele>142.22125</ele>
        <time>2023-05-05T15:50:59.000Z</time>
      </trkpt>
      <trkpt lat="43.77159" lon="1.58667">
        <ele>142.22125</ele>
        <time>2023-05-05T15:50:59.000Z</time>
      </trkpt>
      <trkpt lat="43.77161" lon="1.58663">
        <ele>142.438554</ele>
        <time>2023-05-05T15:51:00.000Z</time>
      </trkpt>
      <trkpt lat="43.77161" lon="1.58663">
        <ele>142.438554</ele>
        <time>2023-05-05T15:51:00.000Z</time>
      </trkpt>
      <trkpt lat="43.77164" lon="1.58658">
        <ele>142.69421</ele>
        <time>2023-05-05T15:51:01.000Z</time>
      </trkpt>
      <trkpt lat="43.77164" lon="1.58658">
        <ele>142.69421</ele>
        <time>2023-05-05T15:51:01.000Z</time>
      </trkpt>
      <trkpt lat="43.77166" lon="1.58653">
        <ele>142.927878</ele>
        <time>2023-05-05T15:51:02.000Z</time>
      </trkpt>
      <trkpt lat="43.77166" lon="1.58653">
        <ele>142.927878</ele>
        <time>2023-05-05T15:51:02.000Z</time>
      </trkpt>
      <trkpt lat="43.77169" lon="1.58648">
        <ele>143.148411</ele>
        <time>2023-05-05T15:51:03.000Z</time>
      </trkpt>
      <trkpt lat="43.77169" lon="1.58648">
        <ele>143.148411</ele>
        <time>2023-05-05T15:51:03.000Z</time>
      </trkpt>
      <trkpt lat="43.77171" lon="1.58643">
        <ele>143.364165</ele>
        <time>2023-05-05T15:51:05.000Z</time>
      </trkpt>
      <trkpt lat="43.77171" lon="1.58643">
        <ele>143.364165</ele>
        <time>2023-05-05T15:51:05.000Z</time>
      </trkpt>
      <trkpt lat="43.77173" lon="1.5864">
        <ele>143.536754</ele>
        <time>2023-05-05T15:51:06.000Z</time>
      </trkpt>
      <trkpt lat="43.77173" lon="1.5864">
        <ele>143.536754</ele>
        <time>2023-05-05T15:51:06.000Z</time>
      </trkpt>
      <trkpt lat="43.77175" lon="1.58635">
        <ele>143.767107</ele>
        <time>2023-05-05T15:51:07.000Z</time>
      </trkpt>
      <trkpt lat="43.77175" lon="1.58635">
        <ele>143.767107</ele>
        <time>2023-05-05T15:51:07.000Z</time>
      </trkpt>
      <trkpt lat="43.77178" lon="1.58629">
        <ele>144.035653</ele>
        <time>2023-05-05T15:51:08.000Z</time>
      </trkpt>
      <trkpt lat="43.77178" lon="1.58629">
        <ele>144.035653</ele>
        <time>2023-05-05T15:51:08.000Z</time>
      </trkpt>
      <trkpt lat="43.77183" lon="1.5862">
        <ele>144.499005</ele>
        <time>2023-05-05T15:51:10.000Z</time>
      </trkpt>
      <trkpt lat="43.77183" lon="1.5862">
        <ele>144.499005</ele>
        <time>2023-05-05T15:51:10.000Z</time>
      </trkpt>
      <trkpt lat="43.77186" lon="1.58613">
        <ele>144.996281</ele>
        <time>2023-05-05T15:51:11.000Z</time>
      </trkpt>
      <trkpt lat="43.77186" lon="1.58613">
        <ele>144.996281</ele>
        <time>2023-05-05T15:51:11.000Z</time>
      </trkpt>
      <trkpt lat="43.77189" lon="1.58608">
        <ele>145.430887</ele>
        <time>2023-05-05T15:51:13.000Z</time>
      </trkpt>
      <trkpt lat="43.77189" lon="1.58608">
        <ele>145.430887</ele>
        <time>2023-05-05T15:51:13.000Z</time>
      </trkpt>
      <trkpt lat="43.77191" lon="1.58603">
        <ele>145.7918</ele>
        <time>2023-05-05T15:51:14.000Z</time>
      </trkpt>
      <trkpt lat="43.77191" lon="1.58603">
        <ele>145.7918</ele>
        <time>2023-05-05T15:51:14.000Z</time>
      </trkpt>
      <trkpt lat="43.77193" lon="1.58598">
        <ele>146.218547</ele>
        <time>2023-05-05T15:51:15.000Z</time>
      </trkpt>
      <trkpt lat="43.77193" lon="1.58598">
        <ele>146.218547</ele>
        <time>2023-05-05T15:51:15.000Z</time>
      </trkpt>
      <trkpt lat="43.77195" lon="1.58591">
        <ele>146.685589</ele>
        <time>2023-05-05T15:51:16.000Z</time>
      </trkpt>
      <trkpt lat="43.77195" lon="1.58591">
        <ele>146.685589</ele>
        <time>2023-05-05T15:51:16.000Z</time>
      </trkpt>
      <trkpt lat="43.77196" lon="1.58586">
        <ele>147.048656</ele>
        <time>2023-05-05T15:51:17.000Z</time>
      </trkpt>
      <trkpt lat="43.77196" lon="1.58586">
        <ele>147.048656</ele>
        <time>2023-05-05T15:51:17.000Z</time>
      </trkpt>
      <trkpt lat="43.77198" lon="1.58581">
        <ele>147.452185</ele>
        <time>2023-05-05T15:51:18.000Z</time>
      </trkpt>
      <trkpt lat="43.77198" lon="1.58581">
        <ele>147.452185</ele>
        <time>2023-05-05T15:51:18.000Z</time>
      </trkpt>
      <trkpt lat="43.77199" lon="1.58574">
        <ele>147.879968</ele>
        <time>2023-05-05T15:51:20.000Z</time>
      </trkpt>
      <trkpt lat="43.77199" lon="1.58574">
        <ele>147.879968</ele>
        <time>2023-05-05T15:51:20.000Z</time>
      </trkpt>
      <trkpt lat="43.772" lon="1.58569">
        <ele>148.281774</ele>
        <time>2023-05-05T15:51:21.000Z</time>
      </trkpt>
      <trkpt lat="43.772" lon="1.58569">
        <ele>148.281774</ele>
        <time>2023-05-05T15:51:21.000Z</time>
      </trkpt>
      <trkpt lat="43.77201" lon="1.58563">
        <ele>148.657701</ele>
        <time>2023-05-05T15:51:22.000Z</time>
      </trkpt>
      <trkpt lat="43.77201" lon="1.58563">
        <ele>148.657701</ele>
        <time>2023-05-05T15:51:22.000Z</time>
      </trkpt>
      <trkpt lat="43.77202" lon="1.58557">
        <ele>149.073114</ele>
        <time>2023-05-05T15:51:23.000Z</time>
      </trkpt>
      <trkpt lat="43.77202" lon="1.58557">
        <ele>149.073114</ele>
        <time>2023-05-05T15:51:23.000Z</time>
      </trkpt>
      <trkpt lat="43.77203" lon="1.58549">
        <ele>149.613965</ele>
        <time>2023-05-05T15:51:24.000Z</time>
      </trkpt>
      <trkpt lat="43.77203" lon="1.58549">
        <ele>149.613965</ele>
        <time>2023-05-05T15:51:24.000Z</time>
      </trkpt>
      <trkpt lat="43.77203" lon="1.58548">
        <ele>149.68767</ele>
        <time>2023-05-05T15:51:25.000Z</time>
      </trkpt>
      <trkpt lat="43.77205" lon="1.58535">
        <ele>150.576394</ele>
        <time>2023-05-05T15:51:26.000Z</time>
      </trkpt>
      <trkpt lat="43.77205" lon="1.58535">
        <ele>150.576394</ele>
        <time>2023-05-05T15:51:26.000Z</time>
      </trkpt>
      <trkpt lat="43.77206" lon="1.58527">
        <ele>151.104306</ele>
        <time>2023-05-05T15:51:28.000Z</time>
      </trkpt>
      <trkpt lat="43.77206" lon="1.58527">
        <ele>151.104306</ele>
        <time>2023-05-05T15:51:28.000Z</time>
      </trkpt>
      <trkpt lat="43.77208" lon="1.58521">
        <ele>151.58989</ele>
        <time>2023-05-05T15:51:29.000Z</time>
      </trkpt>
      <trkpt lat="43.77208" lon="1.58521">
        <ele>151.58989</ele>
        <time>2023-05-05T15:51:29.000Z</time>
      </trkpt>
      <trkpt lat="43.7721" lon="1.58513">
        <ele>152.135115</ele>
        <time>2023-05-05T15:51:30.000Z</time>
      </trkpt>
      <trkpt lat="43.7721" lon="1.58513">
        <ele>152.135115</ele>
        <time>2023-05-05T15:51:30.000Z</time>
      </trkpt>
      <trkpt lat="43.7721" lon="1.58512">
        <ele>152.22222</ele>
        <time>2023-05-05T15:51:31.000Z</time>
      </trkpt>
      <trkpt lat="43.77213" lon="1.58499">
        <ele>153.130971</ele>
        <time>2023-05-05T15:51:33.000Z</time>
      </trkpt>
      <trkpt lat="43.77213" lon="1.58499">
        <ele>153.130971</ele>
        <time>2023-05-05T15:51:33.000Z</time>
      </trkpt>
      <trkpt lat="43.77216" lon="1.5849">
        <ele>153.790175</ele>
        <time>2023-05-05T15:51:34.000Z</time>
      </trkpt>
      <trkpt lat="43.77216" lon="1.5849">
        <ele>153.790175</ele>
        <time>2023-05-05T15:51:34.000Z</time>
      </trkpt>
      <trkpt lat="43.77218" lon="1.58479">
        <ele>154.535617</ele>
        <time>2023-05-05T15:51:35.000Z</time>
      </trkpt>
      <trkpt lat="43.77218" lon="1.58479">
        <ele>154.535617</ele>
        <time>2023-05-05T15:51:35.000Z</time>
      </trkpt>
      <trkpt lat="43.7722" lon="1.58471">
        <ele>155.102867</ele>
        <time>2023-05-05T15:51:36.000Z</time>
      </trkpt>
      <trkpt lat="43.7722" lon="1.58471">
        <ele>155.102867</ele>
        <time>2023-05-05T15:51:36.000Z</time>
      </trkpt>
      <trkpt lat="43.77222" lon="1.58462">
        <ele>155.72472</ele>
        <time>2023-05-05T15:51:37.000Z</time>
      </trkpt>
      <trkpt lat="43.77222" lon="1.58462">
        <ele>155.72472</ele>
        <time>2023-05-05T15:51:37.000Z</time>
      </trkpt>
      <trkpt lat="43.77224" lon="1.58455">
        <ele>156.213966</ele>
        <time>2023-05-05T15:51:38.000Z</time>
      </trkpt>
      <trkpt lat="43.77224" lon="1.58455">
        <ele>156.213966</ele>
        <time>2023-05-05T15:51:38.000Z</time>
      </trkpt>
      <trkpt lat="43.77226" lon="1.58448">
        <ele>156.727601</ele>
        <time>2023-05-05T15:51:40.000Z</time>
      </trkpt>
      <trkpt lat="43.77226" lon="1.58448">
        <ele>156.727601</ele>
        <time>2023-05-05T15:51:40.000Z</time>
      </trkpt>
      <trkpt lat="43.77226" lon="1.58448">
        <ele>156.741002</ele>
        <time>2023-05-05T15:51:41.000Z</time>
      </trkpt>
      <trkpt lat="43.7723" lon="1.58435">
        <ele>157.744434</ele>
        <time>2023-05-05T15:51:43.000Z</time>
      </trkpt>
      <trkpt lat="43.7723" lon="1.58435">
        <ele>157.744434</ele>
        <time>2023-05-05T15:51:43.000Z</time>
      </trkpt>
      <trkpt lat="43.77231" lon="1.58432">
        <ele>157.92155</ele>
        <time>2023-05-05T15:51:44.000Z</time>
      </trkpt>
      <trkpt lat="43.77231" lon="1.58432">
        <ele>157.92155</ele>
        <time>2023-05-05T15:51:44.000Z</time>
      </trkpt>
      <trkpt lat="43.77237" lon="1.58415">
        <ele>159.21803</ele>
        <time>2023-05-05T15:51:45.000Z</time>
      </trkpt>
      <trkpt lat="43.77237" lon="1.58415">
        <ele>159.21803</ele>
        <time>2023-05-05T15:51:45.000Z</time>
      </trkpt>
      <trkpt lat="43.77242" lon="1.58405">
        <ele>160.028126</ele>
        <time>2023-05-05T15:51:47.000Z</time>
      </trkpt>
      <trkpt lat="43.77242" lon="1.58405">
        <ele>160.028126</ele>
        <time>2023-05-05T15:51:47.000Z</time>
      </trkpt>
      <trkpt lat="43.77242" lon="1.58405">
        <ele>160.028126</ele>
        <time>2023-05-05T15:51:48.000Z</time>
      </trkpt>
      <trkpt lat="43.77253" lon="1.58392">
        <ele>161.2764</ele>
        <time>2023-05-05T15:51:49.000Z</time>
      </trkpt>
      <trkpt lat="43.77253" lon="1.58392">
        <ele>161.2764</ele>
        <time>2023-05-05T15:51:49.000Z</time>
      </trkpt>
      <trkpt lat="43.77253" lon="1.58392">
        <ele>161.2764</ele>
        <time>2023-05-05T15:51:50.000Z</time>
      </trkpt>
      <trkpt lat="43.77264" lon="1.58376">
        <ele>161.650466</ele>
        <time>2023-05-05T15:51:51.000Z</time>
      </trkpt>
      <trkpt lat="43.77264" lon="1.58376">
        <ele>161.650466</ele>
        <time>2023-05-05T15:51:51.000Z</time>
      </trkpt>
      <trkpt lat="43.77264" lon="1.58376">
        <ele>161.650466</ele>
        <time>2023-05-05T15:51:52.000Z</time>
      </trkpt>
      <trkpt lat="43.77273" lon="1.58363">
        <ele>161.956674</ele>
        <time>2023-05-05T15:51:53.000Z</time>
      </trkpt>
      <trkpt lat="43.77273" lon="1.58363">
        <ele>161.956674</ele>
        <time>2023-05-05T15:51:53.000Z</time>
      </trkpt>
      <trkpt lat="43.77278" lon="1.58355">
        <ele>162.142932</ele>
        <time>2023-05-05T15:51:54.000Z</time>
      </trkpt>
      <trkpt lat="43.77278" lon="1.58355">
        <ele>162.142932</ele>
        <time>2023-05-05T15:51:54.000Z</time>
      </trkpt>
      <trkpt lat="43.77282" lon="1.58347">
        <ele>162.312618</ele>
        <time>2023-05-05T15:51:55.000Z</time>
      </trkpt>
      <trkpt lat="43.77282" lon="1.58347">
        <ele>162.312618</ele>
        <time>2023-05-05T15:51:55.000Z</time>
      </trkpt>
      <trkpt lat="43.77288" lon="1.58337">
        <ele>162.545154</ele>
        <time>2023-05-05T15:51:57.000Z</time>
      </trkpt>
      <trkpt lat="43.77288" lon="1.58337">
        <ele>162.545154</ele>
        <time>2023-05-05T15:51:57.000Z</time>
      </trkpt>
      <trkpt lat="43.77292" lon="1.58331">
        <ele>162.664852</ele>
        <time>2023-05-05T15:51:58.000Z</time>
      </trkpt>
      <trkpt lat="43.77292" lon="1.58331">
        <ele>162.664852</ele>
        <time>2023-05-05T15:51:58.000Z</time>
      </trkpt>
      <trkpt lat="43.77295" lon="1.58325">
        <ele>162.811012</ele>
        <time>2023-05-05T15:51:59.000Z</time>
      </trkpt>
      <trkpt lat="43.77295" lon="1.58325">
        <ele>162.811012</ele>
        <time>2023-05-05T15:51:59.000Z</time>
      </trkpt>
      <trkpt lat="43.77298" lon="1.58319">
        <ele>162.929362</ele>
        <time>2023-05-05T15:52:00.000Z</time>
      </trkpt>
      <trkpt lat="43.77298" lon="1.58319">
        <ele>162.929362</ele>
        <time>2023-05-05T15:52:00.000Z</time>
      </trkpt>
      <trkpt lat="43.77303" lon="1.58311">
        <ele>163.114617</ele>
        <time>2023-05-05T15:52:02.000Z</time>
      </trkpt>
      <trkpt lat="43.77303" lon="1.58311">
        <ele>163.114617</ele>
        <time>2023-05-05T15:52:02.000Z</time>
      </trkpt>
      <trkpt lat="43.77307" lon="1.58305">
        <ele>163.248973</ele>
        <time>2023-05-05T15:52:03.000Z</time>
      </trkpt>
      <trkpt lat="43.77307" lon="1.58305">
        <ele>163.248973</ele>
        <time>2023-05-05T15:52:03.000Z</time>
      </trkpt>
      <trkpt lat="43.77315" lon="1.58295">
        <ele>163.500946</ele>
        <time>2023-05-05T15:52:05.000Z</time>
      </trkpt>
      <trkpt lat="43.77315" lon="1.58295">
        <ele>163.500946</ele>
        <time>2023-05-05T15:52:05.000Z</time>
      </trkpt>
      <trkpt lat="43.77322" lon="1.58286">
        <ele>163.736307</ele>
        <time>2023-05-05T15:52:07.000Z</time>
      </trkpt>
      <trkpt lat="43.77322" lon="1.58286">
        <ele>163.736307</ele>
        <time>2023-05-05T15:52:07.000Z</time>
      </trkpt>
      <trkpt lat="43.7733" lon="1.58278">
        <ele>163.963109</ele>
        <time>2023-05-05T15:52:09.000Z</time>
      </trkpt>
      <trkpt lat="43.7733" lon="1.58278">
        <ele>163.963109</ele>
        <time>2023-05-05T15:52:10.000Z</time>
      </trkpt>
      <trkpt lat="43.77347" lon="1.58259">
        <ele>164.482636</ele>
        <time>2023-05-05T15:52:11.000Z</time>
      </trkpt>
      <trkpt lat="43.77347" lon="1.58259">
        <ele>164.482636</ele>
        <time>2023-05-05T15:52:12.000Z</time>
      </trkpt>
      <trkpt lat="43.77348" lon="1.58255">
        <ele>164.561607</ele>
        <time>2023-05-05T15:52:13.000Z</time>
      </trkpt>
      <trkpt lat="43.77347" lon="1.58251">
        <ele>164.630251</ele>
        <time>2023-05-05T15:52:15.000Z</time>
      </trkpt>
      <trkpt lat="43.77347" lon="1.58251">
        <ele>164.630251</ele>
        <time>2023-05-05T15:52:15.000Z</time>
      </trkpt>
      <trkpt lat="43.77346" lon="1.58246">
        <ele>164.721671</ele>
        <time>2023-05-05T15:52:16.000Z</time>
      </trkpt>
      <trkpt lat="43.77345" lon="1.5824">
        <ele>164.830598</ele>
        <time>2023-05-05T15:52:17.000Z</time>
      </trkpt>
      <trkpt lat="43.77343" lon="1.58233">
        <ele>164.959156</ele>
        <time>2023-05-05T15:52:20.000Z</time>
      </trkpt>
      <trkpt lat="43.77342" lon="1.58227">
        <ele>165.059292</ele>
        <time>2023-05-05T15:52:20.000Z</time>
      </trkpt>
      <trkpt lat="43.77342" lon="1.58227">
        <ele>165.059292</ele>
        <time>2023-05-05T15:52:20.000Z</time>
      </trkpt>
      <trkpt lat="43.7734" lon="1.5822">
        <ele>165.18598</ele>
        <time>2023-05-05T15:52:21.000Z</time>
      </trkpt>
      <trkpt lat="43.77338" lon="1.58214">
        <ele>165.304682</ele>
        <time>2023-05-05T15:52:23.000Z</time>
      </trkpt>
      <trkpt lat="43.77336" lon="1.58206">
        <ele>165.453076</ele>
        <time>2023-05-05T15:52:24.000Z</time>
      </trkpt>
      <trkpt lat="43.77337" lon="1.58207">
        <ele>165.495516</ele>
        <time>2023-05-05T15:52:25.000Z</time>
      </trkpt>
      <trkpt lat="43.77329" lon="1.5819">
        <ele>165.501771</ele>
        <time>2023-05-05T15:52:26.000Z</time>
      </trkpt>
      <trkpt lat="43.77325" lon="1.5818">
        <ele>165.490894</ele>
        <time>2023-05-05T15:52:27.000Z</time>
      </trkpt>
      <trkpt lat="43.77323" lon="1.58173">
        <ele>165.483899</ele>
        <time>2023-05-05T15:52:29.000Z</time>
      </trkpt>
      <trkpt lat="43.77321" lon="1.58166">
        <ele>165.476559</ele>
        <time>2023-05-05T15:52:30.000Z</time>
      </trkpt>
      <trkpt lat="43.77319" lon="1.58162">
        <ele>165.471748</ele>
        <time>2023-05-05T15:52:32.000Z</time>
      </trkpt>
      <trkpt lat="43.77317" lon="1.58159">
        <ele>165.46839</ele>
        <time>2023-05-05T15:52:33.000Z</time>
      </trkpt>
      <trkpt lat="43.77317" lon="1.58159">
        <ele>165.46839</ele>
        <time>2023-05-05T15:52:33.000Z</time>
      </trkpt>
      <trkpt lat="43.77317" lon="1.58158">
        <ele>165.466997</ele>
        <time>2023-05-05T15:52:35.000Z</time>
      </trkpt>
      <trkpt lat="43.77319" lon="1.58156">
        <ele>165.463835</ele>
        <time>2023-05-05T15:52:36.000Z</time>
      </trkpt>
      <trkpt lat="43.77322" lon="1.58157">
        <ele>165.460619</ele>
        <time>2023-05-05T15:52:37.000Z</time>
      </trkpt>
      <trkpt lat="43.77324" lon="1.58159">
        <ele>165.456616</ele>
        <time>2023-05-05T15:52:38.000Z</time>
      </trkpt>
      <trkpt lat="43.77328" lon="1.58162">
        <ele>165.451435</ele>
        <time>2023-05-05T15:52:40.000Z</time>
      </trkpt>
      <trkpt lat="43.77331" lon="1.58165">
        <ele>165.446267</ele>
        <time>2023-05-05T15:52:41.000Z</time>
      </trkpt>
      <trkpt lat="43.77334" lon="1.58169">
        <ele>165.440308</ele>
        <time>2023-05-05T15:52:41.000Z</time>
      </trkpt>
      <trkpt lat="43.77338" lon="1.58175">
        <ele>165.433314</ele>
        <time>2023-05-05T15:52:43.000Z</time>
      </trkpt>
      <trkpt lat="43.77343" lon="1.5818">
        <ele>165.425343</ele>
        <time>2023-05-05T15:52:44.000Z</time>
      </trkpt>
      <trkpt lat="43.77348" lon="1.58184">
        <ele>165.417758</ele>
        <time>2023-05-05T15:52:45.000Z</time>
      </trkpt>
      <trkpt lat="43.77348" lon="1.58184">
        <ele>165.417758</ele>
        <time>2023-05-05T15:52:45.000Z</time>
      </trkpt>
      <trkpt lat="43.77352" lon="1.58186">
        <ele>165.411418</ele>
        <time>2023-05-05T15:52:46.000Z</time>
      </trkpt>
      <trkpt lat="43.77357" lon="1.58188">
        <ele>165.405073</ele>
        <time>2023-05-05T15:52:47.000Z</time>
      </trkpt>
      <trkpt lat="43.77361" lon="1.58189">
        <ele>165.398868</ele>
        <time>2023-05-05T15:52:49.000Z</time>
      </trkpt>
      <trkpt lat="43.77364" lon="1.58189">
        <ele>165.395297</ele>
        <time>2023-05-05T15:52:50.000Z</time>
      </trkpt>
      <trkpt lat="43.77367" lon="1.58191">
        <ele>165.391575</ele>
        <time>2023-05-05T15:52:51.000Z</time>
      </trkpt>
      <trkpt lat="43.77369" lon="1.58193">
        <ele>165.387768</ele>
        <time>2023-05-05T15:52:51.000Z</time>
      </trkpt>
      <trkpt lat="43.77371" lon="1.58197">
        <ele>165.382813</ele>
        <time>2023-05-05T15:52:53.000Z</time>
      </trkpt>
      <trkpt lat="43.77374" lon="1.58203">
        <ele>165.376622</ele>
        <time>2023-05-05T15:52:54.000Z</time>
      </trkpt>
      <trkpt lat="43.77376" lon="1.58207">
        <ele>165.371282</ele>
        <time>2023-05-05T15:52:55.000Z</time>
      </trkpt>
      <trkpt lat="43.7738" lon="1.58214">
        <ele>165.362595</ele>
        <time>2023-05-05T15:52:56.000Z</time>
      </trkpt>
      <trkpt lat="43.77386" lon="1.58222">
        <ele>165.351801</ele>
        <time>2023-05-05T15:52:59.000Z</time>
      </trkpt>
      <trkpt lat="43.77386" lon="1.58222">
        <ele>165.351801</ele>
        <time>2023-05-05T15:52:59.000Z</time>
      </trkpt>
      <trkpt lat="43.7739" lon="1.58228">
        <ele>165.345034</ele>
        <time>2023-05-05T15:53:00.000Z</time>
      </trkpt>
      <trkpt lat="43.77394" lon="1.58233">
        <ele>165.336939</ele>
        <time>2023-05-05T15:53:01.000Z</time>
      </trkpt>
      <trkpt lat="43.77398" lon="1.58238">
        <ele>165.329618</ele>
        <time>2023-05-05T15:53:02.000Z</time>
      </trkpt>
      <trkpt lat="43.77402" lon="1.58243">
        <ele>165.323336</ele>
        <time>2023-05-05T15:53:03.000Z</time>
      </trkpt>
      <trkpt lat="43.77406" lon="1.58249">
        <ele>165.31579</ele>
        <time>2023-05-05T15:53:05.000Z</time>
      </trkpt>
      <trkpt lat="43.77408" lon="1.58251">
        <ele>165.312098</ele>
        <time>2023-05-05T15:53:06.000Z</time>
      </trkpt>
      <trkpt lat="43.77408" lon="1.58251">
        <ele>165.312098</ele>
        <time>2023-05-05T15:53:06.000Z</time>
      </trkpt>
      <trkpt lat="43.77413" lon="1.58262">
        <ele>165.299713</ele>
        <time>2023-05-05T15:53:07.000Z</time>
      </trkpt>
      <trkpt lat="43.77417" lon="1.58268">
        <ele>165.291951</ele>
        <time>2023-05-05T15:53:08.000Z</time>
      </trkpt>
      <trkpt lat="43.77421" lon="1.58273">
        <ele>165.285217</ele>
        <time>2023-05-05T15:53:09.000Z</time>
      </trkpt>
      <trkpt lat="43.77424" lon="1.58275">
        <ele>165.180762</ele>
        <time>2023-05-05T15:53:11.000Z</time>
      </trkpt>
      <trkpt lat="43.77429" lon="1.58276">
        <ele>164.849536</ele>
        <time>2023-05-05T15:53:12.000Z</time>
      </trkpt>
      <trkpt lat="43.77433" lon="1.58276">
        <ele>164.56805</ele>
        <time>2023-05-05T15:53:13.000Z</time>
      </trkpt>
      <trkpt lat="43.77438" lon="1.58275">
        <ele>164.228797</ele>
        <time>2023-05-05T15:53:14.000Z</time>
      </trkpt>
      <trkpt lat="43.77438" lon="1.58275">
        <ele>164.228797</ele>
        <time>2023-05-05T15:53:14.000Z</time>
      </trkpt>
      <trkpt lat="43.77443" lon="1.58274">
        <ele>163.918128</ele>
        <time>2023-05-05T15:53:14.000Z</time>
      </trkpt>
      <trkpt lat="43.77447" lon="1.58274">
        <ele>163.614685</ele>
        <time>2023-05-05T15:53:16.000Z</time>
      </trkpt>
      <trkpt lat="43.77451" lon="1.58273">
        <ele>163.330592</ele>
        <time>2023-05-05T15:53:17.000Z</time>
      </trkpt>
      <trkpt lat="43.77451" lon="1.58273">
        <ele>163.330592</ele>
        <time>2023-05-05T15:53:17.000Z</time>
      </trkpt>
      <trkpt lat="43.77457" lon="1.58274">
        <ele>162.967154</ele>
        <time>2023-05-05T15:53:19.000Z</time>
      </trkpt>
      <trkpt lat="43.77461" lon="1.58275">
        <ele>162.681582</ele>
        <time>2023-05-05T15:53:20.000Z</time>
      </trkpt>
      <trkpt lat="43.77461" lon="1.58275">
        <ele>162.681582</ele>
        <time>2023-05-05T15:53:20.000Z</time>
      </trkpt>
      <trkpt lat="43.77466" lon="1.58276">
        <ele>162.318087</ele>
        <time>2023-05-05T15:53:21.000Z</time>
      </trkpt>
      <trkpt lat="43.77466" lon="1.58276">
        <ele>162.318087</ele>
        <time>2023-05-05T15:53:21.000Z</time>
      </trkpt>
      <trkpt lat="43.77472" lon="1.58278">
        <ele>161.903748</ele>
        <time>2023-05-05T15:53:22.000Z</time>
      </trkpt>
      <trkpt lat="43.77472" lon="1.58278">
        <ele>161.903748</ele>
        <time>2023-05-05T15:53:22.000Z</time>
      </trkpt>
      <trkpt lat="43.77478" lon="1.5828">
        <ele>161.504526</ele>
        <time>2023-05-05T15:53:23.000Z</time>
      </trkpt>
      <trkpt lat="43.77478" lon="1.5828">
        <ele>161.504526</ele>
        <time>2023-05-05T15:53:23.000Z</time>
      </trkpt>
      <trkpt lat="43.77485" lon="1.58283">
        <ele>160.98995</ele>
        <time>2023-05-05T15:53:25.000Z</time>
      </trkpt>
      <trkpt lat="43.77485" lon="1.58283">
        <ele>160.98995</ele>
        <time>2023-05-05T15:53:25.000Z</time>
      </trkpt>
      <trkpt lat="43.77485" lon="1.58283">
        <ele>160.98995</ele>
        <time>2023-05-05T15:53:26.000Z</time>
      </trkpt>
      <trkpt lat="43.77496" lon="1.58286">
        <ele>160.283632</ele>
        <time>2023-05-05T15:53:27.000Z</time>
      </trkpt>
      <trkpt lat="43.77496" lon="1.58286">
        <ele>160.283632</ele>
        <time>2023-05-05T15:53:27.000Z</time>
      </trkpt>
      <trkpt lat="43.77496" lon="1.58286">
        <ele>160.283632</ele>
        <time>2023-05-05T15:53:28.000Z</time>
      </trkpt>
      <trkpt lat="43.77525" lon="1.58289">
        <ele>158.337418</ele>
        <time>2023-05-05T15:53:29.000Z</time>
      </trkpt>
      <trkpt lat="43.77525" lon="1.58289">
        <ele>158.337418</ele>
        <time>2023-05-05T15:53:29.000Z</time>
      </trkpt>
      <trkpt lat="43.77525" lon="1.58289">
        <ele>158.337418</ele>
        <time>2023-05-05T15:53:30.000Z</time>
      </trkpt>
      <trkpt lat="43.77538" lon="1.58293">
        <ele>157.39278</ele>
        <time>2023-05-05T15:53:31.000Z</time>
      </trkpt>
      <trkpt lat="43.77538" lon="1.58293">
        <ele>157.39278</ele>
        <time>2023-05-05T15:53:31.000Z</time>
      </trkpt>
      <trkpt lat="43.77543" lon="1.58295">
        <ele>157.069699</ele>
        <time>2023-05-05T15:53:32.000Z</time>
      </trkpt>
      <trkpt lat="43.77543" lon="1.58295">
        <ele>157.069699</ele>
        <time>2023-05-05T15:53:32.000Z</time>
      </trkpt>
      <trkpt lat="43.7755" lon="1.58299">
        <ele>156.553377</ele>
        <time>2023-05-05T15:53:33.000Z</time>
      </trkpt>
      <trkpt lat="43.7755" lon="1.58299">
        <ele>156.553377</ele>
        <time>2023-05-05T15:53:33.000Z</time>
      </trkpt>
      <trkpt lat="43.77556" lon="1.58304">
        <ele>156.100612</ele>
        <time>2023-05-05T15:53:34.000Z</time>
      </trkpt>
      <trkpt lat="43.77556" lon="1.58304">
        <ele>156.100612</ele>
        <time>2023-05-05T15:53:34.000Z</time>
      </trkpt>
      <trkpt lat="43.7756" lon="1.58308">
        <ele>155.75598</ele>
        <time>2023-05-05T15:53:35.000Z</time>
      </trkpt>
      <trkpt lat="43.7756" lon="1.58308">
        <ele>155.75598</ele>
        <time>2023-05-05T15:53:35.000Z</time>
      </trkpt>
      <trkpt lat="43.77564" lon="1.58312">
        <ele>155.433633</ele>
        <time>2023-05-05T15:53:36.000Z</time>
      </trkpt>
      <trkpt lat="43.77564" lon="1.58312">
        <ele>155.433633</ele>
        <time>2023-05-05T15:53:36.000Z</time>
      </trkpt>
      <trkpt lat="43.7757" lon="1.58313">
        <ele>155.0492</ele>
        <time>2023-05-05T15:53:38.000Z</time>
      </trkpt>
      <trkpt lat="43.7757" lon="1.58313">
        <ele>155.0492</ele>
        <time>2023-05-05T15:53:38.000Z</time>
      </trkpt>
      <trkpt lat="43.7757" lon="1.58313">
        <ele>155.0492</ele>
        <time>2023-05-05T15:53:39.000Z</time>
      </trkpt>
      <trkpt lat="43.77586" lon="1.58314">
        <ele>153.947506</ele>
        <time>2023-05-05T15:53:40.000Z</time>
      </trkpt>
      <trkpt lat="43.77586" lon="1.58314">
        <ele>153.947506</ele>
        <time>2023-05-05T15:53:40.000Z</time>
      </trkpt>
      <trkpt lat="43.77596" lon="1.58316">
        <ele>153.277082</ele>
        <time>2023-05-05T15:53:42.000Z</time>
      </trkpt>
      <trkpt lat="43.77596" lon="1.58316">
        <ele>153.277082</ele>
        <time>2023-05-05T15:53:42.000Z</time>
      </trkpt>
      <trkpt lat="43.77596" lon="1.58316">
        <ele>153.277082</ele>
        <time>2023-05-05T15:53:42.000Z</time>
      </trkpt>
      <trkpt lat="43.77603" lon="1.58313">
        <ele>152.668317</ele>
        <time>2023-05-05T15:53:44.000Z</time>
      </trkpt>
      <trkpt lat="43.77603" lon="1.58313">
        <ele>152.668317</ele>
        <time>2023-05-05T15:53:44.000Z</time>
      </trkpt>
      <trkpt lat="43.7761" lon="1.58312">
        <ele>152.029755</ele>
        <time>2023-05-05T15:53:44.000Z</time>
      </trkpt>
      <trkpt lat="43.7761" lon="1.58312">
        <ele>152.029755</ele>
        <time>2023-05-05T15:53:44.000Z</time>
      </trkpt>
      <trkpt lat="43.7761" lon="1.58312">
        <ele>152.029755</ele>
        <time>2023-05-05T15:53:46.000Z</time>
      </trkpt>
      <trkpt lat="43.77622" lon="1.58305">
        <ele>151.015475</ele>
        <time>2023-05-05T15:53:47.000Z</time>
      </trkpt>
      <trkpt lat="43.77622" lon="1.58305">
        <ele>151.015475</ele>
        <time>2023-05-05T15:53:47.000Z</time>
      </trkpt>
      <trkpt lat="43.77628" lon="1.58301">
        <ele>150.435925</ele>
        <time>2023-05-05T15:53:48.000Z</time>
      </trkpt>
      <trkpt lat="43.77628" lon="1.58301">
        <ele>150.435925</ele>
        <time>2023-05-05T15:53:48.000Z</time>
      </trkpt>
      <trkpt lat="43.77636" lon="1.58295">
        <ele>149.640504</ele>
        <time>2023-05-05T15:53:49.000Z</time>
      </trkpt>
      <trkpt lat="43.77636" lon="1.58295">
        <ele>149.640504</ele>
        <time>2023-05-05T15:53:49.000Z</time>
      </trkpt>
      <trkpt lat="43.77636" lon="1.58295">
        <ele>149.640504</ele>
        <time>2023-05-05T15:53:50.000Z</time>
      </trkpt>
      <trkpt lat="43.7765" lon="1.58276">
        <ele>148.050833</ele>
        <time>2023-05-05T15:53:51.000Z</time>
      </trkpt>
      <trkpt lat="43.7765" lon="1.58276">
        <ele>148.050833</ele>
        <time>2023-05-05T15:53:51.000Z</time>
      </trkpt>
      <trkpt lat="43.7765" lon="1.58274">
        <ele>147.931416</ele>
        <time>2023-05-05T15:53:52.000Z</time>
      </trkpt>
      <trkpt lat="43.77652" lon="1.58271">
        <ele>147.654669</ele>
        <time>2023-05-05T15:53:53.000Z</time>
      </trkpt>
      <trkpt lat="43.77652" lon="1.58271">
        <ele>147.654669</ele>
        <time>2023-05-05T15:53:53.000Z</time>
      </trkpt>
      <trkpt lat="43.77655" lon="1.58265">
        <ele>147.238758</ele>
        <time>2023-05-05T15:53:55.000Z</time>
      </trkpt>
      <trkpt lat="43.77655" lon="1.58265">
        <ele>147.238758</ele>
        <time>2023-05-05T15:53:55.000Z</time>
      </trkpt>
      <trkpt lat="43.77657" lon="1.58263">
        <ele>147.03795</ele>
        <time>2023-05-05T15:53:57.000Z</time>
      </trkpt>
      <trkpt lat="43.77657" lon="1.58263">
        <ele>147.03795</ele>
        <time>2023-05-05T15:53:57.000Z</time>
      </trkpt>
      <trkpt lat="43.77665" lon="1.58254">
        <ele>146.199844</ele>
        <time>2023-05-05T15:53:58.000Z</time>
      </trkpt>
      <trkpt lat="43.77665" lon="1.58254">
        <ele>146.199844</ele>
        <time>2023-05-05T15:53:58.000Z</time>
      </trkpt>
      <trkpt lat="43.77665" lon="1.58254">
        <ele>146.199844</ele>
        <time>2023-05-05T15:53:58.000Z</time>
      </trkpt>
      <trkpt lat="43.77675" lon="1.58243">
        <ele>145.098024</ele>
        <time>2023-05-05T15:53:59.000Z</time>
      </trkpt>
      <trkpt lat="43.77675" lon="1.58243">
        <ele>145.098024</ele>
        <time>2023-05-05T15:53:59.000Z</time>
      </trkpt>
      <trkpt lat="43.77683" lon="1.58233">
        <ele>144.221312</ele>
        <time>2023-05-05T15:54:01.000Z</time>
      </trkpt>
      <trkpt lat="43.77683" lon="1.58233">
        <ele>144.221312</ele>
        <time>2023-05-05T15:54:01.000Z</time>
      </trkpt>
      <trkpt lat="43.77683" lon="1.58233">
        <ele>144.221312</ele>
        <time>2023-05-05T15:54:01.000Z</time>
      </trkpt>
      <trkpt lat="43.77692" lon="1.58222">
        <ele>143.226648</ele>
        <time>2023-05-05T15:54:03.000Z</time>
      </trkpt>
      <trkpt lat="43.77692" lon="1.58222">
        <ele>143.226648</ele>
        <time>2023-05-05T15:54:03.000Z</time>
      </trkpt>
      <trkpt lat="43.77692" lon="1.58222">
        <ele>143.226648</ele>
        <time>2023-05-05T15:54:03.000Z</time>
      </trkpt>
      <trkpt lat="43.77698" lon="1.58211">
        <ele>142.404048</ele>
        <time>2023-05-05T15:54:05.000Z</time>
      </trkpt>
      <trkpt lat="43.77698" lon="1.58211">
        <ele>142.404048</ele>
        <time>2023-05-05T15:54:05.000Z</time>
      </trkpt>
      <trkpt lat="43.77698" lon="1.58211">
        <ele>142.404048</ele>
        <time>2023-05-05T15:54:06.000Z</time>
      </trkpt>
      <trkpt lat="43.77706" lon="1.58193">
        <ele>141.118409</ele>
        <time>2023-05-05T15:54:07.000Z</time>
      </trkpt>
      <trkpt lat="43.77706" lon="1.58193">
        <ele>141.118409</ele>
        <time>2023-05-05T15:54:07.000Z</time>
      </trkpt>
      <trkpt lat="43.77707" lon="1.58194">
        <ele>141.017247</ele>
        <time>2023-05-05T15:54:09.000Z</time>
      </trkpt>
      <trkpt lat="43.77719" lon="1.58181">
        <ele>139.772118</ele>
        <time>2023-05-05T15:54:11.000Z</time>
      </trkpt>
      <trkpt lat="43.77719" lon="1.58181">
        <ele>139.772118</ele>
        <time>2023-05-05T15:54:11.000Z</time>
      </trkpt>
      <trkpt lat="43.77723" lon="1.58177">
        <ele>139.294427</ele>
        <time>2023-05-05T15:54:12.000Z</time>
      </trkpt>
      <trkpt lat="43.77723" lon="1.58177">
        <ele>139.294427</ele>
        <time>2023-05-05T15:54:12.000Z</time>
      </trkpt>
      <trkpt lat="43.77727" lon="1.58174">
        <ele>138.931857</ele>
        <time>2023-05-05T15:54:13.000Z</time>
      </trkpt>
      <trkpt lat="43.77727" lon="1.58174">
        <ele>138.931857</ele>
        <time>2023-05-05T15:54:13.000Z</time>
      </trkpt>
      <trkpt lat="43.77731" lon="1.58173">
        <ele>138.574659</ele>
        <time>2023-05-05T15:54:14.000Z</time>
      </trkpt>
      <trkpt lat="43.77731" lon="1.58173">
        <ele>138.574659</ele>
        <time>2023-05-05T15:54:14.000Z</time>
      </trkpt>
      <trkpt lat="43.77737" lon="1.58172">
        <ele>138.181143</ele>
        <time>2023-05-05T15:54:16.000Z</time>
      </trkpt>
      <trkpt lat="43.77737" lon="1.58172">
        <ele>138.181143</ele>
        <time>2023-05-05T15:54:16.000Z</time>
      </trkpt>
      <trkpt lat="43.77737" lon="1.58172">
        <ele>138.181143</ele>
        <time>2023-05-05T15:54:17.000Z</time>
      </trkpt>
      <trkpt lat="43.77747" lon="1.58174">
        <ele>137.978726</ele>
        <time>2023-05-05T15:54:18.000Z</time>
      </trkpt>
      <trkpt lat="43.77747" lon="1.58174">
        <ele>137.978726</ele>
        <time>2023-05-05T15:54:18.000Z</time>
      </trkpt>
      <trkpt lat="43.77759" lon="1.58175">
        <ele>137.746683</ele>
        <time>2023-05-05T15:54:19.000Z</time>
      </trkpt>
      <trkpt lat="43.77759" lon="1.58175">
        <ele>137.746683</ele>
        <time>2023-05-05T15:54:19.000Z</time>
      </trkpt>
      <trkpt lat="43.77759" lon="1.58175">
        <ele>137.746683</ele>
        <time>2023-05-05T15:54:20.000Z</time>
      </trkpt>
      <trkpt lat="43.77776" lon="1.58175">
        <ele>137.417886</ele>
        <time>2023-05-05T15:54:21.000Z</time>
      </trkpt>
      <trkpt lat="43.77776" lon="1.58175">
        <ele>137.417886</ele>
        <time>2023-05-05T15:54:21.000Z</time>
      </trkpt>
      <trkpt lat="43.77784" lon="1.58173">
        <ele>137.258787</ele>
        <time>2023-05-05T15:54:22.000Z</time>
      </trkpt>
      <trkpt lat="43.77784" lon="1.58173">
        <ele>137.258787</ele>
        <time>2023-05-05T15:54:22.000Z</time>
      </trkpt>
      <trkpt lat="43.77784" lon="1.58173">
        <ele>137.258787</ele>
        <time>2023-05-05T15:54:23.000Z</time>
      </trkpt>
      <trkpt lat="43.77792" lon="1.58165">
        <ele>137.061644</ele>
        <time>2023-05-05T15:54:24.000Z</time>
      </trkpt>
      <trkpt lat="43.77792" lon="1.58165">
        <ele>137.061644</ele>
        <time>2023-05-05T15:54:24.000Z</time>
      </trkpt>
      <trkpt lat="43.77798" lon="1.58159">
        <ele>136.922377</ele>
        <time>2023-05-05T15:54:25.000Z</time>
      </trkpt>
      <trkpt lat="43.77798" lon="1.58159">
        <ele>136.922377</ele>
        <time>2023-05-05T15:54:25.000Z</time>
      </trkpt>
      <trkpt lat="43.77798" lon="1.58159">
        <ele>136.922377</ele>
        <time>2023-05-05T15:54:26.000Z</time>
      </trkpt>
      <trkpt lat="43.77806" lon="1.58149">
        <ele>136.702746</ele>
        <time>2023-05-05T15:54:27.000Z</time>
      </trkpt>
      <trkpt lat="43.77806" lon="1.58149">
        <ele>136.702746</ele>
        <time>2023-05-05T15:54:27.000Z</time>
      </trkpt>
      <trkpt lat="43.7781" lon="1.58142">
        <ele>136.568996</ele>
        <time>2023-05-05T15:54:28.000Z</time>
      </trkpt>
      <trkpt lat="43.7781" lon="1.58142">
        <ele>136.568996</ele>
        <time>2023-05-05T15:54:28.000Z</time>
      </trkpt>
      <trkpt lat="43.77815" lon="1.58134">
        <ele>136.42815</ele>
        <time>2023-05-05T15:54:29.000Z</time>
      </trkpt>
      <trkpt lat="43.77819" lon="1.58129">
        <ele>136.323177</ele>
        <time>2023-05-05T15:54:29.000Z</time>
      </trkpt>
      <trkpt lat="43.77819" lon="1.58129">
        <ele>136.323177</ele>
        <time>2023-05-05T15:54:29.000Z</time>
      </trkpt>
      <trkpt lat="43.77819" lon="1.58129">
        <ele>136.323177</ele>
        <time>2023-05-05T15:54:30.000Z</time>
      </trkpt>
      <trkpt lat="43.77824" lon="1.58121">
        <ele>136.168709</ele>
        <time>2023-05-05T15:54:31.000Z</time>
      </trkpt>
      <trkpt lat="43.77827" lon="1.58116">
        <ele>136.075753</ele>
        <time>2023-05-05T15:54:32.000Z</time>
      </trkpt>
      <trkpt lat="43.77827" lon="1.58116">
        <ele>136.075753</ele>
        <time>2023-05-05T15:54:32.000Z</time>
      </trkpt>
      <trkpt lat="43.77827" lon="1.58116">
        <ele>136.075753</ele>
        <time>2023-05-05T15:54:33.000Z</time>
      </trkpt>
      <trkpt lat="43.77831" lon="1.58106">
        <ele>135.917446</ele>
        <time>2023-05-05T15:54:34.000Z</time>
      </trkpt>
      <trkpt lat="43.77829" lon="1.58101">
        <ele>135.846122</ele>
        <time>2023-05-05T15:54:35.000Z</time>
      </trkpt>
      <trkpt lat="43.77829" lon="1.58101">
        <ele>135.846122</ele>
        <time>2023-05-05T15:54:35.000Z</time>
      </trkpt>
      <trkpt lat="43.7783" lon="1.58095">
        <ele>135.760238</ele>
        <time>2023-05-05T15:54:37.000Z</time>
      </trkpt>
      <trkpt lat="43.77829" lon="1.58089">
        <ele>135.667274</ele>
        <time>2023-05-05T15:54:38.000Z</time>
      </trkpt>
      <trkpt lat="43.77827" lon="1.58082">
        <ele>135.566212</ele>
        <time>2023-05-05T15:54:39.000Z</time>
      </trkpt>
      <trkpt lat="43.77826" lon="1.58074">
        <ele>135.456681</ele>
        <time>2023-05-05T15:54:40.000Z</time>
      </trkpt>
      <trkpt lat="43.77825" lon="1.58068">
        <ele>135.356831</ele>
        <time>2023-05-05T15:54:41.000Z</time>
      </trkpt>
      <trkpt lat="43.77824" lon="1.58061">
        <ele>135.255165</ele>
        <time>2023-05-05T15:54:42.000Z</time>
      </trkpt>
      <trkpt lat="43.77823" lon="1.58054">
        <ele>135.160902</ele>
        <time>2023-05-05T15:54:44.000Z</time>
      </trkpt>
      <trkpt lat="43.77823" lon="1.58047">
        <ele>135.066333</ele>
        <time>2023-05-05T15:54:45.000Z</time>
      </trkpt>
      <trkpt lat="43.77823" lon="1.58047">
        <ele>135.066333</ele>
        <time>2023-05-05T15:54:45.000Z</time>
      </trkpt>
      <trkpt lat="43.77823" lon="1.58042">
        <ele>134.990027</ele>
        <time>2023-05-05T15:54:46.000Z</time>
      </trkpt>
      <trkpt lat="43.77823" lon="1.58035">
        <ele>134.886576</ele>
        <time>2023-05-05T15:54:47.000Z</time>
      </trkpt>
      <trkpt lat="43.77824" lon="1.58028">
        <ele>134.789515</ele>
        <time>2023-05-05T15:54:48.000Z</time>
      </trkpt>
      <trkpt lat="43.77826" lon="1.58019">
        <ele>134.723983</ele>
        <time>2023-05-05T15:54:50.000Z</time>
      </trkpt>
      <trkpt lat="43.77826" lon="1.58019">
        <ele>134.723983</ele>
        <time>2023-05-05T15:54:50.000Z</time>
      </trkpt>
      <trkpt lat="43.77828" lon="1.58011">
        <ele>135.064119</ele>
        <time>2023-05-05T15:54:51.000Z</time>
      </trkpt>
      <trkpt lat="43.77831" lon="1.58001">
        <ele>135.477678</ele>
        <time>2023-05-05T15:54:52.000Z</time>
      </trkpt>
      <trkpt lat="43.77833" lon="1.57992">
        <ele>135.858537</ele>
        <time>2023-05-05T15:54:53.000Z</time>
      </trkpt>
      <trkpt lat="43.77833" lon="1.57992">
        <ele>135.858537</ele>
        <time>2023-05-05T15:54:53.000Z</time>
      </trkpt>
      <trkpt lat="43.77835" lon="1.57985">
        <ele>136.147124</ele>
        <time>2023-05-05T15:54:54.000Z</time>
      </trkpt>
      <trkpt lat="43.77838" lon="1.57976">
        <ele>136.552326</ele>
        <time>2023-05-05T15:54:55.000Z</time>
      </trkpt>
      <trkpt lat="43.77838" lon="1.57976">
        <ele>136.552326</ele>
        <time>2023-05-05T15:54:55.000Z</time>
      </trkpt>
      <trkpt lat="43.77839" lon="1.5797">
        <ele>136.795627</ele>
        <time>2023-05-05T15:54:57.000Z</time>
      </trkpt>
      <trkpt lat="43.77839" lon="1.5797">
        <ele>136.795627</ele>
        <time>2023-05-05T15:54:57.000Z</time>
      </trkpt>
      <trkpt lat="43.7784" lon="1.57964">
        <ele>137.014889</ele>
        <time>2023-05-05T15:54:58.000Z</time>
      </trkpt>
      <trkpt lat="43.7784" lon="1.57964">
        <ele>137.014889</ele>
        <time>2023-05-05T15:54:58.000Z</time>
      </trkpt>
      <trkpt lat="43.77842" lon="1.57958">
        <ele>137.288445</ele>
        <time>2023-05-05T15:54:59.000Z</time>
      </trkpt>
      <trkpt lat="43.77842" lon="1.5795">
        <ele>137.578436</ele>
        <time>2023-05-05T15:55:00.000Z</time>
      </trkpt>
      <trkpt lat="43.77842" lon="1.5795">
        <ele>137.578436</ele>
        <time>2023-05-05T15:55:00.000Z</time>
      </trkpt>
      <trkpt lat="43.77843" lon="1.57944">
        <ele>137.823668</ele>
        <time>2023-05-05T15:55:01.000Z</time>
      </trkpt>
      <trkpt lat="43.77843" lon="1.57944">
        <ele>137.823668</ele>
        <time>2023-05-05T15:55:01.000Z</time>
      </trkpt>
      <trkpt lat="43.77843" lon="1.57936">
        <ele>138.155836</ele>
        <time>2023-05-05T15:55:03.000Z</time>
      </trkpt>
      <trkpt lat="43.77843" lon="1.5793">
        <ele>138.387414</ele>
        <time>2023-05-05T15:55:04.000Z</time>
      </trkpt>
      <trkpt lat="43.77843" lon="1.5793">
        <ele>138.387414</ele>
        <time>2023-05-05T15:55:04.000Z</time>
      </trkpt>
      <trkpt lat="43.77844" lon="1.57922">
        <ele>138.675009</ele>
        <time>2023-05-05T15:55:05.000Z</time>
      </trkpt>
      <trkpt lat="43.77844" lon="1.57922">
        <ele>138.675009</ele>
        <time>2023-05-05T15:55:05.000Z</time>
      </trkpt>
      <trkpt lat="43.77845" lon="1.57919">
        <ele>138.805773</ele>
        <time>2023-05-05T15:55:06.000Z</time>
      </trkpt>
      <trkpt lat="43.77847" lon="1.57908">
        <ele>139.240169</ele>
        <time>2023-05-05T15:55:07.000Z</time>
      </trkpt>
      <trkpt lat="43.77847" lon="1.57908">
        <ele>139.240169</ele>
        <time>2023-05-05T15:55:07.000Z</time>
      </trkpt>
      <trkpt lat="43.77848" lon="1.57901">
        <ele>139.557045</ele>
        <time>2023-05-05T15:55:09.000Z</time>
      </trkpt>
      <trkpt lat="43.77848" lon="1.57901">
        <ele>139.557045</ele>
        <time>2023-05-05T15:55:09.000Z</time>
      </trkpt>
      <trkpt lat="43.77849" lon="1.57892">
        <ele>139.879721</ele>
        <time>2023-05-05T15:55:10.000Z</time>
      </trkpt>
      <trkpt lat="43.77849" lon="1.57892">
        <ele>139.879721</ele>
        <time>2023-05-05T15:55:10.000Z</time>
      </trkpt>
      <trkpt lat="43.7785" lon="1.57886">
        <ele>140.125846</ele>
        <time>2023-05-05T15:55:11.000Z</time>
      </trkpt>
      <trkpt lat="43.7785" lon="1.57886">
        <ele>140.125846</ele>
        <time>2023-05-05T15:55:11.000Z</time>
      </trkpt>
      <trkpt lat="43.7785" lon="1.57879">
        <ele>140.396356</ele>
        <time>2023-05-05T15:55:13.000Z</time>
      </trkpt>
      <trkpt lat="43.7785" lon="1.57879">
        <ele>140.396356</ele>
        <time>2023-05-05T15:55:13.000Z</time>
      </trkpt>
      <trkpt lat="43.77851" lon="1.57874">
        <ele>140.622303</ele>
        <time>2023-05-05T15:55:14.000Z</time>
      </trkpt>
      <trkpt lat="43.77851" lon="1.57874">
        <ele>140.622303</ele>
        <time>2023-05-05T15:55:14.000Z</time>
      </trkpt>
      <trkpt lat="43.77852" lon="1.57868">
        <ele>140.860739</ele>
        <time>2023-05-05T15:55:14.000Z</time>
      </trkpt>
      <trkpt lat="43.77852" lon="1.57868">
        <ele>140.860739</ele>
        <time>2023-05-05T15:55:14.000Z</time>
      </trkpt>
      <trkpt lat="43.77853" lon="1.57862">
        <ele>141.09782</ele>
        <time>2023-05-05T15:55:15.000Z</time>
      </trkpt>
      <trkpt lat="43.77853" lon="1.57862">
        <ele>141.09782</ele>
        <time>2023-05-05T15:55:15.000Z</time>
      </trkpt>
      <trkpt lat="43.77857" lon="1.57849">
        <ele>141.642274</ele>
        <time>2023-05-05T15:55:17.000Z</time>
      </trkpt>
      <trkpt lat="43.77857" lon="1.57849">
        <ele>141.642274</ele>
        <time>2023-05-05T15:55:17.000Z</time>
      </trkpt>
      <trkpt lat="43.77858" lon="1.57843">
        <ele>141.88181</ele>
        <time>2023-05-05T15:55:20.000Z</time>
      </trkpt>
      <trkpt lat="43.77858" lon="1.57843">
        <ele>141.88181</ele>
        <time>2023-05-05T15:55:20.000Z</time>
      </trkpt>
      <trkpt lat="43.77858" lon="1.57837">
        <ele>142.105607</ele>
        <time>2023-05-05T15:55:21.000Z</time>
      </trkpt>
      <trkpt lat="43.77858" lon="1.57837">
        <ele>142.105607</ele>
        <time>2023-05-05T15:55:21.000Z</time>
      </trkpt>
      <trkpt lat="43.77858" lon="1.57832">
        <ele>142.301</ele>
        <time>2023-05-05T15:55:21.000Z</time>
      </trkpt>
      <trkpt lat="43.77858" lon="1.57832">
        <ele>142.301</ele>
        <time>2023-05-05T15:55:21.000Z</time>
      </trkpt>
      <trkpt lat="43.77858" lon="1.57828">
        <ele>142.474526</ele>
        <time>2023-05-05T15:55:23.000Z</time>
      </trkpt>
      <trkpt lat="43.77858" lon="1.57828">
        <ele>142.474526</ele>
        <time>2023-05-05T15:55:23.000Z</time>
      </trkpt>
      <trkpt lat="43.77856" lon="1.57823">
        <ele>142.688442</ele>
        <time>2023-05-05T15:55:24.000Z</time>
      </trkpt>
      <trkpt lat="43.77856" lon="1.57823">
        <ele>142.688442</ele>
        <time>2023-05-05T15:55:24.000Z</time>
      </trkpt>
      <trkpt lat="43.77855" lon="1.57819">
        <ele>142.868595</ele>
        <time>2023-05-05T15:55:25.000Z</time>
      </trkpt>
      <trkpt lat="43.77855" lon="1.57819">
        <ele>142.868595</ele>
        <time>2023-05-05T15:55:25.000Z</time>
      </trkpt>
      <trkpt lat="43.77853" lon="1.57815">
        <ele>143.034419</ele>
        <time>2023-05-05T15:55:26.000Z</time>
      </trkpt>
      <trkpt lat="43.77853" lon="1.57815">
        <ele>143.034419</ele>
        <time>2023-05-05T15:55:26.000Z</time>
      </trkpt>
      <trkpt lat="43.77852" lon="1.57809">
        <ele>143.283913</ele>
        <time>2023-05-05T15:55:27.000Z</time>
      </trkpt>
      <trkpt lat="43.77852" lon="1.57809">
        <ele>143.283913</ele>
        <time>2023-05-05T15:55:27.000Z</time>
      </trkpt>
      <trkpt lat="43.77851" lon="1.57802">
        <ele>143.560869</ele>
        <time>2023-05-05T15:55:28.000Z</time>
      </trkpt>
      <trkpt lat="43.77851" lon="1.57802">
        <ele>143.560869</ele>
        <time>2023-05-05T15:55:28.000Z</time>
      </trkpt>
      <trkpt lat="43.77851" lon="1.57794">
        <ele>143.870347</ele>
        <time>2023-05-05T15:55:30.000Z</time>
      </trkpt>
      <trkpt lat="43.77851" lon="1.57794">
        <ele>143.870347</ele>
        <time>2023-05-05T15:55:30.000Z</time>
      </trkpt>
      <trkpt lat="43.77851" lon="1.57786">
        <ele>144.17516</ele>
        <time>2023-05-05T15:55:32.000Z</time>
      </trkpt>
      <trkpt lat="43.77851" lon="1.57786">
        <ele>144.17516</ele>
        <time>2023-05-05T15:55:32.000Z</time>
      </trkpt>
      <trkpt lat="43.77851" lon="1.5778">
        <ele>144.42268</ele>
        <time>2023-05-05T15:55:33.000Z</time>
      </trkpt>
      <trkpt lat="43.77851" lon="1.5778">
        <ele>144.42268</ele>
        <time>2023-05-05T15:55:33.000Z</time>
      </trkpt>
      <trkpt lat="43.7785" lon="1.57775">
        <ele>144.533576</ele>
        <time>2023-05-05T15:55:33.000Z</time>
      </trkpt>
      <trkpt lat="43.7785" lon="1.57775">
        <ele>144.533576</ele>
        <time>2023-05-05T15:55:33.000Z</time>
      </trkpt>
      <trkpt lat="43.77848" lon="1.57771">
        <ele>144.637131</ele>
        <time>2023-05-05T15:55:35.000Z</time>
      </trkpt>
      <trkpt lat="43.77848" lon="1.57771">
        <ele>144.637131</ele>
        <time>2023-05-05T15:55:35.000Z</time>
      </trkpt>
      <trkpt lat="43.77847" lon="1.57767">
        <ele>144.741806</ele>
        <time>2023-05-05T15:55:36.000Z</time>
      </trkpt>
      <trkpt lat="43.77847" lon="1.57767">
        <ele>144.741806</ele>
        <time>2023-05-05T15:55:36.000Z</time>
      </trkpt>
      <trkpt lat="43.77845" lon="1.57764">
        <ele>144.83917</ele>
        <time>2023-05-05T15:55:38.000Z</time>
      </trkpt>
      <trkpt lat="43.77845" lon="1.57764">
        <ele>144.83917</ele>
        <time>2023-05-05T15:55:38.000Z</time>
      </trkpt>
      <trkpt lat="43.77844" lon="1.5776">
        <ele>144.923542</ele>
        <time>2023-05-05T15:55:38.000Z</time>
      </trkpt>
      <trkpt lat="43.77844" lon="1.5776">
        <ele>144.923542</ele>
        <time>2023-05-05T15:55:38.000Z</time>
      </trkpt>
      <trkpt lat="43.77842" lon="1.57756">
        <ele>145.032177</ele>
        <time>2023-05-05T15:55:40.000Z</time>
      </trkpt>
      <trkpt lat="43.77842" lon="1.57756">
        <ele>145.032177</ele>
        <time>2023-05-05T15:55:40.000Z</time>
      </trkpt>
      <trkpt lat="43.77842" lon="1.57752">
        <ele>145.116494</ele>
        <time>2023-05-05T15:55:40.000Z</time>
      </trkpt>
      <trkpt lat="43.77842" lon="1.57752">
        <ele>145.116494</ele>
        <time>2023-05-05T15:55:40.000Z</time>
      </trkpt>
      <trkpt lat="43.77842" lon="1.57747">
        <ele>145.230114</ele>
        <time>2023-05-05T15:55:41.000Z</time>
      </trkpt>
      <trkpt lat="43.77842" lon="1.57747">
        <ele>145.230114</ele>
        <time>2023-05-05T15:55:41.000Z</time>
      </trkpt>
      <trkpt lat="43.77844" lon="1.57743">
        <ele>145.328206</ele>
        <time>2023-05-05T15:55:43.000Z</time>
      </trkpt>
      <trkpt lat="43.77844" lon="1.57743">
        <ele>145.328206</ele>
        <time>2023-05-05T15:55:43.000Z</time>
      </trkpt>
      <trkpt lat="43.77845" lon="1.57739">
        <ele>145.440446</ele>
        <time>2023-05-05T15:55:44.000Z</time>
      </trkpt>
      <trkpt lat="43.77845" lon="1.57739">
        <ele>145.440446</ele>
        <time>2023-05-05T15:55:44.000Z</time>
      </trkpt>
      <trkpt lat="43.77847" lon="1.57736">
        <ele>145.530816</ele>
        <time>2023-05-05T15:55:45.000Z</time>
      </trkpt>
      <trkpt lat="43.77847" lon="1.57736">
        <ele>145.530816</ele>
        <time>2023-05-05T15:55:45.000Z</time>
      </trkpt>
      <trkpt lat="43.7785" lon="1.57733">
        <ele>145.648214</ele>
        <time>2023-05-05T15:55:46.000Z</time>
      </trkpt>
      <trkpt lat="43.7785" lon="1.57733">
        <ele>145.648214</ele>
        <time>2023-05-05T15:55:46.000Z</time>
      </trkpt>
      <trkpt lat="43.77853" lon="1.57731">
        <ele>145.745338</ele>
        <time>2023-05-05T15:55:48.000Z</time>
      </trkpt>
      <trkpt lat="43.77853" lon="1.57731">
        <ele>145.745338</ele>
        <time>2023-05-05T15:55:48.000Z</time>
      </trkpt>
      <trkpt lat="43.77853" lon="1.57731">
        <ele>145.745338</ele>
        <time>2023-05-05T15:55:49.000Z</time>
      </trkpt>
      <trkpt lat="43.77859" lon="1.57725">
        <ele>145.973632</ele>
        <time>2023-05-05T15:55:50.000Z</time>
      </trkpt>
      <trkpt lat="43.77859" lon="1.57725">
        <ele>145.973632</ele>
        <time>2023-05-05T15:55:50.000Z</time>
      </trkpt>
      <trkpt lat="43.77863" lon="1.57721">
        <ele>146.141575</ele>
        <time>2023-05-05T15:55:51.000Z</time>
      </trkpt>
      <trkpt lat="43.77863" lon="1.57721">
        <ele>146.141575</ele>
        <time>2023-05-05T15:55:51.000Z</time>
      </trkpt>
      <trkpt lat="43.7787" lon="1.57714">
        <ele>146.391713</ele>
        <time>2023-05-05T15:55:52.000Z</time>
      </trkpt>
      <trkpt lat="43.7787" lon="1.57714">
        <ele>146.391713</ele>
        <time>2023-05-05T15:55:53.000Z</time>
      </trkpt>
      <trkpt lat="43.7789" lon="1.57696">
        <ele>147.138311</ele>
        <time>2023-05-05T15:55:54.000Z</time>
      </trkpt>
      <trkpt lat="43.77902" lon="1.57686">
        <ele>147.570249</ele>
        <time>2023-05-05T15:55:56.000Z</time>
      </trkpt>
      <trkpt lat="43.77909" lon="1.57682">
        <ele>147.831304</ele>
        <time>2023-05-05T15:55:58.000Z</time>
      </trkpt>
      <trkpt lat="43.77914" lon="1.57679">
        <ele>147.988002</ele>
        <time>2023-05-05T15:55:59.000Z</time>
      </trkpt>
      <trkpt lat="43.77914" lon="1.57679">
        <ele>147.988002</ele>
        <time>2023-05-05T15:55:59.000Z</time>
      </trkpt>
      <trkpt lat="43.77921" lon="1.57674">
        <ele>148.240624</ele>
        <time>2023-05-05T15:56:00.000Z</time>
      </trkpt>
      <trkpt lat="43.7793" lon="1.57667">
        <ele>148.573179</ele>
        <time>2023-05-05T15:56:02.000Z</time>
      </trkpt>
      <trkpt lat="43.7793" lon="1.57667">
        <ele>148.573179</ele>
        <time>2023-05-05T15:56:02.000Z</time>
      </trkpt>
      <trkpt lat="43.77936" lon="1.57662">
        <ele>148.795498</ele>
        <time>2023-05-05T15:56:02.000Z</time>
      </trkpt>
      <trkpt lat="43.77943" lon="1.57656">
        <ele>149.036796</ele>
        <time>2023-05-05T15:56:04.000Z</time>
      </trkpt>
      <trkpt lat="43.77943" lon="1.57656">
        <ele>149.036796</ele>
        <time>2023-05-05T15:56:04.000Z</time>
      </trkpt>
      <trkpt lat="43.77943" lon="1.57656">
        <ele>149.036796</ele>
        <time>2023-05-05T15:56:05.000Z</time>
      </trkpt>
      <trkpt lat="43.77959" lon="1.57643">
        <ele>149.625016</ele>
        <time>2023-05-05T15:56:06.000Z</time>
      </trkpt>
      <trkpt lat="43.77959" lon="1.57643">
        <ele>149.625016</ele>
        <time>2023-05-05T15:56:07.000Z</time>
      </trkpt>
      <trkpt lat="43.77958" lon="1.57644">
        <ele>149.657342</ele>
        <time>2023-05-05T15:56:08.000Z</time>
      </trkpt>
      <trkpt lat="43.77958" lon="1.57644">
        <ele>149.657342</ele>
        <time>2023-05-05T15:56:08.000Z</time>
      </trkpt>
      <trkpt lat="43.77977" lon="1.57644">
        <ele>149.828529</ele>
        <time>2023-05-05T15:56:10.000Z</time>
      </trkpt>
      <trkpt lat="43.77977" lon="1.57644">
        <ele>149.828529</ele>
        <time>2023-05-05T15:56:10.000Z</time>
      </trkpt>
      <trkpt lat="43.77977" lon="1.57644">
        <ele>149.828529</ele>
        <time>2023-05-05T15:56:10.000Z</time>
      </trkpt>
      <trkpt lat="43.77993" lon="1.57646">
        <ele>149.164967</ele>
        <time>2023-05-05T15:56:12.000Z</time>
      </trkpt>
      <trkpt lat="43.77993" lon="1.57646">
        <ele>149.164967</ele>
        <time>2023-05-05T15:56:12.000Z</time>
      </trkpt>
      <trkpt lat="43.77993" lon="1.57646">
        <ele>149.164967</ele>
        <time>2023-05-05T15:56:13.000Z</time>
      </trkpt>
      <trkpt lat="43.78001" lon="1.5765">
        <ele>148.807753</ele>
        <time>2023-05-05T15:56:14.000Z</time>
      </trkpt>
      <trkpt lat="43.78001" lon="1.5765">
        <ele>148.807753</ele>
        <time>2023-05-05T15:56:15.000Z</time>
      </trkpt>
      <trkpt lat="43.78022" lon="1.57659">
        <ele>147.949464</ele>
        <time>2023-05-05T15:56:16.000Z</time>
      </trkpt>
      <trkpt lat="43.78022" lon="1.57659">
        <ele>147.949464</ele>
        <time>2023-05-05T15:56:17.000Z</time>
      </trkpt>
      <trkpt lat="43.78039" lon="1.57662">
        <ele>147.250835</ele>
        <time>2023-05-05T15:56:18.000Z</time>
      </trkpt>
      <trkpt lat="43.78039" lon="1.57662">
        <ele>147.250835</ele>
        <time>2023-05-05T15:56:18.000Z</time>
      </trkpt>
      <trkpt lat="43.78039" lon="1.57662">
        <ele>147.250835</ele>
        <time>2023-05-05T15:56:19.000Z</time>
      </trkpt>
      <trkpt lat="43.78047" lon="1.57658">
        <ele>146.904835</ele>
        <time>2023-05-05T15:56:20.000Z</time>
      </trkpt>
      <trkpt lat="43.78047" lon="1.57658">
        <ele>146.904835</ele>
        <time>2023-05-05T15:56:20.000Z</time>
      </trkpt>
      <trkpt lat="43.78047" lon="1.57658">
        <ele>146.904835</ele>
        <time>2023-05-05T15:56:21.000Z</time>
      </trkpt>
      <trkpt lat="43.78062" lon="1.57648">
        <ele>146.220047</ele>
        <time>2023-05-05T15:56:22.000Z</time>
      </trkpt>
      <trkpt lat="43.78062" lon="1.57648">
        <ele>146.220047</ele>
        <time>2023-05-05T15:56:22.000Z</time>
      </trkpt>
      <trkpt lat="43.78062" lon="1.57648">
        <ele>146.220047</ele>
        <time>2023-05-05T15:56:23.000Z</time>
      </trkpt>
      <trkpt lat="43.78069" lon="1.57642">
        <ele>145.880278</ele>
        <time>2023-05-05T15:56:24.000Z</time>
      </trkpt>
      <trkpt lat="43.78069" lon="1.57642">
        <ele>145.880278</ele>
        <time>2023-05-05T15:56:24.000Z</time>
      </trkpt>
      <trkpt lat="43.78072" lon="1.57638">
        <ele>145.729167</ele>
        <time>2023-05-05T15:56:25.000Z</time>
      </trkpt>
      <trkpt lat="43.78072" lon="1.57638">
        <ele>145.729167</ele>
        <time>2023-05-05T15:56:25.000Z</time>
      </trkpt>
      <trkpt lat="43.78077" lon="1.57633">
        <ele>145.484145</ele>
        <time>2023-05-05T15:56:26.000Z</time>
      </trkpt>
      <trkpt lat="43.78077" lon="1.57633">
        <ele>145.484145</ele>
        <time>2023-05-05T15:56:26.000Z</time>
      </trkpt>
      <trkpt lat="43.78077" lon="1.57633">
        <ele>145.484145</ele>
        <time>2023-05-05T15:56:26.000Z</time>
      </trkpt>
      <trkpt lat="43.78083" lon="1.57622">
        <ele>145.075152</ele>
        <time>2023-05-05T15:56:28.000Z</time>
      </trkpt>
      <trkpt lat="43.78083" lon="1.57622">
        <ele>145.075152</ele>
        <time>2023-05-05T15:56:28.000Z</time>
      </trkpt>
      <trkpt lat="43.78084" lon="1.57619">
        <ele>144.987759</ele>
        <time>2023-05-05T15:56:29.000Z</time>
      </trkpt>
      <trkpt lat="43.78084" lon="1.57619">
        <ele>144.987759</ele>
        <time>2023-05-05T15:56:29.000Z</time>
      </trkpt>
      <trkpt lat="43.78085" lon="1.57617">
        <ele>144.906979</ele>
        <time>2023-05-05T15:56:31.000Z</time>
      </trkpt>
      <trkpt lat="43.78085" lon="1.57617">
        <ele>144.906979</ele>
        <time>2023-05-05T15:56:31.000Z</time>
      </trkpt>
      <trkpt lat="43.78086" lon="1.57614">
        <ele>144.81219</ele>
        <time>2023-05-05T15:56:31.000Z</time>
      </trkpt>
      <trkpt lat="43.78086" lon="1.57614">
        <ele>144.81219</ele>
        <time>2023-05-05T15:56:31.000Z</time>
      </trkpt>
      <trkpt lat="43.78087" lon="1.5761">
        <ele>144.695705</ele>
        <time>2023-05-05T15:56:32.000Z</time>
      </trkpt>
      <trkpt lat="43.78087" lon="1.5761">
        <ele>144.695705</ele>
        <time>2023-05-05T15:56:32.000Z</time>
      </trkpt>
      <trkpt lat="43.78089" lon="1.57606">
        <ele>144.562585</ele>
        <time>2023-05-05T15:56:33.000Z</time>
      </trkpt>
      <trkpt lat="43.78089" lon="1.57606">
        <ele>144.562585</ele>
        <time>2023-05-05T15:56:33.000Z</time>
      </trkpt>
      <trkpt lat="43.78091" lon="1.57601">
        <ele>144.390325</ele>
        <time>2023-05-05T15:56:35.000Z</time>
      </trkpt>
      <trkpt lat="43.78091" lon="1.57601">
        <ele>144.390325</ele>
        <time>2023-05-05T15:56:35.000Z</time>
      </trkpt>
      <trkpt lat="43.78093" lon="1.57594">
        <ele>144.180776</ele>
        <time>2023-05-05T15:56:35.000Z</time>
      </trkpt>
      <trkpt lat="43.78093" lon="1.57594">
        <ele>144.180776</ele>
        <time>2023-05-05T15:56:35.000Z</time>
      </trkpt>
      <trkpt lat="43.78095" lon="1.57588">
        <ele>143.977066</ele>
        <time>2023-05-05T15:56:37.000Z</time>
      </trkpt>
      <trkpt lat="43.78095" lon="1.57588">
        <ele>143.977066</ele>
        <time>2023-05-05T15:56:37.000Z</time>
      </trkpt>
      <trkpt lat="43.78097" lon="1.57582">
        <ele>143.779382</ele>
        <time>2023-05-05T15:56:38.000Z</time>
      </trkpt>
      <trkpt lat="43.78097" lon="1.57582">
        <ele>143.779382</ele>
        <time>2023-05-05T15:56:38.000Z</time>
      </trkpt>
      <trkpt lat="43.78099" lon="1.57577">
        <ele>143.620027</ele>
        <time>2023-05-05T15:56:40.000Z</time>
      </trkpt>
      <trkpt lat="43.78099" lon="1.57577">
        <ele>143.620027</ele>
        <time>2023-05-05T15:56:40.000Z</time>
      </trkpt>
      <trkpt lat="43.78099" lon="1.57576">
        <ele>143.59633</ele>
        <time>2023-05-05T15:56:40.000Z</time>
      </trkpt>
      <trkpt lat="43.78103" lon="1.57566">
        <ele>143.252589</ele>
        <time>2023-05-05T15:56:42.000Z</time>
      </trkpt>
      <trkpt lat="43.78103" lon="1.57566">
        <ele>143.252589</ele>
        <time>2023-05-05T15:56:42.000Z</time>
      </trkpt>
      <trkpt lat="43.78105" lon="1.57559">
        <ele>143.048449</ele>
        <time>2023-05-05T15:56:43.000Z</time>
      </trkpt>
      <trkpt lat="43.78105" lon="1.57559">
        <ele>143.048449</ele>
        <time>2023-05-05T15:56:43.000Z</time>
      </trkpt>
      <trkpt lat="43.78107" lon="1.57553">
        <ele>142.852569</ele>
        <time>2023-05-05T15:56:44.000Z</time>
      </trkpt>
      <trkpt lat="43.78107" lon="1.57553">
        <ele>142.852569</ele>
        <time>2023-05-05T15:56:44.000Z</time>
      </trkpt>
      <trkpt lat="43.78108" lon="1.57547">
        <ele>142.737814</ele>
        <time>2023-05-05T15:56:46.000Z</time>
      </trkpt>
      <trkpt lat="43.78108" lon="1.57547">
        <ele>142.737814</ele>
        <time>2023-05-05T15:56:46.000Z</time>
      </trkpt>
      <trkpt lat="43.78109" lon="1.57543">
        <ele>142.67194</ele>
        <time>2023-05-05T15:56:46.000Z</time>
      </trkpt>
      <trkpt lat="43.78109" lon="1.57543">
        <ele>142.67194</ele>
        <time>2023-05-05T15:56:46.000Z</time>
      </trkpt>
      <trkpt lat="43.78109" lon="1.57538">
        <ele>142.605156</ele>
        <time>2023-05-05T15:56:48.000Z</time>
      </trkpt>
      <trkpt lat="43.78109" lon="1.57538">
        <ele>142.605156</ele>
        <time>2023-05-05T15:56:48.000Z</time>
      </trkpt>
      <trkpt lat="43.78108" lon="1.57534">
        <ele>142.551857</ele>
        <time>2023-05-05T15:56:48.000Z</time>
      </trkpt>
      <trkpt lat="43.78108" lon="1.57534">
        <ele>142.551857</ele>
        <time>2023-05-05T15:56:48.000Z</time>
      </trkpt>
      <trkpt lat="43.78106" lon="1.57531">
        <ele>142.488328</ele>
        <time>2023-05-05T15:56:49.000Z</time>
      </trkpt>
      <trkpt lat="43.78106" lon="1.57531">
        <ele>142.488328</ele>
        <time>2023-05-05T15:56:49.000Z</time>
      </trkpt>
      <trkpt lat="43.78104" lon="1.57529">
        <ele>142.436619</ele>
        <time>2023-05-05T15:56:51.000Z</time>
      </trkpt>
      <trkpt lat="43.78104" lon="1.57529">
        <ele>142.436619</ele>
        <time>2023-05-05T15:56:51.000Z</time>
      </trkpt>
      <trkpt lat="43.78098" lon="1.57527">
        <ele>142.31967</ele>
        <time>2023-05-05T15:56:51.000Z</time>
      </trkpt>
      <trkpt lat="43.78098" lon="1.57527">
        <ele>142.31967</ele>
        <time>2023-05-05T15:56:51.000Z</time>
      </trkpt>
      <trkpt lat="43.78094" lon="1.57526">
        <ele>142.240961</ele>
        <time>2023-05-05T15:56:53.000Z</time>
      </trkpt>
      <trkpt lat="43.78094" lon="1.57526">
        <ele>142.240961</ele>
        <time>2023-05-05T15:56:53.000Z</time>
      </trkpt>
      <trkpt lat="43.7809" lon="1.57525">
        <ele>142.147329</ele>
        <time>2023-05-05T15:56:55.000Z</time>
      </trkpt>
      <trkpt lat="43.78086" lon="1.57524">
        <ele>142.076003</ele>
        <time>2023-05-05T15:56:56.000Z</time>
      </trkpt>
      <trkpt lat="43.78086" lon="1.57524">
        <ele>142.076003</ele>
        <time>2023-05-05T15:56:56.000Z</time>
      </trkpt>
      <trkpt lat="43.78082" lon="1.57522">
        <ele>141.993183</ele>
        <time>2023-05-05T15:56:57.000Z</time>
      </trkpt>
      <trkpt lat="43.78082" lon="1.57522">
        <ele>141.993183</ele>
        <time>2023-05-05T15:56:57.000Z</time>
      </trkpt>
      <trkpt lat="43.78076" lon="1.57517">
        <ele>141.854207</ele>
        <time>2023-05-05T15:56:58.000Z</time>
      </trkpt>
      <trkpt lat="43.78076" lon="1.57517">
        <ele>141.854207</ele>
        <time>2023-05-05T15:56:58.000Z</time>
      </trkpt>
      <trkpt lat="43.78072" lon="1.57512">
        <ele>141.746537</ele>
        <time>2023-05-05T15:56:59.000Z</time>
      </trkpt>
      <trkpt lat="43.78072" lon="1.57512">
        <ele>141.746537</ele>
        <time>2023-05-05T15:56:59.000Z</time>
      </trkpt>
      <trkpt lat="43.78069" lon="1.57508">
        <ele>141.652459</ele>
        <time>2023-05-05T15:57:01.000Z</time>
      </trkpt>
      <trkpt lat="43.78064" lon="1.57503">
        <ele>141.538207</ele>
        <time>2023-05-05T15:57:02.000Z</time>
      </trkpt>
      <trkpt lat="43.78064" lon="1.57503">
        <ele>141.538207</ele>
        <time>2023-05-05T15:57:02.000Z</time>
      </trkpt>
      <trkpt lat="43.78061" lon="1.57498">
        <ele>141.438609</ele>
        <time>2023-05-05T15:57:03.000Z</time>
      </trkpt>
      <trkpt lat="43.78057" lon="1.57494">
        <ele>141.335192</ele>
        <time>2023-05-05T15:57:04.000Z</time>
      </trkpt>
      <trkpt lat="43.78057" lon="1.57494">
        <ele>141.335192</ele>
        <time>2023-05-05T15:57:04.000Z</time>
      </trkpt>
      <trkpt lat="43.78051" lon="1.5749">
        <ele>141.20735</ele>
        <time>2023-05-05T15:57:06.000Z</time>
      </trkpt>
      <trkpt lat="43.78045" lon="1.57488">
        <ele>141.081935</ele>
        <time>2023-05-05T15:57:07.000Z</time>
      </trkpt>
      <trkpt lat="43.78045" lon="1.57488">
        <ele>141.081935</ele>
        <time>2023-05-05T15:57:07.000Z</time>
      </trkpt>
      <trkpt lat="43.7804" lon="1.57486">
        <ele>140.986563</ele>
        <time>2023-05-05T15:57:09.000Z</time>
      </trkpt>
      <trkpt lat="43.78035" lon="1.57486">
        <ele>140.871908</ele>
        <time>2023-05-05T15:57:10.000Z</time>
      </trkpt>
      <trkpt lat="43.78035" lon="1.57486">
        <ele>140.871908</ele>
        <time>2023-05-05T15:57:10.000Z</time>
      </trkpt>
      <trkpt lat="43.78028" lon="1.57488">
        <ele>140.731678</ele>
        <time>2023-05-05T15:57:11.000Z</time>
      </trkpt>
      <trkpt lat="43.78015" lon="1.57492">
        <ele>140.471075</ele>
        <time>2023-05-05T15:57:13.000Z</time>
      </trkpt>
      <trkpt lat="43.78008" lon="1.57494">
        <ele>140.329602</ele>
        <time>2023-05-05T15:57:15.000Z</time>
      </trkpt>
      <trkpt lat="43.78008" lon="1.57494">
        <ele>140.329602</ele>
        <time>2023-05-05T15:57:15.000Z</time>
      </trkpt>
      <trkpt lat="43.78003" lon="1.57496">
        <ele>140.21008</ele>
        <time>2023-05-05T15:57:16.000Z</time>
      </trkpt>
      <trkpt lat="43.77997" lon="1.57499">
        <ele>140.089405</ele>
        <time>2023-05-05T15:57:17.000Z</time>
      </trkpt>
      <trkpt lat="43.7799" lon="1.57501">
        <ele>139.954854</ele>
        <time>2023-05-05T15:57:19.000Z</time>
      </trkpt>
      <trkpt lat="43.77984" lon="1.57502">
        <ele>139.830273</ele>
        <time>2023-05-05T15:57:20.000Z</time>
      </trkpt>
      <trkpt lat="43.77979" lon="1.57504">
        <ele>139.713027</ele>
        <time>2023-05-05T15:57:21.000Z</time>
      </trkpt>
      <trkpt lat="43.77973" lon="1.57505">
        <ele>139.598179</ele>
        <time>2023-05-05T15:57:22.000Z</time>
      </trkpt>
      <trkpt lat="43.77966" lon="1.57505">
        <ele>139.451207</ele>
        <time>2023-05-05T15:57:23.000Z</time>
      </trkpt>
      <trkpt lat="43.77959" lon="1.57505">
        <ele>139.32833</ele>
        <time>2023-05-05T15:57:25.000Z</time>
      </trkpt>
      <trkpt lat="43.77954" lon="1.57504">
        <ele>139.221596</ele>
        <time>2023-05-05T15:57:26.000Z</time>
      </trkpt>
      <trkpt lat="43.77954" lon="1.57504">
        <ele>139.221596</ele>
        <time>2023-05-05T15:57:26.000Z</time>
      </trkpt>
      <trkpt lat="43.77948" lon="1.57502">
        <ele>139.412692</ele>
        <time>2023-05-05T15:57:27.000Z</time>
      </trkpt>
      <trkpt lat="43.77945" lon="1.57501">
        <ele>139.540761</ele>
        <time>2023-05-05T15:57:28.000Z</time>
      </trkpt>
      <trkpt lat="43.77936" lon="1.57496">
        <ele>139.968672</ele>
        <time>2023-05-05T15:57:29.000Z</time>
      </trkpt>
      <trkpt lat="43.77936" lon="1.57496">
        <ele>139.968672</ele>
        <time>2023-05-05T15:57:29.000Z</time>
      </trkpt>
      <trkpt lat="43.77924" lon="1.5749">
        <ele>140.554836</ele>
        <time>2023-05-05T15:57:31.000Z</time>
      </trkpt>
      <trkpt lat="43.77919" lon="1.57487">
        <ele>140.812481</ele>
        <time>2023-05-05T15:57:33.000Z</time>
      </trkpt>
      <trkpt lat="43.77919" lon="1.57487">
        <ele>140.812481</ele>
        <time>2023-05-05T15:57:33.000Z</time>
      </trkpt>
      <trkpt lat="43.77914" lon="1.57485">
        <ele>141.065084</ele>
        <time>2023-05-05T15:57:34.000Z</time>
      </trkpt>
      <trkpt lat="43.7791" lon="1.57484">
        <ele>141.263035</ele>
        <time>2023-05-05T15:57:35.000Z</time>
      </trkpt>
      <trkpt lat="43.77904" lon="1.57482">
        <ele>141.51314</ele>
        <time>2023-05-05T15:57:36.000Z</time>
      </trkpt>
      <trkpt lat="43.77904" lon="1.57482">
        <ele>141.51314</ele>
        <time>2023-05-05T15:57:36.000Z</time>
      </trkpt>
      <trkpt lat="43.779" lon="1.57482">
        <ele>141.705624</ele>
        <time>2023-05-05T15:57:37.000Z</time>
      </trkpt>
      <trkpt lat="43.77895" lon="1.57482">
        <ele>141.912065</ele>
        <time>2023-05-05T15:57:39.000Z</time>
      </trkpt>
      <trkpt lat="43.77895" lon="1.57482">
        <ele>141.912065</ele>
        <time>2023-05-05T15:57:39.000Z</time>
      </trkpt>
      <trkpt lat="43.7789" lon="1.57482">
        <ele>142.141275</ele>
        <time>2023-05-05T15:57:40.000Z</time>
      </trkpt>
      <trkpt lat="43.77885" lon="1.57483">
        <ele>142.384496</ele>
        <time>2023-05-05T15:57:41.000Z</time>
      </trkpt>
      <trkpt lat="43.77879" lon="1.57483">
        <ele>142.651008</ele>
        <time>2023-05-05T15:57:42.000Z</time>
      </trkpt>
      <trkpt lat="43.77879" lon="1.57483">
        <ele>142.651008</ele>
        <time>2023-05-05T15:57:42.000Z</time>
      </trkpt>
      <trkpt lat="43.77874" lon="1.57484">
        <ele>142.876416</ele>
        <time>2023-05-05T15:57:43.000Z</time>
      </trkpt>
      <trkpt lat="43.7787" lon="1.57484">
        <ele>143.069892</ele>
        <time>2023-05-05T15:57:44.000Z</time>
      </trkpt>
      <trkpt lat="43.7787" lon="1.57484">
        <ele>143.069892</ele>
        <time>2023-05-05T15:57:44.000Z</time>
      </trkpt>
      <trkpt lat="43.77865" lon="1.57485">
        <ele>143.300174</ele>
        <time>2023-05-05T15:57:45.000Z</time>
      </trkpt>
      <trkpt lat="43.77861" lon="1.57486">
        <ele>143.493084</ele>
        <time>2023-05-05T15:57:46.000Z</time>
      </trkpt>
      <trkpt lat="43.77861" lon="1.57486">
        <ele>143.493084</ele>
        <time>2023-05-05T15:57:46.000Z</time>
      </trkpt>
      <trkpt lat="43.77856" lon="1.57487">
        <ele>143.706449</ele>
        <time>2023-05-05T15:57:48.000Z</time>
      </trkpt>
      <trkpt lat="43.77856" lon="1.57487">
        <ele>143.706449</ele>
        <time>2023-05-05T15:57:48.000Z</time>
      </trkpt>
      <trkpt lat="43.77852" lon="1.57487">
        <ele>143.932172</ele>
        <time>2023-05-05T15:57:49.000Z</time>
      </trkpt>
      <trkpt lat="43.77852" lon="1.57487">
        <ele>143.932172</ele>
        <time>2023-05-05T15:57:49.000Z</time>
      </trkpt>
      <trkpt lat="43.77847" lon="1.57488">
        <ele>144.144612</ele>
        <time>2023-05-05T15:57:50.000Z</time>
      </trkpt>
      <trkpt lat="43.77847" lon="1.57488">
        <ele>144.144612</ele>
        <time>2023-05-05T15:57:50.000Z</time>
      </trkpt>
      <trkpt lat="43.77843" lon="1.57489">
        <ele>144.319867</ele>
        <time>2023-05-05T15:57:51.000Z</time>
      </trkpt>
      <trkpt lat="43.77843" lon="1.57489">
        <ele>144.319867</ele>
        <time>2023-05-05T15:57:51.000Z</time>
      </trkpt>
      <trkpt lat="43.7784" lon="1.5749">
        <ele>144.465719</ele>
        <time>2023-05-05T15:57:52.000Z</time>
      </trkpt>
      <trkpt lat="43.77837" lon="1.5749">
        <ele>144.605713</ele>
        <time>2023-05-05T15:57:54.000Z</time>
      </trkpt>
      <trkpt lat="43.77837" lon="1.5749">
        <ele>144.605713</ele>
        <time>2023-05-05T15:57:54.000Z</time>
      </trkpt>
      <trkpt lat="43.77834" lon="1.57491">
        <ele>144.73014</ele>
        <time>2023-05-05T15:57:56.000Z</time>
      </trkpt>
      <trkpt lat="43.77834" lon="1.57491">
        <ele>144.73014</ele>
        <time>2023-05-05T15:57:56.000Z</time>
      </trkpt>
      <trkpt lat="43.77833" lon="1.57491">
        <ele>144.780653</ele>
        <time>2023-05-05T15:57:57.000Z</time>
      </trkpt>
      <trkpt lat="43.77833" lon="1.57491">
        <ele>144.780653</ele>
        <time>2023-05-05T15:57:57.000Z</time>
      </trkpt>
      <trkpt lat="43.77832" lon="1.5749">
        <ele>144.862506</ele>
        <time>2023-05-05T15:57:58.000Z</time>
      </trkpt>
      <trkpt lat="43.77832" lon="1.5749">
        <ele>144.862506</ele>
        <time>2023-05-05T15:57:58.000Z</time>
      </trkpt>
      <trkpt lat="43.7783" lon="1.57488">
        <ele>144.955651</ele>
        <time>2023-05-05T15:57:59.000Z</time>
      </trkpt>
      <trkpt lat="43.7783" lon="1.57488">
        <ele>144.955651</ele>
        <time>2023-05-05T15:57:59.000Z</time>
      </trkpt>
      <trkpt lat="43.77829" lon="1.57486">
        <ele>145.038832</ele>
        <time>2023-05-05T15:58:01.000Z</time>
      </trkpt>
      <trkpt lat="43.77829" lon="1.57486">
        <ele>145.038832</ele>
        <time>2023-05-05T15:58:01.000Z</time>
      </trkpt>
      <trkpt lat="43.77828" lon="1.57482">
        <ele>145.164042</ele>
        <time>2023-05-05T15:58:02.000Z</time>
      </trkpt>
      <trkpt lat="43.77828" lon="1.57482">
        <ele>145.164042</ele>
        <time>2023-05-05T15:58:02.000Z</time>
      </trkpt>
      <trkpt lat="43.77827" lon="1.57479">
        <ele>145.265208</ele>
        <time>2023-05-05T15:58:03.000Z</time>
      </trkpt>
      <trkpt lat="43.77827" lon="1.57479">
        <ele>145.265208</ele>
        <time>2023-05-05T15:58:03.000Z</time>
      </trkpt>
      <trkpt lat="43.77826" lon="1.57476">
        <ele>145.390418</ele>
        <time>2023-05-05T15:58:04.000Z</time>
      </trkpt>
      <trkpt lat="43.77826" lon="1.57476">
        <ele>145.390418</ele>
        <time>2023-05-05T15:58:04.000Z</time>
      </trkpt>
      <trkpt lat="43.77825" lon="1.57473">
        <ele>145.513684</ele>
        <time>2023-05-05T15:58:05.000Z</time>
      </trkpt>
      <trkpt lat="43.77825" lon="1.57473">
        <ele>145.513684</ele>
        <time>2023-05-05T15:58:05.000Z</time>
      </trkpt>
      <trkpt lat="43.77823" lon="1.57469">
        <ele>145.64551</ele>
        <time>2023-05-05T15:58:06.000Z</time>
      </trkpt>
      <trkpt lat="43.77823" lon="1.57469">
        <ele>145.64551</ele>
        <time>2023-05-05T15:58:06.000Z</time>
      </trkpt>
      <trkpt lat="43.77821" lon="1.57465">
        <ele>145.814689</ele>
        <time>2023-05-05T15:58:08.000Z</time>
      </trkpt>
      <trkpt lat="43.77821" lon="1.57465">
        <ele>145.814689</ele>
        <time>2023-05-05T15:58:08.000Z</time>
      </trkpt>
      <trkpt lat="43.77818" lon="1.5746">
        <ele>146.042732</ele>
        <time>2023-05-05T15:58:09.000Z</time>
      </trkpt>
      <trkpt lat="43.77818" lon="1.5746">
        <ele>146.042732</ele>
        <time>2023-05-05T15:58:09.000Z</time>
      </trkpt>
      <trkpt lat="43.77815" lon="1.57456">
        <ele>146.245374</ele>
        <time>2023-05-05T15:58:10.000Z</time>
      </trkpt>
      <trkpt lat="43.77815" lon="1.57456">
        <ele>146.245374</ele>
        <time>2023-05-05T15:58:10.000Z</time>
      </trkpt>
      <trkpt lat="43.77811" lon="1.57451">
        <ele>146.451152</ele>
        <time>2023-05-05T15:58:10.000Z</time>
      </trkpt>
      <trkpt lat="43.77811" lon="1.57451">
        <ele>146.451152</ele>
        <time>2023-05-05T15:58:10.000Z</time>
      </trkpt>
      <trkpt lat="43.77808" lon="1.57447">
        <ele>146.648983</ele>
        <time>2023-05-05T15:58:12.000Z</time>
      </trkpt>
      <trkpt lat="43.77808" lon="1.57447">
        <ele>146.648983</ele>
        <time>2023-05-05T15:58:12.000Z</time>
      </trkpt>
      <trkpt lat="43.77806" lon="1.57443">
        <ele>146.820763</ele>
        <time>2023-05-05T15:58:13.000Z</time>
      </trkpt>
      <trkpt lat="43.77806" lon="1.57443">
        <ele>146.820763</ele>
        <time>2023-05-05T15:58:13.000Z</time>
      </trkpt>
      <trkpt lat="43.77803" lon="1.57439">
        <ele>146.994811</ele>
        <time>2023-05-05T15:58:14.000Z</time>
      </trkpt>
      <trkpt lat="43.77803" lon="1.57439">
        <ele>146.994811</ele>
        <time>2023-05-05T15:58:14.000Z</time>
      </trkpt>
      <trkpt lat="43.778" lon="1.57435">
        <ele>147.197453</ele>
        <time>2023-05-05T15:58:16.000Z</time>
      </trkpt>
      <trkpt lat="43.778" lon="1.57435">
        <ele>147.197453</ele>
        <time>2023-05-05T15:58:16.000Z</time>
      </trkpt>
      <trkpt lat="43.77799" lon="1.57432">
        <ele>147.331987</ele>
        <time>2023-05-05T15:58:17.000Z</time>
      </trkpt>
      <trkpt lat="43.77799" lon="1.57432">
        <ele>147.331987</ele>
        <time>2023-05-05T15:58:17.000Z</time>
      </trkpt>
      <trkpt lat="43.77796" lon="1.57428">
        <ele>147.492555</ele>
        <time>2023-05-05T15:58:18.000Z</time>
      </trkpt>
      <trkpt lat="43.77796" lon="1.57428">
        <ele>147.492555</ele>
        <time>2023-05-05T15:58:18.000Z</time>
      </trkpt>
      <trkpt lat="43.77793" lon="1.57424">
        <ele>147.732898</ele>
        <time>2023-05-05T15:58:18.000Z</time>
      </trkpt>
      <trkpt lat="43.77793" lon="1.57424">
        <ele>147.732898</ele>
        <time>2023-05-05T15:58:18.000Z</time>
      </trkpt>
      <trkpt lat="43.77791" lon="1.5742">
        <ele>147.945312</ele>
        <time>2023-05-05T15:58:19.000Z</time>
      </trkpt>
      <trkpt lat="43.77791" lon="1.5742">
        <ele>147.945312</ele>
        <time>2023-05-05T15:58:19.000Z</time>
      </trkpt>
      <trkpt lat="43.77788" lon="1.57418">
        <ele>148.112411</ele>
        <time>2023-05-05T15:58:21.000Z</time>
      </trkpt>
      <trkpt lat="43.77788" lon="1.57418">
        <ele>148.112411</ele>
        <time>2023-05-05T15:58:21.000Z</time>
      </trkpt>
      <trkpt lat="43.77785" lon="1.57414">
        <ele>148.35403</ele>
        <time>2023-05-05T15:58:22.000Z</time>
      </trkpt>
      <trkpt lat="43.77785" lon="1.57414">
        <ele>148.35403</ele>
        <time>2023-05-05T15:58:22.000Z</time>
      </trkpt>
      <trkpt lat="43.77782" lon="1.57411">
        <ele>148.561474</ele>
        <time>2023-05-05T15:58:24.000Z</time>
      </trkpt>
      <trkpt lat="43.77782" lon="1.57411">
        <ele>148.561474</ele>
        <time>2023-05-05T15:58:24.000Z</time>
      </trkpt>
      <trkpt lat="43.77778" lon="1.57407">
        <ele>148.841721</ele>
        <time>2023-05-05T15:58:24.000Z</time>
      </trkpt>
      <trkpt lat="43.77778" lon="1.57407">
        <ele>148.841721</ele>
        <time>2023-05-05T15:58:24.000Z</time>
      </trkpt>
      <trkpt lat="43.77775" lon="1.57404">
        <ele>149.038671</ele>
        <time>2023-05-05T15:58:25.000Z</time>
      </trkpt>
      <trkpt lat="43.77775" lon="1.57404">
        <ele>149.038671</ele>
        <time>2023-05-05T15:58:25.000Z</time>
      </trkpt>
      <trkpt lat="43.77772" lon="1.57399">
        <ele>149.286719</ele>
        <time>2023-05-05T15:58:27.000Z</time>
      </trkpt>
      <trkpt lat="43.77772" lon="1.57399">
        <ele>149.286719</ele>
        <time>2023-05-05T15:58:27.000Z</time>
      </trkpt>
      <trkpt lat="43.7777" lon="1.57395">
        <ele>149.49134</ele>
        <time>2023-05-05T15:58:28.000Z</time>
      </trkpt>
      <trkpt lat="43.7777" lon="1.57395">
        <ele>149.49134</ele>
        <time>2023-05-05T15:58:28.000Z</time>
      </trkpt>
      <trkpt lat="43.77767" lon="1.57392">
        <ele>149.686713</ele>
        <time>2023-05-05T15:58:29.000Z</time>
      </trkpt>
      <trkpt lat="43.77767" lon="1.57392">
        <ele>149.686713</ele>
        <time>2023-05-05T15:58:29.000Z</time>
      </trkpt>
      <trkpt lat="43.77765" lon="1.57388">
        <ele>149.855611</ele>
        <time>2023-05-05T15:58:30.000Z</time>
      </trkpt>
      <trkpt lat="43.77765" lon="1.57388">
        <ele>149.855611</ele>
        <time>2023-05-05T15:58:30.000Z</time>
      </trkpt>
      <trkpt lat="43.77762" lon="1.57384">
        <ele>150.090428</ele>
        <time>2023-05-05T15:58:32.000Z</time>
      </trkpt>
      <trkpt lat="43.77762" lon="1.57384">
        <ele>150.090428</ele>
        <time>2023-05-05T15:58:32.000Z</time>
      </trkpt>
      <trkpt lat="43.77759" lon="1.5738">
        <ele>150.324014</ele>
        <time>2023-05-05T15:58:33.000Z</time>
      </trkpt>
      <trkpt lat="43.77759" lon="1.5738">
        <ele>150.324014</ele>
        <time>2023-05-05T15:58:33.000Z</time>
      </trkpt>
      <trkpt lat="43.77754" lon="1.57375">
        <ele>150.677892</ele>
        <time>2023-05-05T15:58:34.000Z</time>
      </trkpt>
      <trkpt lat="43.77754" lon="1.57375">
        <ele>150.677892</ele>
        <time>2023-05-05T15:58:34.000Z</time>
      </trkpt>
      <trkpt lat="43.77754" lon="1.57375">
        <ele>150.677892</ele>
        <time>2023-05-05T15:58:35.000Z</time>
      </trkpt>
      <trkpt lat="43.77741" lon="1.57359">
        <ele>151.620796</ele>
        <time>2023-05-05T15:58:37.000Z</time>
      </trkpt>
      <trkpt lat="43.77741" lon="1.57359">
        <ele>151.620796</ele>
        <time>2023-05-05T15:58:37.000Z</time>
      </trkpt>
      <trkpt lat="43.77737" lon="1.57355">
        <ele>151.910263</ele>
        <time>2023-05-05T15:58:38.000Z</time>
      </trkpt>
      <trkpt lat="43.77737" lon="1.57355">
        <ele>151.910263</ele>
        <time>2023-05-05T15:58:38.000Z</time>
      </trkpt>
      <trkpt lat="43.77737" lon="1.57355">
        <ele>151.910263</ele>
        <time>2023-05-05T15:58:39.000Z</time>
      </trkpt>
      <trkpt lat="43.7773" lon="1.57349">
        <ele>152.354979</ele>
        <time>2023-05-05T15:58:40.000Z</time>
      </trkpt>
      <trkpt lat="43.7773" lon="1.57349">
        <ele>152.354979</ele>
        <time>2023-05-05T15:58:40.000Z</time>
      </trkpt>
      <trkpt lat="43.77723" lon="1.57344">
        <ele>152.788441</ele>
        <time>2023-05-05T15:58:41.000Z</time>
      </trkpt>
      <trkpt lat="43.77723" lon="1.57344">
        <ele>152.788441</ele>
        <time>2023-05-05T15:58:41.000Z</time>
      </trkpt>
      <trkpt lat="43.77723" lon="1.57344">
        <ele>152.788441</ele>
        <time>2023-05-05T15:58:42.000Z</time>
      </trkpt>
      <trkpt lat="43.77715" lon="1.57339">
        <ele>153.325174</ele>
        <time>2023-05-05T15:58:43.000Z</time>
      </trkpt>
      <trkpt lat="43.77715" lon="1.57339">
        <ele>153.325174</ele>
        <time>2023-05-05T15:58:43.000Z</time>
      </trkpt>
      <trkpt lat="43.77715" lon="1.57339">
        <ele>153.325174</ele>
        <time>2023-05-05T15:58:44.000Z</time>
      </trkpt>
      <trkpt lat="43.77705" lon="1.57327">
        <ele>154.04646</ele>
        <time>2023-05-05T15:58:45.000Z</time>
      </trkpt>
      <trkpt lat="43.77705" lon="1.57327">
        <ele>154.04646</ele>
        <time>2023-05-05T15:58:45.000Z</time>
      </trkpt>
      <trkpt lat="43.77702" lon="1.57325">
        <ele>154.203686</ele>
        <time>2023-05-05T15:58:46.000Z</time>
      </trkpt>
      <trkpt lat="43.77703" lon="1.57326">
        <ele>154.266163</ele>
        <time>2023-05-05T15:58:48.000Z</time>
      </trkpt>
      <trkpt lat="43.77703" lon="1.57326">
        <ele>154.266163</ele>
        <time>2023-05-05T15:58:48.000Z</time>
      </trkpt>
      <trkpt lat="43.777" lon="1.57323">
        <ele>154.477661</ele>
        <time>2023-05-05T15:58:49.000Z</time>
      </trkpt>
      <trkpt lat="43.777" lon="1.57323">
        <ele>154.477661</ele>
        <time>2023-05-05T15:58:49.000Z</time>
      </trkpt>
      <trkpt lat="43.77695" lon="1.5732">
        <ele>154.766636</ele>
        <time>2023-05-05T15:58:50.000Z</time>
      </trkpt>
      <trkpt lat="43.77695" lon="1.5732">
        <ele>154.766636</ele>
        <time>2023-05-05T15:58:50.000Z</time>
      </trkpt>
      <trkpt lat="43.77688" lon="1.57316">
        <ele>155.178172</ele>
        <time>2023-05-05T15:58:51.000Z</time>
      </trkpt>
      <trkpt lat="43.77688" lon="1.57316">
        <ele>155.178172</ele>
        <time>2023-05-05T15:58:51.000Z</time>
      </trkpt>
      <trkpt lat="43.77679" lon="1.57308">
        <ele>155.769191</ele>
        <time>2023-05-05T15:58:53.000Z</time>
      </trkpt>
      <trkpt lat="43.77679" lon="1.57308">
        <ele>155.769191</ele>
        <time>2023-05-05T15:58:53.000Z</time>
      </trkpt>
      <trkpt lat="43.77671" lon="1.57302">
        <ele>156.281219</ele>
        <time>2023-05-05T15:58:54.000Z</time>
      </trkpt>
      <trkpt lat="43.77671" lon="1.57302">
        <ele>156.281219</ele>
        <time>2023-05-05T15:58:54.000Z</time>
      </trkpt>
      <trkpt lat="43.77671" lon="1.57302">
        <ele>156.281219</ele>
        <time>2023-05-05T15:58:55.000Z</time>
      </trkpt>
      <trkpt lat="43.7766" lon="1.57295">
        <ele>156.938784</ele>
        <time>2023-05-05T15:58:56.000Z</time>
      </trkpt>
      <trkpt lat="43.7766" lon="1.57295">
        <ele>156.938784</ele>
        <time>2023-05-05T15:58:56.000Z</time>
      </trkpt>
      <trkpt lat="43.77655" lon="1.57291">
        <ele>157.280086</ele>
        <time>2023-05-05T15:58:57.000Z</time>
      </trkpt>
      <trkpt lat="43.77655" lon="1.57291">
        <ele>157.280086</ele>
        <time>2023-05-05T15:58:58.000Z</time>
      </trkpt>
      <trkpt lat="43.77646" lon="1.5728">
        <ele>157.572403</ele>
        <time>2023-05-05T15:58:59.000Z</time>
      </trkpt>
      <trkpt lat="43.77646" lon="1.5728">
        <ele>157.572403</ele>
        <time>2023-05-05T15:58:59.000Z</time>
      </trkpt>
      <trkpt lat="43.77643" lon="1.57275">
        <ele>157.655692</ele>
        <time>2023-05-05T15:59:01.000Z</time>
      </trkpt>
      <trkpt lat="43.77643" lon="1.57275">
        <ele>157.655692</ele>
        <time>2023-05-05T15:59:01.000Z</time>
      </trkpt>
      <trkpt lat="43.77641" lon="1.57272">
        <ele>157.704731</ele>
        <time>2023-05-05T15:59:02.000Z</time>
      </trkpt>
      <trkpt lat="43.77641" lon="1.57272">
        <ele>157.704731</ele>
        <time>2023-05-05T15:59:02.000Z</time>
      </trkpt>
      <trkpt lat="43.77637" lon="1.57266">
        <ele>157.799161</ele>
        <time>2023-05-05T15:59:04.000Z</time>
      </trkpt>
      <trkpt lat="43.77633" lon="1.57262">
        <ele>157.881944</ele>
        <time>2023-05-05T15:59:05.000Z</time>
      </trkpt>
      <trkpt lat="43.77633" lon="1.57262">
        <ele>157.881944</ele>
        <time>2023-05-05T15:59:05.000Z</time>
      </trkpt>
      <trkpt lat="43.77631" lon="1.5726">
        <ele>157.928271</ele>
        <time>2023-05-05T15:59:06.000Z</time>
      </trkpt>
      <trkpt lat="43.77631" lon="1.5726">
        <ele>157.928271</ele>
        <time>2023-05-05T15:59:06.000Z</time>
      </trkpt>
      <trkpt lat="43.77628" lon="1.57256">
        <ele>158.008836</ele>
        <time>2023-05-05T15:59:07.000Z</time>
      </trkpt>
      <trkpt lat="43.77628" lon="1.57256">
        <ele>158.012593</ele>
        <time>2023-05-05T15:59:08.000Z</time>
      </trkpt>
      <trkpt lat="43.77609" lon="1.57233">
        <ele>158.437017</ele>
        <time>2023-05-05T15:59:10.000Z</time>
      </trkpt>
      <trkpt lat="43.77609" lon="1.57233">
        <ele>158.437017</ele>
        <time>2023-05-05T15:59:10.000Z</time>
      </trkpt>
      <trkpt lat="43.77602" lon="1.57227">
        <ele>158.577009</ele>
        <time>2023-05-05T15:59:12.000Z</time>
      </trkpt>
      <trkpt lat="43.77602" lon="1.57227">
        <ele>158.577009</ele>
        <time>2023-05-05T15:59:12.000Z</time>
      </trkpt>
      <trkpt lat="43.77601" lon="1.57226">
        <ele>158.607054</ele>
        <time>2023-05-05T15:59:14.000Z</time>
      </trkpt>
      <trkpt lat="43.77601" lon="1.57226">
        <ele>158.607054</ele>
        <time>2023-05-05T15:59:14.000Z</time>
      </trkpt>
      <trkpt lat="43.77597" lon="1.57223">
        <ele>158.67911</ele>
        <time>2023-05-05T15:59:14.000Z</time>
      </trkpt>
      <trkpt lat="43.77597" lon="1.57223">
        <ele>158.67911</ele>
        <time>2023-05-05T15:59:14.000Z</time>
      </trkpt>
      <trkpt lat="43.77593" lon="1.57221">
        <ele>158.756141</ele>
        <time>2023-05-05T15:59:16.000Z</time>
      </trkpt>
      <trkpt lat="43.77582" lon="1.57215">
        <ele>158.959842</ele>
        <time>2023-05-05T15:59:18.000Z</time>
      </trkpt>
      <trkpt lat="43.77582" lon="1.57215">
        <ele>158.959842</ele>
        <time>2023-05-05T15:59:18.000Z</time>
      </trkpt>
      <trkpt lat="43.77576" lon="1.57212">
        <ele>159.081729</ele>
        <time>2023-05-05T15:59:18.000Z</time>
      </trkpt>
      <trkpt lat="43.77564" lon="1.57206">
        <ele>159.292338</ele>
        <time>2023-05-05T15:59:20.000Z</time>
      </trkpt>
      <trkpt lat="43.77564" lon="1.57206">
        <ele>159.292338</ele>
        <time>2023-05-05T15:59:20.000Z</time>
      </trkpt>
      <trkpt lat="43.77567" lon="1.57208">
        <ele>159.349717</ele>
        <time>2023-05-05T15:59:22.000Z</time>
      </trkpt>
      <trkpt lat="43.77558" lon="1.572">
        <ele>159.534242</ele>
        <time>2023-05-05T15:59:23.000Z</time>
      </trkpt>
      <trkpt lat="43.77558" lon="1.572">
        <ele>159.534242</ele>
        <time>2023-05-05T15:59:23.000Z</time>
      </trkpt>
      <trkpt lat="43.77559" lon="1.57202">
        <ele>159.558614</ele>
        <time>2023-05-05T15:59:24.000Z</time>
      </trkpt>
      <trkpt lat="43.77546" lon="1.5719">
        <ele>159.822423</ele>
        <time>2023-05-05T15:59:26.000Z</time>
      </trkpt>
      <trkpt lat="43.77546" lon="1.5719">
        <ele>159.822423</ele>
        <time>2023-05-05T15:59:26.000Z</time>
      </trkpt>
      <trkpt lat="43.7754" lon="1.57184">
        <ele>159.951469</ele>
        <time>2023-05-05T15:59:27.000Z</time>
      </trkpt>
      <trkpt lat="43.77534" lon="1.57177">
        <ele>160.09505</ele>
        <time>2023-05-05T15:59:28.000Z</time>
      </trkpt>
      <trkpt lat="43.77527" lon="1.57171">
        <ele>160.236254</ele>
        <time>2023-05-05T15:59:30.000Z</time>
      </trkpt>
      <trkpt lat="43.77524" lon="1.57167">
        <ele>160.307618</ele>
        <time>2023-05-05T15:59:32.000Z</time>
      </trkpt>
      <trkpt lat="43.77524" lon="1.57167">
        <ele>160.307618</ele>
        <time>2023-05-05T15:59:32.000Z</time>
      </trkpt>
      <trkpt lat="43.77512" lon="1.5716">
        <ele>160.520441</ele>
        <time>2023-05-05T15:59:33.000Z</time>
      </trkpt>
      <trkpt lat="43.77507" lon="1.57156">
        <ele>160.545006</ele>
        <time>2023-05-05T15:59:35.000Z</time>
      </trkpt>
      <trkpt lat="43.77494" lon="1.57146">
        <ele>160.608026</ele>
        <time>2023-05-05T15:59:36.000Z</time>
      </trkpt>
      <trkpt lat="43.77494" lon="1.57146">
        <ele>160.608026</ele>
        <time>2023-05-05T15:59:36.000Z</time>
      </trkpt>
      <trkpt lat="43.77482" lon="1.57133">
        <ele>160.67494</ele>
        <time>2023-05-05T15:59:38.000Z</time>
      </trkpt>
      <trkpt lat="43.77476" lon="1.57126">
        <ele>160.709181</ele>
        <time>2023-05-05T15:59:39.000Z</time>
      </trkpt>
      <trkpt lat="43.77467" lon="1.57109">
        <ele>160.776129</ele>
        <time>2023-05-05T15:59:41.000Z</time>
      </trkpt>
      <trkpt lat="43.77467" lon="1.57109">
        <ele>160.776129</ele>
        <time>2023-05-05T15:59:42.000Z</time>
      </trkpt>
      <trkpt lat="43.77465" lon="1.57107">
        <ele>160.784079</ele>
        <time>2023-05-05T15:59:43.000Z</time>
      </trkpt>
      <trkpt lat="43.77459" lon="1.57096">
        <ele>160.826093</ele>
        <time>2023-05-05T15:59:45.000Z</time>
      </trkpt>
      <trkpt lat="43.77459" lon="1.57094">
        <ele>160.834995</ele>
        <time>2023-05-05T15:59:47.000Z</time>
      </trkpt>
      <trkpt lat="43.77456" lon="1.57083">
        <ele>160.871045</ele>
        <time>2023-05-05T15:59:47.000Z</time>
      </trkpt>
      <trkpt lat="43.77456" lon="1.57083">
        <ele>160.871045</ele>
        <time>2023-05-05T15:59:47.000Z</time>
      </trkpt>
      <trkpt lat="43.77456" lon="1.57078">
        <ele>160.885008</ele>
        <time>2023-05-05T15:59:49.000Z</time>
      </trkpt>
      <trkpt lat="43.77457" lon="1.57074">
        <ele>160.899547</ele>
        <time>2023-05-05T15:59:50.000Z</time>
      </trkpt>
      <trkpt lat="43.77461" lon="1.57071">
        <ele>160.91635</ele>
        <time>2023-05-05T15:59:51.000Z</time>
      </trkpt>
      <trkpt lat="43.77463" lon="1.57068">
        <ele>160.930892</ele>
        <time>2023-05-05T15:59:53.000Z</time>
      </trkpt>
      <trkpt lat="43.77468" lon="1.57064">
        <ele>160.954967</ele>
        <time>2023-05-05T15:59:53.000Z</time>
      </trkpt>
      <trkpt lat="43.77468" lon="1.57064">
        <ele>160.954967</ele>
        <time>2023-05-05T15:59:53.000Z</time>
      </trkpt>
      <trkpt lat="43.77474" lon="1.57062">
        <ele>160.980314</ele>
        <time>2023-05-05T15:59:54.000Z</time>
      </trkpt>
      <trkpt lat="43.77478" lon="1.57059">
        <ele>161.000481</ele>
        <time>2023-05-05T15:59:56.000Z</time>
      </trkpt>
      <trkpt lat="43.77483" lon="1.57056">
        <ele>161.025845</ele>
        <time>2023-05-05T15:59:56.000Z</time>
      </trkpt>
      <trkpt lat="43.77489" lon="1.57052">
        <ele>161.051077</ele>
        <time>2023-05-05T15:59:57.000Z</time>
      </trkpt>
      <trkpt lat="43.77496" lon="1.57046">
        <ele>161.087291</ele>
        <time>2023-05-05T15:59:59.000Z</time>
      </trkpt>
      <trkpt lat="43.77499" lon="1.57042">
        <ele>161.103949</ele>
        <time>2023-05-05T16:00:01.000Z</time>
      </trkpt>
      <trkpt lat="43.77502" lon="1.57038">
        <ele>161.123911</ele>
        <time>2023-05-05T16:00:02.000Z</time>
      </trkpt>
      <trkpt lat="43.77507" lon="1.57033">
        <ele>161.147914</ele>
        <time>2023-05-05T16:00:03.000Z</time>
      </trkpt>
      <trkpt lat="43.77511" lon="1.57028">
        <ele>161.174647</ele>
        <time>2023-05-05T16:00:04.000Z</time>
      </trkpt>
      <trkpt lat="43.77515" lon="1.57022">
        <ele>161.198651</ele>
        <time>2023-05-05T16:00:05.000Z</time>
      </trkpt>
      <trkpt lat="43.77521" lon="1.57016">
        <ele>161.229193</ele>
        <time>2023-05-05T16:00:06.000Z</time>
      </trkpt>
      <trkpt lat="43.77527" lon="1.5701">
        <ele>161.262232</ele>
        <time>2023-05-05T16:00:08.000Z</time>
      </trkpt>
      <trkpt lat="43.77538" lon="1.57003">
        <ele>161.228019</ele>
        <time>2023-05-05T16:00:09.000Z</time>
      </trkpt>
      <trkpt lat="43.77547" lon="1.56997">
        <ele>161.111628</ele>
        <time>2023-05-05T16:00:10.000Z</time>
      </trkpt>
      <trkpt lat="43.77556" lon="1.56992">
        <ele>160.996017</ele>
        <time>2023-05-05T16:00:12.000Z</time>
      </trkpt>
      <trkpt lat="43.77556" lon="1.56992">
        <ele>160.996017</ele>
        <time>2023-05-05T16:00:12.000Z</time>
      </trkpt>
      <trkpt lat="43.77562" lon="1.56989">
        <ele>160.92238</ele>
        <time>2023-05-05T16:00:14.000Z</time>
      </trkpt>
      <trkpt lat="43.7757" lon="1.56985">
        <ele>160.827184</ele>
        <time>2023-05-05T16:00:14.000Z</time>
      </trkpt>
      <trkpt lat="43.77586" lon="1.56973">
        <ele>160.622392</ele>
        <time>2023-05-05T16:00:16.000Z</time>
      </trkpt>
      <trkpt lat="43.77593" lon="1.56967">
        <ele>160.533072</ele>
        <time>2023-05-05T16:00:18.000Z</time>
      </trkpt>
      <trkpt lat="43.77593" lon="1.56967">
        <ele>160.533072</ele>
        <time>2023-05-05T16:00:18.000Z</time>
      </trkpt>
      <trkpt lat="43.77597" lon="1.56962">
        <ele>160.467953</ele>
        <time>2023-05-05T16:00:19.000Z</time>
      </trkpt>
      <trkpt lat="43.77608" lon="1.56952">
        <ele>160.317763</ele>
        <time>2023-05-05T16:00:21.000Z</time>
      </trkpt>
      <trkpt lat="43.77615" lon="1.56946">
        <ele>160.22798</ele>
        <time>2023-05-05T16:00:22.000Z</time>
      </trkpt>
      <trkpt lat="43.77615" lon="1.56946">
        <ele>160.22798</ele>
        <time>2023-05-05T16:00:22.000Z</time>
      </trkpt>
      <trkpt lat="43.77622" lon="1.56939">
        <ele>160.122766</ele>
        <time>2023-05-05T16:00:23.000Z</time>
      </trkpt>
      <trkpt lat="43.77631" lon="1.56928">
        <ele>159.994593</ele>
        <time>2023-05-05T16:00:25.000Z</time>
      </trkpt>
      <trkpt lat="43.77631" lon="1.56928">
        <ele>159.994593</ele>
        <time>2023-05-05T16:00:25.000Z</time>
      </trkpt>
      <trkpt lat="43.77637" lon="1.56921">
        <ele>159.903949</ele>
        <time>2023-05-05T16:00:27.000Z</time>
      </trkpt>
      <trkpt lat="43.77643" lon="1.56913">
        <ele>159.808381</ele>
        <time>2023-05-05T16:00:27.000Z</time>
      </trkpt>
      <trkpt lat="43.77643" lon="1.56913">
        <ele>159.808381</ele>
        <time>2023-05-05T16:00:28.000Z</time>
      </trkpt>
      <trkpt lat="43.77648" lon="1.56908">
        <ele>159.738225</ele>
        <time>2023-05-05T16:00:29.000Z</time>
      </trkpt>
      <trkpt lat="43.77655" lon="1.56901">
        <ele>159.636229</ele>
        <time>2023-05-05T16:00:30.000Z</time>
      </trkpt>
      <trkpt lat="43.77655" lon="1.56901">
        <ele>159.636229</ele>
        <time>2023-05-05T16:00:30.000Z</time>
      </trkpt>
      <trkpt lat="43.77655" lon="1.56901">
        <ele>159.636229</ele>
        <time>2023-05-05T16:00:31.000Z</time>
      </trkpt>
      <trkpt lat="43.77667" lon="1.56892">
        <ele>159.480128</ele>
        <time>2023-05-05T16:00:32.000Z</time>
      </trkpt>
      <trkpt lat="43.77675" lon="1.56887">
        <ele>159.380538</ele>
        <time>2023-05-05T16:00:33.000Z</time>
      </trkpt>
      <trkpt lat="43.77675" lon="1.56887">
        <ele>159.380538</ele>
        <time>2023-05-05T16:00:33.000Z</time>
      </trkpt>
      <trkpt lat="43.77684" lon="1.56883">
        <ele>159.279142</ele>
        <time>2023-05-05T16:00:35.000Z</time>
      </trkpt>
      <trkpt lat="43.77684" lon="1.56883">
        <ele>159.279142</ele>
        <time>2023-05-05T16:00:35.000Z</time>
      </trkpt>
      <trkpt lat="43.77684" lon="1.56883">
        <ele>159.279142</ele>
        <time>2023-05-05T16:00:36.000Z</time>
      </trkpt>
      <trkpt lat="43.777" lon="1.56873">
        <ele>158.471483</ele>
        <time>2023-05-05T16:00:37.000Z</time>
      </trkpt>
      <trkpt lat="43.777" lon="1.56873">
        <ele>158.471483</ele>
        <time>2023-05-05T16:00:37.000Z</time>
      </trkpt>
      <trkpt lat="43.777" lon="1.56873">
        <ele>158.471483</ele>
        <time>2023-05-05T16:00:37.000Z</time>
      </trkpt>
      <trkpt lat="43.77707" lon="1.56865">
        <ele>158.016264</ele>
        <time>2023-05-05T16:00:38.000Z</time>
      </trkpt>
      <trkpt lat="43.77707" lon="1.56865">
        <ele>158.016264</ele>
        <time>2023-05-05T16:00:38.000Z</time>
      </trkpt>
      <trkpt lat="43.7771" lon="1.5686">
        <ele>157.758398</ele>
        <time>2023-05-05T16:00:39.000Z</time>
      </trkpt>
      <trkpt lat="43.7771" lon="1.5686">
        <ele>157.758398</ele>
        <time>2023-05-05T16:00:39.000Z</time>
      </trkpt>
      <trkpt lat="43.7771" lon="1.5686">
        <ele>157.758398</ele>
        <time>2023-05-05T16:00:41.000Z</time>
      </trkpt>
      <trkpt lat="43.77716" lon="1.56852">
        <ele>157.321032</ele>
        <time>2023-05-05T16:00:42.000Z</time>
      </trkpt>
      <trkpt lat="43.77716" lon="1.56852">
        <ele>157.321032</ele>
        <time>2023-05-05T16:00:42.000Z</time>
      </trkpt>
      <trkpt lat="43.77716" lon="1.56852">
        <ele>157.321032</ele>
        <time>2023-05-05T16:00:42.000Z</time>
      </trkpt>
      <trkpt lat="43.77737" lon="1.56824">
        <ele>155.798208</ele>
        <time>2023-05-05T16:00:44.000Z</time>
      </trkpt>
      <trkpt lat="43.77737" lon="1.56824">
        <ele>155.798208</ele>
        <time>2023-05-05T16:00:44.000Z</time>
      </trkpt>
      <trkpt lat="43.77737" lon="1.56824">
        <ele>155.798208</ele>
        <time>2023-05-05T16:00:44.000Z</time>
      </trkpt>
      <trkpt lat="43.77741" lon="1.56821">
        <ele>155.601321</ele>
        <time>2023-05-05T16:00:45.000Z</time>
      </trkpt>
      <trkpt lat="43.77741" lon="1.56821">
        <ele>155.601321</ele>
        <time>2023-05-05T16:00:45.000Z</time>
      </trkpt>
      <trkpt lat="43.7775" lon="1.56812">
        <ele>155.004211</ele>
        <time>2023-05-05T16:00:46.000Z</time>
      </trkpt>
      <trkpt lat="43.7775" lon="1.56812">
        <ele>155.004211</ele>
        <time>2023-05-05T16:00:46.000Z</time>
      </trkpt>
      <trkpt lat="43.77756" lon="1.56808">
        <ele>154.655989</ele>
        <time>2023-05-05T16:00:47.000Z</time>
      </trkpt>
      <trkpt lat="43.77756" lon="1.56808">
        <ele>154.655989</ele>
        <time>2023-05-05T16:00:47.000Z</time>
      </trkpt>
      <trkpt lat="43.77756" lon="1.56808">
        <ele>154.655989</ele>
        <time>2023-05-05T16:00:48.000Z</time>
      </trkpt>
      <trkpt lat="43.77763" lon="1.56806">
        <ele>154.310133</ele>
        <time>2023-05-05T16:00:50.000Z</time>
      </trkpt>
      <trkpt lat="43.77763" lon="1.56806">
        <ele>154.310133</ele>
        <time>2023-05-05T16:00:50.000Z</time>
      </trkpt>
      <trkpt lat="43.77766" lon="1.56804">
        <ele>154.116319</ele>
        <time>2023-05-05T16:00:51.000Z</time>
      </trkpt>
      <trkpt lat="43.77766" lon="1.56804">
        <ele>154.116319</ele>
        <time>2023-05-05T16:00:51.000Z</time>
      </trkpt>
      <trkpt lat="43.77766" lon="1.56804">
        <ele>154.116319</ele>
        <time>2023-05-05T16:00:52.000Z</time>
      </trkpt>
      <trkpt lat="43.77771" lon="1.56802">
        <ele>153.817427</ele>
        <time>2023-05-05T16:00:53.000Z</time>
      </trkpt>
      <trkpt lat="43.77771" lon="1.56802">
        <ele>153.817427</ele>
        <time>2023-05-05T16:00:53.000Z</time>
      </trkpt>
      <trkpt lat="43.77776" lon="1.56799">
        <ele>153.584955</ele>
        <time>2023-05-05T16:00:53.000Z</time>
      </trkpt>
      <trkpt lat="43.77776" lon="1.56799">
        <ele>153.584955</ele>
        <time>2023-05-05T16:00:53.000Z</time>
      </trkpt>
      <trkpt lat="43.77778" lon="1.568">
        <ele>153.464684</ele>
        <time>2023-05-05T16:00:55.000Z</time>
      </trkpt>
      <trkpt lat="43.77778" lon="1.568">
        <ele>153.464684</ele>
        <time>2023-05-05T16:00:55.000Z</time>
      </trkpt>
      <trkpt lat="43.77777" lon="1.56797">
        <ele>153.340935</ele>
        <time>2023-05-05T16:00:56.000Z</time>
      </trkpt>
      <trkpt lat="43.77777" lon="1.56797">
        <ele>153.340935</ele>
        <time>2023-05-05T16:00:56.000Z</time>
      </trkpt>
      <trkpt lat="43.77777" lon="1.56797">
        <ele>153.340935</ele>
        <time>2023-05-05T16:00:58.000Z</time>
      </trkpt>
      <trkpt lat="43.77789" lon="1.56789">
        <ele>152.683876</ele>
        <time>2023-05-05T16:00:59.000Z</time>
      </trkpt>
      <trkpt lat="43.77789" lon="1.56789">
        <ele>152.683876</ele>
        <time>2023-05-05T16:00:59.000Z</time>
      </trkpt>
      <trkpt lat="43.77789" lon="1.56789">
        <ele>152.683876</ele>
        <time>2023-05-05T16:01:00.000Z</time>
      </trkpt>
      <trkpt lat="43.77804" lon="1.56779">
        <ele>151.777829</ele>
        <time>2023-05-05T16:01:01.000Z</time>
      </trkpt>
      <trkpt lat="43.77804" lon="1.56779">
        <ele>151.777829</ele>
        <time>2023-05-05T16:01:01.000Z</time>
      </trkpt>
      <trkpt lat="43.7781" lon="1.56775">
        <ele>151.465376</ele>
        <time>2023-05-05T16:01:02.000Z</time>
      </trkpt>
      <trkpt lat="43.7781" lon="1.56775">
        <ele>151.465376</ele>
        <time>2023-05-05T16:01:02.000Z</time>
      </trkpt>
      <trkpt lat="43.77813" lon="1.56771">
        <ele>151.242807</ele>
        <time>2023-05-05T16:01:04.000Z</time>
      </trkpt>
      <trkpt lat="43.77813" lon="1.56771">
        <ele>151.242807</ele>
        <time>2023-05-05T16:01:04.000Z</time>
      </trkpt>
      <trkpt lat="43.77817" lon="1.56768">
        <ele>150.979552</ele>
        <time>2023-05-05T16:01:05.000Z</time>
      </trkpt>
      <trkpt lat="43.77817" lon="1.56768">
        <ele>150.979552</ele>
        <time>2023-05-05T16:01:05.000Z</time>
      </trkpt>
      <trkpt lat="43.77821" lon="1.56764">
        <ele>150.73332</ele>
        <time>2023-05-05T16:01:06.000Z</time>
      </trkpt>
      <trkpt lat="43.77821" lon="1.56764">
        <ele>150.73332</ele>
        <time>2023-05-05T16:01:06.000Z</time>
      </trkpt>
      <trkpt lat="43.77824" lon="1.56759">
        <ele>150.493615</ele>
        <time>2023-05-05T16:01:06.000Z</time>
      </trkpt>
      <trkpt lat="43.77824" lon="1.56759">
        <ele>150.493615</ele>
        <time>2023-05-05T16:01:06.000Z</time>
      </trkpt>
      <trkpt lat="43.77829" lon="1.56754">
        <ele>150.205281</ele>
        <time>2023-05-05T16:01:08.000Z</time>
      </trkpt>
      <trkpt lat="43.77829" lon="1.56754">
        <ele>150.205281</ele>
        <time>2023-05-05T16:01:08.000Z</time>
      </trkpt>
      <trkpt lat="43.77832" lon="1.56748">
        <ele>149.908087</ele>
        <time>2023-05-05T16:01:09.000Z</time>
      </trkpt>
      <trkpt lat="43.77832" lon="1.56748">
        <ele>149.908087</ele>
        <time>2023-05-05T16:01:09.000Z</time>
      </trkpt>
      <trkpt lat="43.77836" lon="1.56744">
        <ele>149.74111</ele>
        <time>2023-05-05T16:01:10.000Z</time>
      </trkpt>
      <trkpt lat="43.77836" lon="1.56744">
        <ele>149.74111</ele>
        <time>2023-05-05T16:01:10.000Z</time>
      </trkpt>
      <trkpt lat="43.77839" lon="1.5674">
        <ele>149.578003</ele>
        <time>2023-05-05T16:01:11.000Z</time>
      </trkpt>
      <trkpt lat="43.77839" lon="1.5674">
        <ele>149.578003</ele>
        <time>2023-05-05T16:01:11.000Z</time>
      </trkpt>
      <trkpt lat="43.77841" lon="1.56736">
        <ele>149.467179</ele>
        <time>2023-05-05T16:01:13.000Z</time>
      </trkpt>
      <trkpt lat="43.77841" lon="1.56736">
        <ele>149.467179</ele>
        <time>2023-05-05T16:01:13.000Z</time>
      </trkpt>
      <trkpt lat="43.77843" lon="1.56733">
        <ele>149.359842</ele>
        <time>2023-05-05T16:01:14.000Z</time>
      </trkpt>
      <trkpt lat="43.77843" lon="1.56733">
        <ele>149.359842</ele>
        <time>2023-05-05T16:01:14.000Z</time>
      </trkpt>
      <trkpt lat="43.77845" lon="1.56729">
        <ele>149.236543</ele>
        <time>2023-05-05T16:01:16.000Z</time>
      </trkpt>
      <trkpt lat="43.77845" lon="1.56729">
        <ele>149.236543</ele>
        <time>2023-05-05T16:01:16.000Z</time>
      </trkpt>
      <trkpt lat="43.77846" lon="1.56727">
        <ele>149.166722</ele>
        <time>2023-05-05T16:01:17.000Z</time>
      </trkpt>
      <trkpt lat="43.77846" lon="1.56727">
        <ele>149.166722</ele>
        <time>2023-05-05T16:01:17.000Z</time>
      </trkpt>
      <trkpt lat="43.77848" lon="1.56723">
        <ele>149.045064</ele>
        <time>2023-05-05T16:01:17.000Z</time>
      </trkpt>
      <trkpt lat="43.77848" lon="1.56723">
        <ele>149.045064</ele>
        <time>2023-05-05T16:01:17.000Z</time>
      </trkpt>
      <trkpt lat="43.77852" lon="1.5672">
        <ele>148.913937</ele>
        <time>2023-05-05T16:01:20.000Z</time>
      </trkpt>
      <trkpt lat="43.77852" lon="1.5672">
        <ele>148.913937</ele>
        <time>2023-05-05T16:01:20.000Z</time>
      </trkpt>
      <trkpt lat="43.77853" lon="1.56719">
        <ele>148.867815</ele>
        <time>2023-05-05T16:01:21.000Z</time>
      </trkpt>
      <trkpt lat="43.77853" lon="1.56719">
        <ele>148.867815</ele>
        <time>2023-05-05T16:01:21.000Z</time>
      </trkpt>
      <trkpt lat="43.77854" lon="1.56718">
        <ele>148.815934</ele>
        <time>2023-05-05T16:01:23.000Z</time>
      </trkpt>
      <trkpt lat="43.77854" lon="1.56718">
        <ele>148.815934</ele>
        <time>2023-05-05T16:01:23.000Z</time>
      </trkpt>
      <trkpt lat="43.77855" lon="1.56717">
        <ele>148.773502</ele>
        <time>2023-05-05T16:01:24.000Z</time>
      </trkpt>
      <trkpt lat="43.77855" lon="1.56717">
        <ele>148.773502</ele>
        <time>2023-05-05T16:01:24.000Z</time>
      </trkpt>
      <trkpt lat="43.77856" lon="1.56717">
        <ele>148.72068</ele>
        <time>2023-05-05T16:01:25.000Z</time>
      </trkpt>
      <trkpt lat="43.77856" lon="1.56717">
        <ele>148.72068</ele>
        <time>2023-05-05T16:01:25.000Z</time>
      </trkpt>
      <trkpt lat="43.77858" lon="1.56718">
        <ele>148.658067</ele>
        <time>2023-05-05T16:01:26.000Z</time>
      </trkpt>
      <trkpt lat="43.77858" lon="1.56718">
        <ele>148.658067</ele>
        <time>2023-05-05T16:01:26.000Z</time>
      </trkpt>
      <trkpt lat="43.77859" lon="1.56721">
        <ele>148.588246</ele>
        <time>2023-05-05T16:01:27.000Z</time>
      </trkpt>
      <trkpt lat="43.77858" lon="1.56725">
        <ele>148.46927</ele>
        <time>2023-05-05T16:01:28.000Z</time>
      </trkpt>
      <trkpt lat="43.77858" lon="1.56725">
        <ele>148.46927</ele>
        <time>2023-05-05T16:01:28.000Z</time>
      </trkpt>
      <trkpt lat="43.77857" lon="1.56728">
        <ele>148.386862</ele>
        <time>2023-05-05T16:01:29.000Z</time>
      </trkpt>
      <trkpt lat="43.77857" lon="1.56728">
        <ele>148.386862</ele>
        <time>2023-05-05T16:01:29.000Z</time>
      </trkpt>
      <trkpt lat="43.77856" lon="1.56731">
        <ele>148.29636</ele>
        <time>2023-05-05T16:01:31.000Z</time>
      </trkpt>
      <trkpt lat="43.77856" lon="1.56731">
        <ele>148.29636</ele>
        <time>2023-05-05T16:01:31.000Z</time>
      </trkpt>
      <trkpt lat="43.77856" lon="1.56734">
        <ele>148.230851</ele>
        <time>2023-05-05T16:01:32.000Z</time>
      </trkpt>
      <trkpt lat="43.77856" lon="1.56734">
        <ele>148.230851</ele>
        <time>2023-05-05T16:01:32.000Z</time>
      </trkpt>
      <trkpt lat="43.77855" lon="1.56737">
        <ele>148.141169</ele>
        <time>2023-05-05T16:01:33.000Z</time>
      </trkpt>
      <trkpt lat="43.77855" lon="1.5674">
        <ele>148.071412</ele>
        <time>2023-05-05T16:01:34.000Z</time>
      </trkpt>
      <trkpt lat="43.77855" lon="1.5674">
        <ele>148.071412</ele>
        <time>2023-05-05T16:01:34.000Z</time>
      </trkpt>
      <trkpt lat="43.77855" lon="1.56744">
        <ele>147.979229</ele>
        <time>2023-05-05T16:01:35.000Z</time>
      </trkpt>
      <trkpt lat="43.77855" lon="1.56744">
        <ele>147.979229</ele>
        <time>2023-05-05T16:01:35.000Z</time>
      </trkpt>
      <trkpt lat="43.77854" lon="1.56746">
        <ele>147.910092</ele>
        <time>2023-05-05T16:01:36.000Z</time>
      </trkpt>
      <trkpt lat="43.77854" lon="1.56746">
        <ele>147.910092</ele>
        <time>2023-05-05T16:01:36.000Z</time>
      </trkpt>
      <trkpt lat="43.77854" lon="1.56751">
        <ele>147.790319</ele>
        <time>2023-05-05T16:01:38.000Z</time>
      </trkpt>
      <trkpt lat="43.77854" lon="1.56751">
        <ele>147.790319</ele>
        <time>2023-05-05T16:01:38.000Z</time>
      </trkpt>
      <trkpt lat="43.77853" lon="1.56756">
        <ele>147.670546</ele>
        <time>2023-05-05T16:01:39.000Z</time>
      </trkpt>
      <trkpt lat="43.77852" lon="1.56761">
        <ele>147.530979</ele>
        <time>2023-05-05T16:01:40.000Z</time>
      </trkpt>
      <trkpt lat="43.77852" lon="1.56761">
        <ele>147.530979</ele>
        <time>2023-05-05T16:01:40.000Z</time>
      </trkpt>
      <trkpt lat="43.77852" lon="1.56766">
        <ele>147.398895</ele>
        <time>2023-05-05T16:01:41.000Z</time>
      </trkpt>
      <trkpt lat="43.77852" lon="1.56766">
        <ele>147.398895</ele>
        <time>2023-05-05T16:01:41.000Z</time>
      </trkpt>
      <trkpt lat="43.7785" lon="1.56772">
        <ele>147.228434</ele>
        <time>2023-05-05T16:01:43.000Z</time>
      </trkpt>
      <trkpt lat="43.7785" lon="1.56772">
        <ele>147.228434</ele>
        <time>2023-05-05T16:01:43.000Z</time>
      </trkpt>
      <trkpt lat="43.77848" lon="1.56776">
        <ele>147.12578</ele>
        <time>2023-05-05T16:01:44.000Z</time>
      </trkpt>
      <trkpt lat="43.77846" lon="1.56782">
        <ele>146.959402</ele>
        <time>2023-05-05T16:01:46.000Z</time>
      </trkpt>
      <trkpt lat="43.77846" lon="1.56782">
        <ele>146.959402</ele>
        <time>2023-05-05T16:01:46.000Z</time>
      </trkpt>
      <trkpt lat="43.77844" lon="1.56786">
        <ele>146.831814</ele>
        <time>2023-05-05T16:01:47.000Z</time>
      </trkpt>
      <trkpt lat="43.77841" lon="1.56793">
        <ele>146.628283</ele>
        <time>2023-05-05T16:01:48.000Z</time>
      </trkpt>
      <trkpt lat="43.77841" lon="1.56793">
        <ele>146.628283</ele>
        <time>2023-05-05T16:01:48.000Z</time>
      </trkpt>
      <trkpt lat="43.77838" lon="1.56798">
        <ele>146.453629</ele>
        <time>2023-05-05T16:01:49.000Z</time>
      </trkpt>
      <trkpt lat="43.77836" lon="1.56804">
        <ele>146.286157</ele>
        <time>2023-05-05T16:01:50.000Z</time>
      </trkpt>
      <trkpt lat="43.77836" lon="1.56804">
        <ele>146.286157</ele>
        <time>2023-05-05T16:01:50.000Z</time>
      </trkpt>
      <trkpt lat="43.77834" lon="1.56809">
        <ele>146.145393</ele>
        <time>2023-05-05T16:01:51.000Z</time>
      </trkpt>
      <trkpt lat="43.77831" lon="1.56816">
        <ele>145.95733</ele>
        <time>2023-05-05T16:01:52.000Z</time>
      </trkpt>
      <trkpt lat="43.77829" lon="1.56822">
        <ele>145.769733</ele>
        <time>2023-05-05T16:01:54.000Z</time>
      </trkpt>
      <trkpt lat="43.77829" lon="1.56822">
        <ele>145.769733</ele>
        <time>2023-05-05T16:01:54.000Z</time>
      </trkpt>
      <trkpt lat="43.77826" lon="1.56827">
        <ele>145.61755</ele>
        <time>2023-05-05T16:01:55.000Z</time>
      </trkpt>
      <trkpt lat="43.77824" lon="1.56832">
        <ele>145.457497</ele>
        <time>2023-05-05T16:01:56.000Z</time>
      </trkpt>
      <trkpt lat="43.77821" lon="1.56838">
        <ele>145.281018</ele>
        <time>2023-05-05T16:01:57.000Z</time>
      </trkpt>
      <trkpt lat="43.77818" lon="1.56843">
        <ele>145.112695</ele>
        <time>2023-05-05T16:01:58.000Z</time>
      </trkpt>
      <trkpt lat="43.77816" lon="1.56847">
        <ele>144.981291</ele>
        <time>2023-05-05T16:01:59.000Z</time>
      </trkpt>
      <trkpt lat="43.77813" lon="1.56853">
        <ele>144.818237</ele>
        <time>2023-05-05T16:02:00.000Z</time>
      </trkpt>
      <trkpt lat="43.77812" lon="1.56857">
        <ele>144.699648</ele>
        <time>2023-05-05T16:02:01.000Z</time>
      </trkpt>
      <trkpt lat="43.77811" lon="1.56863">
        <ele>144.555173</ele>
        <time>2023-05-05T16:02:03.000Z</time>
      </trkpt>
      <trkpt lat="43.77811" lon="1.56863">
        <ele>144.555173</ele>
        <time>2023-05-05T16:02:03.000Z</time>
      </trkpt>
      <trkpt lat="43.7781" lon="1.56868">
        <ele>144.431238</ele>
        <time>2023-05-05T16:02:04.000Z</time>
      </trkpt>
      <trkpt lat="43.77811" lon="1.56869">
        <ele>144.385987</ele>
        <time>2023-05-05T16:02:06.000Z</time>
      </trkpt>
      <trkpt lat="43.77815" lon="1.56887">
        <ele>143.924059</ele>
        <time>2023-05-05T16:02:08.000Z</time>
      </trkpt>
      <trkpt lat="43.77819" lon="1.56898">
        <ele>143.615441</ele>
        <time>2023-05-05T16:02:09.000Z</time>
      </trkpt>
      <trkpt lat="43.77822" lon="1.56908">
        <ele>143.565624</ele>
        <time>2023-05-05T16:02:10.000Z</time>
      </trkpt>
      <trkpt lat="43.77822" lon="1.56908">
        <ele>143.565624</ele>
        <time>2023-05-05T16:02:11.000Z</time>
      </trkpt>
      <trkpt lat="43.77827" lon="1.5692">
        <ele>143.553404</ele>
        <time>2023-05-05T16:02:12.000Z</time>
      </trkpt>
      <trkpt lat="43.77831" lon="1.56929">
        <ele>143.545092</ele>
        <time>2023-05-05T16:02:13.000Z</time>
      </trkpt>
      <trkpt lat="43.77842" lon="1.56953">
        <ele>143.519491</ele>
        <time>2023-05-05T16:02:15.000Z</time>
      </trkpt>
      <trkpt lat="43.77846" lon="1.5696">
        <ele>143.512206</ele>
        <time>2023-05-05T16:02:17.000Z</time>
      </trkpt>
      <trkpt lat="43.77846" lon="1.5696">
        <ele>143.512206</ele>
        <time>2023-05-05T16:02:17.000Z</time>
      </trkpt>
      <trkpt lat="43.77847" lon="1.56962">
        <ele>143.509374</ele>
        <time>2023-05-05T16:02:18.000Z</time>
      </trkpt>
      <trkpt lat="43.7785" lon="1.56966">
        <ele>143.504988</ele>
        <time>2023-05-05T16:02:20.000Z</time>
      </trkpt>
      <trkpt lat="43.77853" lon="1.56971">
        <ele>143.498877</ele>
        <time>2023-05-05T16:02:21.000Z</time>
      </trkpt>
      <trkpt lat="43.77858" lon="1.56979">
        <ele>143.489856</ele>
        <time>2023-05-05T16:02:23.000Z</time>
      </trkpt>
      <trkpt lat="43.77862" lon="1.56985">
        <ele>143.482514</ele>
        <time>2023-05-05T16:02:24.000Z</time>
      </trkpt>
      <trkpt lat="43.77868" lon="1.56993">
        <ele>143.473373</ele>
        <time>2023-05-05T16:02:25.000Z</time>
      </trkpt>
      <trkpt lat="43.77868" lon="1.56993">
        <ele>143.473373</ele>
        <time>2023-05-05T16:02:25.000Z</time>
      </trkpt>
      <trkpt lat="43.77872" lon="1.57">
        <ele>143.4646</ele>
        <time>2023-05-05T16:02:27.000Z</time>
      </trkpt>
      <trkpt lat="43.77875" lon="1.57007">
        <ele>143.457687</ele>
        <time>2023-05-05T16:02:28.000Z</time>
      </trkpt>
      <trkpt lat="43.77877" lon="1.57014">
        <ele>143.45182</ele>
        <time>2023-05-05T16:02:30.000Z</time>
      </trkpt>
      <trkpt lat="43.77879" lon="1.57025">
        <ele>143.441625</ele>
        <time>2023-05-05T16:02:31.000Z</time>
      </trkpt>
      <trkpt lat="43.77879" lon="1.57038">
        <ele>143.430639</ele>
        <time>2023-05-05T16:02:32.000Z</time>
      </trkpt>
      <trkpt lat="43.77879" lon="1.57048">
        <ele>143.421107</ele>
        <time>2023-05-05T16:02:34.000Z</time>
      </trkpt>
      <trkpt lat="43.77878" lon="1.57057">
        <ele>143.413381</ele>
        <time>2023-05-05T16:02:35.000Z</time>
      </trkpt>
      <trkpt lat="43.77877" lon="1.57065">
        <ele>143.406116</ele>
        <time>2023-05-05T16:02:36.000Z</time>
      </trkpt>
      <trkpt lat="43.77875" lon="1.57075">
        <ele>143.397781</ele>
        <time>2023-05-05T16:02:38.000Z</time>
      </trkpt>
      <trkpt lat="43.77873" lon="1.57082">
        <ele>143.390763</ele>
        <time>2023-05-05T16:02:39.000Z</time>
      </trkpt>
      <trkpt lat="43.7787" lon="1.57087">
        <ele>143.385302</ele>
        <time>2023-05-05T16:02:40.000Z</time>
      </trkpt>
      <trkpt lat="43.77867" lon="1.57091">
        <ele>143.380308</ele>
        <time>2023-05-05T16:02:41.000Z</time>
      </trkpt>
      <trkpt lat="43.77867" lon="1.57091">
        <ele>143.380308</ele>
        <time>2023-05-05T16:02:41.000Z</time>
      </trkpt>
      <trkpt lat="43.77864" lon="1.57094">
        <ele>143.375704</ele>
        <time>2023-05-05T16:02:42.000Z</time>
      </trkpt>
      <trkpt lat="43.77862" lon="1.57096">
        <ele>143.372877</ele>
        <time>2023-05-05T16:02:43.000Z</time>
      </trkpt>
      <trkpt lat="43.77859" lon="1.57097">
        <ele>143.369456</ele>
        <time>2023-05-05T16:02:44.000Z</time>
      </trkpt>
      <trkpt lat="43.77856" lon="1.57098">
        <ele>143.365151</ele>
        <time>2023-05-05T16:02:46.000Z</time>
      </trkpt>
      <trkpt lat="43.77853" lon="1.57099">
        <ele>143.361755</ele>
        <time>2023-05-05T16:02:47.000Z</time>
      </trkpt>
      <trkpt lat="43.7785" lon="1.57101">
        <ele>143.357845</ele>
        <time>2023-05-05T16:02:48.000Z</time>
      </trkpt>
      <trkpt lat="43.77846" lon="1.57104">
        <ele>143.457251</ele>
        <time>2023-05-05T16:02:49.000Z</time>
      </trkpt>
      <trkpt lat="43.77846" lon="1.57104">
        <ele>143.457251</ele>
        <time>2023-05-05T16:02:49.000Z</time>
      </trkpt>
      <trkpt lat="43.77841" lon="1.57106">
        <ele>143.578525</ele>
        <time>2023-05-05T16:02:51.000Z</time>
      </trkpt>
      <trkpt lat="43.77837" lon="1.57108">
        <ele>143.686299</ele>
        <time>2023-05-05T16:02:52.000Z</time>
      </trkpt>
      <trkpt lat="43.77833" lon="1.57112">
        <ele>143.815189</ele>
        <time>2023-05-05T16:02:53.000Z</time>
      </trkpt>
      <trkpt lat="43.77828" lon="1.57115">
        <ele>143.947482</ele>
        <time>2023-05-05T16:02:55.000Z</time>
      </trkpt>
      <trkpt lat="43.77824" lon="1.57118">
        <ele>144.056117</ele>
        <time>2023-05-05T16:02:55.000Z</time>
      </trkpt>
      <trkpt lat="43.77818" lon="1.57122">
        <ele>144.221441</ele>
        <time>2023-05-05T16:02:57.000Z</time>
      </trkpt>
      <trkpt lat="43.77818" lon="1.57122">
        <ele>144.221441</ele>
        <time>2023-05-05T16:02:57.000Z</time>
      </trkpt>
      <trkpt lat="43.77815" lon="1.57124">
        <ele>144.322598</ele>
        <time>2023-05-05T16:02:58.000Z</time>
      </trkpt>
      <trkpt lat="43.7781" lon="1.57125">
        <ele>144.430354</ele>
        <time>2023-05-05T16:02:59.000Z</time>
      </trkpt>
      <trkpt lat="43.77805" lon="1.57125">
        <ele>144.57312</ele>
        <time>2023-05-05T16:03:00.000Z</time>
      </trkpt>
      <trkpt lat="43.77801" lon="1.57124">
        <ele>144.660923</ele>
        <time>2023-05-05T16:03:01.000Z</time>
      </trkpt>
      <trkpt lat="43.77801" lon="1.57124">
        <ele>144.660923</ele>
        <time>2023-05-05T16:03:01.000Z</time>
      </trkpt>
      <trkpt lat="43.77795" lon="1.57122">
        <ele>144.821829</ele>
        <time>2023-05-05T16:03:03.000Z</time>
      </trkpt>
      <trkpt lat="43.77791" lon="1.57119">
        <ele>144.944621</ele>
        <time>2023-05-05T16:03:04.000Z</time>
      </trkpt>
      <trkpt lat="43.77786" lon="1.57115">
        <ele>145.084896</ele>
        <time>2023-05-05T16:03:05.000Z</time>
      </trkpt>
      <trkpt lat="43.77786" lon="1.57115">
        <ele>145.084896</ele>
        <time>2023-05-05T16:03:05.000Z</time>
      </trkpt>
      <trkpt lat="43.77781" lon="1.57112">
        <ele>145.212205</ele>
        <time>2023-05-05T16:03:06.000Z</time>
      </trkpt>
      <trkpt lat="43.77778" lon="1.5711">
        <ele>145.310337</ele>
        <time>2023-05-05T16:03:07.000Z</time>
      </trkpt>
      <trkpt lat="43.77778" lon="1.5711">
        <ele>145.310337</ele>
        <time>2023-05-05T16:03:07.000Z</time>
      </trkpt>
      <trkpt lat="43.77771" lon="1.57106">
        <ele>145.480108</ele>
        <time>2023-05-05T16:03:08.000Z</time>
      </trkpt>
      <trkpt lat="43.77764" lon="1.57101">
        <ele>145.680178</ele>
        <time>2023-05-05T16:03:10.000Z</time>
      </trkpt>
      <trkpt lat="43.77764" lon="1.57101">
        <ele>145.680178</ele>
        <time>2023-05-05T16:03:10.000Z</time>
      </trkpt>
      <trkpt lat="43.77758" lon="1.57097">
        <ele>145.856139</ele>
        <time>2023-05-05T16:03:11.000Z</time>
      </trkpt>
      <trkpt lat="43.77752" lon="1.57095">
        <ele>145.996922</ele>
        <time>2023-05-05T16:03:11.000Z</time>
      </trkpt>
      <trkpt lat="43.77752" lon="1.57095">
        <ele>145.996922</ele>
        <time>2023-05-05T16:03:11.000Z</time>
      </trkpt>
      <trkpt lat="43.77748" lon="1.57094">
        <ele>146.113804</ele>
        <time>2023-05-05T16:03:13.000Z</time>
      </trkpt>
      <trkpt lat="43.77742" lon="1.57093">
        <ele>146.246951</ele>
        <time>2023-05-05T16:03:14.000Z</time>
      </trkpt>
      <trkpt lat="43.77742" lon="1.57093">
        <ele>146.246951</ele>
        <time>2023-05-05T16:03:14.000Z</time>
      </trkpt>
      <trkpt lat="43.77738" lon="1.57093">
        <ele>146.362483</ele>
        <time>2023-05-05T16:03:15.000Z</time>
      </trkpt>
      <trkpt lat="43.77738" lon="1.57093">
        <ele>146.362483</ele>
        <time>2023-05-05T16:03:15.000Z</time>
      </trkpt>
      <trkpt lat="43.77734" lon="1.57093">
        <ele>146.467894</ele>
        <time>2023-05-05T16:03:16.000Z</time>
      </trkpt>
      <trkpt lat="43.77734" lon="1.57093">
        <ele>146.467894</ele>
        <time>2023-05-05T16:03:16.000Z</time>
      </trkpt>
      <trkpt lat="43.77729" lon="1.57093">
        <ele>146.583426</ele>
        <time>2023-05-05T16:03:17.000Z</time>
      </trkpt>
      <trkpt lat="43.77729" lon="1.57093">
        <ele>146.583426</ele>
        <time>2023-05-05T16:03:17.000Z</time>
      </trkpt>
      <trkpt lat="43.77724" lon="1.57093">
        <ele>146.706328</ele>
        <time>2023-05-05T16:03:19.000Z</time>
      </trkpt>
      <trkpt lat="43.77724" lon="1.57093">
        <ele>146.706328</ele>
        <time>2023-05-05T16:03:19.000Z</time>
      </trkpt>
      <trkpt lat="43.7772" lon="1.57093">
        <ele>146.821633</ele>
        <time>2023-05-05T16:03:20.000Z</time>
      </trkpt>
      <trkpt lat="43.7772" lon="1.57093">
        <ele>146.821633</ele>
        <time>2023-05-05T16:03:20.000Z</time>
      </trkpt>
      <trkpt lat="43.77715" lon="1.57092">
        <ele>146.936939</ele>
        <time>2023-05-05T16:03:22.000Z</time>
      </trkpt>
      <trkpt lat="43.77715" lon="1.57092">
        <ele>146.936939</ele>
        <time>2023-05-05T16:03:22.000Z</time>
      </trkpt>
      <trkpt lat="43.7771" lon="1.57091">
        <ele>147.054142</ele>
        <time>2023-05-05T16:03:23.000Z</time>
      </trkpt>
      <trkpt lat="43.7771" lon="1.57091">
        <ele>147.054142</ele>
        <time>2023-05-05T16:03:23.000Z</time>
      </trkpt>
      <trkpt lat="43.77705" lon="1.5709">
        <ele>147.189589</ele>
        <time>2023-05-05T16:03:24.000Z</time>
      </trkpt>
      <trkpt lat="43.77705" lon="1.5709">
        <ele>147.189589</ele>
        <time>2023-05-05T16:03:24.000Z</time>
      </trkpt>
      <trkpt lat="43.777" lon="1.57088">
        <ele>147.326225</ele>
        <time>2023-05-05T16:03:25.000Z</time>
      </trkpt>
      <trkpt lat="43.777" lon="1.57088">
        <ele>147.326225</ele>
        <time>2023-05-05T16:03:25.000Z</time>
      </trkpt>
      <trkpt lat="43.77696" lon="1.57086">
        <ele>147.427571</ele>
        <time>2023-05-05T16:03:26.000Z</time>
      </trkpt>
      <trkpt lat="43.77696" lon="1.57086">
        <ele>147.427571</ele>
        <time>2023-05-05T16:03:26.000Z</time>
      </trkpt>
      <trkpt lat="43.7769" lon="1.57084">
        <ele>147.57573</ele>
        <time>2023-05-05T16:03:28.000Z</time>
      </trkpt>
      <trkpt lat="43.7769" lon="1.57084">
        <ele>147.57573</ele>
        <time>2023-05-05T16:03:28.000Z</time>
      </trkpt>
      <trkpt lat="43.77685" lon="1.57082">
        <ele>147.712367</ele>
        <time>2023-05-05T16:03:29.000Z</time>
      </trkpt>
      <trkpt lat="43.77685" lon="1.57082">
        <ele>147.712367</ele>
        <time>2023-05-05T16:03:29.000Z</time>
      </trkpt>
      <trkpt lat="43.77679" lon="1.5708">
        <ele>147.857384</ele>
        <time>2023-05-05T16:03:30.000Z</time>
      </trkpt>
      <trkpt lat="43.77679" lon="1.5708">
        <ele>147.857384</ele>
        <time>2023-05-05T16:03:30.000Z</time>
      </trkpt>
      <trkpt lat="43.77669" lon="1.57074">
        <ele>148.308993</ele>
        <time>2023-05-05T16:03:31.000Z</time>
      </trkpt>
      <trkpt lat="43.77669" lon="1.57074">
        <ele>148.308993</ele>
        <time>2023-05-05T16:03:31.000Z</time>
      </trkpt>
      <trkpt lat="43.77669" lon="1.57074">
        <ele>148.308993</ele>
        <time>2023-05-05T16:03:32.000Z</time>
      </trkpt>
      <trkpt lat="43.77656" lon="1.57066">
        <ele>148.882715</ele>
        <time>2023-05-05T16:03:33.000Z</time>
      </trkpt>
      <trkpt lat="43.77656" lon="1.57066">
        <ele>148.882715</ele>
        <time>2023-05-05T16:03:33.000Z</time>
      </trkpt>
      <trkpt lat="43.77651" lon="1.57063">
        <ele>149.101565</ele>
        <time>2023-05-05T16:03:34.000Z</time>
      </trkpt>
      <trkpt lat="43.77651" lon="1.57063">
        <ele>149.101565</ele>
        <time>2023-05-05T16:03:34.000Z</time>
      </trkpt>
      <trkpt lat="43.77646" lon="1.5706">
        <ele>149.319147</ele>
        <time>2023-05-05T16:03:35.000Z</time>
      </trkpt>
      <trkpt lat="43.77646" lon="1.5706">
        <ele>149.319147</ele>
        <time>2023-05-05T16:03:35.000Z</time>
      </trkpt>
      <trkpt lat="43.77641" lon="1.57056">
        <ele>149.557388</ele>
        <time>2023-05-05T16:03:37.000Z</time>
      </trkpt>
      <trkpt lat="43.77641" lon="1.57056">
        <ele>149.557388</ele>
        <time>2023-05-05T16:03:37.000Z</time>
      </trkpt>
      <trkpt lat="43.77636" lon="1.57054">
        <ele>149.770281</ele>
        <time>2023-05-05T16:03:37.000Z</time>
      </trkpt>
      <trkpt lat="43.77636" lon="1.57054">
        <ele>149.770281</ele>
        <time>2023-05-05T16:03:37.000Z</time>
      </trkpt>
      <trkpt lat="43.7763" lon="1.57051">
        <ele>150.001863</ele>
        <time>2023-05-05T16:03:39.000Z</time>
      </trkpt>
      <trkpt lat="43.7763" lon="1.57051">
        <ele>150.001863</ele>
        <time>2023-05-05T16:03:39.000Z</time>
      </trkpt>
      <trkpt lat="43.77622" lon="1.57047">
        <ele>150.337957</ele>
        <time>2023-05-05T16:03:41.000Z</time>
      </trkpt>
      <trkpt lat="43.77622" lon="1.57047">
        <ele>150.337957</ele>
        <time>2023-05-05T16:03:41.000Z</time>
      </trkpt>
      <trkpt lat="43.77616" lon="1.57046">
        <ele>150.588451</ele>
        <time>2023-05-05T16:03:41.000Z</time>
      </trkpt>
      <trkpt lat="43.77616" lon="1.57046">
        <ele>150.588451</ele>
        <time>2023-05-05T16:03:41.000Z</time>
      </trkpt>
      <trkpt lat="43.77609" lon="1.57044">
        <ele>150.880462</ele>
        <time>2023-05-05T16:03:43.000Z</time>
      </trkpt>
      <trkpt lat="43.77609" lon="1.57044">
        <ele>150.880462</ele>
        <time>2023-05-05T16:03:43.000Z</time>
      </trkpt>
      <trkpt lat="43.77609" lon="1.57044">
        <ele>150.880462</ele>
        <time>2023-05-05T16:03:43.000Z</time>
      </trkpt>
      <trkpt lat="43.776" lon="1.57044">
        <ele>151.249974</ele>
        <time>2023-05-05T16:03:45.000Z</time>
      </trkpt>
      <trkpt lat="43.776" lon="1.57044">
        <ele>151.249974</ele>
        <time>2023-05-05T16:03:45.000Z</time>
      </trkpt>
      <trkpt lat="43.77594" lon="1.57044">
        <ele>151.495243</ele>
        <time>2023-05-05T16:03:46.000Z</time>
      </trkpt>
      <trkpt lat="43.77594" lon="1.57044">
        <ele>151.495243</ele>
        <time>2023-05-05T16:03:46.000Z</time>
      </trkpt>
      <trkpt lat="43.77594" lon="1.57044">
        <ele>151.495243</ele>
        <time>2023-05-05T16:03:47.000Z</time>
      </trkpt>
      <trkpt lat="43.77582" lon="1.57044">
        <ele>151.95314</ele>
        <time>2023-05-05T16:03:48.000Z</time>
      </trkpt>
      <trkpt lat="43.77582" lon="1.57044">
        <ele>151.95314</ele>
        <time>2023-05-05T16:03:48.000Z</time>
      </trkpt>
      <trkpt lat="43.77572" lon="1.57043">
        <ele>152.366983</ele>
        <time>2023-05-05T16:03:49.000Z</time>
      </trkpt>
      <trkpt lat="43.77572" lon="1.57043">
        <ele>152.366983</ele>
        <time>2023-05-05T16:03:49.000Z</time>
      </trkpt>
      <trkpt lat="43.77564" lon="1.57042">
        <ele>152.690492</ele>
        <time>2023-05-05T16:03:50.000Z</time>
      </trkpt>
      <trkpt lat="43.77564" lon="1.57042">
        <ele>152.690492</ele>
        <time>2023-05-05T16:03:50.000Z</time>
      </trkpt>
      <trkpt lat="43.77564" lon="1.57042">
        <ele>152.690492</ele>
        <time>2023-05-05T16:03:51.000Z</time>
      </trkpt>
      <trkpt lat="43.77554" lon="1.5704">
        <ele>153.095137</ele>
        <time>2023-05-05T16:03:52.000Z</time>
      </trkpt>
      <trkpt lat="43.77554" lon="1.5704">
        <ele>153.095137</ele>
        <time>2023-05-05T16:03:52.000Z</time>
      </trkpt>
      <trkpt lat="43.77554" lon="1.5704">
        <ele>153.095137</ele>
        <time>2023-05-05T16:03:53.000Z</time>
      </trkpt>
      <trkpt lat="43.77544" lon="1.57039">
        <ele>153.478545</ele>
        <time>2023-05-05T16:03:54.000Z</time>
      </trkpt>
      <trkpt lat="43.77538" lon="1.57038">
        <ele>153.741211</ele>
        <time>2023-05-05T16:03:54.000Z</time>
      </trkpt>
      <trkpt lat="43.77538" lon="1.57038">
        <ele>153.741211</ele>
        <time>2023-05-05T16:03:54.000Z</time>
      </trkpt>
      <trkpt lat="43.77532" lon="1.57039">
        <ele>153.986824</ele>
        <time>2023-05-05T16:03:57.000Z</time>
      </trkpt>
      <trkpt lat="43.77532" lon="1.57039">
        <ele>153.986824</ele>
        <time>2023-05-05T16:03:57.000Z</time>
      </trkpt>
      <trkpt lat="43.77527" lon="1.5704">
        <ele>154.191191</ele>
        <time>2023-05-05T16:03:58.000Z</time>
      </trkpt>
      <trkpt lat="43.77527" lon="1.5704">
        <ele>154.191191</ele>
        <time>2023-05-05T16:03:58.000Z</time>
      </trkpt>
      <trkpt lat="43.77523" lon="1.57043">
        <ele>154.368977</ele>
        <time>2023-05-05T16:03:59.000Z</time>
      </trkpt>
      <trkpt lat="43.77523" lon="1.57043">
        <ele>154.368977</ele>
        <time>2023-05-05T16:03:59.000Z</time>
      </trkpt>
      <trkpt lat="43.77521" lon="1.57047">
        <ele>154.501375</ele>
        <time>2023-05-05T16:04:00.000Z</time>
      </trkpt>
      <trkpt lat="43.77521" lon="1.57047">
        <ele>154.501375</ele>
        <time>2023-05-05T16:04:00.000Z</time>
      </trkpt>
      <trkpt lat="43.77518" lon="1.5705">
        <ele>154.638606</ele>
        <time>2023-05-05T16:04:01.000Z</time>
      </trkpt>
      <trkpt lat="43.77518" lon="1.5705">
        <ele>154.638606</ele>
        <time>2023-05-05T16:04:01.000Z</time>
      </trkpt>
      <trkpt lat="43.77515" lon="1.57055">
        <ele>154.84056</ele>
        <time>2023-05-05T16:04:03.000Z</time>
      </trkpt>
      <trkpt lat="43.77515" lon="1.57055">
        <ele>154.84056</ele>
        <time>2023-05-05T16:04:03.000Z</time>
      </trkpt>
      <trkpt lat="43.77512" lon="1.57059">
        <ele>155.02032</ele>
        <time>2023-05-05T16:04:04.000Z</time>
      </trkpt>
      <trkpt lat="43.77512" lon="1.57059">
        <ele>155.02032</ele>
        <time>2023-05-05T16:04:04.000Z</time>
      </trkpt>
      <trkpt lat="43.77508" lon="1.57064">
        <ele>155.153059</ele>
        <time>2023-05-05T16:04:05.000Z</time>
      </trkpt>
      <trkpt lat="43.77508" lon="1.57064">
        <ele>155.153059</ele>
        <time>2023-05-05T16:04:05.000Z</time>
      </trkpt>
      <trkpt lat="43.77506" lon="1.57068">
        <ele>155.23754</ele>
        <time>2023-05-05T16:04:06.000Z</time>
      </trkpt>
      <trkpt lat="43.77506" lon="1.57068">
        <ele>155.23754</ele>
        <time>2023-05-05T16:04:06.000Z</time>
      </trkpt>
      <trkpt lat="43.77503" lon="1.57072">
        <ele>155.312867</ele>
        <time>2023-05-05T16:04:07.000Z</time>
      </trkpt>
      <trkpt lat="43.77503" lon="1.57072">
        <ele>155.312867</ele>
        <time>2023-05-05T16:04:07.000Z</time>
      </trkpt>
      <trkpt lat="43.77501" lon="1.57075">
        <ele>155.379199</ele>
        <time>2023-05-05T16:04:08.000Z</time>
      </trkpt>
      <trkpt lat="43.77501" lon="1.57075">
        <ele>155.379199</ele>
        <time>2023-05-05T16:04:08.000Z</time>
      </trkpt>
      <trkpt lat="43.775" lon="1.57078">
        <ele>155.435277</ele>
        <time>2023-05-05T16:04:10.000Z</time>
      </trkpt>
      <trkpt lat="43.775" lon="1.57078">
        <ele>155.435277</ele>
        <time>2023-05-05T16:04:10.000Z</time>
      </trkpt>
      <trkpt lat="43.77499" lon="1.57083">
        <ele>155.502295</ele>
        <time>2023-05-05T16:04:11.000Z</time>
      </trkpt>
      <trkpt lat="43.77499" lon="1.57083">
        <ele>155.502295</ele>
        <time>2023-05-05T16:04:11.000Z</time>
      </trkpt>
      <trkpt lat="43.77499" lon="1.57087">
        <ele>155.564598</ele>
        <time>2023-05-05T16:04:12.000Z</time>
      </trkpt>
      <trkpt lat="43.77499" lon="1.57087">
        <ele>155.564598</ele>
        <time>2023-05-05T16:04:12.000Z</time>
      </trkpt>
      <trkpt lat="43.775" lon="1.57092">
        <ele>155.648825</ele>
        <time>2023-05-05T16:04:13.000Z</time>
      </trkpt>
      <trkpt lat="43.77502" lon="1.57097">
        <ele>155.73522</ele>
        <time>2023-05-05T16:04:14.000Z</time>
      </trkpt>
      <trkpt lat="43.77502" lon="1.57097">
        <ele>155.73522</ele>
        <time>2023-05-05T16:04:14.000Z</time>
      </trkpt>
      <trkpt lat="43.77504" lon="1.57101">
        <ele>155.824309</ele>
        <time>2023-05-05T16:04:15.000Z</time>
      </trkpt>
      <trkpt lat="43.77504" lon="1.57101">
        <ele>155.824309</ele>
        <time>2023-05-05T16:04:15.000Z</time>
      </trkpt>
      <trkpt lat="43.77508" lon="1.57106">
        <ele>155.926956</ele>
        <time>2023-05-05T16:04:17.000Z</time>
      </trkpt>
      <trkpt lat="43.77508" lon="1.57106">
        <ele>155.926956</ele>
        <time>2023-05-05T16:04:17.000Z</time>
      </trkpt>
      <trkpt lat="43.7751" lon="1.5711">
        <ele>156.005848</ele>
        <time>2023-05-05T16:04:18.000Z</time>
      </trkpt>
      <trkpt lat="43.7751" lon="1.57108">
        <ele>156.036705</ele>
        <time>2023-05-05T16:04:19.000Z</time>
      </trkpt>
      <trkpt lat="43.7751" lon="1.57108">
        <ele>156.036705</ele>
        <time>2023-05-05T16:04:19.000Z</time>
      </trkpt>
      <trkpt lat="43.7752" lon="1.5712">
        <ele>156.318841</ele>
        <time>2023-05-05T16:04:20.000Z</time>
      </trkpt>
      <trkpt lat="43.7752" lon="1.5712">
        <ele>156.318841</ele>
        <time>2023-05-05T16:04:21.000Z</time>
      </trkpt>
      <trkpt lat="43.77531" lon="1.57129">
        <ele>156.588769</ele>
        <time>2023-05-05T16:04:22.000Z</time>
      </trkpt>
      <trkpt lat="43.77531" lon="1.57129">
        <ele>156.588769</ele>
        <time>2023-05-05T16:04:23.000Z</time>
      </trkpt>
      <trkpt lat="43.77551" lon="1.57144">
        <ele>157.065206</ele>
        <time>2023-05-05T16:04:24.000Z</time>
      </trkpt>
      <trkpt lat="43.77559" lon="1.57148">
        <ele>157.250891</ele>
        <time>2023-05-05T16:04:26.000Z</time>
      </trkpt>
      <trkpt lat="43.77559" lon="1.57148">
        <ele>157.250891</ele>
        <time>2023-05-05T16:04:26.000Z</time>
      </trkpt>
      <trkpt lat="43.7756" lon="1.57152">
        <ele>157.306524</ele>
        <time>2023-05-05T16:04:27.000Z</time>
      </trkpt>
      <trkpt lat="43.77564" lon="1.57154">
        <ele>157.398497</ele>
        <time>2023-05-05T16:04:29.000Z</time>
      </trkpt>
      <trkpt lat="43.77564" lon="1.57154">
        <ele>157.398497</ele>
        <time>2023-05-05T16:04:29.000Z</time>
      </trkpt>
      <trkpt lat="43.77567" lon="1.57156">
        <ele>157.467758</ele>
        <time>2023-05-05T16:04:30.000Z</time>
      </trkpt>
      <trkpt lat="43.7757" lon="1.5716">
        <ele>157.562786</ele>
        <time>2023-05-05T16:04:31.000Z</time>
      </trkpt>
      <trkpt lat="43.7757" lon="1.5716">
        <ele>157.562786</ele>
        <time>2023-05-05T16:04:31.000Z</time>
      </trkpt>
      <trkpt lat="43.77574" lon="1.57165">
        <ele>157.680128</ele>
        <time>2023-05-05T16:04:32.000Z</time>
      </trkpt>
      <trkpt lat="43.77577" lon="1.57167">
        <ele>157.748652</ele>
        <time>2023-05-05T16:04:33.000Z</time>
      </trkpt>
      <trkpt lat="43.77577" lon="1.57167">
        <ele>157.748652</ele>
        <time>2023-05-05T16:04:33.000Z</time>
      </trkpt>
      <trkpt lat="43.77581" lon="1.57174">
        <ele>157.895828</ele>
        <time>2023-05-05T16:04:34.000Z</time>
      </trkpt>
      <trkpt lat="43.77585" lon="1.57179">
        <ele>157.996318</ele>
        <time>2023-05-05T16:04:35.000Z</time>
      </trkpt>
      <trkpt lat="43.77587" lon="1.57182">
        <ele>158.068199</ele>
        <time>2023-05-05T16:04:37.000Z</time>
      </trkpt>
      <trkpt lat="43.77587" lon="1.57182">
        <ele>158.068199</ele>
        <time>2023-05-05T16:04:37.000Z</time>
      </trkpt>
      <trkpt lat="43.77592" lon="1.57186">
        <ele>158.182647</ele>
        <time>2023-05-05T16:04:38.000Z</time>
      </trkpt>
      <trkpt lat="43.77595" lon="1.57189">
        <ele>158.270485</ele>
        <time>2023-05-05T16:04:39.000Z</time>
      </trkpt>
      <trkpt lat="43.77595" lon="1.57189">
        <ele>158.270485</ele>
        <time>2023-05-05T16:04:39.000Z</time>
      </trkpt>
      <trkpt lat="43.77598" lon="1.57191">
        <ele>158.340157</ele>
        <time>2023-05-05T16:04:40.000Z</time>
      </trkpt>
      <trkpt lat="43.77604" lon="1.57194">
        <ele>158.471578</ele>
        <time>2023-05-05T16:04:40.000Z</time>
      </trkpt>
      <trkpt lat="43.77609" lon="1.57198">
        <ele>158.598158</ele>
        <time>2023-05-05T16:04:42.000Z</time>
      </trkpt>
      <trkpt lat="43.77614" lon="1.57202">
        <ele>158.714217</ele>
        <time>2023-05-05T16:04:44.000Z</time>
      </trkpt>
      <trkpt lat="43.77614" lon="1.57202">
        <ele>158.714217</ele>
        <time>2023-05-05T16:04:44.000Z</time>
      </trkpt>
      <trkpt lat="43.7762" lon="1.57206">
        <ele>158.86977</ele>
        <time>2023-05-05T16:04:45.000Z</time>
      </trkpt>
      <trkpt lat="43.77637" lon="1.57215">
        <ele>158.959867</ele>
        <time>2023-05-05T16:04:47.000Z</time>
      </trkpt>
      <trkpt lat="43.77641" lon="1.57219">
        <ele>158.969496</ele>
        <time>2023-05-05T16:04:48.000Z</time>
      </trkpt>
      <trkpt lat="43.7764" lon="1.57219">
        <ele>158.971056</ele>
        <time>2023-05-05T16:04:50.000Z</time>
      </trkpt>
      <trkpt lat="43.7764" lon="1.57219">
        <ele>158.971056</ele>
        <time>2023-05-05T16:04:50.000Z</time>
      </trkpt>
      <trkpt lat="43.77654" lon="1.57232">
        <ele>159.007904</ele>
        <time>2023-05-05T16:04:52.000Z</time>
      </trkpt>
      <trkpt lat="43.77669" lon="1.57245">
        <ele>159.044836</ele>
        <time>2023-05-05T16:04:54.000Z</time>
      </trkpt>
      <trkpt lat="43.77669" lon="1.57245">
        <ele>159.044836</ele>
        <time>2023-05-05T16:04:54.000Z</time>
      </trkpt>
      <trkpt lat="43.77676" lon="1.57253">
        <ele>159.063338</ele>
        <time>2023-05-05T16:04:55.000Z</time>
      </trkpt>
      <trkpt lat="43.77684" lon="1.57261">
        <ele>159.085036</ele>
        <time>2023-05-05T16:04:56.000Z</time>
      </trkpt>
      <trkpt lat="43.777" lon="1.57281">
        <ele>159.131242</ele>
        <time>2023-05-05T16:04:58.000Z</time>
      </trkpt>
      <trkpt lat="43.77702" lon="1.57282">
        <ele>159.135974</ele>
        <time>2023-05-05T16:04:59.000Z</time>
      </trkpt>
      <trkpt lat="43.77704" lon="1.57283">
        <ele>159.139776</ele>
        <time>2023-05-05T16:05:00.000Z</time>
      </trkpt>
      <trkpt lat="43.77704" lon="1.57286">
        <ele>159.143975</ele>
        <time>2023-05-05T16:05:02.000Z</time>
      </trkpt>
      <trkpt lat="43.77706" lon="1.57285">
        <ele>159.147546</ele>
        <time>2023-05-05T16:05:03.000Z</time>
      </trkpt>
      <trkpt lat="43.77715" lon="1.57293">
        <ele>159.169521</ele>
        <time>2023-05-05T16:05:04.000Z</time>
      </trkpt>
      <trkpt lat="43.77722" lon="1.573">
        <ele>159.188076</ele>
        <time>2023-05-05T16:05:05.000Z</time>
      </trkpt>
      <trkpt lat="43.77729" lon="1.57305">
        <ele>159.206399</ele>
        <time>2023-05-05T16:05:06.000Z</time>
      </trkpt>
      <trkpt lat="43.7774" lon="1.57309">
        <ele>159.22991</ele>
        <time>2023-05-05T16:05:08.000Z</time>
      </trkpt>
      <trkpt lat="43.77752" lon="1.57314">
        <ele>159.255226</ele>
        <time>2023-05-05T16:05:10.000Z</time>
      </trkpt>
      <trkpt lat="43.77754" lon="1.57317">
        <ele>159.262057</ele>
        <time>2023-05-05T16:05:12.000Z</time>
      </trkpt>
      <trkpt lat="43.77754" lon="1.57317">
        <ele>159.262057</ele>
        <time>2023-05-05T16:05:12.000Z</time>
      </trkpt>
      <trkpt lat="43.77758" lon="1.5732">
        <ele>159.271291</ele>
        <time>2023-05-05T16:05:13.000Z</time>
      </trkpt>
      <trkpt lat="43.77761" lon="1.57324">
        <ele>159.280414</ele>
        <time>2023-05-05T16:05:14.000Z</time>
      </trkpt>
      <trkpt lat="43.77764" lon="1.57328">
        <ele>159.289067</ele>
        <time>2023-05-05T16:05:15.000Z</time>
      </trkpt>
      <trkpt lat="43.77767" lon="1.57334">
        <ele>159.301652</ele>
        <time>2023-05-05T16:05:16.000Z</time>
      </trkpt>
      <trkpt lat="43.7777" lon="1.57342">
        <ele>159.270197</ele>
        <time>2023-05-05T16:05:18.000Z</time>
      </trkpt>
      <trkpt lat="43.77773" lon="1.57348">
        <ele>159.153901</ele>
        <time>2023-05-05T16:05:19.000Z</time>
      </trkpt>
      <trkpt lat="43.77777" lon="1.57356">
        <ele>159.02238</ele>
        <time>2023-05-05T16:05:20.000Z</time>
      </trkpt>
      <trkpt lat="43.7778" lon="1.57362">
        <ele>158.915741</ele>
        <time>2023-05-05T16:05:22.000Z</time>
      </trkpt>
      <trkpt lat="43.77783" lon="1.57367">
        <ele>158.822098</ele>
        <time>2023-05-05T16:05:23.000Z</time>
      </trkpt>
      <trkpt lat="43.77782" lon="1.57364">
        <ele>158.782911</ele>
        <time>2023-05-05T16:05:25.000Z</time>
      </trkpt>
      <trkpt lat="43.77809" lon="1.57397">
        <ele>158.055007</ele>
        <time>2023-05-05T16:05:27.000Z</time>
      </trkpt>
      <trkpt lat="43.77814" lon="1.57403">
        <ele>157.92393</ele>
        <time>2023-05-05T16:05:28.000Z</time>
      </trkpt>
      <trkpt lat="43.77822" lon="1.57407">
        <ele>157.758306</ele>
        <time>2023-05-05T16:05:30.000Z</time>
      </trkpt>
      <trkpt lat="43.77822" lon="1.57407">
        <ele>157.758306</ele>
        <time>2023-05-05T16:05:30.000Z</time>
      </trkpt>
      <trkpt lat="43.77823" lon="1.57405">
        <ele>157.713209</ele>
        <time>2023-05-05T16:05:32.000Z</time>
      </trkpt>
      <trkpt lat="43.77837" lon="1.57404">
        <ele>157.435599</ele>
        <time>2023-05-05T16:05:33.000Z</time>
      </trkpt>
      <trkpt lat="43.77845" lon="1.57403">
        <ele>157.265175</ele>
        <time>2023-05-05T16:05:34.000Z</time>
      </trkpt>
      <trkpt lat="43.77845" lon="1.57403">
        <ele>157.265175</ele>
        <time>2023-05-05T16:05:35.000Z</time>
      </trkpt>
      <trkpt lat="43.77863" lon="1.57405">
        <ele>156.893376</ele>
        <time>2023-05-05T16:05:36.000Z</time>
      </trkpt>
      <trkpt lat="43.77863" lon="1.57405">
        <ele>156.893376</ele>
        <time>2023-05-05T16:05:37.000Z</time>
      </trkpt>
      <trkpt lat="43.77877" lon="1.57411">
        <ele>156.603412</ele>
        <time>2023-05-05T16:05:38.000Z</time>
      </trkpt>
      <trkpt lat="43.77877" lon="1.57411">
        <ele>156.603412</ele>
        <time>2023-05-05T16:05:39.000Z</time>
      </trkpt>
      <trkpt lat="43.77889" lon="1.57408">
        <ele>156.365399</ele>
        <time>2023-05-05T16:05:40.000Z</time>
      </trkpt>
      <trkpt lat="43.77889" lon="1.57408">
        <ele>156.365399</ele>
        <time>2023-05-05T16:05:40.000Z</time>
      </trkpt>
      <trkpt lat="43.77889" lon="1.57408">
        <ele>156.365399</ele>
        <time>2023-05-05T16:05:41.000Z</time>
      </trkpt>
      <trkpt lat="43.77893" lon="1.57408">
        <ele>156.279937</ele>
        <time>2023-05-05T16:05:42.000Z</time>
      </trkpt>
      <trkpt lat="43.77893" lon="1.57408">
        <ele>156.279937</ele>
        <time>2023-05-05T16:05:42.000Z</time>
      </trkpt>
      <trkpt lat="43.77895" lon="1.57409">
        <ele>156.239292</ele>
        <time>2023-05-05T16:05:43.000Z</time>
      </trkpt>
      <trkpt lat="43.77895" lon="1.57409">
        <ele>156.239292</ele>
        <time>2023-05-05T16:05:43.000Z</time>
      </trkpt>
      <trkpt lat="43.77899" lon="1.57411">
        <ele>156.143294</ele>
        <time>2023-05-05T16:05:44.000Z</time>
      </trkpt>
      <trkpt lat="43.77899" lon="1.57411">
        <ele>156.143294</ele>
        <time>2023-05-05T16:05:44.000Z</time>
      </trkpt>
      <trkpt lat="43.77899" lon="1.57411">
        <ele>156.143294</ele>
        <time>2023-05-05T16:05:45.000Z</time>
      </trkpt>
      <trkpt lat="43.77908" lon="1.57415">
        <ele>155.955826</ele>
        <time>2023-05-05T16:05:46.000Z</time>
      </trkpt>
      <trkpt lat="43.77908" lon="1.57415">
        <ele>155.955826</ele>
        <time>2023-05-05T16:05:46.000Z</time>
      </trkpt>
      <trkpt lat="43.77908" lon="1.57415">
        <ele>155.955826</ele>
        <time>2023-05-05T16:05:47.000Z</time>
      </trkpt>
      <trkpt lat="43.77923" lon="1.57426">
        <ele>155.469852</ele>
        <time>2023-05-05T16:05:48.000Z</time>
      </trkpt>
      <trkpt lat="43.77923" lon="1.57426">
        <ele>155.469852</ele>
        <time>2023-05-05T16:05:48.000Z</time>
      </trkpt>
      <trkpt lat="43.77923" lon="1.57426">
        <ele>155.469852</ele>
        <time>2023-05-05T16:05:49.000Z</time>
      </trkpt>
      <trkpt lat="43.7793" lon="1.57434">
        <ele>154.870581</ele>
        <time>2023-05-05T16:05:50.000Z</time>
      </trkpt>
      <trkpt lat="43.7793" lon="1.57434">
        <ele>154.870581</ele>
        <time>2023-05-05T16:05:50.000Z</time>
      </trkpt>
      <trkpt lat="43.77934" lon="1.57436">
        <ele>154.588969</ele>
        <time>2023-05-05T16:05:51.000Z</time>
      </trkpt>
      <trkpt lat="43.77934" lon="1.57436">
        <ele>154.588969</ele>
        <time>2023-05-05T16:05:51.000Z</time>
      </trkpt>
      <trkpt lat="43.77934" lon="1.57436">
        <ele>154.588969</ele>
        <time>2023-05-05T16:05:52.000Z</time>
      </trkpt>
      <trkpt lat="43.77941" lon="1.5744">
        <ele>154.101655</ele>
        <time>2023-05-05T16:05:53.000Z</time>
      </trkpt>
      <trkpt lat="43.77941" lon="1.5744">
        <ele>154.101655</ele>
        <time>2023-05-05T16:05:53.000Z</time>
      </trkpt>
      <trkpt lat="43.77941" lon="1.5744">
        <ele>154.101655</ele>
        <time>2023-05-05T16:05:54.000Z</time>
      </trkpt>
      <trkpt lat="43.77961" lon="1.5745">
        <ele>152.634121</ele>
        <time>2023-05-05T16:05:55.000Z</time>
      </trkpt>
      <trkpt lat="43.77961" lon="1.5745">
        <ele>152.634121</ele>
        <time>2023-05-05T16:05:55.000Z</time>
      </trkpt>
      <trkpt lat="43.77961" lon="1.5745">
        <ele>152.634121</ele>
        <time>2023-05-05T16:05:56.000Z</time>
      </trkpt>
      <trkpt lat="43.7797" lon="1.57449">
        <ele>152.05166</ele>
        <time>2023-05-05T16:05:57.000Z</time>
      </trkpt>
      <trkpt lat="43.7797" lon="1.57449">
        <ele>152.05166</ele>
        <time>2023-05-05T16:05:57.000Z</time>
      </trkpt>
      <trkpt lat="43.77974" lon="1.57451">
        <ele>151.807794</ele>
        <time>2023-05-05T16:05:58.000Z</time>
      </trkpt>
      <trkpt lat="43.77974" lon="1.57451">
        <ele>151.807794</ele>
        <time>2023-05-05T16:05:58.000Z</time>
      </trkpt>
      <trkpt lat="43.77977" lon="1.57452">
        <ele>151.575122</ele>
        <time>2023-05-05T16:05:59.000Z</time>
      </trkpt>
      <trkpt lat="43.77977" lon="1.57452">
        <ele>151.575122</ele>
        <time>2023-05-05T16:05:59.000Z</time>
      </trkpt>
      <trkpt lat="43.77984" lon="1.57452">
        <ele>151.139769</ele>
        <time>2023-05-05T16:06:01.000Z</time>
      </trkpt>
      <trkpt lat="43.77984" lon="1.57452">
        <ele>151.139769</ele>
        <time>2023-05-05T16:06:01.000Z</time>
      </trkpt>
      <trkpt lat="43.7799" lon="1.57454">
        <ele>150.723249</ele>
        <time>2023-05-05T16:06:02.000Z</time>
      </trkpt>
      <trkpt lat="43.7799" lon="1.57454">
        <ele>150.723249</ele>
        <time>2023-05-05T16:06:02.000Z</time>
      </trkpt>
      <trkpt lat="43.7799" lon="1.57454">
        <ele>150.723249</ele>
        <time>2023-05-05T16:06:03.000Z</time>
      </trkpt>
      <trkpt lat="43.78001" lon="1.57455">
        <ele>149.957548</ele>
        <time>2023-05-05T16:06:04.000Z</time>
      </trkpt>
      <trkpt lat="43.78001" lon="1.57455">
        <ele>149.957548</ele>
        <time>2023-05-05T16:06:04.000Z</time>
      </trkpt>
      <trkpt lat="43.78011" lon="1.57458">
        <ele>149.282114</ele>
        <time>2023-05-05T16:06:05.000Z</time>
      </trkpt>
      <trkpt lat="43.78011" lon="1.57458">
        <ele>149.282114</ele>
        <time>2023-05-05T16:06:05.000Z</time>
      </trkpt>
      <trkpt lat="43.78011" lon="1.57458">
        <ele>149.282114</ele>
        <time>2023-05-05T16:06:06.000Z</time>
      </trkpt>
      <trkpt lat="43.78029" lon="1.57459">
        <ele>148.10348</ele>
        <time>2023-05-05T16:06:07.000Z</time>
      </trkpt>
      <trkpt lat="43.78029" lon="1.57459">
        <ele>148.10348</ele>
        <time>2023-05-05T16:06:07.000Z</time>
      </trkpt>
      <trkpt lat="43.78029" lon="1.57459">
        <ele>148.10348</ele>
        <time>2023-05-05T16:06:08.000Z</time>
      </trkpt>
      <trkpt lat="43.78049" lon="1.5746">
        <ele>146.723663</ele>
        <time>2023-05-05T16:06:09.000Z</time>
      </trkpt>
      <trkpt lat="43.78049" lon="1.5746">
        <ele>146.723663</ele>
        <time>2023-05-05T16:06:09.000Z</time>
      </trkpt>
      <trkpt lat="43.78054" lon="1.57462">
        <ele>146.399443</ele>
        <time>2023-05-05T16:06:10.000Z</time>
      </trkpt>
      <trkpt lat="43.78054" lon="1.57462">
        <ele>146.399443</ele>
        <time>2023-05-05T16:06:10.000Z</time>
      </trkpt>
      <trkpt lat="43.78054" lon="1.57462">
        <ele>146.399443</ele>
        <time>2023-05-05T16:06:11.000Z</time>
      </trkpt>
      <trkpt lat="43.78062" lon="1.57463">
        <ele>145.814641</ele>
        <time>2023-05-05T16:06:12.000Z</time>
      </trkpt>
      <trkpt lat="43.78062" lon="1.57463">
        <ele>145.814641</ele>
        <time>2023-05-05T16:06:12.000Z</time>
      </trkpt>
      <trkpt lat="43.78066" lon="1.57463">
        <ele>145.551968</ele>
        <time>2023-05-05T16:06:13.000Z</time>
      </trkpt>
      <trkpt lat="43.78066" lon="1.57463">
        <ele>145.551968</ele>
        <time>2023-05-05T16:06:13.000Z</time>
      </trkpt>
      <trkpt lat="43.78074" lon="1.57465">
        <ele>145.063045</ele>
        <time>2023-05-05T16:06:14.000Z</time>
      </trkpt>
      <trkpt lat="43.78074" lon="1.57465">
        <ele>145.063045</ele>
        <time>2023-05-05T16:06:14.000Z</time>
      </trkpt>
      <trkpt lat="43.78074" lon="1.57465">
        <ele>145.063045</ele>
        <time>2023-05-05T16:06:15.000Z</time>
      </trkpt>
      <trkpt lat="43.7808" lon="1.57468">
        <ele>144.599624</ele>
        <time>2023-05-05T16:06:16.000Z</time>
      </trkpt>
      <trkpt lat="43.7808" lon="1.57468">
        <ele>144.599624</ele>
        <time>2023-05-05T16:06:16.000Z</time>
      </trkpt>
      <trkpt lat="43.7808" lon="1.57468">
        <ele>144.599624</ele>
        <time>2023-05-05T16:06:17.000Z</time>
      </trkpt>
      <trkpt lat="43.78099" lon="1.57475">
        <ele>143.409155</ele>
        <time>2023-05-05T16:06:18.000Z</time>
      </trkpt>
      <trkpt lat="43.78099" lon="1.57475">
        <ele>143.409155</ele>
        <time>2023-05-05T16:06:18.000Z</time>
      </trkpt>
      <trkpt lat="43.78099" lon="1.57475">
        <ele>143.409155</ele>
        <time>2023-05-05T16:06:19.000Z</time>
      </trkpt>
      <trkpt lat="43.78114" lon="1.57474">
        <ele>142.723899</ele>
        <time>2023-05-05T16:06:20.000Z</time>
      </trkpt>
      <trkpt lat="43.78114" lon="1.57474">
        <ele>142.723899</ele>
        <time>2023-05-05T16:06:20.000Z</time>
      </trkpt>
      <trkpt lat="43.78114" lon="1.57474">
        <ele>142.723899</ele>
        <time>2023-05-05T16:06:21.000Z</time>
      </trkpt>
      <trkpt lat="43.78124" lon="1.57474">
        <ele>142.291646</ele>
        <time>2023-05-05T16:06:22.000Z</time>
      </trkpt>
      <trkpt lat="43.78124" lon="1.57474">
        <ele>142.291646</ele>
        <time>2023-05-05T16:06:22.000Z</time>
      </trkpt>
      <trkpt lat="43.78128" lon="1.57475">
        <ele>142.086459</ele>
        <time>2023-05-05T16:06:23.000Z</time>
      </trkpt>
      <trkpt lat="43.78128" lon="1.57475">
        <ele>142.086459</ele>
        <time>2023-05-05T16:06:23.000Z</time>
      </trkpt>
      <trkpt lat="43.78134" lon="1.57475">
        <ele>141.807308</ele>
        <time>2023-05-05T16:06:24.000Z</time>
      </trkpt>
      <trkpt lat="43.78134" lon="1.57475">
        <ele>141.807308</ele>
        <time>2023-05-05T16:06:24.000Z</time>
      </trkpt>
      <trkpt lat="43.78142" lon="1.57475">
        <ele>141.447006</ele>
        <time>2023-05-05T16:06:25.000Z</time>
      </trkpt>
      <trkpt lat="43.78142" lon="1.57475">
        <ele>141.447006</ele>
        <time>2023-05-05T16:06:25.000Z</time>
      </trkpt>
      <trkpt lat="43.78142" lon="1.57475">
        <ele>141.447006</ele>
        <time>2023-05-05T16:06:26.000Z</time>
      </trkpt>
      <trkpt lat="43.78152" lon="1.5747">
        <ele>140.976885</ele>
        <time>2023-05-05T16:06:27.000Z</time>
      </trkpt>
      <trkpt lat="43.78152" lon="1.5747">
        <ele>140.976885</ele>
        <time>2023-05-05T16:06:27.000Z</time>
      </trkpt>
      <trkpt lat="43.78152" lon="1.5747">
        <ele>140.976885</ele>
        <time>2023-05-05T16:06:28.000Z</time>
      </trkpt>
      <trkpt lat="43.78156" lon="1.57469">
        <ele>140.814144</ele>
        <time>2023-05-05T16:06:29.000Z</time>
      </trkpt>
      <trkpt lat="43.78156" lon="1.57469">
        <ele>140.814144</ele>
        <time>2023-05-05T16:06:29.000Z</time>
      </trkpt>
      <trkpt lat="43.78156" lon="1.57469">
        <ele>140.814144</ele>
        <time>2023-05-05T16:06:30.000Z</time>
      </trkpt>
      <trkpt lat="43.7818" lon="1.57446">
        <ele>139.482964</ele>
        <time>2023-05-05T16:06:31.000Z</time>
      </trkpt>
      <trkpt lat="43.7818" lon="1.57446">
        <ele>139.482964</ele>
        <time>2023-05-05T16:06:31.000Z</time>
      </trkpt>
      <trkpt lat="43.7818" lon="1.57446">
        <ele>139.482964</ele>
        <time>2023-05-05T16:06:32.000Z</time>
      </trkpt>
      <trkpt lat="43.78191" lon="1.57432">
        <ele>138.804889</ele>
        <time>2023-05-05T16:06:33.000Z</time>
      </trkpt>
      <trkpt lat="43.78191" lon="1.57432">
        <ele>138.804889</ele>
        <time>2023-05-05T16:06:33.000Z</time>
      </trkpt>
      <trkpt lat="43.78191" lon="1.57432">
        <ele>138.804889</ele>
        <time>2023-05-05T16:06:33.000Z</time>
      </trkpt>
      <trkpt lat="43.78193" lon="1.5743">
        <ele>138.715537</ele>
        <time>2023-05-05T16:06:35.000Z</time>
      </trkpt>
      <trkpt lat="43.78193" lon="1.5743">
        <ele>138.715537</ele>
        <time>2023-05-05T16:06:35.000Z</time>
      </trkpt>
      <trkpt lat="43.78201" lon="1.57419">
        <ele>138.205735</ele>
        <time>2023-05-05T16:06:36.000Z</time>
      </trkpt>
      <trkpt lat="43.78201" lon="1.57419">
        <ele>138.205735</ele>
        <time>2023-05-05T16:06:36.000Z</time>
      </trkpt>
      <trkpt lat="43.78201" lon="1.57419">
        <ele>138.205735</ele>
        <time>2023-05-05T16:06:37.000Z</time>
      </trkpt>
      <trkpt lat="43.78214" lon="1.574">
        <ele>137.362366</ele>
        <time>2023-05-05T16:06:38.000Z</time>
      </trkpt>
      <trkpt lat="43.78214" lon="1.574">
        <ele>137.362366</ele>
        <time>2023-05-05T16:06:38.000Z</time>
      </trkpt>
      <trkpt lat="43.78217" lon="1.57395">
        <ele>137.127013</ele>
        <time>2023-05-05T16:06:39.000Z</time>
      </trkpt>
      <trkpt lat="43.78217" lon="1.57395">
        <ele>137.127013</ele>
        <time>2023-05-05T16:06:39.000Z</time>
      </trkpt>
      <trkpt lat="43.78217" lon="1.57395">
        <ele>137.127013</ele>
        <time>2023-05-05T16:06:40.000Z</time>
      </trkpt>
      <trkpt lat="43.78227" lon="1.57378">
        <ele>136.414253</ele>
        <time>2023-05-05T16:06:41.000Z</time>
      </trkpt>
      <trkpt lat="43.78227" lon="1.57378">
        <ele>136.414253</ele>
        <time>2023-05-05T16:06:41.000Z</time>
      </trkpt>
      <trkpt lat="43.78227" lon="1.57378">
        <ele>136.414253</ele>
        <time>2023-05-05T16:06:42.000Z</time>
      </trkpt>
      <trkpt lat="43.78226" lon="1.57379">
        <ele>136.367853</ele>
        <time>2023-05-05T16:06:43.000Z</time>
      </trkpt>
      <trkpt lat="43.78226" lon="1.57379">
        <ele>136.367853</ele>
        <time>2023-05-05T16:06:43.000Z</time>
      </trkpt>
      <trkpt lat="43.78235" lon="1.57364">
        <ele>135.738446</ele>
        <time>2023-05-05T16:06:44.000Z</time>
      </trkpt>
      <trkpt lat="43.78235" lon="1.57364">
        <ele>135.738446</ele>
        <time>2023-05-05T16:06:44.000Z</time>
      </trkpt>
      <trkpt lat="43.7824" lon="1.57357">
        <ele>135.48222</ele>
        <time>2023-05-05T16:06:45.000Z</time>
      </trkpt>
      <trkpt lat="43.7824" lon="1.57357">
        <ele>135.48222</ele>
        <time>2023-05-05T16:06:45.000Z</time>
      </trkpt>
      <trkpt lat="43.7824" lon="1.57357">
        <ele>135.48222</ele>
        <time>2023-05-05T16:06:46.000Z</time>
      </trkpt>
      <trkpt lat="43.78241" lon="1.57354">
        <ele>135.431346</ele>
        <time>2023-05-05T16:06:47.000Z</time>
      </trkpt>
      <trkpt lat="43.78241" lon="1.57354">
        <ele>135.431346</ele>
        <time>2023-05-05T16:06:47.000Z</time>
      </trkpt>
      <trkpt lat="43.78251" lon="1.57338">
        <ele>135.092983</ele>
        <time>2023-05-05T16:06:48.000Z</time>
      </trkpt>
      <trkpt lat="43.78251" lon="1.57338">
        <ele>135.092983</ele>
        <time>2023-05-05T16:06:48.000Z</time>
      </trkpt>
      <trkpt lat="43.78265" lon="1.57313">
        <ele>134.615738</ele>
        <time>2023-05-05T16:06:50.000Z</time>
      </trkpt>
      <trkpt lat="43.78265" lon="1.57313">
        <ele>134.615738</ele>
        <time>2023-05-05T16:06:50.000Z</time>
      </trkpt>
      <trkpt lat="43.78267" lon="1.57309">
        <ele>134.531434</ele>
        <time>2023-05-05T16:06:51.000Z</time>
      </trkpt>
      <trkpt lat="43.78267" lon="1.57309">
        <ele>134.531434</ele>
        <time>2023-05-05T16:06:51.000Z</time>
      </trkpt>
      <trkpt lat="43.78267" lon="1.57309">
        <ele>134.531434</ele>
        <time>2023-05-05T16:06:52.000Z</time>
      </trkpt>
      <trkpt lat="43.78265" lon="1.57311">
        <ele>134.482914</ele>
        <time>2023-05-05T16:06:53.000Z</time>
      </trkpt>
      <trkpt lat="43.78265" lon="1.57311">
        <ele>134.482914</ele>
        <time>2023-05-05T16:06:53.000Z</time>
      </trkpt>
      <trkpt lat="43.78265" lon="1.57311">
        <ele>134.482914</ele>
        <time>2023-05-05T16:06:54.000Z</time>
      </trkpt>
      <trkpt lat="43.78272" lon="1.57286">
        <ele>134.0648</ele>
        <time>2023-05-05T16:06:55.000Z</time>
      </trkpt>
      <trkpt lat="43.78275" lon="1.57276">
        <ele>133.884358</ele>
        <time>2023-05-05T16:06:56.000Z</time>
      </trkpt>
      <trkpt lat="43.78275" lon="1.57276">
        <ele>133.884358</ele>
        <time>2023-05-05T16:06:56.000Z</time>
      </trkpt>
      <trkpt lat="43.78275" lon="1.57276">
        <ele>133.884358</ele>
        <time>2023-05-05T16:06:57.000Z</time>
      </trkpt>
      <trkpt lat="43.78284" lon="1.57251">
        <ele>133.458462</ele>
        <time>2023-05-05T16:06:58.000Z</time>
      </trkpt>
      <trkpt lat="43.78284" lon="1.57251">
        <ele>133.458462</ele>
        <time>2023-05-05T16:06:59.000Z</time>
      </trkpt>
      <trkpt lat="43.78285" lon="1.57245">
        <ele>133.359088</ele>
        <time>2023-05-05T16:07:00.000Z</time>
      </trkpt>
      <trkpt lat="43.78288" lon="1.57235">
        <ele>133.194831</ele>
        <time>2023-05-05T16:07:01.000Z</time>
      </trkpt>
      <trkpt lat="43.78288" lon="1.57235">
        <ele>133.194831</ele>
        <time>2023-05-05T16:07:01.000Z</time>
      </trkpt>
      <trkpt lat="43.78288" lon="1.57235">
        <ele>133.194831</ele>
        <time>2023-05-05T16:07:02.000Z</time>
      </trkpt>
      <trkpt lat="43.78288" lon="1.57234">
        <ele>133.169268</ele>
        <time>2023-05-05T16:07:03.000Z</time>
      </trkpt>
      <trkpt lat="43.78295" lon="1.57213">
        <ele>132.807634</ele>
        <time>2023-05-05T16:07:04.000Z</time>
      </trkpt>
      <trkpt lat="43.78295" lon="1.57213">
        <ele>132.807634</ele>
        <time>2023-05-05T16:07:04.000Z</time>
      </trkpt>
      <trkpt lat="43.78299" lon="1.57203">
        <ele>132.637919</ele>
        <time>2023-05-05T16:07:06.000Z</time>
      </trkpt>
      <trkpt lat="43.78299" lon="1.57203">
        <ele>132.637919</ele>
        <time>2023-05-05T16:07:06.000Z</time>
      </trkpt>
      <trkpt lat="43.78304" lon="1.57188">
        <ele>132.375147</ele>
        <time>2023-05-05T16:07:07.000Z</time>
      </trkpt>
      <trkpt lat="43.78304" lon="1.57188">
        <ele>132.375147</ele>
        <time>2023-05-05T16:07:07.000Z</time>
      </trkpt>
      <trkpt lat="43.78307" lon="1.57176">
        <ele>132.180659</ele>
        <time>2023-05-05T16:07:08.000Z</time>
      </trkpt>
      <trkpt lat="43.7831" lon="1.57166">
        <ele>132.010336</ele>
        <time>2023-05-05T16:07:09.000Z</time>
      </trkpt>
      <trkpt lat="43.7831" lon="1.57166">
        <ele>132.010336</ele>
        <time>2023-05-05T16:07:09.000Z</time>
      </trkpt>
      <trkpt lat="43.78317" lon="1.57143">
        <ele>131.625522</ele>
        <time>2023-05-05T16:07:11.000Z</time>
      </trkpt>
      <trkpt lat="43.78317" lon="1.57143">
        <ele>131.625522</ele>
        <time>2023-05-05T16:07:11.000Z</time>
      </trkpt>
      <trkpt lat="43.78317" lon="1.57144">
        <ele>131.620321</ele>
        <time>2023-05-05T16:07:13.000Z</time>
      </trkpt>
      <trkpt lat="43.78317" lon="1.57144">
        <ele>131.620321</ele>
        <time>2023-05-05T16:07:13.000Z</time>
      </trkpt>
      <trkpt lat="43.78323" lon="1.57125">
        <ele>131.484771</ele>
        <time>2023-05-05T16:07:14.000Z</time>
      </trkpt>
      <trkpt lat="43.78323" lon="1.57125">
        <ele>131.484771</ele>
        <time>2023-05-05T16:07:15.000Z</time>
      </trkpt>
      <trkpt lat="43.78328" lon="1.57109">
        <ele>131.374182</ele>
        <time>2023-05-05T16:07:16.000Z</time>
      </trkpt>
      <trkpt lat="43.78328" lon="1.57109">
        <ele>131.374182</ele>
        <time>2023-05-05T16:07:17.000Z</time>
      </trkpt>
      <trkpt lat="43.78333" lon="1.57087">
        <ele>131.226207</ele>
        <time>2023-05-05T16:07:18.000Z</time>
      </trkpt>
      <trkpt lat="43.78333" lon="1.57087">
        <ele>131.226207</ele>
        <time>2023-05-05T16:07:19.000Z</time>
      </trkpt>
      <trkpt lat="43.78336" lon="1.57079">
        <ele>131.164704</ele>
        <time>2023-05-05T16:07:20.000Z</time>
      </trkpt>
      <trkpt lat="43.78342" lon="1.57064">
        <ele>131.055051</ele>
        <time>2023-05-05T16:07:22.000Z</time>
      </trkpt>
      <trkpt lat="43.78342" lon="1.57064">
        <ele>131.055051</ele>
        <time>2023-05-05T16:07:22.000Z</time>
      </trkpt>
      <trkpt lat="43.78344" lon="1.5706">
        <ele>131.024476</ele>
        <time>2023-05-05T16:07:23.000Z</time>
      </trkpt>
      <trkpt lat="43.78344" lon="1.57052">
        <ele>130.971699</ele>
        <time>2023-05-05T16:07:25.000Z</time>
      </trkpt>
      <trkpt lat="43.78344" lon="1.57052">
        <ele>130.971699</ele>
        <time>2023-05-05T16:07:25.000Z</time>
      </trkpt>
      <trkpt lat="43.78344" lon="1.57046">
        <ele>130.935947</ele>
        <time>2023-05-05T16:07:26.000Z</time>
      </trkpt>
      <trkpt lat="43.78339" lon="1.57032">
        <ele>130.836551</ele>
        <time>2023-05-05T16:07:28.000Z</time>
      </trkpt>
      <trkpt lat="43.78339" lon="1.57029">
        <ele>130.81544</ele>
        <time>2023-05-05T16:07:29.000Z</time>
      </trkpt>
      <trkpt lat="43.78339" lon="1.57029">
        <ele>130.81544</ele>
        <time>2023-05-05T16:07:29.000Z</time>
      </trkpt>
      <trkpt lat="43.78338" lon="1.57027">
        <ele>130.797068</ele>
        <time>2023-05-05T16:07:30.000Z</time>
      </trkpt>
      <trkpt lat="43.78338" lon="1.57024">
        <ele>130.775954</ele>
        <time>2023-05-05T16:07:31.000Z</time>
      </trkpt>
      <trkpt lat="43.78336" lon="1.5702">
        <ele>130.749495</ele>
        <time>2023-05-05T16:07:33.000Z</time>
      </trkpt>
      <trkpt lat="43.78335" lon="1.57016">
        <ele>130.723128</ele>
        <time>2023-05-05T16:07:34.000Z</time>
      </trkpt>
      <trkpt lat="43.78335" lon="1.57016">
        <ele>130.720528</ele>
        <time>2023-05-05T16:07:36.000Z</time>
      </trkpt>
      <trkpt lat="43.78335" lon="1.57016">
        <ele>130.720528</ele>
        <time>2023-05-05T16:07:36.000Z</time>
      </trkpt>
      <trkpt lat="43.78329" lon="1.57004">
        <ele>130.627241</ele>
        <time>2023-05-05T16:07:38.000Z</time>
      </trkpt>
      <trkpt lat="43.78327" lon="1.57002">
        <ele>130.603645</ele>
        <time>2023-05-05T16:07:39.000Z</time>
      </trkpt>
      <trkpt lat="43.78319" lon="1.56992">
        <ele>130.507915</ele>
        <time>2023-05-05T16:07:40.000Z</time>
      </trkpt>
      <trkpt lat="43.78313" lon="1.56985">
        <ele>130.442639</ele>
        <time>2023-05-05T16:07:41.000Z</time>
      </trkpt>
      <trkpt lat="43.78308" lon="1.56981">
        <ele>130.385265</ele>
        <time>2023-05-05T16:07:42.000Z</time>
      </trkpt>
      <trkpt lat="43.78303" lon="1.56976">
        <ele>130.329292</ele>
        <time>2023-05-05T16:07:44.000Z</time>
      </trkpt>
      <trkpt lat="43.78298" lon="1.56972">
        <ele>130.281397</ele>
        <time>2023-05-05T16:07:45.000Z</time>
      </trkpt>
      <trkpt lat="43.78293" lon="1.56968">
        <ele>130.225314</ele>
        <time>2023-05-05T16:07:47.000Z</time>
      </trkpt>
      <trkpt lat="43.78288" lon="1.56964">
        <ele>130.176091</ele>
        <time>2023-05-05T16:07:47.000Z</time>
      </trkpt>
      <trkpt lat="43.78284" lon="1.56959">
        <ele>130.129065</ele>
        <time>2023-05-05T16:07:49.000Z</time>
      </trkpt>
      <trkpt lat="43.78281" lon="1.56957">
        <ele>130.100179</ele>
        <time>2023-05-05T16:07:50.000Z</time>
      </trkpt>
      <trkpt lat="43.78278" lon="1.56953">
        <ele>130.061773</ele>
        <time>2023-05-05T16:07:51.000Z</time>
      </trkpt>
      <trkpt lat="43.78276" lon="1.56949">
        <ele>130.025699</ele>
        <time>2023-05-05T16:07:52.000Z</time>
      </trkpt>
      <trkpt lat="43.78273" lon="1.56944">
        <ele>130.008582</ele>
        <time>2023-05-05T16:07:54.000Z</time>
      </trkpt>
      <trkpt lat="43.7827" lon="1.56939">
        <ele>130.000495</ele>
        <time>2023-05-05T16:07:55.000Z</time>
      </trkpt>
      <trkpt lat="43.78268" lon="1.56934">
        <ele>129.993157</ele>
        <time>2023-05-05T16:07:56.000Z</time>
      </trkpt>
      <trkpt lat="43.78268" lon="1.5693">
        <ele>129.987895</ele>
        <time>2023-05-05T16:07:58.000Z</time>
      </trkpt>
      <trkpt lat="43.78267" lon="1.56926">
        <ele>129.982708</ele>
        <time>2023-05-05T16:07:59.000Z</time>
      </trkpt>
      <trkpt lat="43.7826" lon="1.56916">
        <ele>128.773089</ele>
        <time>2023-05-05T16:11:08.000Z</time>
      </trkpt>
      <trkpt lat="43.78259" lon="1.56916">
        <ele>128.789182</ele>
        <time>2023-05-05T16:11:08.000Z</time>
      </trkpt>
      <trkpt lat="43.78259" lon="1.56917">
        <ele>128.795979</ele>
        <time>2023-05-05T16:11:09.000Z</time>
      </trkpt>
      <trkpt lat="43.78259" lon="1.56918">
        <ele>128.80411</ele>
        <time>2023-05-05T16:11:11.000Z</time>
      </trkpt>
      <trkpt lat="43.7826" lon="1.56917">
        <ele>128.813353</ele>
        <time>2023-05-05T16:11:13.000Z</time>
      </trkpt>
      <trkpt lat="43.78259" lon="1.56917">
        <ele>128.824801</ele>
        <time>2023-05-05T16:11:14.000Z</time>
      </trkpt>
      <trkpt lat="43.78259" lon="1.56916">
        <ele>128.831176</ele>
        <time>2023-05-05T16:11:15.000Z</time>
      </trkpt>
      <trkpt lat="43.78258" lon="1.56914">
        <ele>128.856212</ele>
        <time>2023-05-05T16:11:16.000Z</time>
      </trkpt>
      <trkpt lat="43.78256" lon="1.56912">
        <ele>128.887329</ele>
        <time>2023-05-05T16:11:17.000Z</time>
      </trkpt>
      <trkpt lat="43.78253" lon="1.56909">
        <ele>128.934544</ele>
        <time>2023-05-05T16:11:19.000Z</time>
      </trkpt>
      <trkpt lat="43.7825" lon="1.56907">
        <ele>128.979344</ele>
        <time>2023-05-05T16:11:20.000Z</time>
      </trkpt>
      <trkpt lat="43.78243" lon="1.56902">
        <ele>129.073266</ele>
        <time>2023-05-05T16:11:22.000Z</time>
      </trkpt>
      <trkpt lat="43.78238" lon="1.56899">
        <ele>129.149672</ele>
        <time>2023-05-05T16:11:23.000Z</time>
      </trkpt>
      <trkpt lat="43.78229" lon="1.56893">
        <ele>129.268071</ele>
        <time>2023-05-05T16:11:25.000Z</time>
      </trkpt>
      <trkpt lat="43.78232" lon="1.56896">
        <ele>129.316304</ele>
        <time>2023-05-05T16:11:27.000Z</time>
      </trkpt>
      <trkpt lat="43.78217" lon="1.56881">
        <ele>129.557431</ele>
        <time>2023-05-05T16:11:28.000Z</time>
      </trkpt>
      <trkpt lat="43.78202" lon="1.56865">
        <ele>129.784375</ele>
        <time>2023-05-05T16:11:30.000Z</time>
      </trkpt>
      <trkpt lat="43.78202" lon="1.56865">
        <ele>129.784375</ele>
        <time>2023-05-05T16:11:30.000Z</time>
      </trkpt>
      <trkpt lat="43.78194" lon="1.56857">
        <ele>129.916144</ele>
        <time>2023-05-05T16:11:31.000Z</time>
      </trkpt>
      <trkpt lat="43.78187" lon="1.56849">
        <ele>130.028167</ele>
        <time>2023-05-05T16:11:32.000Z</time>
      </trkpt>
      <trkpt lat="43.78187" lon="1.56849">
        <ele>130.028167</ele>
        <time>2023-05-05T16:11:33.000Z</time>
      </trkpt>
      <trkpt lat="43.7817" lon="1.56836">
        <ele>130.273635</ele>
        <time>2023-05-05T16:11:34.000Z</time>
      </trkpt>
      <trkpt lat="43.7817" lon="1.56836">
        <ele>130.273635</ele>
        <time>2023-05-05T16:11:35.000Z</time>
      </trkpt>
      <trkpt lat="43.78159" lon="1.56829">
        <ele>130.424098</ele>
        <time>2023-05-05T16:11:36.000Z</time>
      </trkpt>
      <trkpt lat="43.78159" lon="1.56829">
        <ele>130.424098</ele>
        <time>2023-05-05T16:11:37.000Z</time>
      </trkpt>
      <trkpt lat="43.78152" lon="1.56823">
        <ele>130.533558</ele>
        <time>2023-05-05T16:11:38.000Z</time>
      </trkpt>
      <trkpt lat="43.78152" lon="1.56823">
        <ele>130.533558</ele>
        <time>2023-05-05T16:11:39.000Z</time>
      </trkpt>
      <trkpt lat="43.78147" lon="1.56817">
        <ele>130.614672</ele>
        <time>2023-05-05T16:11:40.000Z</time>
      </trkpt>
      <trkpt lat="43.78147" lon="1.56817">
        <ele>130.614672</ele>
        <time>2023-05-05T16:11:40.000Z</time>
      </trkpt>
      <trkpt lat="43.78143" lon="1.56815">
        <ele>130.663231</ele>
        <time>2023-05-05T16:11:41.000Z</time>
      </trkpt>
      <trkpt lat="43.7814" lon="1.56811">
        <ele>130.715086</ele>
        <time>2023-05-05T16:11:42.000Z</time>
      </trkpt>
      <trkpt lat="43.7814" lon="1.56811">
        <ele>130.715086</ele>
        <time>2023-05-05T16:11:42.000Z</time>
      </trkpt>
      <trkpt lat="43.78143" lon="1.56814">
        <ele>130.757488</ele>
        <time>2023-05-05T16:11:43.000Z</time>
      </trkpt>
      <trkpt lat="43.78143" lon="1.56814">
        <ele>130.757488</ele>
        <time>2023-05-05T16:11:43.000Z</time>
      </trkpt>
      <trkpt lat="43.78145" lon="1.56815">
        <ele>130.784637</ele>
        <time>2023-05-05T16:11:45.000Z</time>
      </trkpt>
      <trkpt lat="43.78145" lon="1.56815">
        <ele>130.784637</ele>
        <time>2023-05-05T16:11:45.000Z</time>
      </trkpt>
      <trkpt lat="43.78118" lon="1.56796">
        <ele>131.431929</ele>
        <time>2023-05-05T16:11:47.000Z</time>
      </trkpt>
      <trkpt lat="43.78118" lon="1.56796">
        <ele>131.431929</ele>
        <time>2023-05-05T16:11:47.000Z</time>
      </trkpt>
      <trkpt lat="43.78112" lon="1.56794">
        <ele>131.619571</ele>
        <time>2023-05-05T16:11:47.000Z</time>
      </trkpt>
      <trkpt lat="43.78112" lon="1.56794">
        <ele>131.619571</ele>
        <time>2023-05-05T16:11:47.000Z</time>
      </trkpt>
      <trkpt lat="43.78108" lon="1.56791">
        <ele>131.763415</ele>
        <time>2023-05-05T16:11:49.000Z</time>
      </trkpt>
      <trkpt lat="43.78108" lon="1.56791">
        <ele>131.763415</ele>
        <time>2023-05-05T16:11:49.000Z</time>
      </trkpt>
      <trkpt lat="43.78103" lon="1.56788">
        <ele>131.957466</ele>
        <time>2023-05-05T16:11:50.000Z</time>
      </trkpt>
      <trkpt lat="43.78103" lon="1.56788">
        <ele>131.957466</ele>
        <time>2023-05-05T16:11:50.000Z</time>
      </trkpt>
      <trkpt lat="43.78098" lon="1.56786">
        <ele>132.094284</ele>
        <time>2023-05-05T16:11:51.000Z</time>
      </trkpt>
      <trkpt lat="43.78098" lon="1.56786">
        <ele>132.094284</ele>
        <time>2023-05-05T16:11:51.000Z</time>
      </trkpt>
      <trkpt lat="43.78092" lon="1.56782">
        <ele>132.314019</ele>
        <time>2023-05-05T16:11:53.000Z</time>
      </trkpt>
      <trkpt lat="43.78092" lon="1.56782">
        <ele>132.314019</ele>
        <time>2023-05-05T16:11:53.000Z</time>
      </trkpt>
      <trkpt lat="43.78087" lon="1.5678">
        <ele>132.490591</ele>
        <time>2023-05-05T16:11:54.000Z</time>
      </trkpt>
      <trkpt lat="43.78087" lon="1.5678">
        <ele>132.490591</ele>
        <time>2023-05-05T16:11:54.000Z</time>
      </trkpt>
      <trkpt lat="43.7808" lon="1.56776">
        <ele>132.707055</ele>
        <time>2023-05-05T16:11:55.000Z</time>
      </trkpt>
      <trkpt lat="43.7808" lon="1.56776">
        <ele>132.707055</ele>
        <time>2023-05-05T16:11:55.000Z</time>
      </trkpt>
      <trkpt lat="43.78075" lon="1.56773">
        <ele>132.891605</ele>
        <time>2023-05-05T16:11:55.000Z</time>
      </trkpt>
      <trkpt lat="43.78075" lon="1.56773">
        <ele>132.891605</ele>
        <time>2023-05-05T16:11:55.000Z</time>
      </trkpt>
      <trkpt lat="43.7807" lon="1.5677">
        <ele>133.056497</ele>
        <time>2023-05-05T16:11:57.000Z</time>
      </trkpt>
      <trkpt lat="43.7807" lon="1.5677">
        <ele>133.056497</ele>
        <time>2023-05-05T16:11:57.000Z</time>
      </trkpt>
      <trkpt lat="43.78066" lon="1.56768">
        <ele>133.171997</ele>
        <time>2023-05-05T16:11:58.000Z</time>
      </trkpt>
      <trkpt lat="43.78066" lon="1.56768">
        <ele>133.171997</ele>
        <time>2023-05-05T16:11:58.000Z</time>
      </trkpt>
      <trkpt lat="43.78064" lon="1.56767">
        <ele>133.262142</ele>
        <time>2023-05-05T16:12:00.000Z</time>
      </trkpt>
      <trkpt lat="43.78064" lon="1.56767">
        <ele>133.262142</ele>
        <time>2023-05-05T16:12:00.000Z</time>
      </trkpt>
      <trkpt lat="43.78061" lon="1.56765">
        <ele>133.367245</ele>
        <time>2023-05-05T16:12:02.000Z</time>
      </trkpt>
      <trkpt lat="43.78061" lon="1.56765">
        <ele>133.367245</ele>
        <time>2023-05-05T16:12:02.000Z</time>
      </trkpt>
      <trkpt lat="43.78057" lon="1.56764">
        <ele>133.476417</ele>
        <time>2023-05-05T16:12:03.000Z</time>
      </trkpt>
      <trkpt lat="43.78057" lon="1.56764">
        <ele>133.476417</ele>
        <time>2023-05-05T16:12:03.000Z</time>
      </trkpt>
      <trkpt lat="43.78053" lon="1.56762">
        <ele>133.624181</ele>
        <time>2023-05-05T16:12:04.000Z</time>
      </trkpt>
      <trkpt lat="43.78053" lon="1.56762">
        <ele>133.624181</ele>
        <time>2023-05-05T16:12:04.000Z</time>
      </trkpt>
      <trkpt lat="43.78044" lon="1.5676">
        <ele>133.892825</ele>
        <time>2023-05-05T16:12:06.000Z</time>
      </trkpt>
      <trkpt lat="43.78044" lon="1.5676">
        <ele>133.892825</ele>
        <time>2023-05-05T16:12:06.000Z</time>
      </trkpt>
      <trkpt lat="43.78041" lon="1.56759">
        <ele>134.00106</ele>
        <time>2023-05-05T16:12:08.000Z</time>
      </trkpt>
      <trkpt lat="43.78041" lon="1.56759">
        <ele>134.00106</ele>
        <time>2023-05-05T16:12:08.000Z</time>
      </trkpt>
      <trkpt lat="43.78037" lon="1.56758">
        <ele>134.120923</ele>
        <time>2023-05-05T16:12:09.000Z</time>
      </trkpt>
      <trkpt lat="43.78037" lon="1.56758">
        <ele>134.120923</ele>
        <time>2023-05-05T16:12:09.000Z</time>
      </trkpt>
      <trkpt lat="43.78032" lon="1.56758">
        <ele>134.277262</ele>
        <time>2023-05-05T16:12:10.000Z</time>
      </trkpt>
      <trkpt lat="43.78032" lon="1.56758">
        <ele>134.277262</ele>
        <time>2023-05-05T16:12:10.000Z</time>
      </trkpt>
      <trkpt lat="43.78027" lon="1.56758">
        <ele>134.442981</ele>
        <time>2023-05-05T16:12:11.000Z</time>
      </trkpt>
      <trkpt lat="43.78027" lon="1.56758">
        <ele>134.442981</ele>
        <time>2023-05-05T16:12:11.000Z</time>
      </trkpt>
      <trkpt lat="43.78022" lon="1.56758">
        <ele>134.58683</ele>
        <time>2023-05-05T16:12:12.000Z</time>
      </trkpt>
      <trkpt lat="43.78016" lon="1.56759">
        <ele>134.76557</ele>
        <time>2023-05-05T16:12:14.000Z</time>
      </trkpt>
      <trkpt lat="43.78016" lon="1.56759">
        <ele>134.76557</ele>
        <time>2023-05-05T16:12:14.000Z</time>
      </trkpt>
      <trkpt lat="43.78012" lon="1.56759">
        <ele>134.909561</ele>
        <time>2023-05-05T16:12:15.000Z</time>
      </trkpt>
      <trkpt lat="43.78012" lon="1.56759">
        <ele>134.909561</ele>
        <time>2023-05-05T16:12:15.000Z</time>
      </trkpt>
      <trkpt lat="43.78007" lon="1.5676">
        <ele>135.053835</ele>
        <time>2023-05-05T16:12:16.000Z</time>
      </trkpt>
      <trkpt lat="43.78007" lon="1.5676">
        <ele>135.053835</ele>
        <time>2023-05-05T16:12:16.000Z</time>
      </trkpt>
      <trkpt lat="43.78004" lon="1.5676">
        <ele>135.147882</ele>
        <time>2023-05-05T16:12:17.000Z</time>
      </trkpt>
      <trkpt lat="43.78003" lon="1.56761">
        <ele>135.200347</ele>
        <time>2023-05-05T16:12:18.000Z</time>
      </trkpt>
      <trkpt lat="43.78003" lon="1.56761">
        <ele>135.200347</ele>
        <time>2023-05-05T16:12:18.000Z</time>
      </trkpt>
      <trkpt lat="43.78" lon="1.5676">
        <ele>135.270928</ele>
        <time>2023-05-05T16:12:19.000Z</time>
      </trkpt>
      <trkpt lat="43.77998" lon="1.56759">
        <ele>135.336019</ele>
        <time>2023-05-05T16:12:21.000Z</time>
      </trkpt>
      <trkpt lat="43.77998" lon="1.56759">
        <ele>135.336019</ele>
        <time>2023-05-05T16:12:21.000Z</time>
      </trkpt>
      <trkpt lat="43.77996" lon="1.56759">
        <ele>135.398112</ele>
        <time>2023-05-05T16:12:22.000Z</time>
      </trkpt>
      <trkpt lat="43.77994" lon="1.56757">
        <ele>135.480396</ele>
        <time>2023-05-05T16:12:23.000Z</time>
      </trkpt>
      <trkpt lat="43.77993" lon="1.56755">
        <ele>135.535705</ele>
        <time>2023-05-05T16:12:24.000Z</time>
      </trkpt>
      <trkpt lat="43.77991" lon="1.56753">
        <ele>135.615194</ele>
        <time>2023-05-05T16:12:25.000Z</time>
      </trkpt>
      <trkpt lat="43.77991" lon="1.56753">
        <ele>135.615194</ele>
        <time>2023-05-05T16:12:25.000Z</time>
      </trkpt>
      <trkpt lat="43.77988" lon="1.56751">
        <ele>135.727062</ele>
        <time>2023-05-05T16:12:26.000Z</time>
      </trkpt>
      <trkpt lat="43.77985" lon="1.56747">
        <ele>135.847951</ele>
        <time>2023-05-05T16:12:27.000Z</time>
      </trkpt>
      <trkpt lat="43.77982" lon="1.56744">
        <ele>135.962051</ele>
        <time>2023-05-05T16:12:28.000Z</time>
      </trkpt>
      <trkpt lat="43.77979" lon="1.56741">
        <ele>136.071524</ele>
        <time>2023-05-05T16:12:30.000Z</time>
      </trkpt>
      <trkpt lat="43.77979" lon="1.56741">
        <ele>136.071524</ele>
        <time>2023-05-05T16:12:30.000Z</time>
      </trkpt>
      <trkpt lat="43.77975" lon="1.56738">
        <ele>136.216764</ele>
        <time>2023-05-05T16:12:31.000Z</time>
      </trkpt>
      <trkpt lat="43.77972" lon="1.56735">
        <ele>136.328928</ele>
        <time>2023-05-05T16:12:32.000Z</time>
      </trkpt>
      <trkpt lat="43.77965" lon="1.56732">
        <ele>136.553486</ele>
        <time>2023-05-05T16:12:34.000Z</time>
      </trkpt>
      <trkpt lat="43.77959" lon="1.5673">
        <ele>136.688512</ele>
        <time>2023-05-05T16:12:35.000Z</time>
      </trkpt>
      <trkpt lat="43.77947" lon="1.56725">
        <ele>136.914983</ele>
        <time>2023-05-05T16:12:37.000Z</time>
      </trkpt>
      <trkpt lat="43.77924" lon="1.56718">
        <ele>137.339711</ele>
        <time>2023-05-05T16:12:39.000Z</time>
      </trkpt>
      <trkpt lat="43.77916" lon="1.56715">
        <ele>137.480107</ele>
        <time>2023-05-05T16:12:41.000Z</time>
      </trkpt>
      <trkpt lat="43.77911" lon="1.56713">
        <ele>137.565101</ele>
        <time>2023-05-05T16:12:42.000Z</time>
      </trkpt>
      <trkpt lat="43.77903" lon="1.5671">
        <ele>137.71412</ele>
        <time>2023-05-05T16:12:43.000Z</time>
      </trkpt>
      <trkpt lat="43.77903" lon="1.5671">
        <ele>137.71412</ele>
        <time>2023-05-05T16:12:43.000Z</time>
      </trkpt>
      <trkpt lat="43.77891" lon="1.56704">
        <ele>137.943977</ele>
        <time>2023-05-05T16:12:45.000Z</time>
      </trkpt>
      <trkpt lat="43.77882" lon="1.567">
        <ele>138.110568</ele>
        <time>2023-05-05T16:12:46.000Z</time>
      </trkpt>
      <trkpt lat="43.77882" lon="1.567">
        <ele>138.110568</ele>
        <time>2023-05-05T16:12:46.000Z</time>
      </trkpt>
      <trkpt lat="43.77864" lon="1.56695">
        <ele>138.445145</ele>
        <time>2023-05-05T16:12:48.000Z</time>
      </trkpt>
      <trkpt lat="43.77861" lon="1.56694">
        <ele>138.500727</ele>
        <time>2023-05-05T16:12:49.000Z</time>
      </trkpt>
      <trkpt lat="43.77861" lon="1.56694">
        <ele>138.500727</ele>
        <time>2023-05-05T16:12:49.000Z</time>
      </trkpt>
      <trkpt lat="43.77861" lon="1.56694">
        <ele>138.500727</ele>
        <time>2023-05-05T16:12:50.000Z</time>
      </trkpt>
      <trkpt lat="43.77856" lon="1.56693">
        <ele>138.596401</ele>
        <time>2023-05-05T16:12:51.000Z</time>
      </trkpt>
      <trkpt lat="43.77852" lon="1.56692">
        <ele>138.665706</ele>
        <time>2023-05-05T16:12:52.000Z</time>
      </trkpt>
      <trkpt lat="43.77852" lon="1.56692">
        <ele>138.665706</ele>
        <time>2023-05-05T16:12:52.000Z</time>
      </trkpt>
      <trkpt lat="43.77847" lon="1.5669">
        <ele>138.758266</ele>
        <time>2023-05-05T16:12:53.000Z</time>
      </trkpt>
      <trkpt lat="43.77847" lon="1.5669">
        <ele>138.758266</ele>
        <time>2023-05-05T16:12:54.000Z</time>
      </trkpt>
      <trkpt lat="43.77842" lon="1.56687">
        <ele>138.859533</ele>
        <time>2023-05-05T16:12:55.000Z</time>
      </trkpt>
      <trkpt lat="43.7784" lon="1.56686">
        <ele>138.895382</ele>
        <time>2023-05-05T16:12:56.000Z</time>
      </trkpt>
      <trkpt lat="43.7784" lon="1.56686">
        <ele>138.895382</ele>
        <time>2023-05-05T16:12:56.000Z</time>
      </trkpt>
      <trkpt lat="43.77837" lon="1.56685">
        <ele>138.939259</ele>
        <time>2023-05-05T16:12:58.000Z</time>
      </trkpt>
      <trkpt lat="43.77837" lon="1.56685">
        <ele>138.939259</ele>
        <time>2023-05-05T16:12:58.000Z</time>
      </trkpt>
      <trkpt lat="43.77836" lon="1.56684">
        <ele>138.97449</ele>
        <time>2023-05-05T16:12:59.000Z</time>
      </trkpt>
      <trkpt lat="43.77835" lon="1.56682">
        <ele>139.005882</ele>
        <time>2023-05-05T16:13:00.000Z</time>
      </trkpt>
      <trkpt lat="43.77835" lon="1.56682">
        <ele>139.005882</ele>
        <time>2023-05-05T16:13:00.000Z</time>
      </trkpt>
      <trkpt lat="43.77833" lon="1.5668">
        <ele>139.045579</ele>
        <time>2023-05-05T16:13:02.000Z</time>
      </trkpt>
      <trkpt lat="43.7783" lon="1.56678">
        <ele>139.100241</ele>
        <time>2023-05-05T16:13:03.000Z</time>
      </trkpt>
      <trkpt lat="43.77827" lon="1.56676">
        <ele>139.162745</ele>
        <time>2023-05-05T16:13:04.000Z</time>
      </trkpt>
      <trkpt lat="43.77827" lon="1.56676">
        <ele>139.162745</ele>
        <time>2023-05-05T16:13:04.000Z</time>
      </trkpt>
      <trkpt lat="43.77824" lon="1.56673">
        <ele>139.234267</ele>
        <time>2023-05-05T16:13:05.000Z</time>
      </trkpt>
      <trkpt lat="43.7782" lon="1.5667">
        <ele>139.303602</ele>
        <time>2023-05-05T16:13:06.000Z</time>
      </trkpt>
      <trkpt lat="43.7782" lon="1.5667">
        <ele>139.303602</ele>
        <time>2023-05-05T16:13:06.000Z</time>
      </trkpt>
      <trkpt lat="43.77817" lon="1.56668">
        <ele>139.371154</ele>
        <time>2023-05-05T16:13:08.000Z</time>
      </trkpt>
      <trkpt lat="43.77813" lon="1.56665">
        <ele>139.446819</ele>
        <time>2023-05-05T16:13:09.000Z</time>
      </trkpt>
      <trkpt lat="43.77813" lon="1.56665">
        <ele>139.446819</ele>
        <time>2023-05-05T16:13:09.000Z</time>
      </trkpt>
      <trkpt lat="43.77811" lon="1.56664">
        <ele>139.492204</ele>
        <time>2023-05-05T16:13:10.000Z</time>
      </trkpt>
      <trkpt lat="43.77807" lon="1.56661">
        <ele>139.561926</ele>
        <time>2023-05-05T16:13:12.000Z</time>
      </trkpt>
      <trkpt lat="43.77807" lon="1.56661">
        <ele>139.561926</ele>
        <time>2023-05-05T16:13:12.000Z</time>
      </trkpt>
      <trkpt lat="43.77804" lon="1.5666">
        <ele>139.620293</ele>
        <time>2023-05-05T16:13:13.000Z</time>
      </trkpt>
      <trkpt lat="43.77799" lon="1.56657">
        <ele>139.721151</ele>
        <time>2023-05-05T16:13:15.000Z</time>
      </trkpt>
      <trkpt lat="43.77799" lon="1.56657">
        <ele>139.721151</ele>
        <time>2023-05-05T16:13:15.000Z</time>
      </trkpt>
      <trkpt lat="43.77797" lon="1.56656">
        <ele>139.762907</ele>
        <time>2023-05-05T16:13:16.000Z</time>
      </trkpt>
      <trkpt lat="43.77797" lon="1.56656">
        <ele>139.762907</ele>
        <time>2023-05-05T16:13:16.000Z</time>
      </trkpt>
      <trkpt lat="43.77795" lon="1.56656">
        <ele>139.786153</ele>
        <time>2023-05-05T16:13:18.000Z</time>
      </trkpt>
      <trkpt lat="43.77791" lon="1.56654">
        <ele>139.912352</ele>
        <time>2023-05-05T16:13:20.000Z</time>
      </trkpt>
      <trkpt lat="43.77791" lon="1.56654">
        <ele>139.912352</ele>
        <time>2023-05-05T16:13:20.000Z</time>
      </trkpt>
      <trkpt lat="43.77788" lon="1.56653">
        <ele>139.995915</ele>
        <time>2023-05-05T16:13:21.000Z</time>
      </trkpt>
      <trkpt lat="43.77785" lon="1.56652">
        <ele>140.086953</ele>
        <time>2023-05-05T16:13:23.000Z</time>
      </trkpt>
      <trkpt lat="43.77785" lon="1.56652">
        <ele>140.086953</ele>
        <time>2023-05-05T16:13:23.000Z</time>
      </trkpt>
      <trkpt lat="43.77781" lon="1.56652">
        <ele>140.185699</ele>
        <time>2023-05-05T16:13:24.000Z</time>
      </trkpt>
      <trkpt lat="43.77778" lon="1.56652">
        <ele>140.276158</ele>
        <time>2023-05-05T16:13:24.000Z</time>
      </trkpt>
      <trkpt lat="43.77778" lon="1.56652">
        <ele>140.276158</ele>
        <time>2023-05-05T16:13:24.000Z</time>
      </trkpt>
      <trkpt lat="43.77775" lon="1.56651">
        <ele>140.363513</ele>
        <time>2023-05-05T16:13:26.000Z</time>
      </trkpt>
      <trkpt lat="43.7777" lon="1.56651">
        <ele>140.50845</ele>
        <time>2023-05-05T16:13:28.000Z</time>
      </trkpt>
      <trkpt lat="43.77767" lon="1.5665">
        <ele>140.597001</ele>
        <time>2023-05-05T16:13:29.000Z</time>
      </trkpt>
      <trkpt lat="43.77767" lon="1.5665">
        <ele>140.597001</ele>
        <time>2023-05-05T16:13:29.000Z</time>
      </trkpt>
      <trkpt lat="43.77762" lon="1.56649">
        <ele>140.74374</ele>
        <time>2023-05-05T16:13:31.000Z</time>
      </trkpt>
      <trkpt lat="43.77762" lon="1.56649">
        <ele>140.74374</ele>
        <time>2023-05-05T16:13:31.000Z</time>
      </trkpt>
      <trkpt lat="43.77757" lon="1.56648">
        <ele>140.900532</ele>
        <time>2023-05-05T16:13:32.000Z</time>
      </trkpt>
      <trkpt lat="43.77752" lon="1.56646">
        <ele>141.040275</ele>
        <time>2023-05-05T16:13:33.000Z</time>
      </trkpt>
      <trkpt lat="43.77752" lon="1.56646">
        <ele>141.040275</ele>
        <time>2023-05-05T16:13:33.000Z</time>
      </trkpt>
      <trkpt lat="43.77749" lon="1.56643">
        <ele>141.140692</ele>
        <time>2023-05-05T16:13:34.000Z</time>
      </trkpt>
      <trkpt lat="43.77743" lon="1.5664">
        <ele>141.327623</ele>
        <time>2023-05-05T16:13:35.000Z</time>
      </trkpt>
      <trkpt lat="43.77743" lon="1.5664">
        <ele>141.327623</ele>
        <time>2023-05-05T16:13:35.000Z</time>
      </trkpt>
      <trkpt lat="43.77733" lon="1.56635">
        <ele>141.637223</ele>
        <time>2023-05-05T16:13:37.000Z</time>
      </trkpt>
      <trkpt lat="43.77728" lon="1.56632">
        <ele>141.801637</ele>
        <time>2023-05-05T16:13:39.000Z</time>
      </trkpt>
      <trkpt lat="43.77728" lon="1.56632">
        <ele>141.801637</ele>
        <time>2023-05-05T16:13:39.000Z</time>
      </trkpt>
      <trkpt lat="43.77723" lon="1.5663">
        <ele>141.957185</ele>
        <time>2023-05-05T16:13:40.000Z</time>
      </trkpt>
      <trkpt lat="43.77716" lon="1.56627">
        <ele>142.15577</ele>
        <time>2023-05-05T16:13:41.000Z</time>
      </trkpt>
      <trkpt lat="43.77716" lon="1.56627">
        <ele>142.15577</ele>
        <time>2023-05-05T16:13:41.000Z</time>
      </trkpt>
      <trkpt lat="43.77712" lon="1.56624">
        <ele>142.289111</ele>
        <time>2023-05-05T16:13:43.000Z</time>
      </trkpt>
      <trkpt lat="43.77707" lon="1.56621">
        <ele>142.464406</ele>
        <time>2023-05-05T16:13:44.000Z</time>
      </trkpt>
      <trkpt lat="43.77707" lon="1.56621">
        <ele>142.464406</ele>
        <time>2023-05-05T16:13:44.000Z</time>
      </trkpt>
      <trkpt lat="43.77701" lon="1.56619">
        <ele>142.634837</ele>
        <time>2023-05-05T16:13:45.000Z</time>
      </trkpt>
      <trkpt lat="43.77696" lon="1.56618">
        <ele>142.79252</ele>
        <time>2023-05-05T16:13:46.000Z</time>
      </trkpt>
      <trkpt lat="43.77696" lon="1.56618">
        <ele>142.79252</ele>
        <time>2023-05-05T16:13:46.000Z</time>
      </trkpt>
      <trkpt lat="43.77691" lon="1.56615">
        <ele>142.934271</ele>
        <time>2023-05-05T16:13:47.000Z</time>
      </trkpt>
      <trkpt lat="43.77691" lon="1.56615">
        <ele>142.934271</ele>
        <time>2023-05-05T16:13:47.000Z</time>
      </trkpt>
      <trkpt lat="43.77688" lon="1.56615">
        <ele>143.033901</ele>
        <time>2023-05-05T16:13:48.000Z</time>
      </trkpt>
      <trkpt lat="43.77683" lon="1.56614">
        <ele>143.156781</ele>
        <time>2023-05-05T16:13:50.000Z</time>
      </trkpt>
      <trkpt lat="43.77683" lon="1.56614">
        <ele>143.156781</ele>
        <time>2023-05-05T16:13:50.000Z</time>
      </trkpt>
      <trkpt lat="43.7768" lon="1.56613">
        <ele>143.258765</ele>
        <time>2023-05-05T16:13:51.000Z</time>
      </trkpt>
      <trkpt lat="43.7768" lon="1.56613">
        <ele>143.258765</ele>
        <time>2023-05-05T16:13:51.000Z</time>
      </trkpt>
      <trkpt lat="43.77676" lon="1.56612">
        <ele>143.35951</ele>
        <time>2023-05-05T16:13:52.000Z</time>
      </trkpt>
      <trkpt lat="43.77676" lon="1.56612">
        <ele>143.35951</ele>
        <time>2023-05-05T16:13:52.000Z</time>
      </trkpt>
      <trkpt lat="43.77671" lon="1.56613">
        <ele>143.50517</ele>
        <time>2023-05-05T16:13:53.000Z</time>
      </trkpt>
      <trkpt lat="43.77671" lon="1.56613">
        <ele>143.50517</ele>
        <time>2023-05-05T16:13:53.000Z</time>
      </trkpt>
      <trkpt lat="43.77666" lon="1.56614">
        <ele>143.661178</ele>
        <time>2023-05-05T16:13:54.000Z</time>
      </trkpt>
      <trkpt lat="43.77666" lon="1.56614">
        <ele>143.661178</ele>
        <time>2023-05-05T16:13:54.000Z</time>
      </trkpt>
      <trkpt lat="43.7766" lon="1.56616">
        <ele>143.840064</ele>
        <time>2023-05-05T16:13:56.000Z</time>
      </trkpt>
      <trkpt lat="43.7766" lon="1.56616">
        <ele>143.840064</ele>
        <time>2023-05-05T16:13:56.000Z</time>
      </trkpt>
      <trkpt lat="43.77655" lon="1.56616">
        <ele>143.985046</ele>
        <time>2023-05-05T16:13:57.000Z</time>
      </trkpt>
      <trkpt lat="43.77655" lon="1.56616">
        <ele>143.985046</ele>
        <time>2023-05-05T16:13:57.000Z</time>
      </trkpt>
      <trkpt lat="43.7765" lon="1.56615">
        <ele>144.140379</ele>
        <time>2023-05-05T16:13:58.000Z</time>
      </trkpt>
      <trkpt lat="43.7765" lon="1.56615">
        <ele>144.140379</ele>
        <time>2023-05-05T16:13:58.000Z</time>
      </trkpt>
      <trkpt lat="43.77642" lon="1.56612">
        <ele>144.358338</ele>
        <time>2023-05-05T16:14:00.000Z</time>
      </trkpt>
      <trkpt lat="43.77642" lon="1.56612">
        <ele>144.358338</ele>
        <time>2023-05-05T16:14:00.000Z</time>
      </trkpt>
      <trkpt lat="43.77637" lon="1.56612">
        <ele>144.512183</ele>
        <time>2023-05-05T16:14:01.000Z</time>
      </trkpt>
      <trkpt lat="43.77637" lon="1.56612">
        <ele>144.512183</ele>
        <time>2023-05-05T16:14:01.000Z</time>
      </trkpt>
      <trkpt lat="43.77626" lon="1.56608">
        <ele>144.845155</ele>
        <time>2023-05-05T16:14:03.000Z</time>
      </trkpt>
      <trkpt lat="43.77626" lon="1.56608">
        <ele>144.845155</ele>
        <time>2023-05-05T16:14:03.000Z</time>
      </trkpt>
      <trkpt lat="43.77621" lon="1.56607">
        <ele>144.987932</ele>
        <time>2023-05-05T16:14:05.000Z</time>
      </trkpt>
      <trkpt lat="43.77621" lon="1.56607">
        <ele>144.987932</ele>
        <time>2023-05-05T16:14:05.000Z</time>
      </trkpt>
      <trkpt lat="43.77618" lon="1.56607">
        <ele>145.077948</ele>
        <time>2023-05-05T16:14:06.000Z</time>
      </trkpt>
      <trkpt lat="43.77618" lon="1.56607">
        <ele>145.077948</ele>
        <time>2023-05-05T16:14:06.000Z</time>
      </trkpt>
      <trkpt lat="43.77616" lon="1.56607">
        <ele>145.144315</ele>
        <time>2023-05-05T16:14:07.000Z</time>
      </trkpt>
      <trkpt lat="43.77612" lon="1.56606">
        <ele>145.267285</ele>
        <time>2023-05-05T16:14:09.000Z</time>
      </trkpt>
      <trkpt lat="43.77612" lon="1.56606">
        <ele>145.267285</ele>
        <time>2023-05-05T16:14:09.000Z</time>
      </trkpt>
      <trkpt lat="43.77608" lon="1.56604">
        <ele>145.38189</ele>
        <time>2023-05-05T16:14:10.000Z</time>
      </trkpt>
      <trkpt lat="43.77608" lon="1.56604">
        <ele>145.38189</ele>
        <time>2023-05-05T16:14:10.000Z</time>
      </trkpt>
      <trkpt lat="43.77603" lon="1.56603">
        <ele>145.523832</ele>
        <time>2023-05-05T16:14:11.000Z</time>
      </trkpt>
      <trkpt lat="43.77603" lon="1.56603">
        <ele>145.523832</ele>
        <time>2023-05-05T16:14:11.000Z</time>
      </trkpt>
      <trkpt lat="43.77599" lon="1.56601">
        <ele>145.640409</ele>
        <time>2023-05-05T16:14:12.000Z</time>
      </trkpt>
      <trkpt lat="43.77599" lon="1.56601">
        <ele>145.640409</ele>
        <time>2023-05-05T16:14:12.000Z</time>
      </trkpt>
      <trkpt lat="43.77596" lon="1.566">
        <ele>145.744971</ele>
        <time>2023-05-05T16:14:13.000Z</time>
      </trkpt>
      <trkpt lat="43.77596" lon="1.566">
        <ele>145.744971</ele>
        <time>2023-05-05T16:14:13.000Z</time>
      </trkpt>
      <trkpt lat="43.77591" lon="1.56599">
        <ele>145.8876</ele>
        <time>2023-05-05T16:14:14.000Z</time>
      </trkpt>
      <trkpt lat="43.77591" lon="1.56599">
        <ele>145.8876</ele>
        <time>2023-05-05T16:14:14.000Z</time>
      </trkpt>
      <trkpt lat="43.77586" lon="1.56598">
        <ele>146.034026</ele>
        <time>2023-05-05T16:14:16.000Z</time>
      </trkpt>
      <trkpt lat="43.77586" lon="1.56598">
        <ele>146.034026</ele>
        <time>2023-05-05T16:14:16.000Z</time>
      </trkpt>
      <trkpt lat="43.77581" lon="1.56597">
        <ele>146.181221</ele>
        <time>2023-05-05T16:14:17.000Z</time>
      </trkpt>
      <trkpt lat="43.77581" lon="1.56597">
        <ele>146.181221</ele>
        <time>2023-05-05T16:14:17.000Z</time>
      </trkpt>
      <trkpt lat="43.77576" lon="1.56596">
        <ele>146.303288</ele>
        <time>2023-05-05T16:14:18.000Z</time>
      </trkpt>
      <trkpt lat="43.77576" lon="1.56596">
        <ele>146.303288</ele>
        <time>2023-05-05T16:14:18.000Z</time>
      </trkpt>
      <trkpt lat="43.77572" lon="1.56595">
        <ele>146.436372</ele>
        <time>2023-05-05T16:14:19.000Z</time>
      </trkpt>
      <trkpt lat="43.77572" lon="1.56595">
        <ele>146.436372</ele>
        <time>2023-05-05T16:14:19.000Z</time>
      </trkpt>
      <trkpt lat="43.77568" lon="1.56594">
        <ele>146.558438</ele>
        <time>2023-05-05T16:14:20.000Z</time>
      </trkpt>
      <trkpt lat="43.77568" lon="1.56594">
        <ele>146.558438</ele>
        <time>2023-05-05T16:14:20.000Z</time>
      </trkpt>
      <trkpt lat="43.77565" lon="1.56593">
        <ele>146.649429</ele>
        <time>2023-05-05T16:14:22.000Z</time>
      </trkpt>
      <trkpt lat="43.77565" lon="1.56593">
        <ele>146.649429</ele>
        <time>2023-05-05T16:14:22.000Z</time>
      </trkpt>
      <trkpt lat="43.77561" lon="1.56593">
        <ele>146.759573</ele>
        <time>2023-05-05T16:14:23.000Z</time>
      </trkpt>
      <trkpt lat="43.77561" lon="1.56593">
        <ele>146.759573</ele>
        <time>2023-05-05T16:14:23.000Z</time>
      </trkpt>
      <trkpt lat="43.77558" lon="1.56591">
        <ele>146.849121</ele>
        <time>2023-05-05T16:14:24.000Z</time>
      </trkpt>
      <trkpt lat="43.77558" lon="1.56591">
        <ele>146.849121</ele>
        <time>2023-05-05T16:14:24.000Z</time>
      </trkpt>
      <trkpt lat="43.77554" lon="1.5659">
        <ele>146.976614</ele>
        <time>2023-05-05T16:14:26.000Z</time>
      </trkpt>
      <trkpt lat="43.77554" lon="1.5659">
        <ele>146.976614</ele>
        <time>2023-05-05T16:14:26.000Z</time>
      </trkpt>
      <trkpt lat="43.77549" lon="1.56589">
        <ele>147.122104</ele>
        <time>2023-05-05T16:14:27.000Z</time>
      </trkpt>
      <trkpt lat="43.77549" lon="1.56589">
        <ele>147.122104</ele>
        <time>2023-05-05T16:14:27.000Z</time>
      </trkpt>
      <trkpt lat="43.77542" lon="1.56586">
        <ele>147.316761</ele>
        <time>2023-05-05T16:14:28.000Z</time>
      </trkpt>
      <trkpt lat="43.77536" lon="1.56584">
        <ele>147.507635</ele>
        <time>2023-05-05T16:14:30.000Z</time>
      </trkpt>
      <trkpt lat="43.77536" lon="1.56584">
        <ele>147.507635</ele>
        <time>2023-05-05T16:14:30.000Z</time>
      </trkpt>
      <trkpt lat="43.77528" lon="1.56582">
        <ele>147.731257</ele>
        <time>2023-05-05T16:14:31.000Z</time>
      </trkpt>
      <trkpt lat="43.77528" lon="1.56582">
        <ele>147.731257</ele>
        <time>2023-05-05T16:14:31.000Z</time>
      </trkpt>
      <trkpt lat="43.77523" lon="1.5658">
        <ele>147.870378</ele>
        <time>2023-05-05T16:14:32.000Z</time>
      </trkpt>
      <trkpt lat="43.77523" lon="1.5658">
        <ele>147.870378</ele>
        <time>2023-05-05T16:14:33.000Z</time>
      </trkpt>
      <trkpt lat="43.77516" lon="1.56577">
        <ele>148.09271</ele>
        <time>2023-05-05T16:14:34.000Z</time>
      </trkpt>
      <trkpt lat="43.7751" lon="1.56574">
        <ele>148.276874</ele>
        <time>2023-05-05T16:14:35.000Z</time>
      </trkpt>
      <trkpt lat="43.77502" lon="1.56569">
        <ele>148.527628</ele>
        <time>2023-05-05T16:14:36.000Z</time>
      </trkpt>
      <trkpt lat="43.77493" lon="1.56563">
        <ele>148.829849</ele>
        <time>2023-05-05T16:14:37.000Z</time>
      </trkpt>
      <trkpt lat="43.77493" lon="1.56563">
        <ele>148.829849</ele>
        <time>2023-05-05T16:14:37.000Z</time>
      </trkpt>
      <trkpt lat="43.77481" lon="1.56557">
        <ele>149.183254</ele>
        <time>2023-05-05T16:14:38.000Z</time>
      </trkpt>
      <trkpt lat="43.77481" lon="1.56557">
        <ele>149.183254</ele>
        <time>2023-05-05T16:14:38.000Z</time>
      </trkpt>
      <trkpt lat="43.77468" lon="1.56551">
        <ele>149.583505</ele>
        <time>2023-05-05T16:14:40.000Z</time>
      </trkpt>
      <trkpt lat="43.77468" lon="1.56551">
        <ele>149.583505</ele>
        <time>2023-05-05T16:14:41.000Z</time>
      </trkpt>
      <trkpt lat="43.77461" lon="1.56547">
        <ele>149.812715</ele>
        <time>2023-05-05T16:14:42.000Z</time>
      </trkpt>
      <trkpt lat="43.77461" lon="1.56547">
        <ele>149.812715</ele>
        <time>2023-05-05T16:14:43.000Z</time>
      </trkpt>
      <trkpt lat="43.77453" lon="1.56543">
        <ele>150.059587</ele>
        <time>2023-05-05T16:14:44.000Z</time>
      </trkpt>
      <trkpt lat="43.77446" lon="1.56539">
        <ele>150.288785</ele>
        <time>2023-05-05T16:14:45.000Z</time>
      </trkpt>
      <trkpt lat="43.77446" lon="1.56539">
        <ele>150.288785</ele>
        <time>2023-05-05T16:14:45.000Z</time>
      </trkpt>
      <trkpt lat="43.77437" lon="1.56533">
        <ele>150.937343</ele>
        <time>2023-05-05T16:14:47.000Z</time>
      </trkpt>
      <trkpt lat="43.77437" lon="1.56533">
        <ele>150.937343</ele>
        <time>2023-05-05T16:14:47.000Z</time>
      </trkpt>
      <trkpt lat="43.77423" lon="1.56523">
        <ele>151.848228</ele>
        <time>2023-05-05T16:14:49.000Z</time>
      </trkpt>
      <trkpt lat="43.77423" lon="1.56523">
        <ele>151.848228</ele>
        <time>2023-05-05T16:14:49.000Z</time>
      </trkpt>
      <trkpt lat="43.77419" lon="1.5652">
        <ele>152.074806</ele>
        <time>2023-05-05T16:14:50.000Z</time>
      </trkpt>
      <trkpt lat="43.77419" lon="1.5652">
        <ele>152.074806</ele>
        <time>2023-05-05T16:14:50.000Z</time>
      </trkpt>
      <trkpt lat="43.77415" lon="1.56518">
        <ele>152.351036</ele>
        <time>2023-05-05T16:14:51.000Z</time>
      </trkpt>
      <trkpt lat="43.77415" lon="1.56518">
        <ele>152.351036</ele>
        <time>2023-05-05T16:14:51.000Z</time>
      </trkpt>
      <trkpt lat="43.77408" lon="1.56514">
        <ele>152.823807</ele>
        <time>2023-05-05T16:14:53.000Z</time>
      </trkpt>
      <trkpt lat="43.77408" lon="1.56514">
        <ele>152.823807</ele>
        <time>2023-05-05T16:14:53.000Z</time>
      </trkpt>
      <trkpt lat="43.77408" lon="1.56514">
        <ele>152.823807</ele>
        <time>2023-05-05T16:14:53.000Z</time>
      </trkpt>
      <trkpt lat="43.77404" lon="1.56515">
        <ele>153.0326</ele>
        <time>2023-05-05T16:14:54.000Z</time>
      </trkpt>
      <trkpt lat="43.77404" lon="1.56515">
        <ele>153.0326</ele>
        <time>2023-05-05T16:14:54.000Z</time>
      </trkpt>
      <trkpt lat="43.77402" lon="1.56516">
        <ele>153.174491</ele>
        <time>2023-05-05T16:14:55.000Z</time>
      </trkpt>
      <trkpt lat="43.77402" lon="1.56516">
        <ele>153.174491</ele>
        <time>2023-05-05T16:14:55.000Z</time>
      </trkpt>
      <trkpt lat="43.77402" lon="1.56516">
        <ele>153.174491</ele>
        <time>2023-05-05T16:14:56.000Z</time>
      </trkpt>
      <trkpt lat="43.77399" lon="1.5652">
        <ele>153.406403</ele>
        <time>2023-05-05T16:14:57.000Z</time>
      </trkpt>
      <trkpt lat="43.77399" lon="1.5652">
        <ele>153.406403</ele>
        <time>2023-05-05T16:14:57.000Z</time>
      </trkpt>
      <trkpt lat="43.77398" lon="1.56521">
        <ele>153.462101</ele>
        <time>2023-05-05T16:14:59.000Z</time>
      </trkpt>
      <trkpt lat="43.77398" lon="1.56521">
        <ele>153.462101</ele>
        <time>2023-05-05T16:14:59.000Z</time>
      </trkpt>
      <trkpt lat="43.77396" lon="1.56524">
        <ele>153.662052</ele>
        <time>2023-05-05T16:15:00.000Z</time>
      </trkpt>
      <trkpt lat="43.77396" lon="1.56524">
        <ele>153.662052</ele>
        <time>2023-05-05T16:15:00.000Z</time>
      </trkpt>
      <trkpt lat="43.77393" lon="1.5653">
        <ele>153.966552</ele>
        <time>2023-05-05T16:15:01.000Z</time>
      </trkpt>
      <trkpt lat="43.77393" lon="1.5653">
        <ele>153.966552</ele>
        <time>2023-05-05T16:15:01.000Z</time>
      </trkpt>
      <trkpt lat="43.77391" lon="1.56534">
        <ele>154.190583</ele>
        <time>2023-05-05T16:15:02.000Z</time>
      </trkpt>
      <trkpt lat="43.77391" lon="1.56534">
        <ele>154.190583</ele>
        <time>2023-05-05T16:15:02.000Z</time>
      </trkpt>
      <trkpt lat="43.77388" lon="1.56538">
        <ele>154.445839</ele>
        <time>2023-05-05T16:15:04.000Z</time>
      </trkpt>
      <trkpt lat="43.77388" lon="1.56538">
        <ele>154.445839</ele>
        <time>2023-05-05T16:15:04.000Z</time>
      </trkpt>
      <trkpt lat="43.77384" lon="1.56543">
        <ele>154.731612</ele>
        <time>2023-05-05T16:15:06.000Z</time>
      </trkpt>
      <trkpt lat="43.77384" lon="1.56543">
        <ele>154.731612</ele>
        <time>2023-05-05T16:15:06.000Z</time>
      </trkpt>
      <trkpt lat="43.77381" lon="1.56548">
        <ele>155.020433</ele>
        <time>2023-05-05T16:15:06.000Z</time>
      </trkpt>
      <trkpt lat="43.77381" lon="1.56548">
        <ele>155.020433</ele>
        <time>2023-05-05T16:15:06.000Z</time>
      </trkpt>
      <trkpt lat="43.77376" lon="1.56554">
        <ele>155.389465</ele>
        <time>2023-05-05T16:15:07.000Z</time>
      </trkpt>
      <trkpt lat="43.77376" lon="1.56554">
        <ele>155.389465</ele>
        <time>2023-05-05T16:15:07.000Z</time>
      </trkpt>
      <trkpt lat="43.77372" lon="1.56559">
        <ele>155.703898</ele>
        <time>2023-05-05T16:15:09.000Z</time>
      </trkpt>
      <trkpt lat="43.77372" lon="1.56559">
        <ele>155.703898</ele>
        <time>2023-05-05T16:15:09.000Z</time>
      </trkpt>
      <trkpt lat="43.77368" lon="1.56563">
        <ele>156.00392</ele>
        <time>2023-05-05T16:15:10.000Z</time>
      </trkpt>
      <trkpt lat="43.77368" lon="1.56563">
        <ele>156.00392</ele>
        <time>2023-05-05T16:15:10.000Z</time>
      </trkpt>
      <trkpt lat="43.77363" lon="1.56568">
        <ele>156.374526</ele>
        <time>2023-05-05T16:15:11.000Z</time>
      </trkpt>
      <trkpt lat="43.77363" lon="1.56568">
        <ele>156.374526</ele>
        <time>2023-05-05T16:15:11.000Z</time>
      </trkpt>
      <trkpt lat="43.77359" lon="1.56573">
        <ele>156.708485</ele>
        <time>2023-05-05T16:15:12.000Z</time>
      </trkpt>
      <trkpt lat="43.77359" lon="1.56573">
        <ele>156.708485</ele>
        <time>2023-05-05T16:15:12.000Z</time>
      </trkpt>
      <trkpt lat="43.77354" lon="1.56577">
        <ele>157.049921</ele>
        <time>2023-05-05T16:15:13.000Z</time>
      </trkpt>
      <trkpt lat="43.77354" lon="1.56577">
        <ele>157.049921</ele>
        <time>2023-05-05T16:15:13.000Z</time>
      </trkpt>
      <trkpt lat="43.77349" lon="1.5658">
        <ele>157.374123</ele>
        <time>2023-05-05T16:15:15.000Z</time>
      </trkpt>
      <trkpt lat="43.77349" lon="1.5658">
        <ele>157.374123</ele>
        <time>2023-05-05T16:15:15.000Z</time>
      </trkpt>
      <trkpt lat="43.77344" lon="1.56583">
        <ele>157.673394</ele>
        <time>2023-05-05T16:15:16.000Z</time>
      </trkpt>
      <trkpt lat="43.77344" lon="1.56583">
        <ele>157.673394</ele>
        <time>2023-05-05T16:15:16.000Z</time>
      </trkpt>
      <trkpt lat="43.7734" lon="1.56586">
        <ele>157.96205</ele>
        <time>2023-05-05T16:15:18.000Z</time>
      </trkpt>
      <trkpt lat="43.7734" lon="1.56586">
        <ele>157.96205</ele>
        <time>2023-05-05T16:15:18.000Z</time>
      </trkpt>
      <trkpt lat="43.77334" lon="1.56589">
        <ele>158.340298</ele>
        <time>2023-05-05T16:15:18.000Z</time>
      </trkpt>
      <trkpt lat="43.77334" lon="1.56589">
        <ele>158.340298</ele>
        <time>2023-05-05T16:15:18.000Z</time>
      </trkpt>
      <trkpt lat="43.77328" lon="1.56591">
        <ele>158.668234</ele>
        <time>2023-05-05T16:15:19.000Z</time>
      </trkpt>
      <trkpt lat="43.77328" lon="1.56591">
        <ele>158.668234</ele>
        <time>2023-05-05T16:15:19.000Z</time>
      </trkpt>
      <trkpt lat="43.77322" lon="1.56593">
        <ele>159.043895</ele>
        <time>2023-05-05T16:15:20.000Z</time>
      </trkpt>
      <trkpt lat="43.77322" lon="1.56593">
        <ele>159.043895</ele>
        <time>2023-05-05T16:15:20.000Z</time>
      </trkpt>
      <trkpt lat="43.77317" lon="1.56596">
        <ele>159.374841</ele>
        <time>2023-05-05T16:15:21.000Z</time>
      </trkpt>
      <trkpt lat="43.77317" lon="1.56596">
        <ele>159.374841</ele>
        <time>2023-05-05T16:15:21.000Z</time>
      </trkpt>
      <trkpt lat="43.7731" lon="1.56599">
        <ele>159.779476</ele>
        <time>2023-05-05T16:15:23.000Z</time>
      </trkpt>
      <trkpt lat="43.7731" lon="1.56599">
        <ele>159.779476</ele>
        <time>2023-05-05T16:15:23.000Z</time>
      </trkpt>
      <trkpt lat="43.77305" lon="1.56602">
        <ele>160.120377</ele>
        <time>2023-05-05T16:15:24.000Z</time>
      </trkpt>
      <trkpt lat="43.77305" lon="1.56602">
        <ele>160.120377</ele>
        <time>2023-05-05T16:15:24.000Z</time>
      </trkpt>
      <trkpt lat="43.77298" lon="1.56606">
        <ele>160.525382</ele>
        <time>2023-05-05T16:15:25.000Z</time>
      </trkpt>
      <trkpt lat="43.77298" lon="1.56606">
        <ele>160.525382</ele>
        <time>2023-05-05T16:15:25.000Z</time>
      </trkpt>
      <trkpt lat="43.77294" lon="1.56608">
        <ele>160.812692</ele>
        <time>2023-05-05T16:15:26.000Z</time>
      </trkpt>
      <trkpt lat="43.77294" lon="1.56608">
        <ele>160.812692</ele>
        <time>2023-05-05T16:15:26.000Z</time>
      </trkpt>
      <trkpt lat="43.77289" lon="1.56611">
        <ele>160.998589</ele>
        <time>2023-05-05T16:15:27.000Z</time>
      </trkpt>
      <trkpt lat="43.77289" lon="1.56611">
        <ele>160.998589</ele>
        <time>2023-05-05T16:15:27.000Z</time>
      </trkpt>
      <trkpt lat="43.77283" lon="1.56615">
        <ele>161.244979</ele>
        <time>2023-05-05T16:15:29.000Z</time>
      </trkpt>
      <trkpt lat="43.77283" lon="1.56615">
        <ele>161.244979</ele>
        <time>2023-05-05T16:15:29.000Z</time>
      </trkpt>
      <trkpt lat="43.77278" lon="1.56619">
        <ele>161.461853</ele>
        <time>2023-05-05T16:15:30.000Z</time>
      </trkpt>
      <trkpt lat="43.77278" lon="1.56619">
        <ele>161.461853</ele>
        <time>2023-05-05T16:15:30.000Z</time>
      </trkpt>
      <trkpt lat="43.77272" lon="1.56623">
        <ele>161.692815</ele>
        <time>2023-05-05T16:15:32.000Z</time>
      </trkpt>
      <trkpt lat="43.77272" lon="1.56623">
        <ele>161.692815</ele>
        <time>2023-05-05T16:15:32.000Z</time>
      </trkpt>
      <trkpt lat="43.77266" lon="1.56626">
        <ele>161.91939</ele>
        <time>2023-05-05T16:15:34.000Z</time>
      </trkpt>
      <trkpt lat="43.77266" lon="1.56626">
        <ele>161.91939</ele>
        <time>2023-05-05T16:15:34.000Z</time>
      </trkpt>
      <trkpt lat="43.77261" lon="1.56629">
        <ele>162.12552</ele>
        <time>2023-05-05T16:15:35.000Z</time>
      </trkpt>
      <trkpt lat="43.77261" lon="1.56629">
        <ele>162.12552</ele>
        <time>2023-05-05T16:15:35.000Z</time>
      </trkpt>
      <trkpt lat="43.77256" lon="1.56632">
        <ele>162.30811</ele>
        <time>2023-05-05T16:15:36.000Z</time>
      </trkpt>
      <trkpt lat="43.77256" lon="1.56632">
        <ele>162.30811</ele>
        <time>2023-05-05T16:15:36.000Z</time>
      </trkpt>
      <trkpt lat="43.77251" lon="1.56635">
        <ele>162.518211</ele>
        <time>2023-05-05T16:15:37.000Z</time>
      </trkpt>
      <trkpt lat="43.77251" lon="1.56635">
        <ele>162.518211</ele>
        <time>2023-05-05T16:15:37.000Z</time>
      </trkpt>
      <trkpt lat="43.77247" lon="1.56637">
        <ele>162.679602</ele>
        <time>2023-05-05T16:15:37.000Z</time>
      </trkpt>
      <trkpt lat="43.77247" lon="1.56637">
        <ele>162.679602</ele>
        <time>2023-05-05T16:15:37.000Z</time>
      </trkpt>
      <trkpt lat="43.77242" lon="1.56641">
        <ele>162.900909</ele>
        <time>2023-05-05T16:15:39.000Z</time>
      </trkpt>
      <trkpt lat="43.77242" lon="1.56641">
        <ele>162.900909</ele>
        <time>2023-05-05T16:15:39.000Z</time>
      </trkpt>
      <trkpt lat="43.77237" lon="1.56646">
        <ele>163.115034</ele>
        <time>2023-05-05T16:15:41.000Z</time>
      </trkpt>
      <trkpt lat="43.77237" lon="1.56646">
        <ele>163.115034</ele>
        <time>2023-05-05T16:15:41.000Z</time>
      </trkpt>
      <trkpt lat="43.77233" lon="1.5665">
        <ele>163.295918</ele>
        <time>2023-05-05T16:15:42.000Z</time>
      </trkpt>
      <trkpt lat="43.77233" lon="1.5665">
        <ele>163.295918</ele>
        <time>2023-05-05T16:15:42.000Z</time>
      </trkpt>
      <trkpt lat="43.77229" lon="1.56652">
        <ele>163.435803</ele>
        <time>2023-05-05T16:15:43.000Z</time>
      </trkpt>
      <trkpt lat="43.77229" lon="1.56652">
        <ele>163.435803</ele>
        <time>2023-05-05T16:15:43.000Z</time>
      </trkpt>
      <trkpt lat="43.77227" lon="1.56655">
        <ele>163.553826</ele>
        <time>2023-05-05T16:15:43.000Z</time>
      </trkpt>
      <trkpt lat="43.77227" lon="1.56655">
        <ele>163.553826</ele>
        <time>2023-05-05T16:15:43.000Z</time>
      </trkpt>
      <trkpt lat="43.77219" lon="1.56658">
        <ele>163.857154</ele>
        <time>2023-05-05T16:15:45.000Z</time>
      </trkpt>
      <trkpt lat="43.77219" lon="1.56658">
        <ele>163.857154</ele>
        <time>2023-05-05T16:15:45.000Z</time>
      </trkpt>
      <trkpt lat="43.77213" lon="1.56662">
        <ele>164.075246</ele>
        <time>2023-05-05T16:15:46.000Z</time>
      </trkpt>
      <trkpt lat="43.77213" lon="1.56662">
        <ele>164.075246</ele>
        <time>2023-05-05T16:15:46.000Z</time>
      </trkpt>
      <trkpt lat="43.77206" lon="1.56665">
        <ele>164.335797</ele>
        <time>2023-05-05T16:15:46.000Z</time>
      </trkpt>
      <trkpt lat="43.772" lon="1.56667">
        <ele>164.581651</ele>
        <time>2023-05-05T16:15:49.000Z</time>
      </trkpt>
      <trkpt lat="43.772" lon="1.56667">
        <ele>164.581651</ele>
        <time>2023-05-05T16:15:49.000Z</time>
      </trkpt>
      <trkpt lat="43.7719" lon="1.56669">
        <ele>164.944837</ele>
        <time>2023-05-05T16:15:50.000Z</time>
      </trkpt>
      <trkpt lat="43.7719" lon="1.56669">
        <ele>164.944837</ele>
        <time>2023-05-05T16:15:50.000Z</time>
      </trkpt>
      <trkpt lat="43.77183" lon="1.5667">
        <ele>165.207536</ele>
        <time>2023-05-05T16:15:51.000Z</time>
      </trkpt>
      <trkpt lat="43.77175" lon="1.56669">
        <ele>165.498668</ele>
        <time>2023-05-05T16:15:52.000Z</time>
      </trkpt>
      <trkpt lat="43.77175" lon="1.56669">
        <ele>165.498668</ele>
        <time>2023-05-05T16:15:52.000Z</time>
      </trkpt>
      <trkpt lat="43.77162" lon="1.56667">
        <ele>165.977154</ele>
        <time>2023-05-05T16:15:53.000Z</time>
      </trkpt>
      <trkpt lat="43.77156" lon="1.56665">
        <ele>166.175492</ele>
        <time>2023-05-05T16:15:55.000Z</time>
      </trkpt>
      <trkpt lat="43.77156" lon="1.56665">
        <ele>166.175492</ele>
        <time>2023-05-05T16:15:55.000Z</time>
      </trkpt>
      <trkpt lat="43.77144" lon="1.56667">
        <ele>166.631656</ele>
        <time>2023-05-05T16:15:57.000Z</time>
      </trkpt>
      <trkpt lat="43.77144" lon="1.56667">
        <ele>166.631656</ele>
        <time>2023-05-05T16:15:57.000Z</time>
      </trkpt>
      <trkpt lat="43.77136" lon="1.56669">
        <ele>166.925014</ele>
        <time>2023-05-05T16:15:59.000Z</time>
      </trkpt>
      <trkpt lat="43.77128" lon="1.56672">
        <ele>167.241594</ele>
        <time>2023-05-05T16:16:01.000Z</time>
      </trkpt>
      <trkpt lat="43.77128" lon="1.56672">
        <ele>167.241594</ele>
        <time>2023-05-05T16:16:01.000Z</time>
      </trkpt>
      <trkpt lat="43.77121" lon="1.56674">
        <ele>167.266119</ele>
        <time>2023-05-05T16:16:02.000Z</time>
      </trkpt>
      <trkpt lat="43.77107" lon="1.56678">
        <ele>166.959424</ele>
        <time>2023-05-05T16:16:03.000Z</time>
      </trkpt>
      <trkpt lat="43.771" lon="1.5668">
        <ele>166.81423</ele>
        <time>2023-05-05T16:16:06.000Z</time>
      </trkpt>
      <trkpt lat="43.77095" lon="1.56682">
        <ele>166.718352</ele>
        <time>2023-05-05T16:16:07.000Z</time>
      </trkpt>
      <trkpt lat="43.77095" lon="1.56682">
        <ele>166.718352</ele>
        <time>2023-05-05T16:16:07.000Z</time>
      </trkpt>
      <trkpt lat="43.77087" lon="1.56684">
        <ele>166.544586</ele>
        <time>2023-05-05T16:16:09.000Z</time>
      </trkpt>
      <trkpt lat="43.77079" lon="1.56685">
        <ele>166.380775</ele>
        <time>2023-05-05T16:16:11.000Z</time>
      </trkpt>
      <trkpt lat="43.77073" lon="1.56686">
        <ele>166.264143</ele>
        <time>2023-05-05T16:16:12.000Z</time>
      </trkpt>
      <trkpt lat="43.77063" lon="1.56687">
        <ele>166.053948</ele>
        <time>2023-05-05T16:16:13.000Z</time>
      </trkpt>
      <trkpt lat="43.77056" lon="1.56687">
        <ele>165.921495</ele>
        <time>2023-05-05T16:16:16.000Z</time>
      </trkpt>
      <trkpt lat="43.77044" lon="1.56687">
        <ele>165.664992</ele>
        <time>2023-05-05T16:16:19.000Z</time>
      </trkpt>
      <trkpt lat="43.77042" lon="1.56687">
        <ele>165.626286</ele>
        <time>2023-05-05T16:16:20.000Z</time>
      </trkpt>
      <trkpt lat="43.77041" lon="1.56688">
        <ele>165.609527</ele>
        <time>2023-05-05T16:16:21.000Z</time>
      </trkpt>
      <trkpt lat="43.77039" lon="1.56687">
        <ele>165.569099</ele>
        <time>2023-05-05T16:16:22.000Z</time>
      </trkpt>
      <trkpt lat="43.77038" lon="1.56683">
        <ele>165.514784</ele>
        <time>2023-05-05T16:16:23.000Z</time>
      </trkpt>
      <trkpt lat="43.77037" lon="1.56681">
        <ele>165.477142</ele>
        <time>2023-05-05T16:16:24.000Z</time>
      </trkpt>
      <trkpt lat="43.77037" lon="1.56681">
        <ele>165.477142</ele>
        <time>2023-05-05T16:16:24.000Z</time>
      </trkpt>
      <trkpt lat="43.77041" lon="1.56667">
        <ele>165.257658</ele>
        <time>2023-05-05T16:16:25.000Z</time>
      </trkpt>
      <trkpt lat="43.77041" lon="1.56667">
        <ele>165.257658</ele>
        <time>2023-05-05T16:16:26.000Z</time>
      </trkpt>
      <trkpt lat="43.77046" lon="1.56643">
        <ele>164.891838</ele>
        <time>2023-05-05T16:16:27.000Z</time>
      </trkpt>
      <trkpt lat="43.77047" lon="1.56639">
        <ele>164.836467</ele>
        <time>2023-05-05T16:16:28.000Z</time>
      </trkpt>
      <trkpt lat="43.77047" lon="1.56639">
        <ele>164.836467</ele>
        <time>2023-05-05T16:16:28.000Z</time>
      </trkpt>
      <trkpt lat="43.77044" lon="1.56633">
        <ele>164.728014</ele>
        <time>2023-05-05T16:16:30.000Z</time>
      </trkpt>
      <trkpt lat="43.77044" lon="1.56633">
        <ele>164.728014</ele>
        <time>2023-05-05T16:16:30.000Z</time>
      </trkpt>
      <trkpt lat="43.77044" lon="1.56633">
        <ele>164.728014</ele>
        <time>2023-05-05T16:16:31.000Z</time>
      </trkpt>
      <trkpt lat="43.7704" lon="1.56629">
        <ele>164.617156</ele>
        <time>2023-05-05T16:16:32.000Z</time>
      </trkpt>
      <trkpt lat="43.7704" lon="1.56629">
        <ele>164.617156</ele>
        <time>2023-05-05T16:16:32.000Z</time>
      </trkpt>
      <trkpt lat="43.7704" lon="1.56629">
        <ele>164.617156</ele>
        <time>2023-05-05T16:16:33.000Z</time>
      </trkpt>
      <trkpt lat="43.77029" lon="1.56618">
        <ele>164.356789</ele>
        <time>2023-05-05T16:16:34.000Z</time>
      </trkpt>
      <trkpt lat="43.77029" lon="1.56618">
        <ele>164.356789</ele>
        <time>2023-05-05T16:16:34.000Z</time>
      </trkpt>
      <trkpt lat="43.7702" lon="1.56611">
        <ele>164.142699</ele>
        <time>2023-05-05T16:16:35.000Z</time>
      </trkpt>
      <trkpt lat="43.7702" lon="1.56611">
        <ele>164.142699</ele>
        <time>2023-05-05T16:16:35.000Z</time>
      </trkpt>
      <trkpt lat="43.7702" lon="1.56611">
        <ele>164.142699</ele>
        <time>2023-05-05T16:16:36.000Z</time>
      </trkpt>
      <trkpt lat="43.77007" lon="1.56603">
        <ele>163.8531</ele>
        <time>2023-05-05T16:16:37.000Z</time>
      </trkpt>
      <trkpt lat="43.77007" lon="1.56603">
        <ele>163.8531</ele>
        <time>2023-05-05T16:16:37.000Z</time>
      </trkpt>
      <trkpt lat="43.77007" lon="1.56603">
        <ele>163.8531</ele>
        <time>2023-05-05T16:16:38.000Z</time>
      </trkpt>
      <trkpt lat="43.76994" lon="1.56595">
        <ele>163.418486</ele>
        <time>2023-05-05T16:16:39.000Z</time>
      </trkpt>
      <trkpt lat="43.76994" lon="1.56595">
        <ele>163.418486</ele>
        <time>2023-05-05T16:16:39.000Z</time>
      </trkpt>
      <trkpt lat="43.76994" lon="1.56595">
        <ele>163.418486</ele>
        <time>2023-05-05T16:16:40.000Z</time>
      </trkpt>
      <trkpt lat="43.76968" lon="1.56583">
        <ele>162.087344</ele>
        <time>2023-05-05T16:16:41.000Z</time>
      </trkpt>
      <trkpt lat="43.76968" lon="1.56583">
        <ele>162.087344</ele>
        <time>2023-05-05T16:16:41.000Z</time>
      </trkpt>
      <trkpt lat="43.76963" lon="1.56581">
        <ele>161.858893</ele>
        <time>2023-05-05T16:16:42.000Z</time>
      </trkpt>
      <trkpt lat="43.76963" lon="1.56581">
        <ele>161.858893</ele>
        <time>2023-05-05T16:16:42.000Z</time>
      </trkpt>
      <trkpt lat="43.76963" lon="1.56581">
        <ele>161.858893</ele>
        <time>2023-05-05T16:16:43.000Z</time>
      </trkpt>
      <trkpt lat="43.76955" lon="1.56578">
        <ele>161.482506</ele>
        <time>2023-05-05T16:16:44.000Z</time>
      </trkpt>
      <trkpt lat="43.76955" lon="1.56578">
        <ele>161.482506</ele>
        <time>2023-05-05T16:16:44.000Z</time>
      </trkpt>
      <trkpt lat="43.76955" lon="1.56578">
        <ele>161.482506</ele>
        <time>2023-05-05T16:16:45.000Z</time>
      </trkpt>
      <trkpt lat="43.76947" lon="1.56574">
        <ele>161.081765</ele>
        <time>2023-05-05T16:16:46.000Z</time>
      </trkpt>
      <trkpt lat="43.76947" lon="1.56574">
        <ele>161.081765</ele>
        <time>2023-05-05T16:16:46.000Z</time>
      </trkpt>
      <trkpt lat="43.76942" lon="1.56572">
        <ele>160.818594</ele>
        <time>2023-05-05T16:16:47.000Z</time>
      </trkpt>
      <trkpt lat="43.76942" lon="1.56572">
        <ele>160.818594</ele>
        <time>2023-05-05T16:16:47.000Z</time>
      </trkpt>
      <trkpt lat="43.76942" lon="1.56572">
        <ele>160.818594</ele>
        <time>2023-05-05T16:16:48.000Z</time>
      </trkpt>
      <trkpt lat="43.76937" lon="1.56569">
        <ele>160.54416</ele>
        <time>2023-05-05T16:16:49.000Z</time>
      </trkpt>
      <trkpt lat="43.76937" lon="1.56569">
        <ele>160.54416</ele>
        <time>2023-05-05T16:16:49.000Z</time>
      </trkpt>
      <trkpt lat="43.76932" lon="1.56567">
        <ele>160.312427</ele>
        <time>2023-05-05T16:16:50.000Z</time>
      </trkpt>
      <trkpt lat="43.76932" lon="1.56567">
        <ele>160.312427</ele>
        <time>2023-05-05T16:16:50.000Z</time>
      </trkpt>
      <trkpt lat="43.76932" lon="1.56567">
        <ele>160.312427</ele>
        <time>2023-05-05T16:16:51.000Z</time>
      </trkpt>
      <trkpt lat="43.76923" lon="1.56563">
        <ele>159.858996</ele>
        <time>2023-05-05T16:16:52.000Z</time>
      </trkpt>
      <trkpt lat="43.76923" lon="1.56563">
        <ele>159.858996</ele>
        <time>2023-05-05T16:16:52.000Z</time>
      </trkpt>
      <trkpt lat="43.76921" lon="1.56562">
        <ele>159.765837</ele>
        <time>2023-05-05T16:16:53.000Z</time>
      </trkpt>
      <trkpt lat="43.76921" lon="1.56562">
        <ele>159.765837</ele>
        <time>2023-05-05T16:16:53.000Z</time>
      </trkpt>
      <trkpt lat="43.76915" lon="1.56557">
        <ele>159.449738</ele>
        <time>2023-05-05T16:16:54.000Z</time>
      </trkpt>
      <trkpt lat="43.76915" lon="1.56557">
        <ele>159.449738</ele>
        <time>2023-05-05T16:16:54.000Z</time>
      </trkpt>
      <trkpt lat="43.76915" lon="1.56557">
        <ele>159.449738</ele>
        <time>2023-05-05T16:16:56.000Z</time>
      </trkpt>
      <trkpt lat="43.76901" lon="1.56543">
        <ele>158.594633</ele>
        <time>2023-05-05T16:16:57.000Z</time>
      </trkpt>
      <trkpt lat="43.76901" lon="1.56543">
        <ele>158.594633</ele>
        <time>2023-05-05T16:16:57.000Z</time>
      </trkpt>
      <trkpt lat="43.76895" lon="1.56538">
        <ele>158.284924</ele>
        <time>2023-05-05T16:16:58.000Z</time>
      </trkpt>
      <trkpt lat="43.76895" lon="1.56538">
        <ele>158.284924</ele>
        <time>2023-05-05T16:16:58.000Z</time>
      </trkpt>
      <trkpt lat="43.76895" lon="1.56538">
        <ele>158.284924</ele>
        <time>2023-05-05T16:16:59.000Z</time>
      </trkpt>
      <trkpt lat="43.7688" lon="1.56523">
        <ele>157.39277</ele>
        <time>2023-05-05T16:17:00.000Z</time>
      </trkpt>
      <trkpt lat="43.7688" lon="1.56523">
        <ele>157.39277</ele>
        <time>2023-05-05T16:17:00.000Z</time>
      </trkpt>
      <trkpt lat="43.76877" lon="1.5652">
        <ele>157.226582</ele>
        <time>2023-05-05T16:17:01.000Z</time>
      </trkpt>
      <trkpt lat="43.76877" lon="1.5652">
        <ele>157.226582</ele>
        <time>2023-05-05T16:17:01.000Z</time>
      </trkpt>
      <trkpt lat="43.7687" lon="1.56513">
        <ele>156.836421</ele>
        <time>2023-05-05T16:17:03.000Z</time>
      </trkpt>
      <trkpt lat="43.7687" lon="1.56513">
        <ele>156.836421</ele>
        <time>2023-05-05T16:17:03.000Z</time>
      </trkpt>
      <trkpt lat="43.76865" lon="1.56507">
        <ele>156.519602</ele>
        <time>2023-05-05T16:17:04.000Z</time>
      </trkpt>
      <trkpt lat="43.76857" lon="1.56496">
        <ele>155.981116</ele>
        <time>2023-05-05T16:17:06.000Z</time>
      </trkpt>
      <trkpt lat="43.76852" lon="1.56491">
        <ele>155.674249</ele>
        <time>2023-05-05T16:17:07.000Z</time>
      </trkpt>
      <trkpt lat="43.76852" lon="1.56491">
        <ele>155.674249</ele>
        <time>2023-05-05T16:17:07.000Z</time>
      </trkpt>
      <trkpt lat="43.76845" lon="1.56482">
        <ele>155.240192</ele>
        <time>2023-05-05T16:17:09.000Z</time>
      </trkpt>
      <trkpt lat="43.76845" lon="1.56482">
        <ele>155.240192</ele>
        <time>2023-05-05T16:17:10.000Z</time>
      </trkpt>
      <trkpt lat="43.7683" lon="1.56466">
        <ele>156.018926</ele>
        <time>2023-05-05T16:17:11.000Z</time>
      </trkpt>
      <trkpt lat="43.7683" lon="1.56466">
        <ele>156.018926</ele>
        <time>2023-05-05T16:17:12.000Z</time>
      </trkpt>
      <trkpt lat="43.76825" lon="1.56459">
        <ele>156.382367</ele>
        <time>2023-05-05T16:17:13.000Z</time>
      </trkpt>
      <trkpt lat="43.76824" lon="1.56459">
        <ele>156.411754</ele>
        <time>2023-05-05T16:17:15.000Z</time>
      </trkpt>
      <trkpt lat="43.76824" lon="1.56459">
        <ele>156.411754</ele>
        <time>2023-05-05T16:17:15.000Z</time>
      </trkpt>
      <trkpt lat="43.7682" lon="1.56456">
        <ele>156.635282</ele>
        <time>2023-05-05T16:17:16.000Z</time>
      </trkpt>
      <trkpt lat="43.7682" lon="1.56456">
        <ele>156.635282</ele>
        <time>2023-05-05T16:17:16.000Z</time>
      </trkpt>
      <trkpt lat="43.76815" lon="1.56451">
        <ele>156.951228</ele>
        <time>2023-05-05T16:17:17.000Z</time>
      </trkpt>
      <trkpt lat="43.76815" lon="1.56451">
        <ele>156.951228</ele>
        <time>2023-05-05T16:17:17.000Z</time>
      </trkpt>
      <trkpt lat="43.76811" lon="1.56448">
        <ele>157.198577</ele>
        <time>2023-05-05T16:17:18.000Z</time>
      </trkpt>
      <trkpt lat="43.76811" lon="1.56448">
        <ele>157.198577</ele>
        <time>2023-05-05T16:17:18.000Z</time>
      </trkpt>
      <trkpt lat="43.76807" lon="1.56445">
        <ele>157.420904</ele>
        <time>2023-05-05T16:17:19.000Z</time>
      </trkpt>
      <trkpt lat="43.76807" lon="1.56445">
        <ele>157.420904</ele>
        <time>2023-05-05T16:17:19.000Z</time>
      </trkpt>
      <trkpt lat="43.76801" lon="1.56443">
        <ele>157.7178</ele>
        <time>2023-05-05T16:17:20.000Z</time>
      </trkpt>
      <trkpt lat="43.76801" lon="1.56443">
        <ele>157.7178</ele>
        <time>2023-05-05T16:17:20.000Z</time>
      </trkpt>
      <trkpt lat="43.76795" lon="1.5644">
        <ele>158.012682</ele>
        <time>2023-05-05T16:17:21.000Z</time>
      </trkpt>
      <trkpt lat="43.76795" lon="1.5644">
        <ele>158.012682</ele>
        <time>2023-05-05T16:17:21.000Z</time>
      </trkpt>
      <trkpt lat="43.76787" lon="1.56437">
        <ele>158.449829</ele>
        <time>2023-05-05T16:17:23.000Z</time>
      </trkpt>
      <trkpt lat="43.76787" lon="1.56437">
        <ele>158.449829</ele>
        <time>2023-05-05T16:17:23.000Z</time>
      </trkpt>
      <trkpt lat="43.76787" lon="1.56437">
        <ele>158.449829</ele>
        <time>2023-05-05T16:17:24.000Z</time>
      </trkpt>
      <trkpt lat="43.76769" lon="1.56427">
        <ele>159.415812</ele>
        <time>2023-05-05T16:17:26.000Z</time>
      </trkpt>
      <trkpt lat="43.76769" lon="1.56427">
        <ele>159.415812</ele>
        <time>2023-05-05T16:17:26.000Z</time>
      </trkpt>
      <trkpt lat="43.76763" lon="1.56424">
        <ele>159.715498</ele>
        <time>2023-05-05T16:17:27.000Z</time>
      </trkpt>
      <trkpt lat="43.76763" lon="1.56424">
        <ele>159.715498</ele>
        <time>2023-05-05T16:17:27.000Z</time>
      </trkpt>
      <trkpt lat="43.76761" lon="1.56423">
        <ele>159.852074</ele>
        <time>2023-05-05T16:17:28.000Z</time>
      </trkpt>
      <trkpt lat="43.76761" lon="1.56423">
        <ele>159.852074</ele>
        <time>2023-05-05T16:17:28.000Z</time>
      </trkpt>
      <trkpt lat="43.76755" lon="1.56421">
        <ele>160.130638</ele>
        <time>2023-05-05T16:17:29.000Z</time>
      </trkpt>
      <trkpt lat="43.76755" lon="1.56421">
        <ele>160.130638</ele>
        <time>2023-05-05T16:17:29.000Z</time>
      </trkpt>
      <trkpt lat="43.76751" lon="1.5642">
        <ele>160.328569</ele>
        <time>2023-05-05T16:17:30.000Z</time>
      </trkpt>
      <trkpt lat="43.76751" lon="1.5642">
        <ele>160.328569</ele>
        <time>2023-05-05T16:17:30.000Z</time>
      </trkpt>
      <trkpt lat="43.76746" lon="1.56418">
        <ele>160.600518</ele>
        <time>2023-05-05T16:17:31.000Z</time>
      </trkpt>
      <trkpt lat="43.76746" lon="1.56418">
        <ele>160.600518</ele>
        <time>2023-05-05T16:17:31.000Z</time>
      </trkpt>
      <trkpt lat="43.76741" lon="1.56416">
        <ele>160.87731</ele>
        <time>2023-05-05T16:17:32.000Z</time>
      </trkpt>
      <trkpt lat="43.76741" lon="1.56416">
        <ele>160.87731</ele>
        <time>2023-05-05T16:17:32.000Z</time>
      </trkpt>
      <trkpt lat="43.76741" lon="1.56416">
        <ele>160.87731</ele>
        <time>2023-05-05T16:17:33.000Z</time>
      </trkpt>
      <trkpt lat="43.76722" lon="1.56409">
        <ele>161.820614</ele>
        <time>2023-05-05T16:17:34.000Z</time>
      </trkpt>
      <trkpt lat="43.76722" lon="1.56409">
        <ele>161.820614</ele>
        <time>2023-05-05T16:17:34.000Z</time>
      </trkpt>
      <trkpt lat="43.76717" lon="1.56408">
        <ele>162.088243</ele>
        <time>2023-05-05T16:17:36.000Z</time>
      </trkpt>
      <trkpt lat="43.76717" lon="1.56408">
        <ele>162.088243</ele>
        <time>2023-05-05T16:17:36.000Z</time>
      </trkpt>
      <trkpt lat="43.76713" lon="1.56408">
        <ele>162.27884</ele>
        <time>2023-05-05T16:17:37.000Z</time>
      </trkpt>
      <trkpt lat="43.76713" lon="1.56408">
        <ele>162.27884</ele>
        <time>2023-05-05T16:17:37.000Z</time>
      </trkpt>
      <trkpt lat="43.76708" lon="1.56407">
        <ele>162.548161</ele>
        <time>2023-05-05T16:17:38.000Z</time>
      </trkpt>
      <trkpt lat="43.76708" lon="1.56407">
        <ele>162.548161</ele>
        <time>2023-05-05T16:17:38.000Z</time>
      </trkpt>
      <trkpt lat="43.76704" lon="1.56408">
        <ele>162.759436</ele>
        <time>2023-05-05T16:17:39.000Z</time>
      </trkpt>
      <trkpt lat="43.76704" lon="1.56408">
        <ele>162.759436</ele>
        <time>2023-05-05T16:17:39.000Z</time>
      </trkpt>
      <trkpt lat="43.76699" lon="1.56409">
        <ele>162.986559</ele>
        <time>2023-05-05T16:17:40.000Z</time>
      </trkpt>
      <trkpt lat="43.76699" lon="1.56409">
        <ele>162.986559</ele>
        <time>2023-05-05T16:17:40.000Z</time>
      </trkpt>
      <trkpt lat="43.76693" lon="1.56411">
        <ele>163.286245</ele>
        <time>2023-05-05T16:17:41.000Z</time>
      </trkpt>
      <trkpt lat="43.76693" lon="1.56411">
        <ele>163.286245</ele>
        <time>2023-05-05T16:17:41.000Z</time>
      </trkpt>
      <trkpt lat="43.76688" lon="1.56413">
        <ele>163.580183</ele>
        <time>2023-05-05T16:17:42.000Z</time>
      </trkpt>
      <trkpt lat="43.76688" lon="1.56413">
        <ele>163.580183</ele>
        <time>2023-05-05T16:17:42.000Z</time>
      </trkpt>
      <trkpt lat="43.76688" lon="1.56413">
        <ele>163.580183</ele>
        <time>2023-05-05T16:17:43.000Z</time>
      </trkpt>
      <trkpt lat="43.76675" lon="1.56415">
        <ele>164.16005</ele>
        <time>2023-05-05T16:17:44.000Z</time>
      </trkpt>
      <trkpt lat="43.76675" lon="1.56415">
        <ele>164.16005</ele>
        <time>2023-05-05T16:17:44.000Z</time>
      </trkpt>
      <trkpt lat="43.76666" lon="1.56415">
        <ele>164.442086</ele>
        <time>2023-05-05T16:17:45.000Z</time>
      </trkpt>
      <trkpt lat="43.76666" lon="1.56415">
        <ele>164.442086</ele>
        <time>2023-05-05T16:17:45.000Z</time>
      </trkpt>
      <trkpt lat="43.76666" lon="1.56415">
        <ele>164.442086</ele>
        <time>2023-05-05T16:17:46.000Z</time>
      </trkpt>
      <trkpt lat="43.76645" lon="1.56406">
        <ele>165.064806</ele>
        <time>2023-05-05T16:17:47.000Z</time>
      </trkpt>
      <trkpt lat="43.76645" lon="1.56406">
        <ele>165.064806</ele>
        <time>2023-05-05T16:17:47.000Z</time>
      </trkpt>
      <trkpt lat="43.76645" lon="1.56406">
        <ele>165.064806</ele>
        <time>2023-05-05T16:17:48.000Z</time>
      </trkpt>
      <trkpt lat="43.76633" lon="1.56398">
        <ele>165.440927</ele>
        <time>2023-05-05T16:17:49.000Z</time>
      </trkpt>
      <trkpt lat="43.76633" lon="1.56398">
        <ele>165.440927</ele>
        <time>2023-05-05T16:17:49.000Z</time>
      </trkpt>
      <trkpt lat="43.76631" lon="1.56397">
        <ele>165.49246</ele>
        <time>2023-05-05T16:17:50.000Z</time>
      </trkpt>
      <trkpt lat="43.76631" lon="1.56397">
        <ele>165.49246</ele>
        <time>2023-05-05T16:17:50.000Z</time>
      </trkpt>
      <trkpt lat="43.7663" lon="1.56395">
        <ele>165.552508</ele>
        <time>2023-05-05T16:17:52.000Z</time>
      </trkpt>
      <trkpt lat="43.7663" lon="1.56395">
        <ele>165.552508</ele>
        <time>2023-05-05T16:17:52.000Z</time>
      </trkpt>
      <trkpt lat="43.76628" lon="1.56393">
        <ele>165.614815</ele>
        <time>2023-05-05T16:17:53.000Z</time>
      </trkpt>
      <trkpt lat="43.76628" lon="1.56393">
        <ele>165.614815</ele>
        <time>2023-05-05T16:17:53.000Z</time>
      </trkpt>
      <trkpt lat="43.76625" lon="1.5639">
        <ele>165.721454</ele>
        <time>2023-05-05T16:17:54.000Z</time>
      </trkpt>
      <trkpt lat="43.76625" lon="1.5639">
        <ele>165.721454</ele>
        <time>2023-05-05T16:17:54.000Z</time>
      </trkpt>
      <trkpt lat="43.76621" lon="1.56387">
        <ele>165.8469</ele>
        <time>2023-05-05T16:17:55.000Z</time>
      </trkpt>
      <trkpt lat="43.76621" lon="1.56387">
        <ele>165.8469</ele>
        <time>2023-05-05T16:17:55.000Z</time>
      </trkpt>
      <trkpt lat="43.76622" lon="1.56387">
        <ele>165.871131</ele>
        <time>2023-05-05T16:17:56.000Z</time>
      </trkpt>
      <trkpt lat="43.76622" lon="1.56387">
        <ele>165.871131</ele>
        <time>2023-05-05T16:17:56.000Z</time>
      </trkpt>
      <trkpt lat="43.7661" lon="1.56376">
        <ele>166.284757</ele>
        <time>2023-05-05T16:17:57.000Z</time>
      </trkpt>
      <trkpt lat="43.7661" lon="1.56376">
        <ele>166.284757</ele>
        <time>2023-05-05T16:17:57.000Z</time>
      </trkpt>
      <trkpt lat="43.7661" lon="1.56376">
        <ele>166.284757</ele>
        <time>2023-05-05T16:17:58.000Z</time>
      </trkpt>
      <trkpt lat="43.76597" lon="1.56365">
        <ele>166.72094</ele>
        <time>2023-05-05T16:17:59.000Z</time>
      </trkpt>
      <trkpt lat="43.76588" lon="1.56357">
        <ele>167.024756</ele>
        <time>2023-05-05T16:18:00.000Z</time>
      </trkpt>
      <trkpt lat="43.76588" lon="1.56357">
        <ele>167.024756</ele>
        <time>2023-05-05T16:18:00.000Z</time>
      </trkpt>
      <trkpt lat="43.76588" lon="1.56357">
        <ele>167.024756</ele>
        <time>2023-05-05T16:18:01.000Z</time>
      </trkpt>
      <trkpt lat="43.76579" lon="1.5635">
        <ele>167.314906</ele>
        <time>2023-05-05T16:18:02.000Z</time>
      </trkpt>
      <trkpt lat="43.76574" lon="1.56346">
        <ele>167.478393</ele>
        <time>2023-05-05T16:18:03.000Z</time>
      </trkpt>
      <trkpt lat="43.76574" lon="1.56346">
        <ele>167.478393</ele>
        <time>2023-05-05T16:18:03.000Z</time>
      </trkpt>
      <trkpt lat="43.76565" lon="1.5634">
        <ele>167.759048</ele>
        <time>2023-05-05T16:18:05.000Z</time>
      </trkpt>
      <trkpt lat="43.76565" lon="1.5634">
        <ele>167.759048</ele>
        <time>2023-05-05T16:18:05.000Z</time>
      </trkpt>
      <trkpt lat="43.76551" lon="1.5633">
        <ele>168.206667</ele>
        <time>2023-05-05T16:18:07.000Z</time>
      </trkpt>
      <trkpt lat="43.76551" lon="1.5633">
        <ele>168.206667</ele>
        <time>2023-05-05T16:18:07.000Z</time>
      </trkpt>
      <trkpt lat="43.76548" lon="1.56328">
        <ele>168.309918</ele>
        <time>2023-05-05T16:18:08.000Z</time>
      </trkpt>
      <trkpt lat="43.76544" lon="1.56324">
        <ele>168.449567</ele>
        <time>2023-05-05T16:18:09.000Z</time>
      </trkpt>
      <trkpt lat="43.76544" lon="1.56324">
        <ele>168.449567</ele>
        <time>2023-05-05T16:18:09.000Z</time>
      </trkpt>
      <trkpt lat="43.76532" lon="1.56314">
        <ele>168.839459</ele>
        <time>2023-05-05T16:18:11.000Z</time>
      </trkpt>
      <trkpt lat="43.76532" lon="1.56314">
        <ele>168.839459</ele>
        <time>2023-05-05T16:18:11.000Z</time>
      </trkpt>
      <trkpt lat="43.76525" lon="1.5631">
        <ele>169.068807</ele>
        <time>2023-05-05T16:18:13.000Z</time>
      </trkpt>
      <trkpt lat="43.7652" lon="1.56307">
        <ele>169.212922</ele>
        <time>2023-05-05T16:18:14.000Z</time>
      </trkpt>
      <trkpt lat="43.7652" lon="1.56307">
        <ele>169.212922</ele>
        <time>2023-05-05T16:18:14.000Z</time>
      </trkpt>
      <trkpt lat="43.76511" lon="1.56299">
        <ele>169.274925</ele>
        <time>2023-05-05T16:18:16.000Z</time>
      </trkpt>
      <trkpt lat="43.76505" lon="1.56295">
        <ele>169.296526</ele>
        <time>2023-05-05T16:18:17.000Z</time>
      </trkpt>
      <trkpt lat="43.76497" lon="1.56286">
        <ele>169.331986</ele>
        <time>2023-05-05T16:18:19.000Z</time>
      </trkpt>
      <trkpt lat="43.76491" lon="1.56282">
        <ele>169.352836</ele>
        <time>2023-05-05T16:18:20.000Z</time>
      </trkpt>
      <trkpt lat="43.76485" lon="1.56276">
        <ele>169.376295</ele>
        <time>2023-05-05T16:18:21.000Z</time>
      </trkpt>
      <trkpt lat="43.76485" lon="1.56276">
        <ele>169.376295</ele>
        <time>2023-05-05T16:18:21.000Z</time>
      </trkpt>
      <trkpt lat="43.76479" lon="1.56272">
        <ele>169.397627</ele>
        <time>2023-05-05T16:18:22.000Z</time>
      </trkpt>
      <trkpt lat="43.76471" lon="1.56266">
        <ele>169.430635</ele>
        <time>2023-05-05T16:18:24.000Z</time>
      </trkpt>
      <trkpt lat="43.76457" lon="1.56253">
        <ele>169.486141</ele>
        <time>2023-05-05T16:18:26.000Z</time>
      </trkpt>
      <trkpt lat="43.76449" lon="1.56246">
        <ele>169.515955</ele>
        <time>2023-05-05T16:18:28.000Z</time>
      </trkpt>
      <trkpt lat="43.76444" lon="1.56242">
        <ele>169.534804</ele>
        <time>2023-05-05T16:18:29.000Z</time>
      </trkpt>
      <trkpt lat="43.76433" lon="1.56235">
        <ele>169.573367</ele>
        <time>2023-05-05T16:18:31.000Z</time>
      </trkpt>
      <trkpt lat="43.76416" lon="1.56227">
        <ele>169.632335</ele>
        <time>2023-05-05T16:18:33.000Z</time>
      </trkpt>
      <trkpt lat="43.76408" lon="1.56223">
        <ele>169.662827</ele>
        <time>2023-05-05T16:18:35.000Z</time>
      </trkpt>
      <trkpt lat="43.76398" lon="1.56218">
        <ele>169.697282</ele>
        <time>2023-05-05T16:18:37.000Z</time>
      </trkpt>
      <trkpt lat="43.7639" lon="1.56215">
        <ele>169.724976</ele>
        <time>2023-05-05T16:18:38.000Z</time>
      </trkpt>
      <trkpt lat="43.76378" lon="1.56209">
        <ele>169.765744</ele>
        <time>2023-05-05T16:18:40.000Z</time>
      </trkpt>
      <trkpt lat="43.76195" lon="1.5613">
        <ele>165.3</ele>
        <time>2023-05-05T16:18:41.000Z</time>
      </trkpt>
      <trkpt lat="43.76201" lon="1.56134">
        <ele>174.075623</ele>
        <time>2023-09-17T11:22:32.424Z</time>
      </trkpt>
      <trkpt lat="43.76201" lon="1.56134">
        <ele>174.075623</ele>
        <time>2023-09-17T11:22:32.424Z</time>
      </trkpt>
      <trkpt lat="43.76196" lon="1.56128">
        <ele>174.074206</ele>
        <time>2023-09-17T11:22:34.424Z</time>
      </trkpt>
      <trkpt lat="43.76191" lon="1.56122">
        <ele>174.072727</ele>
        <time>2023-09-17T11:22:35.424Z</time>
      </trkpt>
      <trkpt lat="43.76187" lon="1.56115">
        <ele>174.071054</ele>
        <time>2023-09-17T11:22:36.424Z</time>
      </trkpt>
      <trkpt lat="43.76183" lon="1.5611">
        <ele>174.069643</ele>
        <time>2023-09-17T11:22:36.424Z</time>
      </trkpt>
      <trkpt lat="43.76178" lon="1.56103">
        <ele>174.067926</ele>
        <time>2023-09-17T11:22:38.424Z</time>
      </trkpt>
      <trkpt lat="43.76174" lon="1.56097">
        <ele>174.066358</ele>
        <time>2023-09-17T11:22:39.424Z</time>
      </trkpt>
      <trkpt lat="43.76169" lon="1.5609">
        <ele>174.064733</ele>
        <time>2023-09-17T11:22:40.424Z</time>
      </trkpt>
      <trkpt lat="43.76165" lon="1.56084">
        <ele>174.063146</ele>
        <time>2023-09-17T11:22:41.424Z</time>
      </trkpt>
      <trkpt lat="43.7616" lon="1.56078">
        <ele>174.061533</ele>
        <time>2023-09-17T11:22:42.424Z</time>
      </trkpt>
      <trkpt lat="43.76155" lon="1.56072">
        <ele>174.059804</ele>
        <time>2023-09-17T11:22:42.424Z</time>
      </trkpt>
      <trkpt lat="43.7615" lon="1.56066">
        <ele>174.058154</ele>
        <time>2023-09-17T11:22:44.424Z</time>
      </trkpt>
      <trkpt lat="43.76146" lon="1.5606">
        <ele>174.05667</ele>
        <time>2023-09-17T11:22:45.424Z</time>
      </trkpt>
      <trkpt lat="43.76141" lon="1.56054">
        <ele>174.055008</ele>
        <time>2023-09-17T11:22:46.424Z</time>
      </trkpt>
      <trkpt lat="43.76141" lon="1.56054">
        <ele>174.055008</ele>
        <time>2023-09-17T11:22:46.424Z</time>
      </trkpt>
      <trkpt lat="43.76136" lon="1.56049">
        <ele>174.053605</ele>
        <time>2023-09-17T11:22:47.424Z</time>
      </trkpt>
      <trkpt lat="43.76131" lon="1.56043">
        <ele>174.051967</ele>
        <time>2023-09-17T11:22:48.424Z</time>
      </trkpt>
      <trkpt lat="43.76131" lon="1.56043">
        <ele>174.051967</ele>
        <time>2023-09-17T11:22:48.424Z</time>
      </trkpt>
      <trkpt lat="43.76127" lon="1.56038">
        <ele>174.050435</ele>
        <time>2023-09-17T11:22:49.424Z</time>
      </trkpt>
      <trkpt lat="43.76122" lon="1.56032">
        <ele>174.04875</ele>
        <time>2023-09-17T11:22:50.424Z</time>
      </trkpt>
      <trkpt lat="43.76117" lon="1.56026">
        <ele>174.047175</ele>
        <time>2023-09-17T11:22:51.424Z</time>
      </trkpt>
      <trkpt lat="43.76117" lon="1.56026">
        <ele>174.047175</ele>
        <time>2023-09-17T11:22:51.424Z</time>
      </trkpt>
      <trkpt lat="43.76112" lon="1.5602">
        <ele>174.045556</ele>
        <time>2023-09-17T11:22:52.424Z</time>
      </trkpt>
      <trkpt lat="43.76108" lon="1.56014">
        <ele>174.043993</ele>
        <time>2023-09-17T11:22:53.424Z</time>
      </trkpt>
      <trkpt lat="43.76103" lon="1.56008">
        <ele>174.042355</ele>
        <time>2023-09-17T11:22:54.424Z</time>
      </trkpt>
      <trkpt lat="43.76098" lon="1.56003">
        <ele>174.04086</ele>
        <time>2023-09-17T11:22:55.424Z</time>
      </trkpt>
      <trkpt lat="43.76094" lon="1.55997">
        <ele>174.039333</ele>
        <time>2023-09-17T11:22:56.424Z</time>
      </trkpt>
      <trkpt lat="43.76089" lon="1.55992">
        <ele>174.037729</ele>
        <time>2023-09-17T11:22:57.424Z</time>
      </trkpt>
      <trkpt lat="43.76089" lon="1.55992">
        <ele>174.037729</ele>
        <time>2023-09-17T11:22:57.424Z</time>
      </trkpt>
      <trkpt lat="43.76084" lon="1.55986">
        <ele>174.036203</ele>
        <time>2023-09-17T11:22:58.424Z</time>
      </trkpt>
      <trkpt lat="43.7608" lon="1.55981">
        <ele>174.034763</ele>
        <time>2023-09-17T11:22:59.424Z</time>
      </trkpt>
      <trkpt lat="43.76075" lon="1.55975">
        <ele>174.033194</ele>
        <time>2023-09-17T11:23:00.424Z</time>
      </trkpt>
      <trkpt lat="43.76075" lon="1.55975">
        <ele>174.033194</ele>
        <time>2023-09-17T11:23:00.424Z</time>
      </trkpt>
      <trkpt lat="43.76071" lon="1.55969">
        <ele>174.031656</ele>
        <time>2023-09-17T11:23:01.424Z</time>
      </trkpt>
      <trkpt lat="43.76066" lon="1.55964">
        <ele>174.030094</ele>
        <time>2023-09-17T11:23:02.424Z</time>
      </trkpt>
      <trkpt lat="43.76062" lon="1.55958">
        <ele>174.049931</ele>
        <time>2023-09-17T11:23:03.424Z</time>
      </trkpt>
      <trkpt lat="43.76062" lon="1.55958">
        <ele>174.049931</ele>
        <time>2023-09-17T11:23:03.424Z</time>
      </trkpt>
      <trkpt lat="43.76057" lon="1.55951">
        <ele>174.140186</ele>
        <time>2023-09-17T11:23:04.424Z</time>
      </trkpt>
      <trkpt lat="43.76053" lon="1.55946">
        <ele>174.22398</ele>
        <time>2023-09-17T11:23:05.424Z</time>
      </trkpt>
      <trkpt lat="43.76053" lon="1.55946">
        <ele>174.22398</ele>
        <time>2023-09-17T11:23:05.424Z</time>
      </trkpt>
      <trkpt lat="43.76049" lon="1.55939">
        <ele>174.312479</ele>
        <time>2023-09-17T11:23:06.424Z</time>
      </trkpt>
      <trkpt lat="43.76045" lon="1.55933">
        <ele>174.399752</ele>
        <time>2023-09-17T11:23:07.424Z</time>
      </trkpt>
      <trkpt lat="43.76042" lon="1.55927">
        <ele>174.473597</ele>
        <time>2023-09-17T11:23:08.424Z</time>
      </trkpt>
      <trkpt lat="43.76042" lon="1.55927">
        <ele>174.473597</ele>
        <time>2023-09-17T11:23:08.424Z</time>
      </trkpt>
      <trkpt lat="43.76038" lon="1.5592">
        <ele>174.560781</ele>
        <time>2023-09-17T11:23:09.424Z</time>
      </trkpt>
      <trkpt lat="43.76035" lon="1.55912">
        <ele>174.653028</ele>
        <time>2023-09-17T11:23:10.424Z</time>
      </trkpt>
      <trkpt lat="43.76035" lon="1.55912">
        <ele>174.653028</ele>
        <time>2023-09-17T11:23:10.424Z</time>
      </trkpt>
      <trkpt lat="43.76032" lon="1.55904">
        <ele>174.741667</ele>
        <time>2023-09-17T11:23:11.424Z</time>
      </trkpt>
      <trkpt lat="43.76029" lon="1.55897">
        <ele>174.830105</ele>
        <time>2023-09-17T11:23:12.424Z</time>
      </trkpt>
      <trkpt lat="43.76029" lon="1.55897">
        <ele>174.830105</ele>
        <time>2023-09-17T11:23:12.424Z</time>
      </trkpt>
      <trkpt lat="43.76025" lon="1.55888">
        <ele>174.931342</ele>
        <time>2023-09-17T11:23:13.424Z</time>
      </trkpt>
      <trkpt lat="43.76022" lon="1.5588">
        <ele>175.025459</ele>
        <time>2023-09-17T11:23:14.424Z</time>
      </trkpt>
      <trkpt lat="43.76019" lon="1.55873">
        <ele>175.11306</ele>
        <time>2023-09-17T11:23:15.424Z</time>
      </trkpt>
      <trkpt lat="43.76019" lon="1.55873">
        <ele>175.11306</ele>
        <time>2023-09-17T11:23:15.424Z</time>
      </trkpt>
      <trkpt lat="43.76016" lon="1.55865">
        <ele>175.207177</ele>
        <time>2023-09-17T11:23:16.424Z</time>
      </trkpt>
      <trkpt lat="43.76013" lon="1.55857">
        <ele>175.298292</ele>
        <time>2023-09-17T11:23:17.424Z</time>
      </trkpt>
      <trkpt lat="43.76013" lon="1.55857">
        <ele>175.298292</ele>
        <time>2023-09-17T11:23:17.424Z</time>
      </trkpt>
      <trkpt lat="43.7601" lon="1.5585">
        <ele>175.383362</ele>
        <time>2023-09-17T11:23:18.424Z</time>
      </trkpt>
      <trkpt lat="43.76006" lon="1.55843">
        <ele>175.471338</ele>
        <time>2023-09-17T11:23:19.424Z</time>
      </trkpt>
      <trkpt lat="43.76006" lon="1.55843">
        <ele>175.471338</ele>
        <time>2023-09-17T11:23:19.424Z</time>
      </trkpt>
      <trkpt lat="43.76003" lon="1.55836">
        <ele>175.560142</ele>
        <time>2023-09-17T11:23:20.424Z</time>
      </trkpt>
      <trkpt lat="43.75999" lon="1.55829">
        <ele>175.644934</ele>
        <time>2023-09-17T11:23:21.424Z</time>
      </trkpt>
      <trkpt lat="43.75999" lon="1.55829">
        <ele>175.644934</ele>
        <time>2023-09-17T11:23:21.424Z</time>
      </trkpt>
      <trkpt lat="43.75995" lon="1.55823">
        <ele>175.73193</ele>
        <time>2023-09-17T11:23:22.424Z</time>
      </trkpt>
      <trkpt lat="43.7599" lon="1.55817">
        <ele>175.82009</ele>
        <time>2023-09-17T11:23:23.424Z</time>
      </trkpt>
      <trkpt lat="43.7599" lon="1.55817">
        <ele>175.82009</ele>
        <time>2023-09-17T11:23:23.424Z</time>
      </trkpt>
      <trkpt lat="43.75985" lon="1.55812">
        <ele>175.906886</ele>
        <time>2023-09-17T11:23:24.424Z</time>
      </trkpt>
      <trkpt lat="43.75981" lon="1.55807">
        <ele>175.98929</ele>
        <time>2023-09-17T11:23:25.424Z</time>
      </trkpt>
      <trkpt lat="43.75981" lon="1.55807">
        <ele>175.98929</ele>
        <time>2023-09-17T11:23:25.424Z</time>
      </trkpt>
      <trkpt lat="43.75976" lon="1.55802">
        <ele>176.070911</ele>
        <time>2023-09-17T11:23:26.424Z</time>
      </trkpt>
      <trkpt lat="43.75976" lon="1.55802">
        <ele>176.070911</ele>
        <time>2023-09-17T11:23:26.424Z</time>
      </trkpt>
      <trkpt lat="43.75971" lon="1.55797">
        <ele>176.156547</ele>
        <time>2023-09-17T11:23:27.424Z</time>
      </trkpt>
      <trkpt lat="43.75966" lon="1.55793">
        <ele>176.239305</ele>
        <time>2023-09-17T11:23:28.424Z</time>
      </trkpt>
      <trkpt lat="43.75966" lon="1.55793">
        <ele>176.239305</ele>
        <time>2023-09-17T11:23:28.424Z</time>
      </trkpt>
      <trkpt lat="43.75961" lon="1.55788">
        <ele>176.328091</ele>
        <time>2023-09-17T11:23:29.424Z</time>
      </trkpt>
      <trkpt lat="43.75961" lon="1.55788">
        <ele>176.328091</ele>
        <time>2023-09-17T11:23:29.424Z</time>
      </trkpt>
      <trkpt lat="43.75956" lon="1.55784">
        <ele>176.410297</ele>
        <time>2023-09-17T11:23:30.424Z</time>
      </trkpt>
      <trkpt lat="43.75951" lon="1.5578">
        <ele>176.499083</ele>
        <time>2023-09-17T11:23:31.424Z</time>
      </trkpt>
      <trkpt lat="43.75951" lon="1.5578">
        <ele>176.499083</ele>
        <time>2023-09-17T11:23:31.424Z</time>
      </trkpt>
      <trkpt lat="43.75946" lon="1.55775">
        <ele>176.578675</ele>
        <time>2023-09-17T11:23:32.424Z</time>
      </trkpt>
      <trkpt lat="43.75946" lon="1.55775">
        <ele>176.578675</ele>
        <time>2023-09-17T11:23:32.424Z</time>
      </trkpt>
      <trkpt lat="43.7594" lon="1.55771">
        <ele>176.611487</ele>
        <time>2023-09-17T11:23:33.424Z</time>
      </trkpt>
      <trkpt lat="43.75935" lon="1.55766">
        <ele>176.642029</ele>
        <time>2023-09-17T11:23:34.424Z</time>
      </trkpt>
      <trkpt lat="43.75929" lon="1.55761">
        <ele>176.67257</ele>
        <time>2023-09-17T11:23:35.424Z</time>
      </trkpt>
      <trkpt lat="43.75929" lon="1.55761">
        <ele>176.67257</ele>
        <time>2023-09-17T11:23:35.424Z</time>
      </trkpt>
      <trkpt lat="43.75924" lon="1.55757">
        <ele>176.701496</ele>
        <time>2023-09-17T11:23:36.424Z</time>
      </trkpt>
      <trkpt lat="43.75918" lon="1.55752">
        <ele>176.737974</ele>
        <time>2023-09-17T11:23:37.424Z</time>
      </trkpt>
      <trkpt lat="43.75913" lon="1.55747">
        <ele>176.76833</ele>
        <time>2023-09-17T11:23:38.424Z</time>
      </trkpt>
      <trkpt lat="43.75907" lon="1.55743">
        <ele>176.799102</ele>
        <time>2023-09-17T11:23:39.424Z</time>
      </trkpt>
      <trkpt lat="43.75901" lon="1.55738">
        <ele>176.833017</ele>
        <time>2023-09-17T11:23:40.424Z</time>
      </trkpt>
      <trkpt lat="43.75901" lon="1.55738">
        <ele>176.833017</ele>
        <time>2023-09-17T11:23:40.424Z</time>
      </trkpt>
      <trkpt lat="43.75896" lon="1.55734">
        <ele>176.862322</ele>
        <time>2023-09-17T11:23:41.424Z</time>
      </trkpt>
      <trkpt lat="43.7589" lon="1.5573">
        <ele>176.895743</ele>
        <time>2023-09-17T11:23:42.424Z</time>
      </trkpt>
      <trkpt lat="43.75884" lon="1.55726">
        <ele>176.929326</ele>
        <time>2023-09-17T11:23:43.424Z</time>
      </trkpt>
      <trkpt lat="43.75877" lon="1.55721">
        <ele>176.962747</ele>
        <time>2023-09-17T11:23:44.424Z</time>
      </trkpt>
      <trkpt lat="43.75872" lon="1.55718">
        <ele>176.993192</ele>
        <time>2023-09-17T11:23:45.424Z</time>
      </trkpt>
      <trkpt lat="43.75866" lon="1.55714">
        <ele>177.026454</ele>
        <time>2023-09-17T11:23:46.424Z</time>
      </trkpt>
      <trkpt lat="43.7586" lon="1.5571">
        <ele>177.059562</ele>
        <time>2023-09-17T11:23:47.424Z</time>
      </trkpt>
      <trkpt lat="43.7586" lon="1.5571">
        <ele>177.059562</ele>
        <time>2023-09-17T11:23:47.424Z</time>
      </trkpt>
      <trkpt lat="43.75853" lon="1.55706">
        <ele>177.093109</ele>
        <time>2023-09-17T11:23:48.424Z</time>
      </trkpt>
      <trkpt lat="43.75848" lon="1.55702">
        <ele>177.12225</ele>
        <time>2023-09-17T11:23:49.424Z</time>
      </trkpt>
      <trkpt lat="43.75843" lon="1.55698">
        <ele>177.149334</ele>
        <time>2023-09-17T11:23:50.424Z</time>
      </trkpt>
      <trkpt lat="43.75843" lon="1.55698">
        <ele>177.149334</ele>
        <time>2023-09-17T11:23:50.424Z</time>
      </trkpt>
      <trkpt lat="43.75837" lon="1.55694">
        <ele>177.182881</ele>
        <time>2023-09-17T11:23:51.424Z</time>
      </trkpt>
      <trkpt lat="43.75831" lon="1.5569">
        <ele>177.213924</ele>
        <time>2023-09-17T11:23:52.424Z</time>
      </trkpt>
      <trkpt lat="43.75831" lon="1.5569">
        <ele>177.213924</ele>
        <time>2023-09-17T11:23:52.424Z</time>
      </trkpt>
      <trkpt lat="43.75826" lon="1.55686">
        <ele>177.244813</ele>
        <time>2023-09-17T11:23:53.424Z</time>
      </trkpt>
      <trkpt lat="43.7582" lon="1.55682">
        <ele>177.274456</ele>
        <time>2023-09-17T11:23:54.424Z</time>
      </trkpt>
      <trkpt lat="43.75814" lon="1.55678">
        <ele>177.306252</ele>
        <time>2023-09-17T11:23:55.424Z</time>
      </trkpt>
      <trkpt lat="43.75814" lon="1.55678">
        <ele>177.306252</ele>
        <time>2023-09-17T11:23:55.424Z</time>
      </trkpt>
      <trkpt lat="43.75809" lon="1.55674">
        <ele>177.337778</ele>
        <time>2023-09-17T11:23:56.424Z</time>
      </trkpt>
      <trkpt lat="43.75803" lon="1.5567">
        <ele>177.366919</ele>
        <time>2023-09-17T11:23:57.424Z</time>
      </trkpt>
      <trkpt lat="43.75798" lon="1.55666">
        <ele>177.397962</ele>
        <time>2023-09-17T11:23:58.424Z</time>
      </trkpt>
      <trkpt lat="43.75792" lon="1.55663">
        <ele>177.429142</ele>
        <time>2023-09-17T11:23:59.424Z</time>
      </trkpt>
      <trkpt lat="43.75787" lon="1.55659">
        <ele>177.481522</ele>
        <time>2023-09-17T11:24:00.424Z</time>
      </trkpt>
      <trkpt lat="43.75787" lon="1.55659">
        <ele>177.481522</ele>
        <time>2023-09-17T11:24:00.424Z</time>
      </trkpt>
      <trkpt lat="43.75781" lon="1.55655">
        <ele>177.801295</ele>
        <time>2023-09-17T11:24:01.424Z</time>
      </trkpt>
      <trkpt lat="43.75776" lon="1.55651">
        <ele>178.14344</ele>
        <time>2023-09-17T11:24:02.424Z</time>
      </trkpt>
      <trkpt lat="43.7577" lon="1.55648">
        <ele>178.475965</ele>
        <time>2023-09-17T11:24:03.424Z</time>
      </trkpt>
      <trkpt lat="43.75765" lon="1.55645">
        <ele>178.774416</ele>
        <time>2023-09-17T11:24:04.424Z</time>
      </trkpt>
      <trkpt lat="43.75765" lon="1.55645">
        <ele>178.774416</ele>
        <time>2023-09-17T11:24:04.424Z</time>
      </trkpt>
      <trkpt lat="43.7576" lon="1.55641">
        <ele>179.087374</ele>
        <time>2023-09-17T11:24:05.424Z</time>
      </trkpt>
      <trkpt lat="43.75755" lon="1.55638">
        <ele>179.384139</ele>
        <time>2023-09-17T11:24:06.424Z</time>
      </trkpt>
      <trkpt lat="43.75749" lon="1.55635">
        <ele>179.693922</ele>
        <time>2023-09-17T11:24:07.424Z</time>
      </trkpt>
      <trkpt lat="43.75749" lon="1.55635">
        <ele>179.693922</ele>
        <time>2023-09-17T11:24:07.424Z</time>
      </trkpt>
      <trkpt lat="43.75744" lon="1.55632">
        <ele>179.98289</ele>
        <time>2023-09-17T11:24:08.424Z</time>
      </trkpt>
      <trkpt lat="43.75739" lon="1.55629">
        <ele>180.305657</ele>
        <time>2023-09-17T11:24:09.424Z</time>
      </trkpt>
      <trkpt lat="43.75739" lon="1.55629">
        <ele>180.305657</ele>
        <time>2023-09-17T11:24:09.424Z</time>
      </trkpt>
      <trkpt lat="43.75734" lon="1.55627">
        <ele>180.563977</ele>
        <time>2023-09-17T11:24:10.424Z</time>
      </trkpt>
      <trkpt lat="43.75734" lon="1.55627">
        <ele>180.563977</ele>
        <time>2023-09-17T11:24:10.424Z</time>
      </trkpt>
      <trkpt lat="43.75729" lon="1.55625">
        <ele>180.839963</ele>
        <time>2023-09-17T11:24:11.424Z</time>
      </trkpt>
      <trkpt lat="43.75729" lon="1.55625">
        <ele>180.839963</ele>
        <time>2023-09-17T11:24:11.424Z</time>
      </trkpt>
      <trkpt lat="43.75724" lon="1.55623">
        <ele>181.116755</ele>
        <time>2023-09-17T11:24:12.424Z</time>
      </trkpt>
      <trkpt lat="43.75724" lon="1.55623">
        <ele>181.116755</ele>
        <time>2023-09-17T11:24:12.424Z</time>
      </trkpt>
      <trkpt lat="43.7572" lon="1.55622">
        <ele>181.365675</ele>
        <time>2023-09-17T11:24:13.424Z</time>
      </trkpt>
      <trkpt lat="43.7572" lon="1.55622">
        <ele>181.365675</ele>
        <time>2023-09-17T11:24:13.424Z</time>
      </trkpt>
      <trkpt lat="43.75714" lon="1.5562">
        <ele>181.681796</ele>
        <time>2023-09-17T11:24:14.424Z</time>
      </trkpt>
      <trkpt lat="43.75714" lon="1.5562">
        <ele>181.681796</ele>
        <time>2023-09-17T11:24:14.424Z</time>
      </trkpt>
      <trkpt lat="43.75709" lon="1.55619">
        <ele>181.948398</ele>
        <time>2023-09-17T11:24:15.424Z</time>
      </trkpt>
      <trkpt lat="43.75709" lon="1.55619">
        <ele>181.948398</ele>
        <time>2023-09-17T11:24:15.424Z</time>
      </trkpt>
      <trkpt lat="43.75704" lon="1.55618">
        <ele>182.220965</ele>
        <time>2023-09-17T11:24:16.424Z</time>
      </trkpt>
      <trkpt lat="43.75704" lon="1.55618">
        <ele>182.220965</ele>
        <time>2023-09-17T11:24:16.424Z</time>
      </trkpt>
      <trkpt lat="43.75698" lon="1.55616">
        <ele>182.531122</ele>
        <time>2023-09-17T11:24:17.424Z</time>
      </trkpt>
      <trkpt lat="43.75698" lon="1.55616">
        <ele>182.531122</ele>
        <time>2023-09-17T11:24:17.424Z</time>
      </trkpt>
      <trkpt lat="43.75693" lon="1.55615">
        <ele>182.805223</ele>
        <time>2023-09-17T11:24:18.424Z</time>
      </trkpt>
      <trkpt lat="43.75693" lon="1.55615">
        <ele>182.805223</ele>
        <time>2023-09-17T11:24:18.424Z</time>
      </trkpt>
      <trkpt lat="43.75688" lon="1.55613">
        <ele>183.07892</ele>
        <time>2023-09-17T11:24:19.424Z</time>
      </trkpt>
      <trkpt lat="43.75688" lon="1.55613">
        <ele>183.07892</ele>
        <time>2023-09-17T11:24:19.424Z</time>
      </trkpt>
      <trkpt lat="43.75684" lon="1.5561">
        <ele>183.339664</ele>
        <time>2023-09-17T11:24:20.424Z</time>
      </trkpt>
      <trkpt lat="43.75684" lon="1.5561">
        <ele>183.339664</ele>
        <time>2023-09-17T11:24:20.424Z</time>
      </trkpt>
      <trkpt lat="43.75678" lon="1.55607">
        <ele>183.647922</ele>
        <time>2023-09-17T11:24:21.424Z</time>
      </trkpt>
      <trkpt lat="43.75678" lon="1.55607">
        <ele>183.647922</ele>
        <time>2023-09-17T11:24:21.424Z</time>
      </trkpt>
      <trkpt lat="43.75673" lon="1.55604">
        <ele>183.953513</ele>
        <time>2023-09-17T11:24:22.424Z</time>
      </trkpt>
      <trkpt lat="43.75673" lon="1.55604">
        <ele>183.953513</ele>
        <time>2023-09-17T11:24:22.424Z</time>
      </trkpt>
      <trkpt lat="43.75669" lon="1.55599">
        <ele>184.238048</ele>
        <time>2023-09-17T11:24:23.424Z</time>
      </trkpt>
      <trkpt lat="43.75669" lon="1.55599">
        <ele>184.238048</ele>
        <time>2023-09-17T11:24:23.424Z</time>
      </trkpt>
      <trkpt lat="43.75666" lon="1.55594">
        <ele>184.506624</ele>
        <time>2023-09-17T11:24:24.424Z</time>
      </trkpt>
      <trkpt lat="43.75666" lon="1.55594">
        <ele>184.506624</ele>
        <time>2023-09-17T11:24:24.424Z</time>
      </trkpt>
      <trkpt lat="43.75662" lon="1.55588">
        <ele>184.815429</ele>
        <time>2023-09-17T11:24:25.424Z</time>
      </trkpt>
      <trkpt lat="43.75662" lon="1.55588">
        <ele>184.815429</ele>
        <time>2023-09-17T11:24:25.424Z</time>
      </trkpt>
      <trkpt lat="43.75658" lon="1.55582">
        <ele>185.119941</ele>
        <time>2023-09-17T11:24:26.424Z</time>
      </trkpt>
      <trkpt lat="43.75658" lon="1.55582">
        <ele>185.119941</ele>
        <time>2023-09-17T11:24:26.424Z</time>
      </trkpt>
      <trkpt lat="43.75655" lon="1.55576">
        <ele>185.405523</ele>
        <time>2023-09-17T11:24:27.424Z</time>
      </trkpt>
      <trkpt lat="43.75655" lon="1.55576">
        <ele>185.405523</ele>
        <time>2023-09-17T11:24:27.424Z</time>
      </trkpt>
      <trkpt lat="43.75652" lon="1.5557">
        <ele>185.675496</ele>
        <time>2023-09-17T11:24:28.424Z</time>
      </trkpt>
      <trkpt lat="43.75652" lon="1.5557">
        <ele>185.675496</ele>
        <time>2023-09-17T11:24:28.424Z</time>
      </trkpt>
      <trkpt lat="43.75649" lon="1.55564">
        <ele>185.970746</ele>
        <time>2023-09-17T11:24:29.424Z</time>
      </trkpt>
      <trkpt lat="43.75649" lon="1.55564">
        <ele>185.970746</ele>
        <time>2023-09-17T11:24:29.424Z</time>
      </trkpt>
      <trkpt lat="43.75646" lon="1.55559">
        <ele>186.228692</ele>
        <time>2023-09-17T11:24:29.424Z</time>
      </trkpt>
      <trkpt lat="43.75646" lon="1.55559">
        <ele>186.228692</ele>
        <time>2023-09-17T11:24:29.424Z</time>
      </trkpt>
      <trkpt lat="43.75643" lon="1.55553">
        <ele>186.503006</ele>
        <time>2023-09-17T11:24:31.424Z</time>
      </trkpt>
      <trkpt lat="43.75643" lon="1.55553">
        <ele>186.503006</ele>
        <time>2023-09-17T11:24:31.424Z</time>
      </trkpt>
      <trkpt lat="43.75639" lon="1.55548">
        <ele>186.800348</ele>
        <time>2023-09-17T11:24:31.424Z</time>
      </trkpt>
      <trkpt lat="43.75639" lon="1.55548">
        <ele>186.800348</ele>
        <time>2023-09-17T11:24:31.424Z</time>
      </trkpt>
      <trkpt lat="43.75636" lon="1.55543">
        <ele>187.058904</ele>
        <time>2023-09-17T11:24:33.424Z</time>
      </trkpt>
      <trkpt lat="43.75636" lon="1.55543">
        <ele>187.058904</ele>
        <time>2023-09-17T11:24:33.424Z</time>
      </trkpt>
      <trkpt lat="43.75633" lon="1.55539">
        <ele>187.112471</ele>
        <time>2023-09-17T11:24:34.424Z</time>
      </trkpt>
      <trkpt lat="43.75633" lon="1.55539">
        <ele>187.112471</ele>
        <time>2023-09-17T11:24:34.424Z</time>
      </trkpt>
      <trkpt lat="43.75631" lon="1.55535">
        <ele>187.13197</ele>
        <time>2023-09-17T11:24:35.424Z</time>
      </trkpt>
      <trkpt lat="43.75631" lon="1.55535">
        <ele>187.13197</ele>
        <time>2023-09-17T11:24:35.424Z</time>
      </trkpt>
      <trkpt lat="43.75629" lon="1.5553">
        <ele>187.151704</ele>
        <time>2023-09-17T11:24:36.424Z</time>
      </trkpt>
      <trkpt lat="43.75629" lon="1.5553">
        <ele>187.151704</ele>
        <time>2023-09-17T11:24:36.424Z</time>
      </trkpt>
      <trkpt lat="43.75628" lon="1.55526">
        <ele>187.167134</ele>
        <time>2023-09-17T11:24:37.424Z</time>
      </trkpt>
      <trkpt lat="43.75628" lon="1.55526">
        <ele>187.167134</ele>
        <time>2023-09-17T11:24:37.424Z</time>
      </trkpt>
      <trkpt lat="43.75628" lon="1.55522">
        <ele>187.184973</ele>
        <time>2023-09-17T11:24:38.424Z</time>
      </trkpt>
      <trkpt lat="43.75628" lon="1.55522">
        <ele>187.184973</ele>
        <time>2023-09-17T11:24:38.424Z</time>
      </trkpt>
      <trkpt lat="43.75628" lon="1.55517">
        <ele>187.203465</ele>
        <time>2023-09-17T11:24:39.424Z</time>
      </trkpt>
      <trkpt lat="43.75628" lon="1.55517">
        <ele>187.203465</ele>
        <time>2023-09-17T11:24:39.424Z</time>
      </trkpt>
      <trkpt lat="43.75629" lon="1.55513">
        <ele>187.220504</ele>
        <time>2023-09-17T11:24:40.424Z</time>
      </trkpt>
      <trkpt lat="43.75629" lon="1.55513">
        <ele>187.220504</ele>
        <time>2023-09-17T11:24:40.424Z</time>
      </trkpt>
      <trkpt lat="43.75628" lon="1.55515">
        <ele>187.228132</ele>
        <time>2023-09-17T11:24:41.424Z</time>
      </trkpt>
      <trkpt lat="43.75628" lon="1.55515">
        <ele>187.228132</ele>
        <time>2023-09-17T11:24:41.424Z</time>
      </trkpt>
      <trkpt lat="43.7563" lon="1.55512">
        <ele>187.243831</ele>
        <time>2023-09-17T11:24:42.424Z</time>
      </trkpt>
      <trkpt lat="43.7563" lon="1.55512">
        <ele>187.243831</ele>
        <time>2023-09-17T11:24:42.424Z</time>
      </trkpt>
      <trkpt lat="43.75632" lon="1.55508">
        <ele>187.259507</ele>
        <time>2023-09-17T11:24:43.424Z</time>
      </trkpt>
      <trkpt lat="43.75632" lon="1.55508">
        <ele>187.259507</ele>
        <time>2023-09-17T11:24:43.424Z</time>
      </trkpt>
      <trkpt lat="43.75638" lon="1.55498">
        <ele>187.311914</ele>
        <time>2023-09-17T11:24:45.424Z</time>
      </trkpt>
      <trkpt lat="43.75641" lon="1.55493">
        <ele>187.338648</ele>
        <time>2023-09-17T11:24:46.424Z</time>
      </trkpt>
      <trkpt lat="43.75646" lon="1.55487">
        <ele>187.374435</ele>
        <time>2023-09-17T11:24:47.424Z</time>
      </trkpt>
      <trkpt lat="43.75646" lon="1.55487">
        <ele>187.374435</ele>
        <time>2023-09-17T11:24:47.424Z</time>
      </trkpt>
      <trkpt lat="43.75651" lon="1.55482">
        <ele>187.407288</ele>
        <time>2023-09-17T11:24:48.424Z</time>
      </trkpt>
      <trkpt lat="43.75656" lon="1.55477">
        <ele>187.441363</ele>
        <time>2023-09-17T11:24:49.424Z</time>
      </trkpt>
      <trkpt lat="43.75656" lon="1.55477">
        <ele>187.441363</ele>
        <time>2023-09-17T11:24:49.424Z</time>
      </trkpt>
      <trkpt lat="43.75664" lon="1.55471">
        <ele>187.489113</ele>
        <time>2023-09-17T11:24:50.424Z</time>
      </trkpt>
      <trkpt lat="43.75664" lon="1.55471">
        <ele>187.489113</ele>
        <time>2023-09-17T11:24:50.424Z</time>
      </trkpt>
      <trkpt lat="43.75669" lon="1.55468">
        <ele>187.5211</ele>
        <time>2023-09-17T11:24:51.424Z</time>
      </trkpt>
      <trkpt lat="43.75674" lon="1.55464">
        <ele>187.553613</ele>
        <time>2023-09-17T11:24:52.424Z</time>
      </trkpt>
      <trkpt lat="43.75674" lon="1.55464">
        <ele>187.553613</ele>
        <time>2023-09-17T11:24:52.424Z</time>
      </trkpt>
      <trkpt lat="43.75681" lon="1.55459">
        <ele>187.5932</ele>
        <time>2023-09-17T11:24:53.424Z</time>
      </trkpt>
      <trkpt lat="43.75681" lon="1.55459">
        <ele>187.5932</ele>
        <time>2023-09-17T11:24:53.424Z</time>
      </trkpt>
      <trkpt lat="43.75685" lon="1.55456">
        <ele>187.618735</ele>
        <time>2023-09-17T11:24:54.424Z</time>
      </trkpt>
      <trkpt lat="43.75687" lon="1.55452">
        <ele>187.63916</ele>
        <time>2023-09-17T11:24:55.424Z</time>
      </trkpt>
      <trkpt lat="43.75687" lon="1.55452">
        <ele>187.63916</ele>
        <time>2023-09-17T11:24:55.424Z</time>
      </trkpt>
      <trkpt lat="43.75687" lon="1.55443">
        <ele>187.672604</ele>
        <time>2023-09-17T11:24:56.424Z</time>
      </trkpt>
      <trkpt lat="43.75687" lon="1.55443">
        <ele>187.672604</ele>
        <time>2023-09-17T11:24:56.424Z</time>
      </trkpt>
      <trkpt lat="43.75686" lon="1.55438">
        <ele>187.6911</ele>
        <time>2023-09-17T11:24:57.424Z</time>
      </trkpt>
      <trkpt lat="43.75685" lon="1.55433">
        <ele>187.714794</ele>
        <time>2023-09-17T11:24:59.424Z</time>
      </trkpt>
      <trkpt lat="43.75685" lon="1.55433">
        <ele>187.714794</ele>
        <time>2023-09-17T11:24:59.424Z</time>
      </trkpt>
      <trkpt lat="43.75682" lon="1.55426">
        <ele>187.746115</ele>
        <time>2023-09-17T11:25:00.424Z</time>
      </trkpt>
      <trkpt lat="43.75679" lon="1.55419">
        <ele>187.776301</ele>
        <time>2023-09-17T11:25:01.424Z</time>
      </trkpt>
      <trkpt lat="43.75679" lon="1.55419">
        <ele>187.776301</ele>
        <time>2023-09-17T11:25:01.424Z</time>
      </trkpt>
      <trkpt lat="43.75676" lon="1.55412">
        <ele>187.807277</ele>
        <time>2023-09-17T11:25:02.424Z</time>
      </trkpt>
      <trkpt lat="43.75673" lon="1.55405">
        <ele>187.84173</ele>
        <time>2023-09-17T11:25:03.424Z</time>
      </trkpt>
      <trkpt lat="43.75673" lon="1.55405">
        <ele>187.84173</ele>
        <time>2023-09-17T11:25:03.424Z</time>
      </trkpt>
      <trkpt lat="43.75668" lon="1.55398">
        <ele>187.877838</ele>
        <time>2023-09-17T11:25:04.424Z</time>
      </trkpt>
      <trkpt lat="43.75668" lon="1.55398">
        <ele>187.877838</ele>
        <time>2023-09-17T11:25:04.424Z</time>
      </trkpt>
      <trkpt lat="43.75664" lon="1.55392">
        <ele>187.910997</ele>
        <time>2023-09-17T11:25:05.424Z</time>
      </trkpt>
      <trkpt lat="43.75664" lon="1.55392">
        <ele>187.910997</ele>
        <time>2023-09-17T11:25:05.424Z</time>
      </trkpt>
      <trkpt lat="43.7566" lon="1.55387">
        <ele>187.94318</ele>
        <time>2023-09-17T11:25:06.424Z</time>
      </trkpt>
      <trkpt lat="43.7566" lon="1.55387">
        <ele>187.94318</ele>
        <time>2023-09-17T11:25:06.424Z</time>
      </trkpt>
      <trkpt lat="43.75655" lon="1.55381">
        <ele>187.976547</ele>
        <time>2023-09-17T11:25:07.424Z</time>
      </trkpt>
      <trkpt lat="43.75655" lon="1.55381">
        <ele>187.976547</ele>
        <time>2023-09-17T11:25:07.424Z</time>
      </trkpt>
      <trkpt lat="43.7565" lon="1.55375">
        <ele>188.01311</ele>
        <time>2023-09-17T11:25:07.424Z</time>
      </trkpt>
      <trkpt lat="43.7565" lon="1.55375">
        <ele>188.01311</ele>
        <time>2023-09-17T11:25:07.424Z</time>
      </trkpt>
      <trkpt lat="43.75645" lon="1.55368">
        <ele>188.052033</ele>
        <time>2023-09-17T11:25:09.424Z</time>
      </trkpt>
      <trkpt lat="43.75645" lon="1.55368">
        <ele>188.052033</ele>
        <time>2023-09-17T11:25:09.424Z</time>
      </trkpt>
      <trkpt lat="43.75641" lon="1.55361">
        <ele>187.749774</ele>
        <time>2023-09-17T11:25:10.424Z</time>
      </trkpt>
      <trkpt lat="43.75641" lon="1.55361">
        <ele>187.749774</ele>
        <time>2023-09-17T11:25:10.424Z</time>
      </trkpt>
      <trkpt lat="43.75636" lon="1.55354">
        <ele>187.038332</ele>
        <time>2023-09-17T11:25:11.424Z</time>
      </trkpt>
      <trkpt lat="43.75636" lon="1.55354">
        <ele>187.038332</ele>
        <time>2023-09-17T11:25:11.424Z</time>
      </trkpt>
      <trkpt lat="43.75631" lon="1.55346">
        <ele>186.277477</ele>
        <time>2023-09-17T11:25:12.424Z</time>
      </trkpt>
      <trkpt lat="43.75631" lon="1.55346">
        <ele>186.277477</ele>
        <time>2023-09-17T11:25:12.424Z</time>
      </trkpt>
      <trkpt lat="43.75625" lon="1.55338">
        <ele>185.440491</ele>
        <time>2023-09-17T11:25:13.424Z</time>
      </trkpt>
      <trkpt lat="43.75625" lon="1.55338">
        <ele>185.440491</ele>
        <time>2023-09-17T11:25:13.424Z</time>
      </trkpt>
      <trkpt lat="43.7562" lon="1.5533">
        <ele>184.64789</ele>
        <time>2023-09-17T11:25:14.424Z</time>
      </trkpt>
      <trkpt lat="43.7562" lon="1.5533">
        <ele>184.64789</ele>
        <time>2023-09-17T11:25:14.424Z</time>
      </trkpt>
      <trkpt lat="43.75617" lon="1.55325">
        <ele>184.165782</ele>
        <time>2023-09-17T11:25:15.424Z</time>
      </trkpt>
      <trkpt lat="43.75617" lon="1.55325">
        <ele>184.165782</ele>
        <time>2023-09-17T11:25:15.424Z</time>
      </trkpt>
      <trkpt lat="43.75612" lon="1.55316">
        <ele>183.306333</ele>
        <time>2023-09-17T11:25:16.424Z</time>
      </trkpt>
      <trkpt lat="43.75612" lon="1.55316">
        <ele>183.306333</ele>
        <time>2023-09-17T11:25:16.424Z</time>
      </trkpt>
      <trkpt lat="43.75609" lon="1.55312">
        <ele>182.916237</ele>
        <time>2023-09-17T11:25:17.424Z</time>
      </trkpt>
      <trkpt lat="43.75609" lon="1.55312">
        <ele>182.916237</ele>
        <time>2023-09-17T11:25:17.424Z</time>
      </trkpt>
      <trkpt lat="43.75608" lon="1.55309">
        <ele>182.664129</ele>
        <time>2023-09-17T11:25:18.424Z</time>
      </trkpt>
      <trkpt lat="43.75608" lon="1.55309">
        <ele>182.664129</ele>
        <time>2023-09-17T11:25:18.424Z</time>
      </trkpt>
      <trkpt lat="43.75606" lon="1.55306">
        <ele>182.340078</ele>
        <time>2023-09-17T11:25:19.424Z</time>
      </trkpt>
      <trkpt lat="43.75606" lon="1.55306">
        <ele>182.340078</ele>
        <time>2023-09-17T11:25:19.424Z</time>
      </trkpt>
      <trkpt lat="43.75604" lon="1.55302">
        <ele>182.016027</ele>
        <time>2023-09-17T11:25:20.424Z</time>
      </trkpt>
      <trkpt lat="43.75604" lon="1.55302">
        <ele>182.016027</ele>
        <time>2023-09-17T11:25:20.424Z</time>
      </trkpt>
      <trkpt lat="43.75601" lon="1.55297">
        <ele>181.522686</ele>
        <time>2023-09-17T11:25:21.424Z</time>
      </trkpt>
      <trkpt lat="43.75601" lon="1.55297">
        <ele>181.522686</ele>
        <time>2023-09-17T11:25:21.424Z</time>
      </trkpt>
      <trkpt lat="43.75597" lon="1.55292">
        <ele>180.986882</ele>
        <time>2023-09-17T11:25:22.424Z</time>
      </trkpt>
      <trkpt lat="43.75597" lon="1.55292">
        <ele>180.986882</ele>
        <time>2023-09-17T11:25:22.424Z</time>
      </trkpt>
      <trkpt lat="43.75593" lon="1.55285">
        <ele>180.324675</ele>
        <time>2023-09-17T11:25:23.424Z</time>
      </trkpt>
      <trkpt lat="43.75593" lon="1.55285">
        <ele>180.324675</ele>
        <time>2023-09-17T11:25:23.424Z</time>
      </trkpt>
      <trkpt lat="43.75591" lon="1.55281">
        <ele>179.928656</ele>
        <time>2023-09-17T11:25:24.424Z</time>
      </trkpt>
      <trkpt lat="43.75591" lon="1.55281">
        <ele>179.928656</ele>
        <time>2023-09-17T11:25:24.424Z</time>
      </trkpt>
      <trkpt lat="43.75584" lon="1.55269">
        <ele>178.787636</ele>
        <time>2023-09-17T11:25:25.424Z</time>
      </trkpt>
      <trkpt lat="43.75584" lon="1.55269">
        <ele>178.787636</ele>
        <time>2023-09-17T11:25:25.424Z</time>
      </trkpt>
      <trkpt lat="43.75579" lon="1.55259">
        <ele>177.911552</ele>
        <time>2023-09-17T11:25:26.424Z</time>
      </trkpt>
      <trkpt lat="43.75579" lon="1.55259">
        <ele>177.911552</ele>
        <time>2023-09-17T11:25:26.424Z</time>
      </trkpt>
      <trkpt lat="43.75573" lon="1.55248">
        <ele>176.897572</ele>
        <time>2023-09-17T11:25:27.424Z</time>
      </trkpt>
      <trkpt lat="43.75573" lon="1.55248">
        <ele>176.897572</ele>
        <time>2023-09-17T11:25:27.424Z</time>
      </trkpt>
      <trkpt lat="43.75568" lon="1.55237">
        <ele>175.907576</ele>
        <time>2023-09-17T11:25:28.424Z</time>
      </trkpt>
      <trkpt lat="43.75568" lon="1.55237">
        <ele>175.907576</ele>
        <time>2023-09-17T11:25:28.424Z</time>
      </trkpt>
      <trkpt lat="43.75562" lon="1.55225">
        <ele>174.88541</ele>
        <time>2023-09-17T11:25:29.424Z</time>
      </trkpt>
      <trkpt lat="43.75562" lon="1.55225">
        <ele>174.88541</ele>
        <time>2023-09-17T11:25:29.424Z</time>
      </trkpt>
      <trkpt lat="43.75562" lon="1.55224">
        <ele>174.780826</ele>
        <time>2023-09-17T11:25:30.424Z</time>
      </trkpt>
      <trkpt lat="43.75553" lon="1.55197">
        <ele>172.575618</ele>
        <time>2023-09-17T11:25:31.424Z</time>
      </trkpt>
      <trkpt lat="43.75553" lon="1.55197">
        <ele>172.575618</ele>
        <time>2023-09-17T11:25:31.424Z</time>
      </trkpt>
      <trkpt lat="43.75552" lon="1.55187">
        <ele>171.82696</ele>
        <time>2023-09-17T11:25:32.424Z</time>
      </trkpt>
      <trkpt lat="43.75552" lon="1.55187">
        <ele>171.82696</ele>
        <time>2023-09-17T11:25:32.424Z</time>
      </trkpt>
      <trkpt lat="43.75551" lon="1.55168">
        <ele>170.403828</ele>
        <time>2023-09-17T11:25:33.424Z</time>
      </trkpt>
      <trkpt lat="43.75551" lon="1.55168">
        <ele>170.403828</ele>
        <time>2023-09-17T11:25:33.424Z</time>
      </trkpt>
      <trkpt lat="43.7555" lon="1.5516">
        <ele>169.815623</ele>
        <time>2023-09-17T11:25:34.424Z</time>
      </trkpt>
      <trkpt lat="43.7555" lon="1.5516">
        <ele>169.815623</ele>
        <time>2023-09-17T11:25:34.424Z</time>
      </trkpt>
      <trkpt lat="43.75545" lon="1.5514">
        <ele>168.957571</ele>
        <time>2023-09-17T11:25:35.424Z</time>
      </trkpt>
      <trkpt lat="43.75545" lon="1.5514">
        <ele>168.957571</ele>
        <time>2023-09-17T11:25:35.424Z</time>
      </trkpt>
      <trkpt lat="43.7554" lon="1.55124">
        <ele>168.312301</ele>
        <time>2023-09-17T11:25:36.424Z</time>
      </trkpt>
      <trkpt lat="43.7554" lon="1.55124">
        <ele>168.312301</ele>
        <time>2023-09-17T11:25:36.424Z</time>
      </trkpt>
      <trkpt lat="43.75534" lon="1.55111">
        <ele>167.745615</ele>
        <time>2023-09-17T11:25:37.424Z</time>
      </trkpt>
      <trkpt lat="43.75534" lon="1.55111">
        <ele>167.745615</ele>
        <time>2023-09-17T11:25:37.424Z</time>
      </trkpt>
      <trkpt lat="43.75527" lon="1.55098">
        <ele>167.173618</ele>
        <time>2023-09-17T11:25:38.424Z</time>
      </trkpt>
      <trkpt lat="43.75527" lon="1.55098">
        <ele>167.173618</ele>
        <time>2023-09-17T11:25:38.424Z</time>
      </trkpt>
      <trkpt lat="43.75518" lon="1.55083">
        <ele>166.447389</ele>
        <time>2023-09-17T11:25:39.424Z</time>
      </trkpt>
      <trkpt lat="43.75518" lon="1.55083">
        <ele>166.447389</ele>
        <time>2023-09-17T11:25:39.424Z</time>
      </trkpt>
      <trkpt lat="43.7551" lon="1.55071">
        <ele>165.888013</ele>
        <time>2023-09-17T11:25:40.424Z</time>
      </trkpt>
      <trkpt lat="43.7551" lon="1.55071">
        <ele>165.888013</ele>
        <time>2023-09-17T11:25:40.424Z</time>
      </trkpt>
      <trkpt lat="43.75504" lon="1.5506">
        <ele>165.385228</ele>
        <time>2023-09-17T11:25:41.424Z</time>
      </trkpt>
      <trkpt lat="43.75504" lon="1.5506">
        <ele>165.385228</ele>
        <time>2023-09-17T11:25:41.424Z</time>
      </trkpt>
      <trkpt lat="43.75499" lon="1.55052">
        <ele>164.984115</ele>
        <time>2023-09-17T11:25:42.424Z</time>
      </trkpt>
      <trkpt lat="43.75499" lon="1.55052">
        <ele>164.984115</ele>
        <time>2023-09-17T11:25:42.424Z</time>
      </trkpt>
      <trkpt lat="43.75496" lon="1.55044">
        <ele>164.663606</ele>
        <time>2023-09-17T11:25:43.424Z</time>
      </trkpt>
      <trkpt lat="43.75496" lon="1.55044">
        <ele>164.663606</ele>
        <time>2023-09-17T11:25:43.424Z</time>
      </trkpt>
      <trkpt lat="43.75494" lon="1.55036">
        <ele>164.366618</ele>
        <time>2023-09-17T11:25:44.424Z</time>
      </trkpt>
      <trkpt lat="43.75496" lon="1.5503">
        <ele>164.138025</ele>
        <time>2023-09-17T11:25:45.424Z</time>
      </trkpt>
      <trkpt lat="43.75498" lon="1.55025">
        <ele>163.905182</ele>
        <time>2023-09-17T11:25:46.424Z</time>
      </trkpt>
      <trkpt lat="43.75502" lon="1.5502">
        <ele>163.66075</ele>
        <time>2023-09-17T11:25:47.424Z</time>
      </trkpt>
      <trkpt lat="43.75505" lon="1.55015">
        <ele>163.412767</ele>
        <time>2023-09-17T11:25:48.424Z</time>
      </trkpt>
      <trkpt lat="43.75505" lon="1.55015">
        <ele>163.412767</ele>
        <time>2023-09-17T11:25:48.424Z</time>
      </trkpt>
      <trkpt lat="43.75507" lon="1.55011">
        <ele>163.244733</ele>
        <time>2023-09-17T11:25:48.424Z</time>
      </trkpt>
      <trkpt lat="43.75509" lon="1.55003">
        <ele>162.921514</ele>
        <time>2023-09-17T11:25:50.424Z</time>
      </trkpt>
      <trkpt lat="43.7551" lon="1.54997">
        <ele>162.710097</ele>
        <time>2023-09-17T11:25:51.424Z</time>
      </trkpt>
      <trkpt lat="43.75508" lon="1.54992">
        <ele>162.516602</ele>
        <time>2023-09-17T11:25:52.424Z</time>
      </trkpt>
      <trkpt lat="43.75506" lon="1.54987">
        <ele>162.304726</ele>
        <time>2023-09-17T11:25:53.424Z</time>
      </trkpt>
      <trkpt lat="43.75504" lon="1.54983">
        <ele>162.101317</ele>
        <time>2023-09-17T11:25:54.424Z</time>
      </trkpt>
      <trkpt lat="43.75504" lon="1.54983">
        <ele>162.101317</ele>
        <time>2023-09-17T11:25:54.424Z</time>
      </trkpt>
      <trkpt lat="43.75501" lon="1.54978">
        <ele>161.877316</ele>
        <time>2023-09-17T11:25:55.424Z</time>
      </trkpt>
      <trkpt lat="43.75501" lon="1.54978">
        <ele>161.877316</ele>
        <time>2023-09-17T11:25:55.424Z</time>
      </trkpt>
      <trkpt lat="43.75499" lon="1.54972">
        <ele>161.644473</ele>
        <time>2023-09-17T11:25:56.424Z</time>
      </trkpt>
      <trkpt lat="43.75497" lon="1.54969">
        <ele>161.502711</ele>
        <time>2023-09-17T11:25:57.424Z</time>
      </trkpt>
      <trkpt lat="43.75492" lon="1.5496">
        <ele>161.095631</ele>
        <time>2023-09-17T11:25:58.424Z</time>
      </trkpt>
      <trkpt lat="43.75491" lon="1.54957">
        <ele>160.951721</ele>
        <time>2023-09-17T11:26:00.424Z</time>
      </trkpt>
      <trkpt lat="43.75491" lon="1.54957">
        <ele>160.951721</ele>
        <time>2023-09-17T11:26:00.424Z</time>
      </trkpt>
      <trkpt lat="43.75488" lon="1.54947">
        <ele>160.620388</ele>
        <time>2023-09-17T11:26:01.424Z</time>
      </trkpt>
      <trkpt lat="43.75488" lon="1.54947">
        <ele>160.620388</ele>
        <time>2023-09-17T11:26:01.424Z</time>
      </trkpt>
      <trkpt lat="43.75485" lon="1.54938">
        <ele>161.115982</ele>
        <time>2023-09-17T11:26:03.424Z</time>
      </trkpt>
      <trkpt lat="43.75485" lon="1.54938">
        <ele>161.115982</ele>
        <time>2023-09-17T11:26:03.424Z</time>
      </trkpt>
      <trkpt lat="43.75483" lon="1.54931">
        <ele>161.449676</ele>
        <time>2023-09-17T11:26:05.424Z</time>
      </trkpt>
      <trkpt lat="43.75481" lon="1.54925">
        <ele>161.77628</ele>
        <time>2023-09-17T11:26:06.424Z</time>
      </trkpt>
      <trkpt lat="43.75481" lon="1.54925">
        <ele>161.77628</ele>
        <time>2023-09-17T11:26:06.424Z</time>
      </trkpt>
      <trkpt lat="43.75479" lon="1.54919">
        <ele>162.105519</ele>
        <time>2023-09-17T11:26:07.424Z</time>
      </trkpt>
      <trkpt lat="43.75478" lon="1.54913">
        <ele>162.370095</ele>
        <time>2023-09-17T11:26:08.424Z</time>
      </trkpt>
      <trkpt lat="43.75478" lon="1.54913">
        <ele>162.370095</ele>
        <time>2023-09-17T11:26:08.424Z</time>
      </trkpt>
      <trkpt lat="43.75476" lon="1.54902">
        <ele>162.959507</ele>
        <time>2023-09-17T11:26:10.424Z</time>
      </trkpt>
      <trkpt lat="43.75476" lon="1.54902">
        <ele>162.959507</ele>
        <time>2023-09-17T11:26:10.424Z</time>
      </trkpt>
      <trkpt lat="43.75475" lon="1.54896">
        <ele>163.23007</ele>
        <time>2023-09-17T11:26:12.424Z</time>
      </trkpt>
      <trkpt lat="43.75475" lon="1.54896">
        <ele>163.23007</ele>
        <time>2023-09-17T11:26:12.424Z</time>
      </trkpt>
      <trkpt lat="43.75474" lon="1.54889">
        <ele>163.568344</ele>
        <time>2023-09-17T11:26:13.424Z</time>
      </trkpt>
      <trkpt lat="43.75474" lon="1.54889">
        <ele>163.568344</ele>
        <time>2023-09-17T11:26:13.424Z</time>
      </trkpt>
      <trkpt lat="43.75471" lon="1.54878">
        <ele>164.128613</ele>
        <time>2023-09-17T11:26:15.424Z</time>
      </trkpt>
      <trkpt lat="43.75471" lon="1.54878">
        <ele>164.128613</ele>
        <time>2023-09-17T11:26:15.424Z</time>
      </trkpt>
      <trkpt lat="43.7547" lon="1.54874">
        <ele>164.366873</ele>
        <time>2023-09-17T11:26:16.424Z</time>
      </trkpt>
      <trkpt lat="43.7547" lon="1.54874">
        <ele>164.366873</ele>
        <time>2023-09-17T11:26:16.424Z</time>
      </trkpt>
      <trkpt lat="43.75468" lon="1.54869">
        <ele>164.622419</ele>
        <time>2023-09-17T11:26:17.424Z</time>
      </trkpt>
      <trkpt lat="43.75468" lon="1.54869">
        <ele>164.622419</ele>
        <time>2023-09-17T11:26:17.424Z</time>
      </trkpt>
      <trkpt lat="43.75465" lon="1.54863">
        <ele>164.971553</ele>
        <time>2023-09-17T11:26:18.424Z</time>
      </trkpt>
      <trkpt lat="43.75465" lon="1.54863">
        <ele>164.971553</ele>
        <time>2023-09-17T11:26:18.424Z</time>
      </trkpt>
      <trkpt lat="43.75464" lon="1.54859">
        <ele>165.167816</ele>
        <time>2023-09-17T11:26:19.424Z</time>
      </trkpt>
      <trkpt lat="43.75464" lon="1.54859">
        <ele>165.167816</ele>
        <time>2023-09-17T11:26:19.424Z</time>
      </trkpt>
      <trkpt lat="43.7546" lon="1.5485">
        <ele>165.692677</ele>
        <time>2023-09-17T11:26:22.424Z</time>
      </trkpt>
      <trkpt lat="43.7546" lon="1.5485">
        <ele>165.692677</ele>
        <time>2023-09-17T11:26:22.424Z</time>
      </trkpt>
      <trkpt lat="43.75457" lon="1.54845">
        <ele>166.017376</ele>
        <time>2023-09-17T11:26:23.424Z</time>
      </trkpt>
      <trkpt lat="43.75457" lon="1.54845">
        <ele>166.017376</ele>
        <time>2023-09-17T11:26:23.424Z</time>
      </trkpt>
      <trkpt lat="43.75454" lon="1.54839">
        <ele>166.338075</ele>
        <time>2023-09-17T11:26:24.424Z</time>
      </trkpt>
      <trkpt lat="43.75454" lon="1.54839">
        <ele>166.338075</ele>
        <time>2023-09-17T11:26:24.424Z</time>
      </trkpt>
      <trkpt lat="43.75452" lon="1.54834">
        <ele>166.639114</ele>
        <time>2023-09-17T11:26:25.424Z</time>
      </trkpt>
      <trkpt lat="43.75452" lon="1.54834">
        <ele>166.639114</ele>
        <time>2023-09-17T11:26:25.424Z</time>
      </trkpt>
      <trkpt lat="43.75449" lon="1.54829">
        <ele>166.944053</ele>
        <time>2023-09-17T11:26:26.424Z</time>
      </trkpt>
      <trkpt lat="43.75449" lon="1.54829">
        <ele>166.944053</ele>
        <time>2023-09-17T11:26:26.424Z</time>
      </trkpt>
      <trkpt lat="43.75446" lon="1.54824">
        <ele>167.237447</ele>
        <time>2023-09-17T11:26:27.424Z</time>
      </trkpt>
      <trkpt lat="43.75446" lon="1.54824">
        <ele>167.237447</ele>
        <time>2023-09-17T11:26:27.424Z</time>
      </trkpt>
      <trkpt lat="43.75444" lon="1.5482">
        <ele>167.488818</ele>
        <time>2023-09-17T11:26:29.424Z</time>
      </trkpt>
      <trkpt lat="43.75444" lon="1.5482">
        <ele>167.488818</ele>
        <time>2023-09-17T11:26:29.424Z</time>
      </trkpt>
      <trkpt lat="43.75442" lon="1.54815">
        <ele>167.763587</ele>
        <time>2023-09-17T11:26:30.424Z</time>
      </trkpt>
      <trkpt lat="43.75442" lon="1.54815">
        <ele>167.763587</ele>
        <time>2023-09-17T11:26:30.424Z</time>
      </trkpt>
      <trkpt lat="43.75439" lon="1.54812">
        <ele>168.01253</ele>
        <time>2023-09-17T11:26:31.424Z</time>
      </trkpt>
      <trkpt lat="43.75439" lon="1.54812">
        <ele>168.01253</ele>
        <time>2023-09-17T11:26:31.424Z</time>
      </trkpt>
      <trkpt lat="43.75437" lon="1.54808">
        <ele>168.251619</ele>
        <time>2023-09-17T11:26:32.424Z</time>
      </trkpt>
      <trkpt lat="43.75437" lon="1.54808">
        <ele>168.251619</ele>
        <time>2023-09-17T11:26:32.424Z</time>
      </trkpt>
      <trkpt lat="43.75435" lon="1.54804">
        <ele>168.458929</ele>
        <time>2023-09-17T11:26:33.424Z</time>
      </trkpt>
      <trkpt lat="43.75435" lon="1.54804">
        <ele>168.458929</ele>
        <time>2023-09-17T11:26:33.424Z</time>
      </trkpt>
      <trkpt lat="43.75433" lon="1.54801">
        <ele>168.698019</ele>
        <time>2023-09-17T11:26:35.424Z</time>
      </trkpt>
      <trkpt lat="43.75433" lon="1.54801">
        <ele>168.698019</ele>
        <time>2023-09-17T11:26:35.424Z</time>
      </trkpt>
      <trkpt lat="43.7543" lon="1.54797">
        <ele>168.940825</ele>
        <time>2023-09-17T11:26:35.424Z</time>
      </trkpt>
      <trkpt lat="43.7543" lon="1.54797">
        <ele>168.940825</ele>
        <time>2023-09-17T11:26:35.424Z</time>
      </trkpt>
      <trkpt lat="43.75428" lon="1.54792">
        <ele>169.202753</ele>
        <time>2023-09-17T11:26:37.424Z</time>
      </trkpt>
      <trkpt lat="43.75428" lon="1.54792">
        <ele>169.202753</ele>
        <time>2023-09-17T11:26:37.424Z</time>
      </trkpt>
      <trkpt lat="43.75426" lon="1.54789">
        <ele>169.421685</ele>
        <time>2023-09-17T11:26:38.424Z</time>
      </trkpt>
      <trkpt lat="43.75426" lon="1.54789">
        <ele>169.421685</ele>
        <time>2023-09-17T11:26:38.424Z</time>
      </trkpt>
      <trkpt lat="43.75424" lon="1.54785">
        <ele>169.632829</ele>
        <time>2023-09-17T11:26:39.424Z</time>
      </trkpt>
      <trkpt lat="43.75424" lon="1.54785">
        <ele>169.632829</ele>
        <time>2023-09-17T11:26:39.424Z</time>
      </trkpt>
      <trkpt lat="43.7542" lon="1.54778">
        <ele>170.103658</ele>
        <time>2023-09-17T11:26:40.424Z</time>
      </trkpt>
      <trkpt lat="43.7542" lon="1.54778">
        <ele>170.103658</ele>
        <time>2023-09-17T11:26:40.424Z</time>
      </trkpt>
      <trkpt lat="43.75417" lon="1.54775">
        <ele>170.317973</ele>
        <time>2023-09-17T11:26:42.424Z</time>
      </trkpt>
      <trkpt lat="43.75417" lon="1.54775">
        <ele>170.317973</ele>
        <time>2023-09-17T11:26:42.424Z</time>
      </trkpt>
      <trkpt lat="43.75415" lon="1.54772">
        <ele>170.525675</ele>
        <time>2023-09-17T11:26:43.424Z</time>
      </trkpt>
      <trkpt lat="43.75415" lon="1.54772">
        <ele>170.525675</ele>
        <time>2023-09-17T11:26:43.424Z</time>
      </trkpt>
      <trkpt lat="43.75412" lon="1.54769">
        <ele>170.764575</ele>
        <time>2023-09-17T11:26:44.424Z</time>
      </trkpt>
      <trkpt lat="43.75412" lon="1.54769">
        <ele>170.764575</ele>
        <time>2023-09-17T11:26:44.424Z</time>
      </trkpt>
      <trkpt lat="43.75407" lon="1.54764">
        <ele>171.195649</ele>
        <time>2023-09-17T11:26:47.424Z</time>
      </trkpt>
      <trkpt lat="43.75407" lon="1.54764">
        <ele>171.195649</ele>
        <time>2023-09-17T11:26:47.424Z</time>
      </trkpt>
      <trkpt lat="43.75403" lon="1.54762">
        <ele>171.450456</ele>
        <time>2023-09-17T11:26:48.424Z</time>
      </trkpt>
      <trkpt lat="43.75403" lon="1.54762">
        <ele>171.450456</ele>
        <time>2023-09-17T11:26:48.424Z</time>
      </trkpt>
      <trkpt lat="43.75401" lon="1.5476">
        <ele>171.624531</ele>
        <time>2023-09-17T11:26:49.424Z</time>
      </trkpt>
      <trkpt lat="43.75401" lon="1.5476">
        <ele>171.624531</ele>
        <time>2023-09-17T11:26:49.424Z</time>
      </trkpt>
      <trkpt lat="43.75396" lon="1.54757">
        <ele>172.008674</ele>
        <time>2023-09-17T11:26:50.424Z</time>
      </trkpt>
      <trkpt lat="43.75396" lon="1.54757">
        <ele>172.008674</ele>
        <time>2023-09-17T11:26:50.424Z</time>
      </trkpt>
      <trkpt lat="43.75393" lon="1.54755">
        <ele>172.201169</ele>
        <time>2023-09-17T11:26:52.424Z</time>
      </trkpt>
      <trkpt lat="43.75393" lon="1.54755">
        <ele>172.201169</ele>
        <time>2023-09-17T11:26:52.424Z</time>
      </trkpt>
      <trkpt lat="43.75391" lon="1.54754">
        <ele>172.344872</ele>
        <time>2023-09-17T11:26:53.424Z</time>
      </trkpt>
      <trkpt lat="43.75391" lon="1.54754">
        <ele>172.344872</ele>
        <time>2023-09-17T11:26:53.424Z</time>
      </trkpt>
      <trkpt lat="43.75388" lon="1.54752">
        <ele>172.561298</ele>
        <time>2023-09-17T11:26:55.424Z</time>
      </trkpt>
      <trkpt lat="43.75388" lon="1.54752">
        <ele>172.561298</ele>
        <time>2023-09-17T11:26:55.424Z</time>
      </trkpt>
      <trkpt lat="43.75385" lon="1.54751">
        <ele>172.75546</ele>
        <time>2023-09-17T11:26:55.424Z</time>
      </trkpt>
      <trkpt lat="43.75385" lon="1.54751">
        <ele>172.75546</ele>
        <time>2023-09-17T11:26:55.424Z</time>
      </trkpt>
      <trkpt lat="43.75382" lon="1.54749">
        <ele>172.976424</ele>
        <time>2023-09-17T11:26:56.424Z</time>
      </trkpt>
      <trkpt lat="43.75382" lon="1.54749">
        <ele>172.976424</ele>
        <time>2023-09-17T11:26:56.424Z</time>
      </trkpt>
      <trkpt lat="43.75376" lon="1.54744">
        <ele>173.422578</ele>
        <time>2023-09-17T11:26:59.424Z</time>
      </trkpt>
      <trkpt lat="43.75376" lon="1.54744">
        <ele>173.422578</ele>
        <time>2023-09-17T11:26:59.424Z</time>
      </trkpt>
      <trkpt lat="43.75374" lon="1.54743">
        <ele>173.560713</ele>
        <time>2023-09-17T11:27:00.424Z</time>
      </trkpt>
      <trkpt lat="43.75374" lon="1.54743">
        <ele>173.560713</ele>
        <time>2023-09-17T11:27:00.424Z</time>
      </trkpt>
      <trkpt lat="43.75373" lon="1.54742">
        <ele>173.678621</ele>
        <time>2023-09-17T11:27:01.424Z</time>
      </trkpt>
      <trkpt lat="43.75373" lon="1.54742">
        <ele>173.678621</ele>
        <time>2023-09-17T11:27:01.424Z</time>
      </trkpt>
      <trkpt lat="43.7537" lon="1.54739">
        <ele>173.890331</ele>
        <time>2023-09-17T11:27:03.424Z</time>
      </trkpt>
      <trkpt lat="43.7537" lon="1.54739">
        <ele>173.890331</ele>
        <time>2023-09-17T11:27:03.424Z</time>
      </trkpt>
      <trkpt lat="43.75368" lon="1.54736">
        <ele>174.093093</ele>
        <time>2023-09-17T11:27:03.424Z</time>
      </trkpt>
      <trkpt lat="43.75368" lon="1.54736">
        <ele>174.093093</ele>
        <time>2023-09-17T11:27:03.424Z</time>
      </trkpt>
      <trkpt lat="43.75366" lon="1.54734">
        <ele>174.263939</ele>
        <time>2023-09-17T11:27:05.424Z</time>
      </trkpt>
      <trkpt lat="43.75366" lon="1.54734">
        <ele>174.263939</ele>
        <time>2023-09-17T11:27:05.424Z</time>
      </trkpt>
      <trkpt lat="43.75364" lon="1.5473">
        <ele>174.508337</ele>
        <time>2023-09-17T11:27:05.424Z</time>
      </trkpt>
      <trkpt lat="43.75364" lon="1.5473">
        <ele>174.508337</ele>
        <time>2023-09-17T11:27:05.424Z</time>
      </trkpt>
      <trkpt lat="43.75361" lon="1.54726">
        <ele>174.748792</ele>
        <time>2023-09-17T11:27:06.424Z</time>
      </trkpt>
      <trkpt lat="43.75361" lon="1.54726">
        <ele>174.748792</ele>
        <time>2023-09-17T11:27:06.424Z</time>
      </trkpt>
      <trkpt lat="43.75359" lon="1.54723">
        <ele>174.940991</ele>
        <time>2023-09-17T11:27:08.424Z</time>
      </trkpt>
      <trkpt lat="43.75359" lon="1.54723">
        <ele>174.940991</ele>
        <time>2023-09-17T11:27:08.424Z</time>
      </trkpt>
      <trkpt lat="43.75357" lon="1.54718">
        <ele>175.189068</ele>
        <time>2023-09-17T11:27:09.424Z</time>
      </trkpt>
      <trkpt lat="43.75357" lon="1.54718">
        <ele>175.189068</ele>
        <time>2023-09-17T11:27:09.424Z</time>
      </trkpt>
      <trkpt lat="43.75356" lon="1.54715">
        <ele>175.367223</ele>
        <time>2023-09-17T11:27:10.424Z</time>
      </trkpt>
      <trkpt lat="43.75356" lon="1.54715">
        <ele>175.367223</ele>
        <time>2023-09-17T11:27:10.424Z</time>
      </trkpt>
      <trkpt lat="43.75354" lon="1.54711">
        <ele>175.592034</ele>
        <time>2023-09-17T11:27:12.424Z</time>
      </trkpt>
      <trkpt lat="43.75354" lon="1.54711">
        <ele>175.592034</ele>
        <time>2023-09-17T11:27:12.424Z</time>
      </trkpt>
      <trkpt lat="43.75353" lon="1.54706">
        <ele>175.833375</ele>
        <time>2023-09-17T11:27:13.424Z</time>
      </trkpt>
      <trkpt lat="43.75353" lon="1.54706">
        <ele>175.833375</ele>
        <time>2023-09-17T11:27:13.424Z</time>
      </trkpt>
      <trkpt lat="43.75351" lon="1.54702">
        <ele>176.052769</ele>
        <time>2023-09-17T11:27:14.424Z</time>
      </trkpt>
      <trkpt lat="43.75351" lon="1.54702">
        <ele>176.052769</ele>
        <time>2023-09-17T11:27:14.424Z</time>
      </trkpt>
      <trkpt lat="43.75349" lon="1.54698">
        <ele>176.298163</ele>
        <time>2023-09-17T11:27:15.424Z</time>
      </trkpt>
      <trkpt lat="43.75349" lon="1.54698">
        <ele>176.298163</ele>
        <time>2023-09-17T11:27:15.424Z</time>
      </trkpt>
      <trkpt lat="43.75347" lon="1.54694">
        <ele>176.515743</ele>
        <time>2023-09-17T11:27:17.424Z</time>
      </trkpt>
      <trkpt lat="43.75347" lon="1.54694">
        <ele>176.515743</ele>
        <time>2023-09-17T11:27:17.424Z</time>
      </trkpt>
      <trkpt lat="43.75346" lon="1.54691">
        <ele>176.676105</ele>
        <time>2023-09-17T11:27:17.424Z</time>
      </trkpt>
      <trkpt lat="43.75346" lon="1.54691">
        <ele>176.676105</ele>
        <time>2023-09-17T11:27:17.424Z</time>
      </trkpt>
      <trkpt lat="43.75342" lon="1.54684">
        <ele>177.085032</ele>
        <time>2023-09-17T11:27:18.424Z</time>
      </trkpt>
      <trkpt lat="43.75342" lon="1.54684">
        <ele>177.085032</ele>
        <time>2023-09-17T11:27:18.424Z</time>
      </trkpt>
      <trkpt lat="43.75341" lon="1.54681">
        <ele>177.226348</ele>
        <time>2023-09-17T11:27:21.424Z</time>
      </trkpt>
      <trkpt lat="43.75341" lon="1.54681">
        <ele>177.226348</ele>
        <time>2023-09-17T11:27:21.424Z</time>
      </trkpt>
      <trkpt lat="43.7534" lon="1.54678">
        <ele>177.394272</ele>
        <time>2023-09-17T11:27:21.424Z</time>
      </trkpt>
      <trkpt lat="43.7534" lon="1.54678">
        <ele>177.394272</ele>
        <time>2023-09-17T11:27:21.424Z</time>
      </trkpt>
      <trkpt lat="43.75337" lon="1.54673">
        <ele>177.733958</ele>
        <time>2023-09-17T11:27:22.424Z</time>
      </trkpt>
      <trkpt lat="43.75337" lon="1.54673">
        <ele>177.733958</ele>
        <time>2023-09-17T11:27:22.424Z</time>
      </trkpt>
      <trkpt lat="43.75335" lon="1.5467">
        <ele>177.891304</ele>
        <time>2023-09-17T11:27:23.424Z</time>
      </trkpt>
      <trkpt lat="43.75335" lon="1.5467">
        <ele>177.891304</ele>
        <time>2023-09-17T11:27:23.424Z</time>
      </trkpt>
      <trkpt lat="43.75334" lon="1.54667">
        <ele>178.029119</ele>
        <time>2023-09-17T11:27:25.424Z</time>
      </trkpt>
      <trkpt lat="43.75334" lon="1.54667">
        <ele>178.029119</ele>
        <time>2023-09-17T11:27:25.424Z</time>
      </trkpt>
      <trkpt lat="43.75332" lon="1.54663">
        <ele>178.250586</ele>
        <time>2023-09-17T11:27:27.424Z</time>
      </trkpt>
      <trkpt lat="43.75332" lon="1.54663">
        <ele>178.250586</ele>
        <time>2023-09-17T11:27:27.424Z</time>
      </trkpt>
      <trkpt lat="43.7533" lon="1.54659">
        <ele>178.483896</ele>
        <time>2023-09-17T11:27:28.424Z</time>
      </trkpt>
      <trkpt lat="43.7533" lon="1.54659">
        <ele>178.483896</ele>
        <time>2023-09-17T11:27:28.424Z</time>
      </trkpt>
      <trkpt lat="43.75328" lon="1.54655">
        <ele>178.739597</ele>
        <time>2023-09-17T11:27:28.424Z</time>
      </trkpt>
      <trkpt lat="43.75328" lon="1.54655">
        <ele>178.739597</ele>
        <time>2023-09-17T11:27:28.424Z</time>
      </trkpt>
      <trkpt lat="43.75326" lon="1.54649">
        <ele>179.02666</ele>
        <time>2023-09-17T11:27:30.424Z</time>
      </trkpt>
      <trkpt lat="43.75326" lon="1.54649">
        <ele>179.02666</ele>
        <time>2023-09-17T11:27:30.424Z</time>
      </trkpt>
      <trkpt lat="43.75324" lon="1.54646">
        <ele>179.249424</ele>
        <time>2023-09-17T11:27:31.424Z</time>
      </trkpt>
      <trkpt lat="43.75324" lon="1.54646">
        <ele>179.249424</ele>
        <time>2023-09-17T11:27:31.424Z</time>
      </trkpt>
      <trkpt lat="43.75319" lon="1.54636">
        <ele>179.819541</ele>
        <time>2023-09-17T11:27:33.424Z</time>
      </trkpt>
      <trkpt lat="43.75319" lon="1.54636">
        <ele>179.819541</ele>
        <time>2023-09-17T11:27:33.424Z</time>
      </trkpt>
      <trkpt lat="43.75317" lon="1.54631">
        <ele>180.056855</ele>
        <time>2023-09-17T11:27:34.424Z</time>
      </trkpt>
      <trkpt lat="43.75316" lon="1.54627">
        <ele>180.264871</ele>
        <time>2023-09-17T11:27:35.424Z</time>
      </trkpt>
      <trkpt lat="43.75316" lon="1.54627">
        <ele>180.264871</ele>
        <time>2023-09-17T11:27:35.424Z</time>
      </trkpt>
      <trkpt lat="43.75311" lon="1.54617">
        <ele>180.834988</ele>
        <time>2023-09-17T11:27:37.424Z</time>
      </trkpt>
      <trkpt lat="43.75311" lon="1.54617">
        <ele>180.834988</ele>
        <time>2023-09-17T11:27:37.424Z</time>
      </trkpt>
      <trkpt lat="43.75309" lon="1.54612">
        <ele>181.116175</ele>
        <time>2023-09-17T11:27:38.424Z</time>
      </trkpt>
      <trkpt lat="43.75309" lon="1.54612">
        <ele>181.116175</ele>
        <time>2023-09-17T11:27:38.424Z</time>
      </trkpt>
      <trkpt lat="43.75308" lon="1.54606">
        <ele>181.417286</ele>
        <time>2023-09-17T11:27:39.424Z</time>
      </trkpt>
      <trkpt lat="43.75306" lon="1.54599">
        <ele>181.734059</ele>
        <time>2023-09-17T11:27:40.424Z</time>
      </trkpt>
      <trkpt lat="43.75304" lon="1.54592">
        <ele>182.090524</ele>
        <time>2023-09-17T11:27:41.424Z</time>
      </trkpt>
      <trkpt lat="43.75303" lon="1.54585">
        <ele>182.438792</ele>
        <time>2023-09-17T11:27:42.424Z</time>
      </trkpt>
      <trkpt lat="43.75302" lon="1.54577">
        <ele>182.823462</ele>
        <time>2023-09-17T11:27:43.424Z</time>
      </trkpt>
      <trkpt lat="43.753" lon="1.54569">
        <ele>183.203473</ele>
        <time>2023-09-17T11:27:44.424Z</time>
      </trkpt>
      <trkpt lat="43.75299" lon="1.54562">
        <ele>183.563774</ele>
        <time>2023-09-17T11:27:45.424Z</time>
      </trkpt>
      <trkpt lat="43.75298" lon="1.54554">
        <ele>183.916042</ele>
        <time>2023-09-17T11:27:46.424Z</time>
      </trkpt>
      <trkpt lat="43.75297" lon="1.54547">
        <ele>184.285575</ele>
        <time>2023-09-17T11:27:47.424Z</time>
      </trkpt>
      <trkpt lat="43.75296" lon="1.54539">
        <ele>184.165435</ele>
        <time>2023-09-17T11:27:48.424Z</time>
      </trkpt>
      <trkpt lat="43.75296" lon="1.54531">
        <ele>183.983867</ele>
        <time>2023-09-17T11:27:48.424Z</time>
      </trkpt>
      <trkpt lat="43.75295" lon="1.54522">
        <ele>183.785304</ele>
        <time>2023-09-17T11:27:49.424Z</time>
      </trkpt>
      <trkpt lat="43.75295" lon="1.54522">
        <ele>183.785304</ele>
        <time>2023-09-17T11:27:49.424Z</time>
      </trkpt>
      <trkpt lat="43.75294" lon="1.54514">
        <ele>183.585906</ele>
        <time>2023-09-17T11:27:50.424Z</time>
      </trkpt>
      <trkpt lat="43.75293" lon="1.54505">
        <ele>183.387343</ele>
        <time>2023-09-17T11:27:51.424Z</time>
      </trkpt>
      <trkpt lat="43.75293" lon="1.54505">
        <ele>183.387343</ele>
        <time>2023-09-17T11:27:51.424Z</time>
      </trkpt>
      <trkpt lat="43.75291" lon="1.54496">
        <ele>183.177168</ele>
        <time>2023-09-17T11:27:52.424Z</time>
      </trkpt>
      <trkpt lat="43.7529" lon="1.54487">
        <ele>182.97639</ele>
        <time>2023-09-17T11:27:54.424Z</time>
      </trkpt>
      <trkpt lat="43.7529" lon="1.54487">
        <ele>182.97639</ele>
        <time>2023-09-17T11:27:54.424Z</time>
      </trkpt>
      <trkpt lat="43.7529" lon="1.54478">
        <ele>182.772529</ele>
        <time>2023-09-17T11:27:55.424Z</time>
      </trkpt>
      <trkpt lat="43.75289" lon="1.54468">
        <ele>182.553373</ele>
        <time>2023-09-17T11:27:56.424Z</time>
      </trkpt>
      <trkpt lat="43.75289" lon="1.54468">
        <ele>182.553373</ele>
        <time>2023-09-17T11:27:56.424Z</time>
      </trkpt>
      <trkpt lat="43.75289" lon="1.54459">
        <ele>182.339798</ele>
        <time>2023-09-17T11:27:56.424Z</time>
      </trkpt>
      <trkpt lat="43.7529" lon="1.54449">
        <ele>182.125716</ele>
        <time>2023-09-17T11:27:57.424Z</time>
      </trkpt>
      <trkpt lat="43.7529" lon="1.54449">
        <ele>182.125716</ele>
        <time>2023-09-17T11:27:57.424Z</time>
      </trkpt>
      <trkpt lat="43.75293" lon="1.5444">
        <ele>181.9087</ele>
        <time>2023-09-17T11:27:59.424Z</time>
      </trkpt>
      <trkpt lat="43.75293" lon="1.5444">
        <ele>181.9087</ele>
        <time>2023-09-17T11:27:59.424Z</time>
      </trkpt>
      <trkpt lat="43.75296" lon="1.54431">
        <ele>181.687901</ele>
        <time>2023-09-17T11:28:00.424Z</time>
      </trkpt>
      <trkpt lat="43.75296" lon="1.54431">
        <ele>181.687901</ele>
        <time>2023-09-17T11:28:00.424Z</time>
      </trkpt>
      <trkpt lat="43.75299" lon="1.54423">
        <ele>181.47983</ele>
        <time>2023-09-17T11:28:01.424Z</time>
      </trkpt>
      <trkpt lat="43.75299" lon="1.54423">
        <ele>181.47983</ele>
        <time>2023-09-17T11:28:01.424Z</time>
      </trkpt>
      <trkpt lat="43.75302" lon="1.54415">
        <ele>181.257449</ele>
        <time>2023-09-17T11:28:02.424Z</time>
      </trkpt>
      <trkpt lat="43.75302" lon="1.54415">
        <ele>181.257449</ele>
        <time>2023-09-17T11:28:02.424Z</time>
      </trkpt>
      <trkpt lat="43.75306" lon="1.54406">
        <ele>181.036528</ele>
        <time>2023-09-17T11:28:02.424Z</time>
      </trkpt>
      <trkpt lat="43.75306" lon="1.54406">
        <ele>181.036528</ele>
        <time>2023-09-17T11:28:02.424Z</time>
      </trkpt>
      <trkpt lat="43.7531" lon="1.54398">
        <ele>180.808243</ele>
        <time>2023-09-17T11:28:04.424Z</time>
      </trkpt>
      <trkpt lat="43.7531" lon="1.54398">
        <ele>180.808243</ele>
        <time>2023-09-17T11:28:04.424Z</time>
      </trkpt>
      <trkpt lat="43.75314" lon="1.54389">
        <ele>180.581597</ele>
        <time>2023-09-17T11:28:05.424Z</time>
      </trkpt>
      <trkpt lat="43.75314" lon="1.54389">
        <ele>180.581597</ele>
        <time>2023-09-17T11:28:05.424Z</time>
      </trkpt>
      <trkpt lat="43.75317" lon="1.5438">
        <ele>180.354951</ele>
        <time>2023-09-17T11:28:06.424Z</time>
      </trkpt>
      <trkpt lat="43.75317" lon="1.5438">
        <ele>180.354951</ele>
        <time>2023-09-17T11:28:06.424Z</time>
      </trkpt>
      <trkpt lat="43.75321" lon="1.54372">
        <ele>180.128305</ele>
        <time>2023-09-17T11:28:07.424Z</time>
      </trkpt>
      <trkpt lat="43.75321" lon="1.54372">
        <ele>180.128305</ele>
        <time>2023-09-17T11:28:07.424Z</time>
      </trkpt>
      <trkpt lat="43.75324" lon="1.54364">
        <ele>179.918241</ele>
        <time>2023-09-17T11:28:08.424Z</time>
      </trkpt>
      <trkpt lat="43.75324" lon="1.54364">
        <ele>179.918241</ele>
        <time>2023-09-17T11:28:08.424Z</time>
      </trkpt>
      <trkpt lat="43.75327" lon="1.54356">
        <ele>179.727467</ele>
        <time>2023-09-17T11:28:09.424Z</time>
      </trkpt>
      <trkpt lat="43.75327" lon="1.54356">
        <ele>179.727467</ele>
        <time>2023-09-17T11:28:09.424Z</time>
      </trkpt>
      <trkpt lat="43.7533" lon="1.5435">
        <ele>179.556946</ele>
        <time>2023-09-17T11:28:10.424Z</time>
      </trkpt>
      <trkpt lat="43.7533" lon="1.5435">
        <ele>179.556946</ele>
        <time>2023-09-17T11:28:10.424Z</time>
      </trkpt>
      <trkpt lat="43.75333" lon="1.54343">
        <ele>179.377813</ele>
        <time>2023-09-17T11:28:11.424Z</time>
      </trkpt>
      <trkpt lat="43.75333" lon="1.54343">
        <ele>179.377813</ele>
        <time>2023-09-17T11:28:11.424Z</time>
      </trkpt>
      <trkpt lat="43.75337" lon="1.54336">
        <ele>179.184567</ele>
        <time>2023-09-17T11:28:12.424Z</time>
      </trkpt>
      <trkpt lat="43.75337" lon="1.54336">
        <ele>179.184567</ele>
        <time>2023-09-17T11:28:12.424Z</time>
      </trkpt>
      <trkpt lat="43.7534" lon="1.54328">
        <ele>178.989294</ele>
        <time>2023-09-17T11:28:13.424Z</time>
      </trkpt>
      <trkpt lat="43.7534" lon="1.54328">
        <ele>178.989294</ele>
        <time>2023-09-17T11:28:13.424Z</time>
      </trkpt>
      <trkpt lat="43.75343" lon="1.54321">
        <ele>178.792611</ele>
        <time>2023-09-17T11:28:14.424Z</time>
      </trkpt>
      <trkpt lat="43.75343" lon="1.54321">
        <ele>178.792611</ele>
        <time>2023-09-17T11:28:14.424Z</time>
      </trkpt>
      <trkpt lat="43.75346" lon="1.54312">
        <ele>178.520504</ele>
        <time>2023-09-17T11:28:15.424Z</time>
      </trkpt>
      <trkpt lat="43.75346" lon="1.54312">
        <ele>178.520504</ele>
        <time>2023-09-17T11:28:15.424Z</time>
      </trkpt>
      <trkpt lat="43.75348" lon="1.54304">
        <ele>178.221462</ele>
        <time>2023-09-17T11:28:16.424Z</time>
      </trkpt>
      <trkpt lat="43.75348" lon="1.54304">
        <ele>178.221462</ele>
        <time>2023-09-17T11:28:16.424Z</time>
      </trkpt>
      <trkpt lat="43.7535" lon="1.54296">
        <ele>177.909171</ele>
        <time>2023-09-17T11:28:17.424Z</time>
      </trkpt>
      <trkpt lat="43.7535" lon="1.54296">
        <ele>177.909171</ele>
        <time>2023-09-17T11:28:17.424Z</time>
      </trkpt>
      <trkpt lat="43.75352" lon="1.54285">
        <ele>177.53058</ele>
        <time>2023-09-17T11:28:18.424Z</time>
      </trkpt>
      <trkpt lat="43.75352" lon="1.54285">
        <ele>177.53058</ele>
        <time>2023-09-17T11:28:18.424Z</time>
      </trkpt>
      <trkpt lat="43.75353" lon="1.54276">
        <ele>177.203169</ele>
        <time>2023-09-17T11:28:19.424Z</time>
      </trkpt>
      <trkpt lat="43.75353" lon="1.54276">
        <ele>177.203169</ele>
        <time>2023-09-17T11:28:19.424Z</time>
      </trkpt>
      <trkpt lat="43.75354" lon="1.54266">
        <ele>176.877958</ele>
        <time>2023-09-17T11:28:20.424Z</time>
      </trkpt>
      <trkpt lat="43.75354" lon="1.54266">
        <ele>176.877958</ele>
        <time>2023-09-17T11:28:20.424Z</time>
      </trkpt>
      <trkpt lat="43.75353" lon="1.54257">
        <ele>176.56094</ele>
        <time>2023-09-17T11:28:21.424Z</time>
      </trkpt>
      <trkpt lat="43.75353" lon="1.54257">
        <ele>176.56094</ele>
        <time>2023-09-17T11:28:21.424Z</time>
      </trkpt>
      <trkpt lat="43.75349" lon="1.5425">
        <ele>176.256129</ele>
        <time>2023-09-17T11:28:22.424Z</time>
      </trkpt>
      <trkpt lat="43.75349" lon="1.5425">
        <ele>176.256129</ele>
        <time>2023-09-17T11:28:22.424Z</time>
      </trkpt>
      <trkpt lat="43.75344" lon="1.54243">
        <ele>175.915424</ele>
        <time>2023-09-17T11:28:23.424Z</time>
      </trkpt>
      <trkpt lat="43.75344" lon="1.54243">
        <ele>175.915424</ele>
        <time>2023-09-17T11:28:23.424Z</time>
      </trkpt>
      <trkpt lat="43.75338" lon="1.54236">
        <ele>175.546063</ele>
        <time>2023-09-17T11:28:24.424Z</time>
      </trkpt>
      <trkpt lat="43.75338" lon="1.54236">
        <ele>175.546063</ele>
        <time>2023-09-17T11:28:24.424Z</time>
      </trkpt>
      <trkpt lat="43.75332" lon="1.54229">
        <ele>175.164754</ele>
        <time>2023-09-17T11:28:25.424Z</time>
      </trkpt>
      <trkpt lat="43.75332" lon="1.54229">
        <ele>175.164754</ele>
        <time>2023-09-17T11:28:25.424Z</time>
      </trkpt>
      <trkpt lat="43.75326" lon="1.54222">
        <ele>174.795393</ele>
        <time>2023-09-17T11:28:26.424Z</time>
      </trkpt>
      <trkpt lat="43.75326" lon="1.54222">
        <ele>174.795393</ele>
        <time>2023-09-17T11:28:26.424Z</time>
      </trkpt>
      <trkpt lat="43.75321" lon="1.54213">
        <ele>174.416661</ele>
        <time>2023-09-17T11:28:27.424Z</time>
      </trkpt>
      <trkpt lat="43.75321" lon="1.54213">
        <ele>174.416661</ele>
        <time>2023-09-17T11:28:27.424Z</time>
      </trkpt>
      <trkpt lat="43.75316" lon="1.54205">
        <ele>174.057204</ele>
        <time>2023-09-17T11:28:28.424Z</time>
      </trkpt>
      <trkpt lat="43.75316" lon="1.54205">
        <ele>174.057204</ele>
        <time>2023-09-17T11:28:28.424Z</time>
      </trkpt>
      <trkpt lat="43.75312" lon="1.54198">
        <ele>173.74524</ele>
        <time>2023-09-17T11:28:29.424Z</time>
      </trkpt>
      <trkpt lat="43.75312" lon="1.54198">
        <ele>173.74524</ele>
        <time>2023-09-17T11:28:29.424Z</time>
      </trkpt>
      <trkpt lat="43.75308" lon="1.54187">
        <ele>173.312831</ele>
        <time>2023-09-17T11:28:30.424Z</time>
      </trkpt>
      <trkpt lat="43.75308" lon="1.54187">
        <ele>173.312831</ele>
        <time>2023-09-17T11:28:30.424Z</time>
      </trkpt>
      <trkpt lat="43.75304" lon="1.54178">
        <ele>172.967661</ele>
        <time>2023-09-17T11:28:31.424Z</time>
      </trkpt>
      <trkpt lat="43.75304" lon="1.54178">
        <ele>172.967661</ele>
        <time>2023-09-17T11:28:31.424Z</time>
      </trkpt>
      <trkpt lat="43.75301" lon="1.54169">
        <ele>172.612581</ele>
        <time>2023-09-17T11:28:32.424Z</time>
      </trkpt>
      <trkpt lat="43.75301" lon="1.54169">
        <ele>172.612581</ele>
        <time>2023-09-17T11:28:32.424Z</time>
      </trkpt>
      <trkpt lat="43.75297" lon="1.5416">
        <ele>172.248295</ele>
        <time>2023-09-17T11:28:33.424Z</time>
      </trkpt>
      <trkpt lat="43.75297" lon="1.5416">
        <ele>172.248295</ele>
        <time>2023-09-17T11:28:33.424Z</time>
      </trkpt>
      <trkpt lat="43.75294" lon="1.5415">
        <ele>171.883842</ele>
        <time>2023-09-17T11:28:34.424Z</time>
      </trkpt>
      <trkpt lat="43.75294" lon="1.5415">
        <ele>171.883842</ele>
        <time>2023-09-17T11:28:34.424Z</time>
      </trkpt>
      <trkpt lat="43.75291" lon="1.5414">
        <ele>171.527595</ele>
        <time>2023-09-17T11:28:35.424Z</time>
      </trkpt>
      <trkpt lat="43.75291" lon="1.5414">
        <ele>171.527595</ele>
        <time>2023-09-17T11:28:35.424Z</time>
      </trkpt>
      <trkpt lat="43.75288" lon="1.54131">
        <ele>171.17362</ele>
        <time>2023-09-17T11:28:36.424Z</time>
      </trkpt>
      <trkpt lat="43.75288" lon="1.54131">
        <ele>171.17362</ele>
        <time>2023-09-17T11:28:36.424Z</time>
      </trkpt>
      <trkpt lat="43.75287" lon="1.54121">
        <ele>170.834922</ele>
        <time>2023-09-17T11:28:37.424Z</time>
      </trkpt>
      <trkpt lat="43.75287" lon="1.54121">
        <ele>170.834922</ele>
        <time>2023-09-17T11:28:37.424Z</time>
      </trkpt>
      <trkpt lat="43.75285" lon="1.54112">
        <ele>170.51756</ele>
        <time>2023-09-17T11:28:38.424Z</time>
      </trkpt>
      <trkpt lat="43.75285" lon="1.54112">
        <ele>170.51756</ele>
        <time>2023-09-17T11:28:38.424Z</time>
      </trkpt>
      <trkpt lat="43.75284" lon="1.54103">
        <ele>170.185519</ele>
        <time>2023-09-17T11:28:39.424Z</time>
      </trkpt>
      <trkpt lat="43.75285" lon="1.54094">
        <ele>170.461208</ele>
        <time>2023-09-17T11:28:40.424Z</time>
      </trkpt>
      <trkpt lat="43.75286" lon="1.54086">
        <ele>170.760069</ele>
        <time>2023-09-17T11:28:41.424Z</time>
      </trkpt>
      <trkpt lat="43.75287" lon="1.54078">
        <ele>171.049347</ele>
        <time>2023-09-17T11:28:42.424Z</time>
      </trkpt>
      <trkpt lat="43.75288" lon="1.5407">
        <ele>171.323584</ele>
        <time>2023-09-17T11:28:43.424Z</time>
      </trkpt>
      <trkpt lat="43.75289" lon="1.54063">
        <ele>171.584621</ele>
        <time>2023-09-17T11:28:44.424Z</time>
      </trkpt>
      <trkpt lat="43.7529" lon="1.54055">
        <ele>171.873386</ele>
        <time>2023-09-17T11:28:45.424Z</time>
      </trkpt>
      <trkpt lat="43.7529" lon="1.54055">
        <ele>171.873386</ele>
        <time>2023-09-17T11:28:45.424Z</time>
      </trkpt>
      <trkpt lat="43.7529" lon="1.54049">
        <ele>172.103579</ele>
        <time>2023-09-17T11:28:46.424Z</time>
      </trkpt>
      <trkpt lat="43.7529" lon="1.54042">
        <ele>172.340912</ele>
        <time>2023-09-17T11:28:47.424Z</time>
      </trkpt>
      <trkpt lat="43.7529" lon="1.54036">
        <ele>172.549693</ele>
        <time>2023-09-17T11:28:48.424Z</time>
      </trkpt>
      <trkpt lat="43.7529" lon="1.54036">
        <ele>172.549693</ele>
        <time>2023-09-17T11:28:48.424Z</time>
      </trkpt>
      <trkpt lat="43.75289" lon="1.5403">
        <ele>172.763945</ele>
        <time>2023-09-17T11:28:48.424Z</time>
      </trkpt>
      <trkpt lat="43.75289" lon="1.5403">
        <ele>172.763945</ele>
        <time>2023-09-17T11:28:48.424Z</time>
      </trkpt>
      <trkpt lat="43.75289" lon="1.54025">
        <ele>172.965592</ele>
        <time>2023-09-17T11:28:50.424Z</time>
      </trkpt>
      <trkpt lat="43.75288" lon="1.54019">
        <ele>173.170806</ele>
        <time>2023-09-17T11:28:51.424Z</time>
      </trkpt>
      <trkpt lat="43.75288" lon="1.54019">
        <ele>173.170806</ele>
        <time>2023-09-17T11:28:51.424Z</time>
      </trkpt>
      <trkpt lat="43.75288" lon="1.54014">
        <ele>173.371848</ele>
        <time>2023-09-17T11:28:52.424Z</time>
      </trkpt>
      <trkpt lat="43.75288" lon="1.54014">
        <ele>173.371848</ele>
        <time>2023-09-17T11:28:52.424Z</time>
      </trkpt>
      <trkpt lat="43.75287" lon="1.54008">
        <ele>173.575499</ele>
        <time>2023-09-17T11:28:53.424Z</time>
      </trkpt>
      <trkpt lat="43.75287" lon="1.54008">
        <ele>173.575499</ele>
        <time>2023-09-17T11:28:53.424Z</time>
      </trkpt>
      <trkpt lat="43.75286" lon="1.54003">
        <ele>173.766014</ele>
        <time>2023-09-17T11:28:54.424Z</time>
      </trkpt>
      <trkpt lat="43.75286" lon="1.54003">
        <ele>173.766014</ele>
        <time>2023-09-17T11:28:54.424Z</time>
      </trkpt>
      <trkpt lat="43.75285" lon="1.53999">
        <ele>173.894149</ele>
        <time>2023-09-17T11:28:55.424Z</time>
      </trkpt>
      <trkpt lat="43.75285" lon="1.53999">
        <ele>173.894149</ele>
        <time>2023-09-17T11:28:55.424Z</time>
      </trkpt>
      <trkpt lat="43.75284" lon="1.53993">
        <ele>174.128449</ele>
        <time>2023-09-17T11:28:57.424Z</time>
      </trkpt>
      <trkpt lat="43.75284" lon="1.53993">
        <ele>174.128449</ele>
        <time>2023-09-17T11:28:57.424Z</time>
      </trkpt>
      <trkpt lat="43.75281" lon="1.53983">
        <ele>174.504297</ele>
        <time>2023-09-17T11:28:58.424Z</time>
      </trkpt>
      <trkpt lat="43.75281" lon="1.53983">
        <ele>174.504297</ele>
        <time>2023-09-17T11:28:58.424Z</time>
      </trkpt>
      <trkpt lat="43.7528" lon="1.53979">
        <ele>174.664387</ele>
        <time>2023-09-17T11:28:59.424Z</time>
      </trkpt>
      <trkpt lat="43.7528" lon="1.53979">
        <ele>174.664387</ele>
        <time>2023-09-17T11:28:59.424Z</time>
      </trkpt>
      <trkpt lat="43.75279" lon="1.53974">
        <ele>174.865031</ele>
        <time>2023-09-17T11:29:00.424Z</time>
      </trkpt>
      <trkpt lat="43.75279" lon="1.53974">
        <ele>174.865031</ele>
        <time>2023-09-17T11:29:00.424Z</time>
      </trkpt>
      <trkpt lat="43.75276" lon="1.53969">
        <ele>175.083525</ele>
        <time>2023-09-17T11:29:02.424Z</time>
      </trkpt>
      <trkpt lat="43.75276" lon="1.53969">
        <ele>175.083525</ele>
        <time>2023-09-17T11:29:02.424Z</time>
      </trkpt>
      <trkpt lat="43.75272" lon="1.53959">
        <ele>175.505338</ele>
        <time>2023-09-17T11:29:03.424Z</time>
      </trkpt>
      <trkpt lat="43.75272" lon="1.53959">
        <ele>175.505338</ele>
        <time>2023-09-17T11:29:03.424Z</time>
      </trkpt>
      <trkpt lat="43.7527" lon="1.53955">
        <ele>175.665105</ele>
        <time>2023-09-17T11:29:04.424Z</time>
      </trkpt>
      <trkpt lat="43.7527" lon="1.53955">
        <ele>175.665105</ele>
        <time>2023-09-17T11:29:04.424Z</time>
      </trkpt>
      <trkpt lat="43.75267" lon="1.53951">
        <ele>175.865579</ele>
        <time>2023-09-17T11:29:06.424Z</time>
      </trkpt>
      <trkpt lat="43.75267" lon="1.53951">
        <ele>175.865579</ele>
        <time>2023-09-17T11:29:06.424Z</time>
      </trkpt>
      <trkpt lat="43.75265" lon="1.53945">
        <ele>176.100917</ele>
        <time>2023-09-17T11:29:07.424Z</time>
      </trkpt>
      <trkpt lat="43.75265" lon="1.53945">
        <ele>176.100917</ele>
        <time>2023-09-17T11:29:07.424Z</time>
      </trkpt>
      <trkpt lat="43.75263" lon="1.5394">
        <ele>176.307658</ele>
        <time>2023-09-17T11:29:08.424Z</time>
      </trkpt>
      <trkpt lat="43.75263" lon="1.5394">
        <ele>176.307658</ele>
        <time>2023-09-17T11:29:08.424Z</time>
      </trkpt>
      <trkpt lat="43.75259" lon="1.53935">
        <ele>176.552034</ele>
        <time>2023-09-17T11:29:09.424Z</time>
      </trkpt>
      <trkpt lat="43.75259" lon="1.53935">
        <ele>176.552034</ele>
        <time>2023-09-17T11:29:09.424Z</time>
      </trkpt>
      <trkpt lat="43.75256" lon="1.5393">
        <ele>176.787719</ele>
        <time>2023-09-17T11:29:10.424Z</time>
      </trkpt>
      <trkpt lat="43.75256" lon="1.5393">
        <ele>176.787719</ele>
        <time>2023-09-17T11:29:10.424Z</time>
      </trkpt>
      <trkpt lat="43.75254" lon="1.53925">
        <ele>177.003166</ele>
        <time>2023-09-17T11:29:12.424Z</time>
      </trkpt>
      <trkpt lat="43.75254" lon="1.53925">
        <ele>177.003166</ele>
        <time>2023-09-17T11:29:12.424Z</time>
      </trkpt>
      <trkpt lat="43.75252" lon="1.53921">
        <ele>177.174716</ele>
        <time>2023-09-17T11:29:13.424Z</time>
      </trkpt>
      <trkpt lat="43.75252" lon="1.53921">
        <ele>177.174716</ele>
        <time>2023-09-17T11:29:13.424Z</time>
      </trkpt>
      <trkpt lat="43.7525" lon="1.53915">
        <ele>177.421975</ele>
        <time>2023-09-17T11:29:14.424Z</time>
      </trkpt>
      <trkpt lat="43.7525" lon="1.53915">
        <ele>177.421975</ele>
        <time>2023-09-17T11:29:14.424Z</time>
      </trkpt>
      <trkpt lat="43.75247" lon="1.53909">
        <ele>177.672253</ele>
        <time>2023-09-17T11:29:15.424Z</time>
      </trkpt>
      <trkpt lat="43.75247" lon="1.53909">
        <ele>177.672253</ele>
        <time>2023-09-17T11:29:15.424Z</time>
      </trkpt>
      <trkpt lat="43.75245" lon="1.53904">
        <ele>177.87866</ele>
        <time>2023-09-17T11:29:16.424Z</time>
      </trkpt>
      <trkpt lat="43.75245" lon="1.53904">
        <ele>177.87866</ele>
        <time>2023-09-17T11:29:16.424Z</time>
      </trkpt>
      <trkpt lat="43.75242" lon="1.539">
        <ele>178.085067</ele>
        <time>2023-09-17T11:29:18.424Z</time>
      </trkpt>
      <trkpt lat="43.75242" lon="1.539">
        <ele>178.085067</ele>
        <time>2023-09-17T11:29:18.424Z</time>
      </trkpt>
      <trkpt lat="43.7524" lon="1.53895">
        <ele>178.29447</ele>
        <time>2023-09-17T11:29:19.424Z</time>
      </trkpt>
      <trkpt lat="43.7524" lon="1.53895">
        <ele>178.29447</ele>
        <time>2023-09-17T11:29:19.424Z</time>
      </trkpt>
      <trkpt lat="43.75238" lon="1.53891">
        <ele>178.460078</ele>
        <time>2023-09-17T11:29:20.424Z</time>
      </trkpt>
      <trkpt lat="43.75238" lon="1.53891">
        <ele>178.460078</ele>
        <time>2023-09-17T11:29:20.424Z</time>
      </trkpt>
      <trkpt lat="43.75235" lon="1.53885">
        <ele>178.709914</ele>
        <time>2023-09-17T11:29:21.424Z</time>
      </trkpt>
      <trkpt lat="43.75235" lon="1.53885">
        <ele>178.709914</ele>
        <time>2023-09-17T11:29:21.424Z</time>
      </trkpt>
      <trkpt lat="43.75234" lon="1.53883">
        <ele>178.829152</ele>
        <time>2023-09-17T11:29:22.424Z</time>
      </trkpt>
      <trkpt lat="43.75234" lon="1.53883">
        <ele>178.829152</ele>
        <time>2023-09-17T11:29:22.424Z</time>
      </trkpt>
      <trkpt lat="43.75231" lon="1.5388">
        <ele>178.985917</ele>
        <time>2023-09-17T11:29:23.424Z</time>
      </trkpt>
      <trkpt lat="43.75231" lon="1.5388">
        <ele>178.985917</ele>
        <time>2023-09-17T11:29:23.424Z</time>
      </trkpt>
      <trkpt lat="43.75229" lon="1.53876">
        <ele>179.277471</ele>
        <time>2023-09-17T11:29:24.424Z</time>
      </trkpt>
      <trkpt lat="43.75229" lon="1.53876">
        <ele>179.277471</ele>
        <time>2023-09-17T11:29:24.424Z</time>
      </trkpt>
      <trkpt lat="43.75225" lon="1.53873">
        <ele>179.784456</ele>
        <time>2023-09-17T11:29:25.424Z</time>
      </trkpt>
      <trkpt lat="43.75225" lon="1.53873">
        <ele>179.784456</ele>
        <time>2023-09-17T11:29:25.424Z</time>
      </trkpt>
      <trkpt lat="43.75222" lon="1.5387">
        <ele>180.311713</ele>
        <time>2023-09-17T11:29:26.424Z</time>
      </trkpt>
      <trkpt lat="43.75222" lon="1.5387">
        <ele>180.311713</ele>
        <time>2023-09-17T11:29:26.424Z</time>
      </trkpt>
      <trkpt lat="43.75219" lon="1.53867">
        <ele>180.752961</ele>
        <time>2023-09-17T11:29:28.424Z</time>
      </trkpt>
      <trkpt lat="43.75219" lon="1.53867">
        <ele>180.752961</ele>
        <time>2023-09-17T11:29:28.424Z</time>
      </trkpt>
      <trkpt lat="43.75215" lon="1.53864">
        <ele>181.260591</ele>
        <time>2023-09-17T11:29:29.424Z</time>
      </trkpt>
      <trkpt lat="43.75215" lon="1.53864">
        <ele>181.260591</ele>
        <time>2023-09-17T11:29:29.424Z</time>
      </trkpt>
      <trkpt lat="43.75211" lon="1.53862">
        <ele>181.783294</ele>
        <time>2023-09-17T11:29:29.424Z</time>
      </trkpt>
      <trkpt lat="43.75211" lon="1.53862">
        <ele>181.783294</ele>
        <time>2023-09-17T11:29:29.424Z</time>
      </trkpt>
      <trkpt lat="43.75208" lon="1.53859">
        <ele>182.206178</ele>
        <time>2023-09-17T11:29:31.424Z</time>
      </trkpt>
      <trkpt lat="43.75208" lon="1.53859">
        <ele>182.206178</ele>
        <time>2023-09-17T11:29:31.424Z</time>
      </trkpt>
      <trkpt lat="43.75206" lon="1.53858">
        <ele>182.564936</ele>
        <time>2023-09-17T11:29:31.424Z</time>
      </trkpt>
      <trkpt lat="43.75206" lon="1.53858">
        <ele>182.564936</ele>
        <time>2023-09-17T11:29:31.424Z</time>
      </trkpt>
      <trkpt lat="43.75202" lon="1.53855">
        <ele>183.100015</ele>
        <time>2023-09-17T11:29:33.424Z</time>
      </trkpt>
      <trkpt lat="43.75202" lon="1.53855">
        <ele>183.100015</ele>
        <time>2023-09-17T11:29:33.424Z</time>
      </trkpt>
      <trkpt lat="43.75199" lon="1.53853">
        <ele>183.518079</ele>
        <time>2023-09-17T11:29:34.424Z</time>
      </trkpt>
      <trkpt lat="43.75199" lon="1.53853">
        <ele>183.518079</ele>
        <time>2023-09-17T11:29:34.424Z</time>
      </trkpt>
      <trkpt lat="43.75196" lon="1.53851">
        <ele>183.884867</ele>
        <time>2023-09-17T11:29:35.424Z</time>
      </trkpt>
      <trkpt lat="43.75196" lon="1.53851">
        <ele>183.884867</ele>
        <time>2023-09-17T11:29:35.424Z</time>
      </trkpt>
      <trkpt lat="43.75193" lon="1.53849">
        <ele>184.314444</ele>
        <time>2023-09-17T11:29:37.424Z</time>
      </trkpt>
      <trkpt lat="43.75193" lon="1.53849">
        <ele>184.314444</ele>
        <time>2023-09-17T11:29:37.424Z</time>
      </trkpt>
      <trkpt lat="43.75189" lon="1.53846">
        <ele>184.837147</ele>
        <time>2023-09-17T11:29:37.424Z</time>
      </trkpt>
      <trkpt lat="43.75189" lon="1.53846">
        <ele>184.837147</ele>
        <time>2023-09-17T11:29:37.424Z</time>
      </trkpt>
      <trkpt lat="43.75186" lon="1.53844">
        <ele>185.311886</ele>
        <time>2023-09-17T11:29:39.424Z</time>
      </trkpt>
      <trkpt lat="43.75186" lon="1.53844">
        <ele>185.311886</ele>
        <time>2023-09-17T11:29:39.424Z</time>
      </trkpt>
      <trkpt lat="43.75183" lon="1.53842">
        <ele>185.68143</ele>
        <time>2023-09-17T11:29:39.424Z</time>
      </trkpt>
      <trkpt lat="43.75183" lon="1.53842">
        <ele>185.68143</ele>
        <time>2023-09-17T11:29:39.424Z</time>
      </trkpt>
      <trkpt lat="43.7518" lon="1.53839">
        <ele>186.183463</ele>
        <time>2023-09-17T11:29:41.424Z</time>
      </trkpt>
      <trkpt lat="43.7518" lon="1.53839">
        <ele>186.183463</ele>
        <time>2023-09-17T11:29:41.424Z</time>
      </trkpt>
      <trkpt lat="43.75177" lon="1.53836">
        <ele>186.644833</ele>
        <time>2023-09-17T11:29:41.424Z</time>
      </trkpt>
      <trkpt lat="43.75177" lon="1.53836">
        <ele>186.644833</ele>
        <time>2023-09-17T11:29:41.424Z</time>
      </trkpt>
      <trkpt lat="43.75174" lon="1.53833">
        <ele>187.10647</ele>
        <time>2023-09-17T11:29:43.424Z</time>
      </trkpt>
      <trkpt lat="43.75174" lon="1.53833">
        <ele>187.10647</ele>
        <time>2023-09-17T11:29:43.424Z</time>
      </trkpt>
      <trkpt lat="43.75167" lon="1.53827">
        <ele>188.055292</ele>
        <time>2023-09-17T11:29:45.424Z</time>
      </trkpt>
      <trkpt lat="43.75167" lon="1.53827">
        <ele>188.055292</ele>
        <time>2023-09-17T11:29:45.424Z</time>
      </trkpt>
      <trkpt lat="43.75164" lon="1.53825">
        <ele>188.441631</ele>
        <time>2023-09-17T11:29:46.424Z</time>
      </trkpt>
      <trkpt lat="43.75164" lon="1.53825">
        <ele>188.441631</ele>
        <time>2023-09-17T11:29:46.424Z</time>
      </trkpt>
      <trkpt lat="43.75162" lon="1.53822">
        <ele>188.8078</ele>
        <time>2023-09-17T11:29:47.424Z</time>
      </trkpt>
      <trkpt lat="43.75162" lon="1.53822">
        <ele>188.8078</ele>
        <time>2023-09-17T11:29:47.424Z</time>
      </trkpt>
      <trkpt lat="43.7516" lon="1.5382">
        <ele>189.193155</ele>
        <time>2023-09-17T11:29:49.424Z</time>
      </trkpt>
      <trkpt lat="43.7516" lon="1.5382">
        <ele>189.193155</ele>
        <time>2023-09-17T11:29:49.424Z</time>
      </trkpt>
      <trkpt lat="43.75156" lon="1.53817">
        <ele>189.654526</ele>
        <time>2023-09-17T11:29:50.424Z</time>
      </trkpt>
      <trkpt lat="43.75156" lon="1.53817">
        <ele>189.654526</ele>
        <time>2023-09-17T11:29:50.424Z</time>
      </trkpt>
      <trkpt lat="43.75153" lon="1.53814">
        <ele>190.166574</ele>
        <time>2023-09-17T11:29:51.424Z</time>
      </trkpt>
      <trkpt lat="43.75153" lon="1.53814">
        <ele>190.166574</ele>
        <time>2023-09-17T11:29:51.424Z</time>
      </trkpt>
      <trkpt lat="43.7515" lon="1.53811">
        <ele>190.623018</ele>
        <time>2023-09-17T11:29:52.424Z</time>
      </trkpt>
      <trkpt lat="43.7515" lon="1.53811">
        <ele>190.623018</ele>
        <time>2023-09-17T11:29:52.424Z</time>
      </trkpt>
      <trkpt lat="43.75148" lon="1.53808">
        <ele>190.989187</ele>
        <time>2023-09-17T11:29:53.424Z</time>
      </trkpt>
      <trkpt lat="43.75148" lon="1.53808">
        <ele>190.989187</ele>
        <time>2023-09-17T11:29:53.424Z</time>
      </trkpt>
      <trkpt lat="43.75144" lon="1.53804">
        <ele>191.567249</ele>
        <time>2023-09-17T11:29:54.424Z</time>
      </trkpt>
      <trkpt lat="43.75144" lon="1.53804">
        <ele>191.567249</ele>
        <time>2023-09-17T11:29:54.424Z</time>
      </trkpt>
      <trkpt lat="43.7514" lon="1.53801">
        <ele>192.069282</ele>
        <time>2023-09-17T11:29:55.424Z</time>
      </trkpt>
      <trkpt lat="43.7514" lon="1.53801">
        <ele>192.069282</ele>
        <time>2023-09-17T11:29:55.424Z</time>
      </trkpt>
      <trkpt lat="43.75138" lon="1.53799">
        <ele>192.474859</ele>
        <time>2023-09-17T11:29:57.424Z</time>
      </trkpt>
      <trkpt lat="43.75138" lon="1.53799">
        <ele>192.474859</ele>
        <time>2023-09-17T11:29:57.424Z</time>
      </trkpt>
      <trkpt lat="43.75134" lon="1.53795">
        <ele>192.986908</ele>
        <time>2023-09-17T11:29:58.424Z</time>
      </trkpt>
      <trkpt lat="43.75134" lon="1.53795">
        <ele>192.986908</ele>
        <time>2023-09-17T11:29:58.424Z</time>
      </trkpt>
      <trkpt lat="43.75132" lon="1.53793">
        <ele>193.402916</ele>
        <time>2023-09-17T11:29:59.424Z</time>
      </trkpt>
      <trkpt lat="43.75132" lon="1.53793">
        <ele>193.402916</ele>
        <time>2023-09-17T11:29:59.424Z</time>
      </trkpt>
      <trkpt lat="43.75129" lon="1.53789">
        <ele>193.88671</ele>
        <time>2023-09-17T11:30:00.424Z</time>
      </trkpt>
      <trkpt lat="43.75129" lon="1.53789">
        <ele>193.88671</ele>
        <time>2023-09-17T11:30:00.424Z</time>
      </trkpt>
      <trkpt lat="43.75126" lon="1.53785">
        <ele>194.403255</ele>
        <time>2023-09-17T11:30:01.424Z</time>
      </trkpt>
      <trkpt lat="43.75126" lon="1.53785">
        <ele>194.403255</ele>
        <time>2023-09-17T11:30:01.424Z</time>
      </trkpt>
      <trkpt lat="43.75123" lon="1.53783">
        <ele>194.775122</ele>
        <time>2023-09-17T11:30:02.424Z</time>
      </trkpt>
      <trkpt lat="43.75123" lon="1.53783">
        <ele>194.775122</ele>
        <time>2023-09-17T11:30:02.424Z</time>
      </trkpt>
      <trkpt lat="43.7512" lon="1.53778">
        <ele>195.327167</ele>
        <time>2023-09-17T11:30:03.424Z</time>
      </trkpt>
      <trkpt lat="43.7512" lon="1.53778">
        <ele>195.327167</ele>
        <time>2023-09-17T11:30:03.424Z</time>
      </trkpt>
      <trkpt lat="43.75118" lon="1.53775">
        <ele>195.723013</ele>
        <time>2023-09-17T11:30:04.424Z</time>
      </trkpt>
      <trkpt lat="43.75118" lon="1.53775">
        <ele>195.723013</ele>
        <time>2023-09-17T11:30:04.424Z</time>
      </trkpt>
      <trkpt lat="43.75115" lon="1.53771">
        <ele>196.191499</ele>
        <time>2023-09-17T11:30:06.424Z</time>
      </trkpt>
      <trkpt lat="43.75115" lon="1.53771">
        <ele>196.191499</ele>
        <time>2023-09-17T11:30:06.424Z</time>
      </trkpt>
      <trkpt lat="43.75112" lon="1.53766">
        <ele>196.784004</ele>
        <time>2023-09-17T11:30:07.424Z</time>
      </trkpt>
      <trkpt lat="43.75112" lon="1.53766">
        <ele>196.784004</ele>
        <time>2023-09-17T11:30:07.424Z</time>
      </trkpt>
      <trkpt lat="43.7511" lon="1.53764">
        <ele>197.113448</ele>
        <time>2023-09-17T11:30:07.424Z</time>
      </trkpt>
      <trkpt lat="43.7511" lon="1.53764">
        <ele>197.113448</ele>
        <time>2023-09-17T11:30:07.424Z</time>
      </trkpt>
      <trkpt lat="43.75108" lon="1.53761">
        <ele>197.509294</ele>
        <time>2023-09-17T11:30:08.424Z</time>
      </trkpt>
      <trkpt lat="43.75108" lon="1.53761">
        <ele>197.509294</ele>
        <time>2023-09-17T11:30:08.424Z</time>
      </trkpt>
      <trkpt lat="43.75105" lon="1.53757">
        <ele>198.002582</ele>
        <time>2023-09-17T11:30:10.424Z</time>
      </trkpt>
      <trkpt lat="43.75105" lon="1.53757">
        <ele>198.002582</ele>
        <time>2023-09-17T11:30:10.424Z</time>
      </trkpt>
      <trkpt lat="43.75102" lon="1.53754">
        <ele>198.419964</ele>
        <time>2023-09-17T11:30:11.424Z</time>
      </trkpt>
      <trkpt lat="43.75102" lon="1.53754">
        <ele>198.419964</ele>
        <time>2023-09-17T11:30:11.424Z</time>
      </trkpt>
      <trkpt lat="43.75098" lon="1.53751">
        <ele>198.963015</ele>
        <time>2023-09-17T11:30:12.424Z</time>
      </trkpt>
      <trkpt lat="43.75098" lon="1.53751">
        <ele>198.963015</ele>
        <time>2023-09-17T11:30:12.424Z</time>
      </trkpt>
      <trkpt lat="43.75096" lon="1.53748">
        <ele>199.346646</ele>
        <time>2023-09-17T11:30:14.424Z</time>
      </trkpt>
      <trkpt lat="43.75096" lon="1.53748">
        <ele>199.346646</ele>
        <time>2023-09-17T11:30:14.424Z</time>
      </trkpt>
      <trkpt lat="43.75093" lon="1.53744">
        <ele>199.836229</ele>
        <time>2023-09-17T11:30:15.424Z</time>
      </trkpt>
      <trkpt lat="43.75093" lon="1.53744">
        <ele>199.836229</ele>
        <time>2023-09-17T11:30:15.424Z</time>
      </trkpt>
      <trkpt lat="43.7509" lon="1.5374">
        <ele>200.346827</ele>
        <time>2023-09-17T11:30:15.424Z</time>
      </trkpt>
      <trkpt lat="43.7509" lon="1.5374">
        <ele>200.346827</ele>
        <time>2023-09-17T11:30:15.424Z</time>
      </trkpt>
      <trkpt lat="43.75087" lon="1.53737">
        <ele>200.781803</ele>
        <time>2023-09-17T11:30:17.424Z</time>
      </trkpt>
      <trkpt lat="43.75087" lon="1.53737">
        <ele>200.781803</ele>
        <time>2023-09-17T11:30:17.424Z</time>
      </trkpt>
      <trkpt lat="43.75085" lon="1.53734">
        <ele>201.203213</ele>
        <time>2023-09-17T11:30:18.424Z</time>
      </trkpt>
      <trkpt lat="43.75085" lon="1.53734">
        <ele>201.203213</ele>
        <time>2023-09-17T11:30:18.424Z</time>
      </trkpt>
      <trkpt lat="43.75082" lon="1.53731">
        <ele>201.488387</ele>
        <time>2023-09-17T11:30:19.424Z</time>
      </trkpt>
      <trkpt lat="43.75082" lon="1.53731">
        <ele>201.488387</ele>
        <time>2023-09-17T11:30:19.424Z</time>
      </trkpt>
      <trkpt lat="43.75079" lon="1.53727">
        <ele>201.877413</ele>
        <time>2023-09-17T11:30:20.424Z</time>
      </trkpt>
      <trkpt lat="43.75079" lon="1.53727">
        <ele>201.877413</ele>
        <time>2023-09-17T11:30:20.424Z</time>
      </trkpt>
      <trkpt lat="43.75076" lon="1.53723">
        <ele>202.174501</ele>
        <time>2023-09-17T11:30:22.424Z</time>
      </trkpt>
      <trkpt lat="43.75076" lon="1.53723">
        <ele>202.174501</ele>
        <time>2023-09-17T11:30:22.424Z</time>
      </trkpt>
      <trkpt lat="43.75074" lon="1.5372">
        <ele>202.471589</ele>
        <time>2023-09-17T11:30:23.424Z</time>
      </trkpt>
      <trkpt lat="43.75074" lon="1.5372">
        <ele>202.471589</ele>
        <time>2023-09-17T11:30:23.424Z</time>
      </trkpt>
      <trkpt lat="43.75071" lon="1.53717">
        <ele>202.799516</ele>
        <time>2023-09-17T11:30:23.424Z</time>
      </trkpt>
      <trkpt lat="43.75071" lon="1.53717">
        <ele>202.799516</ele>
        <time>2023-09-17T11:30:23.424Z</time>
      </trkpt>
      <trkpt lat="43.75068" lon="1.53713">
        <ele>203.12638</ele>
        <time>2023-09-17T11:30:25.424Z</time>
      </trkpt>
      <trkpt lat="43.75068" lon="1.53713">
        <ele>203.12638</ele>
        <time>2023-09-17T11:30:25.424Z</time>
      </trkpt>
      <trkpt lat="43.75065" lon="1.5371">
        <ele>203.454306</ele>
        <time>2023-09-17T11:30:26.424Z</time>
      </trkpt>
      <trkpt lat="43.75065" lon="1.5371">
        <ele>203.454306</ele>
        <time>2023-09-17T11:30:26.424Z</time>
      </trkpt>
      <trkpt lat="43.75062" lon="1.53707">
        <ele>203.747504</ele>
        <time>2023-09-17T11:30:28.424Z</time>
      </trkpt>
      <trkpt lat="43.75062" lon="1.53707">
        <ele>203.747504</ele>
        <time>2023-09-17T11:30:28.424Z</time>
      </trkpt>
      <trkpt lat="43.75059" lon="1.53703">
        <ele>204.052584</ele>
        <time>2023-09-17T11:30:29.424Z</time>
      </trkpt>
      <trkpt lat="43.75059" lon="1.53703">
        <ele>204.052584</ele>
        <time>2023-09-17T11:30:29.424Z</time>
      </trkpt>
      <trkpt lat="43.75056" lon="1.537">
        <ele>204.384434</ele>
        <time>2023-09-17T11:30:30.424Z</time>
      </trkpt>
      <trkpt lat="43.75056" lon="1.537">
        <ele>204.384434</ele>
        <time>2023-09-17T11:30:30.424Z</time>
      </trkpt>
      <trkpt lat="43.75054" lon="1.53697">
        <ele>204.636495</ele>
        <time>2023-09-17T11:30:31.424Z</time>
      </trkpt>
      <trkpt lat="43.75054" lon="1.53697">
        <ele>204.636495</ele>
        <time>2023-09-17T11:30:31.424Z</time>
      </trkpt>
      <trkpt lat="43.7505" lon="1.53693">
        <ele>205.029669</ele>
        <time>2023-09-17T11:30:32.424Z</time>
      </trkpt>
      <trkpt lat="43.7505" lon="1.53693">
        <ele>205.029669</ele>
        <time>2023-09-17T11:30:32.424Z</time>
      </trkpt>
      <trkpt lat="43.75048" lon="1.53689">
        <ele>205.338844</ele>
        <time>2023-09-17T11:30:33.424Z</time>
      </trkpt>
      <trkpt lat="43.75048" lon="1.53689">
        <ele>205.338844</ele>
        <time>2023-09-17T11:30:33.424Z</time>
      </trkpt>
      <trkpt lat="43.75044" lon="1.53685">
        <ele>205.729985</ele>
        <time>2023-09-17T11:30:35.424Z</time>
      </trkpt>
      <trkpt lat="43.75044" lon="1.53685">
        <ele>205.729985</ele>
        <time>2023-09-17T11:30:35.424Z</time>
      </trkpt>
      <trkpt lat="43.75041" lon="1.53682">
        <ele>206.050263</ele>
        <time>2023-09-17T11:30:36.424Z</time>
      </trkpt>
      <trkpt lat="43.75041" lon="1.53682">
        <ele>206.050263</ele>
        <time>2023-09-17T11:30:36.424Z</time>
      </trkpt>
      <trkpt lat="43.75038" lon="1.53678">
        <ele>206.388474</ele>
        <time>2023-09-17T11:30:37.424Z</time>
      </trkpt>
      <trkpt lat="43.75038" lon="1.53678">
        <ele>206.388474</ele>
        <time>2023-09-17T11:30:37.424Z</time>
      </trkpt>
      <trkpt lat="43.75035" lon="1.53673">
        <ele>206.781649</ele>
        <time>2023-09-17T11:30:38.424Z</time>
      </trkpt>
      <trkpt lat="43.75035" lon="1.53673">
        <ele>206.781649</ele>
        <time>2023-09-17T11:30:38.424Z</time>
      </trkpt>
      <trkpt lat="43.75032" lon="1.53669">
        <ele>207.142599</ele>
        <time>2023-09-17T11:30:39.424Z</time>
      </trkpt>
      <trkpt lat="43.75032" lon="1.53669">
        <ele>207.142599</ele>
        <time>2023-09-17T11:30:39.424Z</time>
      </trkpt>
      <trkpt lat="43.75028" lon="1.53665">
        <ele>207.533739</ele>
        <time>2023-09-17T11:30:40.424Z</time>
      </trkpt>
      <trkpt lat="43.75028" lon="1.53665">
        <ele>207.533739</ele>
        <time>2023-09-17T11:30:40.424Z</time>
      </trkpt>
      <trkpt lat="43.75024" lon="1.5366">
        <ele>208.023691</ele>
        <time>2023-09-17T11:30:42.424Z</time>
      </trkpt>
      <trkpt lat="43.75024" lon="1.5366">
        <ele>208.023691</ele>
        <time>2023-09-17T11:30:42.424Z</time>
      </trkpt>
      <trkpt lat="43.75021" lon="1.53656">
        <ele>208.349851</ele>
        <time>2023-09-17T11:30:43.424Z</time>
      </trkpt>
      <trkpt lat="43.75021" lon="1.53656">
        <ele>208.349851</ele>
        <time>2023-09-17T11:30:43.424Z</time>
      </trkpt>
      <trkpt lat="43.75017" lon="1.53651">
        <ele>208.779827</ele>
        <time>2023-09-17T11:30:44.424Z</time>
      </trkpt>
      <trkpt lat="43.75017" lon="1.53651">
        <ele>208.779827</ele>
        <time>2023-09-17T11:30:44.424Z</time>
      </trkpt>
      <trkpt lat="43.75014" lon="1.53646">
        <ele>209.200213</ele>
        <time>2023-09-17T11:30:45.424Z</time>
      </trkpt>
      <trkpt lat="43.75014" lon="1.53646">
        <ele>209.200213</ele>
        <time>2023-09-17T11:30:45.424Z</time>
      </trkpt>
      <trkpt lat="43.75009" lon="1.53639">
        <ele>209.743814</ele>
        <time>2023-09-17T11:30:46.424Z</time>
      </trkpt>
      <trkpt lat="43.75009" lon="1.53639">
        <ele>209.743814</ele>
        <time>2023-09-17T11:30:46.424Z</time>
      </trkpt>
      <trkpt lat="43.75006" lon="1.53634">
        <ele>210.141658</ele>
        <time>2023-09-17T11:30:47.424Z</time>
      </trkpt>
      <trkpt lat="43.75006" lon="1.53634">
        <ele>210.141658</ele>
        <time>2023-09-17T11:30:47.424Z</time>
      </trkpt>
      <trkpt lat="43.75003" lon="1.5363">
        <ele>210.504236</ele>
        <time>2023-09-17T11:30:48.424Z</time>
      </trkpt>
      <trkpt lat="43.75" lon="1.53624">
        <ele>210.949805</ele>
        <time>2023-09-17T11:30:49.424Z</time>
      </trkpt>
      <trkpt lat="43.75" lon="1.53624">
        <ele>210.949805</ele>
        <time>2023-09-17T11:30:49.424Z</time>
      </trkpt>
      <trkpt lat="43.74997" lon="1.53617">
        <ele>211.420089</ele>
        <time>2023-09-17T11:30:50.424Z</time>
      </trkpt>
      <trkpt lat="43.74995" lon="1.5361">
        <ele>211.89534</ele>
        <time>2023-09-17T11:30:51.424Z</time>
      </trkpt>
      <trkpt lat="43.74995" lon="1.5361">
        <ele>211.89534</ele>
        <time>2023-09-17T11:30:51.424Z</time>
      </trkpt>
      <trkpt lat="43.74992" lon="1.53604">
        <ele>212.30014</ele>
        <time>2023-09-17T11:30:52.424Z</time>
      </trkpt>
      <trkpt lat="43.74992" lon="1.53604">
        <ele>212.30014</ele>
        <time>2023-09-17T11:30:52.424Z</time>
      </trkpt>
      <trkpt lat="43.7499" lon="1.53598">
        <ele>212.731745</ele>
        <time>2023-09-17T11:30:53.424Z</time>
      </trkpt>
      <trkpt lat="43.74988" lon="1.53592">
        <ele>213.105306</ele>
        <time>2023-09-17T11:30:54.424Z</time>
      </trkpt>
      <trkpt lat="43.74986" lon="1.53587">
        <ele>213.49952</ele>
        <time>2023-09-17T11:30:55.424Z</time>
      </trkpt>
      <trkpt lat="43.74984" lon="1.53581">
        <ele>213.90432</ele>
        <time>2023-09-17T11:30:56.424Z</time>
      </trkpt>
      <trkpt lat="43.74984" lon="1.53581">
        <ele>213.90432</ele>
        <time>2023-09-17T11:30:56.424Z</time>
      </trkpt>
      <trkpt lat="43.74982" lon="1.53575">
        <ele>214.288846</ele>
        <time>2023-09-17T11:30:57.424Z</time>
      </trkpt>
      <trkpt lat="43.74982" lon="1.53575">
        <ele>214.288846</ele>
        <time>2023-09-17T11:30:57.424Z</time>
      </trkpt>
      <trkpt lat="43.7498" lon="1.53569">
        <ele>214.643811</ele>
        <time>2023-09-17T11:30:58.424Z</time>
      </trkpt>
      <trkpt lat="43.7498" lon="1.53569">
        <ele>214.643811</ele>
        <time>2023-09-17T11:30:58.424Z</time>
      </trkpt>
      <trkpt lat="43.74979" lon="1.53563">
        <ele>215.041332</ele>
        <time>2023-09-17T11:30:59.424Z</time>
      </trkpt>
      <trkpt lat="43.74977" lon="1.53557">
        <ele>215.431366</ele>
        <time>2023-09-17T11:31:00.424Z</time>
      </trkpt>
      <trkpt lat="43.74977" lon="1.53557">
        <ele>215.431366</ele>
        <time>2023-09-17T11:31:00.424Z</time>
      </trkpt>
      <trkpt lat="43.74975" lon="1.53552">
        <ele>215.804927</ele>
        <time>2023-09-17T11:31:01.424Z</time>
      </trkpt>
      <trkpt lat="43.74973" lon="1.53547">
        <ele>216.140715</ele>
        <time>2023-09-17T11:31:01.424Z</time>
      </trkpt>
      <trkpt lat="43.74973" lon="1.53547">
        <ele>216.140715</ele>
        <time>2023-09-17T11:31:01.424Z</time>
      </trkpt>
      <trkpt lat="43.74971" lon="1.53542">
        <ele>216.361445</ele>
        <time>2023-09-17T11:31:03.424Z</time>
      </trkpt>
      <trkpt lat="43.74969" lon="1.53538">
        <ele>216.457128</ele>
        <time>2023-09-17T11:31:04.424Z</time>
      </trkpt>
      <trkpt lat="43.74969" lon="1.53538">
        <ele>216.457128</ele>
        <time>2023-09-17T11:31:04.424Z</time>
      </trkpt>
      <trkpt lat="43.74968" lon="1.53534">
        <ele>216.535477</ele>
        <time>2023-09-17T11:31:05.424Z</time>
      </trkpt>
      <trkpt lat="43.74968" lon="1.53534">
        <ele>216.535477</ele>
        <time>2023-09-17T11:31:05.424Z</time>
      </trkpt>
      <trkpt lat="43.74966" lon="1.53528">
        <ele>216.660721</ele>
        <time>2023-09-17T11:31:06.424Z</time>
      </trkpt>
      <trkpt lat="43.74966" lon="1.53528">
        <ele>216.660721</ele>
        <time>2023-09-17T11:31:06.424Z</time>
      </trkpt>
      <trkpt lat="43.74964" lon="1.53523">
        <ele>216.771876</ele>
        <time>2023-09-17T11:31:07.424Z</time>
      </trkpt>
      <trkpt lat="43.74964" lon="1.53523">
        <ele>216.771876</ele>
        <time>2023-09-17T11:31:07.424Z</time>
      </trkpt>
      <trkpt lat="43.74962" lon="1.53516">
        <ele>216.918405</ele>
        <time>2023-09-17T11:31:08.424Z</time>
      </trkpt>
      <trkpt lat="43.74962" lon="1.53516">
        <ele>216.918405</ele>
        <time>2023-09-17T11:31:08.424Z</time>
      </trkpt>
      <trkpt lat="43.7496" lon="1.53512">
        <ele>217.011785</ele>
        <time>2023-09-17T11:31:10.424Z</time>
      </trkpt>
      <trkpt lat="43.7496" lon="1.53512">
        <ele>217.011785</ele>
        <time>2023-09-17T11:31:10.424Z</time>
      </trkpt>
      <trkpt lat="43.74958" lon="1.53506">
        <ele>217.161357</ele>
        <time>2023-09-17T11:31:11.424Z</time>
      </trkpt>
      <trkpt lat="43.74958" lon="1.53506">
        <ele>217.161357</ele>
        <time>2023-09-17T11:31:11.424Z</time>
      </trkpt>
      <trkpt lat="43.74956" lon="1.53501">
        <ele>217.26532</ele>
        <time>2023-09-17T11:31:12.424Z</time>
      </trkpt>
      <trkpt lat="43.74954" lon="1.53496">
        <ele>217.372961</ele>
        <time>2023-09-17T11:31:13.424Z</time>
      </trkpt>
      <trkpt lat="43.74954" lon="1.53496">
        <ele>217.372961</ele>
        <time>2023-09-17T11:31:13.424Z</time>
      </trkpt>
      <trkpt lat="43.74949" lon="1.53483">
        <ele>217.661332</ele>
        <time>2023-09-17T11:31:15.424Z</time>
      </trkpt>
      <trkpt lat="43.74949" lon="1.53483">
        <ele>217.661332</ele>
        <time>2023-09-17T11:31:15.424Z</time>
      </trkpt>
      <trkpt lat="43.74948" lon="1.53479">
        <ele>217.751251</ele>
        <time>2023-09-17T11:31:15.424Z</time>
      </trkpt>
      <trkpt lat="43.74948" lon="1.53479">
        <ele>217.751251</ele>
        <time>2023-09-17T11:31:15.424Z</time>
      </trkpt>
      <trkpt lat="43.74947" lon="1.53475">
        <ele>217.829938</ele>
        <time>2023-09-17T11:31:17.424Z</time>
      </trkpt>
      <trkpt lat="43.74944" lon="1.53468">
        <ele>217.992978</ele>
        <time>2023-09-17T11:31:18.424Z</time>
      </trkpt>
      <trkpt lat="43.74944" lon="1.53468">
        <ele>217.992978</ele>
        <time>2023-09-17T11:31:18.424Z</time>
      </trkpt>
      <trkpt lat="43.74941" lon="1.53461">
        <ele>218.158867</ele>
        <time>2023-09-17T11:31:19.424Z</time>
      </trkpt>
      <trkpt lat="43.74941" lon="1.53461">
        <ele>218.158867</ele>
        <time>2023-09-17T11:31:19.424Z</time>
      </trkpt>
      <trkpt lat="43.74939" lon="1.53459">
        <ele>218.219412</ele>
        <time>2023-09-17T11:31:21.424Z</time>
      </trkpt>
      <trkpt lat="43.74935" lon="1.53462">
        <ele>218.334812</ele>
        <time>2023-09-17T11:31:23.424Z</time>
      </trkpt>
      <trkpt lat="43.74935" lon="1.53462">
        <ele>218.334812</ele>
        <time>2023-09-17T11:31:23.424Z</time>
      </trkpt>
      <trkpt lat="43.74933" lon="1.53464">
        <ele>218.389722</ele>
        <time>2023-09-17T11:31:24.424Z</time>
      </trkpt>
      <trkpt lat="43.74931" lon="1.53467">
        <ele>218.484436</ele>
        <time>2023-09-17T11:31:25.424Z</time>
      </trkpt>
      <trkpt lat="43.74931" lon="1.53467">
        <ele>218.484436</ele>
        <time>2023-09-17T11:31:25.424Z</time>
      </trkpt>
      <trkpt lat="43.74926" lon="1.53474">
        <ele>218.67054</ele>
        <time>2023-09-17T11:31:26.424Z</time>
      </trkpt>
      <trkpt lat="43.74921" lon="1.53483">
        <ele>218.892271</ele>
        <time>2023-09-17T11:31:28.424Z</time>
      </trkpt>
      <trkpt lat="43.74921" lon="1.53483">
        <ele>218.892271</ele>
        <time>2023-09-17T11:31:28.424Z</time>
      </trkpt>
      <trkpt lat="43.74919" lon="1.53487">
        <ele>219.002292</ele>
        <time>2023-09-17T11:31:29.424Z</time>
      </trkpt>
      <trkpt lat="43.74919" lon="1.53487">
        <ele>219.002292</ele>
        <time>2023-09-17T11:31:29.424Z</time>
      </trkpt>
      <trkpt lat="43.74916" lon="1.53493">
        <ele>219.14905</ele>
        <time>2023-09-17T11:31:29.424Z</time>
      </trkpt>
      <trkpt lat="43.74913" lon="1.535">
        <ele>219.298961</ele>
        <time>2023-09-17T11:31:31.424Z</time>
      </trkpt>
      <trkpt lat="43.74913" lon="1.535">
        <ele>219.298961</ele>
        <time>2023-09-17T11:31:31.424Z</time>
      </trkpt>
      <trkpt lat="43.7491" lon="1.53507">
        <ele>219.467561</ele>
        <time>2023-09-17T11:31:32.424Z</time>
      </trkpt>
      <trkpt lat="43.7491" lon="1.53507">
        <ele>219.467561</ele>
        <time>2023-09-17T11:31:32.424Z</time>
      </trkpt>
      <trkpt lat="43.74907" lon="1.53513">
        <ele>219.609935</ele>
        <time>2023-09-17T11:31:32.424Z</time>
      </trkpt>
      <trkpt lat="43.74905" lon="1.53519">
        <ele>219.738772</ele>
        <time>2023-09-17T11:31:34.424Z</time>
      </trkpt>
      <trkpt lat="43.74905" lon="1.53519">
        <ele>219.738772</ele>
        <time>2023-09-17T11:31:34.424Z</time>
      </trkpt>
      <trkpt lat="43.74903" lon="1.53526">
        <ele>219.874095</ele>
        <time>2023-09-17T11:31:35.424Z</time>
      </trkpt>
      <trkpt lat="43.74903" lon="1.53526">
        <ele>219.874095</ele>
        <time>2023-09-17T11:31:35.424Z</time>
      </trkpt>
      <trkpt lat="43.74901" lon="1.53532">
        <ele>220.008357</ele>
        <time>2023-09-17T11:31:36.424Z</time>
      </trkpt>
      <trkpt lat="43.74901" lon="1.53532">
        <ele>220.008357</ele>
        <time>2023-09-17T11:31:36.424Z</time>
      </trkpt>
      <trkpt lat="43.74899" lon="1.53539">
        <ele>220.149911</ele>
        <time>2023-09-17T11:31:37.424Z</time>
      </trkpt>
      <trkpt lat="43.74897" lon="1.53545">
        <ele>220.276636</ele>
        <time>2023-09-17T11:31:37.424Z</time>
      </trkpt>
      <trkpt lat="43.74897" lon="1.53545">
        <ele>220.276636</ele>
        <time>2023-09-17T11:31:37.424Z</time>
      </trkpt>
      <trkpt lat="43.74896" lon="1.53552">
        <ele>220.423698</ele>
        <time>2023-09-17T11:31:39.424Z</time>
      </trkpt>
      <trkpt lat="43.74896" lon="1.53552">
        <ele>220.423698</ele>
        <time>2023-09-17T11:31:39.424Z</time>
      </trkpt>
      <trkpt lat="43.74894" lon="1.53558">
        <ele>220.556021</ele>
        <time>2023-09-17T11:31:39.424Z</time>
      </trkpt>
      <trkpt lat="43.74893" lon="1.53564">
        <ele>220.684154</ele>
        <time>2023-09-17T11:31:41.424Z</time>
      </trkpt>
      <trkpt lat="43.74893" lon="1.53564">
        <ele>220.684154</ele>
        <time>2023-09-17T11:31:41.424Z</time>
      </trkpt>
      <trkpt lat="43.74891" lon="1.53571">
        <ele>220.820225</ele>
        <time>2023-09-17T11:31:41.424Z</time>
      </trkpt>
      <trkpt lat="43.7489" lon="1.53578">
        <ele>220.955979</ele>
        <time>2023-09-17T11:31:42.424Z</time>
      </trkpt>
      <trkpt lat="43.7489" lon="1.53578">
        <ele>220.955979</ele>
        <time>2023-09-17T11:31:42.424Z</time>
      </trkpt>
      <trkpt lat="43.74889" lon="1.53585">
        <ele>221.099573</ele>
        <time>2023-09-17T11:31:43.424Z</time>
      </trkpt>
      <trkpt lat="43.74887" lon="1.53591">
        <ele>221.183173</ele>
        <time>2023-09-17T11:31:44.424Z</time>
      </trkpt>
      <trkpt lat="43.74887" lon="1.53591">
        <ele>221.183173</ele>
        <time>2023-09-17T11:31:44.424Z</time>
      </trkpt>
      <trkpt lat="43.74885" lon="1.53599">
        <ele>221.1193</ele>
        <time>2023-09-17T11:31:45.424Z</time>
      </trkpt>
      <trkpt lat="43.74884" lon="1.53606">
        <ele>221.060917</ele>
        <time>2023-09-17T11:31:47.424Z</time>
      </trkpt>
      <trkpt lat="43.74884" lon="1.53606">
        <ele>221.060917</ele>
        <time>2023-09-17T11:31:47.424Z</time>
      </trkpt>
      <trkpt lat="43.74882" lon="1.53614">
        <ele>220.998314</ele>
        <time>2023-09-17T11:31:48.424Z</time>
      </trkpt>
      <trkpt lat="43.74881" lon="1.53621">
        <ele>220.937225</ele>
        <time>2023-09-17T11:31:49.424Z</time>
      </trkpt>
      <trkpt lat="43.74881" lon="1.53621">
        <ele>220.937225</ele>
        <time>2023-09-17T11:31:49.424Z</time>
      </trkpt>
      <trkpt lat="43.7488" lon="1.53628">
        <ele>220.884055</ele>
        <time>2023-09-17T11:31:50.424Z</time>
      </trkpt>
      <trkpt lat="43.74878" lon="1.53637">
        <ele>220.810139</ele>
        <time>2023-09-17T11:31:51.424Z</time>
      </trkpt>
      <trkpt lat="43.74876" lon="1.53645">
        <ele>220.746778</ele>
        <time>2023-09-17T11:31:52.424Z</time>
      </trkpt>
      <trkpt lat="43.74874" lon="1.53653">
        <ele>220.679178</ele>
        <time>2023-09-17T11:31:53.424Z</time>
      </trkpt>
      <trkpt lat="43.74874" lon="1.53653">
        <ele>220.679178</ele>
        <time>2023-09-17T11:31:53.424Z</time>
      </trkpt>
      <trkpt lat="43.74873" lon="1.53661">
        <ele>220.617333</ele>
        <time>2023-09-17T11:31:54.424Z</time>
      </trkpt>
      <trkpt lat="43.74871" lon="1.53669">
        <ele>220.550171</ele>
        <time>2023-09-17T11:31:55.424Z</time>
      </trkpt>
      <trkpt lat="43.74869" lon="1.53677">
        <ele>220.48481</ele>
        <time>2023-09-17T11:31:56.424Z</time>
      </trkpt>
      <trkpt lat="43.74867" lon="1.53685">
        <ele>220.413889</ele>
        <time>2023-09-17T11:31:57.424Z</time>
      </trkpt>
      <trkpt lat="43.74866" lon="1.53693">
        <ele>220.349009</ele>
        <time>2023-09-17T11:31:58.424Z</time>
      </trkpt>
      <trkpt lat="43.74864" lon="1.53702">
        <ele>220.282157</ele>
        <time>2023-09-17T11:31:59.424Z</time>
      </trkpt>
      <trkpt lat="43.74862" lon="1.5371">
        <ele>220.214233</ele>
        <time>2023-09-17T11:32:00.424Z</time>
      </trkpt>
      <trkpt lat="43.74862" lon="1.5371">
        <ele>220.214233</ele>
        <time>2023-09-17T11:32:00.424Z</time>
      </trkpt>
      <trkpt lat="43.7486" lon="1.53719">
        <ele>220.143637</ele>
        <time>2023-09-17T11:32:01.424Z</time>
      </trkpt>
      <trkpt lat="43.74859" lon="1.53726">
        <ele>220.082548</ele>
        <time>2023-09-17T11:32:02.424Z</time>
      </trkpt>
      <trkpt lat="43.74857" lon="1.53733">
        <ele>220.021913</ele>
        <time>2023-09-17T11:32:03.424Z</time>
      </trkpt>
      <trkpt lat="43.74855" lon="1.53739">
        <ele>219.972269</ele>
        <time>2023-09-17T11:32:04.424Z</time>
      </trkpt>
      <trkpt lat="43.74851" lon="1.5374">
        <ele>219.928678</ele>
        <time>2023-09-17T11:32:05.424Z</time>
      </trkpt>
      <trkpt lat="43.74846" lon="1.53737">
        <ele>219.875382</ele>
        <time>2023-09-17T11:32:06.424Z</time>
      </trkpt>
      <trkpt lat="43.74841" lon="1.53733">
        <ele>219.810575</ele>
        <time>2023-09-17T11:32:07.424Z</time>
      </trkpt>
      <trkpt lat="43.74836" lon="1.53728">
        <ele>219.743482</ele>
        <time>2023-09-17T11:32:08.424Z</time>
      </trkpt>
      <trkpt lat="43.74836" lon="1.53728">
        <ele>219.743482</ele>
        <time>2023-09-17T11:32:08.424Z</time>
      </trkpt>
      <trkpt lat="43.74831" lon="1.53721">
        <ele>219.662882</ele>
        <time>2023-09-17T11:32:09.424Z</time>
      </trkpt>
      <trkpt lat="43.74831" lon="1.53721">
        <ele>219.662882</ele>
        <time>2023-09-17T11:32:09.424Z</time>
      </trkpt>
      <trkpt lat="43.74825" lon="1.53715">
        <ele>219.57875</ele>
        <time>2023-09-17T11:32:10.424Z</time>
      </trkpt>
      <trkpt lat="43.74825" lon="1.53715">
        <ele>219.57875</ele>
        <time>2023-09-17T11:32:10.424Z</time>
      </trkpt>
      <trkpt lat="43.74819" lon="1.53708">
        <ele>219.500459</ele>
        <time>2023-09-17T11:32:11.424Z</time>
      </trkpt>
      <trkpt lat="43.74819" lon="1.53708">
        <ele>219.500459</ele>
        <time>2023-09-17T11:32:11.424Z</time>
      </trkpt>
      <trkpt lat="43.74812" lon="1.53701">
        <ele>219.405609</ele>
        <time>2023-09-17T11:32:11.424Z</time>
      </trkpt>
      <trkpt lat="43.74812" lon="1.53701">
        <ele>219.405609</ele>
        <time>2023-09-17T11:32:11.424Z</time>
      </trkpt>
      <trkpt lat="43.74805" lon="1.53693">
        <ele>219.306258</ele>
        <time>2023-09-17T11:32:13.424Z</time>
      </trkpt>
      <trkpt lat="43.74805" lon="1.53693">
        <ele>219.306258</ele>
        <time>2023-09-17T11:32:13.424Z</time>
      </trkpt>
      <trkpt lat="43.74797" lon="1.53685">
        <ele>219.042436</ele>
        <time>2023-09-17T11:32:14.424Z</time>
      </trkpt>
      <trkpt lat="43.74797" lon="1.53685">
        <ele>219.042436</ele>
        <time>2023-09-17T11:32:14.424Z</time>
      </trkpt>
      <trkpt lat="43.74789" lon="1.53676">
        <ele>218.500484</ele>
        <time>2023-09-17T11:32:15.424Z</time>
      </trkpt>
      <trkpt lat="43.74789" lon="1.53676">
        <ele>218.500484</ele>
        <time>2023-09-17T11:32:15.424Z</time>
      </trkpt>
      <trkpt lat="43.7478" lon="1.53665">
        <ele>217.917485</ele>
        <time>2023-09-17T11:32:16.424Z</time>
      </trkpt>
      <trkpt lat="43.7478" lon="1.53665">
        <ele>217.917485</ele>
        <time>2023-09-17T11:32:16.424Z</time>
      </trkpt>
      <trkpt lat="43.74775" lon="1.53658">
        <ele>217.548685</ele>
        <time>2023-09-17T11:32:17.424Z</time>
      </trkpt>
      <trkpt lat="43.74775" lon="1.53658">
        <ele>217.548685</ele>
        <time>2023-09-17T11:32:17.424Z</time>
      </trkpt>
      <trkpt lat="43.74764" lon="1.53641">
        <ele>216.744336</ele>
        <time>2023-09-17T11:32:18.424Z</time>
      </trkpt>
      <trkpt lat="43.74764" lon="1.53641">
        <ele>216.744336</ele>
        <time>2023-09-17T11:32:18.424Z</time>
      </trkpt>
      <trkpt lat="43.74757" lon="1.53629">
        <ele>216.162435</ele>
        <time>2023-09-17T11:32:18.424Z</time>
      </trkpt>
      <trkpt lat="43.74757" lon="1.53629">
        <ele>216.162435</ele>
        <time>2023-09-17T11:32:18.424Z</time>
      </trkpt>
      <trkpt lat="43.74749" lon="1.53617">
        <ele>215.560016</ele>
        <time>2023-09-17T11:32:20.424Z</time>
      </trkpt>
      <trkpt lat="43.74749" lon="1.53617">
        <ele>215.560016</ele>
        <time>2023-09-17T11:32:20.424Z</time>
      </trkpt>
      <trkpt lat="43.74741" lon="1.53607">
        <ele>214.999413</ele>
        <time>2023-09-17T11:32:21.424Z</time>
      </trkpt>
      <trkpt lat="43.74741" lon="1.53607">
        <ele>214.999413</ele>
        <time>2023-09-17T11:32:21.424Z</time>
      </trkpt>
      <trkpt lat="43.74731" lon="1.536">
        <ele>214.457164</ele>
        <time>2023-09-17T11:32:22.424Z</time>
      </trkpt>
      <trkpt lat="43.74731" lon="1.536">
        <ele>214.457164</ele>
        <time>2023-09-17T11:32:22.424Z</time>
      </trkpt>
      <trkpt lat="43.74722" lon="1.53596">
        <ele>213.954077</ele>
        <time>2023-09-17T11:32:22.424Z</time>
      </trkpt>
      <trkpt lat="43.74722" lon="1.53596">
        <ele>213.954077</ele>
        <time>2023-09-17T11:32:22.424Z</time>
      </trkpt>
      <trkpt lat="43.74712" lon="1.53594">
        <ele>213.472711</ele>
        <time>2023-09-17T11:32:24.424Z</time>
      </trkpt>
      <trkpt lat="43.74712" lon="1.53594">
        <ele>213.472711</ele>
        <time>2023-09-17T11:32:24.424Z</time>
      </trkpt>
      <trkpt lat="43.74703" lon="1.53594">
        <ele>213.028364</ele>
        <time>2023-09-17T11:32:25.424Z</time>
      </trkpt>
      <trkpt lat="43.74703" lon="1.53594">
        <ele>213.028364</ele>
        <time>2023-09-17T11:32:25.424Z</time>
      </trkpt>
      <trkpt lat="43.74694" lon="1.53593">
        <ele>212.583481</ele>
        <time>2023-09-17T11:32:26.424Z</time>
      </trkpt>
      <trkpt lat="43.74694" lon="1.53593">
        <ele>212.583481</ele>
        <time>2023-09-17T11:32:26.424Z</time>
      </trkpt>
      <trkpt lat="43.74686" lon="1.53591">
        <ele>212.178038</ele>
        <time>2023-09-17T11:32:26.424Z</time>
      </trkpt>
      <trkpt lat="43.74686" lon="1.53591">
        <ele>212.178038</ele>
        <time>2023-09-17T11:32:26.424Z</time>
      </trkpt>
      <trkpt lat="43.74679" lon="1.5359">
        <ele>211.791733</ele>
        <time>2023-09-17T11:32:28.424Z</time>
      </trkpt>
      <trkpt lat="43.74673" lon="1.53588">
        <ele>211.478913</ele>
        <time>2023-09-17T11:32:29.424Z</time>
      </trkpt>
      <trkpt lat="43.74667" lon="1.53586">
        <ele>211.197945</ele>
        <time>2023-09-17T11:32:30.424Z</time>
      </trkpt>
      <trkpt lat="43.74662" lon="1.53583">
        <ele>210.921903</ele>
        <time>2023-09-17T11:32:30.424Z</time>
      </trkpt>
      <trkpt lat="43.74662" lon="1.53583">
        <ele>210.921903</ele>
        <time>2023-09-17T11:32:30.424Z</time>
      </trkpt>
      <trkpt lat="43.74657" lon="1.53579">
        <ele>210.614198</ele>
        <time>2023-09-17T11:32:32.424Z</time>
      </trkpt>
      <trkpt lat="43.74657" lon="1.53579">
        <ele>210.614198</ele>
        <time>2023-09-17T11:32:32.424Z</time>
      </trkpt>
      <trkpt lat="43.74652" lon="1.53574">
        <ele>210.317611</ele>
        <time>2023-09-17T11:32:33.424Z</time>
      </trkpt>
      <trkpt lat="43.74652" lon="1.53574">
        <ele>210.317611</ele>
        <time>2023-09-17T11:32:33.424Z</time>
      </trkpt>
      <trkpt lat="43.74647" lon="1.5357">
        <ele>210.09543</ele>
        <time>2023-09-17T11:32:33.424Z</time>
      </trkpt>
      <trkpt lat="43.74641" lon="1.53566">
        <ele>209.935908</ele>
        <time>2023-09-17T11:32:34.424Z</time>
      </trkpt>
      <trkpt lat="43.74635" lon="1.53562">
        <ele>209.759449</ele>
        <time>2023-09-17T11:32:36.424Z</time>
      </trkpt>
      <trkpt lat="43.74629" lon="1.53558">
        <ele>209.583815</ele>
        <time>2023-09-17T11:32:37.424Z</time>
      </trkpt>
      <trkpt lat="43.74629" lon="1.53558">
        <ele>209.583815</ele>
        <time>2023-09-17T11:32:37.424Z</time>
      </trkpt>
      <trkpt lat="43.74622" lon="1.53554">
        <ele>209.387048</ele>
        <time>2023-09-17T11:32:38.424Z</time>
      </trkpt>
      <trkpt lat="43.74622" lon="1.53554">
        <ele>209.387048</ele>
        <time>2023-09-17T11:32:38.424Z</time>
      </trkpt>
      <trkpt lat="43.74616" lon="1.5355">
        <ele>209.214551</ele>
        <time>2023-09-17T11:32:38.424Z</time>
      </trkpt>
      <trkpt lat="43.74616" lon="1.5355">
        <ele>209.214551</ele>
        <time>2023-09-17T11:32:38.424Z</time>
      </trkpt>
      <trkpt lat="43.74609" lon="1.53546">
        <ele>209.01145</ele>
        <time>2023-09-17T11:32:39.424Z</time>
      </trkpt>
      <trkpt lat="43.74609" lon="1.53546">
        <ele>209.01145</ele>
        <time>2023-09-17T11:32:39.424Z</time>
      </trkpt>
      <trkpt lat="43.74602" lon="1.53542">
        <ele>208.808782</ele>
        <time>2023-09-17T11:32:40.424Z</time>
      </trkpt>
      <trkpt lat="43.74602" lon="1.53542">
        <ele>208.808782</ele>
        <time>2023-09-17T11:32:40.424Z</time>
      </trkpt>
      <trkpt lat="43.74595" lon="1.53538">
        <ele>208.620215</ele>
        <time>2023-09-17T11:32:41.424Z</time>
      </trkpt>
      <trkpt lat="43.74595" lon="1.53538">
        <ele>208.620215</ele>
        <time>2023-09-17T11:32:41.424Z</time>
      </trkpt>
      <trkpt lat="43.74587" lon="1.53534">
        <ele>208.407848</ele>
        <time>2023-09-17T11:32:42.424Z</time>
      </trkpt>
      <trkpt lat="43.74587" lon="1.53534">
        <ele>208.407848</ele>
        <time>2023-09-17T11:32:42.424Z</time>
      </trkpt>
      <trkpt lat="43.7458" lon="1.53531">
        <ele>208.219942</ele>
        <time>2023-09-17T11:32:43.424Z</time>
      </trkpt>
      <trkpt lat="43.7458" lon="1.53531">
        <ele>208.219942</ele>
        <time>2023-09-17T11:32:43.424Z</time>
      </trkpt>
      <trkpt lat="43.74574" lon="1.53527">
        <ele>208.041257</ele>
        <time>2023-09-17T11:32:45.424Z</time>
      </trkpt>
      <trkpt lat="43.74574" lon="1.53527">
        <ele>208.041257</ele>
        <time>2023-09-17T11:32:45.424Z</time>
      </trkpt>
      <trkpt lat="43.74566" lon="1.53524">
        <ele>207.833205</ele>
        <time>2023-09-17T11:32:46.424Z</time>
      </trkpt>
      <trkpt lat="43.74566" lon="1.53524">
        <ele>207.833205</ele>
        <time>2023-09-17T11:32:46.424Z</time>
      </trkpt>
      <trkpt lat="43.74559" lon="1.53519">
        <ele>207.624678</ele>
        <time>2023-09-17T11:32:46.424Z</time>
      </trkpt>
      <trkpt lat="43.74559" lon="1.53519">
        <ele>207.624678</ele>
        <time>2023-09-17T11:32:46.424Z</time>
      </trkpt>
      <trkpt lat="43.74552" lon="1.53514">
        <ele>207.411682</ele>
        <time>2023-09-17T11:32:48.424Z</time>
      </trkpt>
      <trkpt lat="43.74552" lon="1.53514">
        <ele>207.411682</ele>
        <time>2023-09-17T11:32:48.424Z</time>
      </trkpt>
      <trkpt lat="43.74545" lon="1.53508">
        <ele>207.20063</ele>
        <time>2023-09-17T11:32:49.424Z</time>
      </trkpt>
      <trkpt lat="43.74545" lon="1.53508">
        <ele>207.20063</ele>
        <time>2023-09-17T11:32:49.424Z</time>
      </trkpt>
      <trkpt lat="43.74538" lon="1.53501">
        <ele>206.984456</ele>
        <time>2023-09-17T11:32:50.424Z</time>
      </trkpt>
      <trkpt lat="43.74538" lon="1.53501">
        <ele>206.984456</ele>
        <time>2023-09-17T11:32:50.424Z</time>
      </trkpt>
      <trkpt lat="43.74531" lon="1.53494">
        <ele>206.768269</ele>
        <time>2023-09-17T11:32:51.424Z</time>
      </trkpt>
      <trkpt lat="43.74531" lon="1.53494">
        <ele>206.768269</ele>
        <time>2023-09-17T11:32:51.424Z</time>
      </trkpt>
      <trkpt lat="43.74525" lon="1.53488">
        <ele>206.568884</ele>
        <time>2023-09-17T11:32:52.424Z</time>
      </trkpt>
      <trkpt lat="43.74525" lon="1.53488">
        <ele>206.568884</ele>
        <time>2023-09-17T11:32:52.424Z</time>
      </trkpt>
      <trkpt lat="43.74518" lon="1.53481">
        <ele>206.349503</ele>
        <time>2023-09-17T11:32:53.424Z</time>
      </trkpt>
      <trkpt lat="43.74518" lon="1.53481">
        <ele>206.349503</ele>
        <time>2023-09-17T11:32:53.424Z</time>
      </trkpt>
      <trkpt lat="43.74512" lon="1.53475">
        <ele>206.150118</ele>
        <time>2023-09-17T11:32:53.424Z</time>
      </trkpt>
      <trkpt lat="43.74512" lon="1.53475">
        <ele>206.150118</ele>
        <time>2023-09-17T11:32:53.424Z</time>
      </trkpt>
      <trkpt lat="43.74505" lon="1.53468">
        <ele>205.930736</ele>
        <time>2023-09-17T11:32:55.424Z</time>
      </trkpt>
      <trkpt lat="43.74505" lon="1.53468">
        <ele>205.930736</ele>
        <time>2023-09-17T11:32:55.424Z</time>
      </trkpt>
      <trkpt lat="43.74499" lon="1.53461">
        <ele>205.724026</ele>
        <time>2023-09-17T11:32:56.424Z</time>
      </trkpt>
      <trkpt lat="43.74499" lon="1.53461">
        <ele>205.724026</ele>
        <time>2023-09-17T11:32:56.424Z</time>
      </trkpt>
      <trkpt lat="43.74493" lon="1.53455">
        <ele>205.523706</ele>
        <time>2023-09-17T11:32:57.424Z</time>
      </trkpt>
      <trkpt lat="43.74493" lon="1.53455">
        <ele>205.523706</ele>
        <time>2023-09-17T11:32:57.424Z</time>
      </trkpt>
      <trkpt lat="43.74487" lon="1.53448">
        <ele>205.413062</ele>
        <time>2023-09-17T11:32:58.424Z</time>
      </trkpt>
      <trkpt lat="43.74487" lon="1.53448">
        <ele>205.413062</ele>
        <time>2023-09-17T11:32:58.424Z</time>
      </trkpt>
      <trkpt lat="43.74482" lon="1.53443">
        <ele>205.314561</ele>
        <time>2023-09-17T11:32:59.424Z</time>
      </trkpt>
      <trkpt lat="43.74482" lon="1.53443">
        <ele>205.314561</ele>
        <time>2023-09-17T11:32:59.424Z</time>
      </trkpt>
      <trkpt lat="43.74476" lon="1.53437">
        <ele>205.201192</ele>
        <time>2023-09-17T11:33:00.424Z</time>
      </trkpt>
      <trkpt lat="43.74476" lon="1.53437">
        <ele>205.201192</ele>
        <time>2023-09-17T11:33:00.424Z</time>
      </trkpt>
      <trkpt lat="43.7447" lon="1.53432">
        <ele>205.102091</ele>
        <time>2023-09-17T11:33:00.424Z</time>
      </trkpt>
      <trkpt lat="43.74464" lon="1.53426">
        <ele>204.990603</ele>
        <time>2023-09-17T11:33:01.424Z</time>
      </trkpt>
      <trkpt lat="43.74459" lon="1.53421">
        <ele>204.893361</ele>
        <time>2023-09-17T11:33:02.424Z</time>
      </trkpt>
      <trkpt lat="43.74459" lon="1.53421">
        <ele>204.893361</ele>
        <time>2023-09-17T11:33:02.424Z</time>
      </trkpt>
      <trkpt lat="43.74453" lon="1.53416">
        <ele>204.797944</ele>
        <time>2023-09-17T11:33:04.424Z</time>
      </trkpt>
      <trkpt lat="43.74448" lon="1.53411">
        <ele>204.706892</ele>
        <time>2023-09-17T11:33:05.424Z</time>
      </trkpt>
      <trkpt lat="43.74448" lon="1.53411">
        <ele>204.706892</ele>
        <time>2023-09-17T11:33:05.424Z</time>
      </trkpt>
      <trkpt lat="43.74443" lon="1.53406">
        <ele>204.60965</ele>
        <time>2023-09-17T11:33:06.424Z</time>
      </trkpt>
      <trkpt lat="43.74438" lon="1.53401">
        <ele>204.515433</ele>
        <time>2023-09-17T11:33:06.424Z</time>
      </trkpt>
      <trkpt lat="43.74433" lon="1.53396">
        <ele>204.418191</ele>
        <time>2023-09-17T11:33:07.424Z</time>
      </trkpt>
      <trkpt lat="43.74433" lon="1.53396">
        <ele>204.418191</ele>
        <time>2023-09-17T11:33:07.424Z</time>
      </trkpt>
      <trkpt lat="43.74427" lon="1.53391">
        <ele>204.319708</ele>
        <time>2023-09-17T11:33:09.424Z</time>
      </trkpt>
      <trkpt lat="43.74422" lon="1.53386">
        <ele>204.224883</ele>
        <time>2023-09-17T11:33:09.424Z</time>
      </trkpt>
      <trkpt lat="43.74422" lon="1.53386">
        <ele>204.224883</ele>
        <time>2023-09-17T11:33:09.424Z</time>
      </trkpt>
      <trkpt lat="43.74416" lon="1.53382">
        <ele>204.126027</ele>
        <time>2023-09-17T11:33:10.424Z</time>
      </trkpt>
      <trkpt lat="43.74411" lon="1.53377">
        <ele>204.025323</ele>
        <time>2023-09-17T11:33:12.424Z</time>
      </trkpt>
      <trkpt lat="43.74411" lon="1.53377">
        <ele>204.025323</ele>
        <time>2023-09-17T11:33:12.424Z</time>
      </trkpt>
      <trkpt lat="43.74404" lon="1.53373">
        <ele>203.916318</ele>
        <time>2023-09-17T11:33:12.424Z</time>
      </trkpt>
      <trkpt lat="43.74399" lon="1.53369">
        <ele>203.83325</ele>
        <time>2023-09-17T11:33:14.424Z</time>
      </trkpt>
      <trkpt lat="43.74394" lon="1.53366">
        <ele>203.741763</ele>
        <time>2023-09-17T11:33:14.424Z</time>
      </trkpt>
      <trkpt lat="43.74388" lon="1.53364">
        <ele>203.649224</ele>
        <time>2023-09-17T11:33:16.424Z</time>
      </trkpt>
      <trkpt lat="43.74382" lon="1.5336">
        <ele>203.562114</ele>
        <time>2023-09-17T11:33:17.424Z</time>
      </trkpt>
      <trkpt lat="43.74377" lon="1.53357">
        <ele>203.474563</ele>
        <time>2023-09-17T11:33:18.424Z</time>
      </trkpt>
      <trkpt lat="43.74377" lon="1.53357">
        <ele>203.474563</ele>
        <time>2023-09-17T11:33:18.424Z</time>
      </trkpt>
      <trkpt lat="43.74371" lon="1.53354">
        <ele>203.379673</ele>
        <time>2023-09-17T11:33:19.424Z</time>
      </trkpt>
      <trkpt lat="43.74366" lon="1.5335">
        <ele>203.29758</ele>
        <time>2023-09-17T11:33:20.424Z</time>
      </trkpt>
      <trkpt lat="43.74361" lon="1.53347">
        <ele>203.207752</ele>
        <time>2023-09-17T11:33:21.424Z</time>
      </trkpt>
      <trkpt lat="43.74355" lon="1.53343">
        <ele>203.112441</ele>
        <time>2023-09-17T11:33:22.424Z</time>
      </trkpt>
      <trkpt lat="43.74355" lon="1.53343">
        <ele>203.112441</ele>
        <time>2023-09-17T11:33:22.424Z</time>
      </trkpt>
      <trkpt lat="43.7435" lon="1.53339">
        <ele>203.021499</ele>
        <time>2023-09-17T11:33:23.424Z</time>
      </trkpt>
      <trkpt lat="43.74345" lon="1.53335">
        <ele>202.933948</ele>
        <time>2023-09-17T11:33:24.424Z</time>
      </trkpt>
      <trkpt lat="43.74339" lon="1.53331">
        <ele>202.837175</ele>
        <time>2023-09-17T11:33:25.424Z</time>
      </trkpt>
      <trkpt lat="43.74334" lon="1.53327">
        <ele>202.714648</ele>
        <time>2023-09-17T11:33:26.424Z</time>
      </trkpt>
      <trkpt lat="43.74329" lon="1.53324">
        <ele>202.578257</ele>
        <time>2023-09-17T11:33:27.424Z</time>
      </trkpt>
      <trkpt lat="43.74329" lon="1.53324">
        <ele>202.578257</ele>
        <time>2023-09-17T11:33:27.424Z</time>
      </trkpt>
      <trkpt lat="43.74322" lon="1.5332">
        <ele>202.40541</ele>
        <time>2023-09-17T11:33:28.424Z</time>
      </trkpt>
      <trkpt lat="43.74322" lon="1.5332">
        <ele>202.40541</ele>
        <time>2023-09-17T11:33:28.424Z</time>
      </trkpt>
      <trkpt lat="43.74315" lon="1.53316">
        <ele>202.236587</ele>
        <time>2023-09-17T11:33:29.424Z</time>
      </trkpt>
      <trkpt lat="43.74309" lon="1.53313">
        <ele>202.085259</ele>
        <time>2023-09-17T11:33:30.424Z</time>
      </trkpt>
      <trkpt lat="43.74309" lon="1.53313">
        <ele>202.085259</ele>
        <time>2023-09-17T11:33:30.424Z</time>
      </trkpt>
      <trkpt lat="43.74302" lon="1.53309">
        <ele>201.905054</ele>
        <time>2023-09-17T11:33:31.424Z</time>
      </trkpt>
      <trkpt lat="43.74302" lon="1.53309">
        <ele>201.905054</ele>
        <time>2023-09-17T11:33:31.424Z</time>
      </trkpt>
      <trkpt lat="43.74295" lon="1.53306">
        <ele>201.739103</ele>
        <time>2023-09-17T11:33:32.424Z</time>
      </trkpt>
      <trkpt lat="43.74295" lon="1.53306">
        <ele>201.739103</ele>
        <time>2023-09-17T11:33:32.424Z</time>
      </trkpt>
      <trkpt lat="43.74287" lon="1.53303">
        <ele>201.562174</ele>
        <time>2023-09-17T11:33:33.424Z</time>
      </trkpt>
      <trkpt lat="43.74287" lon="1.53303">
        <ele>201.562174</ele>
        <time>2023-09-17T11:33:33.424Z</time>
      </trkpt>
      <trkpt lat="43.74281" lon="1.533">
        <ele>201.395064</ele>
        <time>2023-09-17T11:33:34.424Z</time>
      </trkpt>
      <trkpt lat="43.74281" lon="1.533">
        <ele>201.395064</ele>
        <time>2023-09-17T11:33:34.424Z</time>
      </trkpt>
      <trkpt lat="43.74274" lon="1.53297">
        <ele>201.239976</ele>
        <time>2023-09-17T11:33:35.424Z</time>
      </trkpt>
      <trkpt lat="43.74274" lon="1.53297">
        <ele>201.239976</ele>
        <time>2023-09-17T11:33:35.424Z</time>
      </trkpt>
      <trkpt lat="43.74267" lon="1.53294">
        <ele>201.071298</ele>
        <time>2023-09-17T11:33:36.424Z</time>
      </trkpt>
      <trkpt lat="43.74267" lon="1.53294">
        <ele>201.071298</ele>
        <time>2023-09-17T11:33:36.424Z</time>
      </trkpt>
      <trkpt lat="43.74261" lon="1.53291">
        <ele>200.92172</ele>
        <time>2023-09-17T11:33:37.424Z</time>
      </trkpt>
      <trkpt lat="43.74255" lon="1.53287">
        <ele>200.767159</ele>
        <time>2023-09-17T11:33:38.424Z</time>
      </trkpt>
      <trkpt lat="43.74255" lon="1.53287">
        <ele>200.767159</ele>
        <time>2023-09-17T11:33:38.424Z</time>
      </trkpt>
      <trkpt lat="43.7425" lon="1.53283">
        <ele>200.629244</ele>
        <time>2023-09-17T11:33:39.424Z</time>
      </trkpt>
      <trkpt lat="43.74244" lon="1.53279">
        <ele>200.486125</ele>
        <time>2023-09-17T11:33:40.424Z</time>
      </trkpt>
      <trkpt lat="43.74244" lon="1.53279">
        <ele>200.486125</ele>
        <time>2023-09-17T11:33:40.424Z</time>
      </trkpt>
      <trkpt lat="43.74239" lon="1.53275">
        <ele>200.349224</ele>
        <time>2023-09-17T11:33:41.424Z</time>
      </trkpt>
      <trkpt lat="43.74235" lon="1.53271">
        <ele>200.224745</ele>
        <time>2023-09-17T11:33:42.424Z</time>
      </trkpt>
      <trkpt lat="43.7423" lon="1.53266">
        <ele>200.088733</ele>
        <time>2023-09-17T11:33:43.424Z</time>
      </trkpt>
      <trkpt lat="43.74225" lon="1.53262">
        <ele>199.959537</ele>
        <time>2023-09-17T11:33:44.424Z</time>
      </trkpt>
      <trkpt lat="43.74221" lon="1.53258">
        <ele>199.835967</ele>
        <time>2023-09-17T11:33:45.424Z</time>
      </trkpt>
      <trkpt lat="43.74221" lon="1.53258">
        <ele>199.835967</ele>
        <time>2023-09-17T11:33:45.424Z</time>
      </trkpt>
      <trkpt lat="43.74217" lon="1.53254">
        <ele>199.72003</ele>
        <time>2023-09-17T11:33:46.424Z</time>
      </trkpt>
      <trkpt lat="43.74212" lon="1.5325">
        <ele>199.58313</ele>
        <time>2023-09-17T11:33:47.424Z</time>
      </trkpt>
      <trkpt lat="43.74212" lon="1.5325">
        <ele>199.58313</ele>
        <time>2023-09-17T11:33:47.424Z</time>
      </trkpt>
      <trkpt lat="43.74208" lon="1.53246">
        <ele>199.476731</ele>
        <time>2023-09-17T11:33:48.424Z</time>
      </trkpt>
      <trkpt lat="43.74203" lon="1.53242">
        <ele>199.352091</ele>
        <time>2023-09-17T11:33:49.424Z</time>
      </trkpt>
      <trkpt lat="43.74198" lon="1.53239">
        <ele>199.227607</ele>
        <time>2023-09-17T11:33:50.424Z</time>
      </trkpt>
      <trkpt lat="43.74193" lon="1.53236">
        <ele>199.095503</ele>
        <time>2023-09-17T11:33:51.424Z</time>
      </trkpt>
      <trkpt lat="43.74186" lon="1.53234">
        <ele>198.941649</ele>
        <time>2023-09-17T11:33:52.424Z</time>
      </trkpt>
      <trkpt lat="43.74186" lon="1.53234">
        <ele>198.941649</ele>
        <time>2023-09-17T11:33:52.424Z</time>
      </trkpt>
      <trkpt lat="43.7418" lon="1.53233">
        <ele>198.789902</ele>
        <time>2023-09-17T11:33:53.424Z</time>
      </trkpt>
      <trkpt lat="43.7418" lon="1.53233">
        <ele>198.789902</ele>
        <time>2023-09-17T11:33:53.424Z</time>
      </trkpt>
      <trkpt lat="43.74172" lon="1.53232">
        <ele>198.449151</ele>
        <time>2023-09-17T11:33:54.424Z</time>
      </trkpt>
      <trkpt lat="43.74172" lon="1.53232">
        <ele>198.449151</ele>
        <time>2023-09-17T11:33:54.424Z</time>
      </trkpt>
      <trkpt lat="43.74164" lon="1.53231">
        <ele>197.580439</ele>
        <time>2023-09-17T11:33:55.424Z</time>
      </trkpt>
      <trkpt lat="43.74164" lon="1.53231">
        <ele>197.580439</ele>
        <time>2023-09-17T11:33:55.424Z</time>
      </trkpt>
      <trkpt lat="43.74155" lon="1.5323">
        <ele>196.581765</ele>
        <time>2023-09-17T11:33:56.424Z</time>
      </trkpt>
      <trkpt lat="43.74155" lon="1.5323">
        <ele>196.581765</ele>
        <time>2023-09-17T11:33:56.424Z</time>
      </trkpt>
      <trkpt lat="43.74146" lon="1.53229">
        <ele>195.593865</ele>
        <time>2023-09-17T11:33:57.424Z</time>
      </trkpt>
      <trkpt lat="43.74146" lon="1.53229">
        <ele>195.593865</ele>
        <time>2023-09-17T11:33:57.424Z</time>
      </trkpt>
      <trkpt lat="43.74136" lon="1.53227">
        <ele>194.5579</ele>
        <time>2023-09-17T11:33:58.424Z</time>
      </trkpt>
      <trkpt lat="43.74136" lon="1.53227">
        <ele>194.5579</ele>
        <time>2023-09-17T11:33:58.424Z</time>
      </trkpt>
      <trkpt lat="43.74126" lon="1.53224">
        <ele>193.44962</ele>
        <time>2023-09-17T11:33:59.424Z</time>
      </trkpt>
      <trkpt lat="43.74126" lon="1.53224">
        <ele>193.44962</ele>
        <time>2023-09-17T11:33:59.424Z</time>
      </trkpt>
      <trkpt lat="43.74118" lon="1.53219">
        <ele>192.430843</ele>
        <time>2023-09-17T11:34:00.424Z</time>
      </trkpt>
      <trkpt lat="43.74118" lon="1.53219">
        <ele>192.430843</ele>
        <time>2023-09-17T11:34:00.424Z</time>
      </trkpt>
      <trkpt lat="43.74109" lon="1.53212">
        <ele>191.29167</ele>
        <time>2023-09-17T11:34:01.424Z</time>
      </trkpt>
      <trkpt lat="43.74109" lon="1.53212">
        <ele>191.29167</ele>
        <time>2023-09-17T11:34:01.424Z</time>
      </trkpt>
      <trkpt lat="43.74099" lon="1.53204">
        <ele>190.128945</ele>
        <time>2023-09-17T11:34:02.424Z</time>
      </trkpt>
      <trkpt lat="43.74099" lon="1.53204">
        <ele>190.128945</ele>
        <time>2023-09-17T11:34:02.424Z</time>
      </trkpt>
      <trkpt lat="43.74091" lon="1.53196">
        <ele>188.981752</ele>
        <time>2023-09-17T11:34:03.424Z</time>
      </trkpt>
      <trkpt lat="43.74091" lon="1.53196">
        <ele>188.981752</ele>
        <time>2023-09-17T11:34:03.424Z</time>
      </trkpt>
      <trkpt lat="43.74082" lon="1.53188">
        <ele>187.834471</ele>
        <time>2023-09-17T11:34:04.424Z</time>
      </trkpt>
      <trkpt lat="43.74082" lon="1.53188">
        <ele>187.834471</ele>
        <time>2023-09-17T11:34:04.424Z</time>
      </trkpt>
      <trkpt lat="43.74072" lon="1.53181">
        <ele>186.698576</ele>
        <time>2023-09-17T11:34:05.424Z</time>
      </trkpt>
      <trkpt lat="43.74072" lon="1.53181">
        <ele>186.698576</ele>
        <time>2023-09-17T11:34:05.424Z</time>
      </trkpt>
      <trkpt lat="43.74062" lon="1.53176">
        <ele>185.546009</ele>
        <time>2023-09-17T11:34:06.424Z</time>
      </trkpt>
      <trkpt lat="43.74062" lon="1.53176">
        <ele>185.546009</ele>
        <time>2023-09-17T11:34:06.424Z</time>
      </trkpt>
      <trkpt lat="43.74052" lon="1.53173">
        <ele>184.39711</ele>
        <time>2023-09-17T11:34:07.424Z</time>
      </trkpt>
      <trkpt lat="43.74052" lon="1.53173">
        <ele>184.39711</ele>
        <time>2023-09-17T11:34:07.424Z</time>
      </trkpt>
      <trkpt lat="43.74042" lon="1.5317">
        <ele>183.307334</ele>
        <time>2023-09-17T11:34:08.424Z</time>
      </trkpt>
      <trkpt lat="43.74042" lon="1.5317">
        <ele>183.307334</ele>
        <time>2023-09-17T11:34:08.424Z</time>
      </trkpt>
      <trkpt lat="43.74033" lon="1.53168">
        <ele>182.261516</ele>
        <time>2023-09-17T11:34:09.424Z</time>
      </trkpt>
      <trkpt lat="43.74033" lon="1.53168">
        <ele>182.261516</ele>
        <time>2023-09-17T11:34:09.424Z</time>
      </trkpt>
      <trkpt lat="43.74023" lon="1.53166">
        <ele>181.221082</ele>
        <time>2023-09-17T11:34:10.424Z</time>
      </trkpt>
      <trkpt lat="43.74023" lon="1.53166">
        <ele>181.221082</ele>
        <time>2023-09-17T11:34:10.424Z</time>
      </trkpt>
      <trkpt lat="43.74014" lon="1.53164">
        <ele>180.262183</ele>
        <time>2023-09-17T11:34:11.424Z</time>
      </trkpt>
      <trkpt lat="43.74014" lon="1.53164">
        <ele>180.262183</ele>
        <time>2023-09-17T11:34:11.424Z</time>
      </trkpt>
      <trkpt lat="43.74005" lon="1.53163">
        <ele>179.218207</ele>
        <time>2023-09-17T11:34:12.424Z</time>
      </trkpt>
      <trkpt lat="43.74005" lon="1.53163">
        <ele>179.218207</ele>
        <time>2023-09-17T11:34:12.424Z</time>
      </trkpt>
      <trkpt lat="43.73994" lon="1.53161">
        <ele>177.814155</ele>
        <time>2023-09-17T11:34:13.424Z</time>
      </trkpt>
      <trkpt lat="43.73994" lon="1.53161">
        <ele>177.814155</ele>
        <time>2023-09-17T11:34:13.424Z</time>
      </trkpt>
      <trkpt lat="43.73983" lon="1.53158">
        <ele>176.246497</ele>
        <time>2023-09-17T11:34:14.424Z</time>
      </trkpt>
      <trkpt lat="43.73983" lon="1.53158">
        <ele>176.246497</ele>
        <time>2023-09-17T11:34:14.424Z</time>
      </trkpt>
      <trkpt lat="43.73971" lon="1.53155">
        <ele>174.61279</ele>
        <time>2023-09-17T11:34:15.424Z</time>
      </trkpt>
      <trkpt lat="43.73971" lon="1.53155">
        <ele>174.61279</ele>
        <time>2023-09-17T11:34:15.424Z</time>
      </trkpt>
      <trkpt lat="43.73958" lon="1.53151">
        <ele>172.805554</ele>
        <time>2023-09-17T11:34:16.424Z</time>
      </trkpt>
      <trkpt lat="43.73958" lon="1.53151">
        <ele>172.805554</ele>
        <time>2023-09-17T11:34:16.424Z</time>
      </trkpt>
      <trkpt lat="43.73946" lon="1.53147">
        <ele>171.05114</ele>
        <time>2023-09-17T11:34:17.424Z</time>
      </trkpt>
      <trkpt lat="43.73946" lon="1.53147">
        <ele>171.05114</ele>
        <time>2023-09-17T11:34:17.424Z</time>
      </trkpt>
      <trkpt lat="43.73933" lon="1.53142">
        <ele>169.347121</ele>
        <time>2023-09-17T11:34:18.424Z</time>
      </trkpt>
      <trkpt lat="43.73933" lon="1.53142">
        <ele>169.347121</ele>
        <time>2023-09-17T11:34:18.424Z</time>
      </trkpt>
      <trkpt lat="43.73921" lon="1.53137">
        <ele>167.613946</ele>
        <time>2023-09-17T11:34:19.424Z</time>
      </trkpt>
      <trkpt lat="43.73921" lon="1.53137">
        <ele>167.613946</ele>
        <time>2023-09-17T11:34:19.424Z</time>
      </trkpt>
      <trkpt lat="43.73909" lon="1.53132">
        <ele>165.938363</ele>
        <time>2023-09-17T11:34:20.424Z</time>
      </trkpt>
      <trkpt lat="43.73909" lon="1.53132">
        <ele>165.938363</ele>
        <time>2023-09-17T11:34:20.424Z</time>
      </trkpt>
      <trkpt lat="43.73897" lon="1.53127">
        <ele>164.156206</ele>
        <time>2023-09-17T11:34:21.424Z</time>
      </trkpt>
      <trkpt lat="43.73897" lon="1.53127">
        <ele>164.156206</ele>
        <time>2023-09-17T11:34:21.424Z</time>
      </trkpt>
      <trkpt lat="43.73885" lon="1.53122">
        <ele>162.497188</ele>
        <time>2023-09-17T11:34:22.424Z</time>
      </trkpt>
      <trkpt lat="43.73885" lon="1.53122">
        <ele>162.497188</ele>
        <time>2023-09-17T11:34:22.424Z</time>
      </trkpt>
      <trkpt lat="43.73873" lon="1.53118">
        <ele>160.832601</ele>
        <time>2023-09-17T11:34:23.424Z</time>
      </trkpt>
      <trkpt lat="43.73873" lon="1.53118">
        <ele>160.832601</ele>
        <time>2023-09-17T11:34:23.424Z</time>
      </trkpt>
      <trkpt lat="43.73863" lon="1.53115">
        <ele>159.359939</ele>
        <time>2023-09-17T11:34:24.424Z</time>
      </trkpt>
      <trkpt lat="43.73863" lon="1.53115">
        <ele>159.359939</ele>
        <time>2023-09-17T11:34:24.424Z</time>
      </trkpt>
      <trkpt lat="43.73854" lon="1.53112">
        <ele>158.140279</ele>
        <time>2023-09-17T11:34:25.424Z</time>
      </trkpt>
      <trkpt lat="43.73854" lon="1.53112">
        <ele>158.140279</ele>
        <time>2023-09-17T11:34:25.424Z</time>
      </trkpt>
      <trkpt lat="43.73846" lon="1.53109">
        <ele>157.076753</ele>
        <time>2023-09-17T11:34:26.424Z</time>
      </trkpt>
      <trkpt lat="43.73846" lon="1.53109">
        <ele>157.076753</ele>
        <time>2023-09-17T11:34:26.424Z</time>
      </trkpt>
      <trkpt lat="43.73838" lon="1.53107">
        <ele>155.903299</ele>
        <time>2023-09-17T11:34:27.424Z</time>
      </trkpt>
      <trkpt lat="43.73838" lon="1.53107">
        <ele>155.903299</ele>
        <time>2023-09-17T11:34:27.424Z</time>
      </trkpt>
      <trkpt lat="43.7383" lon="1.53104">
        <ele>154.825822</ele>
        <time>2023-09-17T11:34:28.424Z</time>
      </trkpt>
      <trkpt lat="43.7383" lon="1.53104">
        <ele>154.825822</ele>
        <time>2023-09-17T11:34:28.424Z</time>
      </trkpt>
      <trkpt lat="43.73822" lon="1.531">
        <ele>154.567775</ele>
        <time>2023-09-17T11:34:29.424Z</time>
      </trkpt>
      <trkpt lat="43.73822" lon="1.531">
        <ele>154.567775</ele>
        <time>2023-09-17T11:34:29.424Z</time>
      </trkpt>
      <trkpt lat="43.73815" lon="1.53097">
        <ele>154.319643</ele>
        <time>2023-09-17T11:34:30.424Z</time>
      </trkpt>
      <trkpt lat="43.73815" lon="1.53097">
        <ele>154.319643</ele>
        <time>2023-09-17T11:34:30.424Z</time>
      </trkpt>
      <trkpt lat="43.73809" lon="1.53092">
        <ele>154.094538</ele>
        <time>2023-09-17T11:34:31.424Z</time>
      </trkpt>
      <trkpt lat="43.73809" lon="1.53092">
        <ele>154.094538</ele>
        <time>2023-09-17T11:34:31.424Z</time>
      </trkpt>
      <trkpt lat="43.73803" lon="1.53087">
        <ele>153.875254</ele>
        <time>2023-09-17T11:34:32.424Z</time>
      </trkpt>
      <trkpt lat="43.73803" lon="1.53087">
        <ele>153.875254</ele>
        <time>2023-09-17T11:34:32.424Z</time>
      </trkpt>
      <trkpt lat="43.73798" lon="1.53081">
        <ele>153.643892</ele>
        <time>2023-09-17T11:34:33.424Z</time>
      </trkpt>
      <trkpt lat="43.73798" lon="1.53081">
        <ele>153.643892</ele>
        <time>2023-09-17T11:34:33.424Z</time>
      </trkpt>
      <trkpt lat="43.73792" lon="1.53075">
        <ele>153.4167</ele>
        <time>2023-09-17T11:34:34.424Z</time>
      </trkpt>
      <trkpt lat="43.73792" lon="1.53075">
        <ele>153.4167</ele>
        <time>2023-09-17T11:34:34.424Z</time>
      </trkpt>
      <trkpt lat="43.73787" lon="1.5307">
        <ele>153.207421</ele>
        <time>2023-09-17T11:34:35.424Z</time>
      </trkpt>
      <trkpt lat="43.73787" lon="1.5307">
        <ele>153.207421</ele>
        <time>2023-09-17T11:34:35.424Z</time>
      </trkpt>
      <trkpt lat="43.73782" lon="1.53064">
        <ele>152.999115</ele>
        <time>2023-09-17T11:34:36.424Z</time>
      </trkpt>
      <trkpt lat="43.73782" lon="1.53064">
        <ele>152.999115</ele>
        <time>2023-09-17T11:34:36.424Z</time>
      </trkpt>
      <trkpt lat="43.73777" lon="1.53059">
        <ele>152.795643</ele>
        <time>2023-09-17T11:34:37.424Z</time>
      </trkpt>
      <trkpt lat="43.73777" lon="1.53059">
        <ele>152.795643</ele>
        <time>2023-09-17T11:34:37.424Z</time>
      </trkpt>
      <trkpt lat="43.73772" lon="1.53054">
        <ele>152.589724</ele>
        <time>2023-09-17T11:34:38.424Z</time>
      </trkpt>
      <trkpt lat="43.73772" lon="1.53054">
        <ele>152.589724</ele>
        <time>2023-09-17T11:34:38.424Z</time>
      </trkpt>
      <trkpt lat="43.73767" lon="1.53049">
        <ele>152.39313</ele>
        <time>2023-09-17T11:34:39.424Z</time>
      </trkpt>
      <trkpt lat="43.73767" lon="1.53049">
        <ele>152.39313</ele>
        <time>2023-09-17T11:34:39.424Z</time>
      </trkpt>
      <trkpt lat="43.73762" lon="1.53044">
        <ele>152.200442</ele>
        <time>2023-09-17T11:34:40.424Z</time>
      </trkpt>
      <trkpt lat="43.73757" lon="1.5304">
        <ele>152.012995</ele>
        <time>2023-09-17T11:34:41.424Z</time>
      </trkpt>
      <trkpt lat="43.73757" lon="1.5304">
        <ele>152.012995</ele>
        <time>2023-09-17T11:34:41.424Z</time>
      </trkpt>
      <trkpt lat="43.73752" lon="1.53036">
        <ele>151.828704</ele>
        <time>2023-09-17T11:34:42.424Z</time>
      </trkpt>
      <trkpt lat="43.73747" lon="1.53033">
        <ele>151.649474</ele>
        <time>2023-09-17T11:34:43.424Z</time>
      </trkpt>
      <trkpt lat="43.73741" lon="1.53029">
        <ele>151.446873</ele>
        <time>2023-09-17T11:34:44.424Z</time>
      </trkpt>
      <trkpt lat="43.73741" lon="1.53029">
        <ele>151.446873</ele>
        <time>2023-09-17T11:34:44.424Z</time>
      </trkpt>
      <trkpt lat="43.73735" lon="1.53026">
        <ele>151.236931</ele>
        <time>2023-09-17T11:34:45.424Z</time>
      </trkpt>
      <trkpt lat="43.7373" lon="1.53024">
        <ele>151.056028</ele>
        <time>2023-09-17T11:34:46.424Z</time>
      </trkpt>
      <trkpt lat="43.73724" lon="1.53021">
        <ele>150.86213</ele>
        <time>2023-09-17T11:34:47.424Z</time>
      </trkpt>
      <trkpt lat="43.73724" lon="1.53021">
        <ele>150.86213</ele>
        <time>2023-09-17T11:34:47.424Z</time>
      </trkpt>
      <trkpt lat="43.73718" lon="1.53019">
        <ele>150.668233</ele>
        <time>2023-09-17T11:34:48.424Z</time>
      </trkpt>
      <trkpt lat="43.73718" lon="1.53019">
        <ele>150.668233</ele>
        <time>2023-09-17T11:34:48.424Z</time>
      </trkpt>
      <trkpt lat="43.73713" lon="1.53016">
        <ele>150.485696</ele>
        <time>2023-09-17T11:34:49.424Z</time>
      </trkpt>
      <trkpt lat="43.73708" lon="1.53014">
        <ele>150.306245</ele>
        <time>2023-09-17T11:34:50.424Z</time>
      </trkpt>
      <trkpt lat="43.73702" lon="1.53012">
        <ele>150.116825</ele>
        <time>2023-09-17T11:34:51.424Z</time>
      </trkpt>
      <trkpt lat="43.73697" lon="1.53011">
        <ele>149.951535</ele>
        <time>2023-09-17T11:34:52.424Z</time>
      </trkpt>
      <trkpt lat="43.73697" lon="1.53011">
        <ele>149.951535</ele>
        <time>2023-09-17T11:34:52.424Z</time>
      </trkpt>
      <trkpt lat="43.73692" lon="1.5301">
        <ele>149.778389</ele>
        <time>2023-09-17T11:34:53.424Z</time>
      </trkpt>
      <trkpt lat="43.73687" lon="1.53009">
        <ele>149.616026</ele>
        <time>2023-09-17T11:34:54.424Z</time>
      </trkpt>
      <trkpt lat="43.73681" lon="1.53008">
        <ele>149.442126</ele>
        <time>2023-09-17T11:34:55.424Z</time>
      </trkpt>
      <trkpt lat="43.73676" lon="1.53006">
        <ele>149.262675</ele>
        <time>2023-09-17T11:34:56.424Z</time>
      </trkpt>
      <trkpt lat="43.73676" lon="1.53006">
        <ele>149.262675</ele>
        <time>2023-09-17T11:34:56.424Z</time>
      </trkpt>
      <trkpt lat="43.7367" lon="1.53004">
        <ele>149.072108</ele>
        <time>2023-09-17T11:34:57.424Z</time>
      </trkpt>
      <trkpt lat="43.7367" lon="1.53004">
        <ele>149.072108</ele>
        <time>2023-09-17T11:34:57.424Z</time>
      </trkpt>
      <trkpt lat="43.73665" lon="1.53001">
        <ele>148.975783</ele>
        <time>2023-09-17T11:34:58.424Z</time>
      </trkpt>
      <trkpt lat="43.73659" lon="1.52998">
        <ele>148.908386</ele>
        <time>2023-09-17T11:34:59.424Z</time>
      </trkpt>
      <trkpt lat="43.73659" lon="1.52998">
        <ele>148.908386</ele>
        <time>2023-09-17T11:34:59.424Z</time>
      </trkpt>
      <trkpt lat="43.73654" lon="1.52995">
        <ele>148.853928</ele>
        <time>2023-09-17T11:35:00.424Z</time>
      </trkpt>
      <trkpt lat="43.73648" lon="1.52993">
        <ele>148.788024</ele>
        <time>2023-09-17T11:35:00.424Z</time>
      </trkpt>
      <trkpt lat="43.73648" lon="1.52993">
        <ele>148.788024</ele>
        <time>2023-09-17T11:35:00.424Z</time>
      </trkpt>
      <trkpt lat="43.73642" lon="1.5299">
        <ele>148.72943</ele>
        <time>2023-09-17T11:35:02.424Z</time>
      </trkpt>
      <trkpt lat="43.73636" lon="1.52988">
        <ele>148.664562</ele>
        <time>2023-09-17T11:35:02.424Z</time>
      </trkpt>
      <trkpt lat="43.73636" lon="1.52988">
        <ele>148.664562</ele>
        <time>2023-09-17T11:35:02.424Z</time>
      </trkpt>
      <trkpt lat="43.73631" lon="1.52986">
        <ele>148.60456</ele>
        <time>2023-09-17T11:35:04.424Z</time>
      </trkpt>
      <trkpt lat="43.73625" lon="1.52985">
        <ele>148.544558</ele>
        <time>2023-09-17T11:35:05.424Z</time>
      </trkpt>
      <trkpt lat="43.73625" lon="1.52985">
        <ele>148.544558</ele>
        <time>2023-09-17T11:35:05.424Z</time>
      </trkpt>
      <trkpt lat="43.73619" lon="1.52983">
        <ele>148.480527</ele>
        <time>2023-09-17T11:35:06.424Z</time>
      </trkpt>
      <trkpt lat="43.73612" lon="1.52982">
        <ele>148.413305</ele>
        <time>2023-09-17T11:35:07.424Z</time>
      </trkpt>
      <trkpt lat="43.73612" lon="1.52982">
        <ele>148.413305</ele>
        <time>2023-09-17T11:35:07.424Z</time>
      </trkpt>
      <trkpt lat="43.73606" lon="1.52982">
        <ele>148.346314</ele>
        <time>2023-09-17T11:35:08.424Z</time>
      </trkpt>
      <trkpt lat="43.736" lon="1.52981">
        <ele>148.283432</ele>
        <time>2023-09-17T11:35:09.424Z</time>
      </trkpt>
      <trkpt lat="43.736" lon="1.52981">
        <ele>148.283432</ele>
        <time>2023-09-17T11:35:09.424Z</time>
      </trkpt>
      <trkpt lat="43.73594" lon="1.52981">
        <ele>148.224702</ele>
        <time>2023-09-17T11:35:10.424Z</time>
      </trkpt>
      <trkpt lat="43.73587" lon="1.5298">
        <ele>148.153449</ele>
        <time>2023-09-17T11:35:11.424Z</time>
      </trkpt>
      <trkpt lat="43.73587" lon="1.5298">
        <ele>148.153449</ele>
        <time>2023-09-17T11:35:11.424Z</time>
      </trkpt>
      <trkpt lat="43.73581" lon="1.52979">
        <ele>148.090322</ele>
        <time>2023-09-17T11:35:12.424Z</time>
      </trkpt>
      <trkpt lat="43.73575" lon="1.52978">
        <ele>148.027269</ele>
        <time>2023-09-17T11:35:13.424Z</time>
      </trkpt>
      <trkpt lat="43.73568" lon="1.52977">
        <ele>147.957101</ele>
        <time>2023-09-17T11:35:14.424Z</time>
      </trkpt>
      <trkpt lat="43.73568" lon="1.52977">
        <ele>147.957101</ele>
        <time>2023-09-17T11:35:14.424Z</time>
      </trkpt>
      <trkpt lat="43.73561" lon="1.52977">
        <ele>147.886</ele>
        <time>2023-09-17T11:35:15.424Z</time>
      </trkpt>
      <trkpt lat="43.73555" lon="1.52977">
        <ele>147.819046</ele>
        <time>2023-09-17T11:35:16.424Z</time>
      </trkpt>
      <trkpt lat="43.73548" lon="1.52976">
        <ele>147.748038</ele>
        <time>2023-09-17T11:35:17.424Z</time>
      </trkpt>
      <trkpt lat="43.73548" lon="1.52976">
        <ele>147.748038</ele>
        <time>2023-09-17T11:35:17.424Z</time>
      </trkpt>
      <trkpt lat="43.73542" lon="1.52976">
        <ele>147.685249</ele>
        <time>2023-09-17T11:35:18.424Z</time>
      </trkpt>
      <trkpt lat="43.73535" lon="1.52975">
        <ele>147.618685</ele>
        <time>2023-09-17T11:35:19.424Z</time>
      </trkpt>
      <trkpt lat="43.73529" lon="1.52974">
        <ele>147.555474</ele>
        <time>2023-09-17T11:35:20.424Z</time>
      </trkpt>
      <trkpt lat="43.73529" lon="1.52974">
        <ele>147.555474</ele>
        <time>2023-09-17T11:35:20.424Z</time>
      </trkpt>
      <trkpt lat="43.73523" lon="1.52973">
        <ele>147.488384</ele>
        <time>2023-09-17T11:35:21.424Z</time>
      </trkpt>
      <trkpt lat="43.73516" lon="1.52972">
        <ele>147.417066</ele>
        <time>2023-09-17T11:35:22.424Z</time>
      </trkpt>
      <trkpt lat="43.73509" lon="1.52971">
        <ele>147.349844</ele>
        <time>2023-09-17T11:35:23.424Z</time>
      </trkpt>
      <trkpt lat="43.73503" lon="1.52971">
        <ele>147.286791</ele>
        <time>2023-09-17T11:35:24.424Z</time>
      </trkpt>
      <trkpt lat="43.73497" lon="1.5297">
        <ele>147.227568</ele>
        <time>2023-09-17T11:35:25.424Z</time>
      </trkpt>
      <trkpt lat="43.73491" lon="1.52968">
        <ele>147.164576</ele>
        <time>2023-09-17T11:35:26.424Z</time>
      </trkpt>
      <trkpt lat="43.73486" lon="1.52966">
        <ele>147.17526</ele>
        <time>2023-09-17T11:35:27.424Z</time>
      </trkpt>
      <trkpt lat="43.7348" lon="1.52964">
        <ele>147.1877</ele>
        <time>2023-09-17T11:35:28.424Z</time>
      </trkpt>
      <trkpt lat="43.73474" lon="1.52963">
        <ele>147.199181</ele>
        <time>2023-09-17T11:35:29.424Z</time>
      </trkpt>
      <trkpt lat="43.73468" lon="1.52961">
        <ele>147.210549</ele>
        <time>2023-09-17T11:35:30.424Z</time>
      </trkpt>
      <trkpt lat="43.73462" lon="1.5296">
        <ele>147.22354</ele>
        <time>2023-09-17T11:35:31.424Z</time>
      </trkpt>
      <trkpt lat="43.73455" lon="1.52958">
        <ele>147.23653</ele>
        <time>2023-09-17T11:35:31.424Z</time>
      </trkpt>
      <trkpt lat="43.73449" lon="1.52956">
        <ele>147.248778</ele>
        <time>2023-09-17T11:35:33.424Z</time>
      </trkpt>
      <trkpt lat="43.73444" lon="1.52954">
        <ele>147.260399</ele>
        <time>2023-09-17T11:35:34.424Z</time>
      </trkpt>
      <trkpt lat="43.73438" lon="1.52951">
        <ele>147.273261</ele>
        <time>2023-09-17T11:35:34.424Z</time>
      </trkpt>
      <trkpt lat="43.73438" lon="1.52951">
        <ele>147.273261</ele>
        <time>2023-09-17T11:35:34.424Z</time>
      </trkpt>
      <trkpt lat="43.73432" lon="1.52946">
        <ele>147.285184</ele>
        <time>2023-09-17T11:35:36.424Z</time>
      </trkpt>
      <trkpt lat="43.73427" lon="1.52941">
        <ele>147.29835</ele>
        <time>2023-09-17T11:35:37.424Z</time>
      </trkpt>
      <trkpt lat="43.73422" lon="1.52935">
        <ele>147.31096</ele>
        <time>2023-09-17T11:35:38.424Z</time>
      </trkpt>
      <trkpt lat="43.73422" lon="1.52935">
        <ele>147.31096</ele>
        <time>2023-09-17T11:35:38.424Z</time>
      </trkpt>
      <trkpt lat="43.73418" lon="1.52928">
        <ele>147.32398</ele>
        <time>2023-09-17T11:35:39.424Z</time>
      </trkpt>
      <trkpt lat="43.73414" lon="1.5292">
        <ele>147.336746</ele>
        <time>2023-09-17T11:35:40.424Z</time>
      </trkpt>
      <trkpt lat="43.7341" lon="1.52913">
        <ele>147.350094</ele>
        <time>2023-09-17T11:35:41.424Z</time>
      </trkpt>
      <trkpt lat="43.73407" lon="1.52905">
        <ele>147.36302</ele>
        <time>2023-09-17T11:35:42.424Z</time>
      </trkpt>
      <trkpt lat="43.73407" lon="1.52905">
        <ele>147.36302</ele>
        <time>2023-09-17T11:35:42.424Z</time>
      </trkpt>
      <trkpt lat="43.73404" lon="1.52897">
        <ele>147.376048</ele>
        <time>2023-09-17T11:35:43.424Z</time>
      </trkpt>
      <trkpt lat="43.734" lon="1.52889">
        <ele>147.389871</ele>
        <time>2023-09-17T11:35:44.424Z</time>
      </trkpt>
      <trkpt lat="43.73396" lon="1.52882">
        <ele>147.402075</ele>
        <time>2023-09-17T11:35:45.424Z</time>
      </trkpt>
      <trkpt lat="43.73392" lon="1.52875">
        <ele>147.414877</ele>
        <time>2023-09-17T11:35:46.424Z</time>
      </trkpt>
      <trkpt lat="43.73388" lon="1.52869">
        <ele>147.427388</ele>
        <time>2023-09-17T11:35:47.424Z</time>
      </trkpt>
      <trkpt lat="43.73383" lon="1.52863">
        <ele>147.439688</ele>
        <time>2023-09-17T11:35:48.424Z</time>
      </trkpt>
      <trkpt lat="43.73378" lon="1.52858">
        <ele>147.451557</ele>
        <time>2023-09-17T11:35:49.424Z</time>
      </trkpt>
      <trkpt lat="43.73372" lon="1.52854">
        <ele>147.46466</ele>
        <time>2023-09-17T11:35:50.424Z</time>
      </trkpt>
      <trkpt lat="43.73372" lon="1.52854">
        <ele>147.46466</ele>
        <time>2023-09-17T11:35:50.424Z</time>
      </trkpt>
      <trkpt lat="43.73366" lon="1.52849">
        <ele>147.478235</ele>
        <time>2023-09-17T11:35:51.424Z</time>
      </trkpt>
      <trkpt lat="43.7336" lon="1.52845">
        <ele>147.490399</ele>
        <time>2023-09-17T11:35:52.424Z</time>
      </trkpt>
      <trkpt lat="43.73356" lon="1.5284">
        <ele>147.502611</ele>
        <time>2023-09-17T11:35:53.424Z</time>
      </trkpt>
      <trkpt lat="43.73351" lon="1.52833">
        <ele>147.516279</ele>
        <time>2023-09-17T11:35:54.424Z</time>
      </trkpt>
      <trkpt lat="43.73351" lon="1.52833">
        <ele>147.516279</ele>
        <time>2023-09-17T11:35:54.424Z</time>
      </trkpt>
      <trkpt lat="43.73348" lon="1.52825">
        <ele>147.509449</ele>
        <time>2023-09-17T11:35:55.424Z</time>
      </trkpt>
      <trkpt lat="43.73346" lon="1.52816">
        <ele>147.500404</ele>
        <time>2023-09-17T11:35:56.424Z</time>
      </trkpt>
      <trkpt lat="43.73344" lon="1.5281">
        <ele>147.494272</ele>
        <time>2023-09-17T11:35:57.424Z</time>
      </trkpt>
      <trkpt lat="43.73343" lon="1.52799">
        <ele>147.483229</ele>
        <time>2023-09-17T11:35:57.424Z</time>
      </trkpt>
      <trkpt lat="43.73341" lon="1.52791">
        <ele>147.47528</ele>
        <time>2023-09-17T11:35:59.424Z</time>
      </trkpt>
      <trkpt lat="43.73338" lon="1.52782">
        <ele>147.465954</ele>
        <time>2023-09-17T11:36:00.424Z</time>
      </trkpt>
      <trkpt lat="43.73338" lon="1.52782">
        <ele>147.465954</ele>
        <time>2023-09-17T11:36:00.424Z</time>
      </trkpt>
      <trkpt lat="43.73335" lon="1.52773">
        <ele>147.456014</ele>
        <time>2023-09-17T11:36:01.424Z</time>
      </trkpt>
      <trkpt lat="43.73332" lon="1.52765">
        <ele>147.446293</ele>
        <time>2023-09-17T11:36:02.424Z</time>
      </trkpt>
      <trkpt lat="43.73332" lon="1.52765">
        <ele>147.446293</ele>
        <time>2023-09-17T11:36:02.424Z</time>
      </trkpt>
      <trkpt lat="43.73327" lon="1.52754">
        <ele>147.434522</ele>
        <time>2023-09-17T11:36:03.424Z</time>
      </trkpt>
      <trkpt lat="43.73323" lon="1.52747">
        <ele>147.425261</ele>
        <time>2023-09-17T11:36:04.424Z</time>
      </trkpt>
      <trkpt lat="43.73323" lon="1.52747">
        <ele>147.425261</ele>
        <time>2023-09-17T11:36:04.424Z</time>
      </trkpt>
      <trkpt lat="43.7332" lon="1.52739">
        <ele>147.415667</ele>
        <time>2023-09-17T11:36:05.424Z</time>
      </trkpt>
      <trkpt lat="43.73316" lon="1.5273">
        <ele>147.405823</ele>
        <time>2023-09-17T11:36:06.424Z</time>
      </trkpt>
      <trkpt lat="43.73312" lon="1.52721">
        <ele>147.396168</ele>
        <time>2023-09-17T11:36:07.424Z</time>
      </trkpt>
      <trkpt lat="43.73309" lon="1.52713">
        <ele>147.386656</ele>
        <time>2023-09-17T11:36:08.424Z</time>
      </trkpt>
      <trkpt lat="43.73305" lon="1.52705">
        <ele>147.377106</ele>
        <time>2023-09-17T11:36:08.424Z</time>
      </trkpt>
      <trkpt lat="43.73301" lon="1.52697">
        <ele>147.367512</ele>
        <time>2023-09-17T11:36:09.424Z</time>
      </trkpt>
      <trkpt lat="43.73298" lon="1.52688">
        <ele>147.357423</ele>
        <time>2023-09-17T11:36:11.424Z</time>
      </trkpt>
      <trkpt lat="43.73294" lon="1.5268">
        <ele>147.348127</ele>
        <time>2023-09-17T11:36:11.424Z</time>
      </trkpt>
      <trkpt lat="43.73291" lon="1.5267">
        <ele>147.337347</ele>
        <time>2023-09-17T11:36:13.424Z</time>
      </trkpt>
      <trkpt lat="43.73287" lon="1.52661">
        <ele>147.327692</ele>
        <time>2023-09-17T11:36:13.424Z</time>
      </trkpt>
      <trkpt lat="43.73284" lon="1.52652">
        <ele>147.317514</ele>
        <time>2023-09-17T11:36:15.424Z</time>
      </trkpt>
      <trkpt lat="43.73281" lon="1.52644">
        <ele>147.308225</ele>
        <time>2023-09-17T11:36:16.424Z</time>
      </trkpt>
      <trkpt lat="43.73277" lon="1.52634">
        <ele>147.297695</ele>
        <time>2023-09-17T11:36:17.424Z</time>
      </trkpt>
      <trkpt lat="43.73274" lon="1.52625">
        <ele>147.288053</ele>
        <time>2023-09-17T11:36:18.424Z</time>
      </trkpt>
      <trkpt lat="43.73271" lon="1.52616">
        <ele>147.278138</ele>
        <time>2023-09-17T11:36:19.424Z</time>
      </trkpt>
      <trkpt lat="43.73271" lon="1.52616">
        <ele>147.278138</ele>
        <time>2023-09-17T11:36:19.424Z</time>
      </trkpt>
      <trkpt lat="43.73268" lon="1.52607">
        <ele>147.271943</ele>
        <time>2023-09-17T11:36:20.424Z</time>
      </trkpt>
      <trkpt lat="43.73264" lon="1.52599">
        <ele>147.270812</ele>
        <time>2023-09-17T11:36:21.424Z</time>
      </trkpt>
      <trkpt lat="43.73261" lon="1.52589">
        <ele>147.269599</ele>
        <time>2023-09-17T11:36:21.424Z</time>
      </trkpt>
      <trkpt lat="43.73257" lon="1.52581">
        <ele>147.268435</ele>
        <time>2023-09-17T11:36:23.424Z</time>
      </trkpt>
      <trkpt lat="43.73253" lon="1.52573">
        <ele>147.267271</ele>
        <time>2023-09-17T11:36:24.424Z</time>
      </trkpt>
      <trkpt lat="43.73253" lon="1.52573">
        <ele>147.267271</ele>
        <time>2023-09-17T11:36:24.424Z</time>
      </trkpt>
      <trkpt lat="43.7325" lon="1.52565">
        <ele>147.266182</ele>
        <time>2023-09-17T11:36:25.424Z</time>
      </trkpt>
      <trkpt lat="43.73246" lon="1.52557">
        <ele>147.265048</ele>
        <time>2023-09-17T11:36:26.424Z</time>
      </trkpt>
      <trkpt lat="43.73242" lon="1.52549">
        <ele>147.263953</ele>
        <time>2023-09-17T11:36:27.424Z</time>
      </trkpt>
      <trkpt lat="43.73238" lon="1.52542">
        <ele>147.262952</ele>
        <time>2023-09-17T11:36:28.424Z</time>
      </trkpt>
      <trkpt lat="43.73238" lon="1.52542">
        <ele>147.262952</ele>
        <time>2023-09-17T11:36:28.424Z</time>
      </trkpt>
      <trkpt lat="43.73234" lon="1.52536">
        <ele>147.261928</ele>
        <time>2023-09-17T11:36:29.424Z</time>
      </trkpt>
      <trkpt lat="43.7323" lon="1.52529">
        <ele>147.260886</ele>
        <time>2023-09-17T11:36:29.424Z</time>
      </trkpt>
      <trkpt lat="43.73226" lon="1.52522">
        <ele>147.25983</ele>
        <time>2023-09-17T11:36:31.424Z</time>
      </trkpt>
      <trkpt lat="43.73223" lon="1.52514">
        <ele>147.258835</ele>
        <time>2023-09-17T11:36:31.424Z</time>
      </trkpt>
      <trkpt lat="43.73223" lon="1.52514">
        <ele>147.258835</ele>
        <time>2023-09-17T11:36:31.424Z</time>
      </trkpt>
      <trkpt lat="43.7322" lon="1.52507">
        <ele>147.257808</ele>
        <time>2023-09-17T11:36:33.424Z</time>
      </trkpt>
      <trkpt lat="43.73217" lon="1.52499">
        <ele>147.256759</ele>
        <time>2023-09-17T11:36:34.424Z</time>
      </trkpt>
      <trkpt lat="43.73213" lon="1.52492">
        <ele>147.255702</ele>
        <time>2023-09-17T11:36:34.424Z</time>
      </trkpt>
      <trkpt lat="43.73209" lon="1.52485">
        <ele>147.254646</ele>
        <time>2023-09-17T11:36:36.424Z</time>
      </trkpt>
      <trkpt lat="43.73205" lon="1.52477">
        <ele>147.253541</ele>
        <time>2023-09-17T11:36:37.424Z</time>
      </trkpt>
      <trkpt lat="43.73201" lon="1.5247">
        <ele>147.252484</ele>
        <time>2023-09-17T11:36:38.424Z</time>
      </trkpt>
      <trkpt lat="43.73201" lon="1.5247">
        <ele>147.252484</ele>
        <time>2023-09-17T11:36:38.424Z</time>
      </trkpt>
      <trkpt lat="43.73198" lon="1.52462">
        <ele>147.251427</ele>
        <time>2023-09-17T11:36:39.424Z</time>
      </trkpt>
      <trkpt lat="43.73194" lon="1.52455">
        <ele>147.250398</ele>
        <time>2023-09-17T11:36:40.424Z</time>
      </trkpt>
      <trkpt lat="43.7319" lon="1.52448">
        <ele>147.249302</ele>
        <time>2023-09-17T11:36:41.424Z</time>
      </trkpt>
      <trkpt lat="43.7319" lon="1.52448">
        <ele>147.249302</ele>
        <time>2023-09-17T11:36:41.424Z</time>
      </trkpt>
      <trkpt lat="43.73186" lon="1.52442">
        <ele>147.24836</ele>
        <time>2023-09-17T11:36:42.424Z</time>
      </trkpt>
      <trkpt lat="43.73186" lon="1.52442">
        <ele>147.24836</ele>
        <time>2023-09-17T11:36:42.424Z</time>
      </trkpt>
      <trkpt lat="43.73182" lon="1.52434">
        <ele>147.247282</ele>
        <time>2023-09-17T11:36:43.424Z</time>
      </trkpt>
      <trkpt lat="43.73177" lon="1.52428">
        <ele>147.246222</ele>
        <time>2023-09-17T11:36:44.424Z</time>
      </trkpt>
      <trkpt lat="43.73173" lon="1.52422">
        <ele>147.245238</ele>
        <time>2023-09-17T11:36:45.424Z</time>
      </trkpt>
      <trkpt lat="43.73168" lon="1.52417">
        <ele>147.244178</ele>
        <time>2023-09-17T11:36:46.424Z</time>
      </trkpt>
      <trkpt lat="43.73163" lon="1.52412">
        <ele>147.242615</ele>
        <time>2023-09-17T11:36:47.424Z</time>
      </trkpt>
      <trkpt lat="43.73158" lon="1.52406">
        <ele>147.234121</ele>
        <time>2023-09-17T11:36:47.424Z</time>
      </trkpt>
      <trkpt lat="43.73153" lon="1.524">
        <ele>147.225175</ele>
        <time>2023-09-17T11:36:49.424Z</time>
      </trkpt>
      <trkpt lat="43.73147" lon="1.52394">
        <ele>147.215799</ele>
        <time>2023-09-17T11:36:49.424Z</time>
      </trkpt>
      <trkpt lat="43.73142" lon="1.52389">
        <ele>147.208094</ele>
        <time>2023-09-17T11:36:51.424Z</time>
      </trkpt>
      <trkpt lat="43.73137" lon="1.52383">
        <ele>147.199601</ele>
        <time>2023-09-17T11:36:52.424Z</time>
      </trkpt>
      <trkpt lat="43.73132" lon="1.52378">
        <ele>147.190597</ele>
        <time>2023-09-17T11:36:53.424Z</time>
      </trkpt>
      <trkpt lat="43.73127" lon="1.52372">
        <ele>147.182226</ele>
        <time>2023-09-17T11:36:53.424Z</time>
      </trkpt>
      <trkpt lat="43.73122" lon="1.52367">
        <ele>147.174281</ele>
        <time>2023-09-17T11:36:55.424Z</time>
      </trkpt>
      <trkpt lat="43.73117" lon="1.52361">
        <ele>147.165563</ele>
        <time>2023-09-17T11:36:56.424Z</time>
      </trkpt>
      <trkpt lat="43.73113" lon="1.52355">
        <ele>147.157132</ele>
        <time>2023-09-17T11:36:57.424Z</time>
      </trkpt>
      <trkpt lat="43.73108" lon="1.52349">
        <ele>147.148288</ele>
        <time>2023-09-17T11:36:58.424Z</time>
      </trkpt>
      <trkpt lat="43.73103" lon="1.52342">
        <ele>147.139763</ele>
        <time>2023-09-17T11:36:59.424Z</time>
      </trkpt>
      <trkpt lat="43.73098" lon="1.52336">
        <ele>147.131145</ele>
        <time>2023-09-17T11:37:00.424Z</time>
      </trkpt>
      <trkpt lat="43.73093" lon="1.5233">
        <ele>147.122753</ele>
        <time>2023-09-17T11:37:01.424Z</time>
      </trkpt>
      <trkpt lat="43.73089" lon="1.52324">
        <ele>147.114228</ele>
        <time>2023-09-17T11:37:02.424Z</time>
      </trkpt>
      <trkpt lat="43.73084" lon="1.52318">
        <ele>147.106063</ele>
        <time>2023-09-17T11:37:03.424Z</time>
      </trkpt>
      <trkpt lat="43.7308" lon="1.52312">
        <ele>147.097993</ele>
        <time>2023-09-17T11:37:04.424Z</time>
      </trkpt>
      <trkpt lat="43.73074" lon="1.52306">
        <ele>147.08875</ele>
        <time>2023-09-17T11:37:05.424Z</time>
      </trkpt>
      <trkpt lat="43.7307" lon="1.523">
        <ele>147.080585</ele>
        <time>2023-09-17T11:37:06.424Z</time>
      </trkpt>
      <trkpt lat="43.73065" lon="1.52294">
        <ele>147.071742</ele>
        <time>2023-09-17T11:37:07.424Z</time>
      </trkpt>
      <trkpt lat="43.7306" lon="1.52288">
        <ele>147.063082</ele>
        <time>2023-09-17T11:37:08.424Z</time>
      </trkpt>
      <trkpt lat="43.73056" lon="1.52282">
        <ele>147.055266</ele>
        <time>2023-09-17T11:37:09.424Z</time>
      </trkpt>
      <trkpt lat="43.73051" lon="1.52276">
        <ele>147.046585</ele>
        <time>2023-09-17T11:37:10.424Z</time>
      </trkpt>
      <trkpt lat="43.73047" lon="1.52269">
        <ele>147.037992</ele>
        <time>2023-09-17T11:37:11.424Z</time>
      </trkpt>
      <trkpt lat="43.73047" lon="1.52269">
        <ele>147.037992</ele>
        <time>2023-09-17T11:37:11.424Z</time>
      </trkpt>
      <trkpt lat="43.73042" lon="1.52263">
        <ele>147.028891</ele>
        <time>2023-09-17T11:37:12.424Z</time>
      </trkpt>
      <trkpt lat="43.73037" lon="1.52257">
        <ele>147.020593</ele>
        <time>2023-09-17T11:37:13.424Z</time>
      </trkpt>
      <trkpt lat="43.73033" lon="1.5225">
        <ele>147.012434</ele>
        <time>2023-09-17T11:37:14.424Z</time>
      </trkpt>
      <trkpt lat="43.73028" lon="1.52245">
        <ele>146.999141</ele>
        <time>2023-09-17T11:37:15.424Z</time>
      </trkpt>
      <trkpt lat="43.73023" lon="1.52239">
        <ele>146.965679</ele>
        <time>2023-09-17T11:37:16.424Z</time>
      </trkpt>
      <trkpt lat="43.73018" lon="1.52235">
        <ele>146.936528</ele>
        <time>2023-09-17T11:37:17.424Z</time>
      </trkpt>
      <trkpt lat="43.73013" lon="1.52232">
        <ele>146.90692</ele>
        <time>2023-09-17T11:37:18.424Z</time>
      </trkpt>
      <trkpt lat="43.73006" lon="1.52229">
        <ele>146.874957</ele>
        <time>2023-09-17T11:37:19.424Z</time>
      </trkpt>
      <trkpt lat="43.73001" lon="1.52228">
        <ele>146.846183</ele>
        <time>2023-09-17T11:37:20.424Z</time>
      </trkpt>
      <trkpt lat="43.72995" lon="1.52228">
        <ele>146.815686</ele>
        <time>2023-09-17T11:37:21.424Z</time>
      </trkpt>
      <trkpt lat="43.72995" lon="1.52228">
        <ele>146.815686</ele>
        <time>2023-09-17T11:37:21.424Z</time>
      </trkpt>
      <trkpt lat="43.72989" lon="1.5223">
        <ele>146.786425</ele>
        <time>2023-09-17T11:37:22.424Z</time>
      </trkpt>
      <trkpt lat="43.72983" lon="1.52233">
        <ele>146.754463</ele>
        <time>2023-09-17T11:37:23.424Z</time>
      </trkpt>
      <trkpt lat="43.72977" lon="1.52235">
        <ele>146.7225</ele>
        <time>2023-09-17T11:37:24.424Z</time>
      </trkpt>
      <trkpt lat="43.72971" lon="1.52238">
        <ele>146.692433</ele>
        <time>2023-09-17T11:37:25.424Z</time>
      </trkpt>
      <trkpt lat="43.72965" lon="1.52241">
        <ele>146.66047</ele>
        <time>2023-09-17T11:37:26.424Z</time>
      </trkpt>
      <trkpt lat="43.72959" lon="1.52243">
        <ele>146.630724</ele>
        <time>2023-09-17T11:37:27.424Z</time>
      </trkpt>
      <trkpt lat="43.72953" lon="1.52244">
        <ele>146.599739</ele>
        <time>2023-09-17T11:37:28.424Z</time>
      </trkpt>
      <trkpt lat="43.72953" lon="1.52244">
        <ele>146.599739</ele>
        <time>2023-09-17T11:37:28.424Z</time>
      </trkpt>
      <trkpt lat="43.72947" lon="1.52246">
        <ele>146.570847</ele>
        <time>2023-09-17T11:37:29.424Z</time>
      </trkpt>
      <trkpt lat="43.72942" lon="1.52247">
        <ele>146.542073</ele>
        <time>2023-09-17T11:37:30.424Z</time>
      </trkpt>
      <trkpt lat="43.72942" lon="1.52247">
        <ele>146.542073</ele>
        <time>2023-09-17T11:37:30.424Z</time>
      </trkpt>
      <trkpt lat="43.72936" lon="1.52248">
        <ele>146.511271</ele>
        <time>2023-09-17T11:37:31.424Z</time>
      </trkpt>
      <trkpt lat="43.72929" lon="1.52249">
        <ele>146.478544</ele>
        <time>2023-09-17T11:37:32.424Z</time>
      </trkpt>
      <trkpt lat="43.72929" lon="1.52249">
        <ele>146.478544</ele>
        <time>2023-09-17T11:37:32.424Z</time>
      </trkpt>
      <trkpt lat="43.72923" lon="1.52251">
        <ele>146.449769</ele>
        <time>2023-09-17T11:37:33.424Z</time>
      </trkpt>
      <trkpt lat="43.72918" lon="1.52252">
        <ele>146.420939</ele>
        <time>2023-09-17T11:37:34.424Z</time>
      </trkpt>
      <trkpt lat="43.72912" lon="1.52253">
        <ele>146.390137</ele>
        <time>2023-09-17T11:37:35.424Z</time>
      </trkpt>
      <trkpt lat="43.72905" lon="1.52255">
        <ele>146.359277</ele>
        <time>2023-09-17T11:37:36.424Z</time>
      </trkpt>
      <trkpt lat="43.729" lon="1.52256">
        <ele>146.330061</ele>
        <time>2023-09-17T11:37:37.424Z</time>
      </trkpt>
      <trkpt lat="43.729" lon="1.52256">
        <ele>146.330061</ele>
        <time>2023-09-17T11:37:37.424Z</time>
      </trkpt>
      <trkpt lat="43.72894" lon="1.52257">
        <ele>146.301468</ele>
        <time>2023-09-17T11:37:38.424Z</time>
      </trkpt>
      <trkpt lat="43.72888" lon="1.52257">
        <ele>146.270888</ele>
        <time>2023-09-17T11:37:39.424Z</time>
      </trkpt>
      <trkpt lat="43.72882" lon="1.52258">
        <ele>146.242432</ele>
        <time>2023-09-17T11:37:40.424Z</time>
      </trkpt>
      <trkpt lat="43.72876" lon="1.52257">
        <ele>146.213964</ele>
        <time>2023-09-17T11:37:41.424Z</time>
      </trkpt>
      <trkpt lat="43.7287" lon="1.52257">
        <ele>146.183444</ele>
        <time>2023-09-17T11:37:42.424Z</time>
      </trkpt>
      <trkpt lat="43.7287" lon="1.52257">
        <ele>146.183444</ele>
        <time>2023-09-17T11:37:42.424Z</time>
      </trkpt>
      <trkpt lat="43.72865" lon="1.52256">
        <ele>146.156204</ele>
        <time>2023-09-17T11:37:43.424Z</time>
      </trkpt>
      <trkpt lat="43.72859" lon="1.52254">
        <ele>146.127104</ele>
        <time>2023-09-17T11:37:44.424Z</time>
      </trkpt>
      <trkpt lat="43.72855" lon="1.52252">
        <ele>146.130795</ele>
        <time>2023-09-17T11:37:45.424Z</time>
      </trkpt>
      <trkpt lat="43.7285" lon="1.5225">
        <ele>146.238466</ele>
        <time>2023-09-17T11:37:46.424Z</time>
      </trkpt>
      <trkpt lat="43.72845" lon="1.52247">
        <ele>146.349645</ele>
        <time>2023-09-17T11:37:47.424Z</time>
      </trkpt>
      <trkpt lat="43.72845" lon="1.52247">
        <ele>146.349645</ele>
        <time>2023-09-17T11:37:47.424Z</time>
      </trkpt>
      <trkpt lat="43.72839" lon="1.52244">
        <ele>146.470032</ele>
        <time>2023-09-17T11:37:48.424Z</time>
      </trkpt>
      <trkpt lat="43.72834" lon="1.52241">
        <ele>146.584145</ele>
        <time>2023-09-17T11:37:49.424Z</time>
      </trkpt>
      <trkpt lat="43.72829" lon="1.52237">
        <ele>146.698893</ele>
        <time>2023-09-17T11:37:50.424Z</time>
      </trkpt>
      <trkpt lat="43.72825" lon="1.52234">
        <ele>146.811776</ele>
        <time>2023-09-17T11:37:51.424Z</time>
      </trkpt>
      <trkpt lat="43.7282" lon="1.52231">
        <ele>146.926525</ele>
        <time>2023-09-17T11:37:52.424Z</time>
      </trkpt>
      <trkpt lat="43.72815" lon="1.52227">
        <ele>147.039408</ele>
        <time>2023-09-17T11:37:53.424Z</time>
      </trkpt>
      <trkpt lat="43.72815" lon="1.52227">
        <ele>147.039408</ele>
        <time>2023-09-17T11:37:53.424Z</time>
      </trkpt>
      <trkpt lat="43.7281" lon="1.52224">
        <ele>147.148147</ele>
        <time>2023-09-17T11:37:54.424Z</time>
      </trkpt>
      <trkpt lat="43.72805" lon="1.52219">
        <ele>147.271697</ele>
        <time>2023-09-17T11:37:55.424Z</time>
      </trkpt>
      <trkpt lat="43.72801" lon="1.52215">
        <ele>147.381727</ele>
        <time>2023-09-17T11:37:56.424Z</time>
      </trkpt>
      <trkpt lat="43.72797" lon="1.5221">
        <ele>147.491381</ele>
        <time>2023-09-17T11:37:57.424Z</time>
      </trkpt>
      <trkpt lat="43.72794" lon="1.52204">
        <ele>147.605515</ele>
        <time>2023-09-17T11:37:58.424Z</time>
      </trkpt>
      <trkpt lat="43.7279" lon="1.52198">
        <ele>147.716345</ele>
        <time>2023-09-17T11:37:59.424Z</time>
      </trkpt>
      <trkpt lat="43.7279" lon="1.52198">
        <ele>147.716345</ele>
        <time>2023-09-17T11:37:59.424Z</time>
      </trkpt>
      <trkpt lat="43.72788" lon="1.52192">
        <ele>147.821069</ele>
        <time>2023-09-17T11:38:00.424Z</time>
      </trkpt>
      <trkpt lat="43.72785" lon="1.52186">
        <ele>147.918792</ele>
        <time>2023-09-17T11:38:01.424Z</time>
      </trkpt>
      <trkpt lat="43.72785" lon="1.52186">
        <ele>147.918792</ele>
        <time>2023-09-17T11:38:01.424Z</time>
      </trkpt>
      <trkpt lat="43.72783" lon="1.52181">
        <ele>148.01914</ele>
        <time>2023-09-17T11:38:02.424Z</time>
      </trkpt>
      <trkpt lat="43.72781" lon="1.52175">
        <ele>148.111682</ele>
        <time>2023-09-17T11:38:03.424Z</time>
      </trkpt>
      <trkpt lat="43.72781" lon="1.52175">
        <ele>148.111682</ele>
        <time>2023-09-17T11:38:03.424Z</time>
      </trkpt>
      <trkpt lat="43.72778" lon="1.52171">
        <ele>148.19665</ele>
        <time>2023-09-17T11:38:04.424Z</time>
      </trkpt>
      <trkpt lat="43.72778" lon="1.52171">
        <ele>148.19665</ele>
        <time>2023-09-17T11:38:04.424Z</time>
      </trkpt>
      <trkpt lat="43.72776" lon="1.52167">
        <ele>148.273167</ele>
        <time>2023-09-17T11:38:05.424Z</time>
      </trkpt>
      <trkpt lat="43.72776" lon="1.52167">
        <ele>148.273167</ele>
        <time>2023-09-17T11:38:05.424Z</time>
      </trkpt>
      <trkpt lat="43.72773" lon="1.52162">
        <ele>148.362963</ele>
        <time>2023-09-17T11:38:06.424Z</time>
      </trkpt>
      <trkpt lat="43.72773" lon="1.52162">
        <ele>148.362963</ele>
        <time>2023-09-17T11:38:06.424Z</time>
      </trkpt>
      <trkpt lat="43.72771" lon="1.52158">
        <ele>148.444897</ele>
        <time>2023-09-17T11:38:07.424Z</time>
      </trkpt>
      <trkpt lat="43.72771" lon="1.52158">
        <ele>148.444897</ele>
        <time>2023-09-17T11:38:07.424Z</time>
      </trkpt>
      <trkpt lat="43.72768" lon="1.52154">
        <ele>148.523609</ele>
        <time>2023-09-17T11:38:08.424Z</time>
      </trkpt>
      <trkpt lat="43.72768" lon="1.52154">
        <ele>148.523609</ele>
        <time>2023-09-17T11:38:08.424Z</time>
      </trkpt>
      <trkpt lat="43.72765" lon="1.52151">
        <ele>148.5947</ele>
        <time>2023-09-17T11:38:09.424Z</time>
      </trkpt>
      <trkpt lat="43.72765" lon="1.52151">
        <ele>148.5947</ele>
        <time>2023-09-17T11:38:09.424Z</time>
      </trkpt>
      <trkpt lat="43.72763" lon="1.52149">
        <ele>148.649536</ele>
        <time>2023-09-17T11:38:10.424Z</time>
      </trkpt>
      <trkpt lat="43.72763" lon="1.52149">
        <ele>148.649536</ele>
        <time>2023-09-17T11:38:10.424Z</time>
      </trkpt>
      <trkpt lat="43.72761" lon="1.52146">
        <ele>148.711896</ele>
        <time>2023-09-17T11:38:11.424Z</time>
      </trkpt>
      <trkpt lat="43.72761" lon="1.52146">
        <ele>148.711896</ele>
        <time>2023-09-17T11:38:11.424Z</time>
      </trkpt>
      <trkpt lat="43.72757" lon="1.52143">
        <ele>148.804979</ele>
        <time>2023-09-17T11:38:12.424Z</time>
      </trkpt>
      <trkpt lat="43.72757" lon="1.52143">
        <ele>148.804979</ele>
        <time>2023-09-17T11:38:12.424Z</time>
      </trkpt>
      <trkpt lat="43.72754" lon="1.52139">
        <ele>148.883441</ele>
        <time>2023-09-17T11:38:13.424Z</time>
      </trkpt>
      <trkpt lat="43.72754" lon="1.52139">
        <ele>148.883441</ele>
        <time>2023-09-17T11:38:13.424Z</time>
      </trkpt>
      <trkpt lat="43.72752" lon="1.52137">
        <ele>148.952445</ele>
        <time>2023-09-17T11:38:14.424Z</time>
      </trkpt>
      <trkpt lat="43.72752" lon="1.52137">
        <ele>148.952445</ele>
        <time>2023-09-17T11:38:14.424Z</time>
      </trkpt>
      <trkpt lat="43.72748" lon="1.52132">
        <ele>149.058018</ele>
        <time>2023-09-17T11:38:16.424Z</time>
      </trkpt>
      <trkpt lat="43.72748" lon="1.52132">
        <ele>149.058018</ele>
        <time>2023-09-17T11:38:16.424Z</time>
      </trkpt>
      <trkpt lat="43.72745" lon="1.52129">
        <ele>149.12791</ele>
        <time>2023-09-17T11:38:17.424Z</time>
      </trkpt>
      <trkpt lat="43.72745" lon="1.52129">
        <ele>149.12791</ele>
        <time>2023-09-17T11:38:17.424Z</time>
      </trkpt>
      <trkpt lat="43.72742" lon="1.52125">
        <ele>149.224337</ele>
        <time>2023-09-17T11:38:18.424Z</time>
      </trkpt>
      <trkpt lat="43.72742" lon="1.52125">
        <ele>149.224337</ele>
        <time>2023-09-17T11:38:18.424Z</time>
      </trkpt>
      <trkpt lat="43.72739" lon="1.52121">
        <ele>149.309138</ele>
        <time>2023-09-17T11:38:19.424Z</time>
      </trkpt>
      <trkpt lat="43.72739" lon="1.52121">
        <ele>149.309138</ele>
        <time>2023-09-17T11:38:19.424Z</time>
      </trkpt>
      <trkpt lat="43.72733" lon="1.52114">
        <ele>149.477175</ele>
        <time>2023-09-17T11:38:21.424Z</time>
      </trkpt>
      <trkpt lat="43.72733" lon="1.52114">
        <ele>149.477175</ele>
        <time>2023-09-17T11:38:21.424Z</time>
      </trkpt>
      <trkpt lat="43.72727" lon="1.52107">
        <ele>149.632093</ele>
        <time>2023-09-17T11:38:22.424Z</time>
      </trkpt>
      <trkpt lat="43.72727" lon="1.52107">
        <ele>149.632093</ele>
        <time>2023-09-17T11:38:22.424Z</time>
      </trkpt>
      <trkpt lat="43.72724" lon="1.52104">
        <ele>149.712418</ele>
        <time>2023-09-17T11:38:24.424Z</time>
      </trkpt>
      <trkpt lat="43.7272" lon="1.52099">
        <ele>149.813159</ele>
        <time>2023-09-17T11:38:25.424Z</time>
      </trkpt>
      <trkpt lat="43.72717" lon="1.52096">
        <ele>149.775258</ele>
        <time>2023-09-17T11:38:26.424Z</time>
      </trkpt>
      <trkpt lat="43.72712" lon="1.52091">
        <ele>149.678479</ele>
        <time>2023-09-17T11:38:27.424Z</time>
      </trkpt>
      <trkpt lat="43.72707" lon="1.52085">
        <ele>149.556818</ele>
        <time>2023-09-17T11:38:28.424Z</time>
      </trkpt>
      <trkpt lat="43.72701" lon="1.52079">
        <ele>149.431872</ele>
        <time>2023-09-17T11:38:29.424Z</time>
      </trkpt>
      <trkpt lat="43.72701" lon="1.52079">
        <ele>149.431872</ele>
        <time>2023-09-17T11:38:29.424Z</time>
      </trkpt>
      <trkpt lat="43.72697" lon="1.52074">
        <ele>149.326342</ele>
        <time>2023-09-17T11:38:30.424Z</time>
      </trkpt>
      <trkpt lat="43.72692" lon="1.52069">
        <ele>149.220811</ele>
        <time>2023-09-17T11:38:31.424Z</time>
      </trkpt>
      <trkpt lat="43.72692" lon="1.52069">
        <ele>149.220811</ele>
        <time>2023-09-17T11:38:31.424Z</time>
      </trkpt>
      <trkpt lat="43.72687" lon="1.52064">
        <ele>149.111956</ele>
        <time>2023-09-17T11:38:32.424Z</time>
      </trkpt>
      <trkpt lat="43.72683" lon="1.52059">
        <ele>149.009423</ele>
        <time>2023-09-17T11:38:33.424Z</time>
      </trkpt>
      <trkpt lat="43.72683" lon="1.52059">
        <ele>149.009423</ele>
        <time>2023-09-17T11:38:33.424Z</time>
      </trkpt>
      <trkpt lat="43.72678" lon="1.52053">
        <ele>148.895941</ele>
        <time>2023-09-17T11:38:34.424Z</time>
      </trkpt>
      <trkpt lat="43.72678" lon="1.52053">
        <ele>148.895941</ele>
        <time>2023-09-17T11:38:34.424Z</time>
      </trkpt>
      <trkpt lat="43.72673" lon="1.52048">
        <ele>148.790411</ele>
        <time>2023-09-17T11:38:35.424Z</time>
      </trkpt>
      <trkpt lat="43.72669" lon="1.52043">
        <ele>148.685422</ele>
        <time>2023-09-17T11:38:36.424Z</time>
      </trkpt>
      <trkpt lat="43.72669" lon="1.52043">
        <ele>148.685422</ele>
        <time>2023-09-17T11:38:36.424Z</time>
      </trkpt>
      <trkpt lat="43.72664" lon="1.52037">
        <ele>148.571137</ele>
        <time>2023-09-17T11:38:37.424Z</time>
      </trkpt>
      <trkpt lat="43.72659" lon="1.52032">
        <ele>148.470149</ele>
        <time>2023-09-17T11:38:38.424Z</time>
      </trkpt>
      <trkpt lat="43.72659" lon="1.52032">
        <ele>148.470149</ele>
        <time>2023-09-17T11:38:38.424Z</time>
      </trkpt>
      <trkpt lat="43.72655" lon="1.52027">
        <ele>148.362975</ele>
        <time>2023-09-17T11:38:39.424Z</time>
      </trkpt>
      <trkpt lat="43.72655" lon="1.52027">
        <ele>148.362975</ele>
        <time>2023-09-17T11:38:39.424Z</time>
      </trkpt>
      <trkpt lat="43.7265" lon="1.52021">
        <ele>148.249779</ele>
        <time>2023-09-17T11:38:40.424Z</time>
      </trkpt>
      <trkpt lat="43.72645" lon="1.52014">
        <ele>148.131815</ele>
        <time>2023-09-17T11:38:41.424Z</time>
      </trkpt>
      <trkpt lat="43.72645" lon="1.52014">
        <ele>148.131815</ele>
        <time>2023-09-17T11:38:41.424Z</time>
      </trkpt>
      <trkpt lat="43.72641" lon="1.52008">
        <ele>148.016827</ele>
        <time>2023-09-17T11:38:42.424Z</time>
      </trkpt>
      <trkpt lat="43.72641" lon="1.52008">
        <ele>148.016827</ele>
        <time>2023-09-17T11:38:42.424Z</time>
      </trkpt>
      <trkpt lat="43.72636" lon="1.52002">
        <ele>147.90002</ele>
        <time>2023-09-17T11:38:43.424Z</time>
      </trkpt>
      <trkpt lat="43.72636" lon="1.52002">
        <ele>147.90002</ele>
        <time>2023-09-17T11:38:43.424Z</time>
      </trkpt>
      <trkpt lat="43.72632" lon="1.51995">
        <ele>147.786288</ele>
        <time>2023-09-17T11:38:44.424Z</time>
      </trkpt>
      <trkpt lat="43.72632" lon="1.51995">
        <ele>147.786288</ele>
        <time>2023-09-17T11:38:44.424Z</time>
      </trkpt>
      <trkpt lat="43.72626" lon="1.51988">
        <ele>147.652164</ele>
        <time>2023-09-17T11:38:45.424Z</time>
      </trkpt>
      <trkpt lat="43.72626" lon="1.51988">
        <ele>147.652164</ele>
        <time>2023-09-17T11:38:45.424Z</time>
      </trkpt>
      <trkpt lat="43.72622" lon="1.51981">
        <ele>147.528775</ele>
        <time>2023-09-17T11:38:46.424Z</time>
      </trkpt>
      <trkpt lat="43.72622" lon="1.51981">
        <ele>147.528775</ele>
        <time>2023-09-17T11:38:46.424Z</time>
      </trkpt>
      <trkpt lat="43.72617" lon="1.51974">
        <ele>147.407523</ele>
        <time>2023-09-17T11:38:47.424Z</time>
      </trkpt>
      <trkpt lat="43.72617" lon="1.51974">
        <ele>147.407523</ele>
        <time>2023-09-17T11:38:47.424Z</time>
      </trkpt>
      <trkpt lat="43.72612" lon="1.51966">
        <ele>147.268836</ele>
        <time>2023-09-17T11:38:48.424Z</time>
      </trkpt>
      <trkpt lat="43.72612" lon="1.51966">
        <ele>147.268836</ele>
        <time>2023-09-17T11:38:48.424Z</time>
      </trkpt>
      <trkpt lat="43.72607" lon="1.51958">
        <ele>147.142535</ele>
        <time>2023-09-17T11:38:49.424Z</time>
      </trkpt>
      <trkpt lat="43.72607" lon="1.51958">
        <ele>147.142535</ele>
        <time>2023-09-17T11:38:49.424Z</time>
      </trkpt>
      <trkpt lat="43.72602" lon="1.51951">
        <ele>147.010805</ele>
        <time>2023-09-17T11:38:50.424Z</time>
      </trkpt>
      <trkpt lat="43.72602" lon="1.51951">
        <ele>147.010805</ele>
        <time>2023-09-17T11:38:50.424Z</time>
      </trkpt>
      <trkpt lat="43.72597" lon="1.51943">
        <ele>146.879793</ele>
        <time>2023-09-17T11:38:51.424Z</time>
      </trkpt>
      <trkpt lat="43.72597" lon="1.51943">
        <ele>146.879793</ele>
        <time>2023-09-17T11:38:51.424Z</time>
      </trkpt>
      <trkpt lat="43.72592" lon="1.51936">
        <ele>146.749024</ele>
        <time>2023-09-17T11:38:52.424Z</time>
      </trkpt>
      <trkpt lat="43.72592" lon="1.51936">
        <ele>146.749024</ele>
        <time>2023-09-17T11:38:52.424Z</time>
      </trkpt>
      <trkpt lat="43.72587" lon="1.51928">
        <ele>146.599747</ele>
        <time>2023-09-17T11:38:53.424Z</time>
      </trkpt>
      <trkpt lat="43.72587" lon="1.51928">
        <ele>146.599747</ele>
        <time>2023-09-17T11:38:53.424Z</time>
      </trkpt>
      <trkpt lat="43.72582" lon="1.5192">
        <ele>146.352968</ele>
        <time>2023-09-17T11:38:54.424Z</time>
      </trkpt>
      <trkpt lat="43.72582" lon="1.5192">
        <ele>146.352968</ele>
        <time>2023-09-17T11:38:54.424Z</time>
      </trkpt>
      <trkpt lat="43.72577" lon="1.51913">
        <ele>146.124461</ele>
        <time>2023-09-17T11:38:55.424Z</time>
      </trkpt>
      <trkpt lat="43.72577" lon="1.51913">
        <ele>146.124461</ele>
        <time>2023-09-17T11:38:55.424Z</time>
      </trkpt>
      <trkpt lat="43.72572" lon="1.51906">
        <ele>145.887568</ele>
        <time>2023-09-17T11:38:56.424Z</time>
      </trkpt>
      <trkpt lat="43.72572" lon="1.51906">
        <ele>145.887568</ele>
        <time>2023-09-17T11:38:56.424Z</time>
      </trkpt>
      <trkpt lat="43.72566" lon="1.51899">
        <ele>145.637498</ele>
        <time>2023-09-17T11:38:57.424Z</time>
      </trkpt>
      <trkpt lat="43.72566" lon="1.51899">
        <ele>145.637498</ele>
        <time>2023-09-17T11:38:57.424Z</time>
      </trkpt>
      <trkpt lat="43.72561" lon="1.51892">
        <ele>145.424161</ele>
        <time>2023-09-17T11:38:58.424Z</time>
      </trkpt>
      <trkpt lat="43.72561" lon="1.51892">
        <ele>145.424161</ele>
        <time>2023-09-17T11:38:58.424Z</time>
      </trkpt>
      <trkpt lat="43.72555" lon="1.51886">
        <ele>145.177184</ele>
        <time>2023-09-17T11:38:59.424Z</time>
      </trkpt>
      <trkpt lat="43.72555" lon="1.51886">
        <ele>145.177184</ele>
        <time>2023-09-17T11:38:59.424Z</time>
      </trkpt>
      <trkpt lat="43.72548" lon="1.5188">
        <ele>144.927968</ele>
        <time>2023-09-17T11:39:00.424Z</time>
      </trkpt>
      <trkpt lat="43.72548" lon="1.5188">
        <ele>144.927968</ele>
        <time>2023-09-17T11:39:00.424Z</time>
      </trkpt>
      <trkpt lat="43.72543" lon="1.51875">
        <ele>144.712712</ele>
        <time>2023-09-17T11:39:01.424Z</time>
      </trkpt>
      <trkpt lat="43.72543" lon="1.51875">
        <ele>144.712712</ele>
        <time>2023-09-17T11:39:01.424Z</time>
      </trkpt>
      <trkpt lat="43.72537" lon="1.51869">
        <ele>144.476645</ele>
        <time>2023-09-17T11:39:02.424Z</time>
      </trkpt>
      <trkpt lat="43.72537" lon="1.51869">
        <ele>144.476645</ele>
        <time>2023-09-17T11:39:02.424Z</time>
      </trkpt>
      <trkpt lat="43.72531" lon="1.51864">
        <ele>144.261091</ele>
        <time>2023-09-17T11:39:03.424Z</time>
      </trkpt>
      <trkpt lat="43.72531" lon="1.51864">
        <ele>144.261091</ele>
        <time>2023-09-17T11:39:03.424Z</time>
      </trkpt>
      <trkpt lat="43.72525" lon="1.51859">
        <ele>144.02887</ele>
        <time>2023-09-17T11:39:04.424Z</time>
      </trkpt>
      <trkpt lat="43.72525" lon="1.51859">
        <ele>144.02887</ele>
        <time>2023-09-17T11:39:04.424Z</time>
      </trkpt>
      <trkpt lat="43.72519" lon="1.51854">
        <ele>143.814839</ele>
        <time>2023-09-17T11:39:05.424Z</time>
      </trkpt>
      <trkpt lat="43.72519" lon="1.51854">
        <ele>143.814839</ele>
        <time>2023-09-17T11:39:05.424Z</time>
      </trkpt>
      <trkpt lat="43.72513" lon="1.51849">
        <ele>143.58752</ele>
        <time>2023-09-17T11:39:06.424Z</time>
      </trkpt>
      <trkpt lat="43.72513" lon="1.51849">
        <ele>143.58752</ele>
        <time>2023-09-17T11:39:06.424Z</time>
      </trkpt>
      <trkpt lat="43.72507" lon="1.51844">
        <ele>143.377056</ele>
        <time>2023-09-17T11:39:07.424Z</time>
      </trkpt>
      <trkpt lat="43.72507" lon="1.51844">
        <ele>143.377056</ele>
        <time>2023-09-17T11:39:07.424Z</time>
      </trkpt>
      <trkpt lat="43.72501" lon="1.51839">
        <ele>143.165421</ele>
        <time>2023-09-17T11:39:08.424Z</time>
      </trkpt>
      <trkpt lat="43.72501" lon="1.51839">
        <ele>143.165421</ele>
        <time>2023-09-17T11:39:08.424Z</time>
      </trkpt>
      <trkpt lat="43.72496" lon="1.51834">
        <ele>142.950164</ele>
        <time>2023-09-17T11:39:09.424Z</time>
      </trkpt>
      <trkpt lat="43.72496" lon="1.51834">
        <ele>142.950164</ele>
        <time>2023-09-17T11:39:09.424Z</time>
      </trkpt>
      <trkpt lat="43.7249" lon="1.5183">
        <ele>142.749107</ele>
        <time>2023-09-17T11:39:10.424Z</time>
      </trkpt>
      <trkpt lat="43.7249" lon="1.5183">
        <ele>142.749107</ele>
        <time>2023-09-17T11:39:10.424Z</time>
      </trkpt>
      <trkpt lat="43.72485" lon="1.51825">
        <ele>142.54956</ele>
        <time>2023-09-17T11:39:11.424Z</time>
      </trkpt>
      <trkpt lat="43.72485" lon="1.51825">
        <ele>142.54956</ele>
        <time>2023-09-17T11:39:11.424Z</time>
      </trkpt>
      <trkpt lat="43.7248" lon="1.51821">
        <ele>142.351981</ele>
        <time>2023-09-17T11:39:12.424Z</time>
      </trkpt>
      <trkpt lat="43.72474" lon="1.51817">
        <ele>142.15602</ele>
        <time>2023-09-17T11:39:13.424Z</time>
      </trkpt>
      <trkpt lat="43.72474" lon="1.51817">
        <ele>142.15602</ele>
        <time>2023-09-17T11:39:13.424Z</time>
      </trkpt>
      <trkpt lat="43.72469" lon="1.51812">
        <ele>141.969458</ele>
        <time>2023-09-17T11:39:14.424Z</time>
      </trkpt>
      <trkpt lat="43.72469" lon="1.51812">
        <ele>141.969458</ele>
        <time>2023-09-17T11:39:14.424Z</time>
      </trkpt>
      <trkpt lat="43.72465" lon="1.51809">
        <ele>141.797389</ele>
        <time>2023-09-17T11:39:15.424Z</time>
      </trkpt>
      <trkpt lat="43.72459" lon="1.51804">
        <ele>141.600253</ele>
        <time>2023-09-17T11:39:16.424Z</time>
      </trkpt>
      <trkpt lat="43.72454" lon="1.518">
        <ele>141.412484</ele>
        <time>2023-09-17T11:39:17.424Z</time>
      </trkpt>
      <trkpt lat="43.7245" lon="1.51795">
        <ele>141.21692</ele>
        <time>2023-09-17T11:39:18.424Z</time>
      </trkpt>
      <trkpt lat="43.72445" lon="1.51788">
        <ele>141.017652</ele>
        <time>2023-09-17T11:39:19.424Z</time>
      </trkpt>
      <trkpt lat="43.72443" lon="1.51781">
        <ele>140.880263</ele>
        <time>2023-09-17T11:39:20.424Z</time>
      </trkpt>
      <trkpt lat="43.72442" lon="1.51773">
        <ele>140.828421</ele>
        <time>2023-09-17T11:39:21.424Z</time>
      </trkpt>
      <trkpt lat="43.72442" lon="1.51764">
        <ele>140.773586</ele>
        <time>2023-09-17T11:39:22.424Z</time>
      </trkpt>
      <trkpt lat="43.72442" lon="1.51754">
        <ele>140.711258</ele>
        <time>2023-09-17T11:39:23.424Z</time>
      </trkpt>
      <trkpt lat="43.72442" lon="1.51754">
        <ele>140.711258</ele>
        <time>2023-09-17T11:39:23.424Z</time>
      </trkpt>
      <trkpt lat="43.72442" lon="1.51745">
        <ele>140.655276</ele>
        <time>2023-09-17T11:39:24.424Z</time>
      </trkpt>
      <trkpt lat="43.72442" lon="1.51736">
        <ele>140.598665</ele>
        <time>2023-09-17T11:39:25.424Z</time>
      </trkpt>
      <trkpt lat="43.72442" lon="1.51727">
        <ele>140.540166</ele>
        <time>2023-09-17T11:39:26.424Z</time>
      </trkpt>
      <trkpt lat="43.72442" lon="1.51727">
        <ele>140.540166</ele>
        <time>2023-09-17T11:39:26.424Z</time>
      </trkpt>
      <trkpt lat="43.72442" lon="1.51717">
        <ele>140.477839</ele>
        <time>2023-09-17T11:39:27.424Z</time>
      </trkpt>
      <trkpt lat="43.72442" lon="1.51717">
        <ele>140.477839</ele>
        <time>2023-09-17T11:39:27.424Z</time>
      </trkpt>
      <trkpt lat="43.72442" lon="1.51708">
        <ele>140.419864</ele>
        <time>2023-09-17T11:39:28.424Z</time>
      </trkpt>
      <trkpt lat="43.72442" lon="1.51699">
        <ele>140.363882</ele>
        <time>2023-09-17T11:39:29.424Z</time>
      </trkpt>
      <trkpt lat="43.72441" lon="1.5169">
        <ele>140.305908</ele>
        <time>2023-09-17T11:39:30.424Z</time>
      </trkpt>
      <trkpt lat="43.72441" lon="1.5169">
        <ele>140.305908</ele>
        <time>2023-09-17T11:39:30.424Z</time>
      </trkpt>
      <trkpt lat="43.72441" lon="1.51679">
        <ele>140.239861</ele>
        <time>2023-09-17T11:39:31.424Z</time>
      </trkpt>
      <trkpt lat="43.72441" lon="1.5167">
        <ele>140.181259</ele>
        <time>2023-09-17T11:39:32.424Z</time>
      </trkpt>
      <trkpt lat="43.72441" lon="1.5167">
        <ele>140.181259</ele>
        <time>2023-09-17T11:39:32.424Z</time>
      </trkpt>
      <trkpt lat="43.72441" lon="1.5166">
        <ele>140.120244</ele>
        <time>2023-09-17T11:39:33.424Z</time>
      </trkpt>
      <trkpt lat="43.72441" lon="1.51651">
        <ele>140.063633</ele>
        <time>2023-09-17T11:39:34.424Z</time>
      </trkpt>
      <trkpt lat="43.72441" lon="1.51642">
        <ele>140.006287</ele>
        <time>2023-09-17T11:39:35.424Z</time>
      </trkpt>
      <trkpt lat="43.72441" lon="1.51642">
        <ele>140.006287</ele>
        <time>2023-09-17T11:39:35.424Z</time>
      </trkpt>
      <trkpt lat="43.72442" lon="1.51631">
        <ele>139.938892</ele>
        <time>2023-09-17T11:39:36.424Z</time>
      </trkpt>
      <trkpt lat="43.72442" lon="1.51622">
        <ele>139.878826</ele>
        <time>2023-09-17T11:39:37.424Z</time>
      </trkpt>
      <trkpt lat="43.72444" lon="1.51612">
        <ele>139.815628</ele>
        <time>2023-09-17T11:39:38.424Z</time>
      </trkpt>
      <trkpt lat="43.72446" lon="1.51603">
        <ele>139.757947</ele>
        <time>2023-09-17T11:39:39.424Z</time>
      </trkpt>
      <trkpt lat="43.72449" lon="1.51595">
        <ele>139.698147</ele>
        <time>2023-09-17T11:39:40.424Z</time>
      </trkpt>
      <trkpt lat="43.72449" lon="1.51595">
        <ele>139.698147</ele>
        <time>2023-09-17T11:39:40.424Z</time>
      </trkpt>
      <trkpt lat="43.72453" lon="1.51586">
        <ele>139.633664</ele>
        <time>2023-09-17T11:39:41.424Z</time>
      </trkpt>
      <trkpt lat="43.72456" lon="1.51578">
        <ele>139.575377</ele>
        <time>2023-09-17T11:39:42.424Z</time>
      </trkpt>
      <trkpt lat="43.7246" lon="1.5157">
        <ele>139.514104</ele>
        <time>2023-09-17T11:39:43.424Z</time>
      </trkpt>
      <trkpt lat="43.72463" lon="1.51562">
        <ele>139.45788</ele>
        <time>2023-09-17T11:39:44.424Z</time>
      </trkpt>
      <trkpt lat="43.72467" lon="1.51553">
        <ele>139.392069</ele>
        <time>2023-09-17T11:39:45.424Z</time>
      </trkpt>
      <trkpt lat="43.72471" lon="1.51546">
        <ele>139.337175</ele>
        <time>2023-09-17T11:39:46.424Z</time>
      </trkpt>
      <trkpt lat="43.72474" lon="1.51537">
        <ele>139.311158</ele>
        <time>2023-09-17T11:39:47.424Z</time>
      </trkpt>
      <trkpt lat="43.72477" lon="1.51528">
        <ele>139.28496</ele>
        <time>2023-09-17T11:39:47.424Z</time>
      </trkpt>
      <trkpt lat="43.72479" lon="1.51519">
        <ele>139.261325</ele>
        <time>2023-09-17T11:39:49.424Z</time>
      </trkpt>
      <trkpt lat="43.72482" lon="1.51509">
        <ele>139.233405</ele>
        <time>2023-09-17T11:39:50.424Z</time>
      </trkpt>
      <trkpt lat="43.72482" lon="1.51509">
        <ele>139.233405</ele>
        <time>2023-09-17T11:39:50.424Z</time>
      </trkpt>
      <trkpt lat="43.72483" lon="1.515">
        <ele>139.208989</ele>
        <time>2023-09-17T11:39:51.424Z</time>
      </trkpt>
      <trkpt lat="43.72486" lon="1.5149">
        <ele>139.181413</ele>
        <time>2023-09-17T11:39:52.424Z</time>
      </trkpt>
      <trkpt lat="43.72488" lon="1.51481">
        <ele>139.156247</ele>
        <time>2023-09-17T11:39:53.424Z</time>
      </trkpt>
      <trkpt lat="43.72488" lon="1.51481">
        <ele>139.156247</ele>
        <time>2023-09-17T11:39:53.424Z</time>
      </trkpt>
      <trkpt lat="43.72489" lon="1.51474">
        <ele>139.137872</ele>
        <time>2023-09-17T11:39:53.424Z</time>
      </trkpt>
      <trkpt lat="43.72492" lon="1.51461">
        <ele>139.102831</ele>
        <time>2023-09-17T11:39:55.424Z</time>
      </trkpt>
      <trkpt lat="43.72495" lon="1.51451">
        <ele>139.074496</ele>
        <time>2023-09-17T11:39:56.424Z</time>
      </trkpt>
      <trkpt lat="43.72495" lon="1.51451">
        <ele>139.074496</ele>
        <time>2023-09-17T11:39:56.424Z</time>
      </trkpt>
      <trkpt lat="43.72498" lon="1.51442">
        <ele>139.047975</ele>
        <time>2023-09-17T11:39:57.424Z</time>
      </trkpt>
      <trkpt lat="43.72502" lon="1.51432">
        <ele>139.018784</ele>
        <time>2023-09-17T11:39:58.424Z</time>
      </trkpt>
      <trkpt lat="43.72506" lon="1.51424">
        <ele>138.993418</ele>
        <time>2023-09-17T11:39:59.424Z</time>
      </trkpt>
      <trkpt lat="43.72511" lon="1.51416">
        <ele>138.966461</ele>
        <time>2023-09-17T11:40:00.424Z</time>
      </trkpt>
      <trkpt lat="43.72516" lon="1.51409">
        <ele>138.93988</ele>
        <time>2023-09-17T11:40:01.424Z</time>
      </trkpt>
      <trkpt lat="43.72521" lon="1.51401">
        <ele>138.913258</ele>
        <time>2023-09-17T11:40:02.424Z</time>
      </trkpt>
      <trkpt lat="43.72521" lon="1.51401">
        <ele>138.913258</ele>
        <time>2023-09-17T11:40:02.424Z</time>
      </trkpt>
      <trkpt lat="43.72523" lon="1.51393">
        <ele>138.890596</ele>
        <time>2023-09-17T11:40:03.424Z</time>
      </trkpt>
      <trkpt lat="43.72524" lon="1.51384">
        <ele>138.867758</ele>
        <time>2023-09-17T11:40:04.424Z</time>
      </trkpt>
      <trkpt lat="43.72523" lon="1.51375">
        <ele>138.842132</ele>
        <time>2023-09-17T11:40:05.424Z</time>
      </trkpt>
      <trkpt lat="43.7252" lon="1.51366">
        <ele>138.818096</ele>
        <time>2023-09-17T11:40:06.424Z</time>
      </trkpt>
      <trkpt lat="43.72517" lon="1.51359">
        <ele>138.796742</ele>
        <time>2023-09-17T11:40:07.424Z</time>
      </trkpt>
      <trkpt lat="43.72514" lon="1.51351">
        <ele>138.772676</ele>
        <time>2023-09-17T11:40:08.424Z</time>
      </trkpt>
      <trkpt lat="43.7251" lon="1.51344">
        <ele>138.749037</ele>
        <time>2023-09-17T11:40:09.424Z</time>
      </trkpt>
      <trkpt lat="43.72506" lon="1.51337">
        <ele>138.725813</ele>
        <time>2023-09-17T11:40:10.424Z</time>
      </trkpt>
      <trkpt lat="43.72502" lon="1.5133">
        <ele>138.704042</ele>
        <time>2023-09-17T11:40:11.424Z</time>
      </trkpt>
      <trkpt lat="43.72498" lon="1.51323">
        <ele>138.684167</ele>
        <time>2023-09-17T11:40:12.424Z</time>
      </trkpt>
      <trkpt lat="43.72495" lon="1.51317">
        <ele>138.670496</ele>
        <time>2023-09-17T11:40:13.424Z</time>
      </trkpt>
      <trkpt lat="43.7249" lon="1.5131">
        <ele>138.656128</ele>
        <time>2023-09-17T11:40:14.424Z</time>
      </trkpt>
      <trkpt lat="43.72487" lon="1.51304">
        <ele>138.642583</ele>
        <time>2023-09-17T11:40:15.424Z</time>
      </trkpt>
      <trkpt lat="43.72483" lon="1.51297">
        <ele>138.629039</ele>
        <time>2023-09-17T11:40:16.424Z</time>
      </trkpt>
      <trkpt lat="43.72479" lon="1.5129">
        <ele>138.61467</ele>
        <time>2023-09-17T11:40:17.424Z</time>
      </trkpt>
      <trkpt lat="43.72475" lon="1.51285">
        <ele>138.603068</ele>
        <time>2023-09-17T11:40:18.424Z</time>
      </trkpt>
      <trkpt lat="43.72475" lon="1.51285">
        <ele>138.603068</ele>
        <time>2023-09-17T11:40:18.424Z</time>
      </trkpt>
      <trkpt lat="43.72471" lon="1.51278">
        <ele>138.588203</ele>
        <time>2023-09-17T11:40:19.424Z</time>
      </trkpt>
      <trkpt lat="43.72467" lon="1.51271">
        <ele>138.57414</ele>
        <time>2023-09-17T11:40:20.424Z</time>
      </trkpt>
      <trkpt lat="43.72463" lon="1.51265">
        <ele>138.560014</ele>
        <time>2023-09-17T11:40:21.424Z</time>
      </trkpt>
      <trkpt lat="43.72458" lon="1.51259">
        <ele>138.546117</ele>
        <time>2023-09-17T11:40:22.424Z</time>
      </trkpt>
      <trkpt lat="43.72453" lon="1.51252">
        <ele>138.529858</ele>
        <time>2023-09-17T11:40:22.424Z</time>
      </trkpt>
      <trkpt lat="43.72449" lon="1.51245">
        <ele>138.515119</ele>
        <time>2023-09-17T11:40:24.424Z</time>
      </trkpt>
      <trkpt lat="43.72445" lon="1.51237">
        <ele>138.5005</ele>
        <time>2023-09-17T11:40:25.424Z</time>
      </trkpt>
      <trkpt lat="43.72442" lon="1.51229">
        <ele>138.48472</ele>
        <time>2023-09-17T11:40:26.424Z</time>
      </trkpt>
      <trkpt lat="43.72437" lon="1.51222">
        <ele>138.46922</ele>
        <time>2023-09-17T11:40:27.424Z</time>
      </trkpt>
      <trkpt lat="43.72434" lon="1.51213">
        <ele>138.453575</ele>
        <time>2023-09-17T11:40:28.424Z</time>
      </trkpt>
      <trkpt lat="43.72429" lon="1.51206">
        <ele>138.437946</ele>
        <time>2023-09-17T11:40:29.424Z</time>
      </trkpt>
      <trkpt lat="43.72429" lon="1.51206">
        <ele>138.437946</ele>
        <time>2023-09-17T11:40:29.424Z</time>
      </trkpt>
      <trkpt lat="43.72426" lon="1.51198">
        <ele>138.423372</ele>
        <time>2023-09-17T11:40:30.424Z</time>
      </trkpt>
      <trkpt lat="43.72422" lon="1.51191">
        <ele>138.409188</ele>
        <time>2023-09-17T11:40:31.424Z</time>
      </trkpt>
      <trkpt lat="43.72418" lon="1.51184">
        <ele>138.393817</ele>
        <time>2023-09-17T11:40:32.424Z</time>
      </trkpt>
      <trkpt lat="43.72418" lon="1.51184">
        <ele>138.393817</ele>
        <time>2023-09-17T11:40:32.424Z</time>
      </trkpt>
      <trkpt lat="43.72414" lon="1.51177">
        <ele>138.380424</ele>
        <time>2023-09-17T11:40:33.424Z</time>
      </trkpt>
      <trkpt lat="43.72411" lon="1.5117">
        <ele>138.366894</ele>
        <time>2023-09-17T11:40:34.424Z</time>
      </trkpt>
      <trkpt lat="43.72407" lon="1.51163">
        <ele>138.352971</ele>
        <time>2023-09-17T11:40:35.424Z</time>
      </trkpt>
      <trkpt lat="43.72404" lon="1.51156">
        <ele>138.339084</ele>
        <time>2023-09-17T11:40:36.424Z</time>
      </trkpt>
      <trkpt lat="43.72401" lon="1.51148">
        <ele>138.325509</ele>
        <time>2023-09-17T11:40:37.424Z</time>
      </trkpt>
      <trkpt lat="43.72398" lon="1.5114">
        <ele>138.310613</ele>
        <time>2023-09-17T11:40:38.424Z</time>
      </trkpt>
      <trkpt lat="43.72398" lon="1.5114">
        <ele>138.310613</ele>
        <time>2023-09-17T11:40:38.424Z</time>
      </trkpt>
      <trkpt lat="43.72395" lon="1.51132">
        <ele>138.295907</ele>
        <time>2023-09-17T11:40:39.424Z</time>
      </trkpt>
      <trkpt lat="43.72392" lon="1.51125">
        <ele>138.278643</ele>
        <time>2023-09-17T11:40:40.424Z</time>
      </trkpt>
      <trkpt lat="43.72388" lon="1.51117">
        <ele>138.252576</ele>
        <time>2023-09-17T11:40:41.424Z</time>
      </trkpt>
      <trkpt lat="43.72384" lon="1.51109">
        <ele>138.225192</ele>
        <time>2023-09-17T11:40:42.424Z</time>
      </trkpt>
      <trkpt lat="43.7238" lon="1.51101">
        <ele>138.199807</ele>
        <time>2023-09-17T11:40:43.424Z</time>
      </trkpt>
      <trkpt lat="43.72376" lon="1.51092">
        <ele>138.170839</ele>
        <time>2023-09-17T11:40:44.424Z</time>
      </trkpt>
      <trkpt lat="43.72376" lon="1.51092">
        <ele>138.170839</ele>
        <time>2023-09-17T11:40:44.424Z</time>
      </trkpt>
      <trkpt lat="43.72372" lon="1.51085">
        <ele>138.14652</ele>
        <time>2023-09-17T11:40:45.424Z</time>
      </trkpt>
      <trkpt lat="43.72368" lon="1.51076">
        <ele>138.11713</ele>
        <time>2023-09-17T11:40:46.424Z</time>
      </trkpt>
      <trkpt lat="43.72364" lon="1.51068">
        <ele>138.091291</ele>
        <time>2023-09-17T11:40:47.424Z</time>
      </trkpt>
      <trkpt lat="43.7236" lon="1.51061">
        <ele>138.066355</ele>
        <time>2023-09-17T11:40:48.424Z</time>
      </trkpt>
      <trkpt lat="43.72356" lon="1.51053">
        <ele>138.040975</ele>
        <time>2023-09-17T11:40:49.424Z</time>
      </trkpt>
      <trkpt lat="43.72352" lon="1.51045">
        <ele>138.013591</ele>
        <time>2023-09-17T11:40:50.424Z</time>
      </trkpt>
      <trkpt lat="43.72348" lon="1.51038">
        <ele>137.988655</ele>
        <time>2023-09-17T11:40:51.424Z</time>
      </trkpt>
      <trkpt lat="43.72344" lon="1.5103">
        <ele>137.963495</ele>
        <time>2023-09-17T11:40:52.424Z</time>
      </trkpt>
      <trkpt lat="43.72344" lon="1.5103">
        <ele>137.963495</ele>
        <time>2023-09-17T11:40:52.424Z</time>
      </trkpt>
      <trkpt lat="43.7234" lon="1.51023">
        <ele>137.939227</ele>
        <time>2023-09-17T11:40:52.424Z</time>
      </trkpt>
      <trkpt lat="43.72337" lon="1.51016">
        <ele>137.913387</ele>
        <time>2023-09-17T11:40:54.424Z</time>
      </trkpt>
      <trkpt lat="43.72333" lon="1.51009">
        <ele>137.890679</ele>
        <time>2023-09-17T11:40:55.424Z</time>
      </trkpt>
      <trkpt lat="43.72333" lon="1.51009">
        <ele>137.890679</ele>
        <time>2023-09-17T11:40:55.424Z</time>
      </trkpt>
      <trkpt lat="43.7233" lon="1.51001">
        <ele>137.865892</ele>
        <time>2023-09-17T11:40:56.424Z</time>
      </trkpt>
      <trkpt lat="43.72326" lon="1.50994">
        <ele>137.842497</ele>
        <time>2023-09-17T11:40:56.424Z</time>
      </trkpt>
      <trkpt lat="43.72323" lon="1.50986">
        <ele>137.817742</ele>
        <time>2023-09-17T11:40:58.424Z</time>
      </trkpt>
      <trkpt lat="43.72319" lon="1.50979">
        <ele>137.79303</ele>
        <time>2023-09-17T11:40:58.424Z</time>
      </trkpt>
      <trkpt lat="43.72316" lon="1.50971">
        <ele>137.768243</ele>
        <time>2023-09-17T11:41:00.424Z</time>
      </trkpt>
      <trkpt lat="43.72312" lon="1.50965">
        <ele>137.745303</ele>
        <time>2023-09-17T11:41:01.424Z</time>
      </trkpt>
      <trkpt lat="43.72309" lon="1.50957">
        <ele>137.721239</ele>
        <time>2023-09-17T11:41:02.424Z</time>
      </trkpt>
      <trkpt lat="43.72305" lon="1.5095">
        <ele>137.695854</ele>
        <time>2023-09-17T11:41:03.424Z</time>
      </trkpt>
      <trkpt lat="43.72301" lon="1.50942">
        <ele>137.670693</ele>
        <time>2023-09-17T11:41:04.424Z</time>
      </trkpt>
      <trkpt lat="43.72298" lon="1.50935">
        <ele>137.647754</ele>
        <time>2023-09-17T11:41:05.424Z</time>
      </trkpt>
      <trkpt lat="43.72294" lon="1.50928">
        <ele>137.62255</ele>
        <time>2023-09-17T11:41:06.424Z</time>
      </trkpt>
      <trkpt lat="43.72289" lon="1.50922">
        <ele>137.600725</ele>
        <time>2023-09-17T11:41:07.424Z</time>
      </trkpt>
      <trkpt lat="43.72285" lon="1.50916">
        <ele>137.5937</ele>
        <time>2023-09-17T11:41:08.424Z</time>
      </trkpt>
      <trkpt lat="43.72279" lon="1.5091">
        <ele>137.586182</ele>
        <time>2023-09-17T11:41:09.424Z</time>
      </trkpt>
      <trkpt lat="43.72274" lon="1.50905">
        <ele>137.579028</ele>
        <time>2023-09-17T11:41:10.424Z</time>
      </trkpt>
      <trkpt lat="43.7227" lon="1.509">
        <ele>137.572426</ele>
        <time>2023-09-17T11:41:11.424Z</time>
      </trkpt>
      <trkpt lat="43.72265" lon="1.50895">
        <ele>137.565608</ele>
        <time>2023-09-17T11:41:12.424Z</time>
      </trkpt>
      <trkpt lat="43.7226" lon="1.50889">
        <ele>137.558145</ele>
        <time>2023-09-17T11:41:13.424Z</time>
      </trkpt>
      <trkpt lat="43.72254" lon="1.50884">
        <ele>137.550587</ele>
        <time>2023-09-17T11:41:14.424Z</time>
      </trkpt>
      <trkpt lat="43.72244" lon="1.50874">
        <ele>137.536494</ele>
        <time>2023-09-17T11:41:15.424Z</time>
      </trkpt>
      <trkpt lat="43.72238" lon="1.50869">
        <ele>137.528847</ele>
        <time>2023-09-17T11:41:16.424Z</time>
      </trkpt>
      <trkpt lat="43.72228" lon="1.50859">
        <ele>137.514755</ele>
        <time>2023-09-17T11:41:18.424Z</time>
      </trkpt>
      <trkpt lat="43.72228" lon="1.50859">
        <ele>137.514755</ele>
        <time>2023-09-17T11:41:18.424Z</time>
      </trkpt>
      <trkpt lat="43.72221" lon="1.50853">
        <ele>137.506556</ele>
        <time>2023-09-17T11:41:19.424Z</time>
      </trkpt>
      <trkpt lat="43.72211" lon="1.50843">
        <ele>137.492463</ele>
        <time>2023-09-17T11:41:22.424Z</time>
      </trkpt>
      <trkpt lat="43.72204" lon="1.50836">
        <ele>137.482881</ele>
        <time>2023-09-17T11:41:23.424Z</time>
      </trkpt>
      <trkpt lat="43.72195" lon="1.50828">
        <ele>137.470673</ele>
        <time>2023-09-17T11:41:25.424Z</time>
      </trkpt>
      <trkpt lat="43.72191" lon="1.50822">
        <ele>137.464158</ele>
        <time>2023-09-17T11:41:27.424Z</time>
      </trkpt>
      <trkpt lat="43.72181" lon="1.5081">
        <ele>137.449668</ele>
        <time>2023-09-17T11:41:28.424Z</time>
      </trkpt>
      <trkpt lat="43.72176" lon="1.50804">
        <ele>137.441789</ele>
        <time>2023-09-17T11:41:29.424Z</time>
      </trkpt>
      <trkpt lat="43.72172" lon="1.50799">
        <ele>137.43586</ele>
        <time>2023-09-17T11:41:30.424Z</time>
      </trkpt>
      <trkpt lat="43.72166" lon="1.5079">
        <ele>137.425788</ele>
        <time>2023-09-17T11:41:31.424Z</time>
      </trkpt>
      <trkpt lat="43.72154" lon="1.50774">
        <ele>137.407284</ele>
        <time>2023-09-17T11:41:34.424Z</time>
      </trkpt>
      <trkpt lat="43.72149" lon="1.50768">
        <ele>137.400035</ele>
        <time>2023-09-17T11:41:35.424Z</time>
      </trkpt>
      <trkpt lat="43.72144" lon="1.50761">
        <ele>137.415968</ele>
        <time>2023-09-17T11:41:37.424Z</time>
      </trkpt>
      <trkpt lat="43.7214" lon="1.50755">
        <ele>137.429496</ele>
        <time>2023-09-17T11:41:38.424Z</time>
      </trkpt>
      <trkpt lat="43.72139" lon="1.50753">
        <ele>137.433946</ele>
        <time>2023-09-17T11:41:38.424Z</time>
      </trkpt>
      <trkpt lat="43.72131" lon="1.50742">
        <ele>137.459107</ele>
        <time>2023-09-17T11:41:39.424Z</time>
      </trkpt>
      <trkpt lat="43.72126" lon="1.50736">
        <ele>137.472635</ele>
        <time>2023-09-17T11:41:41.424Z</time>
      </trkpt>
      <trkpt lat="43.72117" lon="1.50725">
        <ele>137.501136</ele>
        <time>2023-09-17T11:41:42.424Z</time>
      </trkpt>
      <trkpt lat="43.72112" lon="1.50719">
        <ele>137.515654</ele>
        <time>2023-09-17T11:41:42.424Z</time>
      </trkpt>
      <trkpt lat="43.72107" lon="1.50714">
        <ele>137.529671</ele>
        <time>2023-09-17T11:41:43.424Z</time>
      </trkpt>
      <trkpt lat="43.72097" lon="1.50704">
        <ele>137.55695</ele>
        <time>2023-09-17T11:41:45.424Z</time>
      </trkpt>
      <trkpt lat="43.72091" lon="1.50699">
        <ele>137.57234</ele>
        <time>2023-09-17T11:41:46.424Z</time>
      </trkpt>
      <trkpt lat="43.72086" lon="1.50694">
        <ele>137.586109</ele>
        <time>2023-09-17T11:41:48.424Z</time>
      </trkpt>
      <trkpt lat="43.72081" lon="1.5069">
        <ele>137.600319</ele>
        <time>2023-09-17T11:41:48.424Z</time>
      </trkpt>
      <trkpt lat="43.72075" lon="1.50685">
        <ele>137.614088</ele>
        <time>2023-09-17T11:41:49.424Z</time>
      </trkpt>
      <trkpt lat="43.7207" lon="1.50681">
        <ele>137.628485</ele>
        <time>2023-09-17T11:41:50.424Z</time>
      </trkpt>
      <trkpt lat="43.72064" lon="1.50677">
        <ele>137.642367</ele>
        <time>2023-09-17T11:41:51.424Z</time>
      </trkpt>
      <trkpt lat="43.72059" lon="1.50673">
        <ele>137.655896</ele>
        <time>2023-09-17T11:41:53.424Z</time>
      </trkpt>
      <trkpt lat="43.72054" lon="1.50669">
        <ele>137.669778</ele>
        <time>2023-09-17T11:41:53.424Z</time>
      </trkpt>
      <trkpt lat="43.72048" lon="1.50665">
        <ele>137.683465</ele>
        <time>2023-09-17T11:41:54.424Z</time>
      </trkpt>
      <trkpt lat="43.72043" lon="1.5066">
        <ele>137.698092</ele>
        <time>2023-09-17T11:41:55.424Z</time>
      </trkpt>
      <trkpt lat="43.72037" lon="1.50656">
        <ele>137.711896</ele>
        <time>2023-09-17T11:41:57.424Z</time>
      </trkpt>
      <trkpt lat="43.72032" lon="1.50652">
        <ele>137.724729</ele>
        <time>2023-09-17T11:41:57.424Z</time>
      </trkpt>
      <trkpt lat="43.72027" lon="1.50648">
        <ele>137.738772</ele>
        <time>2023-09-17T11:41:58.424Z</time>
      </trkpt>
      <trkpt lat="43.72022" lon="1.50643">
        <ele>137.752227</ele>
        <time>2023-09-17T11:41:59.424Z</time>
      </trkpt>
      <trkpt lat="43.72022" lon="1.50643">
        <ele>137.752227</ele>
        <time>2023-09-17T11:41:59.424Z</time>
      </trkpt>
      <trkpt lat="43.72017" lon="1.50638">
        <ele>137.764851</ele>
        <time>2023-09-17T11:42:00.424Z</time>
      </trkpt>
      <trkpt lat="43.72012" lon="1.50633">
        <ele>137.779136</ele>
        <time>2023-09-17T11:42:01.424Z</time>
      </trkpt>
      <trkpt lat="43.72007" lon="1.50629">
        <ele>137.792867</ele>
        <time>2023-09-17T11:42:02.424Z</time>
      </trkpt>
      <trkpt lat="43.72002" lon="1.50623">
        <ele>137.831324</ele>
        <time>2023-09-17T11:42:04.424Z</time>
      </trkpt>
      <trkpt lat="43.71997" lon="1.50618">
        <ele>137.933422</ele>
        <time>2023-09-17T11:42:05.424Z</time>
      </trkpt>
      <trkpt lat="43.71993" lon="1.50613">
        <ele>138.022319</ele>
        <time>2023-09-17T11:42:06.424Z</time>
      </trkpt>
      <trkpt lat="43.71987" lon="1.50605">
        <ele>138.153592</ele>
        <time>2023-09-17T11:42:07.424Z</time>
      </trkpt>
      <trkpt lat="43.71987" lon="1.50605">
        <ele>138.153592</ele>
        <time>2023-09-17T11:42:07.424Z</time>
      </trkpt>
      <trkpt lat="43.71979" lon="1.50596">
        <ele>138.318981</ele>
        <time>2023-09-17T11:42:09.424Z</time>
      </trkpt>
      <trkpt lat="43.71975" lon="1.50591">
        <ele>138.410179</ele>
        <time>2023-09-17T11:42:10.424Z</time>
      </trkpt>
      <trkpt lat="43.71975" lon="1.50591">
        <ele>138.410179</ele>
        <time>2023-09-17T11:42:10.424Z</time>
      </trkpt>
      <trkpt lat="43.71971" lon="1.50586">
        <ele>138.498322</ele>
        <time>2023-09-17T11:42:11.424Z</time>
      </trkpt>
      <trkpt lat="43.71971" lon="1.50586">
        <ele>138.498322</ele>
        <time>2023-09-17T11:42:11.424Z</time>
      </trkpt>
      <trkpt lat="43.71967" lon="1.5058">
        <ele>138.596008</ele>
        <time>2023-09-17T11:42:11.424Z</time>
      </trkpt>
      <trkpt lat="43.71963" lon="1.50574">
        <ele>138.687561</ele>
        <time>2023-09-17T11:42:13.424Z</time>
      </trkpt>
      <trkpt lat="43.71963" lon="1.50574">
        <ele>138.687561</ele>
        <time>2023-09-17T11:42:13.424Z</time>
      </trkpt>
      <trkpt lat="43.71962" lon="1.50571">
        <ele>138.724668</ele>
        <time>2023-09-17T11:42:14.424Z</time>
      </trkpt>
      <trkpt lat="43.71955" lon="1.50561">
        <ele>138.88109</ele>
        <time>2023-09-17T11:42:15.424Z</time>
      </trkpt>
      <trkpt lat="43.71955" lon="1.50561">
        <ele>138.88109</ele>
        <time>2023-09-17T11:42:15.424Z</time>
      </trkpt>
      <trkpt lat="43.71951" lon="1.50555">
        <ele>138.975271</ele>
        <time>2023-09-17T11:42:16.424Z</time>
      </trkpt>
      <trkpt lat="43.71951" lon="1.50555">
        <ele>138.975271</ele>
        <time>2023-09-17T11:42:16.424Z</time>
      </trkpt>
      <trkpt lat="43.71948" lon="1.50549">
        <ele>139.067694</ele>
        <time>2023-09-17T11:42:16.424Z</time>
      </trkpt>
      <trkpt lat="43.71944" lon="1.50543">
        <ele>139.158781</ele>
        <time>2023-09-17T11:42:18.424Z</time>
      </trkpt>
      <trkpt lat="43.71944" lon="1.50543">
        <ele>139.158781</ele>
        <time>2023-09-17T11:42:18.424Z</time>
      </trkpt>
      <trkpt lat="43.7194" lon="1.50537">
        <ele>139.255647</ele>
        <time>2023-09-17T11:42:18.424Z</time>
      </trkpt>
      <trkpt lat="43.71937" lon="1.50531">
        <ele>139.344813</ele>
        <time>2023-09-17T11:42:20.424Z</time>
      </trkpt>
      <trkpt lat="43.71937" lon="1.50531">
        <ele>139.344813</ele>
        <time>2023-09-17T11:42:20.424Z</time>
      </trkpt>
      <trkpt lat="43.71933" lon="1.50526">
        <ele>139.42857</ele>
        <time>2023-09-17T11:42:20.424Z</time>
      </trkpt>
      <trkpt lat="43.7193" lon="1.5052">
        <ele>139.516936</ele>
        <time>2023-09-17T11:42:22.424Z</time>
      </trkpt>
      <trkpt lat="43.7193" lon="1.5052">
        <ele>139.516936</ele>
        <time>2023-09-17T11:42:22.424Z</time>
      </trkpt>
      <trkpt lat="43.71927" lon="1.50514">
        <ele>139.605185</ele>
        <time>2023-09-17T11:42:22.424Z</time>
      </trkpt>
      <trkpt lat="43.71924" lon="1.50509">
        <ele>139.681018</ele>
        <time>2023-09-17T11:42:24.424Z</time>
      </trkpt>
      <trkpt lat="43.71924" lon="1.50509">
        <ele>139.681018</ele>
        <time>2023-09-17T11:42:24.424Z</time>
      </trkpt>
      <trkpt lat="43.71922" lon="1.50502">
        <ele>139.768822</ele>
        <time>2023-09-17T11:42:25.424Z</time>
      </trkpt>
      <trkpt lat="43.71922" lon="1.50502">
        <ele>139.768822</ele>
        <time>2023-09-17T11:42:25.424Z</time>
      </trkpt>
      <trkpt lat="43.71921" lon="1.50496">
        <ele>139.837992</ele>
        <time>2023-09-17T11:42:26.424Z</time>
      </trkpt>
      <trkpt lat="43.71921" lon="1.50496">
        <ele>139.837992</ele>
        <time>2023-09-17T11:42:26.424Z</time>
      </trkpt>
      <trkpt lat="43.71922" lon="1.50486">
        <ele>139.948507</ele>
        <time>2023-09-17T11:42:26.424Z</time>
      </trkpt>
      <trkpt lat="43.71922" lon="1.50486">
        <ele>139.948507</ele>
        <time>2023-09-17T11:42:26.424Z</time>
      </trkpt>
      <trkpt lat="43.71923" lon="1.50478">
        <ele>140.047429</ele>
        <time>2023-09-17T11:42:28.424Z</time>
      </trkpt>
      <trkpt lat="43.71923" lon="1.50478">
        <ele>140.047429</ele>
        <time>2023-09-17T11:42:28.424Z</time>
      </trkpt>
      <trkpt lat="43.71925" lon="1.50471">
        <ele>140.137265</ele>
        <time>2023-09-17T11:42:29.424Z</time>
      </trkpt>
      <trkpt lat="43.71925" lon="1.50471">
        <ele>140.137265</ele>
        <time>2023-09-17T11:42:29.424Z</time>
      </trkpt>
      <trkpt lat="43.71927" lon="1.50462">
        <ele>140.239086</ele>
        <time>2023-09-17T11:42:30.424Z</time>
      </trkpt>
      <trkpt lat="43.71928" lon="1.50454">
        <ele>140.343138</ele>
        <time>2023-09-17T11:42:31.424Z</time>
      </trkpt>
      <trkpt lat="43.71928" lon="1.50454">
        <ele>140.343138</ele>
        <time>2023-09-17T11:42:31.424Z</time>
      </trkpt>
      <trkpt lat="43.7193" lon="1.50446">
        <ele>140.438376</ele>
        <time>2023-09-17T11:42:32.424Z</time>
      </trkpt>
      <trkpt lat="43.71932" lon="1.50438">
        <ele>140.541807</ele>
        <time>2023-09-17T11:42:33.424Z</time>
      </trkpt>
      <trkpt lat="43.71933" lon="1.50429">
        <ele>140.642998</ele>
        <time>2023-09-17T11:42:34.424Z</time>
      </trkpt>
      <trkpt lat="43.71935" lon="1.50421">
        <ele>140.741297</ele>
        <time>2023-09-17T11:42:35.424Z</time>
      </trkpt>
      <trkpt lat="43.71936" lon="1.50413">
        <ele>140.831489</ele>
        <time>2023-09-17T11:42:36.424Z</time>
      </trkpt>
      <trkpt lat="43.71936" lon="1.50413">
        <ele>140.831489</ele>
        <time>2023-09-17T11:42:36.424Z</time>
      </trkpt>
      <trkpt lat="43.71938" lon="1.50404">
        <ele>140.924157</ele>
        <time>2023-09-17T11:42:37.424Z</time>
      </trkpt>
      <trkpt lat="43.71939" lon="1.50396">
        <ele>141.010691</ele>
        <time>2023-09-17T11:42:38.424Z</time>
      </trkpt>
      <trkpt lat="43.71941" lon="1.50387">
        <ele>141.105418</ele>
        <time>2023-09-17T11:42:38.424Z</time>
      </trkpt>
      <trkpt lat="43.71941" lon="1.50387">
        <ele>141.105418</ele>
        <time>2023-09-17T11:42:38.424Z</time>
      </trkpt>
      <trkpt lat="43.71943" lon="1.50379">
        <ele>141.198638</ele>
        <time>2023-09-17T11:42:40.424Z</time>
      </trkpt>
      <trkpt lat="43.71944" lon="1.50371">
        <ele>141.285171</ele>
        <time>2023-09-17T11:42:41.424Z</time>
      </trkpt>
      <trkpt lat="43.71944" lon="1.50371">
        <ele>141.285171</ele>
        <time>2023-09-17T11:42:41.424Z</time>
      </trkpt>
      <trkpt lat="43.71945" lon="1.50363">
        <ele>141.375783</ele>
        <time>2023-09-17T11:42:42.424Z</time>
      </trkpt>
      <trkpt lat="43.71947" lon="1.50354">
        <ele>141.466395</ele>
        <time>2023-09-17T11:42:43.424Z</time>
      </trkpt>
      <trkpt lat="43.71949" lon="1.50346">
        <ele>141.562651</ele>
        <time>2023-09-17T11:42:44.424Z</time>
      </trkpt>
      <trkpt lat="43.71949" lon="1.50346">
        <ele>141.562651</ele>
        <time>2023-09-17T11:42:44.424Z</time>
      </trkpt>
      <trkpt lat="43.7195" lon="1.50338">
        <ele>141.65126</ele>
        <time>2023-09-17T11:42:45.424Z</time>
      </trkpt>
      <trkpt lat="43.71951" lon="1.50329">
        <ele>141.740844</ele>
        <time>2023-09-17T11:42:45.424Z</time>
      </trkpt>
      <trkpt lat="43.71951" lon="1.50329">
        <ele>141.740844</ele>
        <time>2023-09-17T11:42:45.424Z</time>
      </trkpt>
      <trkpt lat="43.71953" lon="1.50321">
        <ele>141.828377</ele>
        <time>2023-09-17T11:42:47.424Z</time>
      </trkpt>
      <trkpt lat="43.71954" lon="1.50313">
        <ele>141.918024</ele>
        <time>2023-09-17T11:42:48.424Z</time>
      </trkpt>
      <trkpt lat="43.71956" lon="1.50305">
        <ele>142.001462</ele>
        <time>2023-09-17T11:42:49.424Z</time>
      </trkpt>
      <trkpt lat="43.71956" lon="1.50305">
        <ele>142.001462</ele>
        <time>2023-09-17T11:42:49.424Z</time>
      </trkpt>
      <trkpt lat="43.71957" lon="1.50298">
        <ele>142.079805</ele>
        <time>2023-09-17T11:42:50.424Z</time>
      </trkpt>
      <trkpt lat="43.71958" lon="1.50291">
        <ele>142.154969</ele>
        <time>2023-09-17T11:42:51.424Z</time>
      </trkpt>
      <trkpt lat="43.71958" lon="1.50291">
        <ele>142.154969</ele>
        <time>2023-09-17T11:42:51.424Z</time>
      </trkpt>
      <trkpt lat="43.71959" lon="1.50284">
        <ele>142.23602</ele>
        <time>2023-09-17T11:42:52.424Z</time>
      </trkpt>
      <trkpt lat="43.71959" lon="1.50277">
        <ele>142.312275</ele>
        <time>2023-09-17T11:42:53.424Z</time>
      </trkpt>
      <trkpt lat="43.71959" lon="1.50277">
        <ele>142.312275</ele>
        <time>2023-09-17T11:42:53.424Z</time>
      </trkpt>
      <trkpt lat="43.71958" lon="1.5027">
        <ele>142.381947</ele>
        <time>2023-09-17T11:42:54.424Z</time>
      </trkpt>
      <trkpt lat="43.71955" lon="1.50265">
        <ele>142.461162</ele>
        <time>2023-09-17T11:42:55.424Z</time>
      </trkpt>
      <trkpt lat="43.71951" lon="1.50262">
        <ele>142.517584</ele>
        <time>2023-09-17T11:42:56.424Z</time>
      </trkpt>
      <trkpt lat="43.71947" lon="1.50262">
        <ele>142.579277</ele>
        <time>2023-09-17T11:42:57.424Z</time>
      </trkpt>
      <trkpt lat="43.71943" lon="1.50263">
        <ele>142.641558</ele>
        <time>2023-09-17T11:42:58.424Z</time>
      </trkpt>
      <trkpt lat="43.71943" lon="1.50263">
        <ele>142.641558</ele>
        <time>2023-09-17T11:42:58.424Z</time>
      </trkpt>
      <trkpt lat="43.71938" lon="1.50264">
        <ele>142.711064</ele>
        <time>2023-09-17T11:42:59.424Z</time>
      </trkpt>
      <trkpt lat="43.71934" lon="1.50265">
        <ele>142.779661</ele>
        <time>2023-09-17T11:42:59.424Z</time>
      </trkpt>
      <trkpt lat="43.71929" lon="1.50266">
        <ele>142.845909</ele>
        <time>2023-09-17T11:43:01.424Z</time>
      </trkpt>
      <trkpt lat="43.71929" lon="1.50266">
        <ele>142.845909</ele>
        <time>2023-09-17T11:43:01.424Z</time>
      </trkpt>
      <trkpt lat="43.71925" lon="1.50266">
        <ele>142.913327</ele>
        <time>2023-09-17T11:43:02.424Z</time>
      </trkpt>
      <trkpt lat="43.7192" lon="1.50266">
        <ele>142.980769</ele>
        <time>2023-09-17T11:43:03.424Z</time>
      </trkpt>
      <trkpt lat="43.71915" lon="1.50265">
        <ele>143.052854</ele>
        <time>2023-09-17T11:43:04.424Z</time>
      </trkpt>
      <trkpt lat="43.71911" lon="1.50265">
        <ele>143.114982</ele>
        <time>2023-09-17T11:43:05.424Z</time>
      </trkpt>
      <trkpt lat="43.71911" lon="1.50265">
        <ele>143.114982</ele>
        <time>2023-09-17T11:43:05.424Z</time>
      </trkpt>
      <trkpt lat="43.71906" lon="1.50263">
        <ele>143.18339</ele>
        <time>2023-09-17T11:43:06.424Z</time>
      </trkpt>
      <trkpt lat="43.71902" lon="1.50262">
        <ele>143.25241</ele>
        <time>2023-09-17T11:43:07.424Z</time>
      </trkpt>
      <trkpt lat="43.71898" lon="1.5026">
        <ele>143.316842</ele>
        <time>2023-09-17T11:43:08.424Z</time>
      </trkpt>
      <trkpt lat="43.71898" lon="1.5026">
        <ele>143.316842</ele>
        <time>2023-09-17T11:43:08.424Z</time>
      </trkpt>
      <trkpt lat="43.71892" lon="1.50258">
        <ele>143.409022</ele>
        <time>2023-09-17T11:43:10.424Z</time>
      </trkpt>
      <trkpt lat="43.71886" lon="1.50252">
        <ele>143.525187</ele>
        <time>2023-09-17T11:43:11.424Z</time>
      </trkpt>
      <trkpt lat="43.71886" lon="1.50252">
        <ele>143.525187</ele>
        <time>2023-09-17T11:43:11.424Z</time>
      </trkpt>
      <trkpt lat="43.71883" lon="1.50249">
        <ele>143.586895</ele>
        <time>2023-09-17T11:43:12.424Z</time>
      </trkpt>
      <trkpt lat="43.71875" lon="1.50239">
        <ele>143.75737</ele>
        <time>2023-09-17T11:43:14.424Z</time>
      </trkpt>
      <trkpt lat="43.71875" lon="1.50239">
        <ele>143.75737</ele>
        <time>2023-09-17T11:43:14.424Z</time>
      </trkpt>
      <trkpt lat="43.71872" lon="1.50236">
        <ele>143.81107</ele>
        <time>2023-09-17T11:43:15.424Z</time>
      </trkpt>
      <trkpt lat="43.71872" lon="1.50236">
        <ele>143.81107</ele>
        <time>2023-09-17T11:43:15.424Z</time>
      </trkpt>
      <trkpt lat="43.71869" lon="1.50231">
        <ele>143.881664</ele>
        <time>2023-09-17T11:43:15.424Z</time>
      </trkpt>
      <trkpt lat="43.71866" lon="1.50226">
        <ele>143.961929</ele>
        <time>2023-09-17T11:43:17.424Z</time>
      </trkpt>
      <trkpt lat="43.71866" lon="1.50226">
        <ele>143.961929</ele>
        <time>2023-09-17T11:43:17.424Z</time>
      </trkpt>
      <trkpt lat="43.71862" lon="1.5022">
        <ele>144.053922</ele>
        <time>2023-09-17T11:43:18.424Z</time>
      </trkpt>
      <trkpt lat="43.71862" lon="1.5022">
        <ele>144.053922</ele>
        <time>2023-09-17T11:43:18.424Z</time>
      </trkpt>
      <trkpt lat="43.71859" lon="1.50216">
        <ele>144.127973</ele>
        <time>2023-09-17T11:43:18.424Z</time>
      </trkpt>
      <trkpt lat="43.71859" lon="1.50216">
        <ele>144.127973</ele>
        <time>2023-09-17T11:43:18.424Z</time>
      </trkpt>
      <trkpt lat="43.71855" lon="1.5021">
        <ele>144.218244</ele>
        <time>2023-09-17T11:43:19.424Z</time>
      </trkpt>
      <trkpt lat="43.71852" lon="1.50205">
        <ele>144.296869</ele>
        <time>2023-09-17T11:43:20.424Z</time>
      </trkpt>
      <trkpt lat="43.71852" lon="1.50205">
        <ele>144.296869</ele>
        <time>2023-09-17T11:43:20.424Z</time>
      </trkpt>
      <trkpt lat="43.71848" lon="1.502">
        <ele>144.383778</ele>
        <time>2023-09-17T11:43:21.424Z</time>
      </trkpt>
      <trkpt lat="43.71848" lon="1.502">
        <ele>144.383778</ele>
        <time>2023-09-17T11:43:21.424Z</time>
      </trkpt>
      <trkpt lat="43.71844" lon="1.50194">
        <ele>144.473198</ele>
        <time>2023-09-17T11:43:23.424Z</time>
      </trkpt>
      <trkpt lat="43.7184" lon="1.50188">
        <ele>144.560936</ele>
        <time>2023-09-17T11:43:24.424Z</time>
      </trkpt>
      <trkpt lat="43.7184" lon="1.50188">
        <ele>144.560936</ele>
        <time>2023-09-17T11:43:24.424Z</time>
      </trkpt>
      <trkpt lat="43.71837" lon="1.50183">
        <ele>144.649512</ele>
        <time>2023-09-17T11:43:25.424Z</time>
      </trkpt>
      <trkpt lat="43.71837" lon="1.50183">
        <ele>144.649512</ele>
        <time>2023-09-17T11:43:25.424Z</time>
      </trkpt>
      <trkpt lat="43.71833" lon="1.50178">
        <ele>144.73061</ele>
        <time>2023-09-17T11:43:26.424Z</time>
      </trkpt>
      <trkpt lat="43.71829" lon="1.50172">
        <ele>144.815882</ele>
        <time>2023-09-17T11:43:27.424Z</time>
      </trkpt>
      <trkpt lat="43.71826" lon="1.50167">
        <ele>144.900218</ele>
        <time>2023-09-17T11:43:28.424Z</time>
      </trkpt>
      <trkpt lat="43.71822" lon="1.50162">
        <ele>144.983884</ele>
        <time>2023-09-17T11:43:29.424Z</time>
      </trkpt>
      <trkpt lat="43.71818" lon="1.50156">
        <ele>145.070793</ele>
        <time>2023-09-17T11:43:30.424Z</time>
      </trkpt>
      <trkpt lat="43.71818" lon="1.50156">
        <ele>145.070793</ele>
        <time>2023-09-17T11:43:30.424Z</time>
      </trkpt>
      <trkpt lat="43.71815" lon="1.50152">
        <ele>145.150234</ele>
        <time>2023-09-17T11:43:31.424Z</time>
      </trkpt>
      <trkpt lat="43.71815" lon="1.50152">
        <ele>145.150234</ele>
        <time>2023-09-17T11:43:31.424Z</time>
      </trkpt>
      <trkpt lat="43.71811" lon="1.50146">
        <ele>145.236321</ele>
        <time>2023-09-17T11:43:32.424Z</time>
      </trkpt>
      <trkpt lat="43.71811" lon="1.50146">
        <ele>145.236321</ele>
        <time>2023-09-17T11:43:32.424Z</time>
      </trkpt>
      <trkpt lat="43.71808" lon="1.50141">
        <ele>145.320657</ele>
        <time>2023-09-17T11:43:33.424Z</time>
      </trkpt>
      <trkpt lat="43.71804" lon="1.50135">
        <ele>145.40516</ele>
        <time>2023-09-17T11:43:34.424Z</time>
      </trkpt>
      <trkpt lat="43.71804" lon="1.50135">
        <ele>145.40516</ele>
        <time>2023-09-17T11:43:34.424Z</time>
      </trkpt>
      <trkpt lat="43.718" lon="1.50129">
        <ele>145.499782</ele>
        <time>2023-09-17T11:43:34.424Z</time>
      </trkpt>
      <trkpt lat="43.71797" lon="1.50123">
        <ele>145.585897</ele>
        <time>2023-09-17T11:43:35.424Z</time>
      </trkpt>
      <trkpt lat="43.71793" lon="1.50117">
        <ele>145.676168</ele>
        <time>2023-09-17T11:43:36.424Z</time>
      </trkpt>
      <trkpt lat="43.71793" lon="1.50117">
        <ele>145.676168</ele>
        <time>2023-09-17T11:43:36.424Z</time>
      </trkpt>
      <trkpt lat="43.71789" lon="1.50111">
        <ele>145.768162</ele>
        <time>2023-09-17T11:43:38.424Z</time>
      </trkpt>
      <trkpt lat="43.71785" lon="1.50106">
        <ele>145.856738</ele>
        <time>2023-09-17T11:43:38.424Z</time>
      </trkpt>
      <trkpt lat="43.71782" lon="1.501">
        <ele>145.944768</ele>
        <time>2023-09-17T11:43:40.424Z</time>
      </trkpt>
      <trkpt lat="43.71777" lon="1.50094">
        <ele>146.041918</ele>
        <time>2023-09-17T11:43:40.424Z</time>
      </trkpt>
      <trkpt lat="43.71774" lon="1.50089">
        <ele>146.120246</ele>
        <time>2023-09-17T11:43:41.424Z</time>
      </trkpt>
      <trkpt lat="43.7177" lon="1.50084">
        <ele>146.212511</ele>
        <time>2023-09-17T11:43:42.424Z</time>
      </trkpt>
      <trkpt lat="43.71766" lon="1.50078">
        <ele>146.285659</ele>
        <time>2023-09-17T11:43:44.424Z</time>
      </trkpt>
      <trkpt lat="43.71762" lon="1.50073">
        <ele>146.358315</ele>
        <time>2023-09-17T11:43:44.424Z</time>
      </trkpt>
      <trkpt lat="43.71758" lon="1.50069">
        <ele>146.428568</ele>
        <time>2023-09-17T11:43:46.424Z</time>
      </trkpt>
      <trkpt lat="43.71753" lon="1.50065">
        <ele>146.501987</ele>
        <time>2023-09-17T11:43:47.424Z</time>
      </trkpt>
      <trkpt lat="43.71748" lon="1.50061">
        <ele>146.577719</ele>
        <time>2023-09-17T11:43:48.424Z</time>
      </trkpt>
      <trkpt lat="43.71748" lon="1.50061">
        <ele>146.577719</ele>
        <time>2023-09-17T11:43:48.424Z</time>
      </trkpt>
      <trkpt lat="43.71743" lon="1.50057">
        <ele>146.645811</ele>
        <time>2023-09-17T11:43:49.424Z</time>
      </trkpt>
      <trkpt lat="43.71738" lon="1.50054">
        <ele>146.717512</ele>
        <time>2023-09-17T11:43:50.424Z</time>
      </trkpt>
      <trkpt lat="43.71738" lon="1.50054">
        <ele>146.717512</ele>
        <time>2023-09-17T11:43:50.424Z</time>
      </trkpt>
      <trkpt lat="43.71733" lon="1.50051">
        <ele>146.793244</ele>
        <time>2023-09-17T11:43:51.424Z</time>
      </trkpt>
      <trkpt lat="43.71728" lon="1.50049">
        <ele>146.867298</ele>
        <time>2023-09-17T11:43:52.424Z</time>
      </trkpt>
      <trkpt lat="43.71728" lon="1.50049">
        <ele>146.867298</ele>
        <time>2023-09-17T11:43:52.424Z</time>
      </trkpt>
      <trkpt lat="43.71722" lon="1.50047">
        <ele>146.941746</ele>
        <time>2023-09-17T11:43:53.424Z</time>
      </trkpt>
      <trkpt lat="43.71717" lon="1.50045">
        <ele>147.014926</ele>
        <time>2023-09-17T11:43:54.424Z</time>
      </trkpt>
      <trkpt lat="43.71717" lon="1.50045">
        <ele>147.014926</ele>
        <time>2023-09-17T11:43:54.424Z</time>
      </trkpt>
      <trkpt lat="43.71712" lon="1.50042">
        <ele>147.089373</ele>
        <time>2023-09-17T11:43:55.424Z</time>
      </trkpt>
      <trkpt lat="43.71712" lon="1.50042">
        <ele>147.089373</ele>
        <time>2023-09-17T11:43:55.424Z</time>
      </trkpt>
      <trkpt lat="43.71706" lon="1.5004">
        <ele>147.173511</ele>
        <time>2023-09-17T11:43:56.424Z</time>
      </trkpt>
      <trkpt lat="43.71706" lon="1.5004">
        <ele>147.173511</ele>
        <time>2023-09-17T11:43:56.424Z</time>
      </trkpt>
      <trkpt lat="43.717" lon="1.50038">
        <ele>147.246971</ele>
        <time>2023-09-17T11:43:57.424Z</time>
      </trkpt>
      <trkpt lat="43.71695" lon="1.50035">
        <ele>147.31636</ele>
        <time>2023-09-17T11:43:58.424Z</time>
      </trkpt>
      <trkpt lat="43.7169" lon="1.50033">
        <ele>147.384201</ele>
        <time>2023-09-17T11:43:58.424Z</time>
      </trkpt>
      <trkpt lat="43.7169" lon="1.50033">
        <ele>147.384201</ele>
        <time>2023-09-17T11:43:58.424Z</time>
      </trkpt>
      <trkpt lat="43.71685" lon="1.50031">
        <ele>147.458384</ele>
        <time>2023-09-17T11:44:00.424Z</time>
      </trkpt>
      <trkpt lat="43.71679" lon="1.50029">
        <ele>147.537181</ele>
        <time>2023-09-17T11:44:01.424Z</time>
      </trkpt>
      <trkpt lat="43.71675" lon="1.50026">
        <ele>147.602198</ele>
        <time>2023-09-17T11:44:02.424Z</time>
      </trkpt>
      <trkpt lat="43.71669" lon="1.50023">
        <ele>147.677573</ele>
        <time>2023-09-17T11:44:03.424Z</time>
      </trkpt>
      <trkpt lat="43.71665" lon="1.5002">
        <ele>147.745666</ele>
        <time>2023-09-17T11:44:04.424Z</time>
      </trkpt>
      <trkpt lat="43.7166" lon="1.50016">
        <ele>147.817015</ele>
        <time>2023-09-17T11:44:05.424Z</time>
      </trkpt>
      <trkpt lat="43.7166" lon="1.50016">
        <ele>147.817015</ele>
        <time>2023-09-17T11:44:05.424Z</time>
      </trkpt>
      <trkpt lat="43.71656" lon="1.50012">
        <ele>147.887857</ele>
        <time>2023-09-17T11:44:06.424Z</time>
      </trkpt>
      <trkpt lat="43.71656" lon="1.50012">
        <ele>147.887857</ele>
        <time>2023-09-17T11:44:06.424Z</time>
      </trkpt>
      <trkpt lat="43.71652" lon="1.50006">
        <ele>147.964998</ele>
        <time>2023-09-17T11:44:06.424Z</time>
      </trkpt>
      <trkpt lat="43.71648" lon="1.5">
        <ele>148.035641</ele>
        <time>2023-09-17T11:44:08.424Z</time>
      </trkpt>
      <trkpt lat="43.71645" lon="1.49994">
        <ele>148.107756</ele>
        <time>2023-09-17T11:44:09.424Z</time>
      </trkpt>
      <trkpt lat="43.71643" lon="1.49987">
        <ele>148.177931</ele>
        <time>2023-09-17T11:44:10.424Z</time>
      </trkpt>
      <trkpt lat="43.71642" lon="1.4998">
        <ele>148.252096</ele>
        <time>2023-09-17T11:44:11.424Z</time>
      </trkpt>
      <trkpt lat="43.71642" lon="1.4998">
        <ele>148.252096</ele>
        <time>2023-09-17T11:44:11.424Z</time>
      </trkpt>
      <trkpt lat="43.7164" lon="1.49973">
        <ele>148.320055</ele>
        <time>2023-09-17T11:44:12.424Z</time>
      </trkpt>
      <trkpt lat="43.7164" lon="1.49973">
        <ele>148.320055</ele>
        <time>2023-09-17T11:44:12.424Z</time>
      </trkpt>
      <trkpt lat="43.71639" lon="1.49965">
        <ele>148.397896</ele>
        <time>2023-09-17T11:44:13.424Z</time>
      </trkpt>
      <trkpt lat="43.71639" lon="1.49965">
        <ele>148.397896</ele>
        <time>2023-09-17T11:44:13.424Z</time>
      </trkpt>
      <trkpt lat="43.71638" lon="1.49958">
        <ele>148.463751</ele>
        <time>2023-09-17T11:44:14.424Z</time>
      </trkpt>
      <trkpt lat="43.71638" lon="1.49958">
        <ele>148.463751</ele>
        <time>2023-09-17T11:44:14.424Z</time>
      </trkpt>
      <trkpt lat="43.71637" lon="1.49951">
        <ele>148.535272</ele>
        <time>2023-09-17T11:44:14.424Z</time>
      </trkpt>
      <trkpt lat="43.71637" lon="1.49951">
        <ele>148.535272</ele>
        <time>2023-09-17T11:44:14.424Z</time>
      </trkpt>
      <trkpt lat="43.71636" lon="1.49943">
        <ele>148.634072</ele>
        <time>2023-09-17T11:44:16.424Z</time>
      </trkpt>
      <trkpt lat="43.71636" lon="1.49943">
        <ele>148.634072</ele>
        <time>2023-09-17T11:44:16.424Z</time>
      </trkpt>
      <trkpt lat="43.71635" lon="1.49936">
        <ele>148.804379</ele>
        <time>2023-09-17T11:44:17.424Z</time>
      </trkpt>
      <trkpt lat="43.71635" lon="1.49936">
        <ele>148.804379</ele>
        <time>2023-09-17T11:44:17.424Z</time>
      </trkpt>
      <trkpt lat="43.71634" lon="1.49929">
        <ele>148.990641</ele>
        <time>2023-09-17T11:44:18.424Z</time>
      </trkpt>
      <trkpt lat="43.71634" lon="1.49929">
        <ele>148.990641</ele>
        <time>2023-09-17T11:44:18.424Z</time>
      </trkpt>
      <trkpt lat="43.71634" lon="1.49921">
        <ele>149.179962</ele>
        <time>2023-09-17T11:44:19.424Z</time>
      </trkpt>
      <trkpt lat="43.71633" lon="1.49914">
        <ele>149.349782</ele>
        <time>2023-09-17T11:44:19.424Z</time>
      </trkpt>
      <trkpt lat="43.71632" lon="1.49906">
        <ele>149.529689</ele>
        <time>2023-09-17T11:44:21.424Z</time>
      </trkpt>
      <trkpt lat="43.71632" lon="1.49906">
        <ele>149.529689</ele>
        <time>2023-09-17T11:44:21.424Z</time>
      </trkpt>
      <trkpt lat="43.71631" lon="1.49899">
        <ele>149.706653</ele>
        <time>2023-09-17T11:44:22.424Z</time>
      </trkpt>
      <trkpt lat="43.7163" lon="1.49892">
        <ele>149.88171</ele>
        <time>2023-09-17T11:44:23.424Z</time>
      </trkpt>
      <trkpt lat="43.71629" lon="1.49884">
        <ele>150.068654</ele>
        <time>2023-09-17T11:44:24.424Z</time>
      </trkpt>
      <trkpt lat="43.71629" lon="1.49884">
        <ele>150.068654</ele>
        <time>2023-09-17T11:44:24.424Z</time>
      </trkpt>
      <trkpt lat="43.71628" lon="1.49877">
        <ele>150.238474</ele>
        <time>2023-09-17T11:44:25.424Z</time>
      </trkpt>
      <trkpt lat="43.71627" lon="1.4987">
        <ele>150.411156</ele>
        <time>2023-09-17T11:44:26.424Z</time>
      </trkpt>
      <trkpt lat="43.71627" lon="1.4987">
        <ele>150.411156</ele>
        <time>2023-09-17T11:44:26.424Z</time>
      </trkpt>
      <trkpt lat="43.71626" lon="1.49863">
        <ele>150.592708</ele>
        <time>2023-09-17T11:44:27.424Z</time>
      </trkpt>
      <trkpt lat="43.71626" lon="1.49856">
        <ele>150.758271</ele>
        <time>2023-09-17T11:44:27.424Z</time>
      </trkpt>
      <trkpt lat="43.71626" lon="1.49856">
        <ele>150.758271</ele>
        <time>2023-09-17T11:44:27.424Z</time>
      </trkpt>
      <trkpt lat="43.71624" lon="1.49849">
        <ele>150.93747</ele>
        <time>2023-09-17T11:44:29.424Z</time>
      </trkpt>
      <trkpt lat="43.71624" lon="1.49842">
        <ele>151.103032</ele>
        <time>2023-09-17T11:44:30.424Z</time>
      </trkpt>
      <trkpt lat="43.71624" lon="1.49842">
        <ele>151.103032</ele>
        <time>2023-09-17T11:44:30.424Z</time>
      </trkpt>
      <trkpt lat="43.71623" lon="1.49835">
        <ele>151.277529</ele>
        <time>2023-09-17T11:44:31.424Z</time>
      </trkpt>
      <trkpt lat="43.71622" lon="1.49828">
        <ele>151.43835</ele>
        <time>2023-09-17T11:44:32.424Z</time>
      </trkpt>
      <trkpt lat="43.71622" lon="1.49828">
        <ele>151.43835</ele>
        <time>2023-09-17T11:44:32.424Z</time>
      </trkpt>
      <trkpt lat="43.71621" lon="1.49821">
        <ele>151.612847</ele>
        <time>2023-09-17T11:44:33.424Z</time>
      </trkpt>
      <trkpt lat="43.7162" lon="1.49815">
        <ele>151.768929</ele>
        <time>2023-09-17T11:44:34.424Z</time>
      </trkpt>
      <trkpt lat="43.7162" lon="1.49815">
        <ele>151.768929</ele>
        <time>2023-09-17T11:44:34.424Z</time>
      </trkpt>
      <trkpt lat="43.71619" lon="1.49808">
        <ele>151.929356</ele>
        <time>2023-09-17T11:44:35.424Z</time>
      </trkpt>
      <trkpt lat="43.71618" lon="1.49802">
        <ele>152.090574</ele>
        <time>2023-09-17T11:44:36.424Z</time>
      </trkpt>
      <trkpt lat="43.71618" lon="1.49802">
        <ele>152.090574</ele>
        <time>2023-09-17T11:44:36.424Z</time>
      </trkpt>
      <trkpt lat="43.71617" lon="1.49795">
        <ele>152.244289</ele>
        <time>2023-09-17T11:44:37.424Z</time>
      </trkpt>
      <trkpt lat="43.71617" lon="1.49795">
        <ele>152.244289</ele>
        <time>2023-09-17T11:44:37.424Z</time>
      </trkpt>
      <trkpt lat="43.71616" lon="1.49789">
        <ele>152.404716</ele>
        <time>2023-09-17T11:44:37.424Z</time>
      </trkpt>
      <trkpt lat="43.71615" lon="1.49783">
        <ele>152.556065</ele>
        <time>2023-09-17T11:44:38.424Z</time>
      </trkpt>
      <trkpt lat="43.71615" lon="1.49783">
        <ele>152.556065</ele>
        <time>2023-09-17T11:44:38.424Z</time>
      </trkpt>
      <trkpt lat="43.71615" lon="1.49777">
        <ele>152.683431</ele>
        <time>2023-09-17T11:44:40.424Z</time>
      </trkpt>
      <trkpt lat="43.71615" lon="1.49777">
        <ele>152.683431</ele>
        <time>2023-09-17T11:44:40.424Z</time>
      </trkpt>
      <trkpt lat="43.71615" lon="1.49773">
        <ele>152.796377</ele>
        <time>2023-09-17T11:44:40.424Z</time>
      </trkpt>
      <trkpt lat="43.71615" lon="1.49769">
        <ele>152.8978</ele>
        <time>2023-09-17T11:44:41.424Z</time>
      </trkpt>
      <trkpt lat="43.71615" lon="1.49769">
        <ele>152.8978</ele>
        <time>2023-09-17T11:44:41.424Z</time>
      </trkpt>
      <trkpt lat="43.71613" lon="1.49764">
        <ele>153.008569</ele>
        <time>2023-09-17T11:44:43.424Z</time>
      </trkpt>
      <trkpt lat="43.71613" lon="1.49764">
        <ele>153.008569</ele>
        <time>2023-09-17T11:44:43.424Z</time>
      </trkpt>
      <trkpt lat="43.71612" lon="1.49761">
        <ele>153.095899</ele>
        <time>2023-09-17T11:44:44.424Z</time>
      </trkpt>
      <trkpt lat="43.71611" lon="1.49757">
        <ele>153.209992</ele>
        <time>2023-09-17T11:44:44.424Z</time>
      </trkpt>
      <trkpt lat="43.71611" lon="1.49757">
        <ele>153.209992</ele>
        <time>2023-09-17T11:44:44.424Z</time>
      </trkpt>
      <trkpt lat="43.7161" lon="1.49755">
        <ele>153.267756</ele>
        <time>2023-09-17T11:44:45.424Z</time>
      </trkpt>
      <trkpt lat="43.71609" lon="1.49751">
        <ele>153.36287</ele>
        <time>2023-09-17T11:44:46.424Z</time>
      </trkpt>
      <trkpt lat="43.71609" lon="1.49751">
        <ele>153.36287</ele>
        <time>2023-09-17T11:44:46.424Z</time>
      </trkpt>
      <trkpt lat="43.71608" lon="1.49746">
        <ele>153.468793</ele>
        <time>2023-09-17T11:44:48.424Z</time>
      </trkpt>
      <trkpt lat="43.71608" lon="1.49746">
        <ele>153.468793</ele>
        <time>2023-09-17T11:44:48.424Z</time>
      </trkpt>
      <trkpt lat="43.71607" lon="1.49743">
        <ele>153.561885</ele>
        <time>2023-09-17T11:44:50.424Z</time>
      </trkpt>
      <trkpt lat="43.71607" lon="1.49743">
        <ele>153.561885</ele>
        <time>2023-09-17T11:44:50.424Z</time>
      </trkpt>
      <trkpt lat="43.71606" lon="1.49738">
        <ele>153.676043</ele>
        <time>2023-09-17T11:44:50.424Z</time>
      </trkpt>
      <trkpt lat="43.71606" lon="1.49738">
        <ele>153.676043</ele>
        <time>2023-09-17T11:44:50.424Z</time>
      </trkpt>
      <trkpt lat="43.71605" lon="1.49735">
        <ele>153.777904</ele>
        <time>2023-09-17T11:44:52.424Z</time>
      </trkpt>
      <trkpt lat="43.71605" lon="1.49735">
        <ele>153.777904</ele>
        <time>2023-09-17T11:44:52.424Z</time>
      </trkpt>
      <trkpt lat="43.71603" lon="1.49728">
        <ele>153.939737</ele>
        <time>2023-09-17T11:44:52.424Z</time>
      </trkpt>
      <trkpt lat="43.71603" lon="1.49728">
        <ele>153.939737</ele>
        <time>2023-09-17T11:44:52.424Z</time>
      </trkpt>
      <trkpt lat="43.71601" lon="1.4972">
        <ele>154.155598</ele>
        <time>2023-09-17T11:44:54.424Z</time>
      </trkpt>
      <trkpt lat="43.71601" lon="1.4972">
        <ele>154.155598</ele>
        <time>2023-09-17T11:44:54.424Z</time>
      </trkpt>
      <trkpt lat="43.71598" lon="1.49712">
        <ele>154.364734</ele>
        <time>2023-09-17T11:44:55.424Z</time>
      </trkpt>
      <trkpt lat="43.71598" lon="1.49712">
        <ele>154.364734</ele>
        <time>2023-09-17T11:44:55.424Z</time>
      </trkpt>
      <trkpt lat="43.71597" lon="1.49705">
        <ele>154.54019</ele>
        <time>2023-09-17T11:44:57.424Z</time>
      </trkpt>
      <trkpt lat="43.71597" lon="1.49705">
        <ele>154.54019</ele>
        <time>2023-09-17T11:44:57.424Z</time>
      </trkpt>
      <trkpt lat="43.71595" lon="1.49697">
        <ele>154.995405</ele>
        <time>2023-09-17T11:44:58.424Z</time>
      </trkpt>
      <trkpt lat="43.71595" lon="1.49697">
        <ele>154.995405</ele>
        <time>2023-09-17T11:44:58.424Z</time>
      </trkpt>
      <trkpt lat="43.71594" lon="1.4969">
        <ele>155.402835</ele>
        <time>2023-09-17T11:44:59.424Z</time>
      </trkpt>
      <trkpt lat="43.71594" lon="1.4969">
        <ele>155.402835</ele>
        <time>2023-09-17T11:44:59.424Z</time>
      </trkpt>
      <trkpt lat="43.71593" lon="1.49683">
        <ele>155.793832</ele>
        <time>2023-09-17T11:45:00.424Z</time>
      </trkpt>
      <trkpt lat="43.71593" lon="1.49683">
        <ele>155.793832</ele>
        <time>2023-09-17T11:45:00.424Z</time>
      </trkpt>
      <trkpt lat="43.71593" lon="1.49677">
        <ele>156.192493</ele>
        <time>2023-09-17T11:45:01.424Z</time>
      </trkpt>
      <trkpt lat="43.71593" lon="1.49677">
        <ele>156.192493</ele>
        <time>2023-09-17T11:45:01.424Z</time>
      </trkpt>
      <trkpt lat="43.71592" lon="1.49671">
        <ele>156.543898</ele>
        <time>2023-09-17T11:45:03.424Z</time>
      </trkpt>
      <trkpt lat="43.71592" lon="1.49671">
        <ele>156.543898</ele>
        <time>2023-09-17T11:45:03.424Z</time>
      </trkpt>
      <trkpt lat="43.71592" lon="1.49665">
        <ele>156.887836</ele>
        <time>2023-09-17T11:45:04.424Z</time>
      </trkpt>
      <trkpt lat="43.71592" lon="1.49665">
        <ele>156.887836</ele>
        <time>2023-09-17T11:45:04.424Z</time>
      </trkpt>
      <trkpt lat="43.71592" lon="1.4966">
        <ele>157.208055</ele>
        <time>2023-09-17T11:45:05.424Z</time>
      </trkpt>
      <trkpt lat="43.71592" lon="1.4966">
        <ele>157.208055</ele>
        <time>2023-09-17T11:45:05.424Z</time>
      </trkpt>
      <trkpt lat="43.71592" lon="1.49652">
        <ele>157.646873</ele>
        <time>2023-09-17T11:45:06.424Z</time>
      </trkpt>
      <trkpt lat="43.71592" lon="1.49652">
        <ele>157.646873</ele>
        <time>2023-09-17T11:45:06.424Z</time>
      </trkpt>
      <trkpt lat="43.71593" lon="1.49644">
        <ele>158.157906</ele>
        <time>2023-09-17T11:45:06.424Z</time>
      </trkpt>
      <trkpt lat="43.71593" lon="1.49644">
        <ele>158.157906</ele>
        <time>2023-09-17T11:45:06.424Z</time>
      </trkpt>
      <trkpt lat="43.71593" lon="1.49636">
        <ele>158.590794</ele>
        <time>2023-09-17T11:45:09.424Z</time>
      </trkpt>
      <trkpt lat="43.71593" lon="1.49636">
        <ele>158.590794</ele>
        <time>2023-09-17T11:45:09.424Z</time>
      </trkpt>
      <trkpt lat="43.71592" lon="1.49629">
        <ele>159.036752</ele>
        <time>2023-09-17T11:45:10.424Z</time>
      </trkpt>
      <trkpt lat="43.71592" lon="1.49629">
        <ele>159.036752</ele>
        <time>2023-09-17T11:45:10.424Z</time>
      </trkpt>
      <trkpt lat="43.71593" lon="1.49624">
        <ele>159.317386</ele>
        <time>2023-09-17T11:45:11.424Z</time>
      </trkpt>
      <trkpt lat="43.71593" lon="1.49624">
        <ele>159.317386</ele>
        <time>2023-09-17T11:45:11.424Z</time>
      </trkpt>
      <trkpt lat="43.71593" lon="1.49617">
        <ele>159.745604</ele>
        <time>2023-09-17T11:45:12.424Z</time>
      </trkpt>
      <trkpt lat="43.71593" lon="1.49617">
        <ele>159.745604</ele>
        <time>2023-09-17T11:45:12.424Z</time>
      </trkpt>
      <trkpt lat="43.71593" lon="1.49612">
        <ele>160.024313</ele>
        <time>2023-09-17T11:45:13.424Z</time>
      </trkpt>
      <trkpt lat="43.71593" lon="1.49612">
        <ele>160.024313</ele>
        <time>2023-09-17T11:45:13.424Z</time>
      </trkpt>
      <trkpt lat="43.71593" lon="1.49606">
        <ele>160.380111</ele>
        <time>2023-09-17T11:45:14.424Z</time>
      </trkpt>
      <trkpt lat="43.71593" lon="1.49606">
        <ele>160.380111</ele>
        <time>2023-09-17T11:45:14.424Z</time>
      </trkpt>
      <trkpt lat="43.71594" lon="1.49601">
        <ele>160.719709</ele>
        <time>2023-09-17T11:45:15.424Z</time>
      </trkpt>
      <trkpt lat="43.71594" lon="1.49601">
        <ele>160.719709</ele>
        <time>2023-09-17T11:45:15.424Z</time>
      </trkpt>
      <trkpt lat="43.71594" lon="1.49589">
        <ele>161.395727</ele>
        <time>2023-09-17T11:45:16.424Z</time>
      </trkpt>
      <trkpt lat="43.71594" lon="1.49589">
        <ele>161.395727</ele>
        <time>2023-09-17T11:45:16.424Z</time>
      </trkpt>
      <trkpt lat="43.71594" lon="1.49585">
        <ele>161.617577</ele>
        <time>2023-09-17T11:45:17.424Z</time>
      </trkpt>
      <trkpt lat="43.71594" lon="1.49585">
        <ele>161.617577</ele>
        <time>2023-09-17T11:45:17.424Z</time>
      </trkpt>
      <trkpt lat="43.71595" lon="1.49575">
        <ele>162.254678</ele>
        <time>2023-09-17T11:45:19.424Z</time>
      </trkpt>
      <trkpt lat="43.71595" lon="1.49575">
        <ele>162.254678</ele>
        <time>2023-09-17T11:45:19.424Z</time>
      </trkpt>
      <trkpt lat="43.71595" lon="1.49568">
        <ele>162.671071</ele>
        <time>2023-09-17T11:45:22.424Z</time>
      </trkpt>
      <trkpt lat="43.71595" lon="1.49568">
        <ele>162.671071</ele>
        <time>2023-09-17T11:45:22.424Z</time>
      </trkpt>
      <trkpt lat="43.71595" lon="1.49562">
        <ele>163.03873</ele>
        <time>2023-09-17T11:45:22.424Z</time>
      </trkpt>
      <trkpt lat="43.71595" lon="1.49562">
        <ele>163.03873</ele>
        <time>2023-09-17T11:45:22.424Z</time>
      </trkpt>
      <trkpt lat="43.71595" lon="1.49556">
        <ele>163.390134</ele>
        <time>2023-09-17T11:45:23.424Z</time>
      </trkpt>
      <trkpt lat="43.71595" lon="1.49556">
        <ele>163.390134</ele>
        <time>2023-09-17T11:45:23.424Z</time>
      </trkpt>
      <trkpt lat="43.71595" lon="1.4955">
        <ele>163.716282</ele>
        <time>2023-09-17T11:45:24.424Z</time>
      </trkpt>
      <trkpt lat="43.71595" lon="1.4955">
        <ele>163.716282</ele>
        <time>2023-09-17T11:45:24.424Z</time>
      </trkpt>
      <trkpt lat="43.71596" lon="1.49545">
        <ele>164.038178</ele>
        <time>2023-09-17T11:45:25.424Z</time>
      </trkpt>
      <trkpt lat="43.71596" lon="1.49545">
        <ele>164.038178</ele>
        <time>2023-09-17T11:45:25.424Z</time>
      </trkpt>
      <trkpt lat="43.71596" lon="1.49538">
        <ele>164.429557</ele>
        <time>2023-09-17T11:45:26.424Z</time>
      </trkpt>
      <trkpt lat="43.71596" lon="1.49538">
        <ele>164.429557</ele>
        <time>2023-09-17T11:45:26.424Z</time>
      </trkpt>
      <trkpt lat="43.71596" lon="1.49531">
        <ele>164.856515</ele>
        <time>2023-09-17T11:45:29.424Z</time>
      </trkpt>
      <trkpt lat="43.71596" lon="1.49531">
        <ele>164.856515</ele>
        <time>2023-09-17T11:45:29.424Z</time>
      </trkpt>
      <trkpt lat="43.71596" lon="1.49524">
        <ele>165.260503</ele>
        <time>2023-09-17T11:45:29.424Z</time>
      </trkpt>
      <trkpt lat="43.71596" lon="1.49524">
        <ele>165.260503</ele>
        <time>2023-09-17T11:45:29.424Z</time>
      </trkpt>
      <trkpt lat="43.71596" lon="1.49518">
        <ele>165.628162</ele>
        <time>2023-09-17T11:45:31.424Z</time>
      </trkpt>
      <trkpt lat="43.71596" lon="1.49518">
        <ele>165.628162</ele>
        <time>2023-09-17T11:45:31.424Z</time>
      </trkpt>
      <trkpt lat="43.71597" lon="1.49511">
        <ele>166.038644</ele>
        <time>2023-09-17T11:45:31.424Z</time>
      </trkpt>
      <trkpt lat="43.71597" lon="1.49511">
        <ele>166.038644</ele>
        <time>2023-09-17T11:45:31.424Z</time>
      </trkpt>
      <trkpt lat="43.71597" lon="1.49506">
        <ele>166.354641</ele>
        <time>2023-09-17T11:45:33.424Z</time>
      </trkpt>
      <trkpt lat="43.71597" lon="1.49506">
        <ele>166.354641</ele>
        <time>2023-09-17T11:45:33.424Z</time>
      </trkpt>
      <trkpt lat="43.71597" lon="1.49494">
        <ele>167.066994</ele>
        <time>2023-09-17T11:45:35.424Z</time>
      </trkpt>
      <trkpt lat="43.71597" lon="1.49494">
        <ele>167.066994</ele>
        <time>2023-09-17T11:45:35.424Z</time>
      </trkpt>
      <trkpt lat="43.71597" lon="1.4949">
        <ele>167.316053</ele>
        <time>2023-09-17T11:45:35.424Z</time>
      </trkpt>
      <trkpt lat="43.71597" lon="1.4949">
        <ele>167.316053</ele>
        <time>2023-09-17T11:45:35.424Z</time>
      </trkpt>
      <trkpt lat="43.71598" lon="1.49485">
        <ele>167.596687</ele>
        <time>2023-09-17T11:45:37.424Z</time>
      </trkpt>
      <trkpt lat="43.71598" lon="1.49485">
        <ele>167.596687</ele>
        <time>2023-09-17T11:45:37.424Z</time>
      </trkpt>
      <trkpt lat="43.71598" lon="1.49479">
        <ele>167.970275</ele>
        <time>2023-09-17T11:45:38.424Z</time>
      </trkpt>
      <trkpt lat="43.71598" lon="1.49479">
        <ele>167.970275</ele>
        <time>2023-09-17T11:45:38.424Z</time>
      </trkpt>
      <trkpt lat="43.71597" lon="1.49472">
        <ele>168.380757</ele>
        <time>2023-09-17T11:45:40.424Z</time>
      </trkpt>
      <trkpt lat="43.71597" lon="1.49472">
        <ele>168.380757</ele>
        <time>2023-09-17T11:45:40.424Z</time>
      </trkpt>
      <trkpt lat="43.71597" lon="1.49466">
        <ele>168.730626</ele>
        <time>2023-09-17T11:45:41.424Z</time>
      </trkpt>
      <trkpt lat="43.71597" lon="1.49466">
        <ele>168.730626</ele>
        <time>2023-09-17T11:45:41.424Z</time>
      </trkpt>
      <trkpt lat="43.71597" lon="1.49459">
        <ele>169.105653</ele>
        <time>2023-09-17T11:45:41.424Z</time>
      </trkpt>
      <trkpt lat="43.71597" lon="1.49459">
        <ele>169.105653</ele>
        <time>2023-09-17T11:45:41.424Z</time>
      </trkpt>
      <trkpt lat="43.71597" lon="1.49454">
        <ele>169.394388</ele>
        <time>2023-09-17T11:45:42.424Z</time>
      </trkpt>
      <trkpt lat="43.71597" lon="1.49454">
        <ele>169.394388</ele>
        <time>2023-09-17T11:45:42.424Z</time>
      </trkpt>
      <trkpt lat="43.71597" lon="1.49448">
        <ele>169.567743</ele>
        <time>2023-09-17T11:45:44.424Z</time>
      </trkpt>
      <trkpt lat="43.71597" lon="1.49448">
        <ele>169.567743</ele>
        <time>2023-09-17T11:45:44.424Z</time>
      </trkpt>
      <trkpt lat="43.71596" lon="1.49442">
        <ele>169.71596</ele>
        <time>2023-09-17T11:45:45.424Z</time>
      </trkpt>
      <trkpt lat="43.71596" lon="1.49442">
        <ele>169.71596</ele>
        <time>2023-09-17T11:45:45.424Z</time>
      </trkpt>
      <trkpt lat="43.71596" lon="1.49437">
        <ele>169.869559</ele>
        <time>2023-09-17T11:45:47.424Z</time>
      </trkpt>
      <trkpt lat="43.71596" lon="1.49437">
        <ele>169.869559</ele>
        <time>2023-09-17T11:45:47.424Z</time>
      </trkpt>
      <trkpt lat="43.71595" lon="1.4943">
        <ele>170.075319</ele>
        <time>2023-09-17T11:45:48.424Z</time>
      </trkpt>
      <trkpt lat="43.71595" lon="1.4943">
        <ele>170.075319</ele>
        <time>2023-09-17T11:45:48.424Z</time>
      </trkpt>
      <trkpt lat="43.71595" lon="1.49424">
        <ele>170.240247</ele>
        <time>2023-09-17T11:45:49.424Z</time>
      </trkpt>
      <trkpt lat="43.71595" lon="1.49424">
        <ele>170.240247</ele>
        <time>2023-09-17T11:45:49.424Z</time>
      </trkpt>
      <trkpt lat="43.71594" lon="1.49419">
        <ele>170.413497</ele>
        <time>2023-09-17T11:45:50.424Z</time>
      </trkpt>
      <trkpt lat="43.71594" lon="1.49419">
        <ele>170.413497</ele>
        <time>2023-09-17T11:45:50.424Z</time>
      </trkpt>
      <trkpt lat="43.71592" lon="1.49412">
        <ele>170.607328</ele>
        <time>2023-09-17T11:45:50.424Z</time>
      </trkpt>
      <trkpt lat="43.71592" lon="1.49412">
        <ele>170.607328</ele>
        <time>2023-09-17T11:45:50.424Z</time>
      </trkpt>
      <trkpt lat="43.71589" lon="1.49399">
        <ele>171.009877</ele>
        <time>2023-09-17T11:45:53.424Z</time>
      </trkpt>
      <trkpt lat="43.71589" lon="1.49399">
        <ele>171.009877</ele>
        <time>2023-09-17T11:45:53.424Z</time>
      </trkpt>
      <trkpt lat="43.71587" lon="1.49394">
        <ele>171.173869</ele>
        <time>2023-09-17T11:45:53.424Z</time>
      </trkpt>
      <trkpt lat="43.71587" lon="1.49394">
        <ele>171.173869</ele>
        <time>2023-09-17T11:45:53.424Z</time>
      </trkpt>
      <trkpt lat="43.71585" lon="1.49389">
        <ele>171.339644</ele>
        <time>2023-09-17T11:45:55.424Z</time>
      </trkpt>
      <trkpt lat="43.71585" lon="1.49389">
        <ele>171.339644</ele>
        <time>2023-09-17T11:45:55.424Z</time>
      </trkpt>
      <trkpt lat="43.71583" lon="1.49383">
        <ele>171.518383</ele>
        <time>2023-09-17T11:45:56.424Z</time>
      </trkpt>
      <trkpt lat="43.71583" lon="1.49383">
        <ele>171.518383</ele>
        <time>2023-09-17T11:45:56.424Z</time>
      </trkpt>
      <trkpt lat="43.71581" lon="1.49378">
        <ele>171.706997</ele>
        <time>2023-09-17T11:45:57.424Z</time>
      </trkpt>
      <trkpt lat="43.71581" lon="1.49378">
        <ele>171.706997</ele>
        <time>2023-09-17T11:45:57.424Z</time>
      </trkpt>
      <trkpt lat="43.71578" lon="1.49373">
        <ele>171.891988</ele>
        <time>2023-09-17T11:45:58.424Z</time>
      </trkpt>
      <trkpt lat="43.71578" lon="1.49373">
        <ele>171.891988</ele>
        <time>2023-09-17T11:45:58.424Z</time>
      </trkpt>
      <trkpt lat="43.71575" lon="1.49366">
        <ele>172.135661</ele>
        <time>2023-09-17T11:45:59.424Z</time>
      </trkpt>
      <trkpt lat="43.71571" lon="1.49357">
        <ele>172.435542</ele>
        <time>2023-09-17T11:46:00.424Z</time>
      </trkpt>
      <trkpt lat="43.71571" lon="1.49357">
        <ele>172.435542</ele>
        <time>2023-09-17T11:46:00.424Z</time>
      </trkpt>
      <trkpt lat="43.71568" lon="1.49351">
        <ele>172.62764</ele>
        <time>2023-09-17T11:46:01.424Z</time>
      </trkpt>
      <trkpt lat="43.71568" lon="1.49351">
        <ele>172.62764</ele>
        <time>2023-09-17T11:46:01.424Z</time>
      </trkpt>
      <trkpt lat="43.71565" lon="1.49346">
        <ele>172.836064</ele>
        <time>2023-09-17T11:46:01.424Z</time>
      </trkpt>
      <trkpt lat="43.71563" lon="1.49341">
        <ele>173.007303</ele>
        <time>2023-09-17T11:46:02.424Z</time>
      </trkpt>
      <trkpt lat="43.7156" lon="1.49336">
        <ele>173.178542</ele>
        <time>2023-09-17T11:46:04.424Z</time>
      </trkpt>
      <trkpt lat="43.71558" lon="1.4933">
        <ele>173.375447</ele>
        <time>2023-09-17T11:46:04.424Z</time>
      </trkpt>
      <trkpt lat="43.71555" lon="1.49325">
        <ele>173.544256</ele>
        <time>2023-09-17T11:46:05.424Z</time>
      </trkpt>
      <trkpt lat="43.71552" lon="1.49318">
        <ele>173.767082</ele>
        <time>2023-09-17T11:46:06.424Z</time>
      </trkpt>
      <trkpt lat="43.7155" lon="1.49313">
        <ele>173.961577</ele>
        <time>2023-09-17T11:46:07.424Z</time>
      </trkpt>
      <trkpt lat="43.7155" lon="1.49313">
        <ele>173.961577</ele>
        <time>2023-09-17T11:46:07.424Z</time>
      </trkpt>
      <trkpt lat="43.71547" lon="1.49306">
        <ele>174.184403</ele>
        <time>2023-09-17T11:46:09.424Z</time>
      </trkpt>
      <trkpt lat="43.71544" lon="1.49301">
        <ele>174.373018</ele>
        <time>2023-09-17T11:46:09.424Z</time>
      </trkpt>
      <trkpt lat="43.71542" lon="1.49295">
        <ele>174.565116</ele>
        <time>2023-09-17T11:46:10.424Z</time>
      </trkpt>
      <trkpt lat="43.71539" lon="1.49289">
        <ele>174.756259</ele>
        <time>2023-09-17T11:46:12.424Z</time>
      </trkpt>
      <trkpt lat="43.71537" lon="1.49284">
        <ele>174.950754</ele>
        <time>2023-09-17T11:46:12.424Z</time>
      </trkpt>
      <trkpt lat="43.71534" lon="1.49279">
        <ele>175.124843</ele>
        <time>2023-09-17T11:46:13.424Z</time>
      </trkpt>
      <trkpt lat="43.71532" lon="1.49273">
        <ele>175.324171</ele>
        <time>2023-09-17T11:46:15.424Z</time>
      </trkpt>
      <trkpt lat="43.7153" lon="1.49267">
        <ele>175.500299</ele>
        <time>2023-09-17T11:46:15.424Z</time>
      </trkpt>
      <trkpt lat="43.71528" lon="1.49262">
        <ele>175.683891</ele>
        <time>2023-09-17T11:46:16.424Z</time>
      </trkpt>
      <trkpt lat="43.71525" lon="1.49256">
        <ele>175.872506</ele>
        <time>2023-09-17T11:46:17.424Z</time>
      </trkpt>
      <trkpt lat="43.71525" lon="1.49256">
        <ele>175.872506</ele>
        <time>2023-09-17T11:46:17.424Z</time>
      </trkpt>
      <trkpt lat="43.71523" lon="1.49251">
        <ele>176.053603</ele>
        <time>2023-09-17T11:46:19.424Z</time>
      </trkpt>
      <trkpt lat="43.71521" lon="1.49245">
        <ele>176.232216</ele>
        <time>2023-09-17T11:46:19.424Z</time>
      </trkpt>
      <trkpt lat="43.71521" lon="1.49245">
        <ele>176.232216</ele>
        <time>2023-09-17T11:46:19.424Z</time>
      </trkpt>
      <trkpt lat="43.71518" lon="1.49239">
        <ele>176.441354</ele>
        <time>2023-09-17T11:46:20.424Z</time>
      </trkpt>
      <trkpt lat="43.71518" lon="1.49239">
        <ele>176.441354</ele>
        <time>2023-09-17T11:46:20.424Z</time>
      </trkpt>
      <trkpt lat="43.71516" lon="1.49234">
        <ele>176.625663</ele>
        <time>2023-09-17T11:46:22.424Z</time>
      </trkpt>
      <trkpt lat="43.71514" lon="1.49229">
        <ele>176.785985</ele>
        <time>2023-09-17T11:46:22.424Z</time>
      </trkpt>
      <trkpt lat="43.71514" lon="1.49229">
        <ele>176.785985</ele>
        <time>2023-09-17T11:46:22.424Z</time>
      </trkpt>
      <trkpt lat="43.71511" lon="1.49223">
        <ele>176.978582</ele>
        <time>2023-09-17T11:46:23.424Z</time>
      </trkpt>
      <trkpt lat="43.71508" lon="1.49218">
        <ele>177.170972</ele>
        <time>2023-09-17T11:46:24.424Z</time>
      </trkpt>
      <trkpt lat="43.71505" lon="1.49211">
        <ele>177.40786</ele>
        <time>2023-09-17T11:46:26.424Z</time>
      </trkpt>
      <trkpt lat="43.71505" lon="1.49211">
        <ele>177.40786</ele>
        <time>2023-09-17T11:46:26.424Z</time>
      </trkpt>
      <trkpt lat="43.71501" lon="1.49203">
        <ele>177.675271</ele>
        <time>2023-09-17T11:46:26.424Z</time>
      </trkpt>
      <trkpt lat="43.71499" lon="1.49198">
        <ele>177.874902</ele>
        <time>2023-09-17T11:46:27.424Z</time>
      </trkpt>
      <trkpt lat="43.71495" lon="1.49191">
        <ele>178.123624</ele>
        <time>2023-09-17T11:46:29.424Z</time>
      </trkpt>
      <trkpt lat="43.71495" lon="1.49191">
        <ele>178.123624</ele>
        <time>2023-09-17T11:46:29.424Z</time>
      </trkpt>
      <trkpt lat="43.71492" lon="1.49185">
        <ele>178.327736</ele>
        <time>2023-09-17T11:46:29.424Z</time>
      </trkpt>
      <trkpt lat="43.71492" lon="1.49185">
        <ele>178.327736</ele>
        <time>2023-09-17T11:46:29.424Z</time>
      </trkpt>
      <trkpt lat="43.71488" lon="1.49179">
        <ele>178.543829</ele>
        <time>2023-09-17T11:46:30.424Z</time>
      </trkpt>
      <trkpt lat="43.71488" lon="1.49179">
        <ele>178.543829</ele>
        <time>2023-09-17T11:46:30.424Z</time>
      </trkpt>
      <trkpt lat="43.71484" lon="1.49173">
        <ele>178.779056</ele>
        <time>2023-09-17T11:46:31.424Z</time>
      </trkpt>
      <trkpt lat="43.71481" lon="1.49168">
        <ele>178.980879</ele>
        <time>2023-09-17T11:46:33.424Z</time>
      </trkpt>
      <trkpt lat="43.71481" lon="1.49168">
        <ele>178.980879</ele>
        <time>2023-09-17T11:46:33.424Z</time>
      </trkpt>
      <trkpt lat="43.71478" lon="1.49162">
        <ele>179.196972</ele>
        <time>2023-09-17T11:46:33.424Z</time>
      </trkpt>
      <trkpt lat="43.71478" lon="1.49162">
        <ele>179.196972</ele>
        <time>2023-09-17T11:46:33.424Z</time>
      </trkpt>
      <trkpt lat="43.71475" lon="1.49156">
        <ele>179.410826</ele>
        <time>2023-09-17T11:46:34.424Z</time>
      </trkpt>
      <trkpt lat="43.71475" lon="1.49156">
        <ele>179.410826</ele>
        <time>2023-09-17T11:46:34.424Z</time>
      </trkpt>
      <trkpt lat="43.71471" lon="1.49151">
        <ele>179.63378</ele>
        <time>2023-09-17T11:46:36.424Z</time>
      </trkpt>
      <trkpt lat="43.71471" lon="1.49151">
        <ele>179.63378</ele>
        <time>2023-09-17T11:46:36.424Z</time>
      </trkpt>
      <trkpt lat="43.71467" lon="1.49145">
        <ele>179.860303</ele>
        <time>2023-09-17T11:46:37.424Z</time>
      </trkpt>
      <trkpt lat="43.71467" lon="1.49145">
        <ele>179.860303</ele>
        <time>2023-09-17T11:46:37.424Z</time>
      </trkpt>
      <trkpt lat="43.71463" lon="1.49139">
        <ele>180.071933</ele>
        <time>2023-09-17T11:46:38.424Z</time>
      </trkpt>
      <trkpt lat="43.71463" lon="1.49139">
        <ele>180.071933</ele>
        <time>2023-09-17T11:46:38.424Z</time>
      </trkpt>
      <trkpt lat="43.7146" lon="1.49134">
        <ele>180.283885</ele>
        <time>2023-09-17T11:46:38.424Z</time>
      </trkpt>
      <trkpt lat="43.7146" lon="1.49134">
        <ele>180.283885</ele>
        <time>2023-09-17T11:46:38.424Z</time>
      </trkpt>
      <trkpt lat="43.71456" lon="1.49129">
        <ele>180.501971</ele>
        <time>2023-09-17T11:46:40.424Z</time>
      </trkpt>
      <trkpt lat="43.71456" lon="1.49129">
        <ele>180.501971</ele>
        <time>2023-09-17T11:46:40.424Z</time>
      </trkpt>
      <trkpt lat="43.71452" lon="1.49123">
        <ele>180.711855</ele>
        <time>2023-09-17T11:46:40.424Z</time>
      </trkpt>
      <trkpt lat="43.71452" lon="1.49123">
        <ele>180.711855</ele>
        <time>2023-09-17T11:46:40.424Z</time>
      </trkpt>
      <trkpt lat="43.71449" lon="1.49118">
        <ele>180.916915</ele>
        <time>2023-09-17T11:46:41.424Z</time>
      </trkpt>
      <trkpt lat="43.71449" lon="1.49118">
        <ele>180.916915</ele>
        <time>2023-09-17T11:46:41.424Z</time>
      </trkpt>
      <trkpt lat="43.71446" lon="1.49113">
        <ele>181.115565</ele>
        <time>2023-09-17T11:46:42.424Z</time>
      </trkpt>
      <trkpt lat="43.71446" lon="1.49113">
        <ele>181.115565</ele>
        <time>2023-09-17T11:46:42.424Z</time>
      </trkpt>
      <trkpt lat="43.71442" lon="1.49108">
        <ele>181.319069</ele>
        <time>2023-09-17T11:46:44.424Z</time>
      </trkpt>
      <trkpt lat="43.71442" lon="1.49108">
        <ele>181.319069</ele>
        <time>2023-09-17T11:46:44.424Z</time>
      </trkpt>
      <trkpt lat="43.71439" lon="1.49103">
        <ele>181.496217</ele>
        <time>2023-09-17T11:46:45.424Z</time>
      </trkpt>
      <trkpt lat="43.71439" lon="1.49103">
        <ele>181.496217</ele>
        <time>2023-09-17T11:46:45.424Z</time>
      </trkpt>
      <trkpt lat="43.71436" lon="1.49099">
        <ele>181.67196</ele>
        <time>2023-09-17T11:46:45.424Z</time>
      </trkpt>
      <trkpt lat="43.71436" lon="1.49099">
        <ele>181.67196</ele>
        <time>2023-09-17T11:46:45.424Z</time>
      </trkpt>
      <trkpt lat="43.71433" lon="1.49095">
        <ele>181.860334</ele>
        <time>2023-09-17T11:46:47.424Z</time>
      </trkpt>
      <trkpt lat="43.71433" lon="1.49095">
        <ele>181.860334</ele>
        <time>2023-09-17T11:46:47.424Z</time>
      </trkpt>
      <trkpt lat="43.71429" lon="1.4909">
        <ele>182.048708</ele>
        <time>2023-09-17T11:46:47.424Z</time>
      </trkpt>
      <trkpt lat="43.71429" lon="1.4909">
        <ele>182.048708</ele>
        <time>2023-09-17T11:46:47.424Z</time>
      </trkpt>
      <trkpt lat="43.71426" lon="1.49086">
        <ele>182.224451</ele>
        <time>2023-09-17T11:46:49.424Z</time>
      </trkpt>
      <trkpt lat="43.71426" lon="1.49086">
        <ele>182.224451</ele>
        <time>2023-09-17T11:46:49.424Z</time>
      </trkpt>
      <trkpt lat="43.71423" lon="1.49082">
        <ele>182.393273</ele>
        <time>2023-09-17T11:46:50.424Z</time>
      </trkpt>
      <trkpt lat="43.71423" lon="1.49082">
        <ele>182.393273</ele>
        <time>2023-09-17T11:46:50.424Z</time>
      </trkpt>
      <trkpt lat="43.7142" lon="1.49077">
        <ele>182.588546</ele>
        <time>2023-09-17T11:46:51.424Z</time>
      </trkpt>
      <trkpt lat="43.7142" lon="1.49077">
        <ele>182.588546</ele>
        <time>2023-09-17T11:46:51.424Z</time>
      </trkpt>
      <trkpt lat="43.71416" lon="1.49073">
        <ele>182.774932</ele>
        <time>2023-09-17T11:46:52.424Z</time>
      </trkpt>
      <trkpt lat="43.71416" lon="1.49073">
        <ele>182.774932</ele>
        <time>2023-09-17T11:46:52.424Z</time>
      </trkpt>
      <trkpt lat="43.71413" lon="1.49068">
        <ele>182.961317</ele>
        <time>2023-09-17T11:46:53.424Z</time>
      </trkpt>
      <trkpt lat="43.71413" lon="1.49068">
        <ele>182.961317</ele>
        <time>2023-09-17T11:46:53.424Z</time>
      </trkpt>
      <trkpt lat="43.7141" lon="1.49064">
        <ele>183.126142</ele>
        <time>2023-09-17T11:46:54.424Z</time>
      </trkpt>
      <trkpt lat="43.7141" lon="1.49064">
        <ele>183.126142</ele>
        <time>2023-09-17T11:46:54.424Z</time>
      </trkpt>
      <trkpt lat="43.71407" lon="1.49059">
        <ele>183.318562</ele>
        <time>2023-09-17T11:46:55.424Z</time>
      </trkpt>
      <trkpt lat="43.71407" lon="1.49059">
        <ele>183.318562</ele>
        <time>2023-09-17T11:46:55.424Z</time>
      </trkpt>
      <trkpt lat="43.71404" lon="1.49055">
        <ele>183.502682</ele>
        <time>2023-09-17T11:46:56.424Z</time>
      </trkpt>
      <trkpt lat="43.71404" lon="1.49055">
        <ele>183.502682</ele>
        <time>2023-09-17T11:46:56.424Z</time>
      </trkpt>
      <trkpt lat="43.714" lon="1.4905">
        <ele>183.680486</ele>
        <time>2023-09-17T11:46:57.424Z</time>
      </trkpt>
      <trkpt lat="43.714" lon="1.4905">
        <ele>183.680486</ele>
        <time>2023-09-17T11:46:57.424Z</time>
      </trkpt>
      <trkpt lat="43.71398" lon="1.49046">
        <ele>183.789355</ele>
        <time>2023-09-17T11:46:58.424Z</time>
      </trkpt>
      <trkpt lat="43.71398" lon="1.49046">
        <ele>183.789355</ele>
        <time>2023-09-17T11:46:58.424Z</time>
      </trkpt>
      <trkpt lat="43.71394" lon="1.49041">
        <ele>183.895785</ele>
        <time>2023-09-17T11:46:59.424Z</time>
      </trkpt>
      <trkpt lat="43.71394" lon="1.49041">
        <ele>183.895785</ele>
        <time>2023-09-17T11:46:59.424Z</time>
      </trkpt>
      <trkpt lat="43.71391" lon="1.49036">
        <ele>183.992657</ele>
        <time>2023-09-17T11:47:00.424Z</time>
      </trkpt>
      <trkpt lat="43.71391" lon="1.49036">
        <ele>183.992657</ele>
        <time>2023-09-17T11:47:00.424Z</time>
      </trkpt>
      <trkpt lat="43.71388" lon="1.49031">
        <ele>184.093261</ele>
        <time>2023-09-17T11:47:01.424Z</time>
      </trkpt>
      <trkpt lat="43.71388" lon="1.49031">
        <ele>184.093261</ele>
        <time>2023-09-17T11:47:01.424Z</time>
      </trkpt>
      <trkpt lat="43.71386" lon="1.49027">
        <ele>184.183477</ele>
        <time>2023-09-17T11:47:02.424Z</time>
      </trkpt>
      <trkpt lat="43.71386" lon="1.49027">
        <ele>184.183477</ele>
        <time>2023-09-17T11:47:02.424Z</time>
      </trkpt>
      <trkpt lat="43.71383" lon="1.49021">
        <ele>184.290015</ele>
        <time>2023-09-17T11:47:03.424Z</time>
      </trkpt>
      <trkpt lat="43.71383" lon="1.49021">
        <ele>184.290015</ele>
        <time>2023-09-17T11:47:03.424Z</time>
      </trkpt>
      <trkpt lat="43.7138" lon="1.49016">
        <ele>184.381578</ele>
        <time>2023-09-17T11:47:04.424Z</time>
      </trkpt>
      <trkpt lat="43.7138" lon="1.49016">
        <ele>184.381578</ele>
        <time>2023-09-17T11:47:04.424Z</time>
      </trkpt>
      <trkpt lat="43.71378" lon="1.4901">
        <ele>184.485141</ele>
        <time>2023-09-17T11:47:05.424Z</time>
      </trkpt>
      <trkpt lat="43.71378" lon="1.4901">
        <ele>184.485141</ele>
        <time>2023-09-17T11:47:05.424Z</time>
      </trkpt>
      <trkpt lat="43.71376" lon="1.49005">
        <ele>184.576541</ele>
        <time>2023-09-17T11:47:06.424Z</time>
      </trkpt>
      <trkpt lat="43.71376" lon="1.49005">
        <ele>184.576541</ele>
        <time>2023-09-17T11:47:06.424Z</time>
      </trkpt>
      <trkpt lat="43.71374" lon="1.48998">
        <ele>184.691132</ele>
        <time>2023-09-17T11:47:07.424Z</time>
      </trkpt>
      <trkpt lat="43.71374" lon="1.48998">
        <ele>184.691132</ele>
        <time>2023-09-17T11:47:07.424Z</time>
      </trkpt>
      <trkpt lat="43.71372" lon="1.48992">
        <ele>184.796454</ele>
        <time>2023-09-17T11:47:08.424Z</time>
      </trkpt>
      <trkpt lat="43.71372" lon="1.48992">
        <ele>184.796454</ele>
        <time>2023-09-17T11:47:08.424Z</time>
      </trkpt>
      <trkpt lat="43.7137" lon="1.48986">
        <ele>184.897656</ele>
        <time>2023-09-17T11:47:09.424Z</time>
      </trkpt>
      <trkpt lat="43.7137" lon="1.48986">
        <ele>184.897656</ele>
        <time>2023-09-17T11:47:09.424Z</time>
      </trkpt>
      <trkpt lat="43.71368" lon="1.48979">
        <ele>185.016823</ele>
        <time>2023-09-17T11:47:10.424Z</time>
      </trkpt>
      <trkpt lat="43.71366" lon="1.48972">
        <ele>185.130897</ele>
        <time>2023-09-17T11:47:11.424Z</time>
      </trkpt>
      <trkpt lat="43.71366" lon="1.48972">
        <ele>185.130897</ele>
        <time>2023-09-17T11:47:11.424Z</time>
      </trkpt>
      <trkpt lat="43.71364" lon="1.48965">
        <ele>185.257379</ele>
        <time>2023-09-17T11:47:12.424Z</time>
      </trkpt>
      <trkpt lat="43.71361" lon="1.48957">
        <ele>185.383247</ele>
        <time>2023-09-17T11:47:13.424Z</time>
      </trkpt>
      <trkpt lat="43.71361" lon="1.48957">
        <ele>185.383247</ele>
        <time>2023-09-17T11:47:13.424Z</time>
      </trkpt>
      <trkpt lat="43.71359" lon="1.48949">
        <ele>185.513394</ele>
        <time>2023-09-17T11:47:14.424Z</time>
      </trkpt>
      <trkpt lat="43.71356" lon="1.48941">
        <ele>185.649799</ele>
        <time>2023-09-17T11:47:15.424Z</time>
      </trkpt>
      <trkpt lat="43.71356" lon="1.48941">
        <ele>185.649799</ele>
        <time>2023-09-17T11:47:15.424Z</time>
      </trkpt>
      <trkpt lat="43.71353" lon="1.48933">
        <ele>185.790522</ele>
        <time>2023-09-17T11:47:16.424Z</time>
      </trkpt>
      <trkpt lat="43.71349" lon="1.48925">
        <ele>185.941656</ele>
        <time>2023-09-17T11:47:17.424Z</time>
      </trkpt>
      <trkpt lat="43.71349" lon="1.48925">
        <ele>185.941656</ele>
        <time>2023-09-17T11:47:17.424Z</time>
      </trkpt>
      <trkpt lat="43.71346" lon="1.48916">
        <ele>186.094454</ele>
        <time>2023-09-17T11:47:18.424Z</time>
      </trkpt>
      <trkpt lat="43.71342" lon="1.48908">
        <ele>186.250985</ele>
        <time>2023-09-17T11:47:19.424Z</time>
      </trkpt>
      <trkpt lat="43.71338" lon="1.489">
        <ele>186.396308</ele>
        <time>2023-09-17T11:47:20.424Z</time>
      </trkpt>
      <trkpt lat="43.71334" lon="1.48892">
        <ele>186.540352</ele>
        <time>2023-09-17T11:47:21.424Z</time>
      </trkpt>
      <trkpt lat="43.7133" lon="1.48884">
        <ele>186.692142</ele>
        <time>2023-09-17T11:47:22.424Z</time>
      </trkpt>
      <trkpt lat="43.71326" lon="1.48876">
        <ele>186.841175</ele>
        <time>2023-09-17T11:47:23.424Z</time>
      </trkpt>
      <trkpt lat="43.71322" lon="1.48869">
        <ele>186.986535</ele>
        <time>2023-09-17T11:47:24.424Z</time>
      </trkpt>
      <trkpt lat="43.71318" lon="1.48862">
        <ele>187.130683</ele>
        <time>2023-09-17T11:47:25.424Z</time>
      </trkpt>
      <trkpt lat="43.71314" lon="1.48854">
        <ele>187.278578</ele>
        <time>2023-09-17T11:47:26.424Z</time>
      </trkpt>
      <trkpt lat="43.7131" lon="1.48846">
        <ele>187.415206</ele>
        <time>2023-09-17T11:47:27.424Z</time>
      </trkpt>
      <trkpt lat="43.71307" lon="1.48839">
        <ele>187.557977</ele>
        <time>2023-09-17T11:47:28.424Z</time>
      </trkpt>
      <trkpt lat="43.71302" lon="1.48831">
        <ele>187.60042</ele>
        <time>2023-09-17T11:47:29.424Z</time>
      </trkpt>
      <trkpt lat="43.71299" lon="1.48824">
        <ele>187.629273</ele>
        <time>2023-09-17T11:47:30.424Z</time>
      </trkpt>
      <trkpt lat="43.71295" lon="1.48817">
        <ele>187.658657</ele>
        <time>2023-09-17T11:47:31.424Z</time>
      </trkpt>
      <trkpt lat="43.71291" lon="1.4881">
        <ele>187.686433</ele>
        <time>2023-09-17T11:47:32.424Z</time>
      </trkpt>
      <trkpt lat="43.71287" lon="1.48802">
        <ele>187.718519</ele>
        <time>2023-09-17T11:47:32.424Z</time>
      </trkpt>
      <trkpt lat="43.71283" lon="1.48795">
        <ele>187.748712</ele>
        <time>2023-09-17T11:47:34.424Z</time>
      </trkpt>
      <trkpt lat="43.7128" lon="1.48788">
        <ele>187.778634</ele>
        <time>2023-09-17T11:47:35.424Z</time>
      </trkpt>
      <trkpt lat="43.7128" lon="1.48788">
        <ele>187.778634</ele>
        <time>2023-09-17T11:47:35.424Z</time>
      </trkpt>
      <trkpt lat="43.71276" lon="1.4878">
        <ele>187.808827</ele>
        <time>2023-09-17T11:47:36.424Z</time>
      </trkpt>
      <trkpt lat="43.71276" lon="1.4878">
        <ele>187.808827</ele>
        <time>2023-09-17T11:47:36.424Z</time>
      </trkpt>
      <trkpt lat="43.71272" lon="1.48774">
        <ele>187.836893</ele>
        <time>2023-09-17T11:47:37.424Z</time>
      </trkpt>
      <trkpt lat="43.71272" lon="1.48774">
        <ele>187.836893</ele>
        <time>2023-09-17T11:47:37.424Z</time>
      </trkpt>
      <trkpt lat="43.71268" lon="1.48766">
        <ele>187.866545</ele>
        <time>2023-09-17T11:47:38.424Z</time>
      </trkpt>
      <trkpt lat="43.71268" lon="1.48766">
        <ele>187.866545</ele>
        <time>2023-09-17T11:47:38.424Z</time>
      </trkpt>
      <trkpt lat="43.71265" lon="1.4876">
        <ele>187.893505</ele>
        <time>2023-09-17T11:47:39.424Z</time>
      </trkpt>
      <trkpt lat="43.71261" lon="1.48753">
        <ele>187.923732</ele>
        <time>2023-09-17T11:47:40.424Z</time>
      </trkpt>
      <trkpt lat="43.71256" lon="1.48746">
        <ele>187.953482</ele>
        <time>2023-09-17T11:47:41.424Z</time>
      </trkpt>
      <trkpt lat="43.71252" lon="1.4874">
        <ele>187.981325</ele>
        <time>2023-09-17T11:47:42.424Z</time>
      </trkpt>
      <trkpt lat="43.71249" lon="1.48733">
        <ele>188.009915</ele>
        <time>2023-09-17T11:47:43.424Z</time>
      </trkpt>
      <trkpt lat="43.71244" lon="1.48726">
        <ele>188.039413</ele>
        <time>2023-09-17T11:47:43.424Z</time>
      </trkpt>
      <trkpt lat="43.71241" lon="1.4872">
        <ele>188.066962</ele>
        <time>2023-09-17T11:47:45.424Z</time>
      </trkpt>
      <trkpt lat="43.71241" lon="1.4872">
        <ele>188.066962</ele>
        <time>2023-09-17T11:47:45.424Z</time>
      </trkpt>
      <trkpt lat="43.71236" lon="1.48713">
        <ele>188.095961</ele>
        <time>2023-09-17T11:47:46.424Z</time>
      </trkpt>
      <trkpt lat="43.71232" lon="1.48706">
        <ele>188.125712</ele>
        <time>2023-09-17T11:47:47.424Z</time>
      </trkpt>
      <trkpt lat="43.71232" lon="1.48706">
        <ele>188.125712</ele>
        <time>2023-09-17T11:47:47.424Z</time>
      </trkpt>
      <trkpt lat="43.71229" lon="1.487">
        <ele>188.152131</ele>
        <time>2023-09-17T11:47:48.424Z</time>
      </trkpt>
      <trkpt lat="43.71225" lon="1.48693">
        <ele>188.18239</ele>
        <time>2023-09-17T11:47:49.424Z</time>
      </trkpt>
      <trkpt lat="43.71225" lon="1.48693">
        <ele>188.18239</ele>
        <time>2023-09-17T11:47:49.424Z</time>
      </trkpt>
      <trkpt lat="43.71221" lon="1.48686">
        <ele>188.211509</ele>
        <time>2023-09-17T11:47:50.424Z</time>
      </trkpt>
      <trkpt lat="43.71217" lon="1.48679">
        <ele>188.241513</ele>
        <time>2023-09-17T11:47:51.424Z</time>
      </trkpt>
      <trkpt lat="43.71213" lon="1.48673">
        <ele>188.267942</ele>
        <time>2023-09-17T11:47:51.424Z</time>
      </trkpt>
      <trkpt lat="43.71209" lon="1.48665">
        <ele>188.299854</ele>
        <time>2023-09-17T11:47:53.424Z</time>
      </trkpt>
      <trkpt lat="43.71204" lon="1.48659">
        <ele>188.329859</ele>
        <time>2023-09-17T11:47:54.424Z</time>
      </trkpt>
      <trkpt lat="43.71204" lon="1.48659">
        <ele>188.329859</ele>
        <time>2023-09-17T11:47:54.424Z</time>
      </trkpt>
      <trkpt lat="43.712" lon="1.48652">
        <ele>188.359863</ele>
        <time>2023-09-17T11:47:55.424Z</time>
      </trkpt>
      <trkpt lat="43.71196" lon="1.48645">
        <ele>188.388716</ele>
        <time>2023-09-17T11:47:56.424Z</time>
      </trkpt>
      <trkpt lat="43.71192" lon="1.48637">
        <ele>188.397559</ele>
        <time>2023-09-17T11:47:57.424Z</time>
      </trkpt>
      <trkpt lat="43.71192" lon="1.48637">
        <ele>188.397559</ele>
        <time>2023-09-17T11:47:57.424Z</time>
      </trkpt>
      <trkpt lat="43.71188" lon="1.48631">
        <ele>188.397208</ele>
        <time>2023-09-17T11:47:58.424Z</time>
      </trkpt>
      <trkpt lat="43.71184" lon="1.48624">
        <ele>188.39684</ele>
        <time>2023-09-17T11:47:59.424Z</time>
      </trkpt>
      <trkpt lat="43.7118" lon="1.48617">
        <ele>188.396463</ele>
        <time>2023-09-17T11:48:00.424Z</time>
      </trkpt>
      <trkpt lat="43.71175" lon="1.48609">
        <ele>188.396058</ele>
        <time>2023-09-17T11:48:01.424Z</time>
      </trkpt>
      <trkpt lat="43.71172" lon="1.48603">
        <ele>188.395721</ele>
        <time>2023-09-17T11:48:02.424Z</time>
      </trkpt>
      <trkpt lat="43.71172" lon="1.48603">
        <ele>188.395721</ele>
        <time>2023-09-17T11:48:02.424Z</time>
      </trkpt>
      <trkpt lat="43.71167" lon="1.48596">
        <ele>188.395347</ele>
        <time>2023-09-17T11:48:03.424Z</time>
      </trkpt>
      <trkpt lat="43.71163" lon="1.48589">
        <ele>188.394976</ele>
        <time>2023-09-17T11:48:04.424Z</time>
      </trkpt>
      <trkpt lat="43.71159" lon="1.48583">
        <ele>188.394616</ele>
        <time>2023-09-17T11:48:05.424Z</time>
      </trkpt>
      <trkpt lat="43.71154" lon="1.48578">
        <ele>188.394255</ele>
        <time>2023-09-17T11:48:06.424Z</time>
      </trkpt>
      <trkpt lat="43.71154" lon="1.48578">
        <ele>188.394255</ele>
        <time>2023-09-17T11:48:06.424Z</time>
      </trkpt>
      <trkpt lat="43.71148" lon="1.48572">
        <ele>188.393864</ele>
        <time>2023-09-17T11:48:07.424Z</time>
      </trkpt>
      <trkpt lat="43.71142" lon="1.48567">
        <ele>188.393468</ele>
        <time>2023-09-17T11:48:08.424Z</time>
      </trkpt>
      <trkpt lat="43.71137" lon="1.48561">
        <ele>188.393061</ele>
        <time>2023-09-17T11:48:09.424Z</time>
      </trkpt>
      <trkpt lat="43.71131" lon="1.48554">
        <ele>188.39264</ele>
        <time>2023-09-17T11:48:10.424Z</time>
      </trkpt>
      <trkpt lat="43.71125" lon="1.48548">
        <ele>188.392233</ele>
        <time>2023-09-17T11:48:11.424Z</time>
      </trkpt>
      <trkpt lat="43.7112" lon="1.48541">
        <ele>188.391816</ele>
        <time>2023-09-17T11:48:12.424Z</time>
      </trkpt>
      <trkpt lat="43.71115" lon="1.48535">
        <ele>188.391417</ele>
        <time>2023-09-17T11:48:13.424Z</time>
      </trkpt>
      <trkpt lat="43.71109" lon="1.48528">
        <ele>188.390999</ele>
        <time>2023-09-17T11:48:14.424Z</time>
      </trkpt>
      <trkpt lat="43.71104" lon="1.48523">
        <ele>188.390633</ele>
        <time>2023-09-17T11:48:15.424Z</time>
      </trkpt>
      <trkpt lat="43.71104" lon="1.48523">
        <ele>188.390633</ele>
        <time>2023-09-17T11:48:15.424Z</time>
      </trkpt>
      <trkpt lat="43.71099" lon="1.48517">
        <ele>188.39026</ele>
        <time>2023-09-17T11:48:16.424Z</time>
      </trkpt>
      <trkpt lat="43.71094" lon="1.4851">
        <ele>188.389845</ele>
        <time>2023-09-17T11:48:17.424Z</time>
      </trkpt>
      <trkpt lat="43.71088" lon="1.48504">
        <ele>188.38945</ele>
        <time>2023-09-17T11:48:18.424Z</time>
      </trkpt>
      <trkpt lat="43.71083" lon="1.48498">
        <ele>188.389055</ele>
        <time>2023-09-17T11:48:19.424Z</time>
      </trkpt>
      <trkpt lat="43.71083" lon="1.48498">
        <ele>188.389055</ele>
        <time>2023-09-17T11:48:19.424Z</time>
      </trkpt>
      <trkpt lat="43.71078" lon="1.48492">
        <ele>188.388689</ele>
        <time>2023-09-17T11:48:20.424Z</time>
      </trkpt>
      <trkpt lat="43.71073" lon="1.48486">
        <ele>188.388312</ele>
        <time>2023-09-17T11:48:21.424Z</time>
      </trkpt>
      <trkpt lat="43.71068" lon="1.48481">
        <ele>188.387945</ele>
        <time>2023-09-17T11:48:22.424Z</time>
      </trkpt>
      <trkpt lat="43.71063" lon="1.48475">
        <ele>188.38275</ele>
        <time>2023-09-17T11:48:23.424Z</time>
      </trkpt>
      <trkpt lat="43.71063" lon="1.48475">
        <ele>188.38275</ele>
        <time>2023-09-17T11:48:23.424Z</time>
      </trkpt>
      <trkpt lat="43.71057" lon="1.48469">
        <ele>188.332947</ele>
        <time>2023-09-17T11:48:24.424Z</time>
      </trkpt>
      <trkpt lat="43.71053" lon="1.48463">
        <ele>188.28668</ele>
        <time>2023-09-17T11:48:25.424Z</time>
      </trkpt>
      <trkpt lat="43.71048" lon="1.48457">
        <ele>188.242042</ele>
        <time>2023-09-17T11:48:26.424Z</time>
      </trkpt>
      <trkpt lat="43.71048" lon="1.48457">
        <ele>188.242042</ele>
        <time>2023-09-17T11:48:26.424Z</time>
      </trkpt>
      <trkpt lat="43.71043" lon="1.48451">
        <ele>188.19092</ele>
        <time>2023-09-17T11:48:27.424Z</time>
      </trkpt>
      <trkpt lat="43.71038" lon="1.48445">
        <ele>188.146115</ele>
        <time>2023-09-17T11:48:28.424Z</time>
      </trkpt>
      <trkpt lat="43.71038" lon="1.48445">
        <ele>188.146115</ele>
        <time>2023-09-17T11:48:28.424Z</time>
      </trkpt>
      <trkpt lat="43.71034" lon="1.4844">
        <ele>188.101476</ele>
        <time>2023-09-17T11:48:29.424Z</time>
      </trkpt>
      <trkpt lat="43.71034" lon="1.4844">
        <ele>188.101476</ele>
        <time>2023-09-17T11:48:29.424Z</time>
      </trkpt>
      <trkpt lat="43.71029" lon="1.48434">
        <ele>188.058201</ele>
        <time>2023-09-17T11:48:30.424Z</time>
      </trkpt>
      <trkpt lat="43.71025" lon="1.4843">
        <ele>188.022437</ele>
        <time>2023-09-17T11:48:31.424Z</time>
      </trkpt>
      <trkpt lat="43.71021" lon="1.48427">
        <ele>187.988885</ele>
        <time>2023-09-17T11:48:32.424Z</time>
      </trkpt>
      <trkpt lat="43.71019" lon="1.48424">
        <ele>187.966057</ele>
        <time>2023-09-17T11:48:33.424Z</time>
      </trkpt>
      <trkpt lat="43.71019" lon="1.48424">
        <ele>187.966057</ele>
        <time>2023-09-17T11:48:33.424Z</time>
      </trkpt>
      <trkpt lat="43.71016" lon="1.48423">
        <ele>187.947533</ele>
        <time>2023-09-17T11:48:34.424Z</time>
      </trkpt>
      <trkpt lat="43.71015" lon="1.48421">
        <ele>187.934352</ele>
        <time>2023-09-17T11:48:35.424Z</time>
      </trkpt>
      <trkpt lat="43.71013" lon="1.48419">
        <ele>187.914561</ele>
        <time>2023-09-17T11:48:35.424Z</time>
      </trkpt>
      <trkpt lat="43.71013" lon="1.48419">
        <ele>187.914561</ele>
        <time>2023-09-17T11:48:35.424Z</time>
      </trkpt>
      <trkpt lat="43.7101" lon="1.48416">
        <ele>187.889</ele>
        <time>2023-09-17T11:48:37.424Z</time>
      </trkpt>
      <trkpt lat="43.71007" lon="1.48413">
        <ele>187.861827</ele>
        <time>2023-09-17T11:48:37.424Z</time>
      </trkpt>
      <trkpt lat="43.71007" lon="1.48413">
        <ele>187.861827</ele>
        <time>2023-09-17T11:48:37.424Z</time>
      </trkpt>
      <trkpt lat="43.71003" lon="1.48408">
        <ele>187.824147</ele>
        <time>2023-09-17T11:48:39.424Z</time>
      </trkpt>
      <trkpt lat="43.70999" lon="1.48403">
        <ele>187.782733</ele>
        <time>2023-09-17T11:48:40.424Z</time>
      </trkpt>
      <trkpt lat="43.70994" lon="1.48397">
        <ele>187.734712</ele>
        <time>2023-09-17T11:48:41.424Z</time>
      </trkpt>
      <trkpt lat="43.70994" lon="1.48397">
        <ele>187.734712</ele>
        <time>2023-09-17T11:48:41.424Z</time>
      </trkpt>
      <trkpt lat="43.7099" lon="1.48391">
        <ele>187.691101</ele>
        <time>2023-09-17T11:48:41.424Z</time>
      </trkpt>
      <trkpt lat="43.70985" lon="1.48386">
        <ele>187.649126</ele>
        <time>2023-09-17T11:48:43.424Z</time>
      </trkpt>
      <trkpt lat="43.70979" lon="1.48381">
        <ele>187.597579</ele>
        <time>2023-09-17T11:48:44.424Z</time>
      </trkpt>
      <trkpt lat="43.70979" lon="1.48381">
        <ele>187.597579</ele>
        <time>2023-09-17T11:48:44.424Z</time>
      </trkpt>
      <trkpt lat="43.70974" lon="1.48376">
        <ele>187.552324</ele>
        <time>2023-09-17T11:48:45.424Z</time>
      </trkpt>
      <trkpt lat="43.70969" lon="1.4837">
        <ele>187.504372</ele>
        <time>2023-09-17T11:48:46.424Z</time>
      </trkpt>
      <trkpt lat="43.70964" lon="1.48365">
        <ele>187.458404</ele>
        <time>2023-09-17T11:48:47.424Z</time>
      </trkpt>
      <trkpt lat="43.70959" lon="1.4836">
        <ele>187.413149</ele>
        <time>2023-09-17T11:48:48.424Z</time>
      </trkpt>
      <trkpt lat="43.70954" lon="1.48354">
        <ele>187.365508</ele>
        <time>2023-09-17T11:48:49.424Z</time>
      </trkpt>
      <trkpt lat="43.70948" lon="1.48349">
        <ele>187.317274</ele>
        <time>2023-09-17T11:48:50.424Z</time>
      </trkpt>
      <trkpt lat="43.70944" lon="1.48344">
        <ele>187.273228</ele>
        <time>2023-09-17T11:48:51.424Z</time>
      </trkpt>
      <trkpt lat="43.70938" lon="1.48339">
        <ele>187.227029</ele>
        <time>2023-09-17T11:48:52.424Z</time>
      </trkpt>
      <trkpt lat="43.70933" lon="1.48335">
        <ele>187.182269</ele>
        <time>2023-09-17T11:48:53.424Z</time>
      </trkpt>
      <trkpt lat="43.70927" lon="1.48331">
        <ele>187.131657</ele>
        <time>2023-09-17T11:48:54.424Z</time>
      </trkpt>
      <trkpt lat="43.70921" lon="1.48326">
        <ele>187.086783</ele>
        <time>2023-09-17T11:48:55.424Z</time>
      </trkpt>
      <trkpt lat="43.70916" lon="1.48322">
        <ele>187.074446</ele>
        <time>2023-09-17T11:48:56.424Z</time>
      </trkpt>
      <trkpt lat="43.7091" lon="1.48318">
        <ele>187.070375</ele>
        <time>2023-09-17T11:48:57.424Z</time>
      </trkpt>
      <trkpt lat="43.7091" lon="1.48318">
        <ele>187.070375</ele>
        <time>2023-09-17T11:48:57.424Z</time>
      </trkpt>
      <trkpt lat="43.70904" lon="1.48315">
        <ele>187.066577</ele>
        <time>2023-09-17T11:48:58.424Z</time>
      </trkpt>
      <trkpt lat="43.70904" lon="1.48315">
        <ele>187.066577</ele>
        <time>2023-09-17T11:48:58.424Z</time>
      </trkpt>
      <trkpt lat="43.70899" lon="1.48311">
        <ele>187.062921</ele>
        <time>2023-09-17T11:48:59.424Z</time>
      </trkpt>
      <trkpt lat="43.70894" lon="1.48307">
        <ele>187.059395</ele>
        <time>2023-09-17T11:49:00.424Z</time>
      </trkpt>
      <trkpt lat="43.70887" lon="1.48303">
        <ele>187.05538</ele>
        <time>2023-09-17T11:49:01.424Z</time>
      </trkpt>
      <trkpt lat="43.70882" lon="1.48299">
        <ele>187.051563</ele>
        <time>2023-09-17T11:49:02.424Z</time>
      </trkpt>
      <trkpt lat="43.70876" lon="1.48296">
        <ele>187.047907</ele>
        <time>2023-09-17T11:49:03.424Z</time>
      </trkpt>
      <trkpt lat="43.70871" lon="1.48292">
        <ele>187.044283</ele>
        <time>2023-09-17T11:49:04.424Z</time>
      </trkpt>
      <trkpt lat="43.70871" lon="1.48292">
        <ele>187.044283</ele>
        <time>2023-09-17T11:49:04.424Z</time>
      </trkpt>
      <trkpt lat="43.70866" lon="1.48288">
        <ele>187.040666</ele>
        <time>2023-09-17T11:49:05.424Z</time>
      </trkpt>
      <trkpt lat="43.7086" lon="1.48284">
        <ele>187.036576</ele>
        <time>2023-09-17T11:49:06.424Z</time>
      </trkpt>
      <trkpt lat="43.70854" lon="1.4828">
        <ele>187.033012</ele>
        <time>2023-09-17T11:49:07.424Z</time>
      </trkpt>
      <trkpt lat="43.70854" lon="1.4828">
        <ele>187.033012</ele>
        <time>2023-09-17T11:49:07.424Z</time>
      </trkpt>
      <trkpt lat="43.70848" lon="1.48276">
        <ele>187.028923</ele>
        <time>2023-09-17T11:49:08.424Z</time>
      </trkpt>
      <trkpt lat="43.70842" lon="1.48271">
        <ele>187.025026</ele>
        <time>2023-09-17T11:49:09.424Z</time>
      </trkpt>
      <trkpt lat="43.70842" lon="1.48271">
        <ele>187.025026</ele>
        <time>2023-09-17T11:49:09.424Z</time>
      </trkpt>
      <trkpt lat="43.70837" lon="1.48268">
        <ele>187.021389</ele>
        <time>2023-09-17T11:49:10.424Z</time>
      </trkpt>
      <trkpt lat="43.70832" lon="1.48264">
        <ele>187.017845</ele>
        <time>2023-09-17T11:49:11.424Z</time>
      </trkpt>
      <trkpt lat="43.70826" lon="1.4826">
        <ele>187.013793</ele>
        <time>2023-09-17T11:49:12.424Z</time>
      </trkpt>
      <trkpt lat="43.70821" lon="1.48256">
        <ele>187.010389</ele>
        <time>2023-09-17T11:49:13.424Z</time>
      </trkpt>
      <trkpt lat="43.70815" lon="1.48252">
        <ele>187.006553</ele>
        <time>2023-09-17T11:49:14.424Z</time>
      </trkpt>
      <trkpt lat="43.7081" lon="1.48249">
        <ele>187.00299</ele>
        <time>2023-09-17T11:49:15.424Z</time>
      </trkpt>
      <trkpt lat="43.70804" lon="1.48245">
        <ele>186.999119</ele>
        <time>2023-09-17T11:49:16.424Z</time>
      </trkpt>
      <trkpt lat="43.70799" lon="1.48241">
        <ele>186.995536</ele>
        <time>2023-09-17T11:49:17.424Z</time>
      </trkpt>
      <trkpt lat="43.70793" lon="1.48237">
        <ele>186.991972</ele>
        <time>2023-09-17T11:49:18.424Z</time>
      </trkpt>
      <trkpt lat="43.70787" lon="1.48233">
        <ele>186.988101</ele>
        <time>2023-09-17T11:49:19.424Z</time>
      </trkpt>
      <trkpt lat="43.70782" lon="1.4823">
        <ele>186.984576</ele>
        <time>2023-09-17T11:49:20.424Z</time>
      </trkpt>
      <trkpt lat="43.70777" lon="1.48227">
        <ele>186.981088</ele>
        <time>2023-09-17T11:49:21.424Z</time>
      </trkpt>
      <trkpt lat="43.70771" lon="1.48223">
        <ele>186.977323</ele>
        <time>2023-09-17T11:49:22.424Z</time>
      </trkpt>
      <trkpt lat="43.70771" lon="1.48223">
        <ele>186.977323</ele>
        <time>2023-09-17T11:49:22.424Z</time>
      </trkpt>
      <trkpt lat="43.70766" lon="1.4822">
        <ele>186.974124</ele>
        <time>2023-09-17T11:49:23.424Z</time>
      </trkpt>
      <trkpt lat="43.70761" lon="1.48217">
        <ele>186.970615</ele>
        <time>2023-09-17T11:49:24.424Z</time>
      </trkpt>
      <trkpt lat="43.70755" lon="1.48214">
        <ele>186.979222</ele>
        <time>2023-09-17T11:49:25.424Z</time>
      </trkpt>
      <trkpt lat="43.70749" lon="1.4821">
        <ele>186.991983</ele>
        <time>2023-09-17T11:49:26.424Z</time>
      </trkpt>
      <trkpt lat="43.70744" lon="1.48207">
        <ele>187.005619</ele>
        <time>2023-09-17T11:49:27.424Z</time>
      </trkpt>
      <trkpt lat="43.70738" lon="1.48204">
        <ele>187.018712</ele>
        <time>2023-09-17T11:49:28.424Z</time>
      </trkpt>
      <trkpt lat="43.70733" lon="1.48201">
        <ele>187.032228</ele>
        <time>2023-09-17T11:49:29.424Z</time>
      </trkpt>
      <trkpt lat="43.70727" lon="1.48197">
        <ele>187.045054</ele>
        <time>2023-09-17T11:49:30.424Z</time>
      </trkpt>
      <trkpt lat="43.70721" lon="1.48194">
        <ele>187.058955</ele>
        <time>2023-09-17T11:49:31.424Z</time>
      </trkpt>
      <trkpt lat="43.70716" lon="1.48191">
        <ele>187.072591</ele>
        <time>2023-09-17T11:49:32.424Z</time>
      </trkpt>
      <trkpt lat="43.7071" lon="1.48187">
        <ele>187.085417</ele>
        <time>2023-09-17T11:49:33.424Z</time>
      </trkpt>
      <trkpt lat="43.7071" lon="1.48187">
        <ele>187.085417</ele>
        <time>2023-09-17T11:49:33.424Z</time>
      </trkpt>
      <trkpt lat="43.70705" lon="1.48184">
        <ele>187.098787</ele>
        <time>2023-09-17T11:49:34.424Z</time>
      </trkpt>
      <trkpt lat="43.70699" lon="1.48179">
        <ele>187.113038</ele>
        <time>2023-09-17T11:49:35.424Z</time>
      </trkpt>
      <trkpt lat="43.70699" lon="1.48179">
        <ele>187.113038</ele>
        <time>2023-09-17T11:49:35.424Z</time>
      </trkpt>
      <trkpt lat="43.70694" lon="1.48175">
        <ele>187.125865</ele>
        <time>2023-09-17T11:49:36.424Z</time>
      </trkpt>
      <trkpt lat="43.70689" lon="1.48171">
        <ele>187.139506</ele>
        <time>2023-09-17T11:49:37.424Z</time>
      </trkpt>
      <trkpt lat="43.70689" lon="1.48171">
        <ele>187.139506</ele>
        <time>2023-09-17T11:49:37.424Z</time>
      </trkpt>
      <trkpt lat="43.70684" lon="1.48166">
        <ele>187.153028</ele>
        <time>2023-09-17T11:49:38.424Z</time>
      </trkpt>
      <trkpt lat="43.70679" lon="1.48161">
        <ele>187.166186</ele>
        <time>2023-09-17T11:49:39.424Z</time>
      </trkpt>
      <trkpt lat="43.70679" lon="1.48161">
        <ele>187.166186</ele>
        <time>2023-09-17T11:49:39.424Z</time>
      </trkpt>
      <trkpt lat="43.70674" lon="1.48156">
        <ele>187.180087</ele>
        <time>2023-09-17T11:49:40.424Z</time>
      </trkpt>
      <trkpt lat="43.7067" lon="1.48151">
        <ele>187.193233</ele>
        <time>2023-09-17T11:49:41.424Z</time>
      </trkpt>
      <trkpt lat="43.70665" lon="1.48145">
        <ele>187.207076</ele>
        <time>2023-09-17T11:49:42.424Z</time>
      </trkpt>
      <trkpt lat="43.70661" lon="1.48138">
        <ele>187.220747</ele>
        <time>2023-09-17T11:49:43.424Z</time>
      </trkpt>
      <trkpt lat="43.70657" lon="1.48132">
        <ele>187.235016</ele>
        <time>2023-09-17T11:49:44.424Z</time>
      </trkpt>
      <trkpt lat="43.70657" lon="1.48132">
        <ele>187.235016</ele>
        <time>2023-09-17T11:49:44.424Z</time>
      </trkpt>
      <trkpt lat="43.70652" lon="1.48125">
        <ele>187.249528</ele>
        <time>2023-09-17T11:49:45.424Z</time>
      </trkpt>
      <trkpt lat="43.70648" lon="1.48117">
        <ele>187.264163</ele>
        <time>2023-09-17T11:49:46.424Z</time>
      </trkpt>
      <trkpt lat="43.70648" lon="1.48117">
        <ele>187.264163</ele>
        <time>2023-09-17T11:49:46.424Z</time>
      </trkpt>
      <trkpt lat="43.70644" lon="1.48111">
        <ele>187.277874</ele>
        <time>2023-09-17T11:49:47.424Z</time>
      </trkpt>
      <trkpt lat="43.70641" lon="1.48103">
        <ele>187.292354</ele>
        <time>2023-09-17T11:49:48.424Z</time>
      </trkpt>
      <trkpt lat="43.70636" lon="1.48095">
        <ele>187.308661</ele>
        <time>2023-09-17T11:49:49.424Z</time>
      </trkpt>
      <trkpt lat="43.70632" lon="1.48088">
        <ele>187.323141</ele>
        <time>2023-09-17T11:49:50.424Z</time>
      </trkpt>
      <trkpt lat="43.70628" lon="1.48081">
        <ele>187.337363</ele>
        <time>2023-09-17T11:49:51.424Z</time>
      </trkpt>
      <trkpt lat="43.70624" lon="1.48073">
        <ele>187.352751</ele>
        <time>2023-09-17T11:49:52.424Z</time>
      </trkpt>
      <trkpt lat="43.7062" lon="1.48065">
        <ele>187.370643</ele>
        <time>2023-09-17T11:49:53.424Z</time>
      </trkpt>
      <trkpt lat="43.70616" lon="1.48059">
        <ele>187.395424</ele>
        <time>2023-09-17T11:49:54.424Z</time>
      </trkpt>
      <trkpt lat="43.70612" lon="1.48051">
        <ele>187.424133</ele>
        <time>2023-09-17T11:49:55.424Z</time>
      </trkpt>
      <trkpt lat="43.70608" lon="1.48044">
        <ele>187.451614</ele>
        <time>2023-09-17T11:49:56.424Z</time>
      </trkpt>
      <trkpt lat="43.70605" lon="1.48036">
        <ele>187.478416</ele>
        <time>2023-09-17T11:49:57.424Z</time>
      </trkpt>
      <trkpt lat="43.70601" lon="1.48029">
        <ele>187.504918</ele>
        <time>2023-09-17T11:49:58.424Z</time>
      </trkpt>
      <trkpt lat="43.70598" lon="1.48023">
        <ele>187.529701</ele>
        <time>2023-09-17T11:49:59.424Z</time>
      </trkpt>
      <trkpt lat="43.70598" lon="1.48023">
        <ele>187.529701</ele>
        <time>2023-09-17T11:49:59.424Z</time>
      </trkpt>
      <trkpt lat="43.70593" lon="1.48015">
        <ele>187.558904</ele>
        <time>2023-09-17T11:50:00.424Z</time>
      </trkpt>
      <trkpt lat="43.7059" lon="1.48008">
        <ele>187.584925</ele>
        <time>2023-09-17T11:50:01.424Z</time>
      </trkpt>
      <trkpt lat="43.70586" lon="1.48001">
        <ele>187.612406</ele>
        <time>2023-09-17T11:50:02.424Z</time>
      </trkpt>
      <trkpt lat="43.70582" lon="1.47993">
        <ele>187.640382</ele>
        <time>2023-09-17T11:50:03.424Z</time>
      </trkpt>
      <trkpt lat="43.70582" lon="1.47993">
        <ele>187.640382</ele>
        <time>2023-09-17T11:50:03.424Z</time>
      </trkpt>
      <trkpt lat="43.70578" lon="1.47986">
        <ele>187.666165</ele>
        <time>2023-09-17T11:50:04.424Z</time>
      </trkpt>
      <trkpt lat="43.70575" lon="1.47979">
        <ele>187.693646</ele>
        <time>2023-09-17T11:50:05.424Z</time>
      </trkpt>
      <trkpt lat="43.70571" lon="1.47971">
        <ele>187.720418</ele>
        <time>2023-09-17T11:50:06.424Z</time>
      </trkpt>
      <trkpt lat="43.70567" lon="1.47964">
        <ele>187.748394</ele>
        <time>2023-09-17T11:50:07.424Z</time>
      </trkpt>
      <trkpt lat="43.70567" lon="1.47964">
        <ele>187.748394</ele>
        <time>2023-09-17T11:50:07.424Z</time>
      </trkpt>
      <trkpt lat="43.70564" lon="1.47956">
        <ele>187.77494</ele>
        <time>2023-09-17T11:50:08.424Z</time>
      </trkpt>
      <trkpt lat="43.7056" lon="1.47949">
        <ele>187.801442</ele>
        <time>2023-09-17T11:50:09.424Z</time>
      </trkpt>
      <trkpt lat="43.70556" lon="1.47942">
        <ele>187.828923</ele>
        <time>2023-09-17T11:50:10.424Z</time>
      </trkpt>
      <trkpt lat="43.70553" lon="1.47934">
        <ele>187.855342</ele>
        <time>2023-09-17T11:50:11.424Z</time>
      </trkpt>
      <trkpt lat="43.7055" lon="1.47927">
        <ele>187.882917</ele>
        <time>2023-09-17T11:50:12.424Z</time>
      </trkpt>
      <trkpt lat="43.70546" lon="1.47919">
        <ele>187.910454</ele>
        <time>2023-09-17T11:50:13.424Z</time>
      </trkpt>
      <trkpt lat="43.70543" lon="1.47912">
        <ele>187.936744</ele>
        <time>2023-09-17T11:50:14.424Z</time>
      </trkpt>
      <trkpt lat="43.70539" lon="1.47904">
        <ele>187.965221</ele>
        <time>2023-09-17T11:50:15.424Z</time>
      </trkpt>
      <trkpt lat="43.70539" lon="1.47904">
        <ele>187.965221</ele>
        <time>2023-09-17T11:50:15.424Z</time>
      </trkpt>
      <trkpt lat="43.70536" lon="1.47896">
        <ele>187.992279</ele>
        <time>2023-09-17T11:50:15.424Z</time>
      </trkpt>
      <trkpt lat="43.70533" lon="1.47889">
        <ele>188.017132</ele>
        <time>2023-09-17T11:50:17.424Z</time>
      </trkpt>
      <trkpt lat="43.70529" lon="1.47881">
        <ele>188.044708</ele>
        <time>2023-09-17T11:50:18.424Z</time>
      </trkpt>
      <trkpt lat="43.70527" lon="1.47874">
        <ele>188.07089</ele>
        <time>2023-09-17T11:50:19.424Z</time>
      </trkpt>
      <trkpt lat="43.70524" lon="1.47866">
        <ele>188.097372</ele>
        <time>2023-09-17T11:50:20.424Z</time>
      </trkpt>
      <trkpt lat="43.70524" lon="1.47866">
        <ele>188.097372</ele>
        <time>2023-09-17T11:50:20.424Z</time>
      </trkpt>
      <trkpt lat="43.7052" lon="1.47858">
        <ele>188.127771</ele>
        <time>2023-09-17T11:50:21.424Z</time>
      </trkpt>
      <trkpt lat="43.70517" lon="1.4785">
        <ele>188.182009</ele>
        <time>2023-09-17T11:50:22.424Z</time>
      </trkpt>
      <trkpt lat="43.70514" lon="1.47843">
        <ele>188.230487</ele>
        <time>2023-09-17T11:50:23.424Z</time>
      </trkpt>
      <trkpt lat="43.70514" lon="1.47843">
        <ele>188.230487</ele>
        <time>2023-09-17T11:50:23.424Z</time>
      </trkpt>
      <trkpt lat="43.70511" lon="1.47836">
        <ele>188.280074</ele>
        <time>2023-09-17T11:50:24.424Z</time>
      </trkpt>
      <trkpt lat="43.70508" lon="1.47828">
        <ele>188.33261</ele>
        <time>2023-09-17T11:50:25.424Z</time>
      </trkpt>
      <trkpt lat="43.70505" lon="1.4782">
        <ele>188.381056</ele>
        <time>2023-09-17T11:50:26.424Z</time>
      </trkpt>
      <trkpt lat="43.70502" lon="1.47813">
        <ele>188.431666</ele>
        <time>2023-09-17T11:50:26.424Z</time>
      </trkpt>
      <trkpt lat="43.70499" lon="1.47805">
        <ele>188.480112</ele>
        <time>2023-09-17T11:50:28.424Z</time>
      </trkpt>
      <trkpt lat="43.70499" lon="1.47805">
        <ele>188.480112</ele>
        <time>2023-09-17T11:50:28.424Z</time>
      </trkpt>
      <trkpt lat="43.70496" lon="1.47798">
        <ele>188.531236</ele>
        <time>2023-09-17T11:50:29.424Z</time>
      </trkpt>
      <trkpt lat="43.70493" lon="1.47791">
        <ele>188.579214</ele>
        <time>2023-09-17T11:50:30.424Z</time>
      </trkpt>
      <trkpt lat="43.70493" lon="1.47791">
        <ele>188.579214</ele>
        <time>2023-09-17T11:50:30.424Z</time>
      </trkpt>
      <trkpt lat="43.7049" lon="1.47784">
        <ele>188.629478</ele>
        <time>2023-09-17T11:50:31.424Z</time>
      </trkpt>
      <trkpt lat="43.70486" lon="1.47777">
        <ele>188.680432</ele>
        <time>2023-09-17T11:50:32.424Z</time>
      </trkpt>
      <trkpt lat="43.70482" lon="1.47772">
        <ele>188.72406</ele>
        <time>2023-09-17T11:50:33.424Z</time>
      </trkpt>
      <trkpt lat="43.70477" lon="1.47767">
        <ele>188.774285</ele>
        <time>2023-09-17T11:50:34.424Z</time>
      </trkpt>
      <trkpt lat="43.70472" lon="1.47762">
        <ele>188.824563</ele>
        <time>2023-09-17T11:50:35.424Z</time>
      </trkpt>
      <trkpt lat="43.70472" lon="1.47762">
        <ele>188.824563</ele>
        <time>2023-09-17T11:50:35.424Z</time>
      </trkpt>
      <trkpt lat="43.70466" lon="1.47759">
        <ele>188.873027</ele>
        <time>2023-09-17T11:50:36.424Z</time>
      </trkpt>
      <trkpt lat="43.70461" lon="1.47755">
        <ele>188.922544</ele>
        <time>2023-09-17T11:50:37.424Z</time>
      </trkpt>
      <trkpt lat="43.70455" lon="1.47753">
        <ele>188.971646</ele>
        <time>2023-09-17T11:50:38.424Z</time>
      </trkpt>
      <trkpt lat="43.70448" lon="1.4775">
        <ele>189.027046</ele>
        <time>2023-09-17T11:50:39.424Z</time>
      </trkpt>
      <trkpt lat="43.70443" lon="1.47747">
        <ele>189.072133</ele>
        <time>2023-09-17T11:50:40.424Z</time>
      </trkpt>
      <trkpt lat="43.70437" lon="1.47744">
        <ele>189.124095</ele>
        <time>2023-09-17T11:50:41.424Z</time>
      </trkpt>
      <trkpt lat="43.70431" lon="1.47742">
        <ele>189.176057</ele>
        <time>2023-09-17T11:50:42.424Z</time>
      </trkpt>
      <trkpt lat="43.70431" lon="1.47742">
        <ele>189.176057</ele>
        <time>2023-09-17T11:50:42.424Z</time>
      </trkpt>
      <trkpt lat="43.70425" lon="1.47739">
        <ele>189.222284</ele>
        <time>2023-09-17T11:50:43.424Z</time>
      </trkpt>
      <trkpt lat="43.70419" lon="1.47736">
        <ele>189.274433</ele>
        <time>2023-09-17T11:50:44.424Z</time>
      </trkpt>
      <trkpt lat="43.70414" lon="1.47733">
        <ele>189.323144</ele>
        <time>2023-09-17T11:50:45.424Z</time>
      </trkpt>
      <trkpt lat="43.70408" lon="1.47731">
        <ele>189.374749</ele>
        <time>2023-09-17T11:50:46.424Z</time>
      </trkpt>
      <trkpt lat="43.70408" lon="1.47731">
        <ele>189.374749</ele>
        <time>2023-09-17T11:50:46.424Z</time>
      </trkpt>
      <trkpt lat="43.70402" lon="1.47728">
        <ele>189.423274</ele>
        <time>2023-09-17T11:50:47.424Z</time>
      </trkpt>
      <trkpt lat="43.70396" lon="1.47725">
        <ele>189.47294</ele>
        <time>2023-09-17T11:50:48.424Z</time>
      </trkpt>
      <trkpt lat="43.70396" lon="1.47725">
        <ele>189.47294</ele>
        <time>2023-09-17T11:50:48.424Z</time>
      </trkpt>
      <trkpt lat="43.70391" lon="1.47723">
        <ele>189.518603</ele>
        <time>2023-09-17T11:50:49.424Z</time>
      </trkpt>
      <trkpt lat="43.70385" lon="1.4772">
        <ele>189.564266</ele>
        <time>2023-09-17T11:50:49.424Z</time>
      </trkpt>
      <trkpt lat="43.70385" lon="1.4772">
        <ele>189.564266</ele>
        <time>2023-09-17T11:50:49.424Z</time>
      </trkpt>
      <trkpt lat="43.7038" lon="1.47717">
        <ele>189.667713</ele>
        <time>2023-09-17T11:50:51.424Z</time>
      </trkpt>
      <trkpt lat="43.70374" lon="1.47714">
        <ele>189.782194</ele>
        <time>2023-09-17T11:50:52.424Z</time>
      </trkpt>
      <trkpt lat="43.70374" lon="1.47714">
        <ele>189.782194</ele>
        <time>2023-09-17T11:50:52.424Z</time>
      </trkpt>
      <trkpt lat="43.70369" lon="1.47711">
        <ele>189.888263</ele>
        <time>2023-09-17T11:50:53.424Z</time>
      </trkpt>
      <trkpt lat="43.70369" lon="1.47711">
        <ele>189.888263</ele>
        <time>2023-09-17T11:50:53.424Z</time>
      </trkpt>
      <trkpt lat="43.70363" lon="1.47708">
        <ele>189.99759</ele>
        <time>2023-09-17T11:50:54.424Z</time>
      </trkpt>
      <trkpt lat="43.70358" lon="1.47704">
        <ele>190.10521</ele>
        <time>2023-09-17T11:50:55.424Z</time>
      </trkpt>
      <trkpt lat="43.70358" lon="1.47704">
        <ele>190.10521</ele>
        <time>2023-09-17T11:50:55.424Z</time>
      </trkpt>
      <trkpt lat="43.70353" lon="1.47702">
        <ele>190.205099</ele>
        <time>2023-09-17T11:50:56.424Z</time>
      </trkpt>
      <trkpt lat="43.70353" lon="1.47702">
        <ele>190.205099</ele>
        <time>2023-09-17T11:50:56.424Z</time>
      </trkpt>
      <trkpt lat="43.70347" lon="1.47699">
        <ele>190.315597</ele>
        <time>2023-09-17T11:50:57.424Z</time>
      </trkpt>
      <trkpt lat="43.70342" lon="1.47698">
        <ele>190.417159</ele>
        <time>2023-09-17T11:50:58.424Z</time>
      </trkpt>
      <trkpt lat="43.70342" lon="1.47698">
        <ele>190.417159</ele>
        <time>2023-09-17T11:50:58.424Z</time>
      </trkpt>
      <trkpt lat="43.70337" lon="1.47696">
        <ele>190.521193</ele>
        <time>2023-09-17T11:50:59.424Z</time>
      </trkpt>
      <trkpt lat="43.70337" lon="1.47696">
        <ele>190.521193</ele>
        <time>2023-09-17T11:50:59.424Z</time>
      </trkpt>
      <trkpt lat="43.70331" lon="1.47693">
        <ele>190.632075</ele>
        <time>2023-09-17T11:51:00.424Z</time>
      </trkpt>
      <trkpt lat="43.70331" lon="1.47693">
        <ele>190.632075</ele>
        <time>2023-09-17T11:51:00.424Z</time>
      </trkpt>
      <trkpt lat="43.70325" lon="1.4769">
        <ele>190.753486</ele>
        <time>2023-09-17T11:51:01.424Z</time>
      </trkpt>
      <trkpt lat="43.70318" lon="1.47687">
        <ele>190.882811</ele>
        <time>2023-09-17T11:51:02.424Z</time>
      </trkpt>
      <trkpt lat="43.70318" lon="1.47687">
        <ele>190.882811</ele>
        <time>2023-09-17T11:51:02.424Z</time>
      </trkpt>
      <trkpt lat="43.70313" lon="1.47683">
        <ele>190.991535</ele>
        <time>2023-09-17T11:51:03.424Z</time>
      </trkpt>
      <trkpt lat="43.70313" lon="1.47683">
        <ele>190.991535</ele>
        <time>2023-09-17T11:51:03.424Z</time>
      </trkpt>
      <trkpt lat="43.70308" lon="1.47679">
        <ele>191.104285</ele>
        <time>2023-09-17T11:51:04.424Z</time>
      </trkpt>
      <trkpt lat="43.70308" lon="1.47679">
        <ele>191.104285</ele>
        <time>2023-09-17T11:51:04.424Z</time>
      </trkpt>
      <trkpt lat="43.70302" lon="1.47675">
        <ele>191.216006</ele>
        <time>2023-09-17T11:51:05.424Z</time>
      </trkpt>
      <trkpt lat="43.70302" lon="1.47675">
        <ele>191.216006</ele>
        <time>2023-09-17T11:51:05.424Z</time>
      </trkpt>
      <trkpt lat="43.70297" lon="1.47672">
        <ele>191.326489</ele>
        <time>2023-09-17T11:51:06.424Z</time>
      </trkpt>
      <trkpt lat="43.70297" lon="1.47672">
        <ele>191.326489</ele>
        <time>2023-09-17T11:51:06.424Z</time>
      </trkpt>
      <trkpt lat="43.70291" lon="1.47668">
        <ele>191.445922</ele>
        <time>2023-09-17T11:51:07.424Z</time>
      </trkpt>
      <trkpt lat="43.70291" lon="1.47668">
        <ele>191.445922</ele>
        <time>2023-09-17T11:51:07.424Z</time>
      </trkpt>
      <trkpt lat="43.70285" lon="1.47664">
        <ele>191.572729</ele>
        <time>2023-09-17T11:51:08.424Z</time>
      </trkpt>
      <trkpt lat="43.70285" lon="1.47664">
        <ele>191.572729</ele>
        <time>2023-09-17T11:51:08.424Z</time>
      </trkpt>
      <trkpt lat="43.70279" lon="1.4766">
        <ele>191.68934</ele>
        <time>2023-09-17T11:51:09.424Z</time>
      </trkpt>
      <trkpt lat="43.70279" lon="1.4766">
        <ele>191.68934</ele>
        <time>2023-09-17T11:51:09.424Z</time>
      </trkpt>
      <trkpt lat="43.70274" lon="1.47656">
        <ele>191.806516</ele>
        <time>2023-09-17T11:51:10.424Z</time>
      </trkpt>
      <trkpt lat="43.70274" lon="1.47656">
        <ele>191.806516</ele>
        <time>2023-09-17T11:51:10.424Z</time>
      </trkpt>
      <trkpt lat="43.70268" lon="1.47653">
        <ele>191.923693</ele>
        <time>2023-09-17T11:51:11.424Z</time>
      </trkpt>
      <trkpt lat="43.70268" lon="1.47653">
        <ele>191.923693</ele>
        <time>2023-09-17T11:51:11.424Z</time>
      </trkpt>
      <trkpt lat="43.70263" lon="1.47649">
        <ele>192.03584</ele>
        <time>2023-09-17T11:51:12.424Z</time>
      </trkpt>
      <trkpt lat="43.70263" lon="1.47649">
        <ele>192.03584</ele>
        <time>2023-09-17T11:51:12.424Z</time>
      </trkpt>
      <trkpt lat="43.70257" lon="1.47645">
        <ele>192.156028</ele>
        <time>2023-09-17T11:51:13.424Z</time>
      </trkpt>
      <trkpt lat="43.70257" lon="1.47645">
        <ele>192.156028</ele>
        <time>2023-09-17T11:51:13.424Z</time>
      </trkpt>
      <trkpt lat="43.70251" lon="1.4764">
        <ele>192.277505</ele>
        <time>2023-09-17T11:51:14.424Z</time>
      </trkpt>
      <trkpt lat="43.70246" lon="1.47636">
        <ele>192.394139</ele>
        <time>2023-09-17T11:51:15.424Z</time>
      </trkpt>
      <trkpt lat="43.70246" lon="1.47636">
        <ele>192.394139</ele>
        <time>2023-09-17T11:51:15.424Z</time>
      </trkpt>
      <trkpt lat="43.7024" lon="1.47631">
        <ele>192.518327</ele>
        <time>2023-09-17T11:51:16.424Z</time>
      </trkpt>
      <trkpt lat="43.7024" lon="1.47631">
        <ele>192.518327</ele>
        <time>2023-09-17T11:51:16.424Z</time>
      </trkpt>
      <trkpt lat="43.70235" lon="1.47627">
        <ele>192.634768</ele>
        <time>2023-09-17T11:51:17.424Z</time>
      </trkpt>
      <trkpt lat="43.70228" lon="1.47622">
        <ele>192.773838</ele>
        <time>2023-09-17T11:51:18.424Z</time>
      </trkpt>
      <trkpt lat="43.70222" lon="1.47617">
        <ele>192.905113</ele>
        <time>2023-09-17T11:51:19.424Z</time>
      </trkpt>
      <trkpt lat="43.70215" lon="1.47612">
        <ele>192.941635</ele>
        <time>2023-09-17T11:51:20.424Z</time>
      </trkpt>
      <trkpt lat="43.70209" lon="1.47608">
        <ele>192.962829</ele>
        <time>2023-09-17T11:51:21.424Z</time>
      </trkpt>
      <trkpt lat="43.70202" lon="1.47604">
        <ele>192.985426</ele>
        <time>2023-09-17T11:51:22.424Z</time>
      </trkpt>
      <trkpt lat="43.70202" lon="1.47604">
        <ele>192.985426</ele>
        <time>2023-09-17T11:51:22.424Z</time>
      </trkpt>
      <trkpt lat="43.70194" lon="1.47603">
        <ele>193.009573</ele>
        <time>2023-09-17T11:51:23.424Z</time>
      </trkpt>
      <trkpt lat="43.70194" lon="1.47603">
        <ele>193.009573</ele>
        <time>2023-09-17T11:51:23.424Z</time>
      </trkpt>
      <trkpt lat="43.70186" lon="1.47603">
        <ele>193.033415</ele>
        <time>2023-09-17T11:51:24.424Z</time>
      </trkpt>
      <trkpt lat="43.70179" lon="1.47605">
        <ele>193.05451</ele>
        <time>2023-09-17T11:51:25.424Z</time>
      </trkpt>
      <trkpt lat="43.70179" lon="1.47605">
        <ele>193.05451</ele>
        <time>2023-09-17T11:51:25.424Z</time>
      </trkpt>
      <trkpt lat="43.70172" lon="1.47608">
        <ele>193.076124</ele>
        <time>2023-09-17T11:51:26.424Z</time>
      </trkpt>
      <trkpt lat="43.70165" lon="1.47611">
        <ele>193.096326</ele>
        <time>2023-09-17T11:51:27.424Z</time>
      </trkpt>
      <trkpt lat="43.70165" lon="1.47611">
        <ele>193.096326</ele>
        <time>2023-09-17T11:51:27.424Z</time>
      </trkpt>
      <trkpt lat="43.70159" lon="1.47614">
        <ele>193.116608</ele>
        <time>2023-09-17T11:51:28.424Z</time>
      </trkpt>
      <trkpt lat="43.70159" lon="1.47614">
        <ele>193.116608</ele>
        <time>2023-09-17T11:51:28.424Z</time>
      </trkpt>
      <trkpt lat="43.70153" lon="1.47617">
        <ele>193.135969</ele>
        <time>2023-09-17T11:51:29.424Z</time>
      </trkpt>
      <trkpt lat="43.70145" lon="1.4762">
        <ele>193.158719</ele>
        <time>2023-09-17T11:51:30.424Z</time>
      </trkpt>
      <trkpt lat="43.70145" lon="1.4762">
        <ele>193.158719</ele>
        <time>2023-09-17T11:51:30.424Z</time>
      </trkpt>
      <trkpt lat="43.70139" lon="1.47623">
        <ele>193.177935</ele>
        <time>2023-09-17T11:51:30.424Z</time>
      </trkpt>
      <trkpt lat="43.70139" lon="1.47623">
        <ele>193.177935</ele>
        <time>2023-09-17T11:51:30.424Z</time>
      </trkpt>
      <trkpt lat="43.70134" lon="1.47626">
        <ele>193.195686</ele>
        <time>2023-09-17T11:51:32.424Z</time>
      </trkpt>
      <trkpt lat="43.70128" lon="1.47628">
        <ele>193.214362</ele>
        <time>2023-09-17T11:51:33.424Z</time>
      </trkpt>
      <trkpt lat="43.70122" lon="1.47629">
        <ele>193.230298</ele>
        <time>2023-09-17T11:51:34.424Z</time>
      </trkpt>
      <trkpt lat="43.70116" lon="1.47629">
        <ele>193.24877</ele>
        <time>2023-09-17T11:51:35.424Z</time>
      </trkpt>
      <trkpt lat="43.7011" lon="1.47628">
        <ele>193.267856</ele>
        <time>2023-09-17T11:51:35.424Z</time>
      </trkpt>
      <trkpt lat="43.70104" lon="1.47627">
        <ele>193.286111</ele>
        <time>2023-09-17T11:51:37.424Z</time>
      </trkpt>
      <trkpt lat="43.70097" lon="1.47626">
        <ele>193.304733</ele>
        <time>2023-09-17T11:51:37.424Z</time>
      </trkpt>
      <trkpt lat="43.70097" lon="1.47626">
        <ele>193.304733</ele>
        <time>2023-09-17T11:51:37.424Z</time>
      </trkpt>
      <trkpt lat="43.70091" lon="1.47625">
        <ele>193.323089</ele>
        <time>2023-09-17T11:51:38.424Z</time>
      </trkpt>
      <trkpt lat="43.70091" lon="1.47625">
        <ele>193.323089</ele>
        <time>2023-09-17T11:51:38.424Z</time>
      </trkpt>
      <trkpt lat="43.70085" lon="1.47624">
        <ele>193.342428</ele>
        <time>2023-09-17T11:51:40.424Z</time>
      </trkpt>
      <trkpt lat="43.70079" lon="1.47622">
        <ele>193.360784</ele>
        <time>2023-09-17T11:51:41.424Z</time>
      </trkpt>
      <trkpt lat="43.70079" lon="1.47622">
        <ele>193.360784</ele>
        <time>2023-09-17T11:51:41.424Z</time>
      </trkpt>
      <trkpt lat="43.70073" lon="1.47621">
        <ele>193.379205</ele>
        <time>2023-09-17T11:51:42.424Z</time>
      </trkpt>
      <trkpt lat="43.70073" lon="1.47621">
        <ele>193.379205</ele>
        <time>2023-09-17T11:51:42.424Z</time>
      </trkpt>
      <trkpt lat="43.70066" lon="1.4762">
        <ele>193.398771</ele>
        <time>2023-09-17T11:51:43.424Z</time>
      </trkpt>
      <trkpt lat="43.7006" lon="1.47619">
        <ele>193.415888</ele>
        <time>2023-09-17T11:51:44.424Z</time>
      </trkpt>
      <trkpt lat="43.7006" lon="1.47619">
        <ele>193.415888</ele>
        <time>2023-09-17T11:51:44.424Z</time>
      </trkpt>
      <trkpt lat="43.70054" lon="1.47618">
        <ele>193.435296</ele>
        <time>2023-09-17T11:51:45.424Z</time>
      </trkpt>
      <trkpt lat="43.70054" lon="1.47618">
        <ele>193.435296</ele>
        <time>2023-09-17T11:51:45.424Z</time>
      </trkpt>
      <trkpt lat="43.70048" lon="1.47618">
        <ele>193.452581</ele>
        <time>2023-09-17T11:51:46.424Z</time>
      </trkpt>
      <trkpt lat="43.70042" lon="1.47618">
        <ele>193.653318</ele>
        <time>2023-09-17T11:51:46.424Z</time>
      </trkpt>
      <trkpt lat="43.70042" lon="1.47618">
        <ele>193.653318</ele>
        <time>2023-09-17T11:51:46.424Z</time>
      </trkpt>
      <trkpt lat="43.70036" lon="1.47619">
        <ele>193.894972</ele>
        <time>2023-09-17T11:51:48.424Z</time>
      </trkpt>
      <trkpt lat="43.70029" lon="1.4762">
        <ele>194.141873</ele>
        <time>2023-09-17T11:51:49.424Z</time>
      </trkpt>
      <trkpt lat="43.70029" lon="1.4762">
        <ele>194.141873</ele>
        <time>2023-09-17T11:51:49.424Z</time>
      </trkpt>
      <trkpt lat="43.70024" lon="1.47622">
        <ele>194.371255</ele>
        <time>2023-09-17T11:51:50.424Z</time>
      </trkpt>
      <trkpt lat="43.70024" lon="1.47622">
        <ele>194.371255</ele>
        <time>2023-09-17T11:51:50.424Z</time>
      </trkpt>
      <trkpt lat="43.70018" lon="1.47624">
        <ele>194.620608</ele>
        <time>2023-09-17T11:51:50.424Z</time>
      </trkpt>
      <trkpt lat="43.70018" lon="1.47624">
        <ele>194.620608</ele>
        <time>2023-09-17T11:51:50.424Z</time>
      </trkpt>
      <trkpt lat="43.70012" lon="1.47627">
        <ele>194.856438</ele>
        <time>2023-09-17T11:51:52.424Z</time>
      </trkpt>
      <trkpt lat="43.70012" lon="1.47627">
        <ele>194.856438</ele>
        <time>2023-09-17T11:51:52.424Z</time>
      </trkpt>
      <trkpt lat="43.70006" lon="1.4763">
        <ele>195.099048</ele>
        <time>2023-09-17T11:51:53.424Z</time>
      </trkpt>
      <trkpt lat="43.70006" lon="1.4763">
        <ele>195.099048</ele>
        <time>2023-09-17T11:51:53.424Z</time>
      </trkpt>
      <trkpt lat="43.70001" lon="1.47634">
        <ele>195.348596</ele>
        <time>2023-09-17T11:51:53.424Z</time>
      </trkpt>
      <trkpt lat="43.70001" lon="1.47634">
        <ele>195.348596</ele>
        <time>2023-09-17T11:51:53.424Z</time>
      </trkpt>
      <trkpt lat="43.69996" lon="1.47638">
        <ele>195.583857</ele>
        <time>2023-09-17T11:51:55.424Z</time>
      </trkpt>
      <trkpt lat="43.69996" lon="1.47638">
        <ele>195.583857</ele>
        <time>2023-09-17T11:51:55.424Z</time>
      </trkpt>
      <trkpt lat="43.69991" lon="1.47643">
        <ele>195.811108</ele>
        <time>2023-09-17T11:51:56.424Z</time>
      </trkpt>
      <trkpt lat="43.69991" lon="1.47643">
        <ele>195.811108</ele>
        <time>2023-09-17T11:51:56.424Z</time>
      </trkpt>
      <trkpt lat="43.69986" lon="1.47649">
        <ele>196.065458</ele>
        <time>2023-09-17T11:51:56.424Z</time>
      </trkpt>
      <trkpt lat="43.69986" lon="1.47649">
        <ele>196.065458</ele>
        <time>2023-09-17T11:51:56.424Z</time>
      </trkpt>
      <trkpt lat="43.69981" lon="1.47654">
        <ele>196.299755</ele>
        <time>2023-09-17T11:51:58.424Z</time>
      </trkpt>
      <trkpt lat="43.69981" lon="1.47654">
        <ele>196.299755</ele>
        <time>2023-09-17T11:51:58.424Z</time>
      </trkpt>
      <trkpt lat="43.69976" lon="1.4766">
        <ele>196.555291</ele>
        <time>2023-09-17T11:51:59.424Z</time>
      </trkpt>
      <trkpt lat="43.69976" lon="1.4766">
        <ele>196.555291</ele>
        <time>2023-09-17T11:51:59.424Z</time>
      </trkpt>
      <trkpt lat="43.69972" lon="1.47665">
        <ele>196.791403</ele>
        <time>2023-09-17T11:52:00.424Z</time>
      </trkpt>
      <trkpt lat="43.69972" lon="1.47665">
        <ele>196.791403</ele>
        <time>2023-09-17T11:52:00.424Z</time>
      </trkpt>
      <trkpt lat="43.69967" lon="1.47671">
        <ele>197.047616</ele>
        <time>2023-09-17T11:52:00.424Z</time>
      </trkpt>
      <trkpt lat="43.69967" lon="1.47671">
        <ele>197.047616</ele>
        <time>2023-09-17T11:52:00.424Z</time>
      </trkpt>
      <trkpt lat="43.69962" lon="1.47676">
        <ele>197.287418</ele>
        <time>2023-09-17T11:52:01.424Z</time>
      </trkpt>
      <trkpt lat="43.69962" lon="1.47676">
        <ele>197.287418</ele>
        <time>2023-09-17T11:52:01.424Z</time>
      </trkpt>
      <trkpt lat="43.69959" lon="1.47682">
        <ele>197.502283</ele>
        <time>2023-09-17T11:52:03.424Z</time>
      </trkpt>
      <trkpt lat="43.69959" lon="1.47682">
        <ele>197.502283</ele>
        <time>2023-09-17T11:52:03.424Z</time>
      </trkpt>
      <trkpt lat="43.69954" lon="1.47687">
        <ele>197.745852</ele>
        <time>2023-09-17T11:52:03.424Z</time>
      </trkpt>
      <trkpt lat="43.69954" lon="1.47687">
        <ele>197.745852</ele>
        <time>2023-09-17T11:52:03.424Z</time>
      </trkpt>
      <trkpt lat="43.6995" lon="1.47692">
        <ele>197.950742</ele>
        <time>2023-09-17T11:52:04.424Z</time>
      </trkpt>
      <trkpt lat="43.6995" lon="1.47692">
        <ele>197.950742</ele>
        <time>2023-09-17T11:52:04.424Z</time>
      </trkpt>
      <trkpt lat="43.69947" lon="1.47697">
        <ele>198.146459</ele>
        <time>2023-09-17T11:52:05.424Z</time>
      </trkpt>
      <trkpt lat="43.69947" lon="1.47697">
        <ele>198.146459</ele>
        <time>2023-09-17T11:52:05.424Z</time>
      </trkpt>
      <trkpt lat="43.69943" lon="1.47703">
        <ele>198.35929</ele>
        <time>2023-09-17T11:52:07.424Z</time>
      </trkpt>
      <trkpt lat="43.69943" lon="1.47703">
        <ele>198.35929</ele>
        <time>2023-09-17T11:52:07.424Z</time>
      </trkpt>
      <trkpt lat="43.69939" lon="1.47709">
        <ele>198.587232</ele>
        <time>2023-09-17T11:52:07.424Z</time>
      </trkpt>
      <trkpt lat="43.69939" lon="1.47709">
        <ele>198.587232</ele>
        <time>2023-09-17T11:52:07.424Z</time>
      </trkpt>
      <trkpt lat="43.69935" lon="1.47714">
        <ele>198.796052</ele>
        <time>2023-09-17T11:52:09.424Z</time>
      </trkpt>
      <trkpt lat="43.69935" lon="1.47714">
        <ele>198.796052</ele>
        <time>2023-09-17T11:52:09.424Z</time>
      </trkpt>
      <trkpt lat="43.69931" lon="1.47719">
        <ele>199.026123</ele>
        <time>2023-09-17T11:52:10.424Z</time>
      </trkpt>
      <trkpt lat="43.69931" lon="1.47719">
        <ele>199.026123</ele>
        <time>2023-09-17T11:52:10.424Z</time>
      </trkpt>
      <trkpt lat="43.69928" lon="1.47724">
        <ele>199.226033</ele>
        <time>2023-09-17T11:52:10.424Z</time>
      </trkpt>
      <trkpt lat="43.69928" lon="1.47724">
        <ele>199.226033</ele>
        <time>2023-09-17T11:52:10.424Z</time>
      </trkpt>
      <trkpt lat="43.69924" lon="1.4773">
        <ele>199.436849</ele>
        <time>2023-09-17T11:52:12.424Z</time>
      </trkpt>
      <trkpt lat="43.69924" lon="1.4773">
        <ele>199.436849</ele>
        <time>2023-09-17T11:52:12.424Z</time>
      </trkpt>
      <trkpt lat="43.6992" lon="1.47735">
        <ele>199.647665</ele>
        <time>2023-09-17T11:52:13.424Z</time>
      </trkpt>
      <trkpt lat="43.6992" lon="1.47735">
        <ele>199.647665</ele>
        <time>2023-09-17T11:52:13.424Z</time>
      </trkpt>
      <trkpt lat="43.69915" lon="1.4774">
        <ele>199.889342</ele>
        <time>2023-09-17T11:52:14.424Z</time>
      </trkpt>
      <trkpt lat="43.69915" lon="1.4774">
        <ele>199.889342</ele>
        <time>2023-09-17T11:52:14.424Z</time>
      </trkpt>
      <trkpt lat="43.69912" lon="1.47746">
        <ele>200.100158</ele>
        <time>2023-09-17T11:52:15.424Z</time>
      </trkpt>
      <trkpt lat="43.69912" lon="1.47746">
        <ele>200.100158</ele>
        <time>2023-09-17T11:52:15.424Z</time>
      </trkpt>
      <trkpt lat="43.69908" lon="1.47751">
        <ele>200.308979</ele>
        <time>2023-09-17T11:52:16.424Z</time>
      </trkpt>
      <trkpt lat="43.69908" lon="1.47751">
        <ele>200.308979</ele>
        <time>2023-09-17T11:52:16.424Z</time>
      </trkpt>
      <trkpt lat="43.69904" lon="1.47756">
        <ele>200.53513</ele>
        <time>2023-09-17T11:52:17.424Z</time>
      </trkpt>
      <trkpt lat="43.69904" lon="1.47756">
        <ele>200.53513</ele>
        <time>2023-09-17T11:52:17.424Z</time>
      </trkpt>
      <trkpt lat="43.699" lon="1.47761">
        <ele>200.760078</ele>
        <time>2023-09-17T11:52:17.424Z</time>
      </trkpt>
      <trkpt lat="43.699" lon="1.47761">
        <ele>200.760078</ele>
        <time>2023-09-17T11:52:17.424Z</time>
      </trkpt>
      <trkpt lat="43.69895" lon="1.47765">
        <ele>201.010487</ele>
        <time>2023-09-17T11:52:19.424Z</time>
      </trkpt>
      <trkpt lat="43.69895" lon="1.47765">
        <ele>201.010487</ele>
        <time>2023-09-17T11:52:19.424Z</time>
      </trkpt>
      <trkpt lat="43.69891" lon="1.47768">
        <ele>201.249003</ele>
        <time>2023-09-17T11:52:20.424Z</time>
      </trkpt>
      <trkpt lat="43.69891" lon="1.47768">
        <ele>201.249003</ele>
        <time>2023-09-17T11:52:20.424Z</time>
      </trkpt>
      <trkpt lat="43.69886" lon="1.47772">
        <ele>201.473482</ele>
        <time>2023-09-17T11:52:21.424Z</time>
      </trkpt>
      <trkpt lat="43.69886" lon="1.47772">
        <ele>201.473482</ele>
        <time>2023-09-17T11:52:21.424Z</time>
      </trkpt>
      <trkpt lat="43.69882" lon="1.47777">
        <ele>201.725236</ele>
        <time>2023-09-17T11:52:22.424Z</time>
      </trkpt>
      <trkpt lat="43.69882" lon="1.47777">
        <ele>201.725236</ele>
        <time>2023-09-17T11:52:22.424Z</time>
      </trkpt>
      <trkpt lat="43.69878" lon="1.47783">
        <ele>201.979904</ele>
        <time>2023-09-17T11:52:23.424Z</time>
      </trkpt>
      <trkpt lat="43.69878" lon="1.47783">
        <ele>201.979904</ele>
        <time>2023-09-17T11:52:23.424Z</time>
      </trkpt>
      <trkpt lat="43.69875" lon="1.47788">
        <ele>202.220455</ele>
        <time>2023-09-17T11:52:24.424Z</time>
      </trkpt>
      <trkpt lat="43.69875" lon="1.47788">
        <ele>202.220455</ele>
        <time>2023-09-17T11:52:24.424Z</time>
      </trkpt>
      <trkpt lat="43.6987" lon="1.47792">
        <ele>202.470865</ele>
        <time>2023-09-17T11:52:25.424Z</time>
      </trkpt>
      <trkpt lat="43.6987" lon="1.47792">
        <ele>202.470865</ele>
        <time>2023-09-17T11:52:25.424Z</time>
      </trkpt>
      <trkpt lat="43.69865" lon="1.47795">
        <ele>202.718473</ele>
        <time>2023-09-17T11:52:25.424Z</time>
      </trkpt>
      <trkpt lat="43.69865" lon="1.47795">
        <ele>202.718473</ele>
        <time>2023-09-17T11:52:25.424Z</time>
      </trkpt>
      <trkpt lat="43.6986" lon="1.47797">
        <ele>202.949667</ele>
        <time>2023-09-17T11:52:27.424Z</time>
      </trkpt>
      <trkpt lat="43.6986" lon="1.47797">
        <ele>202.949667</ele>
        <time>2023-09-17T11:52:27.424Z</time>
      </trkpt>
      <trkpt lat="43.69856" lon="1.47799">
        <ele>203.166853</ele>
        <time>2023-09-17T11:52:27.424Z</time>
      </trkpt>
      <trkpt lat="43.69856" lon="1.47799">
        <ele>203.166853</ele>
        <time>2023-09-17T11:52:27.424Z</time>
      </trkpt>
      <trkpt lat="43.69851" lon="1.47801">
        <ele>203.402425</ele>
        <time>2023-09-17T11:52:29.424Z</time>
      </trkpt>
      <trkpt lat="43.69851" lon="1.47801">
        <ele>203.402425</ele>
        <time>2023-09-17T11:52:29.424Z</time>
      </trkpt>
      <trkpt lat="43.69846" lon="1.47802">
        <ele>203.631934</ele>
        <time>2023-09-17T11:52:30.424Z</time>
      </trkpt>
      <trkpt lat="43.69846" lon="1.47802">
        <ele>203.631934</ele>
        <time>2023-09-17T11:52:30.424Z</time>
      </trkpt>
      <trkpt lat="43.6984" lon="1.47804">
        <ele>203.884286</ele>
        <time>2023-09-17T11:52:31.424Z</time>
      </trkpt>
      <trkpt lat="43.6984" lon="1.47804">
        <ele>203.884286</ele>
        <time>2023-09-17T11:52:31.424Z</time>
      </trkpt>
      <trkpt lat="43.69835" lon="1.47806">
        <ele>204.151446</ele>
        <time>2023-09-17T11:52:32.424Z</time>
      </trkpt>
      <trkpt lat="43.69835" lon="1.47806">
        <ele>204.151446</ele>
        <time>2023-09-17T11:52:32.424Z</time>
      </trkpt>
      <trkpt lat="43.6983" lon="1.47808">
        <ele>204.382641</ele>
        <time>2023-09-17T11:52:33.424Z</time>
      </trkpt>
      <trkpt lat="43.6983" lon="1.47808">
        <ele>204.382641</ele>
        <time>2023-09-17T11:52:33.424Z</time>
      </trkpt>
      <trkpt lat="43.69824" lon="1.4781">
        <ele>204.635782</ele>
        <time>2023-09-17T11:52:34.424Z</time>
      </trkpt>
      <trkpt lat="43.69824" lon="1.4781">
        <ele>204.635782</ele>
        <time>2023-09-17T11:52:34.424Z</time>
      </trkpt>
      <trkpt lat="43.6982" lon="1.47812">
        <ele>204.853885</ele>
        <time>2023-09-17T11:52:35.424Z</time>
      </trkpt>
      <trkpt lat="43.6982" lon="1.47812">
        <ele>204.853885</ele>
        <time>2023-09-17T11:52:35.424Z</time>
      </trkpt>
      <trkpt lat="43.69814" lon="1.47814">
        <ele>205.10528</ele>
        <time>2023-09-17T11:52:36.424Z</time>
      </trkpt>
      <trkpt lat="43.69814" lon="1.47814">
        <ele>205.10528</ele>
        <time>2023-09-17T11:52:36.424Z</time>
      </trkpt>
      <trkpt lat="43.69809" lon="1.47816">
        <ele>205.357638</ele>
        <time>2023-09-17T11:52:37.424Z</time>
      </trkpt>
      <trkpt lat="43.69809" lon="1.47816">
        <ele>205.357638</ele>
        <time>2023-09-17T11:52:37.424Z</time>
      </trkpt>
      <trkpt lat="43.69804" lon="1.47818">
        <ele>205.595035</ele>
        <time>2023-09-17T11:52:38.424Z</time>
      </trkpt>
      <trkpt lat="43.69804" lon="1.47818">
        <ele>205.595035</ele>
        <time>2023-09-17T11:52:38.424Z</time>
      </trkpt>
      <trkpt lat="43.69799" lon="1.4782">
        <ele>205.832433</ele>
        <time>2023-09-17T11:52:39.424Z</time>
      </trkpt>
      <trkpt lat="43.69799" lon="1.4782">
        <ele>205.832433</ele>
        <time>2023-09-17T11:52:39.424Z</time>
      </trkpt>
      <trkpt lat="43.69794" lon="1.47822">
        <ele>206.082018</ele>
        <time>2023-09-17T11:52:40.424Z</time>
      </trkpt>
      <trkpt lat="43.69794" lon="1.47822">
        <ele>206.082018</ele>
        <time>2023-09-17T11:52:40.424Z</time>
      </trkpt>
      <trkpt lat="43.69789" lon="1.47824">
        <ele>206.318483</ele>
        <time>2023-09-17T11:52:41.424Z</time>
      </trkpt>
      <trkpt lat="43.69789" lon="1.47824">
        <ele>206.318483</ele>
        <time>2023-09-17T11:52:41.424Z</time>
      </trkpt>
      <trkpt lat="43.69784" lon="1.47826">
        <ele>206.550586</ele>
        <time>2023-09-17T11:52:42.424Z</time>
      </trkpt>
      <trkpt lat="43.69784" lon="1.47826">
        <ele>206.550586</ele>
        <time>2023-09-17T11:52:42.424Z</time>
      </trkpt>
      <trkpt lat="43.69779" lon="1.47828">
        <ele>206.784504</ele>
        <time>2023-09-17T11:52:43.424Z</time>
      </trkpt>
      <trkpt lat="43.69779" lon="1.47828">
        <ele>206.784504</ele>
        <time>2023-09-17T11:52:43.424Z</time>
      </trkpt>
      <trkpt lat="43.69773" lon="1.4783">
        <ele>207.051664</ele>
        <time>2023-09-17T11:52:44.424Z</time>
      </trkpt>
      <trkpt lat="43.69773" lon="1.4783">
        <ele>207.051664</ele>
        <time>2023-09-17T11:52:44.424Z</time>
      </trkpt>
      <trkpt lat="43.69767" lon="1.47832">
        <ele>207.318824</ele>
        <time>2023-09-17T11:52:45.424Z</time>
      </trkpt>
      <trkpt lat="43.69767" lon="1.47832">
        <ele>207.318824</ele>
        <time>2023-09-17T11:52:45.424Z</time>
      </trkpt>
      <trkpt lat="43.69762" lon="1.47833">
        <ele>207.549959</ele>
        <time>2023-09-17T11:52:46.424Z</time>
      </trkpt>
      <trkpt lat="43.69762" lon="1.47833">
        <ele>207.549959</ele>
        <time>2023-09-17T11:52:46.424Z</time>
      </trkpt>
      <trkpt lat="43.69757" lon="1.47834">
        <ele>207.810598</ele>
        <time>2023-09-17T11:52:47.424Z</time>
      </trkpt>
      <trkpt lat="43.69757" lon="1.47834">
        <ele>207.810598</ele>
        <time>2023-09-17T11:52:47.424Z</time>
      </trkpt>
      <trkpt lat="43.69751" lon="1.47835">
        <ele>208.052188</ele>
        <time>2023-09-17T11:52:48.424Z</time>
      </trkpt>
      <trkpt lat="43.69751" lon="1.47835">
        <ele>208.052188</ele>
        <time>2023-09-17T11:52:48.424Z</time>
      </trkpt>
      <trkpt lat="43.69745" lon="1.47835">
        <ele>208.347947</ele>
        <time>2023-09-17T11:52:49.424Z</time>
      </trkpt>
      <trkpt lat="43.69745" lon="1.47835">
        <ele>208.347947</ele>
        <time>2023-09-17T11:52:49.424Z</time>
      </trkpt>
      <trkpt lat="43.69739" lon="1.47836">
        <ele>208.625155</ele>
        <time>2023-09-17T11:52:50.424Z</time>
      </trkpt>
      <trkpt lat="43.69739" lon="1.47836">
        <ele>208.625155</ele>
        <time>2023-09-17T11:52:50.424Z</time>
      </trkpt>
      <trkpt lat="43.69733" lon="1.47835">
        <ele>208.765515</ele>
        <time>2023-09-17T11:52:51.424Z</time>
      </trkpt>
      <trkpt lat="43.69733" lon="1.47835">
        <ele>208.765515</ele>
        <time>2023-09-17T11:52:51.424Z</time>
      </trkpt>
      <trkpt lat="43.69727" lon="1.47834">
        <ele>208.830066</ele>
        <time>2023-09-17T11:52:52.424Z</time>
      </trkpt>
      <trkpt lat="43.69727" lon="1.47834">
        <ele>208.830066</ele>
        <time>2023-09-17T11:52:52.424Z</time>
      </trkpt>
      <trkpt lat="43.69721" lon="1.47832">
        <ele>208.89974</ele>
        <time>2023-09-17T11:52:53.424Z</time>
      </trkpt>
      <trkpt lat="43.69715" lon="1.47828">
        <ele>208.971414</ele>
        <time>2023-09-17T11:52:54.424Z</time>
      </trkpt>
      <trkpt lat="43.69715" lon="1.47828">
        <ele>208.971414</ele>
        <time>2023-09-17T11:52:54.424Z</time>
      </trkpt>
      <trkpt lat="43.69709" lon="1.47825">
        <ele>209.035936</ele>
        <time>2023-09-17T11:52:55.424Z</time>
      </trkpt>
      <trkpt lat="43.69709" lon="1.47825">
        <ele>209.035936</ele>
        <time>2023-09-17T11:52:55.424Z</time>
      </trkpt>
      <trkpt lat="43.69704" lon="1.47821">
        <ele>209.103441</ele>
        <time>2023-09-17T11:52:56.424Z</time>
      </trkpt>
      <trkpt lat="43.69699" lon="1.47816">
        <ele>209.175277</ele>
        <time>2023-09-17T11:52:57.424Z</time>
      </trkpt>
      <trkpt lat="43.69699" lon="1.47816">
        <ele>209.175277</ele>
        <time>2023-09-17T11:52:57.424Z</time>
      </trkpt>
      <trkpt lat="43.69694" lon="1.47811">
        <ele>209.239551</ele>
        <time>2023-09-17T11:52:58.424Z</time>
      </trkpt>
      <trkpt lat="43.69694" lon="1.47811">
        <ele>209.239551</ele>
        <time>2023-09-17T11:52:58.424Z</time>
      </trkpt>
      <trkpt lat="43.6969" lon="1.47805">
        <ele>209.304484</ele>
        <time>2023-09-17T11:52:59.424Z</time>
      </trkpt>
      <trkpt lat="43.69685" lon="1.478">
        <ele>209.370769</ele>
        <time>2023-09-17T11:53:00.424Z</time>
      </trkpt>
      <trkpt lat="43.69685" lon="1.478">
        <ele>209.370769</ele>
        <time>2023-09-17T11:53:00.424Z</time>
      </trkpt>
      <trkpt lat="43.6968" lon="1.47794">
        <ele>209.43757</ele>
        <time>2023-09-17T11:53:01.424Z</time>
      </trkpt>
      <trkpt lat="43.69675" lon="1.47789">
        <ele>209.507263</ele>
        <time>2023-09-17T11:53:02.424Z</time>
      </trkpt>
      <trkpt lat="43.69675" lon="1.47789">
        <ele>209.507263</ele>
        <time>2023-09-17T11:53:02.424Z</time>
      </trkpt>
      <trkpt lat="43.69671" lon="1.47784">
        <ele>209.572197</ele>
        <time>2023-09-17T11:53:03.424Z</time>
      </trkpt>
      <trkpt lat="43.69666" lon="1.47779">
        <ele>209.636965</ele>
        <time>2023-09-17T11:53:04.424Z</time>
      </trkpt>
      <trkpt lat="43.69662" lon="1.47773">
        <ele>209.702233</ele>
        <time>2023-09-17T11:53:05.424Z</time>
      </trkpt>
      <trkpt lat="43.69662" lon="1.47773">
        <ele>209.702233</ele>
        <time>2023-09-17T11:53:05.424Z</time>
      </trkpt>
      <trkpt lat="43.69657" lon="1.47769">
        <ele>209.765063</ele>
        <time>2023-09-17T11:53:06.424Z</time>
      </trkpt>
      <trkpt lat="43.69653" lon="1.47765">
        <ele>209.816578</ele>
        <time>2023-09-17T11:53:07.424Z</time>
      </trkpt>
      <trkpt lat="43.69651" lon="1.47761">
        <ele>209.857562</ele>
        <time>2023-09-17T11:53:08.424Z</time>
      </trkpt>
      <trkpt lat="43.69651" lon="1.47761">
        <ele>209.857562</ele>
        <time>2023-09-17T11:53:08.424Z</time>
      </trkpt>
      <trkpt lat="43.69649" lon="1.47758">
        <ele>209.88591</ele>
        <time>2023-09-17T11:53:09.424Z</time>
      </trkpt>
      <trkpt lat="43.69648" lon="1.47755">
        <ele>209.911706</ele>
        <time>2023-09-17T11:53:10.424Z</time>
      </trkpt>
      <trkpt lat="43.69648" lon="1.47755">
        <ele>209.911706</ele>
        <time>2023-09-17T11:53:10.424Z</time>
      </trkpt>
      <trkpt lat="43.69647" lon="1.47751">
        <ele>209.949415</ele>
        <time>2023-09-17T11:53:11.424Z</time>
      </trkpt>
      <trkpt lat="43.69645" lon="1.47746">
        <ele>209.991681</ele>
        <time>2023-09-17T11:53:12.424Z</time>
      </trkpt>
      <trkpt lat="43.69643" lon="1.4774">
        <ele>210.046326</ele>
        <time>2023-09-17T11:53:13.424Z</time>
      </trkpt>
      <trkpt lat="43.6964" lon="1.47734">
        <ele>210.104637</ele>
        <time>2023-09-17T11:53:14.424Z</time>
      </trkpt>
      <trkpt lat="43.6964" lon="1.47734">
        <ele>210.104637</ele>
        <time>2023-09-17T11:53:14.424Z</time>
      </trkpt>
      <trkpt lat="43.69638" lon="1.47727">
        <ele>210.164871</ele>
        <time>2023-09-17T11:53:15.424Z</time>
      </trkpt>
      <trkpt lat="43.69635" lon="1.4772">
        <ele>210.226493</ele>
        <time>2023-09-17T11:53:16.424Z</time>
      </trkpt>
      <trkpt lat="43.69632" lon="1.47712">
        <ele>210.295901</ele>
        <time>2023-09-17T11:53:17.424Z</time>
      </trkpt>
      <trkpt lat="43.6963" lon="1.47705">
        <ele>210.361968</ele>
        <time>2023-09-17T11:53:18.424Z</time>
      </trkpt>
      <trkpt lat="43.6963" lon="1.47705">
        <ele>210.361968</ele>
        <time>2023-09-17T11:53:18.424Z</time>
      </trkpt>
      <trkpt lat="43.69627" lon="1.47697">
        <ele>210.430589</ele>
        <time>2023-09-17T11:53:19.424Z</time>
      </trkpt>
      <trkpt lat="43.69624" lon="1.47689">
        <ele>210.501469</ele>
        <time>2023-09-17T11:53:20.424Z</time>
      </trkpt>
      <trkpt lat="43.6962" lon="1.47681">
        <ele>210.578477</ele>
        <time>2023-09-17T11:53:21.424Z</time>
      </trkpt>
      <trkpt lat="43.6962" lon="1.47681">
        <ele>210.578477</ele>
        <time>2023-09-17T11:53:21.424Z</time>
      </trkpt>
      <trkpt lat="43.69617" lon="1.47673">
        <ele>210.650143</ele>
        <time>2023-09-17T11:53:22.424Z</time>
      </trkpt>
      <trkpt lat="43.69614" lon="1.47665">
        <ele>210.666397</ele>
        <time>2023-09-17T11:53:23.424Z</time>
      </trkpt>
      <trkpt lat="43.69611" lon="1.47658">
        <ele>210.574174</ele>
        <time>2023-09-17T11:53:24.424Z</time>
      </trkpt>
      <trkpt lat="43.69611" lon="1.47658">
        <ele>210.574174</ele>
        <time>2023-09-17T11:53:24.424Z</time>
      </trkpt>
      <trkpt lat="43.69607" lon="1.4765">
        <ele>210.474509</ele>
        <time>2023-09-17T11:53:25.424Z</time>
      </trkpt>
      <trkpt lat="43.69604" lon="1.47642">
        <ele>210.37881</ele>
        <time>2023-09-17T11:53:26.424Z</time>
      </trkpt>
      <trkpt lat="43.69601" lon="1.47634">
        <ele>210.286587</ele>
        <time>2023-09-17T11:53:27.424Z</time>
      </trkpt>
      <trkpt lat="43.69601" lon="1.47634">
        <ele>210.286587</ele>
        <time>2023-09-17T11:53:27.424Z</time>
      </trkpt>
      <trkpt lat="43.69598" lon="1.47626">
        <ele>210.192741</ele>
        <time>2023-09-17T11:53:28.424Z</time>
      </trkpt>
      <trkpt lat="43.69595" lon="1.47619">
        <ele>210.10329</ele>
        <time>2023-09-17T11:53:29.424Z</time>
      </trkpt>
      <trkpt lat="43.69595" lon="1.47619">
        <ele>210.10329</ele>
        <time>2023-09-17T11:53:29.424Z</time>
      </trkpt>
      <trkpt lat="43.69592" lon="1.47611">
        <ele>210.01306</ele>
        <time>2023-09-17T11:53:29.424Z</time>
      </trkpt>
      <trkpt lat="43.6959" lon="1.47602">
        <ele>209.910324</ele>
        <time>2023-09-17T11:53:31.424Z</time>
      </trkpt>
      <trkpt lat="43.69587" lon="1.47594">
        <ele>209.82053</ele>
        <time>2023-09-17T11:53:32.424Z</time>
      </trkpt>
      <trkpt lat="43.69587" lon="1.47594">
        <ele>209.82053</ele>
        <time>2023-09-17T11:53:32.424Z</time>
      </trkpt>
      <trkpt lat="43.69586" lon="1.47586">
        <ele>209.730325</ele>
        <time>2023-09-17T11:53:33.424Z</time>
      </trkpt>
      <trkpt lat="43.69584" lon="1.4757">
        <ele>209.565607</ele>
        <time>2023-09-17T11:53:34.424Z</time>
      </trkpt>
      <trkpt lat="43.69584" lon="1.4757">
        <ele>209.565607</ele>
        <time>2023-09-17T11:53:34.424Z</time>
      </trkpt>
      <trkpt lat="43.69583" lon="1.47561">
        <ele>209.468077</ele>
        <time>2023-09-17T11:53:36.424Z</time>
      </trkpt>
      <trkpt lat="43.69582" lon="1.47554">
        <ele>209.388422</ele>
        <time>2023-09-17T11:53:37.424Z</time>
      </trkpt>
      <trkpt lat="43.69579" lon="1.47546">
        <ele>209.293403</ele>
        <time>2023-09-17T11:53:38.424Z</time>
      </trkpt>
      <trkpt lat="43.69575" lon="1.47539">
        <ele>209.205394</ele>
        <time>2023-09-17T11:53:39.424Z</time>
      </trkpt>
      <trkpt lat="43.69575" lon="1.47539">
        <ele>209.205394</ele>
        <time>2023-09-17T11:53:39.424Z</time>
      </trkpt>
      <trkpt lat="43.69571" lon="1.47533">
        <ele>209.118844</ele>
        <time>2023-09-17T11:53:40.424Z</time>
      </trkpt>
      <trkpt lat="43.69566" lon="1.47528">
        <ele>209.033526</ele>
        <time>2023-09-17T11:53:41.424Z</time>
      </trkpt>
      <trkpt lat="43.69561" lon="1.47523">
        <ele>208.941142</ele>
        <time>2023-09-17T11:53:42.424Z</time>
      </trkpt>
      <trkpt lat="43.69561" lon="1.47523">
        <ele>208.941142</ele>
        <time>2023-09-17T11:53:42.424Z</time>
      </trkpt>
      <trkpt lat="43.69557" lon="1.4752">
        <ele>208.871216</ele>
        <time>2023-09-17T11:53:43.424Z</time>
      </trkpt>
      <trkpt lat="43.6955" lon="1.47517">
        <ele>208.770602</ele>
        <time>2023-09-17T11:53:44.424Z</time>
      </trkpt>
      <trkpt lat="43.6955" lon="1.47517">
        <ele>208.770602</ele>
        <time>2023-09-17T11:53:44.424Z</time>
      </trkpt>
      <trkpt lat="43.69548" lon="1.47516">
        <ele>208.733519</ele>
        <time>2023-09-17T11:53:46.424Z</time>
      </trkpt>
      <trkpt lat="43.69545" lon="1.47514">
        <ele>208.691581</ele>
        <time>2023-09-17T11:53:47.424Z</time>
      </trkpt>
      <trkpt lat="43.69543" lon="1.47513">
        <ele>208.656996</ele>
        <time>2023-09-17T11:53:48.424Z</time>
      </trkpt>
      <trkpt lat="43.69541" lon="1.47514">
        <ele>208.626537</ele>
        <time>2023-09-17T11:53:49.424Z</time>
      </trkpt>
      <trkpt lat="43.69539" lon="1.47517">
        <ele>208.589013</ele>
        <time>2023-09-17T11:53:50.424Z</time>
      </trkpt>
      <trkpt lat="43.69539" lon="1.47517">
        <ele>208.58281</ele>
        <time>2023-09-17T11:53:51.424Z</time>
      </trkpt>
      <trkpt lat="43.69539" lon="1.47517">
        <ele>208.58281</ele>
        <time>2023-09-17T11:53:51.424Z</time>
      </trkpt>
      <trkpt lat="43.69536" lon="1.47521">
        <ele>208.521962</ele>
        <time>2023-09-17T11:53:52.424Z</time>
      </trkpt>
      <trkpt lat="43.69527" lon="1.47535">
        <ele>208.328894</ele>
        <time>2023-09-17T11:53:53.424Z</time>
      </trkpt>
      <trkpt lat="43.69527" lon="1.47535">
        <ele>208.328894</ele>
        <time>2023-09-17T11:53:53.424Z</time>
      </trkpt>
      <trkpt lat="43.69521" lon="1.47545">
        <ele>208.185538</ele>
        <time>2023-09-17T11:53:55.424Z</time>
      </trkpt>
      <trkpt lat="43.69521" lon="1.47545">
        <ele>208.185538</ele>
        <time>2023-09-17T11:53:55.424Z</time>
      </trkpt>
      <trkpt lat="43.69517" lon="1.47551">
        <ele>208.095754</ele>
        <time>2023-09-17T11:53:57.424Z</time>
      </trkpt>
      <trkpt lat="43.69517" lon="1.47551">
        <ele>208.095754</ele>
        <time>2023-09-17T11:53:57.424Z</time>
      </trkpt>
      <trkpt lat="43.69513" lon="1.47558">
        <ele>207.850846</ele>
        <time>2023-09-17T11:53:58.424Z</time>
      </trkpt>
      <trkpt lat="43.69513" lon="1.47558">
        <ele>207.850846</ele>
        <time>2023-09-17T11:53:58.424Z</time>
      </trkpt>
      <trkpt lat="43.6951" lon="1.47563">
        <ele>207.612192</ele>
        <time>2023-09-17T11:53:59.424Z</time>
      </trkpt>
      <trkpt lat="43.6951" lon="1.47563">
        <ele>207.612192</ele>
        <time>2023-09-17T11:53:59.424Z</time>
      </trkpt>
      <trkpt lat="43.69503" lon="1.4758">
        <ele>206.93813</ele>
        <time>2023-09-17T11:54:00.424Z</time>
      </trkpt>
      <trkpt lat="43.69503" lon="1.4758">
        <ele>206.93813</ele>
        <time>2023-09-17T11:54:00.424Z</time>
      </trkpt>
      <trkpt lat="43.69497" lon="1.47598">
        <ele>206.236615</ele>
        <time>2023-09-17T11:54:02.424Z</time>
      </trkpt>
      <trkpt lat="43.69497" lon="1.47598">
        <ele>206.236615</ele>
        <time>2023-09-17T11:54:02.424Z</time>
      </trkpt>
      <trkpt lat="43.69494" lon="1.47617">
        <ele>205.560877</ele>
        <time>2023-09-17T11:54:05.424Z</time>
      </trkpt>
      <trkpt lat="43.69494" lon="1.47617">
        <ele>205.560877</ele>
        <time>2023-09-17T11:54:05.424Z</time>
      </trkpt>
      <trkpt lat="43.69491" lon="1.47635">
        <ele>204.920072</ele>
        <time>2023-09-17T11:54:06.424Z</time>
      </trkpt>
      <trkpt lat="43.69491" lon="1.47635">
        <ele>204.920072</ele>
        <time>2023-09-17T11:54:06.424Z</time>
      </trkpt>
      <trkpt lat="43.6949" lon="1.47642">
        <ele>204.672456</ele>
        <time>2023-09-17T11:54:07.424Z</time>
      </trkpt>
      <trkpt lat="43.6949" lon="1.47642">
        <ele>204.672456</ele>
        <time>2023-09-17T11:54:07.424Z</time>
      </trkpt>
      <trkpt lat="43.69488" lon="1.47655">
        <ele>204.192956</ele>
        <time>2023-09-17T11:54:08.424Z</time>
      </trkpt>
      <trkpt lat="43.69488" lon="1.47655">
        <ele>204.192956</ele>
        <time>2023-09-17T11:54:08.424Z</time>
      </trkpt>
      <trkpt lat="43.69487" lon="1.47666">
        <ele>203.82131</ele>
        <time>2023-09-17T11:54:10.424Z</time>
      </trkpt>
      <trkpt lat="43.69487" lon="1.47666">
        <ele>203.82131</ele>
        <time>2023-09-17T11:54:10.424Z</time>
      </trkpt>
      <trkpt lat="43.69484" lon="1.47675">
        <ele>203.470216</ele>
        <time>2023-09-17T11:54:10.424Z</time>
      </trkpt>
      <trkpt lat="43.69484" lon="1.47675">
        <ele>203.470216</ele>
        <time>2023-09-17T11:54:10.424Z</time>
      </trkpt>
      <trkpt lat="43.69481" lon="1.47683">
        <ele>203.145025</ele>
        <time>2023-09-17T11:54:11.424Z</time>
      </trkpt>
      <trkpt lat="43.69481" lon="1.47683">
        <ele>203.145025</ele>
        <time>2023-09-17T11:54:11.424Z</time>
      </trkpt>
      <trkpt lat="43.69476" lon="1.47696">
        <ele>202.641328</ele>
        <time>2023-09-17T11:54:13.424Z</time>
      </trkpt>
      <trkpt lat="43.69476" lon="1.47696">
        <ele>202.641328</ele>
        <time>2023-09-17T11:54:13.424Z</time>
      </trkpt>
      <trkpt lat="43.69471" lon="1.47708">
        <ele>202.154504</ele>
        <time>2023-09-17T11:54:14.424Z</time>
      </trkpt>
      <trkpt lat="43.69471" lon="1.47708">
        <ele>202.154504</ele>
        <time>2023-09-17T11:54:14.424Z</time>
      </trkpt>
      <trkpt lat="43.69466" lon="1.47718">
        <ele>201.739144</ele>
        <time>2023-09-17T11:54:15.424Z</time>
      </trkpt>
      <trkpt lat="43.69466" lon="1.47718">
        <ele>201.739144</ele>
        <time>2023-09-17T11:54:15.424Z</time>
      </trkpt>
      <trkpt lat="43.69462" lon="1.47728">
        <ele>201.326735</ele>
        <time>2023-09-17T11:54:17.424Z</time>
      </trkpt>
      <trkpt lat="43.69462" lon="1.47728">
        <ele>201.326735</ele>
        <time>2023-09-17T11:54:17.424Z</time>
      </trkpt>
      <trkpt lat="43.69457" lon="1.47738">
        <ele>200.896487</ele>
        <time>2023-09-17T11:54:17.424Z</time>
      </trkpt>
      <trkpt lat="43.69457" lon="1.47738">
        <ele>200.896487</ele>
        <time>2023-09-17T11:54:17.424Z</time>
      </trkpt>
      <trkpt lat="43.69452" lon="1.47749">
        <ele>200.461467</ele>
        <time>2023-09-17T11:54:18.424Z</time>
      </trkpt>
      <trkpt lat="43.69452" lon="1.47749">
        <ele>200.461467</ele>
        <time>2023-09-17T11:54:18.424Z</time>
      </trkpt>
      <trkpt lat="43.69447" lon="1.47757">
        <ele>200.077455</ele>
        <time>2023-09-17T11:54:20.424Z</time>
      </trkpt>
      <trkpt lat="43.69447" lon="1.47757">
        <ele>200.077455</ele>
        <time>2023-09-17T11:54:20.424Z</time>
      </trkpt>
      <trkpt lat="43.69442" lon="1.47764">
        <ele>199.717141</ele>
        <time>2023-09-17T11:54:20.424Z</time>
      </trkpt>
      <trkpt lat="43.69442" lon="1.47764">
        <ele>199.717141</ele>
        <time>2023-09-17T11:54:20.424Z</time>
      </trkpt>
      <trkpt lat="43.69436" lon="1.47768">
        <ele>199.38529</ele>
        <time>2023-09-17T11:54:21.424Z</time>
      </trkpt>
      <trkpt lat="43.69436" lon="1.47768">
        <ele>199.38529</ele>
        <time>2023-09-17T11:54:21.424Z</time>
      </trkpt>
      <trkpt lat="43.69428" lon="1.47771">
        <ele>199.227575</ele>
        <time>2023-09-17T11:54:22.424Z</time>
      </trkpt>
      <trkpt lat="43.69428" lon="1.47771">
        <ele>199.227575</ele>
        <time>2023-09-17T11:54:22.424Z</time>
      </trkpt>
      <trkpt lat="43.69422" lon="1.47772">
        <ele>199.104308</ele>
        <time>2023-09-17T11:54:23.424Z</time>
      </trkpt>
      <trkpt lat="43.69422" lon="1.47772">
        <ele>199.104308</ele>
        <time>2023-09-17T11:54:23.424Z</time>
      </trkpt>
      <trkpt lat="43.69415" lon="1.47772">
        <ele>198.974309</ele>
        <time>2023-09-17T11:54:24.424Z</time>
      </trkpt>
      <trkpt lat="43.69415" lon="1.47772">
        <ele>198.974309</ele>
        <time>2023-09-17T11:54:24.424Z</time>
      </trkpt>
      <trkpt lat="43.69408" lon="1.47772">
        <ele>198.851954</ele>
        <time>2023-09-17T11:54:25.424Z</time>
      </trkpt>
      <trkpt lat="43.69408" lon="1.47772">
        <ele>198.851954</ele>
        <time>2023-09-17T11:54:25.424Z</time>
      </trkpt>
      <trkpt lat="43.69402" lon="1.47772">
        <ele>198.729568</ele>
        <time>2023-09-17T11:54:26.424Z</time>
      </trkpt>
      <trkpt lat="43.69402" lon="1.47772">
        <ele>198.729568</ele>
        <time>2023-09-17T11:54:26.424Z</time>
      </trkpt>
      <trkpt lat="43.69395" lon="1.47773">
        <ele>198.607206</ele>
        <time>2023-09-17T11:54:27.424Z</time>
      </trkpt>
      <trkpt lat="43.69395" lon="1.47773">
        <ele>198.607206</ele>
        <time>2023-09-17T11:54:27.424Z</time>
      </trkpt>
      <trkpt lat="43.69389" lon="1.47773">
        <ele>198.486725</ele>
        <time>2023-09-17T11:54:28.424Z</time>
      </trkpt>
      <trkpt lat="43.69389" lon="1.47773">
        <ele>198.486725</ele>
        <time>2023-09-17T11:54:28.424Z</time>
      </trkpt>
      <trkpt lat="43.69382" lon="1.47773">
        <ele>198.356812</ele>
        <time>2023-09-17T11:54:29.424Z</time>
      </trkpt>
      <trkpt lat="43.69382" lon="1.47773">
        <ele>198.356812</ele>
        <time>2023-09-17T11:54:29.424Z</time>
      </trkpt>
      <trkpt lat="43.69376" lon="1.47773">
        <ele>198.241955</ele>
        <time>2023-09-17T11:54:31.424Z</time>
      </trkpt>
      <trkpt lat="43.69376" lon="1.47773">
        <ele>198.241955</ele>
        <time>2023-09-17T11:54:31.424Z</time>
      </trkpt>
      <trkpt lat="43.6937" lon="1.47773">
        <ele>198.119569</ele>
        <time>2023-09-17T11:54:31.424Z</time>
      </trkpt>
      <trkpt lat="43.69363" lon="1.47773">
        <ele>197.989677</ele>
        <time>2023-09-17T11:54:32.424Z</time>
      </trkpt>
      <trkpt lat="43.69363" lon="1.47773">
        <ele>197.989677</ele>
        <time>2023-09-17T11:54:32.424Z</time>
      </trkpt>
      <trkpt lat="43.69356" lon="1.47773">
        <ele>197.86161</ele>
        <time>2023-09-17T11:54:33.424Z</time>
      </trkpt>
      <trkpt lat="43.69349" lon="1.47774">
        <ele>197.738643</ele>
        <time>2023-09-17T11:54:35.424Z</time>
      </trkpt>
      <trkpt lat="43.69342" lon="1.47775">
        <ele>197.60841</ele>
        <time>2023-09-17T11:54:35.424Z</time>
      </trkpt>
      <trkpt lat="43.69336" lon="1.47775">
        <ele>197.479945</ele>
        <time>2023-09-17T11:54:36.424Z</time>
      </trkpt>
      <trkpt lat="43.69329" lon="1.47776">
        <ele>197.349883</ele>
        <time>2023-09-17T11:54:37.424Z</time>
      </trkpt>
      <trkpt lat="43.69323" lon="1.47776">
        <ele>197.242449</ele>
        <time>2023-09-17T11:54:39.424Z</time>
      </trkpt>
      <trkpt lat="43.69317" lon="1.47774">
        <ele>197.11739</ele>
        <time>2023-09-17T11:54:39.424Z</time>
      </trkpt>
      <trkpt lat="43.69317" lon="1.47774">
        <ele>197.11739</ele>
        <time>2023-09-17T11:54:39.424Z</time>
      </trkpt>
      <trkpt lat="43.6931" lon="1.4777">
        <ele>196.993076</ele>
        <time>2023-09-17T11:54:40.424Z</time>
      </trkpt>
      <trkpt lat="43.69305" lon="1.47765">
        <ele>196.866742</ele>
        <time>2023-09-17T11:54:41.424Z</time>
      </trkpt>
      <trkpt lat="43.69299" lon="1.4776">
        <ele>196.743653</ele>
        <time>2023-09-17T11:54:42.424Z</time>
      </trkpt>
      <trkpt lat="43.69299" lon="1.4776">
        <ele>196.743653</ele>
        <time>2023-09-17T11:54:42.424Z</time>
      </trkpt>
      <trkpt lat="43.69294" lon="1.47754">
        <ele>196.610446</ele>
        <time>2023-09-17T11:54:43.424Z</time>
      </trkpt>
      <trkpt lat="43.69288" lon="1.47748">
        <ele>196.47138</ele>
        <time>2023-09-17T11:54:44.424Z</time>
      </trkpt>
      <trkpt lat="43.69288" lon="1.47748">
        <ele>196.47138</ele>
        <time>2023-09-17T11:54:44.424Z</time>
      </trkpt>
      <trkpt lat="43.69283" lon="1.47741">
        <ele>196.336624</ele>
        <time>2023-09-17T11:54:45.424Z</time>
      </trkpt>
      <trkpt lat="43.69277" lon="1.47735">
        <ele>196.200538</ele>
        <time>2023-09-17T11:54:47.424Z</time>
      </trkpt>
      <trkpt lat="43.69272" lon="1.47729">
        <ele>196.072666</ele>
        <time>2023-09-17T11:54:48.424Z</time>
      </trkpt>
      <trkpt lat="43.69266" lon="1.47723">
        <ele>195.899491</ele>
        <time>2023-09-17T11:54:49.424Z</time>
      </trkpt>
      <trkpt lat="43.69261" lon="1.47718">
        <ele>195.658958</ele>
        <time>2023-09-17T11:54:50.424Z</time>
      </trkpt>
      <trkpt lat="43.69256" lon="1.47713">
        <ele>195.417059</ele>
        <time>2023-09-17T11:54:51.424Z</time>
      </trkpt>
      <trkpt lat="43.69251" lon="1.47708">
        <ele>195.170549</ele>
        <time>2023-09-17T11:54:52.424Z</time>
      </trkpt>
      <trkpt lat="43.69246" lon="1.47704">
        <ele>194.957415</ele>
        <time>2023-09-17T11:54:53.424Z</time>
      </trkpt>
      <trkpt lat="43.69241" lon="1.477">
        <ele>194.742728</ele>
        <time>2023-09-17T11:54:54.424Z</time>
      </trkpt>
      <trkpt lat="43.69241" lon="1.477">
        <ele>194.742728</ele>
        <time>2023-09-17T11:54:54.424Z</time>
      </trkpt>
      <trkpt lat="43.69237" lon="1.47696">
        <ele>194.537384</ele>
        <time>2023-09-17T11:54:55.424Z</time>
      </trkpt>
      <trkpt lat="43.69232" lon="1.47692">
        <ele>194.337009</ele>
        <time>2023-09-17T11:54:56.424Z</time>
      </trkpt>
      <trkpt lat="43.69227" lon="1.47689">
        <ele>194.12736</ele>
        <time>2023-09-17T11:54:57.424Z</time>
      </trkpt>
      <trkpt lat="43.69222" lon="1.47686">
        <ele>193.90485</ele>
        <time>2023-09-17T11:54:58.424Z</time>
      </trkpt>
      <trkpt lat="43.69217" lon="1.47683">
        <ele>193.697667</ele>
        <time>2023-09-17T11:54:59.424Z</time>
      </trkpt>
      <trkpt lat="43.69217" lon="1.47683">
        <ele>193.697667</ele>
        <time>2023-09-17T11:54:59.424Z</time>
      </trkpt>
      <trkpt lat="43.69212" lon="1.47678">
        <ele>193.451157</ele>
        <time>2023-09-17T11:55:00.424Z</time>
      </trkpt>
      <trkpt lat="43.69206" lon="1.47672">
        <ele>193.180803</ele>
        <time>2023-09-17T11:55:01.424Z</time>
      </trkpt>
      <trkpt lat="43.692" lon="1.47667">
        <ele>192.900752</ele>
        <time>2023-09-17T11:55:02.424Z</time>
      </trkpt>
      <trkpt lat="43.692" lon="1.47667">
        <ele>192.900752</ele>
        <time>2023-09-17T11:55:02.424Z</time>
      </trkpt>
      <trkpt lat="43.69194" lon="1.47662">
        <ele>192.639754</ele>
        <time>2023-09-17T11:55:03.424Z</time>
      </trkpt>
      <trkpt lat="43.69194" lon="1.47662">
        <ele>192.639754</ele>
        <time>2023-09-17T11:55:03.424Z</time>
      </trkpt>
      <trkpt lat="43.69188" lon="1.47656">
        <ele>192.343639</ele>
        <time>2023-09-17T11:55:04.424Z</time>
      </trkpt>
      <trkpt lat="43.69188" lon="1.47656">
        <ele>192.343639</ele>
        <time>2023-09-17T11:55:04.424Z</time>
      </trkpt>
      <trkpt lat="43.69181" lon="1.4765">
        <ele>192.030234</ele>
        <time>2023-09-17T11:55:05.424Z</time>
      </trkpt>
      <trkpt lat="43.69181" lon="1.4765">
        <ele>192.030234</ele>
        <time>2023-09-17T11:55:05.424Z</time>
      </trkpt>
      <trkpt lat="43.69175" lon="1.47644">
        <ele>191.724917</ele>
        <time>2023-09-17T11:55:06.424Z</time>
      </trkpt>
      <trkpt lat="43.69175" lon="1.47644">
        <ele>191.724917</ele>
        <time>2023-09-17T11:55:06.424Z</time>
      </trkpt>
      <trkpt lat="43.69168" lon="1.47637">
        <ele>191.401147</ele>
        <time>2023-09-17T11:55:07.424Z</time>
      </trkpt>
      <trkpt lat="43.69168" lon="1.47637">
        <ele>191.401147</ele>
        <time>2023-09-17T11:55:07.424Z</time>
      </trkpt>
      <trkpt lat="43.69162" lon="1.47629">
        <ele>191.066549</ele>
        <time>2023-09-17T11:55:08.424Z</time>
      </trkpt>
      <trkpt lat="43.69162" lon="1.47629">
        <ele>191.066549</ele>
        <time>2023-09-17T11:55:08.424Z</time>
      </trkpt>
      <trkpt lat="43.69155" lon="1.47619">
        <ele>190.704914</ele>
        <time>2023-09-17T11:55:09.424Z</time>
      </trkpt>
      <trkpt lat="43.69155" lon="1.47619">
        <ele>190.704914</ele>
        <time>2023-09-17T11:55:09.424Z</time>
      </trkpt>
      <trkpt lat="43.69149" lon="1.47609">
        <ele>190.346697</ele>
        <time>2023-09-17T11:55:10.424Z</time>
      </trkpt>
      <trkpt lat="43.69149" lon="1.47609">
        <ele>190.346697</ele>
        <time>2023-09-17T11:55:10.424Z</time>
      </trkpt>
      <trkpt lat="43.69145" lon="1.476">
        <ele>190.027031</ele>
        <time>2023-09-17T11:55:11.424Z</time>
      </trkpt>
      <trkpt lat="43.69145" lon="1.476">
        <ele>190.027031</ele>
        <time>2023-09-17T11:55:11.424Z</time>
      </trkpt>
      <trkpt lat="43.69141" lon="1.47593">
        <ele>189.798175</ele>
        <time>2023-09-17T11:55:12.424Z</time>
      </trkpt>
      <trkpt lat="43.69141" lon="1.47593">
        <ele>189.798175</ele>
        <time>2023-09-17T11:55:12.424Z</time>
      </trkpt>
      <trkpt lat="43.69139" lon="1.47588">
        <ele>189.609989</ele>
        <time>2023-09-17T11:55:13.424Z</time>
      </trkpt>
      <trkpt lat="43.69139" lon="1.47588">
        <ele>189.609989</ele>
        <time>2023-09-17T11:55:13.424Z</time>
      </trkpt>
      <trkpt lat="43.69137" lon="1.47583">
        <ele>189.452064</ele>
        <time>2023-09-17T11:55:14.424Z</time>
      </trkpt>
      <trkpt lat="43.69137" lon="1.47583">
        <ele>189.452064</ele>
        <time>2023-09-17T11:55:14.424Z</time>
      </trkpt>
      <trkpt lat="43.69135" lon="1.47578">
        <ele>189.31858</ele>
        <time>2023-09-17T11:55:15.424Z</time>
      </trkpt>
      <trkpt lat="43.69135" lon="1.47578">
        <ele>189.31858</ele>
        <time>2023-09-17T11:55:15.424Z</time>
      </trkpt>
      <trkpt lat="43.69134" lon="1.47572">
        <ele>189.146357</ele>
        <time>2023-09-17T11:55:16.424Z</time>
      </trkpt>
      <trkpt lat="43.69134" lon="1.47572">
        <ele>189.146357</ele>
        <time>2023-09-17T11:55:16.424Z</time>
      </trkpt>
      <trkpt lat="43.69132" lon="1.47566">
        <ele>188.911412</ele>
        <time>2023-09-17T11:55:17.424Z</time>
      </trkpt>
      <trkpt lat="43.69132" lon="1.47566">
        <ele>188.911412</ele>
        <time>2023-09-17T11:55:17.424Z</time>
      </trkpt>
      <trkpt lat="43.6913" lon="1.47557">
        <ele>188.353596</ele>
        <time>2023-09-17T11:55:18.424Z</time>
      </trkpt>
      <trkpt lat="43.6913" lon="1.47557">
        <ele>188.353596</ele>
        <time>2023-09-17T11:55:18.424Z</time>
      </trkpt>
      <trkpt lat="43.69127" lon="1.47547">
        <ele>187.707519</ele>
        <time>2023-09-17T11:55:19.424Z</time>
      </trkpt>
      <trkpt lat="43.69127" lon="1.47547">
        <ele>187.707519</ele>
        <time>2023-09-17T11:55:19.424Z</time>
      </trkpt>
      <trkpt lat="43.69124" lon="1.47536">
        <ele>187.093634</ele>
        <time>2023-09-17T11:55:20.424Z</time>
      </trkpt>
      <trkpt lat="43.69124" lon="1.47536">
        <ele>187.093634</ele>
        <time>2023-09-17T11:55:20.424Z</time>
      </trkpt>
      <trkpt lat="43.69122" lon="1.47525">
        <ele>186.412164</ele>
        <time>2023-09-17T11:55:21.424Z</time>
      </trkpt>
      <trkpt lat="43.69122" lon="1.47525">
        <ele>186.412164</ele>
        <time>2023-09-17T11:55:21.424Z</time>
      </trkpt>
      <trkpt lat="43.69119" lon="1.47514">
        <ele>185.75389</ele>
        <time>2023-09-17T11:55:22.424Z</time>
      </trkpt>
      <trkpt lat="43.69119" lon="1.47514">
        <ele>185.75389</ele>
        <time>2023-09-17T11:55:22.424Z</time>
      </trkpt>
      <trkpt lat="43.69117" lon="1.47502">
        <ele>185.053734</ele>
        <time>2023-09-17T11:55:23.424Z</time>
      </trkpt>
      <trkpt lat="43.69117" lon="1.47502">
        <ele>185.053734</ele>
        <time>2023-09-17T11:55:23.424Z</time>
      </trkpt>
      <trkpt lat="43.69113" lon="1.47489">
        <ele>184.249055</ele>
        <time>2023-09-17T11:55:24.424Z</time>
      </trkpt>
      <trkpt lat="43.69113" lon="1.47489">
        <ele>184.249055</ele>
        <time>2023-09-17T11:55:24.424Z</time>
      </trkpt>
      <trkpt lat="43.69109" lon="1.47476">
        <ele>183.463566</ele>
        <time>2023-09-17T11:55:25.424Z</time>
      </trkpt>
      <trkpt lat="43.69109" lon="1.47476">
        <ele>183.463566</ele>
        <time>2023-09-17T11:55:25.424Z</time>
      </trkpt>
      <trkpt lat="43.69105" lon="1.47463">
        <ele>182.631596</ele>
        <time>2023-09-17T11:55:26.424Z</time>
      </trkpt>
      <trkpt lat="43.69105" lon="1.47463">
        <ele>182.631596</ele>
        <time>2023-09-17T11:55:26.424Z</time>
      </trkpt>
      <trkpt lat="43.69101" lon="1.47451">
        <ele>181.886909</ele>
        <time>2023-09-17T11:55:27.424Z</time>
      </trkpt>
      <trkpt lat="43.69101" lon="1.47451">
        <ele>181.886909</ele>
        <time>2023-09-17T11:55:27.424Z</time>
      </trkpt>
      <trkpt lat="43.69096" lon="1.4744">
        <ele>181.16741</ele>
        <time>2023-09-17T11:55:28.424Z</time>
      </trkpt>
      <trkpt lat="43.69096" lon="1.4744">
        <ele>181.16741</ele>
        <time>2023-09-17T11:55:28.424Z</time>
      </trkpt>
      <trkpt lat="43.69091" lon="1.47429">
        <ele>180.426689</ele>
        <time>2023-09-17T11:55:29.424Z</time>
      </trkpt>
      <trkpt lat="43.69091" lon="1.47429">
        <ele>180.426689</ele>
        <time>2023-09-17T11:55:29.424Z</time>
      </trkpt>
      <trkpt lat="43.69086" lon="1.47421">
        <ele>179.802485</ele>
        <time>2023-09-17T11:55:30.424Z</time>
      </trkpt>
      <trkpt lat="43.69086" lon="1.47421">
        <ele>179.802485</ele>
        <time>2023-09-17T11:55:30.424Z</time>
      </trkpt>
      <trkpt lat="43.69079" lon="1.47408">
        <ele>178.864119</ele>
        <time>2023-09-17T11:55:31.424Z</time>
      </trkpt>
      <trkpt lat="43.69079" lon="1.47408">
        <ele>178.864119</ele>
        <time>2023-09-17T11:55:31.424Z</time>
      </trkpt>
      <trkpt lat="43.69073" lon="1.47398">
        <ele>178.129199</ele>
        <time>2023-09-17T11:55:32.424Z</time>
      </trkpt>
      <trkpt lat="43.69073" lon="1.47398">
        <ele>178.129199</ele>
        <time>2023-09-17T11:55:32.424Z</time>
      </trkpt>
      <trkpt lat="43.69069" lon="1.4739">
        <ele>177.583872</ele>
        <time>2023-09-17T11:55:33.424Z</time>
      </trkpt>
      <trkpt lat="43.69069" lon="1.4739">
        <ele>177.583872</ele>
        <time>2023-09-17T11:55:33.424Z</time>
      </trkpt>
      <trkpt lat="43.69062" lon="1.4738">
        <ele>176.808772</ele>
        <time>2023-09-17T11:55:34.424Z</time>
      </trkpt>
      <trkpt lat="43.69062" lon="1.4738">
        <ele>176.808772</ele>
        <time>2023-09-17T11:55:34.424Z</time>
      </trkpt>
      <trkpt lat="43.69057" lon="1.47372">
        <ele>176.206823</ele>
        <time>2023-09-17T11:55:35.424Z</time>
      </trkpt>
      <trkpt lat="43.69057" lon="1.47372">
        <ele>176.206823</ele>
        <time>2023-09-17T11:55:35.424Z</time>
      </trkpt>
      <trkpt lat="43.69053" lon="1.47368">
        <ele>175.769067</ele>
        <time>2023-09-17T11:55:36.424Z</time>
      </trkpt>
      <trkpt lat="43.69053" lon="1.47368">
        <ele>175.769067</ele>
        <time>2023-09-17T11:55:36.424Z</time>
      </trkpt>
      <trkpt lat="43.69049" lon="1.47367">
        <ele>175.467517</ele>
        <time>2023-09-17T11:55:37.424Z</time>
      </trkpt>
      <trkpt lat="43.69049" lon="1.47367">
        <ele>175.467517</ele>
        <time>2023-09-17T11:55:37.424Z</time>
      </trkpt>
      <trkpt lat="43.69045" lon="1.47369">
        <ele>175.189393</ele>
        <time>2023-09-17T11:55:38.424Z</time>
      </trkpt>
      <trkpt lat="43.69045" lon="1.47369">
        <ele>175.189393</ele>
        <time>2023-09-17T11:55:38.424Z</time>
      </trkpt>
      <trkpt lat="43.69041" lon="1.47373">
        <ele>174.873799</ele>
        <time>2023-09-17T11:55:39.424Z</time>
      </trkpt>
      <trkpt lat="43.69037" lon="1.47377">
        <ele>175.088143</ele>
        <time>2023-09-17T11:55:40.424Z</time>
      </trkpt>
      <trkpt lat="43.69037" lon="1.47377">
        <ele>175.088143</ele>
        <time>2023-09-17T11:55:40.424Z</time>
      </trkpt>
      <trkpt lat="43.69032" lon="1.47382">
        <ele>175.332725</ele>
        <time>2023-09-17T11:55:41.424Z</time>
      </trkpt>
      <trkpt lat="43.69032" lon="1.47382">
        <ele>175.332725</ele>
        <time>2023-09-17T11:55:41.424Z</time>
      </trkpt>
      <trkpt lat="43.69029" lon="1.47386">
        <ele>175.516353</ele>
        <time>2023-09-17T11:55:42.424Z</time>
      </trkpt>
      <trkpt lat="43.69025" lon="1.47389">
        <ele>175.726078</ele>
        <time>2023-09-17T11:55:43.424Z</time>
      </trkpt>
      <trkpt lat="43.69023" lon="1.4739">
        <ele>175.814732</ele>
        <time>2023-09-17T11:55:45.424Z</time>
      </trkpt>
      <trkpt lat="43.69023" lon="1.4739">
        <ele>175.814732</ele>
        <time>2023-09-17T11:55:45.424Z</time>
      </trkpt>
      <trkpt lat="43.69019" lon="1.47393">
        <ele>176.013978</ele>
        <time>2023-09-17T11:55:46.424Z</time>
      </trkpt>
      <trkpt lat="43.69014" lon="1.47396">
        <ele>176.245307</ele>
        <time>2023-09-17T11:55:47.424Z</time>
      </trkpt>
      <trkpt lat="43.69014" lon="1.47396">
        <ele>176.245307</ele>
        <time>2023-09-17T11:55:47.424Z</time>
      </trkpt>
      <trkpt lat="43.69009" lon="1.47399">
        <ele>176.459877</ele>
        <time>2023-09-17T11:55:48.424Z</time>
      </trkpt>
      <trkpt lat="43.69009" lon="1.47399">
        <ele>176.459877</ele>
        <time>2023-09-17T11:55:48.424Z</time>
      </trkpt>
      <trkpt lat="43.69005" lon="1.47402">
        <ele>176.641204</ele>
        <time>2023-09-17T11:55:48.424Z</time>
      </trkpt>
      <trkpt lat="43.69005" lon="1.47402">
        <ele>176.641204</ele>
        <time>2023-09-17T11:55:48.424Z</time>
      </trkpt>
      <trkpt lat="43.69001" lon="1.47405">
        <ele>176.84045</ele>
        <time>2023-09-17T11:55:51.424Z</time>
      </trkpt>
      <trkpt lat="43.69001" lon="1.47405">
        <ele>176.84045</ele>
        <time>2023-09-17T11:55:51.424Z</time>
      </trkpt>
      <trkpt lat="43.68997" lon="1.47407">
        <ele>177.01302</ele>
        <time>2023-09-17T11:55:52.424Z</time>
      </trkpt>
      <trkpt lat="43.68997" lon="1.47407">
        <ele>177.01302</ele>
        <time>2023-09-17T11:55:52.424Z</time>
      </trkpt>
      <trkpt lat="43.68994" lon="1.47409">
        <ele>177.167541</ele>
        <time>2023-09-17T11:55:53.424Z</time>
      </trkpt>
      <trkpt lat="43.68994" lon="1.47409">
        <ele>177.167541</ele>
        <time>2023-09-17T11:55:53.424Z</time>
      </trkpt>
      <trkpt lat="43.6899" lon="1.47411">
        <ele>177.355099</ele>
        <time>2023-09-17T11:55:54.424Z</time>
      </trkpt>
      <trkpt lat="43.6899" lon="1.47411">
        <ele>177.355099</ele>
        <time>2023-09-17T11:55:54.424Z</time>
      </trkpt>
      <trkpt lat="43.68986" lon="1.47412">
        <ele>177.529603</ele>
        <time>2023-09-17T11:55:54.424Z</time>
      </trkpt>
      <trkpt lat="43.68986" lon="1.47412">
        <ele>177.529603</ele>
        <time>2023-09-17T11:55:54.424Z</time>
      </trkpt>
      <trkpt lat="43.68982" lon="1.47415">
        <ele>177.721333</ele>
        <time>2023-09-17T11:55:56.424Z</time>
      </trkpt>
      <trkpt lat="43.68982" lon="1.47415">
        <ele>177.721333</ele>
        <time>2023-09-17T11:55:56.424Z</time>
      </trkpt>
      <trkpt lat="43.68979" lon="1.47417">
        <ele>177.864046</ele>
        <time>2023-09-17T11:55:58.424Z</time>
      </trkpt>
      <trkpt lat="43.68979" lon="1.47417">
        <ele>177.864046</ele>
        <time>2023-09-17T11:55:58.424Z</time>
      </trkpt>
      <trkpt lat="43.68972" lon="1.47421">
        <ele>178.173952</ele>
        <time>2023-09-17T11:55:59.424Z</time>
      </trkpt>
      <trkpt lat="43.68972" lon="1.47421">
        <ele>178.173952</ele>
        <time>2023-09-17T11:55:59.424Z</time>
      </trkpt>
      <trkpt lat="43.68969" lon="1.47423">
        <ele>178.330772</ele>
        <time>2023-09-17T11:56:00.424Z</time>
      </trkpt>
      <trkpt lat="43.68969" lon="1.47423">
        <ele>178.330772</ele>
        <time>2023-09-17T11:56:00.424Z</time>
      </trkpt>
      <trkpt lat="43.68963" lon="1.47427">
        <ele>178.618636</ele>
        <time>2023-09-17T11:56:02.424Z</time>
      </trkpt>
      <trkpt lat="43.68963" lon="1.47427">
        <ele>178.618636</ele>
        <time>2023-09-17T11:56:02.424Z</time>
      </trkpt>
      <trkpt lat="43.6896" lon="1.47429">
        <ele>178.747216</ele>
        <time>2023-09-17T11:56:02.424Z</time>
      </trkpt>
      <trkpt lat="43.6896" lon="1.47429">
        <ele>178.747216</ele>
        <time>2023-09-17T11:56:02.424Z</time>
      </trkpt>
      <trkpt lat="43.68958" lon="1.47431">
        <ele>178.855147</ele>
        <time>2023-09-17T11:56:04.424Z</time>
      </trkpt>
      <trkpt lat="43.68958" lon="1.47431">
        <ele>178.855147</ele>
        <time>2023-09-17T11:56:04.424Z</time>
      </trkpt>
      <trkpt lat="43.68954" lon="1.47432">
        <ele>179.019326</ele>
        <time>2023-09-17T11:56:04.424Z</time>
      </trkpt>
      <trkpt lat="43.68954" lon="1.47432">
        <ele>179.019326</ele>
        <time>2023-09-17T11:56:04.424Z</time>
      </trkpt>
      <trkpt lat="43.6895" lon="1.47432">
        <ele>179.197827</ele>
        <time>2023-09-17T11:56:06.424Z</time>
      </trkpt>
      <trkpt lat="43.6895" lon="1.47432">
        <ele>179.197827</ele>
        <time>2023-09-17T11:56:06.424Z</time>
      </trkpt>
      <trkpt lat="43.68945" lon="1.47432">
        <ele>179.376512</ele>
        <time>2023-09-17T11:56:08.424Z</time>
      </trkpt>
      <trkpt lat="43.68945" lon="1.47432">
        <ele>179.376512</ele>
        <time>2023-09-17T11:56:08.424Z</time>
      </trkpt>
      <trkpt lat="43.68942" lon="1.4743">
        <ele>179.509947</ele>
        <time>2023-09-17T11:56:09.424Z</time>
      </trkpt>
      <trkpt lat="43.68942" lon="1.4743">
        <ele>179.509947</ele>
        <time>2023-09-17T11:56:09.424Z</time>
      </trkpt>
      <trkpt lat="43.68938" lon="1.47427">
        <ele>179.702419</ele>
        <time>2023-09-17T11:56:10.424Z</time>
      </trkpt>
      <trkpt lat="43.68938" lon="1.47427">
        <ele>179.702419</ele>
        <time>2023-09-17T11:56:10.424Z</time>
      </trkpt>
      <trkpt lat="43.68935" lon="1.47424">
        <ele>179.873029</ele>
        <time>2023-09-17T11:56:11.424Z</time>
      </trkpt>
      <trkpt lat="43.68935" lon="1.47424">
        <ele>179.873029</ele>
        <time>2023-09-17T11:56:11.424Z</time>
      </trkpt>
      <trkpt lat="43.68932" lon="1.47419">
        <ele>180.06378</ele>
        <time>2023-09-17T11:56:12.424Z</time>
      </trkpt>
      <trkpt lat="43.68932" lon="1.47419">
        <ele>180.06378</ele>
        <time>2023-09-17T11:56:12.424Z</time>
      </trkpt>
      <trkpt lat="43.68928" lon="1.47413">
        <ele>180.329089</ele>
        <time>2023-09-17T11:56:14.424Z</time>
      </trkpt>
      <trkpt lat="43.68928" lon="1.47413">
        <ele>180.329089</ele>
        <time>2023-09-17T11:56:14.424Z</time>
      </trkpt>
      <trkpt lat="43.68919" lon="1.47404">
        <ele>180.780095</ele>
        <time>2023-09-17T11:56:15.424Z</time>
      </trkpt>
      <trkpt lat="43.68919" lon="1.47404">
        <ele>180.780095</ele>
        <time>2023-09-17T11:56:15.424Z</time>
      </trkpt>
      <trkpt lat="43.68916" lon="1.47402">
        <ele>180.932407</ele>
        <time>2023-09-17T11:56:16.424Z</time>
      </trkpt>
      <trkpt lat="43.68916" lon="1.47402">
        <ele>180.932407</ele>
        <time>2023-09-17T11:56:16.424Z</time>
      </trkpt>
      <trkpt lat="43.68913" lon="1.47398">
        <ele>181.131441</ele>
        <time>2023-09-17T11:56:17.424Z</time>
      </trkpt>
      <trkpt lat="43.68913" lon="1.47398">
        <ele>181.131441</ele>
        <time>2023-09-17T11:56:17.424Z</time>
      </trkpt>
      <trkpt lat="43.68908" lon="1.47392">
        <ele>181.398826</ele>
        <time>2023-09-17T11:56:18.424Z</time>
      </trkpt>
      <trkpt lat="43.68908" lon="1.47392">
        <ele>181.398826</ele>
        <time>2023-09-17T11:56:18.424Z</time>
      </trkpt>
      <trkpt lat="43.68904" lon="1.47387">
        <ele>181.641317</ele>
        <time>2023-09-17T11:56:19.424Z</time>
      </trkpt>
      <trkpt lat="43.68904" lon="1.47387">
        <ele>181.641317</ele>
        <time>2023-09-17T11:56:19.424Z</time>
      </trkpt>
      <trkpt lat="43.68902" lon="1.4738">
        <ele>181.845161</ele>
        <time>2023-09-17T11:56:20.424Z</time>
      </trkpt>
      <trkpt lat="43.68902" lon="1.4738">
        <ele>181.845161</ele>
        <time>2023-09-17T11:56:20.424Z</time>
      </trkpt>
      <trkpt lat="43.68902" lon="1.47372">
        <ele>182.093757</ele>
        <time>2023-09-17T11:56:21.424Z</time>
      </trkpt>
      <trkpt lat="43.68902" lon="1.47372">
        <ele>182.093757</ele>
        <time>2023-09-17T11:56:21.424Z</time>
      </trkpt>
      <trkpt lat="43.68903" lon="1.47364">
        <ele>182.360355</ele>
        <time>2023-09-17T11:56:21.424Z</time>
      </trkpt>
      <trkpt lat="43.68903" lon="1.47364">
        <ele>182.360355</ele>
        <time>2023-09-17T11:56:21.424Z</time>
      </trkpt>
      <trkpt lat="43.68906" lon="1.47356">
        <ele>182.454483</ele>
        <time>2023-09-17T11:56:23.424Z</time>
      </trkpt>
      <trkpt lat="43.68906" lon="1.47356">
        <ele>182.454483</ele>
        <time>2023-09-17T11:56:23.424Z</time>
      </trkpt>
      <trkpt lat="43.6891" lon="1.47348">
        <ele>182.424488</ele>
        <time>2023-09-17T11:56:24.424Z</time>
      </trkpt>
      <trkpt lat="43.6891" lon="1.47348">
        <ele>182.424488</ele>
        <time>2023-09-17T11:56:24.424Z</time>
      </trkpt>
      <trkpt lat="43.68913" lon="1.4734">
        <ele>182.395923</ele>
        <time>2023-09-17T11:56:25.424Z</time>
      </trkpt>
      <trkpt lat="43.68913" lon="1.4734">
        <ele>182.395923</ele>
        <time>2023-09-17T11:56:25.424Z</time>
      </trkpt>
      <trkpt lat="43.68917" lon="1.47332">
        <ele>182.366947</ele>
        <time>2023-09-17T11:56:26.424Z</time>
      </trkpt>
      <trkpt lat="43.68921" lon="1.47323">
        <ele>182.335782</ele>
        <time>2023-09-17T11:56:27.424Z</time>
      </trkpt>
      <trkpt lat="43.68921" lon="1.47323">
        <ele>182.335782</ele>
        <time>2023-09-17T11:56:27.424Z</time>
      </trkpt>
      <trkpt lat="43.68925" lon="1.47315">
        <ele>182.307429</ele>
        <time>2023-09-17T11:56:28.424Z</time>
      </trkpt>
      <trkpt lat="43.68929" lon="1.47306">
        <ele>182.27332</ele>
        <time>2023-09-17T11:56:29.424Z</time>
      </trkpt>
      <trkpt lat="43.68929" lon="1.47306">
        <ele>182.27332</ele>
        <time>2023-09-17T11:56:29.424Z</time>
      </trkpt>
      <trkpt lat="43.68933" lon="1.47297">
        <ele>182.24281</ele>
        <time>2023-09-17T11:56:30.424Z</time>
      </trkpt>
      <trkpt lat="43.68937" lon="1.47288">
        <ele>182.210999</ele>
        <time>2023-09-17T11:56:31.424Z</time>
      </trkpt>
      <trkpt lat="43.6894" lon="1.47277">
        <ele>182.176104</ele>
        <time>2023-09-17T11:56:32.424Z</time>
      </trkpt>
      <trkpt lat="43.68941" lon="1.47268">
        <ele>182.14668</ele>
        <time>2023-09-17T11:56:33.424Z</time>
      </trkpt>
      <trkpt lat="43.6894" lon="1.47257">
        <ele>182.113364</ele>
        <time>2023-09-17T11:56:34.424Z</time>
      </trkpt>
      <trkpt lat="43.68937" lon="1.47247">
        <ele>182.080198</ele>
        <time>2023-09-17T11:56:35.424Z</time>
      </trkpt>
      <trkpt lat="43.68937" lon="1.47247">
        <ele>182.080198</ele>
        <time>2023-09-17T11:56:35.424Z</time>
      </trkpt>
      <trkpt lat="43.68933" lon="1.47238">
        <ele>182.048279</ele>
        <time>2023-09-17T11:56:36.424Z</time>
      </trkpt>
      <trkpt lat="43.68928" lon="1.4723">
        <ele>182.014758</ele>
        <time>2023-09-17T11:56:37.424Z</time>
      </trkpt>
      <trkpt lat="43.68922" lon="1.47222">
        <ele>181.980787</ele>
        <time>2023-09-17T11:56:38.424Z</time>
      </trkpt>
      <trkpt lat="43.68922" lon="1.47222">
        <ele>181.980787</ele>
        <time>2023-09-17T11:56:38.424Z</time>
      </trkpt>
      <trkpt lat="43.68916" lon="1.47215">
        <ele>181.948954</ele>
        <time>2023-09-17T11:56:39.424Z</time>
      </trkpt>
      <trkpt lat="43.6891" lon="1.47209">
        <ele>181.916153</ele>
        <time>2023-09-17T11:56:39.424Z</time>
      </trkpt>
      <trkpt lat="43.6891" lon="1.47209">
        <ele>181.916153</ele>
        <time>2023-09-17T11:56:39.424Z</time>
      </trkpt>
      <trkpt lat="43.68904" lon="1.47202">
        <ele>181.882969</ele>
        <time>2023-09-17T11:56:41.424Z</time>
      </trkpt>
      <trkpt lat="43.68904" lon="1.47202">
        <ele>181.882969</ele>
        <time>2023-09-17T11:56:41.424Z</time>
      </trkpt>
      <trkpt lat="43.68897" lon="1.47194">
        <ele>181.847529</ele>
        <time>2023-09-17T11:56:41.424Z</time>
      </trkpt>
      <trkpt lat="43.68897" lon="1.47194">
        <ele>181.847529</ele>
        <time>2023-09-17T11:56:41.424Z</time>
      </trkpt>
      <trkpt lat="43.6889" lon="1.47186">
        <ele>181.809956</ele>
        <time>2023-09-17T11:56:43.424Z</time>
      </trkpt>
      <trkpt lat="43.6889" lon="1.47186">
        <ele>181.809956</ele>
        <time>2023-09-17T11:56:43.424Z</time>
      </trkpt>
      <trkpt lat="43.68883" lon="1.47177">
        <ele>181.768653</ele>
        <time>2023-09-17T11:56:44.424Z</time>
      </trkpt>
      <trkpt lat="43.68883" lon="1.47177">
        <ele>181.768653</ele>
        <time>2023-09-17T11:56:44.424Z</time>
      </trkpt>
      <trkpt lat="43.68876" lon="1.47169">
        <ele>181.730566</ele>
        <time>2023-09-17T11:56:45.424Z</time>
      </trkpt>
      <trkpt lat="43.68876" lon="1.47169">
        <ele>181.730566</ele>
        <time>2023-09-17T11:56:45.424Z</time>
      </trkpt>
      <trkpt lat="43.68868" lon="1.4716">
        <ele>181.791742</ele>
        <time>2023-09-17T11:56:45.424Z</time>
      </trkpt>
      <trkpt lat="43.68868" lon="1.4716">
        <ele>181.791742</ele>
        <time>2023-09-17T11:56:45.424Z</time>
      </trkpt>
      <trkpt lat="43.68861" lon="1.47151">
        <ele>181.903832</ele>
        <time>2023-09-17T11:56:47.424Z</time>
      </trkpt>
      <trkpt lat="43.68861" lon="1.47151">
        <ele>181.903832</ele>
        <time>2023-09-17T11:56:47.424Z</time>
      </trkpt>
      <trkpt lat="43.68855" lon="1.47144">
        <ele>181.989266</ele>
        <time>2023-09-17T11:56:48.424Z</time>
      </trkpt>
      <trkpt lat="43.68855" lon="1.47144">
        <ele>181.989266</ele>
        <time>2023-09-17T11:56:48.424Z</time>
      </trkpt>
      <trkpt lat="43.68848" lon="1.47136">
        <ele>182.094466</ele>
        <time>2023-09-17T11:56:49.424Z</time>
      </trkpt>
      <trkpt lat="43.68848" lon="1.47136">
        <ele>182.094466</ele>
        <time>2023-09-17T11:56:49.424Z</time>
      </trkpt>
      <trkpt lat="43.68842" lon="1.4713">
        <ele>182.179899</ele>
        <time>2023-09-17T11:56:50.424Z</time>
      </trkpt>
      <trkpt lat="43.68842" lon="1.4713">
        <ele>182.179899</ele>
        <time>2023-09-17T11:56:50.424Z</time>
      </trkpt>
      <trkpt lat="43.68837" lon="1.47125">
        <ele>182.254612</ele>
        <time>2023-09-17T11:56:51.424Z</time>
      </trkpt>
      <trkpt lat="43.68831" lon="1.47119">
        <ele>182.33081</ele>
        <time>2023-09-17T11:56:52.424Z</time>
      </trkpt>
      <trkpt lat="43.68831" lon="1.47119">
        <ele>182.33081</ele>
        <time>2023-09-17T11:56:52.424Z</time>
      </trkpt>
      <trkpt lat="43.68827" lon="1.47113">
        <ele>182.400907</ele>
        <time>2023-09-17T11:56:53.424Z</time>
      </trkpt>
      <trkpt lat="43.68827" lon="1.47113">
        <ele>182.400907</ele>
        <time>2023-09-17T11:56:53.424Z</time>
      </trkpt>
      <trkpt lat="43.68823" lon="1.47108">
        <ele>182.462744</ele>
        <time>2023-09-17T11:56:54.424Z</time>
      </trkpt>
      <trkpt lat="43.6882" lon="1.47103">
        <ele>182.517421</ele>
        <time>2023-09-17T11:56:55.424Z</time>
      </trkpt>
      <trkpt lat="43.68817" lon="1.47098">
        <ele>182.567978</ele>
        <time>2023-09-17T11:56:56.424Z</time>
      </trkpt>
      <trkpt lat="43.68817" lon="1.47098">
        <ele>182.567978</ele>
        <time>2023-09-17T11:56:56.424Z</time>
      </trkpt>
      <trkpt lat="43.68815" lon="1.47093">
        <ele>182.619188</ele>
        <time>2023-09-17T11:56:56.424Z</time>
      </trkpt>
      <trkpt lat="43.68815" lon="1.47093">
        <ele>182.619188</ele>
        <time>2023-09-17T11:56:56.424Z</time>
      </trkpt>
      <trkpt lat="43.68812" lon="1.47087">
        <ele>182.673743</ele>
        <time>2023-09-17T11:56:58.424Z</time>
      </trkpt>
      <trkpt lat="43.68812" lon="1.47087">
        <ele>182.673743</ele>
        <time>2023-09-17T11:56:58.424Z</time>
      </trkpt>
      <trkpt lat="43.68808" lon="1.47082">
        <ele>182.734382</ele>
        <time>2023-09-17T11:56:58.424Z</time>
      </trkpt>
      <trkpt lat="43.68806" lon="1.47077">
        <ele>182.781118</ele>
        <time>2023-09-17T11:56:59.424Z</time>
      </trkpt>
      <trkpt lat="43.68806" lon="1.47077">
        <ele>182.781118</ele>
        <time>2023-09-17T11:56:59.424Z</time>
      </trkpt>
      <trkpt lat="43.68803" lon="1.47072">
        <ele>182.833934</ele>
        <time>2023-09-17T11:57:01.424Z</time>
      </trkpt>
      <trkpt lat="43.68803" lon="1.47072">
        <ele>182.833934</ele>
        <time>2023-09-17T11:57:01.424Z</time>
      </trkpt>
      <trkpt lat="43.68799" lon="1.47067">
        <ele>182.893463</ele>
        <time>2023-09-17T11:57:02.424Z</time>
      </trkpt>
      <trkpt lat="43.68799" lon="1.47067">
        <ele>182.893463</ele>
        <time>2023-09-17T11:57:02.424Z</time>
      </trkpt>
      <trkpt lat="43.68795" lon="1.47063">
        <ele>182.945202</ele>
        <time>2023-09-17T11:57:03.424Z</time>
      </trkpt>
      <trkpt lat="43.68795" lon="1.47063">
        <ele>182.945202</ele>
        <time>2023-09-17T11:57:03.424Z</time>
      </trkpt>
      <trkpt lat="43.68792" lon="1.47059">
        <ele>183.00198</ele>
        <time>2023-09-17T11:57:03.424Z</time>
      </trkpt>
      <trkpt lat="43.68788" lon="1.47054">
        <ele>183.058228</ele>
        <time>2023-09-17T11:57:05.424Z</time>
      </trkpt>
      <trkpt lat="43.68788" lon="1.47054">
        <ele>183.058228</ele>
        <time>2023-09-17T11:57:05.424Z</time>
      </trkpt>
      <trkpt lat="43.68783" lon="1.4705">
        <ele>183.121242</ele>
        <time>2023-09-17T11:57:06.424Z</time>
      </trkpt>
      <trkpt lat="43.68783" lon="1.4705">
        <ele>183.121242</ele>
        <time>2023-09-17T11:57:06.424Z</time>
      </trkpt>
      <trkpt lat="43.68779" lon="1.47046">
        <ele>183.1838</ele>
        <time>2023-09-17T11:57:07.424Z</time>
      </trkpt>
      <trkpt lat="43.68774" lon="1.47042">
        <ele>183.245469</ele>
        <time>2023-09-17T11:57:08.424Z</time>
      </trkpt>
      <trkpt lat="43.68774" lon="1.47042">
        <ele>183.245469</ele>
        <time>2023-09-17T11:57:08.424Z</time>
      </trkpt>
      <trkpt lat="43.6877" lon="1.47039">
        <ele>183.302896</ele>
        <time>2023-09-17T11:57:08.424Z</time>
      </trkpt>
      <trkpt lat="43.6877" lon="1.47039">
        <ele>183.302896</ele>
        <time>2023-09-17T11:57:08.424Z</time>
      </trkpt>
      <trkpt lat="43.68765" lon="1.47036">
        <ele>183.358989</ele>
        <time>2023-09-17T11:57:10.424Z</time>
      </trkpt>
      <trkpt lat="43.68765" lon="1.47036">
        <ele>183.358989</ele>
        <time>2023-09-17T11:57:10.424Z</time>
      </trkpt>
      <trkpt lat="43.6876" lon="1.47034">
        <ele>183.422226</ele>
        <time>2023-09-17T11:57:11.424Z</time>
      </trkpt>
      <trkpt lat="43.6876" lon="1.47034">
        <ele>183.422226</ele>
        <time>2023-09-17T11:57:11.424Z</time>
      </trkpt>
      <trkpt lat="43.68754" lon="1.47035">
        <ele>183.482427</ele>
        <time>2023-09-17T11:57:12.424Z</time>
      </trkpt>
      <trkpt lat="43.68754" lon="1.47035">
        <ele>183.482427</ele>
        <time>2023-09-17T11:57:12.424Z</time>
      </trkpt>
      <trkpt lat="43.6875" lon="1.47037">
        <ele>183.538825</ele>
        <time>2023-09-17T11:57:13.424Z</time>
      </trkpt>
      <trkpt lat="43.6875" lon="1.47037">
        <ele>183.538825</ele>
        <time>2023-09-17T11:57:13.424Z</time>
      </trkpt>
      <trkpt lat="43.68746" lon="1.47042">
        <ele>183.596684</ele>
        <time>2023-09-17T11:57:14.424Z</time>
      </trkpt>
      <trkpt lat="43.68746" lon="1.47042">
        <ele>183.596684</ele>
        <time>2023-09-17T11:57:14.424Z</time>
      </trkpt>
      <trkpt lat="43.68742" lon="1.47048">
        <ele>183.66214</ele>
        <time>2023-09-17T11:57:15.424Z</time>
      </trkpt>
      <trkpt lat="43.68742" lon="1.47048">
        <ele>183.66214</ele>
        <time>2023-09-17T11:57:15.424Z</time>
      </trkpt>
      <trkpt lat="43.68738" lon="1.47054">
        <ele>183.733068</ele>
        <time>2023-09-17T11:57:15.424Z</time>
      </trkpt>
      <trkpt lat="43.68738" lon="1.47054">
        <ele>183.733068</ele>
        <time>2023-09-17T11:57:15.424Z</time>
      </trkpt>
      <trkpt lat="43.68735" lon="1.4706">
        <ele>183.889911</ele>
        <time>2023-09-17T11:57:17.424Z</time>
      </trkpt>
      <trkpt lat="43.68735" lon="1.4706">
        <ele>183.889911</ele>
        <time>2023-09-17T11:57:17.424Z</time>
      </trkpt>
      <trkpt lat="43.68731" lon="1.47065">
        <ele>184.126318</ele>
        <time>2023-09-17T11:57:18.424Z</time>
      </trkpt>
      <trkpt lat="43.68731" lon="1.47065">
        <ele>184.126318</ele>
        <time>2023-09-17T11:57:18.424Z</time>
      </trkpt>
      <trkpt lat="43.68728" lon="1.47072">
        <ele>184.380544</ele>
        <time>2023-09-17T11:57:18.424Z</time>
      </trkpt>
      <trkpt lat="43.68728" lon="1.47072">
        <ele>184.380544</ele>
        <time>2023-09-17T11:57:18.424Z</time>
      </trkpt>
      <trkpt lat="43.68725" lon="1.47077">
        <ele>184.618821</ele>
        <time>2023-09-17T11:57:20.424Z</time>
      </trkpt>
      <trkpt lat="43.68725" lon="1.47077">
        <ele>184.618821</ele>
        <time>2023-09-17T11:57:20.424Z</time>
      </trkpt>
      <trkpt lat="43.68722" lon="1.47083">
        <ele>184.857149</ele>
        <time>2023-09-17T11:57:21.424Z</time>
      </trkpt>
      <trkpt lat="43.68722" lon="1.47083">
        <ele>184.857149</ele>
        <time>2023-09-17T11:57:21.424Z</time>
      </trkpt>
      <trkpt lat="43.68718" lon="1.47089">
        <ele>185.106478</ele>
        <time>2023-09-17T11:57:22.424Z</time>
      </trkpt>
      <trkpt lat="43.68718" lon="1.47089">
        <ele>185.106478</ele>
        <time>2023-09-17T11:57:22.424Z</time>
      </trkpt>
      <trkpt lat="43.68715" lon="1.47094">
        <ele>185.343467</ele>
        <time>2023-09-17T11:57:23.424Z</time>
      </trkpt>
      <trkpt lat="43.68715" lon="1.47094">
        <ele>185.343467</ele>
        <time>2023-09-17T11:57:23.424Z</time>
      </trkpt>
      <trkpt lat="43.6871" lon="1.47098">
        <ele>185.575747</ele>
        <time>2023-09-17T11:57:23.424Z</time>
      </trkpt>
      <trkpt lat="43.6871" lon="1.47098">
        <ele>185.575747</ele>
        <time>2023-09-17T11:57:23.424Z</time>
      </trkpt>
      <trkpt lat="43.68705" lon="1.47101">
        <ele>185.812874</ele>
        <time>2023-09-17T11:57:25.424Z</time>
      </trkpt>
      <trkpt lat="43.68705" lon="1.47101">
        <ele>185.812874</ele>
        <time>2023-09-17T11:57:25.424Z</time>
      </trkpt>
      <trkpt lat="43.68701" lon="1.47101">
        <ele>186.020941</ele>
        <time>2023-09-17T11:57:26.424Z</time>
      </trkpt>
      <trkpt lat="43.68701" lon="1.47101">
        <ele>186.020941</ele>
        <time>2023-09-17T11:57:26.424Z</time>
      </trkpt>
      <trkpt lat="43.68696" lon="1.471">
        <ele>186.253577</ele>
        <time>2023-09-17T11:57:27.424Z</time>
      </trkpt>
      <trkpt lat="43.68696" lon="1.471">
        <ele>186.253577</ele>
        <time>2023-09-17T11:57:27.424Z</time>
      </trkpt>
      <trkpt lat="43.68691" lon="1.47097">
        <ele>186.497035</ele>
        <time>2023-09-17T11:57:28.424Z</time>
      </trkpt>
      <trkpt lat="43.68691" lon="1.47097">
        <ele>186.497035</ele>
        <time>2023-09-17T11:57:28.424Z</time>
      </trkpt>
      <trkpt lat="43.68687" lon="1.47092">
        <ele>186.71888</ele>
        <time>2023-09-17T11:57:28.424Z</time>
      </trkpt>
      <trkpt lat="43.68687" lon="1.47092">
        <ele>186.71888</ele>
        <time>2023-09-17T11:57:28.424Z</time>
      </trkpt>
      <trkpt lat="43.68683" lon="1.47087">
        <ele>186.975774</ele>
        <time>2023-09-17T11:57:30.424Z</time>
      </trkpt>
      <trkpt lat="43.68683" lon="1.47087">
        <ele>186.975774</ele>
        <time>2023-09-17T11:57:30.424Z</time>
      </trkpt>
      <trkpt lat="43.68679" lon="1.47082">
        <ele>187.213848</ele>
        <time>2023-09-17T11:57:31.424Z</time>
      </trkpt>
      <trkpt lat="43.68679" lon="1.47082">
        <ele>187.213848</ele>
        <time>2023-09-17T11:57:31.424Z</time>
      </trkpt>
      <trkpt lat="43.68675" lon="1.47076">
        <ele>187.479728</ele>
        <time>2023-09-17T11:57:32.424Z</time>
      </trkpt>
      <trkpt lat="43.68675" lon="1.47076">
        <ele>187.479728</ele>
        <time>2023-09-17T11:57:32.424Z</time>
      </trkpt>
      <trkpt lat="43.6867" lon="1.47071">
        <ele>187.751074</ele>
        <time>2023-09-17T11:57:32.424Z</time>
      </trkpt>
      <trkpt lat="43.6867" lon="1.47071">
        <ele>187.751074</ele>
        <time>2023-09-17T11:57:32.424Z</time>
      </trkpt>
      <trkpt lat="43.68666" lon="1.47065">
        <ele>188.032331</ele>
        <time>2023-09-17T11:57:34.424Z</time>
      </trkpt>
      <trkpt lat="43.68666" lon="1.47065">
        <ele>188.032331</ele>
        <time>2023-09-17T11:57:34.424Z</time>
      </trkpt>
      <trkpt lat="43.68662" lon="1.47059">
        <ele>188.300509</ele>
        <time>2023-09-17T11:57:35.424Z</time>
      </trkpt>
      <trkpt lat="43.68662" lon="1.47059">
        <ele>188.300509</ele>
        <time>2023-09-17T11:57:35.424Z</time>
      </trkpt>
      <trkpt lat="43.68657" lon="1.47053">
        <ele>188.568688</ele>
        <time>2023-09-17T11:57:36.424Z</time>
      </trkpt>
      <trkpt lat="43.68657" lon="1.47053">
        <ele>188.568688</ele>
        <time>2023-09-17T11:57:36.424Z</time>
      </trkpt>
      <trkpt lat="43.68653" lon="1.47048">
        <ele>188.847754</ele>
        <time>2023-09-17T11:57:37.424Z</time>
      </trkpt>
      <trkpt lat="43.68653" lon="1.47048">
        <ele>188.847754</ele>
        <time>2023-09-17T11:57:37.424Z</time>
      </trkpt>
      <trkpt lat="43.68649" lon="1.47042">
        <ele>189.113634</ele>
        <time>2023-09-17T11:57:38.424Z</time>
      </trkpt>
      <trkpt lat="43.68649" lon="1.47042">
        <ele>189.113634</ele>
        <time>2023-09-17T11:57:38.424Z</time>
      </trkpt>
      <trkpt lat="43.68644" lon="1.47036">
        <ele>189.396064</ele>
        <time>2023-09-17T11:57:39.424Z</time>
      </trkpt>
      <trkpt lat="43.68644" lon="1.47036">
        <ele>189.396064</ele>
        <time>2023-09-17T11:57:39.424Z</time>
      </trkpt>
      <trkpt lat="43.6864" lon="1.47031">
        <ele>189.657409</ele>
        <time>2023-09-17T11:57:40.424Z</time>
      </trkpt>
      <trkpt lat="43.6864" lon="1.47031">
        <ele>189.657409</ele>
        <time>2023-09-17T11:57:40.424Z</time>
      </trkpt>
      <trkpt lat="43.68636" lon="1.47025">
        <ele>189.923289</ele>
        <time>2023-09-17T11:57:41.424Z</time>
      </trkpt>
      <trkpt lat="43.68636" lon="1.47025">
        <ele>189.923289</ele>
        <time>2023-09-17T11:57:41.424Z</time>
      </trkpt>
      <trkpt lat="43.68631" lon="1.47019">
        <ele>190.186892</ele>
        <time>2023-09-17T11:57:42.424Z</time>
      </trkpt>
      <trkpt lat="43.68631" lon="1.47019">
        <ele>190.186892</ele>
        <time>2023-09-17T11:57:42.424Z</time>
      </trkpt>
      <trkpt lat="43.68628" lon="1.47014">
        <ele>190.433944</ele>
        <time>2023-09-17T11:57:43.424Z</time>
      </trkpt>
      <trkpt lat="43.68628" lon="1.47014">
        <ele>190.433944</ele>
        <time>2023-09-17T11:57:43.424Z</time>
      </trkpt>
      <trkpt lat="43.68624" lon="1.47008">
        <ele>190.687243</ele>
        <time>2023-09-17T11:57:44.424Z</time>
      </trkpt>
      <trkpt lat="43.68624" lon="1.47008">
        <ele>190.687243</ele>
        <time>2023-09-17T11:57:44.424Z</time>
      </trkpt>
      <trkpt lat="43.6862" lon="1.47003">
        <ele>190.935776</ele>
        <time>2023-09-17T11:57:45.424Z</time>
      </trkpt>
      <trkpt lat="43.6862" lon="1.47003">
        <ele>190.935776</ele>
        <time>2023-09-17T11:57:45.424Z</time>
      </trkpt>
      <trkpt lat="43.68617" lon="1.46997">
        <ele>191.169713</ele>
        <time>2023-09-17T11:57:46.424Z</time>
      </trkpt>
      <trkpt lat="43.68617" lon="1.46997">
        <ele>191.169713</ele>
        <time>2023-09-17T11:57:46.424Z</time>
      </trkpt>
      <trkpt lat="43.68613" lon="1.46992">
        <ele>191.420619</ele>
        <time>2023-09-17T11:57:47.424Z</time>
      </trkpt>
      <trkpt lat="43.68613" lon="1.46992">
        <ele>191.420619</ele>
        <time>2023-09-17T11:57:47.424Z</time>
      </trkpt>
      <trkpt lat="43.6861" lon="1.46987">
        <ele>191.623681</ele>
        <time>2023-09-17T11:57:48.424Z</time>
      </trkpt>
      <trkpt lat="43.6861" lon="1.46987">
        <ele>191.623681</ele>
        <time>2023-09-17T11:57:48.424Z</time>
      </trkpt>
      <trkpt lat="43.68606" lon="1.46982">
        <ele>191.867532</ele>
        <time>2023-09-17T11:57:49.424Z</time>
      </trkpt>
      <trkpt lat="43.68606" lon="1.46982">
        <ele>191.867532</ele>
        <time>2023-09-17T11:57:49.424Z</time>
      </trkpt>
      <trkpt lat="43.68602" lon="1.46976">
        <ele>191.938212</ele>
        <time>2023-09-17T11:57:49.424Z</time>
      </trkpt>
      <trkpt lat="43.68602" lon="1.46976">
        <ele>191.938212</ele>
        <time>2023-09-17T11:57:49.424Z</time>
      </trkpt>
      <trkpt lat="43.68599" lon="1.46972">
        <ele>191.987661</ele>
        <time>2023-09-17T11:57:50.424Z</time>
      </trkpt>
      <trkpt lat="43.68599" lon="1.46972">
        <ele>191.987661</ele>
        <time>2023-09-17T11:57:50.424Z</time>
      </trkpt>
      <trkpt lat="43.68596" lon="1.46968">
        <ele>192.034336</ele>
        <time>2023-09-17T11:57:52.424Z</time>
      </trkpt>
      <trkpt lat="43.68596" lon="1.46968">
        <ele>192.034336</ele>
        <time>2023-09-17T11:57:52.424Z</time>
      </trkpt>
      <trkpt lat="43.68592" lon="1.46963">
        <ele>192.084848</ele>
        <time>2023-09-17T11:57:53.424Z</time>
      </trkpt>
      <trkpt lat="43.68592" lon="1.46963">
        <ele>192.084848</ele>
        <time>2023-09-17T11:57:53.424Z</time>
      </trkpt>
      <trkpt lat="43.68588" lon="1.46958">
        <ele>192.139439</ele>
        <time>2023-09-17T11:57:53.424Z</time>
      </trkpt>
      <trkpt lat="43.68585" lon="1.46954">
        <ele>192.188631</ele>
        <time>2023-09-17T11:57:55.424Z</time>
      </trkpt>
      <trkpt lat="43.68585" lon="1.46954">
        <ele>192.188631</ele>
        <time>2023-09-17T11:57:55.424Z</time>
      </trkpt>
      <trkpt lat="43.68581" lon="1.46949">
        <ele>192.246367</ele>
        <time>2023-09-17T11:57:56.424Z</time>
      </trkpt>
      <trkpt lat="43.68577" lon="1.46945">
        <ele>192.29327</ele>
        <time>2023-09-17T11:57:57.424Z</time>
      </trkpt>
      <trkpt lat="43.68577" lon="1.46945">
        <ele>192.29327</ele>
        <time>2023-09-17T11:57:57.424Z</time>
      </trkpt>
      <trkpt lat="43.68573" lon="1.4694">
        <ele>192.352502</ele>
        <time>2023-09-17T11:57:57.424Z</time>
      </trkpt>
      <trkpt lat="43.68569" lon="1.46935">
        <ele>192.404577</ele>
        <time>2023-09-17T11:57:59.424Z</time>
      </trkpt>
      <trkpt lat="43.68569" lon="1.46935">
        <ele>192.404577</ele>
        <time>2023-09-17T11:57:59.424Z</time>
      </trkpt>
      <trkpt lat="43.68565" lon="1.46931">
        <ele>192.45994</ele>
        <time>2023-09-17T11:58:00.424Z</time>
      </trkpt>
      <trkpt lat="43.68561" lon="1.46925">
        <ele>192.520197</ele>
        <time>2023-09-17T11:58:00.424Z</time>
      </trkpt>
      <trkpt lat="43.68561" lon="1.46925">
        <ele>192.520197</ele>
        <time>2023-09-17T11:58:00.424Z</time>
      </trkpt>
      <trkpt lat="43.68558" lon="1.4692">
        <ele>192.573782</ele>
        <time>2023-09-17T11:58:01.424Z</time>
      </trkpt>
      <trkpt lat="43.68555" lon="1.46913">
        <ele>192.632894</ele>
        <time>2023-09-17T11:58:03.424Z</time>
      </trkpt>
      <trkpt lat="43.68554" lon="1.46905">
        <ele>192.694711</ele>
        <time>2023-09-17T11:58:04.424Z</time>
      </trkpt>
      <trkpt lat="43.68554" lon="1.46905">
        <ele>192.694711</ele>
        <time>2023-09-17T11:58:04.424Z</time>
      </trkpt>
      <trkpt lat="43.68554" lon="1.46896">
        <ele>192.764613</ele>
        <time>2023-09-17T11:58:04.424Z</time>
      </trkpt>
      <trkpt lat="43.68554" lon="1.46886">
        <ele>192.8354</ele>
        <time>2023-09-17T11:58:06.424Z</time>
      </trkpt>
      <trkpt lat="43.68554" lon="1.46876">
        <ele>192.916049</ele>
        <time>2023-09-17T11:58:07.424Z</time>
      </trkpt>
      <trkpt lat="43.68552" lon="1.46865">
        <ele>192.997552</ele>
        <time>2023-09-17T11:58:07.424Z</time>
      </trkpt>
      <trkpt lat="43.68548" lon="1.46856">
        <ele>193.07809</ele>
        <time>2023-09-17T11:58:08.424Z</time>
      </trkpt>
      <trkpt lat="43.68548" lon="1.46856">
        <ele>193.07809</ele>
        <time>2023-09-17T11:58:08.424Z</time>
      </trkpt>
      <trkpt lat="43.68543" lon="1.46846">
        <ele>193.168599</ele>
        <time>2023-09-17T11:58:10.424Z</time>
      </trkpt>
      <trkpt lat="43.6854" lon="1.46839">
        <ele>193.233936</ele>
        <time>2023-09-17T11:58:11.424Z</time>
      </trkpt>
      <trkpt lat="43.68535" lon="1.46829">
        <ele>193.328139</ele>
        <time>2023-09-17T11:58:11.424Z</time>
      </trkpt>
      <trkpt lat="43.6853" lon="1.46821">
        <ele>193.405797</ele>
        <time>2023-09-17T11:58:13.424Z</time>
      </trkpt>
      <trkpt lat="43.68525" lon="1.46814">
        <ele>193.482194</ele>
        <time>2023-09-17T11:58:14.424Z</time>
      </trkpt>
      <trkpt lat="43.6852" lon="1.46807">
        <ele>193.556627</ele>
        <time>2023-09-17T11:58:14.424Z</time>
      </trkpt>
      <trkpt lat="43.6852" lon="1.46807">
        <ele>193.556627</ele>
        <time>2023-09-17T11:58:14.424Z</time>
      </trkpt>
      <trkpt lat="43.68514" lon="1.46803">
        <ele>193.626355</ele>
        <time>2023-09-17T11:58:15.424Z</time>
      </trkpt>
      <trkpt lat="43.68507" lon="1.468">
        <ele>193.698355</ele>
        <time>2023-09-17T11:58:16.424Z</time>
      </trkpt>
      <trkpt lat="43.68507" lon="1.468">
        <ele>193.698355</ele>
        <time>2023-09-17T11:58:16.424Z</time>
      </trkpt>
      <trkpt lat="43.68501" lon="1.46798">
        <ele>193.771424</ele>
        <time>2023-09-17T11:58:18.424Z</time>
      </trkpt>
      <trkpt lat="43.68493" lon="1.46798">
        <ele>193.669205</ele>
        <time>2023-09-17T11:58:18.424Z</time>
      </trkpt>
      <trkpt lat="43.68485" lon="1.46799">
        <ele>193.547622</ele>
        <time>2023-09-17T11:58:19.424Z</time>
      </trkpt>
      <trkpt lat="43.68485" lon="1.46799">
        <ele>193.547622</ele>
        <time>2023-09-17T11:58:19.424Z</time>
      </trkpt>
      <trkpt lat="43.6848" lon="1.46801">
        <ele>193.463866</ele>
        <time>2023-09-17T11:58:20.424Z</time>
      </trkpt>
      <trkpt lat="43.6848" lon="1.46801">
        <ele>193.463866</ele>
        <time>2023-09-17T11:58:20.424Z</time>
      </trkpt>
      <trkpt lat="43.68473" lon="1.46804">
        <ele>193.359148</ele>
        <time>2023-09-17T11:58:22.424Z</time>
      </trkpt>
      <trkpt lat="43.68467" lon="1.46809">
        <ele>193.249556</ele>
        <time>2023-09-17T11:58:22.424Z</time>
      </trkpt>
      <trkpt lat="43.68467" lon="1.46809">
        <ele>193.249556</ele>
        <time>2023-09-17T11:58:22.424Z</time>
      </trkpt>
      <trkpt lat="43.68462" lon="1.46814">
        <ele>193.151273</ele>
        <time>2023-09-17T11:58:24.424Z</time>
      </trkpt>
      <trkpt lat="43.6846" lon="1.46816">
        <ele>193.113085</ele>
        <time>2023-09-17T11:58:25.424Z</time>
      </trkpt>
      <trkpt lat="43.68453" lon="1.46827">
        <ele>192.957979</ele>
        <time>2023-09-17T11:58:25.424Z</time>
      </trkpt>
      <trkpt lat="43.68449" lon="1.46832">
        <ele>192.878672</ele>
        <time>2023-09-17T11:58:26.424Z</time>
      </trkpt>
      <trkpt lat="43.68445" lon="1.46838">
        <ele>192.79062</ele>
        <time>2023-09-17T11:58:28.424Z</time>
      </trkpt>
      <trkpt lat="43.68441" lon="1.46843">
        <ele>192.708215</ele>
        <time>2023-09-17T11:58:29.424Z</time>
      </trkpt>
      <trkpt lat="43.68438" lon="1.46848">
        <ele>192.636186</ele>
        <time>2023-09-17T11:58:29.424Z</time>
      </trkpt>
      <trkpt lat="43.68435" lon="1.46854">
        <ele>192.557881</ele>
        <time>2023-09-17T11:58:31.424Z</time>
      </trkpt>
      <trkpt lat="43.68432" lon="1.46859">
        <ele>192.485982</ele>
        <time>2023-09-17T11:58:32.424Z</time>
      </trkpt>
      <trkpt lat="43.68428" lon="1.46862">
        <ele>192.425371</ele>
        <time>2023-09-17T11:58:32.424Z</time>
      </trkpt>
      <trkpt lat="43.68428" lon="1.46862">
        <ele>192.425371</ele>
        <time>2023-09-17T11:58:32.424Z</time>
      </trkpt>
      <trkpt lat="43.68425" lon="1.46863">
        <ele>192.365897</ele>
        <time>2023-09-17T11:58:33.424Z</time>
      </trkpt>
      <trkpt lat="43.68422" lon="1.46861">
        <ele>192.320567</ele>
        <time>2023-09-17T11:58:34.424Z</time>
      </trkpt>
      <trkpt lat="43.68422" lon="1.46861">
        <ele>192.320567</ele>
        <time>2023-09-17T11:58:34.424Z</time>
      </trkpt>
      <trkpt lat="43.68418" lon="1.46857">
        <ele>192.244056</ele>
        <time>2023-09-17T11:58:36.424Z</time>
      </trkpt>
      <trkpt lat="43.68414" lon="1.46853">
        <ele>192.167678</ele>
        <time>2023-09-17T11:58:36.424Z</time>
      </trkpt>
      <trkpt lat="43.6841" lon="1.46848">
        <ele>192.083147</ele>
        <time>2023-09-17T11:58:37.424Z</time>
      </trkpt>
      <trkpt lat="43.68406" lon="1.46843">
        <ele>192.006044</ele>
        <time>2023-09-17T11:58:39.424Z</time>
      </trkpt>
      <trkpt lat="43.68406" lon="1.46843">
        <ele>192.006044</ele>
        <time>2023-09-17T11:58:39.424Z</time>
      </trkpt>
      <trkpt lat="43.68401" lon="1.46837">
        <ele>191.911159</ele>
        <time>2023-09-17T11:58:39.424Z</time>
      </trkpt>
      <trkpt lat="43.68397" lon="1.46831">
        <ele>191.815858</ele>
        <time>2023-09-17T11:58:40.424Z</time>
      </trkpt>
      <trkpt lat="43.68397" lon="1.46831">
        <ele>191.815858</ele>
        <time>2023-09-17T11:58:40.424Z</time>
      </trkpt>
      <trkpt lat="43.68393" lon="1.46825">
        <ele>191.724532</ele>
        <time>2023-09-17T11:58:42.424Z</time>
      </trkpt>
      <trkpt lat="43.68388" lon="1.46818">
        <ele>191.618472</ele>
        <time>2023-09-17T11:58:42.424Z</time>
      </trkpt>
      <trkpt lat="43.68388" lon="1.46818">
        <ele>191.618472</ele>
        <time>2023-09-17T11:58:42.424Z</time>
      </trkpt>
      <trkpt lat="43.68383" lon="1.46811">
        <ele>191.517432</ele>
        <time>2023-09-17T11:58:43.424Z</time>
      </trkpt>
      <trkpt lat="43.68378" lon="1.46804">
        <ele>191.401173</ele>
        <time>2023-09-17T11:58:45.424Z</time>
      </trkpt>
      <trkpt lat="43.68378" lon="1.46804">
        <ele>191.401173</ele>
        <time>2023-09-17T11:58:45.424Z</time>
      </trkpt>
      <trkpt lat="43.68373" lon="1.46796">
        <ele>191.290413</ele>
        <time>2023-09-17T11:58:46.424Z</time>
      </trkpt>
      <trkpt lat="43.68373" lon="1.46796">
        <ele>191.290413</ele>
        <time>2023-09-17T11:58:46.424Z</time>
      </trkpt>
      <trkpt lat="43.68367" lon="1.46789">
        <ele>191.169135</ele>
        <time>2023-09-17T11:58:46.424Z</time>
      </trkpt>
      <trkpt lat="43.68367" lon="1.46789">
        <ele>191.169135</ele>
        <time>2023-09-17T11:58:46.424Z</time>
      </trkpt>
      <trkpt lat="43.68361" lon="1.4678">
        <ele>191.01352</ele>
        <time>2023-09-17T11:58:48.424Z</time>
      </trkpt>
      <trkpt lat="43.68361" lon="1.4678">
        <ele>191.01352</ele>
        <time>2023-09-17T11:58:48.424Z</time>
      </trkpt>
      <trkpt lat="43.68355" lon="1.46771">
        <ele>190.529955</ele>
        <time>2023-09-17T11:58:49.424Z</time>
      </trkpt>
      <trkpt lat="43.68355" lon="1.46771">
        <ele>190.529955</ele>
        <time>2023-09-17T11:58:49.424Z</time>
      </trkpt>
      <trkpt lat="43.6835" lon="1.46763">
        <ele>190.109005</ele>
        <time>2023-09-17T11:58:50.424Z</time>
      </trkpt>
      <trkpt lat="43.6835" lon="1.46763">
        <ele>190.109005</ele>
        <time>2023-09-17T11:58:50.424Z</time>
      </trkpt>
      <trkpt lat="43.68343" lon="1.46754">
        <ele>189.64283</ele>
        <time>2023-09-17T11:58:50.424Z</time>
      </trkpt>
      <trkpt lat="43.68343" lon="1.46754">
        <ele>189.64283</ele>
        <time>2023-09-17T11:58:50.424Z</time>
      </trkpt>
      <trkpt lat="43.68338" lon="1.46746">
        <ele>189.212168</ele>
        <time>2023-09-17T11:58:52.424Z</time>
      </trkpt>
      <trkpt lat="43.68338" lon="1.46746">
        <ele>189.212168</ele>
        <time>2023-09-17T11:58:52.424Z</time>
      </trkpt>
      <trkpt lat="43.68332" lon="1.46737">
        <ele>188.743226</ele>
        <time>2023-09-17T11:58:53.424Z</time>
      </trkpt>
      <trkpt lat="43.68332" lon="1.46737">
        <ele>188.743226</ele>
        <time>2023-09-17T11:58:53.424Z</time>
      </trkpt>
      <trkpt lat="43.68325" lon="1.46728">
        <ele>188.265898</ele>
        <time>2023-09-17T11:58:54.424Z</time>
      </trkpt>
      <trkpt lat="43.68325" lon="1.46728">
        <ele>188.265898</ele>
        <time>2023-09-17T11:58:54.424Z</time>
      </trkpt>
      <trkpt lat="43.68319" lon="1.46719">
        <ele>187.807932</ele>
        <time>2023-09-17T11:58:54.424Z</time>
      </trkpt>
      <trkpt lat="43.68319" lon="1.46719">
        <ele>187.807932</ele>
        <time>2023-09-17T11:58:54.424Z</time>
      </trkpt>
      <trkpt lat="43.68313" lon="1.46711">
        <ele>187.355364</ele>
        <time>2023-09-17T11:58:56.424Z</time>
      </trkpt>
      <trkpt lat="43.68313" lon="1.46711">
        <ele>187.355364</ele>
        <time>2023-09-17T11:58:56.424Z</time>
      </trkpt>
      <trkpt lat="43.68307" lon="1.46703">
        <ele>186.913394</ele>
        <time>2023-09-17T11:58:57.424Z</time>
      </trkpt>
      <trkpt lat="43.68307" lon="1.46703">
        <ele>186.913394</ele>
        <time>2023-09-17T11:58:57.424Z</time>
      </trkpt>
      <trkpt lat="43.68301" lon="1.46695">
        <ele>186.471424</ele>
        <time>2023-09-17T11:58:58.424Z</time>
      </trkpt>
      <trkpt lat="43.68301" lon="1.46695">
        <ele>186.471424</ele>
        <time>2023-09-17T11:58:58.424Z</time>
      </trkpt>
      <trkpt lat="43.68298" lon="1.4669">
        <ele>186.226619</ele>
        <time>2023-09-17T11:58:59.424Z</time>
      </trkpt>
      <trkpt lat="43.68298" lon="1.4669">
        <ele>186.226619</ele>
        <time>2023-09-17T11:58:59.424Z</time>
      </trkpt>
      <trkpt lat="43.6829" lon="1.46678">
        <ele>185.636259</ele>
        <time>2023-09-17T11:59:00.424Z</time>
      </trkpt>
      <trkpt lat="43.6829" lon="1.46678">
        <ele>185.636259</ele>
        <time>2023-09-17T11:59:00.424Z</time>
      </trkpt>
      <trkpt lat="43.68289" lon="1.46671">
        <ele>185.333088</ele>
        <time>2023-09-17T11:59:01.424Z</time>
      </trkpt>
      <trkpt lat="43.68289" lon="1.46671">
        <ele>185.333088</ele>
        <time>2023-09-17T11:59:01.424Z</time>
      </trkpt>
      <trkpt lat="43.6829" lon="1.46662">
        <ele>185.010983</ele>
        <time>2023-09-17T11:59:02.424Z</time>
      </trkpt>
      <trkpt lat="43.6829" lon="1.46662">
        <ele>185.010983</ele>
        <time>2023-09-17T11:59:02.424Z</time>
      </trkpt>
      <trkpt lat="43.68292" lon="1.46653">
        <ele>184.63992</ele>
        <time>2023-09-17T11:59:03.424Z</time>
      </trkpt>
      <trkpt lat="43.68292" lon="1.46653">
        <ele>184.63992</ele>
        <time>2023-09-17T11:59:03.424Z</time>
      </trkpt>
      <trkpt lat="43.68294" lon="1.46644">
        <ele>184.260856</ele>
        <time>2023-09-17T11:59:03.424Z</time>
      </trkpt>
      <trkpt lat="43.68294" lon="1.46644">
        <ele>184.260856</ele>
        <time>2023-09-17T11:59:03.424Z</time>
      </trkpt>
      <trkpt lat="43.68296" lon="1.46634">
        <ele>183.88359</ele>
        <time>2023-09-17T11:59:05.424Z</time>
      </trkpt>
      <trkpt lat="43.68296" lon="1.46634">
        <ele>183.88359</ele>
        <time>2023-09-17T11:59:05.424Z</time>
      </trkpt>
      <trkpt lat="43.68299" lon="1.46624">
        <ele>183.48134</ele>
        <time>2023-09-17T11:59:06.424Z</time>
      </trkpt>
      <trkpt lat="43.68299" lon="1.46624">
        <ele>183.48134</ele>
        <time>2023-09-17T11:59:06.424Z</time>
      </trkpt>
      <trkpt lat="43.68302" lon="1.46614">
        <ele>183.064828</ele>
        <time>2023-09-17T11:59:07.424Z</time>
      </trkpt>
      <trkpt lat="43.68302" lon="1.46614">
        <ele>183.064828</ele>
        <time>2023-09-17T11:59:07.424Z</time>
      </trkpt>
      <trkpt lat="43.68304" lon="1.46603">
        <ele>182.639292</ele>
        <time>2023-09-17T11:59:08.424Z</time>
      </trkpt>
      <trkpt lat="43.68304" lon="1.46603">
        <ele>182.639292</ele>
        <time>2023-09-17T11:59:08.424Z</time>
      </trkpt>
      <trkpt lat="43.68308" lon="1.46593">
        <ele>182.18715</ele>
        <time>2023-09-17T11:59:09.424Z</time>
      </trkpt>
      <trkpt lat="43.68308" lon="1.46593">
        <ele>182.18715</ele>
        <time>2023-09-17T11:59:09.424Z</time>
      </trkpt>
      <trkpt lat="43.68312" lon="1.46582">
        <ele>181.756704</ele>
        <time>2023-09-17T11:59:10.424Z</time>
      </trkpt>
      <trkpt lat="43.68312" lon="1.46582">
        <ele>181.756704</ele>
        <time>2023-09-17T11:59:10.424Z</time>
      </trkpt>
      <trkpt lat="43.68316" lon="1.46572">
        <ele>181.063683</ele>
        <time>2023-09-17T11:59:10.424Z</time>
      </trkpt>
      <trkpt lat="43.68316" lon="1.46572">
        <ele>181.063683</ele>
        <time>2023-09-17T11:59:10.424Z</time>
      </trkpt>
      <trkpt lat="43.6832" lon="1.46562">
        <ele>180.280221</ele>
        <time>2023-09-17T11:59:12.424Z</time>
      </trkpt>
      <trkpt lat="43.6832" lon="1.46562">
        <ele>180.280221</ele>
        <time>2023-09-17T11:59:12.424Z</time>
      </trkpt>
      <trkpt lat="43.68324" lon="1.46554">
        <ele>179.657987</ele>
        <time>2023-09-17T11:59:13.424Z</time>
      </trkpt>
      <trkpt lat="43.68324" lon="1.46554">
        <ele>179.657987</ele>
        <time>2023-09-17T11:59:13.424Z</time>
      </trkpt>
      <trkpt lat="43.68327" lon="1.46547">
        <ele>179.106174</ele>
        <time>2023-09-17T11:59:14.424Z</time>
      </trkpt>
      <trkpt lat="43.68327" lon="1.46547">
        <ele>179.106174</ele>
        <time>2023-09-17T11:59:14.424Z</time>
      </trkpt>
      <trkpt lat="43.68337" lon="1.46529">
        <ele>177.629373</ele>
        <time>2023-09-17T11:59:15.424Z</time>
      </trkpt>
      <trkpt lat="43.68337" lon="1.46529">
        <ele>177.629373</ele>
        <time>2023-09-17T11:59:15.424Z</time>
      </trkpt>
      <trkpt lat="43.68343" lon="1.46519">
        <ele>176.735568</ele>
        <time>2023-09-17T11:59:16.424Z</time>
      </trkpt>
      <trkpt lat="43.68343" lon="1.46519">
        <ele>176.735568</ele>
        <time>2023-09-17T11:59:16.424Z</time>
      </trkpt>
      <trkpt lat="43.68349" lon="1.46509">
        <ele>175.869859</ele>
        <time>2023-09-17T11:59:17.424Z</time>
      </trkpt>
      <trkpt lat="43.68349" lon="1.46509">
        <ele>175.869859</ele>
        <time>2023-09-17T11:59:17.424Z</time>
      </trkpt>
      <trkpt lat="43.6835" lon="1.46506">
        <ele>175.626413</ele>
        <time>2023-09-17T11:59:18.424Z</time>
      </trkpt>
      <trkpt lat="43.6835" lon="1.46506">
        <ele>175.626413</ele>
        <time>2023-09-17T11:59:18.424Z</time>
      </trkpt>
      <trkpt lat="43.68356" lon="1.46489">
        <ele>174.380944</ele>
        <time>2023-09-17T11:59:19.424Z</time>
      </trkpt>
      <trkpt lat="43.68356" lon="1.46489">
        <ele>174.380944</ele>
        <time>2023-09-17T11:59:19.424Z</time>
      </trkpt>
      <trkpt lat="43.68356" lon="1.46481">
        <ele>173.902649</ele>
        <time>2023-09-17T11:59:20.424Z</time>
      </trkpt>
      <trkpt lat="43.68356" lon="1.46481">
        <ele>173.902649</ele>
        <time>2023-09-17T11:59:20.424Z</time>
      </trkpt>
      <trkpt lat="43.68354" lon="1.46477">
        <ele>173.507672</ele>
        <time>2023-09-17T11:59:21.424Z</time>
      </trkpt>
      <trkpt lat="43.68354" lon="1.46477">
        <ele>173.507672</ele>
        <time>2023-09-17T11:59:21.424Z</time>
      </trkpt>
      <trkpt lat="43.68349" lon="1.46472">
        <ele>172.987588</ele>
        <time>2023-09-17T11:59:22.424Z</time>
      </trkpt>
      <trkpt lat="43.68349" lon="1.46472">
        <ele>172.987588</ele>
        <time>2023-09-17T11:59:22.424Z</time>
      </trkpt>
      <trkpt lat="43.68344" lon="1.46468">
        <ele>172.418981</ele>
        <time>2023-09-17T11:59:23.424Z</time>
      </trkpt>
      <trkpt lat="43.68344" lon="1.46468">
        <ele>172.418981</ele>
        <time>2023-09-17T11:59:23.424Z</time>
      </trkpt>
      <trkpt lat="43.68337" lon="1.46464">
        <ele>171.748043</ele>
        <time>2023-09-17T11:59:24.424Z</time>
      </trkpt>
      <trkpt lat="43.68337" lon="1.46464">
        <ele>171.748043</ele>
        <time>2023-09-17T11:59:24.424Z</time>
      </trkpt>
      <trkpt lat="43.68332" lon="1.4646">
        <ele>171.200047</ele>
        <time>2023-09-17T11:59:25.424Z</time>
      </trkpt>
      <trkpt lat="43.68332" lon="1.4646">
        <ele>171.200047</ele>
        <time>2023-09-17T11:59:25.424Z</time>
      </trkpt>
      <trkpt lat="43.68324" lon="1.46455">
        <ele>170.434315</ele>
        <time>2023-09-17T11:59:26.424Z</time>
      </trkpt>
      <trkpt lat="43.68324" lon="1.46455">
        <ele>170.434315</ele>
        <time>2023-09-17T11:59:26.424Z</time>
      </trkpt>
      <trkpt lat="43.68325" lon="1.46456">
        <ele>170.368341</ele>
        <time>2023-09-17T11:59:27.424Z</time>
      </trkpt>
      <trkpt lat="43.68304" lon="1.46444">
        <ele>168.305141</ele>
        <time>2023-09-17T11:59:28.424Z</time>
      </trkpt>
      <trkpt lat="43.68304" lon="1.46444">
        <ele>168.305141</ele>
        <time>2023-09-17T11:59:28.424Z</time>
      </trkpt>
      <trkpt lat="43.68299" lon="1.46441">
        <ele>167.776554</ele>
        <time>2023-09-17T11:59:29.424Z</time>
      </trkpt>
      <trkpt lat="43.68299" lon="1.46441">
        <ele>167.776554</ele>
        <time>2023-09-17T11:59:29.424Z</time>
      </trkpt>
      <trkpt lat="43.68284" lon="1.46432">
        <ele>166.236158</ele>
        <time>2023-09-17T11:59:30.424Z</time>
      </trkpt>
      <trkpt lat="43.68284" lon="1.46432">
        <ele>166.236158</ele>
        <time>2023-09-17T11:59:30.424Z</time>
      </trkpt>
      <trkpt lat="43.6827" lon="1.46426">
        <ele>164.968293</ele>
        <time>2023-09-17T11:59:31.424Z</time>
      </trkpt>
      <trkpt lat="43.6827" lon="1.46426">
        <ele>164.968293</ele>
        <time>2023-09-17T11:59:31.424Z</time>
      </trkpt>
      <trkpt lat="43.68259" lon="1.46421">
        <ele>164.475516</ele>
        <time>2023-09-17T11:59:32.424Z</time>
      </trkpt>
      <trkpt lat="43.68259" lon="1.46421">
        <ele>164.475516</ele>
        <time>2023-09-17T11:59:32.424Z</time>
      </trkpt>
      <trkpt lat="43.68248" lon="1.46415">
        <ele>164.012562</ele>
        <time>2023-09-17T11:59:33.424Z</time>
      </trkpt>
      <trkpt lat="43.68248" lon="1.46415">
        <ele>164.012562</ele>
        <time>2023-09-17T11:59:33.424Z</time>
      </trkpt>
      <trkpt lat="43.68243" lon="1.46413">
        <ele>163.810146</ele>
        <time>2023-09-17T11:59:34.424Z</time>
      </trkpt>
      <trkpt lat="43.68243" lon="1.46413">
        <ele>163.810146</ele>
        <time>2023-09-17T11:59:34.424Z</time>
      </trkpt>
      <trkpt lat="43.68227" lon="1.46404">
        <ele>163.108769</ele>
        <time>2023-09-17T11:59:35.424Z</time>
      </trkpt>
      <trkpt lat="43.68227" lon="1.46404">
        <ele>163.108769</ele>
        <time>2023-09-17T11:59:35.424Z</time>
      </trkpt>
      <trkpt lat="43.68219" lon="1.46399">
        <ele>162.733896</ele>
        <time>2023-09-17T11:59:36.424Z</time>
      </trkpt>
      <trkpt lat="43.68219" lon="1.46399">
        <ele>162.733896</ele>
        <time>2023-09-17T11:59:36.424Z</time>
      </trkpt>
      <trkpt lat="43.6821" lon="1.46393">
        <ele>162.341743</ele>
        <time>2023-09-17T11:59:37.424Z</time>
      </trkpt>
      <trkpt lat="43.6821" lon="1.46393">
        <ele>162.341743</ele>
        <time>2023-09-17T11:59:37.424Z</time>
      </trkpt>
      <trkpt lat="43.68204" lon="1.46389">
        <ele>162.049503</ele>
        <time>2023-09-17T11:59:38.424Z</time>
      </trkpt>
      <trkpt lat="43.68204" lon="1.46389">
        <ele>162.049503</ele>
        <time>2023-09-17T11:59:38.424Z</time>
      </trkpt>
      <trkpt lat="43.68198" lon="1.46384">
        <ele>161.757615</ele>
        <time>2023-09-17T11:59:39.424Z</time>
      </trkpt>
      <trkpt lat="43.68192" lon="1.46378">
        <ele>161.457735</ele>
        <time>2023-09-17T11:59:40.424Z</time>
      </trkpt>
      <trkpt lat="43.6819" lon="1.46373">
        <ele>161.275524</ele>
        <time>2023-09-17T11:59:41.424Z</time>
      </trkpt>
      <trkpt lat="43.6819" lon="1.46373">
        <ele>161.275524</ele>
        <time>2023-09-17T11:59:41.424Z</time>
      </trkpt>
      <trkpt lat="43.6819" lon="1.46367">
        <ele>161.101594</ele>
        <time>2023-09-17T11:59:41.424Z</time>
      </trkpt>
      <trkpt lat="43.68193" lon="1.46361">
        <ele>160.91952</ele>
        <time>2023-09-17T11:59:43.424Z</time>
      </trkpt>
      <trkpt lat="43.68193" lon="1.46361">
        <ele>160.91952</ele>
        <time>2023-09-17T11:59:43.424Z</time>
      </trkpt>
      <trkpt lat="43.68193" lon="1.4636">
        <ele>160.859318</ele>
        <time>2023-09-17T11:59:44.424Z</time>
      </trkpt>
      <trkpt lat="43.68202" lon="1.46348">
        <ele>160.365244</ele>
        <time>2023-09-17T11:59:45.424Z</time>
      </trkpt>
      <trkpt lat="43.68207" lon="1.4634">
        <ele>160.069071</ele>
        <time>2023-09-17T11:59:46.424Z</time>
      </trkpt>
      <trkpt lat="43.68207" lon="1.4634">
        <ele>160.069071</ele>
        <time>2023-09-17T11:59:46.424Z</time>
      </trkpt>
      <trkpt lat="43.6821" lon="1.46336">
        <ele>159.883368</ele>
        <time>2023-09-17T11:59:47.424Z</time>
      </trkpt>
      <trkpt lat="43.68219" lon="1.46325">
        <ele>159.404107</ele>
        <time>2023-09-17T11:59:47.424Z</time>
      </trkpt>
      <trkpt lat="43.68223" lon="1.46319">
        <ele>159.151706</ele>
        <time>2023-09-17T11:59:49.424Z</time>
      </trkpt>
      <trkpt lat="43.68228" lon="1.46312">
        <ele>158.855534</ele>
        <time>2023-09-17T11:59:50.424Z</time>
      </trkpt>
      <trkpt lat="43.68229" lon="1.4631">
        <ele>158.802948</ele>
        <time>2023-09-17T11:59:51.424Z</time>
      </trkpt>
      <trkpt lat="43.68237" lon="1.46296">
        <ele>158.26255</ele>
        <time>2023-09-17T11:59:52.424Z</time>
      </trkpt>
      <trkpt lat="43.68237" lon="1.46296">
        <ele>158.26255</ele>
        <time>2023-09-17T11:59:52.424Z</time>
      </trkpt>
      <trkpt lat="43.68241" lon="1.46289">
        <ele>157.995205</ele>
        <time>2023-09-17T11:59:53.424Z</time>
      </trkpt>
      <trkpt lat="43.68245" lon="1.4628">
        <ele>157.710798</ele>
        <time>2023-09-17T11:59:54.424Z</time>
      </trkpt>
      <trkpt lat="43.68247" lon="1.46276">
        <ele>157.621041</ele>
        <time>2023-09-17T11:59:55.424Z</time>
      </trkpt>
      <trkpt lat="43.68251" lon="1.46263">
        <ele>157.450861</ele>
        <time>2023-09-17T11:59:56.424Z</time>
      </trkpt>
      <trkpt lat="43.68254" lon="1.46255">
        <ele>157.335103</ele>
        <time>2023-09-17T11:59:57.424Z</time>
      </trkpt>
      <trkpt lat="43.68256" lon="1.46247">
        <ele>157.233867</ele>
        <time>2023-09-17T11:59:58.424Z</time>
      </trkpt>
      <trkpt lat="43.68256" lon="1.46247">
        <ele>157.233867</ele>
        <time>2023-09-17T11:59:58.424Z</time>
      </trkpt>
      <trkpt lat="43.68259" lon="1.46238">
        <ele>157.110387</ele>
        <time>2023-09-17T11:59:59.424Z</time>
      </trkpt>
      <trkpt lat="43.68262" lon="1.4623">
        <ele>157.002503</ele>
        <time>2023-09-17T12:00:00.424Z</time>
      </trkpt>
      <trkpt lat="43.68264" lon="1.46223">
        <ele>156.905319</ele>
        <time>2023-09-17T12:00:01.424Z</time>
      </trkpt>
      <trkpt lat="43.68264" lon="1.46223">
        <ele>156.905319</ele>
        <time>2023-09-17T12:00:01.424Z</time>
      </trkpt>
      <trkpt lat="43.68266" lon="1.4622">
        <ele>156.860455</ele>
        <time>2023-09-17T12:00:02.424Z</time>
      </trkpt>
      <trkpt lat="43.6827" lon="1.46206">
        <ele>156.679003</ele>
        <time>2023-09-17T12:00:03.424Z</time>
      </trkpt>
      <trkpt lat="43.68272" lon="1.46199">
        <ele>156.575563</ele>
        <time>2023-09-17T12:00:04.424Z</time>
      </trkpt>
      <trkpt lat="43.68272" lon="1.46199">
        <ele>156.575563</ele>
        <time>2023-09-17T12:00:04.424Z</time>
      </trkpt>
      <trkpt lat="43.68273" lon="1.46196">
        <ele>156.536084</ele>
        <time>2023-09-17T12:00:05.424Z</time>
      </trkpt>
      <trkpt lat="43.68277" lon="1.46184">
        <ele>156.370371</ele>
        <time>2023-09-17T12:00:06.424Z</time>
      </trkpt>
      <trkpt lat="43.68277" lon="1.46184">
        <ele>156.370371</ele>
        <time>2023-09-17T12:00:06.424Z</time>
      </trkpt>
      <trkpt lat="43.6828" lon="1.46176">
        <ele>156.268149</ele>
        <time>2023-09-17T12:00:07.424Z</time>
      </trkpt>
      <trkpt lat="43.68281" lon="1.46169">
        <ele>156.179859</ele>
        <time>2023-09-17T12:00:08.424Z</time>
      </trkpt>
      <trkpt lat="43.68283" lon="1.46161">
        <ele>156.068832</ele>
        <time>2023-09-17T12:00:09.424Z</time>
      </trkpt>
      <trkpt lat="43.68284" lon="1.46153">
        <ele>155.969338</ele>
        <time>2023-09-17T12:00:10.424Z</time>
      </trkpt>
      <trkpt lat="43.68285" lon="1.46145">
        <ele>155.872069</ele>
        <time>2023-09-17T12:00:11.424Z</time>
      </trkpt>
      <trkpt lat="43.68285" lon="1.46142">
        <ele>155.836263</ele>
        <time>2023-09-17T12:00:12.424Z</time>
      </trkpt>
      <trkpt lat="43.68284" lon="1.46129">
        <ele>155.673143</ele>
        <time>2023-09-17T12:00:13.424Z</time>
      </trkpt>
      <trkpt lat="43.68284" lon="1.46128">
        <ele>155.658327</ele>
        <time>2023-09-17T12:00:14.424Z</time>
      </trkpt>
      <trkpt lat="43.68284" lon="1.46128">
        <ele>155.658327</ele>
        <time>2023-09-17T12:00:14.424Z</time>
      </trkpt>
      <trkpt lat="43.68284" lon="1.46112">
        <ele>155.466579</ele>
        <time>2023-09-17T12:00:15.424Z</time>
      </trkpt>
      <trkpt lat="43.68284" lon="1.46112">
        <ele>155.465344</ele>
        <time>2023-09-17T12:00:16.424Z</time>
      </trkpt>
      <trkpt lat="43.68283" lon="1.46094">
        <ele>155.238985</ele>
        <time>2023-09-17T12:00:17.424Z</time>
      </trkpt>
      <trkpt lat="43.68283" lon="1.46094">
        <ele>155.238985</ele>
        <time>2023-09-17T12:00:17.424Z</time>
      </trkpt>
      <trkpt lat="43.68282" lon="1.46084">
        <ele>155.114764</ele>
        <time>2023-09-17T12:00:18.424Z</time>
      </trkpt>
      <trkpt lat="43.68282" lon="1.46084">
        <ele>155.114764</ele>
        <time>2023-09-17T12:00:18.424Z</time>
      </trkpt>
      <trkpt lat="43.68282" lon="1.46082">
        <ele>155.096244</ele>
        <time>2023-09-17T12:00:19.424Z</time>
      </trkpt>
      <trkpt lat="43.68282" lon="1.46082">
        <ele>155.096244</ele>
        <time>2023-09-17T12:00:19.424Z</time>
      </trkpt>
      <trkpt lat="43.6828" lon="1.46064">
        <ele>154.866397</ele>
        <time>2023-09-17T12:00:20.424Z</time>
      </trkpt>
      <trkpt lat="43.6828" lon="1.46064">
        <ele>154.866397</ele>
        <time>2023-09-17T12:00:20.424Z</time>
      </trkpt>
      <trkpt lat="43.68279" lon="1.46053">
        <ele>154.729402</ele>
        <time>2023-09-17T12:00:21.424Z</time>
      </trkpt>
      <trkpt lat="43.68279" lon="1.46053">
        <ele>154.729402</ele>
        <time>2023-09-17T12:00:21.424Z</time>
      </trkpt>
      <trkpt lat="43.68277" lon="1.46041">
        <ele>154.556483</ele>
        <time>2023-09-17T12:00:22.424Z</time>
      </trkpt>
      <trkpt lat="43.68277" lon="1.46041">
        <ele>154.556483</ele>
        <time>2023-09-17T12:00:22.424Z</time>
      </trkpt>
      <trkpt lat="43.68274" lon="1.4603">
        <ele>154.167536</ele>
        <time>2023-09-17T12:00:23.424Z</time>
      </trkpt>
      <trkpt lat="43.68274" lon="1.4603">
        <ele>154.167536</ele>
        <time>2023-09-17T12:00:23.424Z</time>
      </trkpt>
      <trkpt lat="43.68272" lon="1.4602">
        <ele>153.797422</ele>
        <time>2023-09-17T12:00:24.424Z</time>
      </trkpt>
      <trkpt lat="43.68272" lon="1.4602">
        <ele>153.797422</ele>
        <time>2023-09-17T12:00:24.424Z</time>
      </trkpt>
      <trkpt lat="43.68269" lon="1.46006">
        <ele>153.318838</ele>
        <time>2023-09-17T12:00:25.424Z</time>
      </trkpt>
      <trkpt lat="43.68269" lon="1.46006">
        <ele>153.318838</ele>
        <time>2023-09-17T12:00:25.424Z</time>
      </trkpt>
      <trkpt lat="43.68266" lon="1.45993">
        <ele>152.89368</ele>
        <time>2023-09-17T12:00:26.424Z</time>
      </trkpt>
      <trkpt lat="43.68266" lon="1.45993">
        <ele>152.89368</ele>
        <time>2023-09-17T12:00:26.424Z</time>
      </trkpt>
      <trkpt lat="43.68267" lon="1.45994">
        <ele>152.868917</ele>
        <time>2023-09-17T12:00:27.424Z</time>
      </trkpt>
      <trkpt lat="43.68266" lon="1.45975">
        <ele>152.245414</ele>
        <time>2023-09-17T12:00:28.424Z</time>
      </trkpt>
      <trkpt lat="43.68266" lon="1.45975">
        <ele>152.245414</ele>
        <time>2023-09-17T12:00:28.424Z</time>
      </trkpt>
      <trkpt lat="43.68266" lon="1.45953">
        <ele>151.521161</ele>
        <time>2023-09-17T12:00:29.424Z</time>
      </trkpt>
      <trkpt lat="43.68266" lon="1.45953">
        <ele>151.521161</ele>
        <time>2023-09-17T12:00:29.424Z</time>
      </trkpt>
      <trkpt lat="43.68266" lon="1.45951">
        <ele>151.441453</ele>
        <time>2023-09-17T12:00:30.424Z</time>
      </trkpt>
      <trkpt lat="43.68266" lon="1.45951">
        <ele>151.441453</ele>
        <time>2023-09-17T12:00:30.424Z</time>
      </trkpt>
      <trkpt lat="43.68268" lon="1.4593">
        <ele>150.729481</ele>
        <time>2023-09-17T12:00:31.424Z</time>
      </trkpt>
      <trkpt lat="43.68268" lon="1.4593">
        <ele>150.729481</ele>
        <time>2023-09-17T12:00:31.424Z</time>
      </trkpt>
      <trkpt lat="43.68269" lon="1.4592">
        <ele>150.395336</ele>
        <time>2023-09-17T12:00:32.424Z</time>
      </trkpt>
      <trkpt lat="43.68269" lon="1.4592">
        <ele>150.395336</ele>
        <time>2023-09-17T12:00:32.424Z</time>
      </trkpt>
      <trkpt lat="43.68269" lon="1.45913">
        <ele>150.176138</ele>
        <time>2023-09-17T12:00:33.424Z</time>
      </trkpt>
      <trkpt lat="43.68269" lon="1.45913">
        <ele>150.176138</ele>
        <time>2023-09-17T12:00:33.424Z</time>
      </trkpt>
      <trkpt lat="43.68269" lon="1.45908">
        <ele>150.0134</ele>
        <time>2023-09-17T12:00:34.424Z</time>
      </trkpt>
      <trkpt lat="43.68269" lon="1.45908">
        <ele>150.0134</ele>
        <time>2023-09-17T12:00:34.424Z</time>
      </trkpt>
      <trkpt lat="43.68269" lon="1.45908">
        <ele>150.0134</ele>
        <time>2023-09-17T12:00:35.424Z</time>
      </trkpt>
      <trkpt lat="43.68268" lon="1.459">
        <ele>149.738796</ele>
        <time>2023-09-17T12:00:36.424Z</time>
      </trkpt>
      <trkpt lat="43.68268" lon="1.459">
        <ele>149.738796</ele>
        <time>2023-09-17T12:00:36.424Z</time>
      </trkpt>
      <trkpt lat="43.68267" lon="1.45898">
        <ele>149.658971</ele>
        <time>2023-09-17T12:00:37.424Z</time>
      </trkpt>
      <trkpt lat="43.68267" lon="1.45898">
        <ele>149.658971</ele>
        <time>2023-09-17T12:00:37.424Z</time>
      </trkpt>
      <trkpt lat="43.68267" lon="1.45895">
        <ele>149.561676</ele>
        <time>2023-09-17T12:00:38.424Z</time>
      </trkpt>
      <trkpt lat="43.68267" lon="1.45895">
        <ele>149.561676</ele>
        <time>2023-09-17T12:00:38.424Z</time>
      </trkpt>
      <trkpt lat="43.68268" lon="1.45892">
        <ele>149.446082</ele>
        <time>2023-09-17T12:00:39.424Z</time>
      </trkpt>
      <trkpt lat="43.68268" lon="1.45892">
        <ele>149.446082</ele>
        <time>2023-09-17T12:00:39.424Z</time>
      </trkpt>
      <trkpt lat="43.68269" lon="1.45887">
        <ele>149.288952</ele>
        <time>2023-09-17T12:00:40.424Z</time>
      </trkpt>
      <trkpt lat="43.68269" lon="1.45884">
        <ele>149.175194</ele>
        <time>2023-09-17T12:00:41.424Z</time>
      </trkpt>
      <trkpt lat="43.68269" lon="1.45884">
        <ele>149.175194</ele>
        <time>2023-09-17T12:00:41.424Z</time>
      </trkpt>
      <trkpt lat="43.6827" lon="1.45879">
        <ele>149.001875</ele>
        <time>2023-09-17T12:00:42.424Z</time>
      </trkpt>
      <trkpt lat="43.6827" lon="1.45879">
        <ele>149.001875</ele>
        <time>2023-09-17T12:00:42.424Z</time>
      </trkpt>
      <trkpt lat="43.68271" lon="1.45873">
        <ele>148.80251</ele>
        <time>2023-09-17T12:00:43.424Z</time>
      </trkpt>
      <trkpt lat="43.68271" lon="1.45873">
        <ele>148.80251</ele>
        <time>2023-09-17T12:00:43.424Z</time>
      </trkpt>
      <trkpt lat="43.68271" lon="1.45869">
        <ele>148.658522</ele>
        <time>2023-09-17T12:00:44.424Z</time>
      </trkpt>
      <trkpt lat="43.68271" lon="1.45869">
        <ele>148.658522</ele>
        <time>2023-09-17T12:00:44.424Z</time>
      </trkpt>
      <trkpt lat="43.68272" lon="1.45859">
        <ele>148.336073</ele>
        <time>2023-09-17T12:00:45.424Z</time>
      </trkpt>
      <trkpt lat="43.68272" lon="1.45859">
        <ele>148.336073</ele>
        <time>2023-09-17T12:00:45.424Z</time>
      </trkpt>
      <trkpt lat="43.68272" lon="1.4585">
        <ele>148.033287</ele>
        <time>2023-09-17T12:00:46.424Z</time>
      </trkpt>
      <trkpt lat="43.68272" lon="1.4585">
        <ele>148.033287</ele>
        <time>2023-09-17T12:00:46.424Z</time>
      </trkpt>
      <trkpt lat="43.68273" lon="1.45841">
        <ele>147.742017</ele>
        <time>2023-09-17T12:00:47.424Z</time>
      </trkpt>
      <trkpt lat="43.68273" lon="1.45841">
        <ele>147.742017</ele>
        <time>2023-09-17T12:00:47.424Z</time>
      </trkpt>
      <trkpt lat="43.68273" lon="1.45833">
        <ele>147.465747</ele>
        <time>2023-09-17T12:00:48.424Z</time>
      </trkpt>
      <trkpt lat="43.68273" lon="1.45833">
        <ele>147.465747</ele>
        <time>2023-09-17T12:00:48.424Z</time>
      </trkpt>
      <trkpt lat="43.68274" lon="1.45824">
        <ele>147.173158</ele>
        <time>2023-09-17T12:00:49.424Z</time>
      </trkpt>
      <trkpt lat="43.68274" lon="1.45824">
        <ele>147.173158</ele>
        <time>2023-09-17T12:00:49.424Z</time>
      </trkpt>
      <trkpt lat="43.68274" lon="1.45815">
        <ele>146.867057</ele>
        <time>2023-09-17T12:00:50.424Z</time>
      </trkpt>
      <trkpt lat="43.68274" lon="1.45815">
        <ele>146.867057</ele>
        <time>2023-09-17T12:00:50.424Z</time>
      </trkpt>
      <trkpt lat="43.68275" lon="1.45805">
        <ele>146.552711</ele>
        <time>2023-09-17T12:00:51.424Z</time>
      </trkpt>
      <trkpt lat="43.68275" lon="1.45805">
        <ele>146.552711</ele>
        <time>2023-09-17T12:00:51.424Z</time>
      </trkpt>
      <trkpt lat="43.68275" lon="1.45795">
        <ele>146.271925</ele>
        <time>2023-09-17T12:00:51.424Z</time>
      </trkpt>
      <trkpt lat="43.68275" lon="1.45795">
        <ele>146.271925</ele>
        <time>2023-09-17T12:00:51.424Z</time>
      </trkpt>
      <trkpt lat="43.68275" lon="1.45785">
        <ele>146.078045</ele>
        <time>2023-09-17T12:00:53.424Z</time>
      </trkpt>
      <trkpt lat="43.68275" lon="1.45785">
        <ele>146.078045</ele>
        <time>2023-09-17T12:00:53.424Z</time>
      </trkpt>
      <trkpt lat="43.68276" lon="1.45775">
        <ele>145.889678</ele>
        <time>2023-09-17T12:00:53.424Z</time>
      </trkpt>
      <trkpt lat="43.68276" lon="1.45775">
        <ele>145.889678</ele>
        <time>2023-09-17T12:00:53.424Z</time>
      </trkpt>
      <trkpt lat="43.68277" lon="1.45765">
        <ele>145.70045</ele>
        <time>2023-09-17T12:00:55.424Z</time>
      </trkpt>
      <trkpt lat="43.68277" lon="1.45755">
        <ele>145.517717</ele>
        <time>2023-09-17T12:00:55.424Z</time>
      </trkpt>
      <trkpt lat="43.68277" lon="1.45755">
        <ele>145.517717</ele>
        <time>2023-09-17T12:00:55.424Z</time>
      </trkpt>
      <trkpt lat="43.68278" lon="1.45748">
        <ele>145.369889</ele>
        <time>2023-09-17T12:00:57.424Z</time>
      </trkpt>
      <trkpt lat="43.68278" lon="1.45748">
        <ele>145.369889</ele>
        <time>2023-09-17T12:00:57.424Z</time>
      </trkpt>
      <trkpt lat="43.68278" lon="1.45739">
        <ele>145.217189</ele>
        <time>2023-09-17T12:00:57.424Z</time>
      </trkpt>
      <trkpt lat="43.68279" lon="1.45731">
        <ele>145.05323</ele>
        <time>2023-09-17T12:00:59.424Z</time>
      </trkpt>
      <trkpt lat="43.68279" lon="1.45731">
        <ele>145.05323</ele>
        <time>2023-09-17T12:00:59.424Z</time>
      </trkpt>
      <trkpt lat="43.68279" lon="1.45722">
        <ele>144.896777</ele>
        <time>2023-09-17T12:00:59.424Z</time>
      </trkpt>
      <trkpt lat="43.68279" lon="1.45722">
        <ele>144.896777</ele>
        <time>2023-09-17T12:00:59.424Z</time>
      </trkpt>
      <trkpt lat="43.6828" lon="1.45712">
        <ele>144.698456</ele>
        <time>2023-09-17T12:01:01.424Z</time>
      </trkpt>
      <trkpt lat="43.6828" lon="1.45712">
        <ele>144.698456</ele>
        <time>2023-09-17T12:01:01.424Z</time>
      </trkpt>
      <trkpt lat="43.6828" lon="1.457">
        <ele>144.476278</ele>
        <time>2023-09-17T12:01:01.424Z</time>
      </trkpt>
      <trkpt lat="43.6828" lon="1.457">
        <ele>144.476278</ele>
        <time>2023-09-17T12:01:01.424Z</time>
      </trkpt>
      <trkpt lat="43.6828" lon="1.45689">
        <ele>144.265372</ele>
        <time>2023-09-17T12:01:03.424Z</time>
      </trkpt>
      <trkpt lat="43.6828" lon="1.45689">
        <ele>144.265372</ele>
        <time>2023-09-17T12:01:03.424Z</time>
      </trkpt>
      <trkpt lat="43.68281" lon="1.45681">
        <ele>144.110796</ele>
        <time>2023-09-17T12:01:04.424Z</time>
      </trkpt>
      <trkpt lat="43.68281" lon="1.45681">
        <ele>144.110796</ele>
        <time>2023-09-17T12:01:04.424Z</time>
      </trkpt>
      <trkpt lat="43.6828" lon="1.4567">
        <ele>143.91116</ele>
        <time>2023-09-17T12:01:05.424Z</time>
      </trkpt>
      <trkpt lat="43.6828" lon="1.4567">
        <ele>143.91116</ele>
        <time>2023-09-17T12:01:05.424Z</time>
      </trkpt>
      <trkpt lat="43.6828" lon="1.45662">
        <ele>143.761127</ele>
        <time>2023-09-17T12:01:06.424Z</time>
      </trkpt>
      <trkpt lat="43.6828" lon="1.45662">
        <ele>143.761127</ele>
        <time>2023-09-17T12:01:06.424Z</time>
      </trkpt>
      <trkpt lat="43.68279" lon="1.45653">
        <ele>143.583397</ele>
        <time>2023-09-17T12:01:07.424Z</time>
      </trkpt>
      <trkpt lat="43.68277" lon="1.45644">
        <ele>143.409688</ele>
        <time>2023-09-17T12:01:08.424Z</time>
      </trkpt>
      <trkpt lat="43.68277" lon="1.45644">
        <ele>143.409688</ele>
        <time>2023-09-17T12:01:08.424Z</time>
      </trkpt>
      <trkpt lat="43.68276" lon="1.45634">
        <ele>143.215223</ele>
        <time>2023-09-17T12:01:09.424Z</time>
      </trkpt>
      <trkpt lat="43.68276" lon="1.45634">
        <ele>143.215223</ele>
        <time>2023-09-17T12:01:09.424Z</time>
      </trkpt>
      <trkpt lat="43.68274" lon="1.45622">
        <ele>142.986018</ele>
        <time>2023-09-17T12:01:10.424Z</time>
      </trkpt>
      <trkpt lat="43.68274" lon="1.45622">
        <ele>142.986018</ele>
        <time>2023-09-17T12:01:10.424Z</time>
      </trkpt>
      <trkpt lat="43.68272" lon="1.45611">
        <ele>142.775139</ele>
        <time>2023-09-17T12:01:11.424Z</time>
      </trkpt>
      <trkpt lat="43.68272" lon="1.45611">
        <ele>142.775139</ele>
        <time>2023-09-17T12:01:11.424Z</time>
      </trkpt>
      <trkpt lat="43.6827" lon="1.45602">
        <ele>142.604211</ele>
        <time>2023-09-17T12:01:12.424Z</time>
      </trkpt>
      <trkpt lat="43.6827" lon="1.45602">
        <ele>142.604211</ele>
        <time>2023-09-17T12:01:12.424Z</time>
      </trkpt>
      <trkpt lat="43.68268" lon="1.45593">
        <ele>142.41757</ele>
        <time>2023-09-17T12:01:13.424Z</time>
      </trkpt>
      <trkpt lat="43.68266" lon="1.45584">
        <ele>142.241233</ele>
        <time>2023-09-17T12:01:14.424Z</time>
      </trkpt>
      <trkpt lat="43.68266" lon="1.45584">
        <ele>142.241233</ele>
        <time>2023-09-17T12:01:14.424Z</time>
      </trkpt>
      <trkpt lat="43.68264" lon="1.45575">
        <ele>142.072104</ele>
        <time>2023-09-17T12:01:15.424Z</time>
      </trkpt>
      <trkpt lat="43.68264" lon="1.45575">
        <ele>142.072104</ele>
        <time>2023-09-17T12:01:15.424Z</time>
      </trkpt>
      <trkpt lat="43.68262" lon="1.45566">
        <ele>141.899374</ele>
        <time>2023-09-17T12:01:16.424Z</time>
      </trkpt>
      <trkpt lat="43.68262" lon="1.45566">
        <ele>141.899374</ele>
        <time>2023-09-17T12:01:16.424Z</time>
      </trkpt>
      <trkpt lat="43.6826" lon="1.45558">
        <ele>141.726919</ele>
        <time>2023-09-17T12:01:17.424Z</time>
      </trkpt>
      <trkpt lat="43.68258" lon="1.45549">
        <ele>141.614039</ele>
        <time>2023-09-17T12:01:18.424Z</time>
      </trkpt>
      <trkpt lat="43.68258" lon="1.45549">
        <ele>141.614039</ele>
        <time>2023-09-17T12:01:18.424Z</time>
      </trkpt>
      <trkpt lat="43.68256" lon="1.45541">
        <ele>141.544137</ele>
        <time>2023-09-17T12:01:19.424Z</time>
      </trkpt>
      <trkpt lat="43.68256" lon="1.45541">
        <ele>141.544137</ele>
        <time>2023-09-17T12:01:19.424Z</time>
      </trkpt>
      <trkpt lat="43.68254" lon="1.45532">
        <ele>141.468098</ele>
        <time>2023-09-17T12:01:20.424Z</time>
      </trkpt>
      <trkpt lat="43.68252" lon="1.45523">
        <ele>141.393495</ele>
        <time>2023-09-17T12:01:21.424Z</time>
      </trkpt>
      <trkpt lat="43.68252" lon="1.45523">
        <ele>141.393495</ele>
        <time>2023-09-17T12:01:21.424Z</time>
      </trkpt>
      <trkpt lat="43.6825" lon="1.45515">
        <ele>141.315912</ele>
        <time>2023-09-17T12:01:22.424Z</time>
      </trkpt>
      <trkpt lat="43.68247" lon="1.45506">
        <ele>141.241412</ele>
        <time>2023-09-17T12:01:23.424Z</time>
      </trkpt>
      <trkpt lat="43.68247" lon="1.45506">
        <ele>141.241412</ele>
        <time>2023-09-17T12:01:23.424Z</time>
      </trkpt>
      <trkpt lat="43.68245" lon="1.45498">
        <ele>141.169415</ele>
        <time>2023-09-17T12:01:24.424Z</time>
      </trkpt>
      <trkpt lat="43.68242" lon="1.45489">
        <ele>141.089508</ele>
        <time>2023-09-17T12:01:25.424Z</time>
      </trkpt>
      <trkpt lat="43.68242" lon="1.45489">
        <ele>141.089508</ele>
        <time>2023-09-17T12:01:25.424Z</time>
      </trkpt>
      <trkpt lat="43.6824" lon="1.4548">
        <ele>141.014049</ele>
        <time>2023-09-17T12:01:26.424Z</time>
      </trkpt>
      <trkpt lat="43.68237" lon="1.45473">
        <ele>140.944141</ele>
        <time>2023-09-17T12:01:27.424Z</time>
      </trkpt>
      <trkpt lat="43.68237" lon="1.45473">
        <ele>140.944141</ele>
        <time>2023-09-17T12:01:27.424Z</time>
      </trkpt>
      <trkpt lat="43.68235" lon="1.45463">
        <ele>140.863398</ele>
        <time>2023-09-17T12:01:28.424Z</time>
      </trkpt>
      <trkpt lat="43.68235" lon="1.45463">
        <ele>140.863398</ele>
        <time>2023-09-17T12:01:28.424Z</time>
      </trkpt>
      <trkpt lat="43.68232" lon="1.45456">
        <ele>140.793639</ele>
        <time>2023-09-17T12:01:29.424Z</time>
      </trkpt>
      <trkpt lat="43.6823" lon="1.45448">
        <ele>140.726766</ele>
        <time>2023-09-17T12:01:30.424Z</time>
      </trkpt>
      <trkpt lat="43.68227" lon="1.45442">
        <ele>140.665232</ele>
        <time>2023-09-17T12:01:31.424Z</time>
      </trkpt>
      <trkpt lat="43.68227" lon="1.45442">
        <ele>140.665232</ele>
        <time>2023-09-17T12:01:31.424Z</time>
      </trkpt>
      <trkpt lat="43.68225" lon="1.45436">
        <ele>140.612215</ele>
        <time>2023-09-17T12:01:32.424Z</time>
      </trkpt>
      <trkpt lat="43.68225" lon="1.45436">
        <ele>140.612215</ele>
        <time>2023-09-17T12:01:32.424Z</time>
      </trkpt>
      <trkpt lat="43.68223" lon="1.45428">
        <ele>140.540017</ele>
        <time>2023-09-17T12:01:33.424Z</time>
      </trkpt>
      <trkpt lat="43.68221" lon="1.45419">
        <ele>140.466285</ele>
        <time>2023-09-17T12:01:34.424Z</time>
      </trkpt>
      <trkpt lat="43.68219" lon="1.45411">
        <ele>140.397942</ele>
        <time>2023-09-17T12:01:35.424Z</time>
      </trkpt>
      <trkpt lat="43.68216" lon="1.45403">
        <ele>140.324211</ele>
        <time>2023-09-17T12:01:36.424Z</time>
      </trkpt>
      <trkpt lat="43.68214" lon="1.45394">
        <ele>140.251178</ele>
        <time>2023-09-17T12:01:37.424Z</time>
      </trkpt>
      <trkpt lat="43.68213" lon="1.45386">
        <ele>140.175789</ele>
        <time>2023-09-17T12:01:38.424Z</time>
      </trkpt>
      <trkpt lat="43.68213" lon="1.45386">
        <ele>140.175789</ele>
        <time>2023-09-17T12:01:38.424Z</time>
      </trkpt>
      <trkpt lat="43.6821" lon="1.45377">
        <ele>140.102824</ele>
        <time>2023-09-17T12:01:39.424Z</time>
      </trkpt>
      <trkpt lat="43.6821" lon="1.45377">
        <ele>140.102824</ele>
        <time>2023-09-17T12:01:39.424Z</time>
      </trkpt>
      <trkpt lat="43.68208" lon="1.45369">
        <ele>140.031391</ele>
        <time>2023-09-17T12:01:40.424Z</time>
      </trkpt>
      <trkpt lat="43.68205" lon="1.4536">
        <ele>139.950307</ele>
        <time>2023-09-17T12:01:41.424Z</time>
      </trkpt>
      <trkpt lat="43.68203" lon="1.45352">
        <ele>139.874097</ele>
        <time>2023-09-17T12:01:42.424Z</time>
      </trkpt>
      <trkpt lat="43.682" lon="1.45343">
        <ele>139.799597</ele>
        <time>2023-09-17T12:01:43.424Z</time>
      </trkpt>
      <trkpt lat="43.682" lon="1.45343">
        <ele>139.799597</ele>
        <time>2023-09-17T12:01:43.424Z</time>
      </trkpt>
      <trkpt lat="43.68198" lon="1.45334">
        <ele>139.719689</ele>
        <time>2023-09-17T12:01:44.424Z</time>
      </trkpt>
      <trkpt lat="43.68195" lon="1.45324">
        <ele>139.634368</ele>
        <time>2023-09-17T12:01:45.424Z</time>
      </trkpt>
      <trkpt lat="43.68193" lon="1.45314">
        <ele>139.587386</ele>
        <time>2023-09-17T12:01:46.424Z</time>
      </trkpt>
      <trkpt lat="43.6819" lon="1.45303">
        <ele>139.540083</ele>
        <time>2023-09-17T12:01:47.424Z</time>
      </trkpt>
      <trkpt lat="43.68187" lon="1.45292">
        <ele>139.494967</ele>
        <time>2023-09-17T12:01:48.424Z</time>
      </trkpt>
      <trkpt lat="43.68185" lon="1.45283">
        <ele>139.455517</ele>
        <time>2023-09-17T12:01:49.424Z</time>
      </trkpt>
      <trkpt lat="43.68182" lon="1.45274">
        <ele>139.421358</ele>
        <time>2023-09-17T12:01:50.424Z</time>
      </trkpt>
      <trkpt lat="43.68182" lon="1.45274">
        <ele>139.421358</ele>
        <time>2023-09-17T12:01:50.424Z</time>
      </trkpt>
      <trkpt lat="43.6818" lon="1.45265">
        <ele>139.382448</ele>
        <time>2023-09-17T12:01:51.424Z</time>
      </trkpt>
      <trkpt lat="43.6818" lon="1.45265">
        <ele>139.382448</ele>
        <time>2023-09-17T12:01:51.424Z</time>
      </trkpt>
      <trkpt lat="43.68178" lon="1.45257">
        <ele>139.350113</ele>
        <time>2023-09-17T12:01:52.424Z</time>
      </trkpt>
      <trkpt lat="43.68176" lon="1.45248">
        <ele>139.313406</ele>
        <time>2023-09-17T12:01:53.424Z</time>
      </trkpt>
      <trkpt lat="43.68174" lon="1.45238">
        <ele>139.273021</ele>
        <time>2023-09-17T12:01:54.424Z</time>
      </trkpt>
      <trkpt lat="43.68171" lon="1.45229">
        <ele>139.236313</ele>
        <time>2023-09-17T12:01:55.424Z</time>
      </trkpt>
      <trkpt lat="43.68169" lon="1.4522">
        <ele>139.198874</ele>
        <time>2023-09-17T12:01:56.424Z</time>
      </trkpt>
      <trkpt lat="43.68167" lon="1.45213">
        <ele>139.169012</ele>
        <time>2023-09-17T12:01:57.424Z</time>
      </trkpt>
      <trkpt lat="43.68167" lon="1.45213">
        <ele>139.169012</ele>
        <time>2023-09-17T12:01:57.424Z</time>
      </trkpt>
      <trkpt lat="43.68164" lon="1.45207">
        <ele>139.142509</ele>
        <time>2023-09-17T12:01:58.424Z</time>
      </trkpt>
      <trkpt lat="43.68161" lon="1.45205">
        <ele>139.120793</ele>
        <time>2023-09-17T12:01:59.424Z</time>
      </trkpt>
      <trkpt lat="43.68158" lon="1.45204">
        <ele>139.106808</ele>
        <time>2023-09-17T12:02:00.424Z</time>
      </trkpt>
      <trkpt lat="43.68155" lon="1.45206">
        <ele>139.086319</ele>
        <time>2023-09-17T12:02:01.424Z</time>
      </trkpt>
      <trkpt lat="43.6815" lon="1.45211">
        <ele>139.057301</ele>
        <time>2023-09-17T12:02:02.424Z</time>
      </trkpt>
      <trkpt lat="43.6815" lon="1.45211">
        <ele>139.057301</ele>
        <time>2023-09-17T12:02:02.424Z</time>
      </trkpt>
      <trkpt lat="43.68145" lon="1.45216">
        <ele>139.025052</ele>
        <time>2023-09-17T12:02:03.424Z</time>
      </trkpt>
      <trkpt lat="43.6814" lon="1.45221">
        <ele>138.992362</ele>
        <time>2023-09-17T12:02:04.424Z</time>
      </trkpt>
      <trkpt lat="43.68136" lon="1.45226">
        <ele>138.961178</ele>
        <time>2023-09-17T12:02:05.424Z</time>
      </trkpt>
      <trkpt lat="43.68136" lon="1.45226">
        <ele>138.961178</ele>
        <time>2023-09-17T12:02:05.424Z</time>
      </trkpt>
      <trkpt lat="43.68131" lon="1.45231">
        <ele>138.928473</ele>
        <time>2023-09-17T12:02:06.424Z</time>
      </trkpt>
      <trkpt lat="43.68127" lon="1.45235">
        <ele>138.899698</ele>
        <time>2023-09-17T12:02:07.424Z</time>
      </trkpt>
      <trkpt lat="43.68122" lon="1.4524">
        <ele>138.867009</ele>
        <time>2023-09-17T12:02:08.424Z</time>
      </trkpt>
      <trkpt lat="43.68116" lon="1.45245">
        <ele>138.832551</ele>
        <time>2023-09-17T12:02:09.424Z</time>
      </trkpt>
      <trkpt lat="43.68116" lon="1.45245">
        <ele>138.832551</ele>
        <time>2023-09-17T12:02:09.424Z</time>
      </trkpt>
      <trkpt lat="43.68112" lon="1.45249">
        <ele>138.805596</ele>
        <time>2023-09-17T12:02:10.424Z</time>
      </trkpt>
      <trkpt lat="43.68107" lon="1.45253">
        <ele>138.773767</ele>
        <time>2023-09-17T12:02:11.424Z</time>
      </trkpt>
      <trkpt lat="43.68103" lon="1.45258">
        <ele>138.745701</ele>
        <time>2023-09-17T12:02:12.424Z</time>
      </trkpt>
      <trkpt lat="43.68103" lon="1.45258">
        <ele>138.745701</ele>
        <time>2023-09-17T12:02:12.424Z</time>
      </trkpt>
      <trkpt lat="43.68098" lon="1.45262">
        <ele>138.71474</ele>
        <time>2023-09-17T12:02:13.424Z</time>
      </trkpt>
      <trkpt lat="43.68093" lon="1.45266">
        <ele>138.682911</ele>
        <time>2023-09-17T12:02:14.424Z</time>
      </trkpt>
      <trkpt lat="43.68089" lon="1.4527">
        <ele>138.656166</ele>
        <time>2023-09-17T12:02:15.424Z</time>
      </trkpt>
      <trkpt lat="43.68084" lon="1.45274">
        <ele>138.613444</ele>
        <time>2023-09-17T12:02:16.424Z</time>
      </trkpt>
      <trkpt lat="43.6808" lon="1.45278">
        <ele>138.570422</ele>
        <time>2023-09-17T12:02:17.424Z</time>
      </trkpt>
      <trkpt lat="43.68074" lon="1.45283">
        <ele>138.52009</ele>
        <time>2023-09-17T12:02:18.424Z</time>
      </trkpt>
      <trkpt lat="43.68068" lon="1.45288">
        <ele>138.461637</ele>
        <time>2023-09-17T12:02:19.424Z</time>
      </trkpt>
      <trkpt lat="43.68062" lon="1.45294">
        <ele>138.39988</ele>
        <time>2023-09-17T12:02:20.424Z</time>
      </trkpt>
      <trkpt lat="43.68062" lon="1.45294">
        <ele>138.39988</ele>
        <time>2023-09-17T12:02:20.424Z</time>
      </trkpt>
      <trkpt lat="43.68056" lon="1.45299">
        <ele>138.34327</ele>
        <time>2023-09-17T12:02:21.424Z</time>
      </trkpt>
      <trkpt lat="43.6805" lon="1.45304">
        <ele>138.286659</ele>
        <time>2023-09-17T12:02:22.424Z</time>
      </trkpt>
      <trkpt lat="43.6805" lon="1.45304">
        <ele>138.286659</ele>
        <time>2023-09-17T12:02:22.424Z</time>
      </trkpt>
      <trkpt lat="43.68045" lon="1.45309">
        <ele>138.239379</ele>
        <time>2023-09-17T12:02:23.424Z</time>
      </trkpt>
      <trkpt lat="43.68039" lon="1.45313">
        <ele>138.189046</ele>
        <time>2023-09-17T12:02:24.424Z</time>
      </trkpt>
      <trkpt lat="43.68034" lon="1.45317">
        <ele>138.13999</ele>
        <time>2023-09-17T12:02:25.424Z</time>
      </trkpt>
      <trkpt lat="43.68034" lon="1.45317">
        <ele>138.13999</ele>
        <time>2023-09-17T12:02:25.424Z</time>
      </trkpt>
      <trkpt lat="43.68029" lon="1.45321">
        <ele>138.090809</ele>
        <time>2023-09-17T12:02:25.424Z</time>
      </trkpt>
      <trkpt lat="43.68023" lon="1.45326">
        <ele>138.042043</ele>
        <time>2023-09-17T12:02:27.424Z</time>
      </trkpt>
      <trkpt lat="43.68018" lon="1.4533">
        <ele>137.99384</ele>
        <time>2023-09-17T12:02:28.424Z</time>
      </trkpt>
      <trkpt lat="43.68013" lon="1.45334">
        <ele>137.944379</ele>
        <time>2023-09-17T12:02:29.424Z</time>
      </trkpt>
      <trkpt lat="43.68013" lon="1.45334">
        <ele>137.944379</ele>
        <time>2023-09-17T12:02:29.424Z</time>
      </trkpt>
      <trkpt lat="43.68008" lon="1.45338">
        <ele>137.899809</ele>
        <time>2023-09-17T12:02:30.424Z</time>
      </trkpt>
      <trkpt lat="43.68002" lon="1.45342">
        <ele>137.847541</ele>
        <time>2023-09-17T12:02:31.424Z</time>
      </trkpt>
      <trkpt lat="43.67997" lon="1.45346">
        <ele>137.799338</ele>
        <time>2023-09-17T12:02:32.424Z</time>
      </trkpt>
      <trkpt lat="43.67991" lon="1.45349">
        <ele>137.752936</ele>
        <time>2023-09-17T12:02:33.424Z</time>
      </trkpt>
      <trkpt lat="43.67991" lon="1.45349">
        <ele>137.752936</ele>
        <time>2023-09-17T12:02:33.424Z</time>
      </trkpt>
      <trkpt lat="43.67986" lon="1.45353">
        <ele>137.704824</ele>
        <time>2023-09-17T12:02:34.424Z</time>
      </trkpt>
      <trkpt lat="43.67981" lon="1.45356">
        <ele>137.661563</ele>
        <time>2023-09-17T12:02:35.424Z</time>
      </trkpt>
      <trkpt lat="43.67975" lon="1.45359">
        <ele>137.612707</ele>
        <time>2023-09-17T12:02:36.424Z</time>
      </trkpt>
      <trkpt lat="43.6797" lon="1.4536">
        <ele>137.5694</ele>
        <time>2023-09-17T12:02:37.424Z</time>
      </trkpt>
      <trkpt lat="43.67966" lon="1.45361">
        <ele>137.535747</ele>
        <time>2023-09-17T12:02:38.424Z</time>
      </trkpt>
      <trkpt lat="43.67966" lon="1.45361">
        <ele>137.535747</ele>
        <time>2023-09-17T12:02:38.424Z</time>
      </trkpt>
      <trkpt lat="43.6796" lon="1.45362">
        <ele>137.492873</ele>
        <time>2023-09-17T12:02:38.424Z</time>
      </trkpt>
      <trkpt lat="43.67956" lon="1.45364">
        <ele>137.455006</ele>
        <time>2023-09-17T12:02:40.424Z</time>
      </trkpt>
      <trkpt lat="43.6795" lon="1.45368">
        <ele>137.406101</ele>
        <time>2023-09-17T12:02:41.424Z</time>
      </trkpt>
      <trkpt lat="43.67944" lon="1.45372">
        <ele>137.351176</ele>
        <time>2023-09-17T12:02:42.424Z</time>
      </trkpt>
      <trkpt lat="43.67939" lon="1.45376">
        <ele>137.303515</ele>
        <time>2023-09-17T12:02:42.424Z</time>
      </trkpt>
      <trkpt lat="43.67934" lon="1.4538">
        <ele>137.255312</ele>
        <time>2023-09-17T12:02:44.424Z</time>
      </trkpt>
      <trkpt lat="43.67934" lon="1.4538">
        <ele>137.255312</ele>
        <time>2023-09-17T12:02:44.424Z</time>
      </trkpt>
      <trkpt lat="43.67928" lon="1.45384">
        <ele>137.208435</ele>
        <time>2023-09-17T12:02:44.424Z</time>
      </trkpt>
      <trkpt lat="43.67922" lon="1.45388">
        <ele>137.171712</ele>
        <time>2023-09-17T12:02:46.424Z</time>
      </trkpt>
      <trkpt lat="43.67915" lon="1.45392">
        <ele>137.132347</ele>
        <time>2023-09-17T12:02:46.424Z</time>
      </trkpt>
      <trkpt lat="43.6791" lon="1.45396">
        <ele>137.097028</ele>
        <time>2023-09-17T12:02:48.424Z</time>
      </trkpt>
      <trkpt lat="43.67904" lon="1.45401">
        <ele>137.06113</ele>
        <time>2023-09-17T12:02:48.424Z</time>
      </trkpt>
      <trkpt lat="43.67899" lon="1.45405">
        <ele>137.027902</ele>
        <time>2023-09-17T12:02:50.424Z</time>
      </trkpt>
      <trkpt lat="43.67893" lon="1.4541">
        <ele>136.993607</ele>
        <time>2023-09-17T12:02:51.424Z</time>
      </trkpt>
      <trkpt lat="43.67893" lon="1.4541">
        <ele>136.993607</ele>
        <time>2023-09-17T12:02:51.424Z</time>
      </trkpt>
      <trkpt lat="43.67888" lon="1.45415">
        <ele>136.9571</ele>
        <time>2023-09-17T12:02:52.424Z</time>
      </trkpt>
      <trkpt lat="43.67888" lon="1.45415">
        <ele>136.9571</ele>
        <time>2023-09-17T12:02:52.424Z</time>
      </trkpt>
      <trkpt lat="43.67881" lon="1.4542">
        <ele>136.918325</ele>
        <time>2023-09-17T12:02:53.424Z</time>
      </trkpt>
      <trkpt lat="43.67881" lon="1.4542">
        <ele>136.918325</ele>
        <time>2023-09-17T12:02:53.424Z</time>
      </trkpt>
      <trkpt lat="43.67876" lon="1.45424">
        <ele>136.886706</ele>
        <time>2023-09-17T12:02:54.424Z</time>
      </trkpt>
      <trkpt lat="43.67871" lon="1.45428">
        <ele>136.853281</ele>
        <time>2023-09-17T12:02:55.424Z</time>
      </trkpt>
      <trkpt lat="43.67871" lon="1.45428">
        <ele>136.853281</ele>
        <time>2023-09-17T12:02:55.424Z</time>
      </trkpt>
      <trkpt lat="43.67865" lon="1.45432">
        <ele>136.818512</ele>
        <time>2023-09-17T12:02:56.424Z</time>
      </trkpt>
      <trkpt lat="43.6786" lon="1.45435">
        <ele>136.784397</ele>
        <time>2023-09-17T12:02:57.424Z</time>
      </trkpt>
      <trkpt lat="43.6786" lon="1.45435">
        <ele>136.784397</ele>
        <time>2023-09-17T12:02:57.424Z</time>
      </trkpt>
      <trkpt lat="43.67854" lon="1.45437">
        <ele>136.750763</ele>
        <time>2023-09-17T12:02:58.424Z</time>
      </trkpt>
      <trkpt lat="43.67854" lon="1.45437">
        <ele>136.750763</ele>
        <time>2023-09-17T12:02:58.424Z</time>
      </trkpt>
      <trkpt lat="43.67848" lon="1.45436">
        <ele>136.7196</ele>
        <time>2023-09-17T12:02:59.424Z</time>
      </trkpt>
      <trkpt lat="43.67842" lon="1.45433">
        <ele>136.68397</ele>
        <time>2023-09-17T12:03:00.424Z</time>
      </trkpt>
      <trkpt lat="43.67836" lon="1.45428">
        <ele>136.648838</ele>
        <time>2023-09-17T12:03:01.424Z</time>
      </trkpt>
      <trkpt lat="43.6783" lon="1.45424">
        <ele>136.613136</ele>
        <time>2023-09-17T12:03:02.424Z</time>
      </trkpt>
      <trkpt lat="43.6783" lon="1.45424">
        <ele>136.613136</ele>
        <time>2023-09-17T12:03:02.424Z</time>
      </trkpt>
      <trkpt lat="43.67825" lon="1.45419">
        <ele>136.578218</ele>
        <time>2023-09-17T12:03:03.424Z</time>
      </trkpt>
      <trkpt lat="43.6782" lon="1.45415">
        <ele>136.544793</ele>
        <time>2023-09-17T12:03:04.424Z</time>
      </trkpt>
      <trkpt lat="43.67814" lon="1.45411">
        <ele>136.509661</ele>
        <time>2023-09-17T12:03:05.424Z</time>
      </trkpt>
      <trkpt lat="43.67808" lon="1.45406">
        <ele>136.472053</ele>
        <time>2023-09-17T12:03:06.424Z</time>
      </trkpt>
      <trkpt lat="43.67802" lon="1.45402">
        <ele>136.434446</ele>
        <time>2023-09-17T12:03:07.424Z</time>
      </trkpt>
      <trkpt lat="43.67802" lon="1.45402">
        <ele>136.434446</ele>
        <time>2023-09-17T12:03:07.424Z</time>
      </trkpt>
      <trkpt lat="43.67796" lon="1.45397">
        <ele>136.398833</ele>
        <time>2023-09-17T12:03:08.424Z</time>
      </trkpt>
      <trkpt lat="43.67791" lon="1.45393">
        <ele>136.365799</ele>
        <time>2023-09-17T12:03:09.424Z</time>
      </trkpt>
      <trkpt lat="43.67791" lon="1.45393">
        <ele>136.365799</ele>
        <time>2023-09-17T12:03:09.424Z</time>
      </trkpt>
      <trkpt lat="43.67785" lon="1.45389">
        <ele>136.332956</ele>
        <time>2023-09-17T12:03:10.424Z</time>
      </trkpt>
      <trkpt lat="43.6778" lon="1.45385">
        <ele>136.297159</ele>
        <time>2023-09-17T12:03:11.424Z</time>
      </trkpt>
      <trkpt lat="43.67774" lon="1.45381">
        <ele>136.26184</ele>
        <time>2023-09-17T12:03:12.424Z</time>
      </trkpt>
      <trkpt lat="43.67769" lon="1.45376">
        <ele>136.22867</ele>
        <time>2023-09-17T12:03:13.424Z</time>
      </trkpt>
      <trkpt lat="43.67763" lon="1.45372">
        <ele>136.194131</ele>
        <time>2023-09-17T12:03:14.424Z</time>
      </trkpt>
      <trkpt lat="43.67757" lon="1.45367">
        <ele>136.156214</ele>
        <time>2023-09-17T12:03:15.424Z</time>
      </trkpt>
      <trkpt lat="43.67752" lon="1.45363">
        <ele>136.124893</ele>
        <time>2023-09-17T12:03:16.424Z</time>
      </trkpt>
      <trkpt lat="43.67746" lon="1.45358">
        <ele>136.089192</ele>
        <time>2023-09-17T12:03:17.424Z</time>
      </trkpt>
      <trkpt lat="43.6774" lon="1.45353">
        <ele>136.053433</ele>
        <time>2023-09-17T12:03:18.424Z</time>
      </trkpt>
      <trkpt lat="43.67735" lon="1.45349">
        <ele>136.01852</ele>
        <time>2023-09-17T12:03:19.424Z</time>
      </trkpt>
      <trkpt lat="43.67735" lon="1.45349">
        <ele>136.01852</ele>
        <time>2023-09-17T12:03:19.424Z</time>
      </trkpt>
      <trkpt lat="43.67729" lon="1.45344">
        <ele>135.983606</ele>
        <time>2023-09-17T12:03:20.424Z</time>
      </trkpt>
      <trkpt lat="43.67723" lon="1.4534">
        <ele>135.948693</ele>
        <time>2023-09-17T12:03:21.424Z</time>
      </trkpt>
      <trkpt lat="43.67717" lon="1.45335">
        <ele>135.912096</ele>
        <time>2023-09-17T12:03:22.424Z</time>
      </trkpt>
      <trkpt lat="43.67712" lon="1.45331">
        <ele>135.87951</ele>
        <time>2023-09-17T12:03:23.424Z</time>
      </trkpt>
      <trkpt lat="43.67705" lon="1.45328">
        <ele>135.843565</ele>
        <time>2023-09-17T12:03:24.424Z</time>
      </trkpt>
      <trkpt lat="43.67705" lon="1.45328">
        <ele>135.843565</ele>
        <time>2023-09-17T12:03:24.424Z</time>
      </trkpt>
      <trkpt lat="43.67699" lon="1.45326">
        <ele>135.809933</ele>
        <time>2023-09-17T12:03:25.424Z</time>
      </trkpt>
      <trkpt lat="43.67693" lon="1.45324">
        <ele>135.774672</ele>
        <time>2023-09-17T12:03:26.424Z</time>
      </trkpt>
      <trkpt lat="43.67687" lon="1.45323">
        <ele>135.743213</ele>
        <time>2023-09-17T12:03:27.424Z</time>
      </trkpt>
      <trkpt lat="43.67681" lon="1.45321">
        <ele>135.710322</ele>
        <time>2023-09-17T12:03:28.424Z</time>
      </trkpt>
      <trkpt lat="43.67681" lon="1.45321">
        <ele>135.710322</ele>
        <time>2023-09-17T12:03:28.424Z</time>
      </trkpt>
      <trkpt lat="43.67675" lon="1.4532">
        <ele>135.679653</ele>
        <time>2023-09-17T12:03:29.424Z</time>
      </trkpt>
      <trkpt lat="43.67669" lon="1.45319">
        <ele>135.649091</ele>
        <time>2023-09-17T12:03:30.424Z</time>
      </trkpt>
      <trkpt lat="43.67669" lon="1.45319">
        <ele>135.649091</ele>
        <time>2023-09-17T12:03:30.424Z</time>
      </trkpt>
      <trkpt lat="43.67664" lon="1.45318">
        <ele>135.618653</ele>
        <time>2023-09-17T12:03:31.424Z</time>
      </trkpt>
      <trkpt lat="43.67658" lon="1.45317">
        <ele>135.588178</ele>
        <time>2023-09-17T12:03:32.424Z</time>
      </trkpt>
      <trkpt lat="43.67652" lon="1.45317">
        <ele>135.555619</ele>
        <time>2023-09-17T12:03:33.424Z</time>
      </trkpt>
      <trkpt lat="43.67646" lon="1.45316">
        <ele>135.526855</ele>
        <time>2023-09-17T12:03:34.424Z</time>
      </trkpt>
      <trkpt lat="43.6764" lon="1.45316">
        <ele>135.494371</ele>
        <time>2023-09-17T12:03:35.424Z</time>
      </trkpt>
      <trkpt lat="43.6764" lon="1.45316">
        <ele>135.494371</ele>
        <time>2023-09-17T12:03:35.424Z</time>
      </trkpt>
      <trkpt lat="43.67634" lon="1.45316">
        <ele>135.461915</ele>
        <time>2023-09-17T12:03:36.424Z</time>
      </trkpt>
      <trkpt lat="43.67628" lon="1.45316">
        <ele>135.429448</ele>
        <time>2023-09-17T12:03:37.424Z</time>
      </trkpt>
      <trkpt lat="43.67622" lon="1.45316">
        <ele>135.394839</ele>
        <time>2023-09-17T12:03:38.424Z</time>
      </trkpt>
      <trkpt lat="43.67616" lon="1.45317">
        <ele>135.362281</ele>
        <time>2023-09-17T12:03:39.424Z</time>
      </trkpt>
      <trkpt lat="43.67609" lon="1.45318">
        <ele>135.329559</ele>
        <time>2023-09-17T12:03:40.424Z</time>
      </trkpt>
      <trkpt lat="43.67603" lon="1.4532">
        <ele>135.296534</ele>
        <time>2023-09-17T12:03:41.424Z</time>
      </trkpt>
      <trkpt lat="43.67603" lon="1.4532">
        <ele>135.296534</ele>
        <time>2023-09-17T12:03:41.424Z</time>
      </trkpt>
      <trkpt lat="43.67598" lon="1.45322">
        <ele>135.273213</ele>
        <time>2023-09-17T12:03:42.424Z</time>
      </trkpt>
      <trkpt lat="43.67592" lon="1.45324">
        <ele>135.254111</ele>
        <time>2023-09-17T12:03:43.424Z</time>
      </trkpt>
      <trkpt lat="43.67592" lon="1.45324">
        <ele>135.254111</ele>
        <time>2023-09-17T12:03:43.424Z</time>
      </trkpt>
      <trkpt lat="43.67586" lon="1.45327">
        <ele>135.235935</ele>
        <time>2023-09-17T12:03:44.424Z</time>
      </trkpt>
      <trkpt lat="43.6758" lon="1.4533">
        <ele>135.218353</ele>
        <time>2023-09-17T12:03:45.424Z</time>
      </trkpt>
      <trkpt lat="43.67575" lon="1.45334">
        <ele>135.199416</ele>
        <time>2023-09-17T12:03:46.424Z</time>
      </trkpt>
      <trkpt lat="43.67575" lon="1.45334">
        <ele>135.199416</ele>
        <time>2023-09-17T12:03:46.424Z</time>
      </trkpt>
      <trkpt lat="43.67569" lon="1.45338">
        <ele>135.180838</ele>
        <time>2023-09-17T12:03:47.424Z</time>
      </trkpt>
      <trkpt lat="43.67563" lon="1.45342">
        <ele>135.161344</ele>
        <time>2023-09-17T12:03:48.424Z</time>
      </trkpt>
      <trkpt lat="43.67558" lon="1.45346">
        <ele>135.143063</ele>
        <time>2023-09-17T12:03:49.424Z</time>
      </trkpt>
      <trkpt lat="43.67553" lon="1.4535">
        <ele>135.124782</ele>
        <time>2023-09-17T12:03:50.424Z</time>
      </trkpt>
      <trkpt lat="43.67547" lon="1.45354">
        <ele>135.106449</ele>
        <time>2023-09-17T12:03:51.424Z</time>
      </trkpt>
      <trkpt lat="43.67547" lon="1.45354">
        <ele>135.106449</ele>
        <time>2023-09-17T12:03:51.424Z</time>
      </trkpt>
      <trkpt lat="43.67542" lon="1.45358">
        <ele>135.08722</ele>
        <time>2023-09-17T12:03:52.424Z</time>
      </trkpt>
      <trkpt lat="43.67537" lon="1.45362">
        <ele>135.069824</ele>
        <time>2023-09-17T12:03:53.424Z</time>
      </trkpt>
      <trkpt lat="43.67531" lon="1.45367">
        <ele>135.050073</ele>
        <time>2023-09-17T12:03:54.424Z</time>
      </trkpt>
      <trkpt lat="43.67526" lon="1.45371">
        <ele>135.032349</ele>
        <time>2023-09-17T12:03:55.424Z</time>
      </trkpt>
      <trkpt lat="43.67521" lon="1.45376">
        <ele>135.013253</ele>
        <time>2023-09-17T12:03:56.424Z</time>
      </trkpt>
      <trkpt lat="43.67516" lon="1.45381">
        <ele>134.995649</ele>
        <time>2023-09-17T12:03:57.424Z</time>
      </trkpt>
      <trkpt lat="43.6751" lon="1.45385">
        <ele>134.975851</ele>
        <time>2023-09-17T12:03:58.424Z</time>
      </trkpt>
      <trkpt lat="43.67505" lon="1.45388">
        <ele>134.960145</ele>
        <time>2023-09-17T12:03:59.424Z</time>
      </trkpt>
      <trkpt lat="43.67499" lon="1.45389">
        <ele>134.94289</ele>
        <time>2023-09-17T12:04:00.424Z</time>
      </trkpt>
      <trkpt lat="43.67493" lon="1.45388">
        <ele>134.924532</ele>
        <time>2023-09-17T12:04:01.424Z</time>
      </trkpt>
      <trkpt lat="43.67487" lon="1.45385">
        <ele>134.905297</ele>
        <time>2023-09-17T12:04:02.424Z</time>
      </trkpt>
      <trkpt lat="43.67481" lon="1.45381">
        <ele>134.885704</ele>
        <time>2023-09-17T12:04:03.424Z</time>
      </trkpt>
      <trkpt lat="43.67476" lon="1.45376">
        <ele>134.86638</ele>
        <time>2023-09-17T12:04:04.424Z</time>
      </trkpt>
      <trkpt lat="43.67474" lon="1.45373">
        <ele>134.85735</ele>
        <time>2023-09-17T12:04:05.424Z</time>
      </trkpt>
      <trkpt lat="43.67466" lon="1.45363">
        <ele>134.825351</ele>
        <time>2023-09-17T12:04:06.424Z</time>
      </trkpt>
      <trkpt lat="43.67462" lon="1.45356">
        <ele>134.806406</ele>
        <time>2023-09-17T12:04:07.424Z</time>
      </trkpt>
      <trkpt lat="43.6746" lon="1.45348">
        <ele>134.788273</ele>
        <time>2023-09-17T12:04:08.424Z</time>
      </trkpt>
      <trkpt lat="43.67456" lon="1.45338">
        <ele>134.764126</ele>
        <time>2023-09-17T12:04:09.424Z</time>
      </trkpt>
      <trkpt lat="43.67454" lon="1.4533">
        <ele>134.745176</ele>
        <time>2023-09-17T12:04:10.424Z</time>
      </trkpt>
      <trkpt lat="43.67451" lon="1.4532">
        <ele>134.75331</ele>
        <time>2023-09-17T12:04:11.424Z</time>
      </trkpt>
      <trkpt lat="43.67448" lon="1.4531">
        <ele>134.761473</ele>
        <time>2023-09-17T12:04:12.424Z</time>
      </trkpt>
      <trkpt lat="43.67445" lon="1.45301">
        <ele>134.769047</ele>
        <time>2023-09-17T12:04:13.424Z</time>
      </trkpt>
      <trkpt lat="43.67442" lon="1.45293">
        <ele>134.776444</ele>
        <time>2023-09-17T12:04:14.424Z</time>
      </trkpt>
      <trkpt lat="43.6744" lon="1.45284">
        <ele>134.783328</ele>
        <time>2023-09-17T12:04:15.424Z</time>
      </trkpt>
      <trkpt lat="43.67438" lon="1.45276">
        <ele>134.79035</ele>
        <time>2023-09-17T12:04:16.424Z</time>
      </trkpt>
      <trkpt lat="43.67434" lon="1.4527">
        <ele>134.796124</ele>
        <time>2023-09-17T12:04:17.424Z</time>
      </trkpt>
      <trkpt lat="43.67429" lon="1.45267">
        <ele>134.801436</ele>
        <time>2023-09-17T12:04:18.424Z</time>
      </trkpt>
      <trkpt lat="43.67429" lon="1.45267">
        <ele>134.801436</ele>
        <time>2023-09-17T12:04:18.424Z</time>
      </trkpt>
      <trkpt lat="43.67428" lon="1.4527">
        <ele>134.803568</ele>
        <time>2023-09-17T12:04:19.424Z</time>
      </trkpt>
      <trkpt lat="43.67421" lon="1.45273">
        <ele>134.811378</ele>
        <time>2023-09-17T12:04:20.424Z</time>
      </trkpt>
      <trkpt lat="43.67417" lon="1.45274">
        <ele>134.816019</ele>
        <time>2023-09-17T12:04:20.424Z</time>
      </trkpt>
      <trkpt lat="43.67413" lon="1.45277">
        <ele>134.821331</ele>
        <time>2023-09-17T12:04:22.424Z</time>
      </trkpt>
      <trkpt lat="43.67413" lon="1.45277">
        <ele>134.821331</ele>
        <time>2023-09-17T12:04:22.424Z</time>
      </trkpt>
      <trkpt lat="43.67408" lon="1.45281">
        <ele>134.827258</ele>
        <time>2023-09-17T12:04:23.424Z</time>
      </trkpt>
      <trkpt lat="43.67402" lon="1.45285">
        <ele>134.834548</ele>
        <time>2023-09-17T12:04:23.424Z</time>
      </trkpt>
      <trkpt lat="43.67402" lon="1.45285">
        <ele>134.834548</ele>
        <time>2023-09-17T12:04:23.424Z</time>
      </trkpt>
      <trkpt lat="43.67395" lon="1.45289">
        <ele>134.84236</ele>
        <time>2023-09-17T12:04:25.424Z</time>
      </trkpt>
      <trkpt lat="43.67389" lon="1.45294">
        <ele>134.850171</ele>
        <time>2023-09-17T12:04:26.424Z</time>
      </trkpt>
      <trkpt lat="43.67381" lon="1.45299">
        <ele>134.858791</ele>
        <time>2023-09-17T12:04:27.424Z</time>
      </trkpt>
      <trkpt lat="43.67375" lon="1.45302">
        <ele>134.865744</ele>
        <time>2023-09-17T12:04:28.424Z</time>
      </trkpt>
      <trkpt lat="43.67371" lon="1.45303">
        <ele>134.870248</ele>
        <time>2023-09-17T12:04:29.424Z</time>
      </trkpt>
      <trkpt lat="43.67363" lon="1.45303">
        <ele>134.878809</ele>
        <time>2023-09-17T12:04:30.424Z</time>
      </trkpt>
      <trkpt lat="43.6736" lon="1.45303">
        <ele>134.882561</ele>
        <time>2023-09-17T12:04:31.424Z</time>
      </trkpt>
      <trkpt lat="43.6735" lon="1.453">
        <ele>134.892865</ele>
        <time>2023-09-17T12:04:32.424Z</time>
      </trkpt>
      <trkpt lat="43.67345" lon="1.45299">
        <ele>134.898624</ele>
        <time>2023-09-17T12:04:33.424Z</time>
      </trkpt>
      <trkpt lat="43.67337" lon="1.45297">
        <ele>134.906544</ele>
        <time>2023-09-17T12:04:34.424Z</time>
      </trkpt>
      <trkpt lat="43.67332" lon="1.45296">
        <ele>134.91269</ele>
        <time>2023-09-17T12:04:35.424Z</time>
      </trkpt>
      <trkpt lat="43.67327" lon="1.45296">
        <ele>134.918044</ele>
        <time>2023-09-17T12:04:36.424Z</time>
      </trkpt>
      <trkpt lat="43.67322" lon="1.45296">
        <ele>134.923292</ele>
        <time>2023-09-17T12:04:37.424Z</time>
      </trkpt>
      <trkpt lat="43.67313" lon="1.45298">
        <ele>134.932832</ele>
        <time>2023-09-17T12:04:38.424Z</time>
      </trkpt>
      <trkpt lat="43.67307" lon="1.45301">
        <ele>134.921384</ele>
        <time>2023-09-17T12:04:39.424Z</time>
      </trkpt>
      <trkpt lat="43.67307" lon="1.45301">
        <ele>134.921384</ele>
        <time>2023-09-17T12:04:39.424Z</time>
      </trkpt>
      <trkpt lat="43.67304" lon="1.45303">
        <ele>134.897018</ele>
        <time>2023-09-17T12:04:40.424Z</time>
      </trkpt>
      <trkpt lat="43.67296" lon="1.45308">
        <ele>134.829852</ele>
        <time>2023-09-17T12:04:41.424Z</time>
      </trkpt>
      <trkpt lat="43.6729" lon="1.45311">
        <ele>134.786474</ele>
        <time>2023-09-17T12:04:42.424Z</time>
      </trkpt>
      <trkpt lat="43.67285" lon="1.45314">
        <ele>134.746718</ele>
        <time>2023-09-17T12:04:43.424Z</time>
      </trkpt>
      <trkpt lat="43.67285" lon="1.45314">
        <ele>134.746718</ele>
        <time>2023-09-17T12:04:43.424Z</time>
      </trkpt>
      <trkpt lat="43.67281" lon="1.45316">
        <ele>134.713585</ele>
        <time>2023-09-17T12:04:44.424Z</time>
      </trkpt>
      <trkpt lat="43.67276" lon="1.45317">
        <ele>134.678261</ele>
        <time>2023-09-17T12:04:45.424Z</time>
      </trkpt>
      <trkpt lat="43.67276" lon="1.45317">
        <ele>134.678261</ele>
        <time>2023-09-17T12:04:45.424Z</time>
      </trkpt>
      <trkpt lat="43.67273" lon="1.45318">
        <ele>134.655238</ele>
        <time>2023-09-17T12:04:46.424Z</time>
      </trkpt>
      <trkpt lat="43.67269" lon="1.45318">
        <ele>134.624079</ele>
        <time>2023-09-17T12:04:47.424Z</time>
      </trkpt>
      <trkpt lat="43.67266" lon="1.45319">
        <ele>134.601305</ele>
        <time>2023-09-17T12:04:48.424Z</time>
      </trkpt>
      <trkpt lat="43.67266" lon="1.45319">
        <ele>134.601305</ele>
        <time>2023-09-17T12:04:48.424Z</time>
      </trkpt>
      <trkpt lat="43.67263" lon="1.45321">
        <ele>134.575454</ele>
        <time>2023-09-17T12:04:49.424Z</time>
      </trkpt>
      <trkpt lat="43.67261" lon="1.45324">
        <ele>134.552822</ele>
        <time>2023-09-17T12:04:50.424Z</time>
      </trkpt>
      <trkpt lat="43.67259" lon="1.45328">
        <ele>134.526693</ele>
        <time>2023-09-17T12:04:51.424Z</time>
      </trkpt>
      <trkpt lat="43.67259" lon="1.45328">
        <ele>134.526693</ele>
        <time>2023-09-17T12:04:51.424Z</time>
      </trkpt>
      <trkpt lat="43.67259" lon="1.45329">
        <ele>134.520284</ele>
        <time>2023-09-17T12:04:52.424Z</time>
      </trkpt>
      <trkpt lat="43.67258" lon="1.45331">
        <ele>134.505123</ele>
        <time>2023-09-17T12:04:53.424Z</time>
      </trkpt>
      <trkpt lat="43.67255" lon="1.45336">
        <ele>134.472923</ele>
        <time>2023-09-17T12:04:55.424Z</time>
      </trkpt>
      <trkpt lat="43.67255" lon="1.45336">
        <ele>134.472923</ele>
        <time>2023-09-17T12:04:55.424Z</time>
      </trkpt>
      <trkpt lat="43.67253" lon="1.45338">
        <ele>134.453831</ele>
        <time>2023-09-17T12:04:56.424Z</time>
      </trkpt>
      <trkpt lat="43.67249" lon="1.45344">
        <ele>134.412628</ele>
        <time>2023-09-17T12:04:57.424Z</time>
      </trkpt>
      <trkpt lat="43.67246" lon="1.45348">
        <ele>134.379508</ele>
        <time>2023-09-17T12:04:58.424Z</time>
      </trkpt>
      <trkpt lat="43.67242" lon="1.45351">
        <ele>134.345333</ele>
        <time>2023-09-17T12:04:59.424Z</time>
      </trkpt>
      <trkpt lat="43.67242" lon="1.45351">
        <ele>134.345333</ele>
        <time>2023-09-17T12:04:59.424Z</time>
      </trkpt>
      <trkpt lat="43.67234" lon="1.45358">
        <ele>134.276494</ele>
        <time>2023-09-17T12:05:01.424Z</time>
      </trkpt>
      <trkpt lat="43.6723" lon="1.45361">
        <ele>134.242289</ele>
        <time>2023-09-17T12:05:02.424Z</time>
      </trkpt>
      <trkpt lat="43.6723" lon="1.45361">
        <ele>134.242289</ele>
        <time>2023-09-17T12:05:02.424Z</time>
      </trkpt>
      <trkpt lat="43.67226" lon="1.45364">
        <ele>134.212652</ele>
        <time>2023-09-17T12:05:03.424Z</time>
      </trkpt>
      <trkpt lat="43.67223" lon="1.45367">
        <ele>134.182138</ele>
        <time>2023-09-17T12:05:04.424Z</time>
      </trkpt>
      <trkpt lat="43.67218" lon="1.45372">
        <ele>134.137283</ele>
        <time>2023-09-17T12:05:05.424Z</time>
      </trkpt>
      <trkpt lat="43.67218" lon="1.45372">
        <ele>134.137283</ele>
        <time>2023-09-17T12:05:05.424Z</time>
      </trkpt>
      <trkpt lat="43.67214" lon="1.45374">
        <ele>134.10377</ele>
        <time>2023-09-17T12:05:06.424Z</time>
      </trkpt>
      <trkpt lat="43.6721" lon="1.45376">
        <ele>134.070636</ele>
        <time>2023-09-17T12:05:07.424Z</time>
      </trkpt>
      <trkpt lat="43.6721" lon="1.45376">
        <ele>134.070636</ele>
        <time>2023-09-17T12:05:07.424Z</time>
      </trkpt>
      <trkpt lat="43.67207" lon="1.45378">
        <ele>134.049299</ele>
        <time>2023-09-17T12:05:09.424Z</time>
      </trkpt>
      <trkpt lat="43.67201" lon="1.4538">
        <ele>134.004953</ele>
        <time>2023-09-17T12:05:11.424Z</time>
      </trkpt>
      <trkpt lat="43.67201" lon="1.4538">
        <ele>134.004953</ele>
        <time>2023-09-17T12:05:11.424Z</time>
      </trkpt>
      <trkpt lat="43.67199" lon="1.45382">
        <ele>133.985852</ele>
        <time>2023-09-17T12:05:13.424Z</time>
      </trkpt>
      <trkpt lat="43.67199" lon="1.45382">
        <ele>133.985852</ele>
        <time>2023-09-17T12:05:13.424Z</time>
      </trkpt>
      <trkpt lat="43.67198" lon="1.45382">
        <ele>133.977079</ele>
        <time>2023-09-17T12:05:14.424Z</time>
      </trkpt>
      <trkpt lat="43.67196" lon="1.45383">
        <ele>133.965835</ele>
        <time>2023-09-17T12:05:15.424Z</time>
      </trkpt>
      <trkpt lat="43.67194" lon="1.45382">
        <ele>133.951248</ele>
        <time>2023-09-17T12:05:16.424Z</time>
      </trkpt>
      <trkpt lat="43.67194" lon="1.45382">
        <ele>133.951248</ele>
        <time>2023-09-17T12:05:16.424Z</time>
      </trkpt>
      <trkpt lat="43.67192" lon="1.45379">
        <ele>133.929543</ele>
        <time>2023-09-17T12:05:17.424Z</time>
      </trkpt>
      <trkpt lat="43.67192" lon="1.45379">
        <ele>133.929543</ele>
        <time>2023-09-17T12:05:17.424Z</time>
      </trkpt>
      <trkpt lat="43.67189" lon="1.45375">
        <ele>133.898988</ele>
        <time>2023-09-17T12:05:19.424Z</time>
      </trkpt>
      <trkpt lat="43.67189" lon="1.45375">
        <ele>133.898988</ele>
        <time>2023-09-17T12:05:19.424Z</time>
      </trkpt>
      <trkpt lat="43.67187" lon="1.45371">
        <ele>133.86942</ele>
        <time>2023-09-17T12:05:20.424Z</time>
      </trkpt>
      <trkpt lat="43.67187" lon="1.45371">
        <ele>133.86942</ele>
        <time>2023-09-17T12:05:20.424Z</time>
      </trkpt>
      <trkpt lat="43.67184" lon="1.45365">
        <ele>133.830597</ele>
        <time>2023-09-17T12:05:21.424Z</time>
      </trkpt>
      <trkpt lat="43.67181" lon="1.4536">
        <ele>133.793604</ele>
        <time>2023-09-17T12:05:22.424Z</time>
      </trkpt>
      <trkpt lat="43.67181" lon="1.4536">
        <ele>133.793604</ele>
        <time>2023-09-17T12:05:22.424Z</time>
      </trkpt>
      <trkpt lat="43.67179" lon="1.45355">
        <ele>133.766106</ele>
        <time>2023-09-17T12:05:23.424Z</time>
      </trkpt>
      <trkpt lat="43.67176" lon="1.4535">
        <ele>133.73155</ele>
        <time>2023-09-17T12:05:24.424Z</time>
      </trkpt>
      <trkpt lat="43.67176" lon="1.4535">
        <ele>133.73155</ele>
        <time>2023-09-17T12:05:24.424Z</time>
      </trkpt>
      <trkpt lat="43.67174" lon="1.45344">
        <ele>133.697186</ele>
        <time>2023-09-17T12:05:25.424Z</time>
      </trkpt>
      <trkpt lat="43.6717" lon="1.45338">
        <ele>133.651499</ele>
        <time>2023-09-17T12:05:26.424Z</time>
      </trkpt>
      <trkpt lat="43.6717" lon="1.45338">
        <ele>133.651499</ele>
        <time>2023-09-17T12:05:26.424Z</time>
      </trkpt>
      <trkpt lat="43.67167" lon="1.45331">
        <ele>133.610612</ele>
        <time>2023-09-17T12:05:27.424Z</time>
      </trkpt>
      <trkpt lat="43.67164" lon="1.45326">
        <ele>133.577093</ele>
        <time>2023-09-17T12:05:28.424Z</time>
      </trkpt>
      <trkpt lat="43.67164" lon="1.45326">
        <ele>133.577093</ele>
        <time>2023-09-17T12:05:28.424Z</time>
      </trkpt>
      <trkpt lat="43.67161" lon="1.45314">
        <ele>133.515581</ele>
        <time>2023-09-17T12:05:30.424Z</time>
      </trkpt>
      <trkpt lat="43.67159" lon="1.4531">
        <ele>133.491452</ele>
        <time>2023-09-17T12:05:31.424Z</time>
      </trkpt>
      <trkpt lat="43.67156" lon="1.45302">
        <ele>133.446387</ele>
        <time>2023-09-17T12:05:32.424Z</time>
      </trkpt>
      <trkpt lat="43.67156" lon="1.45302">
        <ele>133.446387</ele>
        <time>2023-09-17T12:05:32.424Z</time>
      </trkpt>
      <trkpt lat="43.67154" lon="1.45299">
        <ele>133.424381</ele>
        <time>2023-09-17T12:05:34.424Z</time>
      </trkpt>
      <trkpt lat="43.67151" lon="1.45296">
        <ele>133.401404</ele>
        <time>2023-09-17T12:05:35.424Z</time>
      </trkpt>
      <trkpt lat="43.67149" lon="1.45291">
        <ele>133.373091</ele>
        <time>2023-09-17T12:05:36.424Z</time>
      </trkpt>
      <trkpt lat="43.67147" lon="1.45285">
        <ele>133.34281</ele>
        <time>2023-09-17T12:05:37.424Z</time>
      </trkpt>
      <trkpt lat="43.67144" lon="1.4528">
        <ele>133.30688</ele>
        <time>2023-09-17T12:05:38.424Z</time>
      </trkpt>
      <trkpt lat="43.6714" lon="1.45272">
        <ele>133.257364</ele>
        <time>2023-09-17T12:05:40.424Z</time>
      </trkpt>
      <trkpt lat="43.67137" lon="1.45265">
        <ele>133.219572</ele>
        <time>2023-09-17T12:05:41.424Z</time>
      </trkpt>
      <trkpt lat="43.67134" lon="1.45259">
        <ele>133.182223</ele>
        <time>2023-09-17T12:05:42.424Z</time>
      </trkpt>
      <trkpt lat="43.67134" lon="1.45259">
        <ele>133.182223</ele>
        <time>2023-09-17T12:05:42.424Z</time>
      </trkpt>
      <trkpt lat="43.6713" lon="1.45251">
        <ele>133.137941</ele>
        <time>2023-09-17T12:05:43.424Z</time>
      </trkpt>
      <trkpt lat="43.67127" lon="1.45245">
        <ele>133.098183</ele>
        <time>2023-09-17T12:05:44.424Z</time>
      </trkpt>
      <trkpt lat="43.67124" lon="1.45239">
        <ele>133.06163</ele>
        <time>2023-09-17T12:05:45.424Z</time>
      </trkpt>
      <trkpt lat="43.6712" lon="1.45233">
        <ele>133.023469</ele>
        <time>2023-09-17T12:05:45.424Z</time>
      </trkpt>
      <trkpt lat="43.67118" lon="1.45227">
        <ele>132.989706</ele>
        <time>2023-09-17T12:05:47.424Z</time>
      </trkpt>
      <trkpt lat="43.67116" lon="1.45223">
        <ele>132.963885</ele>
        <time>2023-09-17T12:05:48.424Z</time>
      </trkpt>
      <trkpt lat="43.67115" lon="1.4522">
        <ele>132.949427</ele>
        <time>2023-09-17T12:05:49.424Z</time>
      </trkpt>
      <trkpt lat="43.67113" lon="1.45216">
        <ele>132.926359</ele>
        <time>2023-09-17T12:05:50.424Z</time>
      </trkpt>
      <trkpt lat="43.67113" lon="1.45216">
        <ele>132.926359</ele>
        <time>2023-09-17T12:05:50.424Z</time>
      </trkpt>
      <trkpt lat="43.67108" lon="1.4521">
        <ele>132.882835</ele>
        <time>2023-09-17T12:05:52.424Z</time>
      </trkpt>
      <trkpt lat="43.67106" lon="1.45205">
        <ele>132.85231</ele>
        <time>2023-09-17T12:05:53.424Z</time>
      </trkpt>
      <trkpt lat="43.67102" lon="1.452">
        <ele>132.819677</ele>
        <time>2023-09-17T12:05:54.424Z</time>
      </trkpt>
      <trkpt lat="43.67098" lon="1.45194">
        <ele>132.775367</ele>
        <time>2023-09-17T12:05:55.424Z</time>
      </trkpt>
      <trkpt lat="43.67098" lon="1.45194">
        <ele>132.775367</ele>
        <time>2023-09-17T12:05:55.424Z</time>
      </trkpt>
      <trkpt lat="43.67093" lon="1.45186">
        <ele>132.724917</ele>
        <time>2023-09-17T12:05:56.424Z</time>
      </trkpt>
      <trkpt lat="43.67089" lon="1.45179">
        <ele>132.678417</ele>
        <time>2023-09-17T12:05:57.424Z</time>
      </trkpt>
      <trkpt lat="43.67085" lon="1.45173">
        <ele>132.638898</ele>
        <time>2023-09-17T12:05:58.424Z</time>
      </trkpt>
      <trkpt lat="43.67085" lon="1.45173">
        <ele>132.638898</ele>
        <time>2023-09-17T12:05:58.424Z</time>
      </trkpt>
      <trkpt lat="43.67081" lon="1.45167">
        <ele>132.598249</ele>
        <time>2023-09-17T12:05:59.424Z</time>
      </trkpt>
      <trkpt lat="43.67077" lon="1.4516">
        <ele>132.556447</ele>
        <time>2023-09-17T12:06:00.424Z</time>
      </trkpt>
      <trkpt lat="43.67077" lon="1.4516">
        <ele>132.556447</ele>
        <time>2023-09-17T12:06:00.424Z</time>
      </trkpt>
      <trkpt lat="43.67074" lon="1.45153">
        <ele>132.514071</ele>
        <time>2023-09-17T12:06:01.424Z</time>
      </trkpt>
      <trkpt lat="43.67071" lon="1.45146">
        <ele>132.471876</ele>
        <time>2023-09-17T12:06:02.424Z</time>
      </trkpt>
      <trkpt lat="43.67071" lon="1.45146">
        <ele>132.471876</ele>
        <time>2023-09-17T12:06:02.424Z</time>
      </trkpt>
      <trkpt lat="43.67067" lon="1.45141">
        <ele>132.437919</ele>
        <time>2023-09-17T12:06:03.424Z</time>
      </trkpt>
      <trkpt lat="43.67063" lon="1.4514">
        <ele>132.408633</ele>
        <time>2023-09-17T12:06:04.424Z</time>
      </trkpt>
      <trkpt lat="43.67058" lon="1.45141">
        <ele>132.377022</ele>
        <time>2023-09-17T12:06:05.424Z</time>
      </trkpt>
      <trkpt lat="43.67053" lon="1.45143">
        <ele>132.351352</ele>
        <time>2023-09-17T12:06:06.424Z</time>
      </trkpt>
      <trkpt lat="43.67053" lon="1.45143">
        <ele>132.351352</ele>
        <time>2023-09-17T12:06:06.424Z</time>
      </trkpt>
      <trkpt lat="43.67048" lon="1.45147">
        <ele>132.330154</ele>
        <time>2023-09-17T12:06:07.424Z</time>
      </trkpt>
      <trkpt lat="43.67041" lon="1.45151">
        <ele>132.3045</ele>
        <time>2023-09-17T12:06:08.424Z</time>
      </trkpt>
      <trkpt lat="43.67036" lon="1.45155">
        <ele>132.280565</ele>
        <time>2023-09-17T12:06:09.424Z</time>
      </trkpt>
      <trkpt lat="43.6703" lon="1.45157">
        <ele>132.259111</ele>
        <time>2023-09-17T12:06:10.424Z</time>
      </trkpt>
      <trkpt lat="43.67025" lon="1.45157">
        <ele>132.23755</ele>
        <time>2023-09-17T12:06:11.424Z</time>
      </trkpt>
      <trkpt lat="43.67025" lon="1.45157">
        <ele>132.23755</ele>
        <time>2023-09-17T12:06:11.424Z</time>
      </trkpt>
      <trkpt lat="43.67018" lon="1.45155">
        <ele>132.212477</ele>
        <time>2023-09-17T12:06:12.424Z</time>
      </trkpt>
      <trkpt lat="43.67013" lon="1.45149">
        <ele>132.187353</ele>
        <time>2023-09-17T12:06:13.424Z</time>
      </trkpt>
      <trkpt lat="43.67009" lon="1.45142">
        <ele>132.162525</ele>
        <time>2023-09-17T12:06:14.424Z</time>
      </trkpt>
      <trkpt lat="43.67006" lon="1.45132">
        <ele>132.133357</ele>
        <time>2023-09-17T12:06:15.424Z</time>
      </trkpt>
      <trkpt lat="43.67006" lon="1.45132">
        <ele>132.133357</ele>
        <time>2023-09-17T12:06:15.424Z</time>
      </trkpt>
      <trkpt lat="43.67002" lon="1.45124">
        <ele>132.105787</ele>
        <time>2023-09-17T12:06:16.424Z</time>
      </trkpt>
      <trkpt lat="43.66998" lon="1.45116">
        <ele>132.079602</ele>
        <time>2023-09-17T12:06:17.424Z</time>
      </trkpt>
      <trkpt lat="43.66995" lon="1.45108">
        <ele>132.055849</ele>
        <time>2023-09-17T12:06:18.424Z</time>
      </trkpt>
      <trkpt lat="43.66991" lon="1.451">
        <ele>132.027911</ele>
        <time>2023-09-17T12:06:19.424Z</time>
      </trkpt>
      <trkpt lat="43.66991" lon="1.451">
        <ele>132.027911</ele>
        <time>2023-09-17T12:06:19.424Z</time>
      </trkpt>
      <trkpt lat="43.66987" lon="1.45092">
        <ele>132.002799</ele>
        <time>2023-09-17T12:06:20.424Z</time>
      </trkpt>
      <trkpt lat="43.66983" lon="1.45084">
        <ele>131.977297</ele>
        <time>2023-09-17T12:06:20.424Z</time>
      </trkpt>
      <trkpt lat="43.6698" lon="1.45078">
        <ele>131.954456</ele>
        <time>2023-09-17T12:06:22.424Z</time>
      </trkpt>
      <trkpt lat="43.66976" lon="1.45071">
        <ele>131.930511</ele>
        <time>2023-09-17T12:06:23.424Z</time>
      </trkpt>
      <trkpt lat="43.66973" lon="1.45064">
        <ele>131.908122</ele>
        <time>2023-09-17T12:06:24.424Z</time>
      </trkpt>
      <trkpt lat="43.66969" lon="1.45058">
        <ele>131.886397</ele>
        <time>2023-09-17T12:06:25.424Z</time>
      </trkpt>
      <trkpt lat="43.66966" lon="1.4505">
        <ele>131.862013</ele>
        <time>2023-09-17T12:06:26.424Z</time>
      </trkpt>
      <trkpt lat="43.66966" lon="1.4505">
        <ele>131.862013</ele>
        <time>2023-09-17T12:06:26.424Z</time>
      </trkpt>
      <trkpt lat="43.66961" lon="1.45042">
        <ele>131.834747</ele>
        <time>2023-09-17T12:06:27.424Z</time>
      </trkpt>
      <trkpt lat="43.66961" lon="1.45042">
        <ele>131.834747</ele>
        <time>2023-09-17T12:06:27.424Z</time>
      </trkpt>
      <trkpt lat="43.66958" lon="1.45034">
        <ele>131.808412</ele>
        <time>2023-09-17T12:06:28.424Z</time>
      </trkpt>
      <trkpt lat="43.66954" lon="1.45024">
        <ele>131.776776</ele>
        <time>2023-09-17T12:06:29.424Z</time>
      </trkpt>
      <trkpt lat="43.66951" lon="1.45016">
        <ele>131.751704</ele>
        <time>2023-09-17T12:06:30.424Z</time>
      </trkpt>
      <trkpt lat="43.66948" lon="1.45008">
        <ele>131.7278</ele>
        <time>2023-09-17T12:06:31.424Z</time>
      </trkpt>
      <trkpt lat="43.66945" lon="1.45">
        <ele>131.702415</ele>
        <time>2023-09-17T12:06:32.424Z</time>
      </trkpt>
      <trkpt lat="43.66942" lon="1.44991">
        <ele>131.678791</ele>
        <time>2023-09-17T12:06:33.424Z</time>
      </trkpt>
      <trkpt lat="43.66939" lon="1.44984">
        <ele>131.65856</ele>
        <time>2023-09-17T12:06:34.424Z</time>
      </trkpt>
      <trkpt lat="43.66937" lon="1.44978">
        <ele>131.640943</ele>
        <time>2023-09-17T12:06:35.424Z</time>
      </trkpt>
      <trkpt lat="43.66934" lon="1.44971">
        <ele>131.621197</ele>
        <time>2023-09-17T12:06:36.424Z</time>
      </trkpt>
      <trkpt lat="43.66931" lon="1.44964">
        <ele>131.601804</ele>
        <time>2023-09-17T12:06:37.424Z</time>
      </trkpt>
      <trkpt lat="43.66927" lon="1.44956">
        <ele>131.577737</ele>
        <time>2023-09-17T12:06:37.424Z</time>
      </trkpt>
      <trkpt lat="43.66927" lon="1.44956">
        <ele>131.577737</ele>
        <time>2023-09-17T12:06:37.424Z</time>
      </trkpt>
      <trkpt lat="43.66921" lon="1.44949">
        <ele>131.55282</ele>
        <time>2023-09-17T12:06:39.424Z</time>
      </trkpt>
      <trkpt lat="43.66916" lon="1.44943">
        <ele>131.529698</ele>
        <time>2023-09-17T12:06:40.424Z</time>
      </trkpt>
      <trkpt lat="43.66909" lon="1.4494">
        <ele>131.507468</ele>
        <time>2023-09-17T12:06:41.424Z</time>
      </trkpt>
      <trkpt lat="43.66909" lon="1.4494">
        <ele>131.507468</ele>
        <time>2023-09-17T12:06:41.424Z</time>
      </trkpt>
      <trkpt lat="43.66903" lon="1.44938">
        <ele>131.486366</ele>
        <time>2023-09-17T12:06:42.424Z</time>
      </trkpt>
      <trkpt lat="43.66897" lon="1.44936">
        <ele>131.465421</ele>
        <time>2023-09-17T12:06:43.424Z</time>
      </trkpt>
      <trkpt lat="43.66891" lon="1.44935">
        <ele>131.443198</ele>
        <time>2023-09-17T12:06:44.424Z</time>
      </trkpt>
      <trkpt lat="43.66884" lon="1.44933">
        <ele>131.421016</ele>
        <time>2023-09-17T12:06:45.424Z</time>
      </trkpt>
      <trkpt lat="43.66878" lon="1.44932">
        <ele>131.399206</ele>
        <time>2023-09-17T12:06:46.424Z</time>
      </trkpt>
      <trkpt lat="43.66872" lon="1.4493">
        <ele>131.37802</ele>
        <time>2023-09-17T12:06:47.424Z</time>
      </trkpt>
      <trkpt lat="43.66865" lon="1.44929">
        <ele>131.356171</ele>
        <time>2023-09-17T12:06:48.424Z</time>
      </trkpt>
      <trkpt lat="43.66859" lon="1.44927">
        <ele>131.333904</ele>
        <time>2023-09-17T12:06:49.424Z</time>
      </trkpt>
      <trkpt lat="43.66852" lon="1.44925">
        <ele>131.311637</ele>
        <time>2023-09-17T12:06:50.424Z</time>
      </trkpt>
      <trkpt lat="43.66846" lon="1.44924">
        <ele>131.290692</ele>
        <time>2023-09-17T12:06:51.424Z</time>
      </trkpt>
      <trkpt lat="43.6684" lon="1.44921">
        <ele>131.268108</ele>
        <time>2023-09-17T12:06:52.424Z</time>
      </trkpt>
      <trkpt lat="43.6684" lon="1.44921">
        <ele>131.268108</ele>
        <time>2023-09-17T12:06:52.424Z</time>
      </trkpt>
      <trkpt lat="43.66834" lon="1.44919">
        <ele>131.246948</ele>
        <time>2023-09-17T12:06:53.424Z</time>
      </trkpt>
      <trkpt lat="43.66827" lon="1.44917">
        <ele>131.225846</ele>
        <time>2023-09-17T12:06:54.424Z</time>
      </trkpt>
      <trkpt lat="43.66821" lon="1.44915">
        <ele>131.204687</ele>
        <time>2023-09-17T12:06:55.424Z</time>
      </trkpt>
      <trkpt lat="43.66821" lon="1.44915">
        <ele>131.204687</ele>
        <time>2023-09-17T12:06:55.424Z</time>
      </trkpt>
      <trkpt lat="43.66815" lon="1.44913">
        <ele>131.183201</ele>
        <time>2023-09-17T12:06:56.424Z</time>
      </trkpt>
      <trkpt lat="43.66815" lon="1.44913">
        <ele>131.183201</ele>
        <time>2023-09-17T12:06:56.424Z</time>
      </trkpt>
      <trkpt lat="43.66809" lon="1.4491">
        <ele>131.161566</ele>
        <time>2023-09-17T12:06:57.424Z</time>
      </trkpt>
      <trkpt lat="43.66803" lon="1.44907">
        <ele>131.141037</ele>
        <time>2023-09-17T12:06:58.424Z</time>
      </trkpt>
      <trkpt lat="43.66797" lon="1.44903">
        <ele>131.118988</ele>
        <time>2023-09-17T12:06:59.424Z</time>
      </trkpt>
      <trkpt lat="43.66792" lon="1.449">
        <ele>131.097588</ele>
        <time>2023-09-17T12:07:00.424Z</time>
      </trkpt>
      <trkpt lat="43.66785" lon="1.44895">
        <ele>131.070058</ele>
        <time>2023-09-17T12:07:01.424Z</time>
      </trkpt>
      <trkpt lat="43.6678" lon="1.4489">
        <ele>131.038316</ele>
        <time>2023-09-17T12:07:02.424Z</time>
      </trkpt>
      <trkpt lat="43.6678" lon="1.4489">
        <ele>131.038316</ele>
        <time>2023-09-17T12:07:02.424Z</time>
      </trkpt>
      <trkpt lat="43.66774" lon="1.44885">
        <ele>131.009229</ele>
        <time>2023-09-17T12:07:03.424Z</time>
      </trkpt>
      <trkpt lat="43.66769" lon="1.44881">
        <ele>130.978951</ele>
        <time>2023-09-17T12:07:04.424Z</time>
      </trkpt>
      <trkpt lat="43.66763" lon="1.44878">
        <ele>130.948626</ele>
        <time>2023-09-17T12:07:05.424Z</time>
      </trkpt>
      <trkpt lat="43.66757" lon="1.44876">
        <ele>130.921119</ele>
        <time>2023-09-17T12:07:06.424Z</time>
      </trkpt>
      <trkpt lat="43.66757" lon="1.44876">
        <ele>130.921119</ele>
        <time>2023-09-17T12:07:06.424Z</time>
      </trkpt>
      <trkpt lat="43.6675" lon="1.44874">
        <ele>130.890239</ele>
        <time>2023-09-17T12:07:07.424Z</time>
      </trkpt>
      <trkpt lat="43.66744" lon="1.44872">
        <ele>130.859427</ele>
        <time>2023-09-17T12:07:08.424Z</time>
      </trkpt>
      <trkpt lat="43.66738" lon="1.44871">
        <ele>130.832324</ele>
        <time>2023-09-17T12:07:09.424Z</time>
      </trkpt>
      <trkpt lat="43.66732" lon="1.44869">
        <ele>130.801637</ele>
        <time>2023-09-17T12:07:10.424Z</time>
      </trkpt>
      <trkpt lat="43.66726" lon="1.44867">
        <ele>130.772779</ele>
        <time>2023-09-17T12:07:11.424Z</time>
      </trkpt>
      <trkpt lat="43.66719" lon="1.44866">
        <ele>130.743981</ele>
        <time>2023-09-17T12:07:12.424Z</time>
      </trkpt>
      <trkpt lat="43.66714" lon="1.44864">
        <ele>130.717073</ele>
        <time>2023-09-17T12:07:13.424Z</time>
      </trkpt>
      <trkpt lat="43.66714" lon="1.44864">
        <ele>130.717073</ele>
        <time>2023-09-17T12:07:13.424Z</time>
      </trkpt>
      <trkpt lat="43.66708" lon="1.44863">
        <ele>130.688332</ele>
        <time>2023-09-17T12:07:14.424Z</time>
      </trkpt>
      <trkpt lat="43.66702" lon="1.44862">
        <ele>130.659592</ele>
        <time>2023-09-17T12:07:15.424Z</time>
      </trkpt>
      <trkpt lat="43.66696" lon="1.4486">
        <ele>130.632622</ele>
        <time>2023-09-17T12:07:16.424Z</time>
      </trkpt>
      <trkpt lat="43.6669" lon="1.44859">
        <ele>130.603882</ele>
        <time>2023-09-17T12:07:17.424Z</time>
      </trkpt>
      <trkpt lat="43.6669" lon="1.44859">
        <ele>130.603882</ele>
        <time>2023-09-17T12:07:17.424Z</time>
      </trkpt>
      <trkpt lat="43.66684" lon="1.44858">
        <ele>130.578601</ele>
        <time>2023-09-17T12:07:18.424Z</time>
      </trkpt>
      <trkpt lat="43.66684" lon="1.44858">
        <ele>130.578601</ele>
        <time>2023-09-17T12:07:18.424Z</time>
      </trkpt>
      <trkpt lat="43.66679" lon="1.44858">
        <ele>130.552099</ele>
        <time>2023-09-17T12:07:19.424Z</time>
      </trkpt>
      <trkpt lat="43.66673" lon="1.44859">
        <ele>130.525552</ele>
        <time>2023-09-17T12:07:20.424Z</time>
      </trkpt>
      <trkpt lat="43.66673" lon="1.44859">
        <ele>130.525552</ele>
        <time>2023-09-17T12:07:20.424Z</time>
      </trkpt>
      <trkpt lat="43.66667" lon="1.44858">
        <ele>130.499057</ele>
        <time>2023-09-17T12:07:21.424Z</time>
      </trkpt>
      <trkpt lat="43.66661" lon="1.44858">
        <ele>130.470606</ele>
        <time>2023-09-17T12:07:22.424Z</time>
      </trkpt>
      <trkpt lat="43.66655" lon="1.44857">
        <ele>130.442204</ele>
        <time>2023-09-17T12:07:23.424Z</time>
      </trkpt>
      <trkpt lat="43.66649" lon="1.44857">
        <ele>130.41517</ele>
        <time>2023-09-17T12:07:24.424Z</time>
      </trkpt>
      <trkpt lat="43.66644" lon="1.44855">
        <ele>130.39009</ele>
        <time>2023-09-17T12:07:25.424Z</time>
      </trkpt>
      <trkpt lat="43.66638" lon="1.44852">
        <ele>130.359765</ele>
        <time>2023-09-17T12:07:26.424Z</time>
      </trkpt>
      <trkpt lat="43.66633" lon="1.44847">
        <ele>130.330498</ele>
        <time>2023-09-17T12:07:27.424Z</time>
      </trkpt>
      <trkpt lat="43.66627" lon="1.44841">
        <ele>130.297871</ele>
        <time>2023-09-17T12:07:28.424Z</time>
      </trkpt>
      <trkpt lat="43.66623" lon="1.44834">
        <ele>130.266568</ele>
        <time>2023-09-17T12:07:29.424Z</time>
      </trkpt>
      <trkpt lat="43.66618" lon="1.44828">
        <ele>130.273198</ele>
        <time>2023-09-17T12:07:30.424Z</time>
      </trkpt>
      <trkpt lat="43.66618" lon="1.44828">
        <ele>130.273198</ele>
        <time>2023-09-17T12:07:30.424Z</time>
      </trkpt>
      <trkpt lat="43.66614" lon="1.44822">
        <ele>130.336905</ele>
        <time>2023-09-17T12:07:31.424Z</time>
      </trkpt>
      <trkpt lat="43.6661" lon="1.44816">
        <ele>130.394493</ele>
        <time>2023-09-17T12:07:32.424Z</time>
      </trkpt>
      <trkpt lat="43.66607" lon="1.44811">
        <ele>130.449904</ele>
        <time>2023-09-17T12:07:33.424Z</time>
      </trkpt>
      <trkpt lat="43.66607" lon="1.44811">
        <ele>130.449904</ele>
        <time>2023-09-17T12:07:33.424Z</time>
      </trkpt>
      <trkpt lat="43.66603" lon="1.44805">
        <ele>130.510851</ele>
        <time>2023-09-17T12:07:34.424Z</time>
      </trkpt>
      <trkpt lat="43.66603" lon="1.44805">
        <ele>130.510851</ele>
        <time>2023-09-17T12:07:34.424Z</time>
      </trkpt>
      <trkpt lat="43.66599" lon="1.44798">
        <ele>130.581781</ele>
        <time>2023-09-17T12:07:35.424Z</time>
      </trkpt>
      <trkpt lat="43.66594" lon="1.44791">
        <ele>130.652711</ele>
        <time>2023-09-17T12:07:36.424Z</time>
      </trkpt>
      <trkpt lat="43.66589" lon="1.44783">
        <ele>130.72351</ele>
        <time>2023-09-17T12:07:37.424Z</time>
      </trkpt>
      <trkpt lat="43.66589" lon="1.44783">
        <ele>130.72351</ele>
        <time>2023-09-17T12:07:37.424Z</time>
      </trkpt>
      <trkpt lat="43.66584" lon="1.44776">
        <ele>130.804485</ele>
        <time>2023-09-17T12:07:38.424Z</time>
      </trkpt>
      <trkpt lat="43.66579" lon="1.44768">
        <ele>130.879176</ele>
        <time>2023-09-17T12:07:39.424Z</time>
      </trkpt>
      <trkpt lat="43.66574" lon="1.44761">
        <ele>130.958542</ele>
        <time>2023-09-17T12:07:40.424Z</time>
      </trkpt>
      <trkpt lat="43.66574" lon="1.44761">
        <ele>130.958542</ele>
        <time>2023-09-17T12:07:40.424Z</time>
      </trkpt>
      <trkpt lat="43.66569" lon="1.44754">
        <ele>131.026742</ele>
        <time>2023-09-17T12:07:41.424Z</time>
      </trkpt>
      <trkpt lat="43.66564" lon="1.44748">
        <ele>131.097154</ele>
        <time>2023-09-17T12:07:42.424Z</time>
      </trkpt>
      <trkpt lat="43.6656" lon="1.44742">
        <ele>131.163243</ele>
        <time>2023-09-17T12:07:43.424Z</time>
      </trkpt>
      <trkpt lat="43.6656" lon="1.44742">
        <ele>131.163243</ele>
        <time>2023-09-17T12:07:43.424Z</time>
      </trkpt>
      <trkpt lat="43.66555" lon="1.44736">
        <ele>131.227796</ele>
        <time>2023-09-17T12:07:44.424Z</time>
      </trkpt>
      <trkpt lat="43.66555" lon="1.44736">
        <ele>131.227796</ele>
        <time>2023-09-17T12:07:44.424Z</time>
      </trkpt>
      <trkpt lat="43.6655" lon="1.44731">
        <ele>131.294749</ele>
        <time>2023-09-17T12:07:45.424Z</time>
      </trkpt>
      <trkpt lat="43.6655" lon="1.44731">
        <ele>131.294749</ele>
        <time>2023-09-17T12:07:45.424Z</time>
      </trkpt>
      <trkpt lat="43.66545" lon="1.44727">
        <ele>131.354273</ele>
        <time>2023-09-17T12:07:46.424Z</time>
      </trkpt>
      <trkpt lat="43.66545" lon="1.44727">
        <ele>131.354273</ele>
        <time>2023-09-17T12:07:46.424Z</time>
      </trkpt>
      <trkpt lat="43.66539" lon="1.44724">
        <ele>131.414853</ele>
        <time>2023-09-17T12:07:47.424Z</time>
      </trkpt>
      <trkpt lat="43.66539" lon="1.44724">
        <ele>131.414853</ele>
        <time>2023-09-17T12:07:47.424Z</time>
      </trkpt>
      <trkpt lat="43.66534" lon="1.4472">
        <ele>131.4723</ele>
        <time>2023-09-17T12:07:48.424Z</time>
      </trkpt>
      <trkpt lat="43.6653" lon="1.44717">
        <ele>131.528171</ele>
        <time>2023-09-17T12:07:49.424Z</time>
      </trkpt>
      <trkpt lat="43.6653" lon="1.44717">
        <ele>131.528171</ele>
        <time>2023-09-17T12:07:49.424Z</time>
      </trkpt>
      <trkpt lat="43.66525" lon="1.44714">
        <ele>131.584685</ele>
        <time>2023-09-17T12:07:50.424Z</time>
      </trkpt>
      <trkpt lat="43.66521" lon="1.44712">
        <ele>131.628318</ele>
        <time>2023-09-17T12:07:51.424Z</time>
      </trkpt>
      <trkpt lat="43.66521" lon="1.44712">
        <ele>131.628318</ele>
        <time>2023-09-17T12:07:51.424Z</time>
      </trkpt>
      <trkpt lat="43.66518" lon="1.4471">
        <ele>131.663788</ele>
        <time>2023-09-17T12:07:52.424Z</time>
      </trkpt>
      <trkpt lat="43.66518" lon="1.4471">
        <ele>131.663788</ele>
        <time>2023-09-17T12:07:52.424Z</time>
      </trkpt>
      <trkpt lat="43.66516" lon="1.44709">
        <ele>131.684867</ele>
        <time>2023-09-17T12:07:53.424Z</time>
      </trkpt>
      <trkpt lat="43.66514" lon="1.44709">
        <ele>131.705254</ele>
        <time>2023-09-17T12:07:54.424Z</time>
      </trkpt>
      <trkpt lat="43.66514" lon="1.44709">
        <ele>131.705254</ele>
        <time>2023-09-17T12:07:54.424Z</time>
      </trkpt>
      <trkpt lat="43.66512" lon="1.44712">
        <ele>131.732606</ele>
        <time>2023-09-17T12:07:55.424Z</time>
      </trkpt>
      <trkpt lat="43.66511" lon="1.44717">
        <ele>131.771136</ele>
        <time>2023-09-17T12:07:56.424Z</time>
      </trkpt>
      <trkpt lat="43.66509" lon="1.44724">
        <ele>131.826758</ele>
        <time>2023-09-17T12:07:57.424Z</time>
      </trkpt>
      <trkpt lat="43.66506" lon="1.44731">
        <ele>131.887166</ele>
        <time>2023-09-17T12:07:58.424Z</time>
      </trkpt>
      <trkpt lat="43.66503" lon="1.44739">
        <ele>131.951953</ele>
        <time>2023-09-17T12:07:59.424Z</time>
      </trkpt>
      <trkpt lat="43.66501" lon="1.44746">
        <ele>132.016367</ele>
        <time>2023-09-17T12:08:00.424Z</time>
      </trkpt>
      <trkpt lat="43.66497" lon="1.44754">
        <ele>132.084435</ele>
        <time>2023-09-17T12:08:01.424Z</time>
      </trkpt>
      <trkpt lat="43.66494" lon="1.44762">
        <ele>132.104188</ele>
        <time>2023-09-17T12:08:02.424Z</time>
      </trkpt>
      <trkpt lat="43.66491" lon="1.4477">
        <ele>132.086478</ele>
        <time>2023-09-17T12:08:03.424Z</time>
      </trkpt>
      <trkpt lat="43.66488" lon="1.44777">
        <ele>132.069598</ele>
        <time>2023-09-17T12:08:04.424Z</time>
      </trkpt>
      <trkpt lat="43.66485" lon="1.44785">
        <ele>132.052063</ele>
        <time>2023-09-17T12:08:05.424Z</time>
      </trkpt>
      <trkpt lat="43.66482" lon="1.44793">
        <ele>132.034112</ele>
        <time>2023-09-17T12:08:06.424Z</time>
      </trkpt>
      <trkpt lat="43.66478" lon="1.448">
        <ele>132.016185</ele>
        <time>2023-09-17T12:08:07.424Z</time>
      </trkpt>
      <trkpt lat="43.66475" lon="1.44808">
        <ele>131.999823</ele>
        <time>2023-09-17T12:08:08.424Z</time>
      </trkpt>
      <trkpt lat="43.66472" lon="1.44815">
        <ele>131.982461</ele>
        <time>2023-09-17T12:08:09.424Z</time>
      </trkpt>
      <trkpt lat="43.6647" lon="1.44824">
        <ele>131.96428</ele>
        <time>2023-09-17T12:08:10.424Z</time>
      </trkpt>
      <trkpt lat="43.66467" lon="1.44832">
        <ele>131.945807</ele>
        <time>2023-09-17T12:08:11.424Z</time>
      </trkpt>
      <trkpt lat="43.66464" lon="1.4484">
        <ele>131.927698</ele>
        <time>2023-09-17T12:08:12.424Z</time>
      </trkpt>
      <trkpt lat="43.66461" lon="1.44848">
        <ele>131.909944</ele>
        <time>2023-09-17T12:08:13.424Z</time>
      </trkpt>
      <trkpt lat="43.66461" lon="1.44848">
        <ele>131.909944</ele>
        <time>2023-09-17T12:08:13.424Z</time>
      </trkpt>
      <trkpt lat="43.66459" lon="1.44856">
        <ele>131.893451</ele>
        <time>2023-09-17T12:08:14.424Z</time>
      </trkpt>
      <trkpt lat="43.66459" lon="1.44856">
        <ele>131.893451</ele>
        <time>2023-09-17T12:08:14.424Z</time>
      </trkpt>
      <trkpt lat="43.66456" lon="1.44863">
        <ele>131.876424</ele>
        <time>2023-09-17T12:08:15.424Z</time>
      </trkpt>
      <trkpt lat="43.66456" lon="1.44863">
        <ele>131.876424</ele>
        <time>2023-09-17T12:08:15.424Z</time>
      </trkpt>
      <trkpt lat="43.66454" lon="1.4487">
        <ele>131.861733</ele>
        <time>2023-09-17T12:08:16.424Z</time>
      </trkpt>
      <trkpt lat="43.66452" lon="1.44879">
        <ele>131.842966</ele>
        <time>2023-09-17T12:08:17.424Z</time>
      </trkpt>
      <trkpt lat="43.66451" lon="1.44887">
        <ele>131.826589</ele>
        <time>2023-09-17T12:08:18.424Z</time>
      </trkpt>
      <trkpt lat="43.66448" lon="1.44895">
        <ele>131.809382</ele>
        <time>2023-09-17T12:08:19.424Z</time>
      </trkpt>
      <trkpt lat="43.66445" lon="1.44903">
        <ele>131.791804</ele>
        <time>2023-09-17T12:08:20.424Z</time>
      </trkpt>
      <trkpt lat="43.66441" lon="1.4491">
        <ele>131.774707</ele>
        <time>2023-09-17T12:08:21.424Z</time>
      </trkpt>
      <trkpt lat="43.66441" lon="1.4491">
        <ele>131.774707</ele>
        <time>2023-09-17T12:08:21.424Z</time>
      </trkpt>
      <trkpt lat="43.66437" lon="1.44917">
        <ele>131.75661</ele>
        <time>2023-09-17T12:08:22.424Z</time>
      </trkpt>
      <trkpt lat="43.66435" lon="1.44923">
        <ele>131.742689</ele>
        <time>2023-09-17T12:08:23.424Z</time>
      </trkpt>
      <trkpt lat="43.66435" lon="1.44923">
        <ele>131.742689</ele>
        <time>2023-09-17T12:08:23.424Z</time>
      </trkpt>
      <trkpt lat="43.66433" lon="1.44931">
        <ele>131.725555</ele>
        <time>2023-09-17T12:08:24.424Z</time>
      </trkpt>
      <trkpt lat="43.66431" lon="1.4494">
        <ele>131.70824</ele>
        <time>2023-09-17T12:08:25.424Z</time>
      </trkpt>
      <trkpt lat="43.66428" lon="1.44947">
        <ele>131.691294</ele>
        <time>2023-09-17T12:08:26.424Z</time>
      </trkpt>
      <trkpt lat="43.66425" lon="1.44955">
        <ele>131.67341</ele>
        <time>2023-09-17T12:08:27.424Z</time>
      </trkpt>
      <trkpt lat="43.66422" lon="1.44964">
        <ele>131.654232</ele>
        <time>2023-09-17T12:08:28.424Z</time>
      </trkpt>
      <trkpt lat="43.6642" lon="1.44972">
        <ele>131.637655</ele>
        <time>2023-09-17T12:08:29.424Z</time>
      </trkpt>
      <trkpt lat="43.66418" lon="1.4498">
        <ele>131.621277</ele>
        <time>2023-09-17T12:08:30.424Z</time>
      </trkpt>
      <trkpt lat="43.66416" lon="1.44988">
        <ele>131.656503</ele>
        <time>2023-09-17T12:08:31.424Z</time>
      </trkpt>
      <trkpt lat="43.66414" lon="1.44996">
        <ele>131.701934</ele>
        <time>2023-09-17T12:08:32.424Z</time>
      </trkpt>
      <trkpt lat="43.6641" lon="1.45004">
        <ele>131.745057</ele>
        <time>2023-09-17T12:08:33.424Z</time>
      </trkpt>
      <trkpt lat="43.6641" lon="1.45004">
        <ele>131.745057</ele>
        <time>2023-09-17T12:08:33.424Z</time>
      </trkpt>
      <trkpt lat="43.66407" lon="1.45011">
        <ele>131.787848</ele>
        <time>2023-09-17T12:08:34.424Z</time>
      </trkpt>
      <trkpt lat="43.66407" lon="1.45011">
        <ele>131.787848</ele>
        <time>2023-09-17T12:08:34.424Z</time>
      </trkpt>
      <trkpt lat="43.66404" lon="1.4502">
        <ele>131.833578</ele>
        <time>2023-09-17T12:08:35.424Z</time>
      </trkpt>
      <trkpt lat="43.66404" lon="1.4502">
        <ele>131.833578</ele>
        <time>2023-09-17T12:08:35.424Z</time>
      </trkpt>
      <trkpt lat="43.66402" lon="1.45027">
        <ele>131.874496</ele>
        <time>2023-09-17T12:08:36.424Z</time>
      </trkpt>
      <trkpt lat="43.664" lon="1.45036">
        <ele>131.91935</ele>
        <time>2023-09-17T12:08:37.424Z</time>
      </trkpt>
      <trkpt lat="43.66398" lon="1.45044">
        <ele>131.965131</ele>
        <time>2023-09-17T12:08:38.424Z</time>
      </trkpt>
      <trkpt lat="43.66396" lon="1.45053">
        <ele>132.007935</ele>
        <time>2023-09-17T12:08:38.424Z</time>
      </trkpt>
      <trkpt lat="43.66396" lon="1.45053">
        <ele>132.007935</ele>
        <time>2023-09-17T12:08:38.424Z</time>
      </trkpt>
      <trkpt lat="43.66396" lon="1.45061">
        <ele>132.045802</ele>
        <time>2023-09-17T12:08:40.424Z</time>
      </trkpt>
      <trkpt lat="43.66396" lon="1.45069">
        <ele>132.085342</ele>
        <time>2023-09-17T12:08:41.424Z</time>
      </trkpt>
      <trkpt lat="43.66395" lon="1.45076">
        <ele>132.124484</ele>
        <time>2023-09-17T12:08:42.424Z</time>
      </trkpt>
      <trkpt lat="43.66395" lon="1.45076">
        <ele>132.124484</ele>
        <time>2023-09-17T12:08:42.424Z</time>
      </trkpt>
      <trkpt lat="43.66394" lon="1.45084">
        <ele>132.162448</ele>
        <time>2023-09-17T12:08:43.424Z</time>
      </trkpt>
      <trkpt lat="43.66392" lon="1.45091">
        <ele>132.200328</ele>
        <time>2023-09-17T12:08:44.424Z</time>
      </trkpt>
      <trkpt lat="43.66392" lon="1.45091">
        <ele>132.200328</ele>
        <time>2023-09-17T12:08:44.424Z</time>
      </trkpt>
      <trkpt lat="43.6639" lon="1.45097">
        <ele>132.23389</ele>
        <time>2023-09-17T12:08:45.424Z</time>
      </trkpt>
      <trkpt lat="43.66387" lon="1.45103">
        <ele>132.268459</ele>
        <time>2023-09-17T12:08:46.424Z</time>
      </trkpt>
      <trkpt lat="43.66387" lon="1.45103">
        <ele>132.268459</ele>
        <time>2023-09-17T12:08:46.424Z</time>
      </trkpt>
      <trkpt lat="43.66384" lon="1.4511">
        <ele>132.307352</ele>
        <time>2023-09-17T12:08:47.424Z</time>
      </trkpt>
      <trkpt lat="43.66382" lon="1.45116">
        <ele>132.342231</ele>
        <time>2023-09-17T12:08:48.424Z</time>
      </trkpt>
      <trkpt lat="43.66382" lon="1.45116">
        <ele>132.342231</ele>
        <time>2023-09-17T12:08:48.424Z</time>
      </trkpt>
      <trkpt lat="43.66379" lon="1.45123">
        <ele>132.378942</ele>
        <time>2023-09-17T12:08:49.424Z</time>
      </trkpt>
      <trkpt lat="43.66377" lon="1.4513">
        <ele>132.41815</ele>
        <time>2023-09-17T12:08:50.424Z</time>
      </trkpt>
      <trkpt lat="43.66374" lon="1.45136">
        <ele>132.4557</ele>
        <time>2023-09-17T12:08:51.424Z</time>
      </trkpt>
      <trkpt lat="43.66374" lon="1.45136">
        <ele>132.4557</ele>
        <time>2023-09-17T12:08:51.424Z</time>
      </trkpt>
      <trkpt lat="43.66372" lon="1.45143">
        <ele>132.492318</ele>
        <time>2023-09-17T12:08:52.424Z</time>
      </trkpt>
      <trkpt lat="43.66372" lon="1.45143">
        <ele>132.492318</ele>
        <time>2023-09-17T12:08:52.424Z</time>
      </trkpt>
      <trkpt lat="43.66368" lon="1.4515">
        <ele>132.537981</ele>
        <time>2023-09-17T12:08:53.424Z</time>
      </trkpt>
      <trkpt lat="43.66368" lon="1.4515">
        <ele>132.537981</ele>
        <time>2023-09-17T12:08:53.424Z</time>
      </trkpt>
      <trkpt lat="43.66365" lon="1.45157">
        <ele>132.573401</ele>
        <time>2023-09-17T12:08:54.424Z</time>
      </trkpt>
      <trkpt lat="43.66362" lon="1.45163">
        <ele>132.608326</ele>
        <time>2023-09-17T12:08:55.424Z</time>
      </trkpt>
      <trkpt lat="43.66362" lon="1.45169">
        <ele>132.642047</ele>
        <time>2023-09-17T12:08:56.424Z</time>
      </trkpt>
      <trkpt lat="43.66363" lon="1.45177">
        <ele>132.679517</ele>
        <time>2023-09-17T12:08:57.424Z</time>
      </trkpt>
      <trkpt lat="43.66363" lon="1.45184">
        <ele>132.714668</ele>
        <time>2023-09-17T12:08:58.424Z</time>
      </trkpt>
      <trkpt lat="43.66363" lon="1.45184">
        <ele>132.714668</ele>
        <time>2023-09-17T12:08:58.424Z</time>
      </trkpt>
      <trkpt lat="43.66362" lon="1.45189">
        <ele>132.740811</ele>
        <time>2023-09-17T12:08:59.424Z</time>
      </trkpt>
      <trkpt lat="43.66361" lon="1.45195">
        <ele>132.768732</ele>
        <time>2023-09-17T12:09:00.424Z</time>
      </trkpt>
      <trkpt lat="43.6636" lon="1.45201">
        <ele>132.801726</ele>
        <time>2023-09-17T12:09:01.424Z</time>
      </trkpt>
      <trkpt lat="43.66358" lon="1.45209">
        <ele>132.843343</ele>
        <time>2023-09-17T12:09:02.424Z</time>
      </trkpt>
      <trkpt lat="43.66356" lon="1.45218">
        <ele>132.844391</ele>
        <time>2023-09-17T12:09:03.424Z</time>
      </trkpt>
      <trkpt lat="43.66356" lon="1.45218">
        <ele>132.844391</ele>
        <time>2023-09-17T12:09:03.424Z</time>
      </trkpt>
      <trkpt lat="43.66354" lon="1.45224">
        <ele>132.841279</ele>
        <time>2023-09-17T12:09:04.424Z</time>
      </trkpt>
      <trkpt lat="43.66345" lon="1.45247">
        <ele>132.828759</ele>
        <time>2023-09-17T12:09:05.424Z</time>
      </trkpt>
      <trkpt lat="43.66341" lon="1.45254">
        <ele>132.82477</ele>
        <time>2023-09-17T12:09:07.424Z</time>
      </trkpt>
      <trkpt lat="43.66338" lon="1.4526">
        <ele>132.821124</ele>
        <time>2023-09-17T12:09:08.424Z</time>
      </trkpt>
      <trkpt lat="43.66336" lon="1.45265">
        <ele>132.818348</ele>
        <time>2023-09-17T12:09:09.424Z</time>
      </trkpt>
      <trkpt lat="43.66333" lon="1.45271">
        <ele>132.815037</ele>
        <time>2023-09-17T12:09:10.424Z</time>
      </trkpt>
      <trkpt lat="43.6633" lon="1.45277">
        <ele>132.811726</ele>
        <time>2023-09-17T12:09:11.424Z</time>
      </trkpt>
      <trkpt lat="43.66328" lon="1.45283">
        <ele>132.808647</ele>
        <time>2023-09-17T12:09:12.424Z</time>
      </trkpt>
      <trkpt lat="43.66325" lon="1.45289">
        <ele>132.805192</ele>
        <time>2023-09-17T12:09:13.424Z</time>
      </trkpt>
      <trkpt lat="43.66322" lon="1.45294">
        <ele>132.801813</ele>
        <time>2023-09-17T12:09:15.424Z</time>
      </trkpt>
      <trkpt lat="43.66319" lon="1.45301">
        <ele>132.79832</ele>
        <time>2023-09-17T12:09:15.424Z</time>
      </trkpt>
      <trkpt lat="43.66319" lon="1.45301">
        <ele>132.79832</ele>
        <time>2023-09-17T12:09:15.424Z</time>
      </trkpt>
      <trkpt lat="43.66313" lon="1.45312">
        <ele>132.791827</ele>
        <time>2023-09-17T12:09:16.424Z</time>
      </trkpt>
      <trkpt lat="43.6631" lon="1.45318">
        <ele>132.788295</ele>
        <time>2023-09-17T12:09:17.424Z</time>
      </trkpt>
      <trkpt lat="43.66307" lon="1.45324">
        <ele>132.785138</ele>
        <time>2023-09-17T12:09:19.424Z</time>
      </trkpt>
      <trkpt lat="43.66307" lon="1.45324">
        <ele>132.785138</ele>
        <time>2023-09-17T12:09:19.424Z</time>
      </trkpt>
      <trkpt lat="43.66302" lon="1.45335">
        <ele>132.778891</ele>
        <time>2023-09-17T12:09:21.424Z</time>
      </trkpt>
      <trkpt lat="43.66299" lon="1.45342">
        <ele>132.775318</ele>
        <time>2023-09-17T12:09:21.424Z</time>
      </trkpt>
      <trkpt lat="43.66297" lon="1.45348">
        <ele>132.772053</ele>
        <time>2023-09-17T12:09:22.424Z</time>
      </trkpt>
      <trkpt lat="43.66291" lon="1.45362">
        <ele>132.764701</ele>
        <time>2023-09-17T12:09:24.424Z</time>
      </trkpt>
      <trkpt lat="43.66286" lon="1.45375">
        <ele>132.75775</ele>
        <time>2023-09-17T12:09:26.424Z</time>
      </trkpt>
      <trkpt lat="43.66283" lon="1.45381">
        <ele>132.754359</ele>
        <time>2023-09-17T12:09:27.424Z</time>
      </trkpt>
      <trkpt lat="43.66281" lon="1.45388">
        <ele>132.750642</ele>
        <time>2023-09-17T12:09:28.424Z</time>
      </trkpt>
      <trkpt lat="43.66278" lon="1.45395">
        <ele>132.746787</ele>
        <time>2023-09-17T12:09:29.424Z</time>
      </trkpt>
      <trkpt lat="43.66276" lon="1.45403">
        <ele>132.74297</ele>
        <time>2023-09-17T12:09:30.424Z</time>
      </trkpt>
      <trkpt lat="43.66274" lon="1.4541">
        <ele>132.739282</ele>
        <time>2023-09-17T12:09:31.424Z</time>
      </trkpt>
      <trkpt lat="43.66274" lon="1.4541">
        <ele>132.739282</ele>
        <time>2023-09-17T12:09:31.424Z</time>
      </trkpt>
      <trkpt lat="43.66271" lon="1.45418">
        <ele>132.735248</ele>
        <time>2023-09-17T12:09:32.424Z</time>
      </trkpt>
      <trkpt lat="43.66269" lon="1.45426">
        <ele>132.73118</ele>
        <time>2023-09-17T12:09:33.424Z</time>
      </trkpt>
      <trkpt lat="43.66267" lon="1.45434">
        <ele>132.726508</ele>
        <time>2023-09-17T12:09:34.424Z</time>
      </trkpt>
      <trkpt lat="43.66265" lon="1.45443">
        <ele>132.722076</ele>
        <time>2023-09-17T12:09:35.424Z</time>
      </trkpt>
      <trkpt lat="43.66263" lon="1.45451">
        <ele>132.717522</ele>
        <time>2023-09-17T12:09:36.424Z</time>
      </trkpt>
      <trkpt lat="43.66263" lon="1.45451">
        <ele>132.717522</ele>
        <time>2023-09-17T12:09:36.424Z</time>
      </trkpt>
      <trkpt lat="43.66261" lon="1.4546">
        <ele>132.712898</ele>
        <time>2023-09-17T12:09:37.424Z</time>
      </trkpt>
      <trkpt lat="43.66259" lon="1.45468">
        <ele>132.708227</ele>
        <time>2023-09-17T12:09:38.424Z</time>
      </trkpt>
      <trkpt lat="43.66254" lon="1.45485">
        <ele>132.698758</ele>
        <time>2023-09-17T12:09:40.424Z</time>
      </trkpt>
      <trkpt lat="43.66251" lon="1.45494">
        <ele>132.69398</ele>
        <time>2023-09-17T12:09:41.424Z</time>
      </trkpt>
      <trkpt lat="43.66251" lon="1.45494">
        <ele>132.69398</ele>
        <time>2023-09-17T12:09:41.424Z</time>
      </trkpt>
      <trkpt lat="43.66249" lon="1.45502">
        <ele>132.689308</ele>
        <time>2023-09-17T12:09:42.424Z</time>
      </trkpt>
      <trkpt lat="43.66246" lon="1.4551">
        <ele>132.684781</ele>
        <time>2023-09-17T12:09:43.424Z</time>
      </trkpt>
      <trkpt lat="43.66244" lon="1.45519">
        <ele>132.679964</ele>
        <time>2023-09-17T12:09:44.424Z</time>
      </trkpt>
      <trkpt lat="43.66242" lon="1.45528">
        <ele>132.675292</ele>
        <time>2023-09-17T12:09:46.424Z</time>
      </trkpt>
      <trkpt lat="43.6624" lon="1.45536">
        <ele>132.670765</ele>
        <time>2023-09-17T12:09:46.424Z</time>
      </trkpt>
      <trkpt lat="43.66237" lon="1.45544">
        <ele>132.666311</ele>
        <time>2023-09-17T12:09:47.424Z</time>
      </trkpt>
      <trkpt lat="43.66235" lon="1.45553">
        <ele>132.661446</ele>
        <time>2023-09-17T12:09:48.424Z</time>
      </trkpt>
      <trkpt lat="43.66232" lon="1.45561">
        <ele>132.656667</ele>
        <time>2023-09-17T12:09:50.424Z</time>
      </trkpt>
      <trkpt lat="43.6623" lon="1.4557">
        <ele>132.651899</ele>
        <time>2023-09-17T12:09:51.424Z</time>
      </trkpt>
      <trkpt lat="43.66227" lon="1.45578">
        <ele>132.647261</ele>
        <time>2023-09-17T12:09:52.424Z</time>
      </trkpt>
      <trkpt lat="43.66225" lon="1.45587">
        <ele>132.642463</ele>
        <time>2023-09-17T12:09:53.424Z</time>
      </trkpt>
      <trkpt lat="43.66222" lon="1.45595">
        <ele>132.637983</ele>
        <time>2023-09-17T12:09:53.424Z</time>
      </trkpt>
      <trkpt lat="43.6622" lon="1.45603">
        <ele>132.633552</ele>
        <time>2023-09-17T12:09:55.424Z</time>
      </trkpt>
      <trkpt lat="43.66218" lon="1.4561">
        <ele>132.629799</ele>
        <time>2023-09-17T12:09:56.424Z</time>
      </trkpt>
      <trkpt lat="43.66216" lon="1.45617">
        <ele>132.625558</ele>
        <time>2023-09-17T12:09:57.424Z</time>
      </trkpt>
      <trkpt lat="43.66214" lon="1.45624">
        <ele>132.621787</ele>
        <time>2023-09-17T12:09:58.424Z</time>
      </trkpt>
      <trkpt lat="43.6621" lon="1.45629">
        <ele>132.618018</ele>
        <time>2023-09-17T12:09:58.424Z</time>
      </trkpt>
      <trkpt lat="43.66206" lon="1.45632">
        <ele>132.614743</ele>
        <time>2023-09-17T12:10:00.424Z</time>
      </trkpt>
      <trkpt lat="43.66201" lon="1.45632">
        <ele>132.611748</ele>
        <time>2023-09-17T12:10:01.424Z</time>
      </trkpt>
      <trkpt lat="43.66196" lon="1.45629">
        <ele>132.607869</ele>
        <time>2023-09-17T12:10:01.424Z</time>
      </trkpt>
      <trkpt lat="43.66196" lon="1.45629">
        <ele>132.607869</ele>
        <time>2023-09-17T12:10:01.424Z</time>
      </trkpt>
      <trkpt lat="43.6619" lon="1.45624">
        <ele>132.599654</ele>
        <time>2023-09-17T12:10:02.424Z</time>
      </trkpt>
      <trkpt lat="43.66185" lon="1.45617">
        <ele>132.578121</ele>
        <time>2023-09-17T12:10:03.424Z</time>
      </trkpt>
      <trkpt lat="43.66185" lon="1.45617">
        <ele>132.578121</ele>
        <time>2023-09-17T12:10:03.424Z</time>
      </trkpt>
      <trkpt lat="43.66181" lon="1.45611">
        <ele>132.55663</ele>
        <time>2023-09-17T12:10:05.424Z</time>
      </trkpt>
      <trkpt lat="43.66177" lon="1.45605">
        <ele>132.537219</ele>
        <time>2023-09-17T12:10:05.424Z</time>
      </trkpt>
      <trkpt lat="43.66172" lon="1.45599">
        <ele>132.517808</ele>
        <time>2023-09-17T12:10:07.424Z</time>
      </trkpt>
      <trkpt lat="43.66169" lon="1.45594">
        <ele>132.500475</ele>
        <time>2023-09-17T12:10:08.424Z</time>
      </trkpt>
      <trkpt lat="43.66165" lon="1.4559">
        <ele>132.486003</ele>
        <time>2023-09-17T12:10:09.424Z</time>
      </trkpt>
      <trkpt lat="43.66162" lon="1.45586">
        <ele>132.473028</ele>
        <time>2023-09-17T12:10:09.424Z</time>
      </trkpt>
      <trkpt lat="43.66159" lon="1.45583">
        <ele>132.459825</ele>
        <time>2023-09-17T12:10:10.424Z</time>
      </trkpt>
      <trkpt lat="43.66155" lon="1.4558">
        <ele>132.446717</ele>
        <time>2023-09-17T12:10:12.424Z</time>
      </trkpt>
      <trkpt lat="43.66152" lon="1.45578">
        <ele>132.434983</ele>
        <time>2023-09-17T12:10:13.424Z</time>
      </trkpt>
      <trkpt lat="43.6615" lon="1.45576">
        <ele>132.425054</ele>
        <time>2023-09-17T12:10:13.424Z</time>
      </trkpt>
      <trkpt lat="43.66148" lon="1.45575">
        <ele>132.420786</ele>
        <time>2023-09-17T12:10:14.424Z</time>
      </trkpt>
      <trkpt lat="43.66141" lon="1.45568">
        <ele>132.392381</ele>
        <time>2023-09-17T12:10:17.424Z</time>
      </trkpt>
      <trkpt lat="43.66139" lon="1.45566">
        <ele>132.382247</ele>
        <time>2023-09-17T12:10:18.424Z</time>
      </trkpt>
      <trkpt lat="43.66134" lon="1.45562">
        <ele>132.364631</ele>
        <time>2023-09-17T12:10:20.424Z</time>
      </trkpt>
      <trkpt lat="43.66129" lon="1.45557">
        <ele>132.34663</ele>
        <time>2023-09-17T12:10:22.424Z</time>
      </trkpt>
      <trkpt lat="43.66129" lon="1.45557">
        <ele>132.34663</ele>
        <time>2023-09-17T12:10:22.424Z</time>
      </trkpt>
      <trkpt lat="43.66125" lon="1.45553">
        <ele>132.329138</ele>
        <time>2023-09-17T12:10:22.424Z</time>
      </trkpt>
      <trkpt lat="43.66116" lon="1.45548">
        <ele>132.298908</ele>
        <time>2023-09-17T12:10:24.424Z</time>
      </trkpt>
      <trkpt lat="43.66113" lon="1.45546">
        <ele>132.286739</ele>
        <time>2023-09-17T12:10:24.424Z</time>
      </trkpt>
      <trkpt lat="43.66108" lon="1.45542">
        <ele>132.268878</ele>
        <time>2023-09-17T12:10:26.424Z</time>
      </trkpt>
      <trkpt lat="43.66108" lon="1.45542">
        <ele>132.268878</ele>
        <time>2023-09-17T12:10:26.424Z</time>
      </trkpt>
      <trkpt lat="43.66103" lon="1.45539">
        <ele>132.249838</ele>
        <time>2023-09-17T12:10:26.424Z</time>
      </trkpt>
      <trkpt lat="43.66098" lon="1.45536">
        <ele>132.233545</ele>
        <time>2023-09-17T12:10:27.424Z</time>
      </trkpt>
      <trkpt lat="43.66093" lon="1.45533">
        <ele>132.216173</ele>
        <time>2023-09-17T12:10:28.424Z</time>
      </trkpt>
      <trkpt lat="43.66093" lon="1.45533">
        <ele>132.216173</ele>
        <time>2023-09-17T12:10:28.424Z</time>
      </trkpt>
      <trkpt lat="43.66089" lon="1.45532">
        <ele>132.201145</ele>
        <time>2023-09-17T12:10:30.424Z</time>
      </trkpt>
      <trkpt lat="43.66084" lon="1.45533">
        <ele>132.184895</ele>
        <time>2023-09-17T12:10:30.424Z</time>
      </trkpt>
      <trkpt lat="43.66079" lon="1.45534">
        <ele>132.169574</ele>
        <time>2023-09-17T12:10:32.424Z</time>
      </trkpt>
      <trkpt lat="43.66075" lon="1.45536">
        <ele>132.155885</ele>
        <time>2023-09-17T12:10:33.424Z</time>
      </trkpt>
      <trkpt lat="43.66075" lon="1.45536">
        <ele>132.155885</ele>
        <time>2023-09-17T12:10:33.424Z</time>
      </trkpt>
      <trkpt lat="43.66072" lon="1.45535">
        <ele>132.145703</ele>
        <time>2023-09-17T12:10:35.424Z</time>
      </trkpt>
      <trkpt lat="43.66063" lon="1.45532">
        <ele>132.116146</ele>
        <time>2023-09-17T12:10:36.424Z</time>
      </trkpt>
      <trkpt lat="43.66059" lon="1.45529">
        <ele>132.102791</ele>
        <time>2023-09-17T12:10:36.424Z</time>
      </trkpt>
      <trkpt lat="43.66055" lon="1.45527">
        <ele>132.087968</ele>
        <time>2023-09-17T12:10:37.424Z</time>
      </trkpt>
      <trkpt lat="43.66049" lon="1.45523">
        <ele>132.06775</ele>
        <time>2023-09-17T12:10:39.424Z</time>
      </trkpt>
      <trkpt lat="43.66042" lon="1.45519">
        <ele>132.042918</ele>
        <time>2023-09-17T12:10:40.424Z</time>
      </trkpt>
      <trkpt lat="43.66042" lon="1.45519">
        <ele>132.042918</ele>
        <time>2023-09-17T12:10:40.424Z</time>
      </trkpt>
      <trkpt lat="43.66037" lon="1.45515">
        <ele>132.022197</ele>
        <time>2023-09-17T12:10:41.424Z</time>
      </trkpt>
      <trkpt lat="43.66031" lon="1.4551">
        <ele>132.071754</ele>
        <time>2023-09-17T12:10:41.424Z</time>
      </trkpt>
      <trkpt lat="43.66026" lon="1.45505">
        <ele>132.131555</ele>
        <time>2023-09-17T12:10:43.424Z</time>
      </trkpt>
      <trkpt lat="43.66021" lon="1.455">
        <ele>132.183268</ele>
        <time>2023-09-17T12:10:44.424Z</time>
      </trkpt>
      <trkpt lat="43.66016" lon="1.45495">
        <ele>132.240121</ele>
        <time>2023-09-17T12:10:44.424Z</time>
      </trkpt>
      <trkpt lat="43.66016" lon="1.45495">
        <ele>132.240121</ele>
        <time>2023-09-17T12:10:44.424Z</time>
      </trkpt>
      <trkpt lat="43.66011" lon="1.45491">
        <ele>132.295261</ele>
        <time>2023-09-17T12:10:45.424Z</time>
      </trkpt>
      <trkpt lat="43.66005" lon="1.45487">
        <ele>132.355031</ele>
        <time>2023-09-17T12:10:47.424Z</time>
      </trkpt>
      <trkpt lat="43.65999" lon="1.45485">
        <ele>132.406779</ele>
        <time>2023-09-17T12:10:48.424Z</time>
      </trkpt>
      <trkpt lat="43.65999" lon="1.45485">
        <ele>132.406779</ele>
        <time>2023-09-17T12:10:48.424Z</time>
      </trkpt>
      <trkpt lat="43.65994" lon="1.45482">
        <ele>132.460057</ele>
        <time>2023-09-17T12:10:49.424Z</time>
      </trkpt>
      <trkpt lat="43.65988" lon="1.4548">
        <ele>132.510098</ele>
        <time>2023-09-17T12:10:50.424Z</time>
      </trkpt>
      <trkpt lat="43.65988" lon="1.4548">
        <ele>132.510098</ele>
        <time>2023-09-17T12:10:50.424Z</time>
      </trkpt>
      <trkpt lat="43.65982" lon="1.45477">
        <ele>132.565221</ele>
        <time>2023-09-17T12:10:51.424Z</time>
      </trkpt>
      <trkpt lat="43.65978" lon="1.45474">
        <ele>132.608568</ele>
        <time>2023-09-17T12:10:52.424Z</time>
      </trkpt>
      <trkpt lat="43.65978" lon="1.45474">
        <ele>132.608568</ele>
        <time>2023-09-17T12:10:52.424Z</time>
      </trkpt>
      <trkpt lat="43.65974" lon="1.45468">
        <ele>132.661379</ele>
        <time>2023-09-17T12:10:52.424Z</time>
      </trkpt>
      <trkpt lat="43.65974" lon="1.45468">
        <ele>132.661379</ele>
        <time>2023-09-17T12:10:52.424Z</time>
      </trkpt>
      <trkpt lat="43.6597" lon="1.45463">
        <ele>132.71238</ele>
        <time>2023-09-17T12:10:54.424Z</time>
      </trkpt>
      <trkpt lat="43.6597" lon="1.45463">
        <ele>132.71238</ele>
        <time>2023-09-17T12:10:54.424Z</time>
      </trkpt>
      <trkpt lat="43.65964" lon="1.45459">
        <ele>132.768296</ele>
        <time>2023-09-17T12:10:54.424Z</time>
      </trkpt>
      <trkpt lat="43.65958" lon="1.45457">
        <ele>132.821574</ele>
        <time>2023-09-17T12:10:56.424Z</time>
      </trkpt>
      <trkpt lat="43.65958" lon="1.45457">
        <ele>132.821574</ele>
        <time>2023-09-17T12:10:56.424Z</time>
      </trkpt>
      <trkpt lat="43.65951" lon="1.45456">
        <ele>132.886205</ele>
        <time>2023-09-17T12:10:57.424Z</time>
      </trkpt>
      <trkpt lat="43.65944" lon="1.45458">
        <ele>132.956069</ele>
        <time>2023-09-17T12:10:58.424Z</time>
      </trkpt>
      <trkpt lat="43.65937" lon="1.45461">
        <ele>133.013948</ele>
        <time>2023-09-17T12:10:59.424Z</time>
      </trkpt>
      <trkpt lat="43.65932" lon="1.45465">
        <ele>133.068129</ele>
        <time>2023-09-17T12:11:00.424Z</time>
      </trkpt>
      <trkpt lat="43.65926" lon="1.45469">
        <ele>133.128163</ele>
        <time>2023-09-17T12:11:01.424Z</time>
      </trkpt>
      <trkpt lat="43.65926" lon="1.45469">
        <ele>133.128163</ele>
        <time>2023-09-17T12:11:01.424Z</time>
      </trkpt>
      <trkpt lat="43.6592" lon="1.45471">
        <ele>133.181819</ele>
        <time>2023-09-17T12:11:02.424Z</time>
      </trkpt>
      <trkpt lat="43.65914" lon="1.45473">
        <ele>133.2373</ele>
        <time>2023-09-17T12:11:03.424Z</time>
      </trkpt>
      <trkpt lat="43.65908" lon="1.45473">
        <ele>133.295712</ele>
        <time>2023-09-17T12:11:04.424Z</time>
      </trkpt>
      <trkpt lat="43.65902" lon="1.45473">
        <ele>133.350478</ele>
        <time>2023-09-17T12:11:05.424Z</time>
      </trkpt>
      <trkpt lat="43.65902" lon="1.45473">
        <ele>133.350478</ele>
        <time>2023-09-17T12:11:05.424Z</time>
      </trkpt>
      <trkpt lat="43.65896" lon="1.45474">
        <ele>133.405399</ele>
        <time>2023-09-17T12:11:06.424Z</time>
      </trkpt>
      <trkpt lat="43.65889" lon="1.45475">
        <ele>133.46408</ele>
        <time>2023-09-17T12:11:07.424Z</time>
      </trkpt>
      <trkpt lat="43.65882" lon="1.45476">
        <ele>133.526208</ele>
        <time>2023-09-17T12:11:08.424Z</time>
      </trkpt>
      <trkpt lat="43.65882" lon="1.45476">
        <ele>133.526208</ele>
        <time>2023-09-17T12:11:08.424Z</time>
      </trkpt>
      <trkpt lat="43.65876" lon="1.45477">
        <ele>133.577614</ele>
        <time>2023-09-17T12:11:08.424Z</time>
      </trkpt>
      <trkpt lat="43.65869" lon="1.45478">
        <ele>133.637149</ele>
        <time>2023-09-17T12:11:09.424Z</time>
      </trkpt>
      <trkpt lat="43.65863" lon="1.45479">
        <ele>133.654715</ele>
        <time>2023-09-17T12:11:11.424Z</time>
      </trkpt>
      <trkpt lat="43.65863" lon="1.45479">
        <ele>133.654715</ele>
        <time>2023-09-17T12:11:11.424Z</time>
      </trkpt>
      <trkpt lat="43.65856" lon="1.45481">
        <ele>133.672649</ele>
        <time>2023-09-17T12:11:12.424Z</time>
      </trkpt>
      <trkpt lat="43.6585" lon="1.45483">
        <ele>133.690702</ele>
        <time>2023-09-17T12:11:13.424Z</time>
      </trkpt>
      <trkpt lat="43.65843" lon="1.45485">
        <ele>133.708799</ele>
        <time>2023-09-17T12:11:14.424Z</time>
      </trkpt>
      <trkpt lat="43.65843" lon="1.45485">
        <ele>133.708799</ele>
        <time>2023-09-17T12:11:14.424Z</time>
      </trkpt>
      <trkpt lat="43.65837" lon="1.45487">
        <ele>133.726852</ele>
        <time>2023-09-17T12:11:15.424Z</time>
      </trkpt>
      <trkpt lat="43.65831" lon="1.45489">
        <ele>133.743762</ele>
        <time>2023-09-17T12:11:16.424Z</time>
      </trkpt>
      <trkpt lat="43.65825" lon="1.45491">
        <ele>133.760671</ele>
        <time>2023-09-17T12:11:16.424Z</time>
      </trkpt>
      <trkpt lat="43.65825" lon="1.45491">
        <ele>133.760671</ele>
        <time>2023-09-17T12:11:16.424Z</time>
      </trkpt>
      <trkpt lat="43.65819" lon="1.45492">
        <ele>133.77648</ele>
        <time>2023-09-17T12:11:18.424Z</time>
      </trkpt>
      <trkpt lat="43.65812" lon="1.45494">
        <ele>133.794491</ele>
        <time>2023-09-17T12:11:19.424Z</time>
      </trkpt>
      <trkpt lat="43.65806" lon="1.45495">
        <ele>133.811103</ele>
        <time>2023-09-17T12:11:20.424Z</time>
      </trkpt>
      <trkpt lat="43.658" lon="1.45494">
        <ele>133.82778</ele>
        <time>2023-09-17T12:11:21.424Z</time>
      </trkpt>
      <trkpt lat="43.65794" lon="1.45492">
        <ele>133.84469</ele>
        <time>2023-09-17T12:11:22.424Z</time>
      </trkpt>
      <trkpt lat="43.65794" lon="1.45492">
        <ele>133.84469</ele>
        <time>2023-09-17T12:11:22.424Z</time>
      </trkpt>
      <trkpt lat="43.65788" lon="1.45491">
        <ele>133.861522</ele>
        <time>2023-09-17T12:11:23.424Z</time>
      </trkpt>
      <trkpt lat="43.65782" lon="1.45489">
        <ele>133.878354</ele>
        <time>2023-09-17T12:11:24.424Z</time>
      </trkpt>
      <trkpt lat="43.65775" lon="1.45487">
        <ele>133.896289</ele>
        <time>2023-09-17T12:11:25.424Z</time>
      </trkpt>
      <trkpt lat="43.65769" lon="1.45486">
        <ele>133.914094</ele>
        <time>2023-09-17T12:11:26.424Z</time>
      </trkpt>
      <trkpt lat="43.65769" lon="1.45486">
        <ele>133.914094</ele>
        <time>2023-09-17T12:11:26.424Z</time>
      </trkpt>
      <trkpt lat="43.65763" lon="1.45485">
        <ele>133.930826</ele>
        <time>2023-09-17T12:11:27.424Z</time>
      </trkpt>
      <trkpt lat="43.65756" lon="1.45483">
        <ele>133.948632</ele>
        <time>2023-09-17T12:11:28.424Z</time>
      </trkpt>
      <trkpt lat="43.6575" lon="1.45482">
        <ele>133.966466</ele>
        <time>2023-09-17T12:11:29.424Z</time>
      </trkpt>
      <trkpt lat="43.65743" lon="1.4548">
        <ele>133.985166</ele>
        <time>2023-09-17T12:11:30.424Z</time>
      </trkpt>
      <trkpt lat="43.65736" lon="1.45479">
        <ele>134.0031</ele>
        <time>2023-09-17T12:11:30.424Z</time>
      </trkpt>
      <trkpt lat="43.65736" lon="1.45479">
        <ele>134.0031</ele>
        <time>2023-09-17T12:11:30.424Z</time>
      </trkpt>
      <trkpt lat="43.6573" lon="1.45476">
        <ele>134.020242</ele>
        <time>2023-09-17T12:11:32.424Z</time>
      </trkpt>
      <trkpt lat="43.65723" lon="1.45474">
        <ele>134.039737</ele>
        <time>2023-09-17T12:11:32.424Z</time>
      </trkpt>
      <trkpt lat="43.65717" lon="1.45471">
        <ele>134.058137</ele>
        <time>2023-09-17T12:11:33.424Z</time>
      </trkpt>
      <trkpt lat="43.6571" lon="1.45468">
        <ele>134.077318</ele>
        <time>2023-09-17T12:11:34.424Z</time>
      </trkpt>
      <trkpt lat="43.6571" lon="1.45468">
        <ele>134.077318</ele>
        <time>2023-09-17T12:11:34.424Z</time>
      </trkpt>
      <trkpt lat="43.65703" lon="1.45465">
        <ele>134.096813</ele>
        <time>2023-09-17T12:11:35.424Z</time>
      </trkpt>
      <trkpt lat="43.65697" lon="1.45463">
        <ele>134.115213</ele>
        <time>2023-09-17T12:11:37.424Z</time>
      </trkpt>
      <trkpt lat="43.65697" lon="1.45463">
        <ele>134.115213</ele>
        <time>2023-09-17T12:11:37.424Z</time>
      </trkpt>
      <trkpt lat="43.6569" lon="1.4546">
        <ele>134.103898</ele>
        <time>2023-09-17T12:11:37.424Z</time>
      </trkpt>
      <trkpt lat="43.65683" lon="1.45458">
        <ele>134.079295</ele>
        <time>2023-09-17T12:11:38.424Z</time>
      </trkpt>
      <trkpt lat="43.65677" lon="1.45455">
        <ele>134.054399</ele>
        <time>2023-09-17T12:11:39.424Z</time>
      </trkpt>
      <trkpt lat="43.6567" lon="1.45452">
        <ele>134.030894</ele>
        <time>2023-09-17T12:11:40.424Z</time>
      </trkpt>
      <trkpt lat="43.65664" lon="1.45449">
        <ele>134.005835</ele>
        <time>2023-09-17T12:11:41.424Z</time>
      </trkpt>
      <trkpt lat="43.65664" lon="1.45449">
        <ele>134.005835</ele>
        <time>2023-09-17T12:11:41.424Z</time>
      </trkpt>
      <trkpt lat="43.65658" lon="1.45447">
        <ele>133.983967</ele>
        <time>2023-09-17T12:11:42.424Z</time>
      </trkpt>
      <trkpt lat="43.65652" lon="1.45444">
        <ele>133.95899</ele>
        <time>2023-09-17T12:11:43.424Z</time>
      </trkpt>
      <trkpt lat="43.65645" lon="1.45441">
        <ele>133.934171</ele>
        <time>2023-09-17T12:11:44.424Z</time>
      </trkpt>
      <trkpt lat="43.65639" lon="1.45438">
        <ele>133.910904</ele>
        <time>2023-09-17T12:11:45.424Z</time>
      </trkpt>
      <trkpt lat="43.65633" lon="1.45436">
        <ele>133.887638</ele>
        <time>2023-09-17T12:11:46.424Z</time>
      </trkpt>
      <trkpt lat="43.65633" lon="1.45436">
        <ele>133.887638</ele>
        <time>2023-09-17T12:11:46.424Z</time>
      </trkpt>
      <trkpt lat="43.65627" lon="1.45433">
        <ele>133.864049</ele>
        <time>2023-09-17T12:11:47.424Z</time>
      </trkpt>
      <trkpt lat="43.6562" lon="1.4543">
        <ele>133.838817</ele>
        <time>2023-09-17T12:11:48.424Z</time>
      </trkpt>
      <trkpt lat="43.65614" lon="1.45427">
        <ele>133.813997</ele>
        <time>2023-09-17T12:11:49.424Z</time>
      </trkpt>
      <trkpt lat="43.65608" lon="1.45425">
        <ele>133.792208</ele>
        <time>2023-09-17T12:11:50.424Z</time>
      </trkpt>
      <trkpt lat="43.65602" lon="1.45423">
        <ele>133.769154</ele>
        <time>2023-09-17T12:11:52.424Z</time>
      </trkpt>
      <trkpt lat="43.65602" lon="1.45423">
        <ele>133.769154</ele>
        <time>2023-09-17T12:11:52.424Z</time>
      </trkpt>
      <trkpt lat="43.65596" lon="1.4542">
        <ele>133.746166</ele>
        <time>2023-09-17T12:11:52.424Z</time>
      </trkpt>
      <trkpt lat="43.65596" lon="1.4542">
        <ele>133.746166</ele>
        <time>2023-09-17T12:11:52.424Z</time>
      </trkpt>
      <trkpt lat="43.6559" lon="1.45418">
        <ele>133.723178</ele>
        <time>2023-09-17T12:11:53.424Z</time>
      </trkpt>
      <trkpt lat="43.6559" lon="1.45418">
        <ele>133.723178</ele>
        <time>2023-09-17T12:11:53.424Z</time>
      </trkpt>
      <trkpt lat="43.65583" lon="1.45416">
        <ele>133.698576</ele>
        <time>2023-09-17T12:11:55.424Z</time>
      </trkpt>
      <trkpt lat="43.65578" lon="1.45414">
        <ele>133.677071</ele>
        <time>2023-09-17T12:11:56.424Z</time>
      </trkpt>
      <trkpt lat="43.65571" lon="1.45412">
        <ele>133.652535</ele>
        <time>2023-09-17T12:11:56.424Z</time>
      </trkpt>
      <trkpt lat="43.65571" lon="1.45412">
        <ele>133.652535</ele>
        <time>2023-09-17T12:11:56.424Z</time>
      </trkpt>
      <trkpt lat="43.65565" lon="1.4541">
        <ele>133.629547</ele>
        <time>2023-09-17T12:11:57.424Z</time>
      </trkpt>
      <trkpt lat="43.65559" lon="1.45407">
        <ele>133.605137</ele>
        <time>2023-09-17T12:11:59.424Z</time>
      </trkpt>
      <trkpt lat="43.65553" lon="1.45405">
        <ele>133.582149</ele>
        <time>2023-09-17T12:11:59.424Z</time>
      </trkpt>
      <trkpt lat="43.65546" lon="1.45403">
        <ele>133.559161</ele>
        <time>2023-09-17T12:12:01.424Z</time>
      </trkpt>
      <trkpt lat="43.6554" lon="1.45401">
        <ele>133.536173</ele>
        <time>2023-09-17T12:12:01.424Z</time>
      </trkpt>
      <trkpt lat="43.65534" lon="1.45399">
        <ele>133.513185</ele>
        <time>2023-09-17T12:12:03.424Z</time>
      </trkpt>
      <trkpt lat="43.65527" lon="1.45397">
        <ele>133.487291</ele>
        <time>2023-09-17T12:12:04.424Z</time>
      </trkpt>
      <trkpt lat="43.65521" lon="1.45395">
        <ele>133.464634</ele>
        <time>2023-09-17T12:12:05.424Z</time>
      </trkpt>
      <trkpt lat="43.65521" lon="1.45395">
        <ele>133.464634</ele>
        <time>2023-09-17T12:12:05.424Z</time>
      </trkpt>
      <trkpt lat="43.65515" lon="1.45394">
        <ele>133.479867</ele>
        <time>2023-09-17T12:12:06.424Z</time>
      </trkpt>
      <trkpt lat="43.65508" lon="1.45392">
        <ele>133.497648</ele>
        <time>2023-09-17T12:12:07.424Z</time>
      </trkpt>
      <trkpt lat="43.65502" lon="1.4539">
        <ele>133.513823</ele>
        <time>2023-09-17T12:12:08.424Z</time>
      </trkpt>
      <trkpt lat="43.65502" lon="1.4539">
        <ele>133.513823</ele>
        <time>2023-09-17T12:12:08.424Z</time>
      </trkpt>
      <trkpt lat="43.65496" lon="1.45388">
        <ele>133.531087</ele>
        <time>2023-09-17T12:12:09.424Z</time>
      </trkpt>
      <trkpt lat="43.65489" lon="1.45386">
        <ele>133.548399</ele>
        <time>2023-09-17T12:12:10.424Z</time>
      </trkpt>
      <trkpt lat="43.65483" lon="1.45383">
        <ele>133.565663</ele>
        <time>2023-09-17T12:12:11.424Z</time>
      </trkpt>
      <trkpt lat="43.65477" lon="1.45381">
        <ele>133.57985</ele>
        <time>2023-09-17T12:12:12.424Z</time>
      </trkpt>
      <trkpt lat="43.65471" lon="1.45379">
        <ele>133.598158</ele>
        <time>2023-09-17T12:12:12.424Z</time>
      </trkpt>
      <trkpt lat="43.65465" lon="1.45376">
        <ele>133.613436</ele>
        <time>2023-09-17T12:12:14.424Z</time>
      </trkpt>
      <trkpt lat="43.65459" lon="1.45374">
        <ele>133.629612</ele>
        <time>2023-09-17T12:12:15.424Z</time>
      </trkpt>
      <trkpt lat="43.65459" lon="1.45374">
        <ele>133.629612</ele>
        <time>2023-09-17T12:12:15.424Z</time>
      </trkpt>
      <trkpt lat="43.65453" lon="1.45373">
        <ele>133.645661</ele>
        <time>2023-09-17T12:12:15.424Z</time>
      </trkpt>
      <trkpt lat="43.65447" lon="1.4537">
        <ele>133.660889</ele>
        <time>2023-09-17T12:12:17.424Z</time>
      </trkpt>
      <trkpt lat="43.65442" lon="1.45367">
        <ele>133.675482</ele>
        <time>2023-09-17T12:12:18.424Z</time>
      </trkpt>
      <trkpt lat="43.65438" lon="1.45362">
        <ele>133.689505</ele>
        <time>2023-09-17T12:12:19.424Z</time>
      </trkpt>
      <trkpt lat="43.65433" lon="1.45357">
        <ele>133.704114</ele>
        <time>2023-09-17T12:12:20.424Z</time>
      </trkpt>
      <trkpt lat="43.65429" lon="1.45354">
        <ele>133.716195</ele>
        <time>2023-09-17T12:12:21.424Z</time>
      </trkpt>
      <trkpt lat="43.65429" lon="1.45354">
        <ele>133.716195</ele>
        <time>2023-09-17T12:12:21.424Z</time>
      </trkpt>
      <trkpt lat="43.65425" lon="1.45354">
        <ele>133.727104</ele>
        <time>2023-09-17T12:12:22.424Z</time>
      </trkpt>
      <trkpt lat="43.6542" lon="1.45352">
        <ele>133.739942</ele>
        <time>2023-09-17T12:12:23.424Z</time>
      </trkpt>
      <trkpt lat="43.65414" lon="1.4535">
        <ele>133.754428</ele>
        <time>2023-09-17T12:12:24.424Z</time>
      </trkpt>
      <trkpt lat="43.65409" lon="1.45346">
        <ele>133.770336</ele>
        <time>2023-09-17T12:12:25.424Z</time>
      </trkpt>
      <trkpt lat="43.65405" lon="1.4534">
        <ele>133.785986</ele>
        <time>2023-09-17T12:12:26.424Z</time>
      </trkpt>
      <trkpt lat="43.654" lon="1.45334">
        <ele>133.802261</ele>
        <time>2023-09-17T12:12:27.424Z</time>
      </trkpt>
      <trkpt lat="43.65395" lon="1.45328">
        <ele>133.818875</ele>
        <time>2023-09-17T12:12:28.424Z</time>
      </trkpt>
      <trkpt lat="43.65395" lon="1.45328">
        <ele>133.818875</ele>
        <time>2023-09-17T12:12:28.424Z</time>
      </trkpt>
      <trkpt lat="43.65391" lon="1.45321">
        <ele>133.834823</ele>
        <time>2023-09-17T12:12:29.424Z</time>
      </trkpt>
      <trkpt lat="43.65391" lon="1.45321">
        <ele>133.834823</ele>
        <time>2023-09-17T12:12:29.424Z</time>
      </trkpt>
      <trkpt lat="43.65387" lon="1.45316">
        <ele>133.849839</ele>
        <time>2023-09-17T12:12:30.424Z</time>
      </trkpt>
      <trkpt lat="43.65387" lon="1.45316">
        <ele>133.849839</ele>
        <time>2023-09-17T12:12:30.424Z</time>
      </trkpt>
      <trkpt lat="43.65382" lon="1.4531">
        <ele>133.866242</ele>
        <time>2023-09-17T12:12:31.424Z</time>
      </trkpt>
      <trkpt lat="43.65378" lon="1.45305">
        <ele>133.880505</ele>
        <time>2023-09-17T12:12:32.424Z</time>
      </trkpt>
      <trkpt lat="43.65378" lon="1.45305">
        <ele>133.880505</ele>
        <time>2023-09-17T12:12:32.424Z</time>
      </trkpt>
      <trkpt lat="43.65374" lon="1.453">
        <ele>133.894265</ele>
        <time>2023-09-17T12:12:33.424Z</time>
      </trkpt>
      <trkpt lat="43.65371" lon="1.45296">
        <ele>133.905177</ele>
        <time>2023-09-17T12:12:34.424Z</time>
      </trkpt>
      <trkpt lat="43.65371" lon="1.45296">
        <ele>133.905177</ele>
        <time>2023-09-17T12:12:34.424Z</time>
      </trkpt>
      <trkpt lat="43.65371" lon="1.45293">
        <ele>133.910517</ele>
        <time>2023-09-17T12:12:35.424Z</time>
      </trkpt>
      <trkpt lat="43.65372" lon="1.45289">
        <ele>133.918136</ele>
        <time>2023-09-17T12:12:36.424Z</time>
      </trkpt>
      <trkpt lat="43.65374" lon="1.45284">
        <ele>133.930683</ele>
        <time>2023-09-17T12:12:37.424Z</time>
      </trkpt>
      <trkpt lat="43.65377" lon="1.45279">
        <ele>133.959193</ele>
        <time>2023-09-17T12:12:38.424Z</time>
      </trkpt>
      <trkpt lat="43.65377" lon="1.45279">
        <ele>133.959193</ele>
        <time>2023-09-17T12:12:38.424Z</time>
      </trkpt>
      <trkpt lat="43.65381" lon="1.45274">
        <ele>133.990755</ele>
        <time>2023-09-17T12:12:39.424Z</time>
      </trkpt>
      <trkpt lat="43.65384" lon="1.45269">
        <ele>134.017513</ele>
        <time>2023-09-17T12:12:40.424Z</time>
      </trkpt>
      <trkpt lat="43.65388" lon="1.45264">
        <ele>134.046022</ele>
        <time>2023-09-17T12:12:41.424Z</time>
      </trkpt>
      <trkpt lat="43.65388" lon="1.45264">
        <ele>134.046022</ele>
        <time>2023-09-17T12:12:41.424Z</time>
      </trkpt>
      <trkpt lat="43.65392" lon="1.45257">
        <ele>134.081239</ele>
        <time>2023-09-17T12:12:42.424Z</time>
      </trkpt>
      <trkpt lat="43.65396" lon="1.45252">
        <ele>134.111335</ele>
        <time>2023-09-17T12:12:43.424Z</time>
      </trkpt>
      <trkpt lat="43.654" lon="1.45247">
        <ele>134.1423</ele>
        <time>2023-09-17T12:12:44.424Z</time>
      </trkpt>
      <trkpt lat="43.654" lon="1.45247">
        <ele>134.1423</ele>
        <time>2023-09-17T12:12:44.424Z</time>
      </trkpt>
      <trkpt lat="43.65405" lon="1.45243">
        <ele>134.1734</ele>
        <time>2023-09-17T12:12:45.424Z</time>
      </trkpt>
      <trkpt lat="43.6541" lon="1.45241">
        <ele>134.20617</ele>
        <time>2023-09-17T12:12:46.424Z</time>
      </trkpt>
      <trkpt lat="43.65415" lon="1.45238">
        <ele>134.235708</ele>
        <time>2023-09-17T12:12:46.424Z</time>
      </trkpt>
      <trkpt lat="43.6542" lon="1.45235">
        <ele>134.266517</ele>
        <time>2023-09-17T12:12:48.424Z</time>
      </trkpt>
      <trkpt lat="43.65428" lon="1.45233">
        <ele>134.312863</ele>
        <time>2023-09-17T12:12:49.424Z</time>
      </trkpt>
      <trkpt lat="43.65437" lon="1.45229">
        <ele>134.365008</ele>
        <time>2023-09-17T12:12:50.424Z</time>
      </trkpt>
      <trkpt lat="43.65442" lon="1.45227">
        <ele>134.399519</ele>
        <time>2023-09-17T12:12:51.424Z</time>
      </trkpt>
      <trkpt lat="43.65448" lon="1.45223">
        <ele>134.435127</ele>
        <time>2023-09-17T12:12:52.424Z</time>
      </trkpt>
      <trkpt lat="43.65448" lon="1.45223">
        <ele>134.435127</ele>
        <time>2023-09-17T12:12:52.424Z</time>
      </trkpt>
      <trkpt lat="43.65454" lon="1.45219">
        <ele>134.471084</ele>
        <time>2023-09-17T12:12:53.424Z</time>
      </trkpt>
      <trkpt lat="43.65459" lon="1.45215">
        <ele>134.50818</ele>
        <time>2023-09-17T12:12:53.424Z</time>
      </trkpt>
      <trkpt lat="43.65465" lon="1.4521">
        <ele>134.545772</ele>
        <time>2023-09-17T12:12:55.424Z</time>
      </trkpt>
      <trkpt lat="43.65471" lon="1.45206">
        <ele>134.58307</ele>
        <time>2023-09-17T12:12:55.424Z</time>
      </trkpt>
      <trkpt lat="43.65477" lon="1.45201">
        <ele>134.62121</ele>
        <time>2023-09-17T12:12:57.424Z</time>
      </trkpt>
      <trkpt lat="43.65482" lon="1.45197">
        <ele>134.656338</ele>
        <time>2023-09-17T12:12:57.424Z</time>
      </trkpt>
      <trkpt lat="43.65488" lon="1.45191">
        <ele>134.698806</ele>
        <time>2023-09-17T12:12:59.424Z</time>
      </trkpt>
      <trkpt lat="43.65495" lon="1.45187">
        <ele>134.742883</ele>
        <time>2023-09-17T12:13:00.424Z</time>
      </trkpt>
      <trkpt lat="43.65502" lon="1.45182">
        <ele>134.78419</ele>
        <time>2023-09-17T12:13:00.424Z</time>
      </trkpt>
      <trkpt lat="43.65509" lon="1.45177">
        <ele>134.828456</ele>
        <time>2023-09-17T12:13:01.424Z</time>
      </trkpt>
      <trkpt lat="43.65515" lon="1.45173">
        <ele>134.86907</ele>
        <time>2023-09-17T12:13:02.424Z</time>
      </trkpt>
      <trkpt lat="43.65521" lon="1.45169">
        <ele>134.902958</ele>
        <time>2023-09-17T12:13:04.424Z</time>
      </trkpt>
      <trkpt lat="43.65521" lon="1.45169">
        <ele>134.902958</ele>
        <time>2023-09-17T12:13:04.424Z</time>
      </trkpt>
      <trkpt lat="43.65525" lon="1.45166">
        <ele>134.931858</ele>
        <time>2023-09-17T12:13:04.424Z</time>
      </trkpt>
      <trkpt lat="43.6553" lon="1.45163">
        <ele>134.973907</ele>
        <time>2023-09-17T12:13:05.424Z</time>
      </trkpt>
      <trkpt lat="43.6553" lon="1.45163">
        <ele>134.973907</ele>
        <time>2023-09-17T12:13:05.424Z</time>
      </trkpt>
      <trkpt lat="43.65535" lon="1.4516">
        <ele>135.02197</ele>
        <time>2023-09-17T12:13:06.424Z</time>
      </trkpt>
      <trkpt lat="43.65541" lon="1.45156">
        <ele>135.073226</ele>
        <time>2023-09-17T12:13:08.424Z</time>
      </trkpt>
      <trkpt lat="43.65546" lon="1.45153">
        <ele>135.125582</ele>
        <time>2023-09-17T12:13:08.424Z</time>
      </trkpt>
      <trkpt lat="43.65546" lon="1.45153">
        <ele>135.125582</ele>
        <time>2023-09-17T12:13:08.424Z</time>
      </trkpt>
      <trkpt lat="43.65552" lon="1.45149">
        <ele>135.185392</ele>
        <time>2023-09-17T12:13:09.424Z</time>
      </trkpt>
      <trkpt lat="43.65558" lon="1.45145">
        <ele>135.244655</ele>
        <time>2023-09-17T12:13:10.424Z</time>
      </trkpt>
      <trkpt lat="43.65564" lon="1.45141">
        <ele>135.301252</ele>
        <time>2023-09-17T12:13:12.424Z</time>
      </trkpt>
      <trkpt lat="43.65569" lon="1.45137">
        <ele>135.355122</ele>
        <time>2023-09-17T12:13:13.424Z</time>
      </trkpt>
      <trkpt lat="43.65575" lon="1.45132">
        <ele>135.413003</ele>
        <time>2023-09-17T12:13:13.424Z</time>
      </trkpt>
      <trkpt lat="43.6558" lon="1.45129">
        <ele>135.465326</ele>
        <time>2023-09-17T12:13:14.424Z</time>
      </trkpt>
      <trkpt lat="43.6558" lon="1.45129">
        <ele>135.465326</ele>
        <time>2023-09-17T12:13:14.424Z</time>
      </trkpt>
      <trkpt lat="43.65585" lon="1.45126">
        <ele>135.508332</ele>
        <time>2023-09-17T12:13:16.424Z</time>
      </trkpt>
      <trkpt lat="43.6559" lon="1.45123">
        <ele>135.557467</ele>
        <time>2023-09-17T12:13:16.424Z</time>
      </trkpt>
      <trkpt lat="43.65593" lon="1.45119">
        <ele>135.594003</ele>
        <time>2023-09-17T12:13:18.424Z</time>
      </trkpt>
      <trkpt lat="43.65593" lon="1.45119">
        <ele>135.594003</ele>
        <time>2023-09-17T12:13:18.424Z</time>
      </trkpt>
      <trkpt lat="43.65595" lon="1.45115">
        <ele>135.62243</ele>
        <time>2023-09-17T12:13:18.424Z</time>
      </trkpt>
      <trkpt lat="43.65595" lon="1.45111">
        <ele>135.647948</ele>
        <time>2023-09-17T12:13:20.424Z</time>
      </trkpt>
      <trkpt lat="43.65595" lon="1.45111">
        <ele>135.647948</ele>
        <time>2023-09-17T12:13:20.424Z</time>
      </trkpt>
      <trkpt lat="43.65593" lon="1.45107">
        <ele>135.677667</ele>
        <time>2023-09-17T12:13:21.424Z</time>
      </trkpt>
      <trkpt lat="43.65591" lon="1.45103">
        <ele>135.71293</ele>
        <time>2023-09-17T12:13:21.424Z</time>
      </trkpt>
      <trkpt lat="43.65588" lon="1.45099">
        <ele>135.751207</ele>
        <time>2023-09-17T12:13:23.424Z</time>
      </trkpt>
      <trkpt lat="43.65584" lon="1.45094">
        <ele>135.798808</ele>
        <time>2023-09-17T12:13:24.424Z</time>
      </trkpt>
      <trkpt lat="43.65584" lon="1.45094">
        <ele>135.798808</ele>
        <time>2023-09-17T12:13:24.424Z</time>
      </trkpt>
      <trkpt lat="43.65581" lon="1.4509">
        <ele>135.834689</ele>
        <time>2023-09-17T12:13:25.424Z</time>
      </trkpt>
      <trkpt lat="43.65577" lon="1.45084">
        <ele>135.883365</ele>
        <time>2023-09-17T12:13:25.424Z</time>
      </trkpt>
      <trkpt lat="43.65574" lon="1.4508">
        <ele>135.922402</ele>
        <time>2023-09-17T12:13:27.424Z</time>
      </trkpt>
      <trkpt lat="43.65569" lon="1.45074">
        <ele>135.976877</ele>
        <time>2023-09-17T12:13:28.424Z</time>
      </trkpt>
      <trkpt lat="43.65566" lon="1.45069">
        <ele>136.023139</ele>
        <time>2023-09-17T12:13:29.424Z</time>
      </trkpt>
      <trkpt lat="43.65562" lon="1.45064">
        <ele>136.067381</ele>
        <time>2023-09-17T12:13:30.424Z</time>
      </trkpt>
      <trkpt lat="43.65562" lon="1.45064">
        <ele>136.067381</ele>
        <time>2023-09-17T12:13:30.424Z</time>
      </trkpt>
      <trkpt lat="43.65558" lon="1.45058">
        <ele>136.117895</ele>
        <time>2023-09-17T12:13:31.424Z</time>
      </trkpt>
      <trkpt lat="43.65554" lon="1.45053">
        <ele>136.169797</ele>
        <time>2023-09-17T12:13:32.424Z</time>
      </trkpt>
      <trkpt lat="43.65551" lon="1.45047">
        <ele>136.214986</ele>
        <time>2023-09-17T12:13:33.424Z</time>
      </trkpt>
      <trkpt lat="43.65546" lon="1.45041">
        <ele>136.272538</ele>
        <time>2023-09-17T12:13:33.424Z</time>
      </trkpt>
      <trkpt lat="43.65546" lon="1.45041">
        <ele>136.272538</ele>
        <time>2023-09-17T12:13:33.424Z</time>
      </trkpt>
      <trkpt lat="43.65542" lon="1.45035">
        <ele>136.323554</ele>
        <time>2023-09-17T12:13:35.424Z</time>
      </trkpt>
      <trkpt lat="43.65538" lon="1.4503">
        <ele>136.375905</ele>
        <time>2023-09-17T12:13:36.424Z</time>
      </trkpt>
      <trkpt lat="43.65534" lon="1.45024">
        <ele>136.424421</ele>
        <time>2023-09-17T12:13:37.424Z</time>
      </trkpt>
      <trkpt lat="43.65534" lon="1.45024">
        <ele>136.424421</ele>
        <time>2023-09-17T12:13:37.424Z</time>
      </trkpt>
      <trkpt lat="43.65531" lon="1.4502">
        <ele>136.461622</ele>
        <time>2023-09-17T12:13:38.424Z</time>
      </trkpt>
      <trkpt lat="43.65528" lon="1.45016">
        <ele>136.497324</ele>
        <time>2023-09-17T12:13:39.424Z</time>
      </trkpt>
      <trkpt lat="43.65525" lon="1.45012">
        <ele>136.531628</ele>
        <time>2023-09-17T12:13:40.424Z</time>
      </trkpt>
      <trkpt lat="43.65522" lon="1.45008">
        <ele>136.538085</ele>
        <time>2023-09-17T12:13:41.424Z</time>
      </trkpt>
      <trkpt lat="43.65522" lon="1.45008">
        <ele>136.538085</ele>
        <time>2023-09-17T12:13:41.424Z</time>
      </trkpt>
      <trkpt lat="43.65519" lon="1.45002">
        <ele>136.542008</ele>
        <time>2023-09-17T12:13:41.424Z</time>
      </trkpt>
      <trkpt lat="43.65515" lon="1.44996">
        <ele>136.546535</ele>
        <time>2023-09-17T12:13:43.424Z</time>
      </trkpt>
      <trkpt lat="43.6551" lon="1.44988">
        <ele>136.551771</ele>
        <time>2023-09-17T12:13:44.424Z</time>
      </trkpt>
      <trkpt lat="43.65506" lon="1.44981">
        <ele>136.557049</ele>
        <time>2023-09-17T12:13:45.424Z</time>
      </trkpt>
      <trkpt lat="43.65501" lon="1.44974">
        <ele>136.562366</ele>
        <time>2023-09-17T12:13:46.424Z</time>
      </trkpt>
      <trkpt lat="43.65501" lon="1.44974">
        <ele>136.562366</ele>
        <time>2023-09-17T12:13:46.424Z</time>
      </trkpt>
      <trkpt lat="43.65495" lon="1.44966">
        <ele>136.568228</ele>
        <time>2023-09-17T12:13:47.424Z</time>
      </trkpt>
      <trkpt lat="43.65491" lon="1.4496">
        <ele>136.57292</ele>
        <time>2023-09-17T12:13:48.424Z</time>
      </trkpt>
      <trkpt lat="43.65486" lon="1.44952">
        <ele>136.578035</ele>
        <time>2023-09-17T12:13:49.424Z</time>
      </trkpt>
      <trkpt lat="43.65483" lon="1.44947">
        <ele>136.582041</ele>
        <time>2023-09-17T12:13:50.424Z</time>
      </trkpt>
      <trkpt lat="43.65479" lon="1.4494">
        <ele>136.58639</ele>
        <time>2023-09-17T12:13:50.424Z</time>
      </trkpt>
      <trkpt lat="43.65478" lon="1.44934">
        <ele>136.589576</ele>
        <time>2023-09-17T12:13:52.424Z</time>
      </trkpt>
      <trkpt lat="43.65478" lon="1.44934">
        <ele>136.589576</ele>
        <time>2023-09-17T12:13:52.424Z</time>
      </trkpt>
      <trkpt lat="43.65477" lon="1.44924">
        <ele>136.595182</ele>
        <time>2023-09-17T12:13:53.424Z</time>
      </trkpt>
      <trkpt lat="43.65478" lon="1.44917">
        <ele>136.599187</ele>
        <time>2023-09-17T12:13:54.424Z</time>
      </trkpt>
      <trkpt lat="43.6548" lon="1.44909">
        <ele>136.603706</ele>
        <time>2023-09-17T12:13:55.424Z</time>
      </trkpt>
      <trkpt lat="43.65484" lon="1.449">
        <ele>136.609199</ele>
        <time>2023-09-17T12:13:56.424Z</time>
      </trkpt>
      <trkpt lat="43.65488" lon="1.44892">
        <ele>136.614425</ele>
        <time>2023-09-17T12:13:57.424Z</time>
      </trkpt>
      <trkpt lat="43.65492" lon="1.44885">
        <ele>136.619165</ele>
        <time>2023-09-17T12:13:58.424Z</time>
      </trkpt>
      <trkpt lat="43.65496" lon="1.44877">
        <ele>136.624213</ele>
        <time>2023-09-17T12:13:59.424Z</time>
      </trkpt>
      <trkpt lat="43.65496" lon="1.44877">
        <ele>136.624213</ele>
        <time>2023-09-17T12:13:59.424Z</time>
      </trkpt>
      <trkpt lat="43.655" lon="1.4487">
        <ele>136.629083</ele>
        <time>2023-09-17T12:14:00.424Z</time>
      </trkpt>
      <trkpt lat="43.65503" lon="1.44862">
        <ele>136.633589</ele>
        <time>2023-09-17T12:14:01.424Z</time>
      </trkpt>
      <trkpt lat="43.65506" lon="1.44854">
        <ele>136.63846</ele>
        <time>2023-09-17T12:14:02.424Z</time>
      </trkpt>
      <trkpt lat="43.65508" lon="1.44848">
        <ele>136.64267</ele>
        <time>2023-09-17T12:14:03.424Z</time>
      </trkpt>
      <trkpt lat="43.65511" lon="1.4484">
        <ele>136.647182</ele>
        <time>2023-09-17T12:14:04.424Z</time>
      </trkpt>
      <trkpt lat="43.65513" lon="1.44833">
        <ele>136.651308</ele>
        <time>2023-09-17T12:14:04.424Z</time>
      </trkpt>
      <trkpt lat="43.65516" lon="1.44826">
        <ele>136.655851</ele>
        <time>2023-09-17T12:14:06.424Z</time>
      </trkpt>
      <trkpt lat="43.65516" lon="1.44826">
        <ele>136.655851</ele>
        <time>2023-09-17T12:14:06.424Z</time>
      </trkpt>
      <trkpt lat="43.65521" lon="1.44818">
        <ele>136.660815</ele>
        <time>2023-09-17T12:14:07.424Z</time>
      </trkpt>
      <trkpt lat="43.65524" lon="1.44813">
        <ele>136.664975</ele>
        <time>2023-09-17T12:14:08.424Z</time>
      </trkpt>
      <trkpt lat="43.65524" lon="1.44813">
        <ele>136.664975</ele>
        <time>2023-09-17T12:14:08.424Z</time>
      </trkpt>
      <trkpt lat="43.65529" lon="1.44807">
        <ele>136.668419</ele>
        <time>2023-09-17T12:14:08.424Z</time>
      </trkpt>
      <trkpt lat="43.65533" lon="1.448">
        <ele>136.668419</ele>
        <time>2023-09-17T12:14:10.424Z</time>
      </trkpt>
      <trkpt lat="43.65538" lon="1.44793">
        <ele>136.668419</ele>
        <time>2023-09-17T12:14:11.424Z</time>
      </trkpt>
      <trkpt lat="43.65542" lon="1.44786">
        <ele>136.668419</ele>
        <time>2023-09-17T12:14:12.424Z</time>
      </trkpt>
      <trkpt lat="43.65546" lon="1.44779">
        <ele>136.668419</ele>
        <time>2023-09-17T12:14:13.424Z</time>
      </trkpt>
      <trkpt lat="43.6555" lon="1.44771">
        <ele>136.668419</ele>
        <time>2023-09-17T12:14:14.424Z</time>
      </trkpt>
      <trkpt lat="43.65553" lon="1.44764">
        <ele>136.668419</ele>
        <time>2023-09-17T12:14:15.424Z</time>
      </trkpt>
      <trkpt lat="43.65557" lon="1.44757">
        <ele>136.668419</ele>
        <time>2023-09-17T12:14:15.424Z</time>
      </trkpt>
      <trkpt lat="43.65562" lon="1.44748">
        <ele>136.668419</ele>
        <time>2023-09-17T12:14:16.424Z</time>
      </trkpt>
      <trkpt lat="43.65566" lon="1.44739">
        <ele>136.668419</ele>
        <time>2023-09-17T12:14:18.424Z</time>
      </trkpt>
      <trkpt lat="43.65571" lon="1.4473">
        <ele>136.668419</ele>
        <time>2023-09-17T12:14:18.424Z</time>
      </trkpt>
      <trkpt lat="43.65571" lon="1.4473">
        <ele>136.668419</ele>
        <time>2023-09-17T12:14:18.424Z</time>
      </trkpt>
      <trkpt lat="43.65575" lon="1.44723">
        <ele>136.668419</ele>
        <time>2023-09-17T12:14:19.424Z</time>
      </trkpt>
      <trkpt lat="43.65579" lon="1.44715">
        <ele>136.668419</ele>
        <time>2023-09-17T12:14:20.424Z</time>
      </trkpt>
      <trkpt lat="43.65582" lon="1.44707">
        <ele>136.668419</ele>
        <time>2023-09-17T12:14:21.424Z</time>
      </trkpt>
      <trkpt lat="43.65586" lon="1.447">
        <ele>136.668419</ele>
        <time>2023-09-17T12:14:22.424Z</time>
      </trkpt>
      <trkpt lat="43.6559" lon="1.44693">
        <ele>136.668419</ele>
        <time>2023-09-17T12:14:23.424Z</time>
      </trkpt>
      <trkpt lat="43.65593" lon="1.44686">
        <ele>136.668419</ele>
        <time>2023-09-17T12:14:24.424Z</time>
      </trkpt>
      <trkpt lat="43.65596" lon="1.44679">
        <ele>136.668419</ele>
        <time>2023-09-17T12:14:25.424Z</time>
      </trkpt>
      <trkpt lat="43.656" lon="1.44672">
        <ele>136.668419</ele>
        <time>2023-09-17T12:14:26.424Z</time>
      </trkpt>
      <trkpt lat="43.65603" lon="1.44666">
        <ele>136.668419</ele>
        <time>2023-09-17T12:14:27.424Z</time>
      </trkpt>
      <trkpt lat="43.65606" lon="1.4466">
        <ele>136.668419</ele>
        <time>2023-09-17T12:14:28.424Z</time>
      </trkpt>
      <trkpt lat="43.65606" lon="1.44654">
        <ele>136.668419</ele>
        <time>2023-09-17T12:14:29.424Z</time>
      </trkpt>
      <trkpt lat="43.65606" lon="1.44649">
        <ele>136.668419</ele>
        <time>2023-09-17T12:14:30.424Z</time>
      </trkpt>
      <trkpt lat="43.65605" lon="1.44646">
        <ele>136.668419</ele>
        <time>2023-09-17T12:14:32.424Z</time>
      </trkpt>
      <trkpt lat="43.65603" lon="1.44643">
        <ele>136.668419</ele>
        <time>2023-09-17T12:14:32.424Z</time>
      </trkpt>
      <trkpt lat="43.65601" lon="1.4464">
        <ele>136.668419</ele>
        <time>2023-09-17T12:14:33.424Z</time>
      </trkpt>
      <trkpt lat="43.65598" lon="1.44638">
        <ele>136.668419</ele>
        <time>2023-09-17T12:14:35.424Z</time>
      </trkpt>
      <trkpt lat="43.65595" lon="1.44637">
        <ele>136.668419</ele>
        <time>2023-09-17T12:14:35.424Z</time>
      </trkpt>
      <trkpt lat="43.65593" lon="1.44635">
        <ele>136.668419</ele>
        <time>2023-09-17T12:14:36.424Z</time>
      </trkpt>
      <trkpt lat="43.65593" lon="1.44635">
        <ele>136.668419</ele>
        <time>2023-09-17T12:14:37.424Z</time>
      </trkpt>
      <trkpt lat="43.65592" lon="1.44635">
        <ele>136.668419</ele>
        <time>2023-09-17T12:14:39.424Z</time>
      </trkpt>
      <trkpt lat="43.65592" lon="1.44635">
        <ele>136.668419</ele>
        <time>2023-09-17T12:14:39.424Z</time>
      </trkpt>
      <trkpt lat="43.65587" lon="1.44632">
        <ele>136.668419</ele>
        <time>2023-09-17T12:14:40.424Z</time>
      </trkpt>
      <trkpt lat="43.65582" lon="1.44629">
        <ele>136.668419</ele>
        <time>2023-09-17T12:14:43.424Z</time>
      </trkpt>
      <trkpt lat="43.65579" lon="1.44626">
        <ele>136.668419</ele>
        <time>2023-09-17T12:14:43.424Z</time>
      </trkpt>
      <trkpt lat="43.65578" lon="1.44621">
        <ele>136.668419</ele>
        <time>2023-09-17T12:14:46.424Z</time>
      </trkpt>
      <trkpt lat="43.65577" lon="1.44619">
        <ele>136.668419</ele>
        <time>2023-09-17T12:14:47.424Z</time>
      </trkpt>
      <trkpt lat="43.65576" lon="1.44614">
        <ele>136.668419</ele>
        <time>2023-09-17T12:14:49.424Z</time>
      </trkpt>
      <trkpt lat="43.65574" lon="1.44613">
        <ele>136.668419</ele>
        <time>2023-09-17T12:14:50.424Z</time>
      </trkpt>
      <trkpt lat="43.65574" lon="1.44613">
        <ele>136.668419</ele>
        <time>2023-09-17T12:15:11.424Z</time>
        <extensions>
          <visugpx:TrkExtension xmlns:visugpx="https://www.visugpx.com/editgpx/">
            <visugpx:node>1</visugpx:node>
            </visugpx:TrkExtension>
        </extensions>
      </trkpt>
    </trkseg>
  </trk>
</gpx>